<?xml version="1.0" encoding="UTF-8" standalone="no" ?>
<gpx xmlns="http://www.topografix.com/GPX/1/1" xmlns:xsi="http://www.w3.org/2001/XMLSchema-instance" xsi:schemaLocation="http://www.topografix.com/GPX/1/1 http://www.topografix.com/GPX/1/1/gpx.xsd" version="1.1" creator="VisuGPX - https://www.visugpx.com">
  <metadata>
    <name>2018-05-29 Bike ride-Ambérieux-Rancé O 36k</name>
    <desc><![CDATA[2018-05-29 Bike ride-Ambérieux-Rancé O 36k]]></desc>
  </metadata>
  <wpt lat="45.92452" lon="4.73682">
    <ele>174</ele>
    <name><![CDATA[2018-05-29 10:14 (Start)]]></name>
  </wpt>
  <wpt lat="45.92457" lon="4.73711">
    <ele>174</ele>
    <name><![CDATA[2018-05-29 10:14 (End)]]></name>
  </wpt>
  <trk>
    <name><![CDATA[2018-05-29 10:14]]></name>
    <trkseg>
      <trkpt lat="45.92452" lon="4.73682">
        <ele>174</ele>
        <time>2018-05-29T08:14:31.225Z</time>
      </trkpt>
      <trkpt lat="45.92451" lon="4.73682">
        <ele>174</ele>
        <time>2018-05-29T08:14:35.735Z</time>
      </trkpt>
      <trkpt lat="45.92447" lon="4.73687">
        <ele>174</ele>
        <time>2018-05-29T08:14:36.735Z</time>
      </trkpt>
      <trkpt lat="45.9245" lon="4.73688">
        <ele>174</ele>
        <time>2018-05-29T08:14:37.715Z</time>
      </trkpt>
      <trkpt lat="45.92454" lon="4.73681">
        <ele>174</ele>
        <time>2018-05-29T08:14:39Z</time>
      </trkpt>
      <trkpt lat="45.92456" lon="4.73677">
        <ele>174</ele>
        <time>2018-05-29T08:14:40Z</time>
      </trkpt>
      <trkpt lat="45.92459" lon="4.73666">
        <ele>174</ele>
        <time>2018-05-29T08:14:46Z</time>
      </trkpt>
      <trkpt lat="45.92459" lon="4.73664">
        <ele>174</ele>
        <time>2018-05-29T08:14:47Z</time>
      </trkpt>
      <trkpt lat="45.92461" lon="4.73654">
        <ele>174</ele>
        <time>2018-05-29T08:14:51Z</time>
      </trkpt>
      <trkpt lat="45.92462" lon="4.73651">
        <ele>174</ele>
        <time>2018-05-29T08:14:52Z</time>
      </trkpt>
      <trkpt lat="45.92467" lon="4.73644">
        <ele>174</ele>
        <time>2018-05-29T08:14:55Z</time>
      </trkpt>
      <trkpt lat="45.9247" lon="4.73643">
        <ele>174</ele>
        <time>2018-05-29T08:14:56Z</time>
      </trkpt>
      <trkpt lat="45.92476" lon="4.73643">
        <ele>174</ele>
        <time>2018-05-29T08:14:58Z</time>
      </trkpt>
      <trkpt lat="45.92479" lon="4.73644">
        <ele>174</ele>
        <time>2018-05-29T08:14:59Z</time>
      </trkpt>
      <trkpt lat="45.92482" lon="4.73644">
        <ele>174</ele>
        <time>2018-05-29T08:15:00Z</time>
      </trkpt>
      <trkpt lat="45.92492" lon="4.73645">
        <ele>174</ele>
        <time>2018-05-29T08:15:01Z</time>
      </trkpt>
      <trkpt lat="45.925" lon="4.73645">
        <ele>174</ele>
        <time>2018-05-29T08:15:03Z</time>
      </trkpt>
      <trkpt lat="45.92504" lon="4.73645">
        <ele>174</ele>
        <time>2018-05-29T08:15:04Z</time>
      </trkpt>
      <trkpt lat="45.92509" lon="4.73645">
        <ele>174</ele>
        <time>2018-05-29T08:15:05Z</time>
      </trkpt>
      <trkpt lat="45.92514" lon="4.73644">
        <ele>174</ele>
        <time>2018-05-29T08:15:06Z</time>
      </trkpt>
      <trkpt lat="45.92518" lon="4.73644">
        <ele>174</ele>
        <time>2018-05-29T08:15:07Z</time>
      </trkpt>
      <trkpt lat="45.92523" lon="4.73644">
        <ele>173</ele>
        <time>2018-05-29T08:15:08Z</time>
      </trkpt>
      <trkpt lat="45.92528" lon="4.73643">
        <ele>173</ele>
        <time>2018-05-29T08:15:09Z</time>
      </trkpt>
      <trkpt lat="45.92533" lon="4.73642">
        <ele>173</ele>
        <time>2018-05-29T08:15:10Z</time>
      </trkpt>
      <trkpt lat="45.92538" lon="4.73642">
        <ele>173</ele>
        <time>2018-05-29T08:15:11Z</time>
      </trkpt>
      <trkpt lat="45.92543" lon="4.73641">
        <ele>173</ele>
        <time>2018-05-29T08:15:12Z</time>
      </trkpt>
      <trkpt lat="45.92548" lon="4.73639">
        <ele>173</ele>
        <time>2018-05-29T08:15:13Z</time>
      </trkpt>
      <trkpt lat="45.92553" lon="4.73638">
        <ele>173</ele>
        <time>2018-05-29T08:15:14Z</time>
      </trkpt>
      <trkpt lat="45.92558" lon="4.73637">
        <ele>173</ele>
        <time>2018-05-29T08:15:15Z</time>
      </trkpt>
      <trkpt lat="45.92562" lon="4.73636">
        <ele>173</ele>
        <time>2018-05-29T08:15:16Z</time>
      </trkpt>
      <trkpt lat="45.92567" lon="4.73636">
        <ele>173</ele>
        <time>2018-05-29T08:15:17Z</time>
      </trkpt>
      <trkpt lat="45.92572" lon="4.73634">
        <ele>173</ele>
        <time>2018-05-29T08:15:18Z</time>
      </trkpt>
      <trkpt lat="45.92576" lon="4.73635">
        <ele>172</ele>
        <time>2018-05-29T08:15:19Z</time>
      </trkpt>
      <trkpt lat="45.92582" lon="4.73633">
        <ele>172</ele>
        <time>2018-05-29T08:15:20Z</time>
      </trkpt>
      <trkpt lat="45.9259" lon="4.73633">
        <ele>172</ele>
        <time>2018-05-29T08:15:22Z</time>
      </trkpt>
      <trkpt lat="45.92597" lon="4.73634">
        <ele>172</ele>
        <time>2018-05-29T08:15:23Z</time>
      </trkpt>
      <trkpt lat="45.92602" lon="4.73634">
        <ele>172</ele>
        <time>2018-05-29T08:15:24Z</time>
      </trkpt>
      <trkpt lat="45.92607" lon="4.73637">
        <ele>172</ele>
        <time>2018-05-29T08:15:25Z</time>
      </trkpt>
      <trkpt lat="45.92612" lon="4.73642">
        <ele>172</ele>
        <time>2018-05-29T08:15:26Z</time>
      </trkpt>
      <trkpt lat="45.92616" lon="4.73648">
        <ele>173</ele>
        <time>2018-05-29T08:15:27Z</time>
      </trkpt>
      <trkpt lat="45.9262" lon="4.73654">
        <ele>173</ele>
        <time>2018-05-29T08:15:28Z</time>
      </trkpt>
      <trkpt lat="45.92623" lon="4.73661">
        <ele>173</ele>
        <time>2018-05-29T08:15:29Z</time>
      </trkpt>
      <trkpt lat="45.92625" lon="4.73668">
        <ele>173</ele>
        <time>2018-05-29T08:15:30Z</time>
      </trkpt>
      <trkpt lat="45.92629" lon="4.73675">
        <ele>173</ele>
        <time>2018-05-29T08:15:31Z</time>
      </trkpt>
      <trkpt lat="45.92633" lon="4.73682">
        <ele>173</ele>
        <time>2018-05-29T08:15:32Z</time>
      </trkpt>
      <trkpt lat="45.92637" lon="4.73687">
        <ele>173</ele>
        <time>2018-05-29T08:15:33Z</time>
      </trkpt>
      <trkpt lat="45.92641" lon="4.73692">
        <ele>173</ele>
        <time>2018-05-29T08:15:34Z</time>
      </trkpt>
      <trkpt lat="45.92646" lon="4.73697">
        <ele>173</ele>
        <time>2018-05-29T08:15:35Z</time>
      </trkpt>
      <trkpt lat="45.9265" lon="4.73702">
        <ele>173</ele>
        <time>2018-05-29T08:15:36Z</time>
      </trkpt>
      <trkpt lat="45.92656" lon="4.73706">
        <ele>173</ele>
        <time>2018-05-29T08:15:37Z</time>
      </trkpt>
      <trkpt lat="45.92662" lon="4.7371">
        <ele>173</ele>
        <time>2018-05-29T08:15:38Z</time>
      </trkpt>
      <trkpt lat="45.92668" lon="4.73713">
        <ele>174</ele>
        <time>2018-05-29T08:15:39Z</time>
      </trkpt>
      <trkpt lat="45.92674" lon="4.73714">
        <ele>174</ele>
        <time>2018-05-29T08:15:40Z</time>
      </trkpt>
      <trkpt lat="45.9268" lon="4.73715">
        <ele>173</ele>
        <time>2018-05-29T08:15:41Z</time>
      </trkpt>
      <trkpt lat="45.92686" lon="4.73718">
        <ele>173</ele>
        <time>2018-05-29T08:15:42Z</time>
      </trkpt>
      <trkpt lat="45.92692" lon="4.73719">
        <ele>173</ele>
        <time>2018-05-29T08:15:43Z</time>
      </trkpt>
      <trkpt lat="45.92698" lon="4.73721">
        <ele>173</ele>
        <time>2018-05-29T08:15:44Z</time>
      </trkpt>
      <trkpt lat="45.92704" lon="4.73722">
        <ele>173</ele>
        <time>2018-05-29T08:15:45Z</time>
      </trkpt>
      <trkpt lat="45.9271" lon="4.73724">
        <ele>173</ele>
        <time>2018-05-29T08:15:46Z</time>
      </trkpt>
      <trkpt lat="45.92716" lon="4.73725">
        <ele>173</ele>
        <time>2018-05-29T08:15:47Z</time>
      </trkpt>
      <trkpt lat="45.92721" lon="4.73726">
        <ele>173</ele>
        <time>2018-05-29T08:15:48Z</time>
      </trkpt>
      <trkpt lat="45.92727" lon="4.73727">
        <ele>173</ele>
        <time>2018-05-29T08:15:49Z</time>
      </trkpt>
      <trkpt lat="45.92733" lon="4.73729">
        <ele>173</ele>
        <time>2018-05-29T08:15:50Z</time>
      </trkpt>
      <trkpt lat="45.92739" lon="4.73731">
        <ele>173</ele>
        <time>2018-05-29T08:15:51Z</time>
      </trkpt>
      <trkpt lat="45.92745" lon="4.73732">
        <ele>173</ele>
        <time>2018-05-29T08:15:52Z</time>
      </trkpt>
      <trkpt lat="45.9275" lon="4.73734">
        <ele>173</ele>
        <time>2018-05-29T08:15:53Z</time>
      </trkpt>
      <trkpt lat="45.92756" lon="4.73733">
        <ele>172</ele>
        <time>2018-05-29T08:15:54Z</time>
      </trkpt>
      <trkpt lat="45.92761" lon="4.73736">
        <ele>172</ele>
        <time>2018-05-29T08:15:55Z</time>
      </trkpt>
      <trkpt lat="45.92765" lon="4.73738">
        <ele>172</ele>
        <time>2018-05-29T08:15:56Z</time>
      </trkpt>
      <trkpt lat="45.9277" lon="4.73741">
        <ele>172</ele>
        <time>2018-05-29T08:15:57Z</time>
      </trkpt>
      <trkpt lat="45.92776" lon="4.73747">
        <ele>172</ele>
        <time>2018-05-29T08:16:00Z</time>
      </trkpt>
      <trkpt lat="45.92778" lon="4.73749">
        <ele>172</ele>
        <time>2018-05-29T08:16:01Z</time>
      </trkpt>
      <trkpt lat="45.92782" lon="4.73757">
        <ele>173</ele>
        <time>2018-05-29T08:16:02Z</time>
      </trkpt>
      <trkpt lat="45.92785" lon="4.73759">
        <ele>173</ele>
        <time>2018-05-29T08:16:03Z</time>
      </trkpt>
      <trkpt lat="45.92792" lon="4.73765">
        <ele>173</ele>
        <time>2018-05-29T08:16:05Z</time>
      </trkpt>
      <trkpt lat="45.92795" lon="4.73769">
        <ele>173</ele>
        <time>2018-05-29T08:16:06Z</time>
      </trkpt>
      <trkpt lat="45.928" lon="4.73772">
        <ele>173</ele>
        <time>2018-05-29T08:16:07Z</time>
      </trkpt>
      <trkpt lat="45.92804" lon="4.73775">
        <ele>173</ele>
        <time>2018-05-29T08:16:08Z</time>
      </trkpt>
      <trkpt lat="45.92809" lon="4.73778">
        <ele>173</ele>
        <time>2018-05-29T08:16:09Z</time>
      </trkpt>
      <trkpt lat="45.92815" lon="4.73781">
        <ele>173</ele>
        <time>2018-05-29T08:16:10Z</time>
      </trkpt>
      <trkpt lat="45.92821" lon="4.73785">
        <ele>173</ele>
        <time>2018-05-29T08:16:11Z</time>
      </trkpt>
      <trkpt lat="45.92826" lon="4.73788">
        <ele>173</ele>
        <time>2018-05-29T08:16:12Z</time>
      </trkpt>
      <trkpt lat="45.92831" lon="4.73791">
        <ele>173</ele>
        <time>2018-05-29T08:16:13Z</time>
      </trkpt>
      <trkpt lat="45.92836" lon="4.73795">
        <ele>173</ele>
        <time>2018-05-29T08:16:14Z</time>
      </trkpt>
      <trkpt lat="45.92841" lon="4.73799">
        <ele>173</ele>
        <time>2018-05-29T08:16:15Z</time>
      </trkpt>
      <trkpt lat="45.92845" lon="4.73805">
        <ele>173</ele>
        <time>2018-05-29T08:16:16Z</time>
      </trkpt>
      <trkpt lat="45.92849" lon="4.73811">
        <ele>173</ele>
        <time>2018-05-29T08:16:17Z</time>
      </trkpt>
      <trkpt lat="45.92852" lon="4.73817">
        <ele>173</ele>
        <time>2018-05-29T08:16:18Z</time>
      </trkpt>
      <trkpt lat="45.92855" lon="4.73825">
        <ele>173</ele>
        <time>2018-05-29T08:16:19Z</time>
      </trkpt>
      <trkpt lat="45.92857" lon="4.73832">
        <ele>173</ele>
        <time>2018-05-29T08:16:20Z</time>
      </trkpt>
      <trkpt lat="45.9286" lon="4.7384">
        <ele>173</ele>
        <time>2018-05-29T08:16:21Z</time>
      </trkpt>
      <trkpt lat="45.92862" lon="4.73847">
        <ele>173</ele>
        <time>2018-05-29T08:16:22Z</time>
      </trkpt>
      <trkpt lat="45.92865" lon="4.73855">
        <ele>173</ele>
        <time>2018-05-29T08:16:23Z</time>
      </trkpt>
      <trkpt lat="45.92866" lon="4.73862">
        <ele>173</ele>
        <time>2018-05-29T08:16:24Z</time>
      </trkpt>
      <trkpt lat="45.92869" lon="4.7387">
        <ele>173</ele>
        <time>2018-05-29T08:16:25Z</time>
      </trkpt>
      <trkpt lat="45.9287" lon="4.73878">
        <ele>173</ele>
        <time>2018-05-29T08:16:26Z</time>
      </trkpt>
      <trkpt lat="45.92872" lon="4.73886">
        <ele>173</ele>
        <time>2018-05-29T08:16:27Z</time>
      </trkpt>
      <trkpt lat="45.92874" lon="4.73894">
        <ele>173</ele>
        <time>2018-05-29T08:16:28Z</time>
      </trkpt>
      <trkpt lat="45.92875" lon="4.739">
        <ele>173</ele>
        <time>2018-05-29T08:16:29Z</time>
      </trkpt>
      <trkpt lat="45.92876" lon="4.73909">
        <ele>173</ele>
        <time>2018-05-29T08:16:30Z</time>
      </trkpt>
      <trkpt lat="45.92877" lon="4.73916">
        <ele>173</ele>
        <time>2018-05-29T08:16:31Z</time>
      </trkpt>
      <trkpt lat="45.92877" lon="4.73925">
        <ele>172</ele>
        <time>2018-05-29T08:16:32Z</time>
      </trkpt>
      <trkpt lat="45.92877" lon="4.73933">
        <ele>172</ele>
        <time>2018-05-29T08:16:33Z</time>
      </trkpt>
      <trkpt lat="45.92878" lon="4.73941">
        <ele>172</ele>
        <time>2018-05-29T08:16:34Z</time>
      </trkpt>
      <trkpt lat="45.92879" lon="4.73948">
        <ele>172</ele>
        <time>2018-05-29T08:16:35Z</time>
      </trkpt>
      <trkpt lat="45.92879" lon="4.73956">
        <ele>172</ele>
        <time>2018-05-29T08:16:36Z</time>
      </trkpt>
      <trkpt lat="45.92879" lon="4.73969">
        <ele>172</ele>
        <time>2018-05-29T08:16:38Z</time>
      </trkpt>
      <trkpt lat="45.92879" lon="4.73976">
        <ele>172</ele>
        <time>2018-05-29T08:16:39Z</time>
      </trkpt>
      <trkpt lat="45.92879" lon="4.73983">
        <ele>172</ele>
        <time>2018-05-29T08:16:40Z</time>
      </trkpt>
      <trkpt lat="45.92877" lon="4.7399">
        <ele>172</ele>
        <time>2018-05-29T08:16:41Z</time>
      </trkpt>
      <trkpt lat="45.92875" lon="4.73996">
        <ele>173</ele>
        <time>2018-05-29T08:16:42Z</time>
      </trkpt>
      <trkpt lat="45.92874" lon="4.74003">
        <ele>172</ele>
        <time>2018-05-29T08:16:43Z</time>
      </trkpt>
      <trkpt lat="45.92873" lon="4.74009">
        <ele>172</ele>
        <time>2018-05-29T08:16:44Z</time>
      </trkpt>
      <trkpt lat="45.92872" lon="4.74017">
        <ele>172</ele>
        <time>2018-05-29T08:16:45Z</time>
      </trkpt>
      <trkpt lat="45.92872" lon="4.74023">
        <ele>172</ele>
        <time>2018-05-29T08:16:46Z</time>
      </trkpt>
      <trkpt lat="45.92871" lon="4.7403">
        <ele>172</ele>
        <time>2018-05-29T08:16:47Z</time>
      </trkpt>
      <trkpt lat="45.92869" lon="4.74037">
        <ele>172</ele>
        <time>2018-05-29T08:16:48Z</time>
      </trkpt>
      <trkpt lat="45.92867" lon="4.74044">
        <ele>172</ele>
        <time>2018-05-29T08:16:49Z</time>
      </trkpt>
      <trkpt lat="45.92863" lon="4.7405">
        <ele>172</ele>
        <time>2018-05-29T08:16:50Z</time>
      </trkpt>
      <trkpt lat="45.92859" lon="4.74056">
        <ele>172</ele>
        <time>2018-05-29T08:16:51Z</time>
      </trkpt>
      <trkpt lat="45.92854" lon="4.74061">
        <ele>172</ele>
        <time>2018-05-29T08:16:52Z</time>
      </trkpt>
      <trkpt lat="45.9285" lon="4.74067">
        <ele>172</ele>
        <time>2018-05-29T08:16:53Z</time>
      </trkpt>
      <trkpt lat="45.92846" lon="4.74072">
        <ele>172</ele>
        <time>2018-05-29T08:16:54Z</time>
      </trkpt>
      <trkpt lat="45.92841" lon="4.74078">
        <ele>171</ele>
        <time>2018-05-29T08:16:55Z</time>
      </trkpt>
      <trkpt lat="45.92837" lon="4.74084">
        <ele>171</ele>
        <time>2018-05-29T08:16:56Z</time>
      </trkpt>
      <trkpt lat="45.92833" lon="4.74089">
        <ele>171</ele>
        <time>2018-05-29T08:16:57Z</time>
      </trkpt>
      <trkpt lat="45.92828" lon="4.74095">
        <ele>171</ele>
        <time>2018-05-29T08:16:58Z</time>
      </trkpt>
      <trkpt lat="45.92824" lon="4.74101">
        <ele>171</ele>
        <time>2018-05-29T08:16:59Z</time>
      </trkpt>
      <trkpt lat="45.92819" lon="4.74107">
        <ele>171</ele>
        <time>2018-05-29T08:17:00Z</time>
      </trkpt>
      <trkpt lat="45.92814" lon="4.74113">
        <ele>172</ele>
        <time>2018-05-29T08:17:01Z</time>
      </trkpt>
      <trkpt lat="45.92809" lon="4.74118">
        <ele>172</ele>
        <time>2018-05-29T08:17:02Z</time>
      </trkpt>
      <trkpt lat="45.92803" lon="4.74123">
        <ele>172</ele>
        <time>2018-05-29T08:17:03Z</time>
      </trkpt>
      <trkpt lat="45.92798" lon="4.74128">
        <ele>172</ele>
        <time>2018-05-29T08:17:04Z</time>
      </trkpt>
      <trkpt lat="45.92793" lon="4.74133">
        <ele>172</ele>
        <time>2018-05-29T08:17:05Z</time>
      </trkpt>
      <trkpt lat="45.92788" lon="4.74138">
        <ele>172</ele>
        <time>2018-05-29T08:17:06Z</time>
      </trkpt>
      <trkpt lat="45.92783" lon="4.74143">
        <ele>172</ele>
        <time>2018-05-29T08:17:07Z</time>
      </trkpt>
      <trkpt lat="45.92778" lon="4.74149">
        <ele>172</ele>
        <time>2018-05-29T08:17:08Z</time>
      </trkpt>
      <trkpt lat="45.92773" lon="4.74154">
        <ele>172</ele>
        <time>2018-05-29T08:17:09Z</time>
      </trkpt>
      <trkpt lat="45.92769" lon="4.74159">
        <ele>172</ele>
        <time>2018-05-29T08:17:10Z</time>
      </trkpt>
      <trkpt lat="45.92764" lon="4.74165">
        <ele>172</ele>
        <time>2018-05-29T08:17:11Z</time>
      </trkpt>
      <trkpt lat="45.92759" lon="4.74169">
        <ele>172</ele>
        <time>2018-05-29T08:17:12Z</time>
      </trkpt>
      <trkpt lat="45.92754" lon="4.74175">
        <ele>172</ele>
        <time>2018-05-29T08:17:13Z</time>
      </trkpt>
      <trkpt lat="45.92749" lon="4.7418">
        <ele>172</ele>
        <time>2018-05-29T08:17:14Z</time>
      </trkpt>
      <trkpt lat="45.92745" lon="4.74185">
        <ele>172</ele>
        <time>2018-05-29T08:17:15Z</time>
      </trkpt>
      <trkpt lat="45.9274" lon="4.7419">
        <ele>171</ele>
        <time>2018-05-29T08:17:16Z</time>
      </trkpt>
      <trkpt lat="45.92736" lon="4.74196">
        <ele>171</ele>
        <time>2018-05-29T08:17:17Z</time>
      </trkpt>
      <trkpt lat="45.92732" lon="4.74201">
        <ele>171</ele>
        <time>2018-05-29T08:17:18Z</time>
      </trkpt>
      <trkpt lat="45.92728" lon="4.74206">
        <ele>171</ele>
        <time>2018-05-29T08:17:19Z</time>
      </trkpt>
      <trkpt lat="45.92724" lon="4.74212">
        <ele>171</ele>
        <time>2018-05-29T08:17:20Z</time>
      </trkpt>
      <trkpt lat="45.9272" lon="4.74218">
        <ele>171</ele>
        <time>2018-05-29T08:17:21Z</time>
      </trkpt>
      <trkpt lat="45.92717" lon="4.74223">
        <ele>171</ele>
        <time>2018-05-29T08:17:22Z</time>
      </trkpt>
      <trkpt lat="45.92713" lon="4.74229">
        <ele>171</ele>
        <time>2018-05-29T08:17:23Z</time>
      </trkpt>
      <trkpt lat="45.92709" lon="4.74234">
        <ele>171</ele>
        <time>2018-05-29T08:17:24Z</time>
      </trkpt>
      <trkpt lat="45.92706" lon="4.7424">
        <ele>171</ele>
        <time>2018-05-29T08:17:25Z</time>
      </trkpt>
      <trkpt lat="45.92702" lon="4.74246">
        <ele>171</ele>
        <time>2018-05-29T08:17:26Z</time>
      </trkpt>
      <trkpt lat="45.92699" lon="4.74252">
        <ele>171</ele>
        <time>2018-05-29T08:17:27Z</time>
      </trkpt>
      <trkpt lat="45.92696" lon="4.74258">
        <ele>171</ele>
        <time>2018-05-29T08:17:28Z</time>
      </trkpt>
      <trkpt lat="45.92692" lon="4.74263">
        <ele>171</ele>
        <time>2018-05-29T08:17:29Z</time>
      </trkpt>
      <trkpt lat="45.92688" lon="4.74269">
        <ele>171</ele>
        <time>2018-05-29T08:17:30Z</time>
      </trkpt>
      <trkpt lat="45.92685" lon="4.74276">
        <ele>171</ele>
        <time>2018-05-29T08:17:31Z</time>
      </trkpt>
      <trkpt lat="45.92681" lon="4.74282">
        <ele>171</ele>
        <time>2018-05-29T08:17:32Z</time>
      </trkpt>
      <trkpt lat="45.92678" lon="4.74289">
        <ele>171</ele>
        <time>2018-05-29T08:17:33Z</time>
      </trkpt>
      <trkpt lat="45.92675" lon="4.74294">
        <ele>171</ele>
        <time>2018-05-29T08:17:34Z</time>
      </trkpt>
      <trkpt lat="45.92672" lon="4.74301">
        <ele>171</ele>
        <time>2018-05-29T08:17:35Z</time>
      </trkpt>
      <trkpt lat="45.92668" lon="4.74308">
        <ele>171</ele>
        <time>2018-05-29T08:17:36Z</time>
      </trkpt>
      <trkpt lat="45.92665" lon="4.74314">
        <ele>171</ele>
        <time>2018-05-29T08:17:37Z</time>
      </trkpt>
      <trkpt lat="45.92661" lon="4.74321">
        <ele>171</ele>
        <time>2018-05-29T08:17:38Z</time>
      </trkpt>
      <trkpt lat="45.92657" lon="4.74328">
        <ele>171</ele>
        <time>2018-05-29T08:17:39Z</time>
      </trkpt>
      <trkpt lat="45.92654" lon="4.74335">
        <ele>171</ele>
        <time>2018-05-29T08:17:40Z</time>
      </trkpt>
      <trkpt lat="45.9265" lon="4.74342">
        <ele>171</ele>
        <time>2018-05-29T08:17:41Z</time>
      </trkpt>
      <trkpt lat="45.92646" lon="4.74348">
        <ele>171</ele>
        <time>2018-05-29T08:17:42Z</time>
      </trkpt>
      <trkpt lat="45.92642" lon="4.74355">
        <ele>171</ele>
        <time>2018-05-29T08:17:43Z</time>
      </trkpt>
      <trkpt lat="45.92639" lon="4.74361">
        <ele>171</ele>
        <time>2018-05-29T08:17:44Z</time>
      </trkpt>
      <trkpt lat="45.92635" lon="4.74369">
        <ele>171</ele>
        <time>2018-05-29T08:17:45Z</time>
      </trkpt>
      <trkpt lat="45.92631" lon="4.74375">
        <ele>170</ele>
        <time>2018-05-29T08:17:46Z</time>
      </trkpt>
      <trkpt lat="45.92627" lon="4.74383">
        <ele>170</ele>
        <time>2018-05-29T08:17:47Z</time>
      </trkpt>
      <trkpt lat="45.92623" lon="4.7439">
        <ele>170</ele>
        <time>2018-05-29T08:17:48Z</time>
      </trkpt>
      <trkpt lat="45.92619" lon="4.74397">
        <ele>170</ele>
        <time>2018-05-29T08:17:49Z</time>
      </trkpt>
      <trkpt lat="45.92615" lon="4.74403">
        <ele>170</ele>
        <time>2018-05-29T08:17:50Z</time>
      </trkpt>
      <trkpt lat="45.92611" lon="4.7441">
        <ele>170</ele>
        <time>2018-05-29T08:17:51Z</time>
      </trkpt>
      <trkpt lat="45.92607" lon="4.74417">
        <ele>170</ele>
        <time>2018-05-29T08:17:52Z</time>
      </trkpt>
      <trkpt lat="45.92603" lon="4.74424">
        <ele>170</ele>
        <time>2018-05-29T08:17:53Z</time>
      </trkpt>
      <trkpt lat="45.92599" lon="4.74432">
        <ele>170</ele>
        <time>2018-05-29T08:17:54Z</time>
      </trkpt>
      <trkpt lat="45.92594" lon="4.74439">
        <ele>170</ele>
        <time>2018-05-29T08:17:55Z</time>
      </trkpt>
      <trkpt lat="45.9259" lon="4.74446">
        <ele>170</ele>
        <time>2018-05-29T08:17:56Z</time>
      </trkpt>
      <trkpt lat="45.92586" lon="4.74454">
        <ele>170</ele>
        <time>2018-05-29T08:17:57Z</time>
      </trkpt>
      <trkpt lat="45.92582" lon="4.74462">
        <ele>170</ele>
        <time>2018-05-29T08:17:58Z</time>
      </trkpt>
      <trkpt lat="45.92578" lon="4.74469">
        <ele>170</ele>
        <time>2018-05-29T08:17:59Z</time>
      </trkpt>
      <trkpt lat="45.92574" lon="4.74476">
        <ele>170</ele>
        <time>2018-05-29T08:18:00Z</time>
      </trkpt>
      <trkpt lat="45.9257" lon="4.74483">
        <ele>170</ele>
        <time>2018-05-29T08:18:01Z</time>
      </trkpt>
      <trkpt lat="45.92566" lon="4.74489">
        <ele>170</ele>
        <time>2018-05-29T08:18:02Z</time>
      </trkpt>
      <trkpt lat="45.92562" lon="4.74497">
        <ele>170</ele>
        <time>2018-05-29T08:18:03Z</time>
      </trkpt>
      <trkpt lat="45.92558" lon="4.74504">
        <ele>170</ele>
        <time>2018-05-29T08:18:04Z</time>
      </trkpt>
      <trkpt lat="45.92554" lon="4.74511">
        <ele>170</ele>
        <time>2018-05-29T08:18:05Z</time>
      </trkpt>
      <trkpt lat="45.9255" lon="4.74518">
        <ele>170</ele>
        <time>2018-05-29T08:18:06Z</time>
      </trkpt>
      <trkpt lat="45.92545" lon="4.74525">
        <ele>170</ele>
        <time>2018-05-29T08:18:07Z</time>
      </trkpt>
      <trkpt lat="45.92542" lon="4.74532">
        <ele>170</ele>
        <time>2018-05-29T08:18:08Z</time>
      </trkpt>
      <trkpt lat="45.92537" lon="4.74539">
        <ele>171</ele>
        <time>2018-05-29T08:18:09Z</time>
      </trkpt>
      <trkpt lat="45.92534" lon="4.74546">
        <ele>171</ele>
        <time>2018-05-29T08:18:10Z</time>
      </trkpt>
      <trkpt lat="45.92529" lon="4.74553">
        <ele>171</ele>
        <time>2018-05-29T08:18:11Z</time>
      </trkpt>
      <trkpt lat="45.92525" lon="4.74559">
        <ele>171</ele>
        <time>2018-05-29T08:18:12Z</time>
      </trkpt>
      <trkpt lat="45.9252" lon="4.74565">
        <ele>171</ele>
        <time>2018-05-29T08:18:13Z</time>
      </trkpt>
      <trkpt lat="45.92516" lon="4.7457">
        <ele>171</ele>
        <time>2018-05-29T08:18:14Z</time>
      </trkpt>
      <trkpt lat="45.92511" lon="4.74575">
        <ele>171</ele>
        <time>2018-05-29T08:18:15Z</time>
      </trkpt>
      <trkpt lat="45.92506" lon="4.7458">
        <ele>171</ele>
        <time>2018-05-29T08:18:16Z</time>
      </trkpt>
      <trkpt lat="45.92502" lon="4.74586">
        <ele>171</ele>
        <time>2018-05-29T08:18:17Z</time>
      </trkpt>
      <trkpt lat="45.92497" lon="4.74591">
        <ele>171</ele>
        <time>2018-05-29T08:18:18Z</time>
      </trkpt>
      <trkpt lat="45.92493" lon="4.74597">
        <ele>171</ele>
        <time>2018-05-29T08:18:19Z</time>
      </trkpt>
      <trkpt lat="45.9249" lon="4.74602">
        <ele>171</ele>
        <time>2018-05-29T08:18:20Z</time>
      </trkpt>
      <trkpt lat="45.92485" lon="4.74608">
        <ele>171</ele>
        <time>2018-05-29T08:18:21Z</time>
      </trkpt>
      <trkpt lat="45.92481" lon="4.74613">
        <ele>171</ele>
        <time>2018-05-29T08:18:22Z</time>
      </trkpt>
      <trkpt lat="45.92477" lon="4.74619">
        <ele>171</ele>
        <time>2018-05-29T08:18:23Z</time>
      </trkpt>
      <trkpt lat="45.92473" lon="4.74625">
        <ele>171</ele>
        <time>2018-05-29T08:18:24Z</time>
      </trkpt>
      <trkpt lat="45.92468" lon="4.74631">
        <ele>171</ele>
        <time>2018-05-29T08:18:25Z</time>
      </trkpt>
      <trkpt lat="45.92465" lon="4.74637">
        <ele>171</ele>
        <time>2018-05-29T08:18:26Z</time>
      </trkpt>
      <trkpt lat="45.92461" lon="4.74643">
        <ele>171</ele>
        <time>2018-05-29T08:18:27Z</time>
      </trkpt>
      <trkpt lat="45.92458" lon="4.74647">
        <ele>171</ele>
        <time>2018-05-29T08:18:28Z</time>
      </trkpt>
      <trkpt lat="45.92455" lon="4.74653">
        <ele>171</ele>
        <time>2018-05-29T08:18:29Z</time>
      </trkpt>
      <trkpt lat="45.92451" lon="4.7466">
        <ele>171</ele>
        <time>2018-05-29T08:18:30Z</time>
      </trkpt>
      <trkpt lat="45.92447" lon="4.7467">
        <ele>171</ele>
        <time>2018-05-29T08:18:31Z</time>
      </trkpt>
      <trkpt lat="45.92444" lon="4.74677">
        <ele>171</ele>
        <time>2018-05-29T08:18:32Z</time>
      </trkpt>
      <trkpt lat="45.92441" lon="4.74683">
        <ele>171</ele>
        <time>2018-05-29T08:18:33Z</time>
      </trkpt>
      <trkpt lat="45.92438" lon="4.74689">
        <ele>171</ele>
        <time>2018-05-29T08:18:34Z</time>
      </trkpt>
      <trkpt lat="45.92434" lon="4.74697">
        <ele>171</ele>
        <time>2018-05-29T08:18:35Z</time>
      </trkpt>
      <trkpt lat="45.92432" lon="4.74705">
        <ele>171</ele>
        <time>2018-05-29T08:18:36Z</time>
      </trkpt>
      <trkpt lat="45.92429" lon="4.74713">
        <ele>171</ele>
        <time>2018-05-29T08:18:37Z</time>
      </trkpt>
      <trkpt lat="45.92426" lon="4.74721">
        <ele>171</ele>
        <time>2018-05-29T08:18:38Z</time>
      </trkpt>
      <trkpt lat="45.92424" lon="4.74729">
        <ele>171</ele>
        <time>2018-05-29T08:18:39Z</time>
      </trkpt>
      <trkpt lat="45.92421" lon="4.74737">
        <ele>171</ele>
        <time>2018-05-29T08:18:40Z</time>
      </trkpt>
      <trkpt lat="45.92418" lon="4.74746">
        <ele>172</ele>
        <time>2018-05-29T08:18:41Z</time>
      </trkpt>
      <trkpt lat="45.92416" lon="4.74755">
        <ele>172</ele>
        <time>2018-05-29T08:18:42Z</time>
      </trkpt>
      <trkpt lat="45.92413" lon="4.74763">
        <ele>172</ele>
        <time>2018-05-29T08:18:43Z</time>
      </trkpt>
      <trkpt lat="45.92411" lon="4.74773">
        <ele>171</ele>
        <time>2018-05-29T08:18:44Z</time>
      </trkpt>
      <trkpt lat="45.92409" lon="4.74783">
        <ele>171</ele>
        <time>2018-05-29T08:18:45Z</time>
      </trkpt>
      <trkpt lat="45.92407" lon="4.74793">
        <ele>171</ele>
        <time>2018-05-29T08:18:46Z</time>
      </trkpt>
      <trkpt lat="45.92405" lon="4.74802">
        <ele>171</ele>
        <time>2018-05-29T08:18:47Z</time>
      </trkpt>
      <trkpt lat="45.92403" lon="4.74812">
        <ele>171</ele>
        <time>2018-05-29T08:18:48Z</time>
      </trkpt>
      <trkpt lat="45.92401" lon="4.74821">
        <ele>171</ele>
        <time>2018-05-29T08:18:49Z</time>
      </trkpt>
      <trkpt lat="45.92399" lon="4.74831">
        <ele>171</ele>
        <time>2018-05-29T08:18:50Z</time>
      </trkpt>
      <trkpt lat="45.92397" lon="4.7484">
        <ele>171</ele>
        <time>2018-05-29T08:18:51Z</time>
      </trkpt>
      <trkpt lat="45.92394" lon="4.74849">
        <ele>171</ele>
        <time>2018-05-29T08:18:52Z</time>
      </trkpt>
      <trkpt lat="45.92392" lon="4.74858">
        <ele>171</ele>
        <time>2018-05-29T08:18:53Z</time>
      </trkpt>
      <trkpt lat="45.92388" lon="4.74866">
        <ele>171</ele>
        <time>2018-05-29T08:18:54Z</time>
      </trkpt>
      <trkpt lat="45.92385" lon="4.74875">
        <ele>171</ele>
        <time>2018-05-29T08:18:55Z</time>
      </trkpt>
      <trkpt lat="45.92382" lon="4.74884">
        <ele>171</ele>
        <time>2018-05-29T08:18:56Z</time>
      </trkpt>
      <trkpt lat="45.92378" lon="4.74893">
        <ele>171</ele>
        <time>2018-05-29T08:18:57Z</time>
      </trkpt>
      <trkpt lat="45.92375" lon="4.74903">
        <ele>171</ele>
        <time>2018-05-29T08:18:58Z</time>
      </trkpt>
      <trkpt lat="45.92372" lon="4.74913">
        <ele>171</ele>
        <time>2018-05-29T08:18:59Z</time>
      </trkpt>
      <trkpt lat="45.92367" lon="4.74919">
        <ele>170</ele>
        <time>2018-05-29T08:19:00Z</time>
      </trkpt>
      <trkpt lat="45.92364" lon="4.7493">
        <ele>170</ele>
        <time>2018-05-29T08:19:01Z</time>
      </trkpt>
      <trkpt lat="45.92361" lon="4.74939">
        <ele>170</ele>
        <time>2018-05-29T08:19:02Z</time>
      </trkpt>
      <trkpt lat="45.92356" lon="4.74947">
        <ele>170</ele>
        <time>2018-05-29T08:19:03Z</time>
      </trkpt>
      <trkpt lat="45.92354" lon="4.74955">
        <ele>170</ele>
        <time>2018-05-29T08:19:04Z</time>
      </trkpt>
      <trkpt lat="45.92351" lon="4.74967">
        <ele>170</ele>
        <time>2018-05-29T08:19:05Z</time>
      </trkpt>
      <trkpt lat="45.92348" lon="4.74979">
        <ele>170</ele>
        <time>2018-05-29T08:19:06Z</time>
      </trkpt>
      <trkpt lat="45.92345" lon="4.74988">
        <ele>170</ele>
        <time>2018-05-29T08:19:07Z</time>
      </trkpt>
      <trkpt lat="45.92341" lon="4.74994">
        <ele>170</ele>
        <time>2018-05-29T08:19:08Z</time>
      </trkpt>
      <trkpt lat="45.92339" lon="4.75001">
        <ele>170</ele>
        <time>2018-05-29T08:19:09Z</time>
      </trkpt>
      <trkpt lat="45.92335" lon="4.75008">
        <ele>170</ele>
        <time>2018-05-29T08:19:10Z</time>
      </trkpt>
      <trkpt lat="45.92332" lon="4.75014">
        <ele>171</ele>
        <time>2018-05-29T08:19:11Z</time>
      </trkpt>
      <trkpt lat="45.9233" lon="4.75022">
        <ele>171</ele>
        <time>2018-05-29T08:19:12Z</time>
      </trkpt>
      <trkpt lat="45.92327" lon="4.75029">
        <ele>171</ele>
        <time>2018-05-29T08:19:13Z</time>
      </trkpt>
      <trkpt lat="45.92323" lon="4.75035">
        <ele>171</ele>
        <time>2018-05-29T08:19:14Z</time>
      </trkpt>
      <trkpt lat="45.92319" lon="4.75041">
        <ele>172</ele>
        <time>2018-05-29T08:19:15Z</time>
      </trkpt>
      <trkpt lat="45.92314" lon="4.75047">
        <ele>172</ele>
        <time>2018-05-29T08:19:16Z</time>
      </trkpt>
      <trkpt lat="45.9231" lon="4.75052">
        <ele>172</ele>
        <time>2018-05-29T08:19:17Z</time>
      </trkpt>
      <trkpt lat="45.92305" lon="4.75058">
        <ele>172</ele>
        <time>2018-05-29T08:19:18Z</time>
      </trkpt>
      <trkpt lat="45.92301" lon="4.75064">
        <ele>172</ele>
        <time>2018-05-29T08:19:19Z</time>
      </trkpt>
      <trkpt lat="45.92296" lon="4.7507">
        <ele>172</ele>
        <time>2018-05-29T08:19:20Z</time>
      </trkpt>
      <trkpt lat="45.92292" lon="4.75075">
        <ele>172</ele>
        <time>2018-05-29T08:19:21Z</time>
      </trkpt>
      <trkpt lat="45.92287" lon="4.75081">
        <ele>172</ele>
        <time>2018-05-29T08:19:22Z</time>
      </trkpt>
      <trkpt lat="45.92283" lon="4.75086">
        <ele>173</ele>
        <time>2018-05-29T08:19:23Z</time>
      </trkpt>
      <trkpt lat="45.92278" lon="4.75091">
        <ele>173</ele>
        <time>2018-05-29T08:19:24Z</time>
      </trkpt>
      <trkpt lat="45.92273" lon="4.75096">
        <ele>173</ele>
        <time>2018-05-29T08:19:25Z</time>
      </trkpt>
      <trkpt lat="45.92269" lon="4.75101">
        <ele>173</ele>
        <time>2018-05-29T08:19:26Z</time>
      </trkpt>
      <trkpt lat="45.92264" lon="4.75106">
        <ele>174</ele>
        <time>2018-05-29T08:19:27Z</time>
      </trkpt>
      <trkpt lat="45.9226" lon="4.75111">
        <ele>174</ele>
        <time>2018-05-29T08:19:28Z</time>
      </trkpt>
      <trkpt lat="45.92255" lon="4.75116">
        <ele>174</ele>
        <time>2018-05-29T08:19:29Z</time>
      </trkpt>
      <trkpt lat="45.92251" lon="4.75121">
        <ele>174</ele>
        <time>2018-05-29T08:19:30Z</time>
      </trkpt>
      <trkpt lat="45.92246" lon="4.75126">
        <ele>174</ele>
        <time>2018-05-29T08:19:31Z</time>
      </trkpt>
      <trkpt lat="45.92243" lon="4.7513">
        <ele>174</ele>
        <time>2018-05-29T08:19:32Z</time>
      </trkpt>
      <trkpt lat="45.92239" lon="4.75136">
        <ele>174</ele>
        <time>2018-05-29T08:19:33Z</time>
      </trkpt>
      <trkpt lat="45.92235" lon="4.75141">
        <ele>174</ele>
        <time>2018-05-29T08:19:34Z</time>
      </trkpt>
      <trkpt lat="45.92231" lon="4.75148">
        <ele>174</ele>
        <time>2018-05-29T08:19:35Z</time>
      </trkpt>
      <trkpt lat="45.92228" lon="4.75154">
        <ele>174</ele>
        <time>2018-05-29T08:19:36Z</time>
      </trkpt>
      <trkpt lat="45.92225" lon="4.7516">
        <ele>174</ele>
        <time>2018-05-29T08:19:37Z</time>
      </trkpt>
      <trkpt lat="45.92221" lon="4.75166">
        <ele>174</ele>
        <time>2018-05-29T08:19:38Z</time>
      </trkpt>
      <trkpt lat="45.9222" lon="4.75173">
        <ele>175</ele>
        <time>2018-05-29T08:19:39Z</time>
      </trkpt>
      <trkpt lat="45.92217" lon="4.75181">
        <ele>175</ele>
        <time>2018-05-29T08:19:40Z</time>
      </trkpt>
      <trkpt lat="45.92215" lon="4.75188">
        <ele>175</ele>
        <time>2018-05-29T08:19:41Z</time>
      </trkpt>
      <trkpt lat="45.92214" lon="4.75196">
        <ele>175</ele>
        <time>2018-05-29T08:19:42Z</time>
      </trkpt>
      <trkpt lat="45.92213" lon="4.75203">
        <ele>175</ele>
        <time>2018-05-29T08:19:43Z</time>
      </trkpt>
      <trkpt lat="45.92211" lon="4.7521">
        <ele>175</ele>
        <time>2018-05-29T08:19:44Z</time>
      </trkpt>
      <trkpt lat="45.9221" lon="4.75218">
        <ele>175</ele>
        <time>2018-05-29T08:19:45Z</time>
      </trkpt>
      <trkpt lat="45.9221" lon="4.75225">
        <ele>175</ele>
        <time>2018-05-29T08:19:46Z</time>
      </trkpt>
      <trkpt lat="45.9221" lon="4.75233">
        <ele>175</ele>
        <time>2018-05-29T08:19:47Z</time>
      </trkpt>
      <trkpt lat="45.9221" lon="4.75241">
        <ele>175</ele>
        <time>2018-05-29T08:19:48Z</time>
      </trkpt>
      <trkpt lat="45.9221" lon="4.75248">
        <ele>175</ele>
        <time>2018-05-29T08:19:49Z</time>
      </trkpt>
      <trkpt lat="45.92209" lon="4.75254">
        <ele>175</ele>
        <time>2018-05-29T08:19:50Z</time>
      </trkpt>
      <trkpt lat="45.92209" lon="4.75261">
        <ele>176</ele>
        <time>2018-05-29T08:19:51Z</time>
      </trkpt>
      <trkpt lat="45.92208" lon="4.75268">
        <ele>176</ele>
        <time>2018-05-29T08:19:52Z</time>
      </trkpt>
      <trkpt lat="45.92208" lon="4.75275">
        <ele>176</ele>
        <time>2018-05-29T08:19:53Z</time>
      </trkpt>
      <trkpt lat="45.92208" lon="4.7528">
        <ele>176</ele>
        <time>2018-05-29T08:19:54Z</time>
      </trkpt>
      <trkpt lat="45.92208" lon="4.75288">
        <ele>176</ele>
        <time>2018-05-29T08:19:55Z</time>
      </trkpt>
      <trkpt lat="45.92208" lon="4.75295">
        <ele>176</ele>
        <time>2018-05-29T08:19:56Z</time>
      </trkpt>
      <trkpt lat="45.92207" lon="4.75302">
        <ele>176</ele>
        <time>2018-05-29T08:19:57Z</time>
      </trkpt>
      <trkpt lat="45.92207" lon="4.75309">
        <ele>176</ele>
        <time>2018-05-29T08:19:58Z</time>
      </trkpt>
      <trkpt lat="45.92206" lon="4.75316">
        <ele>176</ele>
        <time>2018-05-29T08:19:59Z</time>
      </trkpt>
      <trkpt lat="45.92206" lon="4.75323">
        <ele>176</ele>
        <time>2018-05-29T08:20:00Z</time>
      </trkpt>
      <trkpt lat="45.92205" lon="4.7533">
        <ele>176</ele>
        <time>2018-05-29T08:20:01Z</time>
      </trkpt>
      <trkpt lat="45.92203" lon="4.75337">
        <ele>177</ele>
        <time>2018-05-29T08:20:02Z</time>
      </trkpt>
      <trkpt lat="45.92201" lon="4.75344">
        <ele>177</ele>
        <time>2018-05-29T08:20:03Z</time>
      </trkpt>
      <trkpt lat="45.92198" lon="4.75356">
        <ele>177</ele>
        <time>2018-05-29T08:20:05Z</time>
      </trkpt>
      <trkpt lat="45.92195" lon="4.75363">
        <ele>177</ele>
        <time>2018-05-29T08:20:06Z</time>
      </trkpt>
      <trkpt lat="45.92193" lon="4.7537">
        <ele>177</ele>
        <time>2018-05-29T08:20:07Z</time>
      </trkpt>
      <trkpt lat="45.92191" lon="4.75376">
        <ele>177</ele>
        <time>2018-05-29T08:20:08Z</time>
      </trkpt>
      <trkpt lat="45.92189" lon="4.75383">
        <ele>177</ele>
        <time>2018-05-29T08:20:09Z</time>
      </trkpt>
      <trkpt lat="45.92186" lon="4.7539">
        <ele>177</ele>
        <time>2018-05-29T08:20:10Z</time>
      </trkpt>
      <trkpt lat="45.92183" lon="4.75398">
        <ele>177</ele>
        <time>2018-05-29T08:20:11Z</time>
      </trkpt>
      <trkpt lat="45.9218" lon="4.75405">
        <ele>177</ele>
        <time>2018-05-29T08:20:12Z</time>
      </trkpt>
      <trkpt lat="45.92177" lon="4.75415">
        <ele>178</ele>
        <time>2018-05-29T08:20:13Z</time>
      </trkpt>
      <trkpt lat="45.92175" lon="4.75422">
        <ele>177</ele>
        <time>2018-05-29T08:20:14Z</time>
      </trkpt>
      <trkpt lat="45.92171" lon="4.75429">
        <ele>177</ele>
        <time>2018-05-29T08:20:15Z</time>
      </trkpt>
      <trkpt lat="45.92168" lon="4.75436">
        <ele>177</ele>
        <time>2018-05-29T08:20:16Z</time>
      </trkpt>
      <trkpt lat="45.92167" lon="4.75443">
        <ele>177</ele>
        <time>2018-05-29T08:20:17Z</time>
      </trkpt>
      <trkpt lat="45.92163" lon="4.7545">
        <ele>176</ele>
        <time>2018-05-29T08:20:18Z</time>
      </trkpt>
      <trkpt lat="45.92161" lon="4.75458">
        <ele>176</ele>
        <time>2018-05-29T08:20:19Z</time>
      </trkpt>
      <trkpt lat="45.92158" lon="4.75466">
        <ele>176</ele>
        <time>2018-05-29T08:20:20Z</time>
      </trkpt>
      <trkpt lat="45.92154" lon="4.75473">
        <ele>176</ele>
        <time>2018-05-29T08:20:21Z</time>
      </trkpt>
      <trkpt lat="45.92151" lon="4.75481">
        <ele>176</ele>
        <time>2018-05-29T08:20:22Z</time>
      </trkpt>
      <trkpt lat="45.92148" lon="4.75488">
        <ele>176</ele>
        <time>2018-05-29T08:20:23Z</time>
      </trkpt>
      <trkpt lat="45.92144" lon="4.75496">
        <ele>175</ele>
        <time>2018-05-29T08:20:24Z</time>
      </trkpt>
      <trkpt lat="45.92141" lon="4.75503">
        <ele>174</ele>
        <time>2018-05-29T08:20:25Z</time>
      </trkpt>
      <trkpt lat="45.92137" lon="4.75511">
        <ele>174</ele>
        <time>2018-05-29T08:20:26Z</time>
      </trkpt>
      <trkpt lat="45.92133" lon="4.75518">
        <ele>174</ele>
        <time>2018-05-29T08:20:27Z</time>
      </trkpt>
      <trkpt lat="45.9213" lon="4.75525">
        <ele>174</ele>
        <time>2018-05-29T08:20:28Z</time>
      </trkpt>
      <trkpt lat="45.92127" lon="4.75534">
        <ele>174</ele>
        <time>2018-05-29T08:20:29Z</time>
      </trkpt>
      <trkpt lat="45.92123" lon="4.7554">
        <ele>174</ele>
        <time>2018-05-29T08:20:30Z</time>
      </trkpt>
      <trkpt lat="45.9212" lon="4.75547">
        <ele>174</ele>
        <time>2018-05-29T08:20:31Z</time>
      </trkpt>
      <trkpt lat="45.92117" lon="4.75553">
        <ele>174</ele>
        <time>2018-05-29T08:20:32Z</time>
      </trkpt>
      <trkpt lat="45.92114" lon="4.75558">
        <ele>174</ele>
        <time>2018-05-29T08:20:33Z</time>
      </trkpt>
      <trkpt lat="45.92112" lon="4.75563">
        <ele>174</ele>
        <time>2018-05-29T08:20:34Z</time>
      </trkpt>
      <trkpt lat="45.92106" lon="4.75571">
        <ele>174</ele>
        <time>2018-05-29T08:20:39Z</time>
      </trkpt>
      <trkpt lat="45.92105" lon="4.75573">
        <ele>174</ele>
        <time>2018-05-29T08:20:40Z</time>
      </trkpt>
      <trkpt lat="45.92103" lon="4.75584">
        <ele>174</ele>
        <time>2018-05-29T08:20:44Z</time>
      </trkpt>
      <trkpt lat="45.92104" lon="4.75587">
        <ele>174</ele>
        <time>2018-05-29T08:20:45Z</time>
      </trkpt>
      <trkpt lat="45.92106" lon="4.75589">
        <ele>174</ele>
        <time>2018-05-29T08:20:46Z</time>
      </trkpt>
      <trkpt lat="45.92114" lon="4.75594">
        <ele>174</ele>
        <time>2018-05-29T08:20:47Z</time>
      </trkpt>
      <trkpt lat="45.92123" lon="4.75599">
        <ele>174</ele>
        <time>2018-05-29T08:20:49Z</time>
      </trkpt>
      <trkpt lat="45.92127" lon="4.75601">
        <ele>174</ele>
        <time>2018-05-29T08:20:50Z</time>
      </trkpt>
      <trkpt lat="45.92131" lon="4.75606">
        <ele>174</ele>
        <time>2018-05-29T08:20:51Z</time>
      </trkpt>
      <trkpt lat="45.92135" lon="4.7561">
        <ele>174</ele>
        <time>2018-05-29T08:20:52Z</time>
      </trkpt>
      <trkpt lat="45.92141" lon="4.75615">
        <ele>174</ele>
        <time>2018-05-29T08:20:53Z</time>
      </trkpt>
      <trkpt lat="45.92145" lon="4.75619">
        <ele>174</ele>
        <time>2018-05-29T08:20:54Z</time>
      </trkpt>
      <trkpt lat="45.92149" lon="4.75623">
        <ele>174</ele>
        <time>2018-05-29T08:20:55Z</time>
      </trkpt>
      <trkpt lat="45.92153" lon="4.75628">
        <ele>174</ele>
        <time>2018-05-29T08:20:56Z</time>
      </trkpt>
      <trkpt lat="45.92158" lon="4.75632">
        <ele>174</ele>
        <time>2018-05-29T08:20:57Z</time>
      </trkpt>
      <trkpt lat="45.92162" lon="4.75637">
        <ele>174</ele>
        <time>2018-05-29T08:20:58Z</time>
      </trkpt>
      <trkpt lat="45.92166" lon="4.75641">
        <ele>174</ele>
        <time>2018-05-29T08:20:59Z</time>
      </trkpt>
      <trkpt lat="45.92171" lon="4.75645">
        <ele>174</ele>
        <time>2018-05-29T08:21:00Z</time>
      </trkpt>
      <trkpt lat="45.92176" lon="4.75649">
        <ele>174</ele>
        <time>2018-05-29T08:21:01Z</time>
      </trkpt>
      <trkpt lat="45.92181" lon="4.75654">
        <ele>174</ele>
        <time>2018-05-29T08:21:02Z</time>
      </trkpt>
      <trkpt lat="45.92186" lon="4.75659">
        <ele>174</ele>
        <time>2018-05-29T08:21:03Z</time>
      </trkpt>
      <trkpt lat="45.92192" lon="4.75664">
        <ele>174</ele>
        <time>2018-05-29T08:21:04Z</time>
      </trkpt>
      <trkpt lat="45.92197" lon="4.75668">
        <ele>174</ele>
        <time>2018-05-29T08:21:05Z</time>
      </trkpt>
      <trkpt lat="45.92201" lon="4.75672">
        <ele>174</ele>
        <time>2018-05-29T08:21:06Z</time>
      </trkpt>
      <trkpt lat="45.92205" lon="4.75678">
        <ele>174</ele>
        <time>2018-05-29T08:21:07Z</time>
      </trkpt>
      <trkpt lat="45.92209" lon="4.75679">
        <ele>174</ele>
        <time>2018-05-29T08:21:08Z</time>
      </trkpt>
      <trkpt lat="45.92213" lon="4.75684">
        <ele>174</ele>
        <time>2018-05-29T08:21:09Z</time>
      </trkpt>
      <trkpt lat="45.92218" lon="4.75688">
        <ele>174</ele>
        <time>2018-05-29T08:21:10Z</time>
      </trkpt>
      <trkpt lat="45.92222" lon="4.75692">
        <ele>174</ele>
        <time>2018-05-29T08:21:11Z</time>
      </trkpt>
      <trkpt lat="45.92227" lon="4.75696">
        <ele>174</ele>
        <time>2018-05-29T08:21:12Z</time>
      </trkpt>
      <trkpt lat="45.9223" lon="4.75701">
        <ele>174</ele>
        <time>2018-05-29T08:21:13Z</time>
      </trkpt>
      <trkpt lat="45.92234" lon="4.75707">
        <ele>174</ele>
        <time>2018-05-29T08:21:14Z</time>
      </trkpt>
      <trkpt lat="45.92237" lon="4.75713">
        <ele>174</ele>
        <time>2018-05-29T08:21:15Z</time>
      </trkpt>
      <trkpt lat="45.9224" lon="4.75719">
        <ele>174</ele>
        <time>2018-05-29T08:21:16Z</time>
      </trkpt>
      <trkpt lat="45.92242" lon="4.75726">
        <ele>174</ele>
        <time>2018-05-29T08:21:17Z</time>
      </trkpt>
      <trkpt lat="45.92244" lon="4.75732">
        <ele>174</ele>
        <time>2018-05-29T08:21:18Z</time>
      </trkpt>
      <trkpt lat="45.92246" lon="4.75739">
        <ele>174</ele>
        <time>2018-05-29T08:21:19Z</time>
      </trkpt>
      <trkpt lat="45.92247" lon="4.75747">
        <ele>174</ele>
        <time>2018-05-29T08:21:20Z</time>
      </trkpt>
      <trkpt lat="45.92249" lon="4.75753">
        <ele>174</ele>
        <time>2018-05-29T08:21:21Z</time>
      </trkpt>
      <trkpt lat="45.9225" lon="4.7576">
        <ele>174</ele>
        <time>2018-05-29T08:21:22Z</time>
      </trkpt>
      <trkpt lat="45.92251" lon="4.75767">
        <ele>174</ele>
        <time>2018-05-29T08:21:23Z</time>
      </trkpt>
      <trkpt lat="45.92252" lon="4.75774">
        <ele>174</ele>
        <time>2018-05-29T08:21:24Z</time>
      </trkpt>
      <trkpt lat="45.92253" lon="4.7578">
        <ele>174</ele>
        <time>2018-05-29T08:21:25Z</time>
      </trkpt>
      <trkpt lat="45.92254" lon="4.75786">
        <ele>174</ele>
        <time>2018-05-29T08:21:26Z</time>
      </trkpt>
      <trkpt lat="45.92255" lon="4.75793">
        <ele>174</ele>
        <time>2018-05-29T08:21:27Z</time>
      </trkpt>
      <trkpt lat="45.92257" lon="4.758">
        <ele>174</ele>
        <time>2018-05-29T08:21:28Z</time>
      </trkpt>
      <trkpt lat="45.92259" lon="4.75807">
        <ele>174</ele>
        <time>2018-05-29T08:21:29Z</time>
      </trkpt>
      <trkpt lat="45.92261" lon="4.75814">
        <ele>174</ele>
        <time>2018-05-29T08:21:30Z</time>
      </trkpt>
      <trkpt lat="45.92265" lon="4.7582">
        <ele>174</ele>
        <time>2018-05-29T08:21:31Z</time>
      </trkpt>
      <trkpt lat="45.92269" lon="4.75827">
        <ele>174</ele>
        <time>2018-05-29T08:21:32Z</time>
      </trkpt>
      <trkpt lat="45.92274" lon="4.75832">
        <ele>174</ele>
        <time>2018-05-29T08:21:33Z</time>
      </trkpt>
      <trkpt lat="45.9228" lon="4.75836">
        <ele>173</ele>
        <time>2018-05-29T08:21:34Z</time>
      </trkpt>
      <trkpt lat="45.92285" lon="4.7584">
        <ele>173</ele>
        <time>2018-05-29T08:21:35Z</time>
      </trkpt>
      <trkpt lat="45.92291" lon="4.75844">
        <ele>173</ele>
        <time>2018-05-29T08:21:36Z</time>
      </trkpt>
      <trkpt lat="45.92297" lon="4.75847">
        <ele>173</ele>
        <time>2018-05-29T08:21:37Z</time>
      </trkpt>
      <trkpt lat="45.92303" lon="4.7585">
        <ele>173</ele>
        <time>2018-05-29T08:21:38Z</time>
      </trkpt>
      <trkpt lat="45.92309" lon="4.75854">
        <ele>173</ele>
        <time>2018-05-29T08:21:39Z</time>
      </trkpt>
      <trkpt lat="45.92315" lon="4.75857">
        <ele>173</ele>
        <time>2018-05-29T08:21:40Z</time>
      </trkpt>
      <trkpt lat="45.92321" lon="4.7586">
        <ele>173</ele>
        <time>2018-05-29T08:21:41Z</time>
      </trkpt>
      <trkpt lat="45.92326" lon="4.75861">
        <ele>173</ele>
        <time>2018-05-29T08:21:42Z</time>
      </trkpt>
      <trkpt lat="45.92332" lon="4.75865">
        <ele>173</ele>
        <time>2018-05-29T08:21:43Z</time>
      </trkpt>
      <trkpt lat="45.92338" lon="4.75869">
        <ele>173</ele>
        <time>2018-05-29T08:21:44Z</time>
      </trkpt>
      <trkpt lat="45.92345" lon="4.75872">
        <ele>173</ele>
        <time>2018-05-29T08:21:45Z</time>
      </trkpt>
      <trkpt lat="45.92351" lon="4.75876">
        <ele>173</ele>
        <time>2018-05-29T08:21:46Z</time>
      </trkpt>
      <trkpt lat="45.92358" lon="4.75879">
        <ele>173</ele>
        <time>2018-05-29T08:21:47Z</time>
      </trkpt>
      <trkpt lat="45.92364" lon="4.75883">
        <ele>173</ele>
        <time>2018-05-29T08:21:48Z</time>
      </trkpt>
      <trkpt lat="45.92371" lon="4.75888">
        <ele>173</ele>
        <time>2018-05-29T08:21:49Z</time>
      </trkpt>
      <trkpt lat="45.92376" lon="4.75892">
        <ele>173</ele>
        <time>2018-05-29T08:21:50Z</time>
      </trkpt>
      <trkpt lat="45.92382" lon="4.75896">
        <ele>173</ele>
        <time>2018-05-29T08:21:51Z</time>
      </trkpt>
      <trkpt lat="45.92388" lon="4.75901">
        <ele>173</ele>
        <time>2018-05-29T08:21:52Z</time>
      </trkpt>
      <trkpt lat="45.92394" lon="4.75906">
        <ele>173</ele>
        <time>2018-05-29T08:21:53Z</time>
      </trkpt>
      <trkpt lat="45.924" lon="4.7591">
        <ele>173</ele>
        <time>2018-05-29T08:21:54Z</time>
      </trkpt>
      <trkpt lat="45.92406" lon="4.75915">
        <ele>172</ele>
        <time>2018-05-29T08:21:55Z</time>
      </trkpt>
      <trkpt lat="45.92411" lon="4.75919">
        <ele>172</ele>
        <time>2018-05-29T08:21:56Z</time>
      </trkpt>
      <trkpt lat="45.92417" lon="4.75923">
        <ele>172</ele>
        <time>2018-05-29T08:21:57Z</time>
      </trkpt>
      <trkpt lat="45.92422" lon="4.75926">
        <ele>172</ele>
        <time>2018-05-29T08:21:58Z</time>
      </trkpt>
      <trkpt lat="45.92428" lon="4.7593">
        <ele>172</ele>
        <time>2018-05-29T08:21:59Z</time>
      </trkpt>
      <trkpt lat="45.92432" lon="4.75934">
        <ele>172</ele>
        <time>2018-05-29T08:22:00Z</time>
      </trkpt>
      <trkpt lat="45.92437" lon="4.75938">
        <ele>172</ele>
        <time>2018-05-29T08:22:01Z</time>
      </trkpt>
      <trkpt lat="45.92442" lon="4.75943">
        <ele>172</ele>
        <time>2018-05-29T08:22:02Z</time>
      </trkpt>
      <trkpt lat="45.92446" lon="4.75948">
        <ele>172</ele>
        <time>2018-05-29T08:22:03Z</time>
      </trkpt>
      <trkpt lat="45.9245" lon="4.75952">
        <ele>172</ele>
        <time>2018-05-29T08:22:04Z</time>
      </trkpt>
      <trkpt lat="45.92454" lon="4.75955">
        <ele>172</ele>
        <time>2018-05-29T08:22:05Z</time>
      </trkpt>
      <trkpt lat="45.92459" lon="4.75959">
        <ele>172</ele>
        <time>2018-05-29T08:22:06Z</time>
      </trkpt>
      <trkpt lat="45.92463" lon="4.75963">
        <ele>172</ele>
        <time>2018-05-29T08:22:07Z</time>
      </trkpt>
      <trkpt lat="45.92468" lon="4.75967">
        <ele>172</ele>
        <time>2018-05-29T08:22:08Z</time>
      </trkpt>
      <trkpt lat="45.92473" lon="4.7597">
        <ele>172</ele>
        <time>2018-05-29T08:22:09Z</time>
      </trkpt>
      <trkpt lat="45.92478" lon="4.75973">
        <ele>172</ele>
        <time>2018-05-29T08:22:10Z</time>
      </trkpt>
      <trkpt lat="45.92482" lon="4.75977">
        <ele>172</ele>
        <time>2018-05-29T08:22:11Z</time>
      </trkpt>
      <trkpt lat="45.92487" lon="4.7598">
        <ele>172</ele>
        <time>2018-05-29T08:22:12Z</time>
      </trkpt>
      <trkpt lat="45.92492" lon="4.75983">
        <ele>172</ele>
        <time>2018-05-29T08:22:13Z</time>
      </trkpt>
      <trkpt lat="45.92496" lon="4.75986">
        <ele>172</ele>
        <time>2018-05-29T08:22:14Z</time>
      </trkpt>
      <trkpt lat="45.92501" lon="4.75989">
        <ele>172</ele>
        <time>2018-05-29T08:22:15Z</time>
      </trkpt>
      <trkpt lat="45.92507" lon="4.75993">
        <ele>172</ele>
        <time>2018-05-29T08:22:16Z</time>
      </trkpt>
      <trkpt lat="45.92512" lon="4.75997">
        <ele>172</ele>
        <time>2018-05-29T08:22:17Z</time>
      </trkpt>
      <trkpt lat="45.92516" lon="4.76">
        <ele>172</ele>
        <time>2018-05-29T08:22:18Z</time>
      </trkpt>
      <trkpt lat="45.92521" lon="4.76004">
        <ele>172</ele>
        <time>2018-05-29T08:22:19Z</time>
      </trkpt>
      <trkpt lat="45.92527" lon="4.76007">
        <ele>172</ele>
        <time>2018-05-29T08:22:20Z</time>
      </trkpt>
      <trkpt lat="45.92531" lon="4.76011">
        <ele>172</ele>
        <time>2018-05-29T08:22:21Z</time>
      </trkpt>
      <trkpt lat="45.92536" lon="4.76014">
        <ele>172</ele>
        <time>2018-05-29T08:22:22Z</time>
      </trkpt>
      <trkpt lat="45.92541" lon="4.76018">
        <ele>172</ele>
        <time>2018-05-29T08:22:23Z</time>
      </trkpt>
      <trkpt lat="45.92545" lon="4.76021">
        <ele>172</ele>
        <time>2018-05-29T08:22:24Z</time>
      </trkpt>
      <trkpt lat="45.9255" lon="4.76025">
        <ele>172</ele>
        <time>2018-05-29T08:22:25Z</time>
      </trkpt>
      <trkpt lat="45.92556" lon="4.76028">
        <ele>172</ele>
        <time>2018-05-29T08:22:26Z</time>
      </trkpt>
      <trkpt lat="45.92561" lon="4.76032">
        <ele>172</ele>
        <time>2018-05-29T08:22:27Z</time>
      </trkpt>
      <trkpt lat="45.92567" lon="4.76036">
        <ele>172</ele>
        <time>2018-05-29T08:22:28Z</time>
      </trkpt>
      <trkpt lat="45.92572" lon="4.7604">
        <ele>172</ele>
        <time>2018-05-29T08:22:29Z</time>
      </trkpt>
      <trkpt lat="45.92578" lon="4.76044">
        <ele>171</ele>
        <time>2018-05-29T08:22:30Z</time>
      </trkpt>
      <trkpt lat="45.92584" lon="4.76049">
        <ele>171</ele>
        <time>2018-05-29T08:22:31Z</time>
      </trkpt>
      <trkpt lat="45.92589" lon="4.76053">
        <ele>171</ele>
        <time>2018-05-29T08:22:32Z</time>
      </trkpt>
      <trkpt lat="45.92595" lon="4.76057">
        <ele>171</ele>
        <time>2018-05-29T08:22:33Z</time>
      </trkpt>
      <trkpt lat="45.926" lon="4.7606">
        <ele>171</ele>
        <time>2018-05-29T08:22:34Z</time>
      </trkpt>
      <trkpt lat="45.92606" lon="4.76065">
        <ele>171</ele>
        <time>2018-05-29T08:22:35Z</time>
      </trkpt>
      <trkpt lat="45.92611" lon="4.76069">
        <ele>171</ele>
        <time>2018-05-29T08:22:36Z</time>
      </trkpt>
      <trkpt lat="45.92618" lon="4.76074">
        <ele>171</ele>
        <time>2018-05-29T08:22:37Z</time>
      </trkpt>
      <trkpt lat="45.92624" lon="4.76078">
        <ele>171</ele>
        <time>2018-05-29T08:22:38Z</time>
      </trkpt>
      <trkpt lat="45.9263" lon="4.76083">
        <ele>170</ele>
        <time>2018-05-29T08:22:39Z</time>
      </trkpt>
      <trkpt lat="45.92637" lon="4.76087">
        <ele>170</ele>
        <time>2018-05-29T08:22:40Z</time>
      </trkpt>
      <trkpt lat="45.92643" lon="4.76091">
        <ele>170</ele>
        <time>2018-05-29T08:22:41Z</time>
      </trkpt>
      <trkpt lat="45.92651" lon="4.76096">
        <ele>170</ele>
        <time>2018-05-29T08:22:42Z</time>
      </trkpt>
      <trkpt lat="45.92656" lon="4.761">
        <ele>170</ele>
        <time>2018-05-29T08:22:43Z</time>
      </trkpt>
      <trkpt lat="45.92663" lon="4.76105">
        <ele>170</ele>
        <time>2018-05-29T08:22:44Z</time>
      </trkpt>
      <trkpt lat="45.9267" lon="4.76109">
        <ele>169</ele>
        <time>2018-05-29T08:22:45Z</time>
      </trkpt>
      <trkpt lat="45.92677" lon="4.76114">
        <ele>169</ele>
        <time>2018-05-29T08:22:46Z</time>
      </trkpt>
      <trkpt lat="45.92684" lon="4.76119">
        <ele>169</ele>
        <time>2018-05-29T08:22:47Z</time>
      </trkpt>
      <trkpt lat="45.92691" lon="4.76123">
        <ele>169</ele>
        <time>2018-05-29T08:22:48Z</time>
      </trkpt>
      <trkpt lat="45.92698" lon="4.76129">
        <ele>169</ele>
        <time>2018-05-29T08:22:49Z</time>
      </trkpt>
      <trkpt lat="45.92705" lon="4.76133">
        <ele>169</ele>
        <time>2018-05-29T08:22:50Z</time>
      </trkpt>
      <trkpt lat="45.92712" lon="4.76138">
        <ele>168</ele>
        <time>2018-05-29T08:22:51Z</time>
      </trkpt>
      <trkpt lat="45.9272" lon="4.76144">
        <ele>168</ele>
        <time>2018-05-29T08:22:52Z</time>
      </trkpt>
      <trkpt lat="45.92726" lon="4.76149">
        <ele>168</ele>
        <time>2018-05-29T08:22:53Z</time>
      </trkpt>
      <trkpt lat="45.92732" lon="4.76154">
        <ele>168</ele>
        <time>2018-05-29T08:22:54Z</time>
      </trkpt>
      <trkpt lat="45.92739" lon="4.7616">
        <ele>168</ele>
        <time>2018-05-29T08:22:55Z</time>
      </trkpt>
      <trkpt lat="45.92746" lon="4.76165">
        <ele>167</ele>
        <time>2018-05-29T08:22:56Z</time>
      </trkpt>
      <trkpt lat="45.92752" lon="4.7617">
        <ele>167</ele>
        <time>2018-05-29T08:22:57Z</time>
      </trkpt>
      <trkpt lat="45.92758" lon="4.76172">
        <ele>167</ele>
        <time>2018-05-29T08:22:58Z</time>
      </trkpt>
      <trkpt lat="45.92765" lon="4.76176">
        <ele>167</ele>
        <time>2018-05-29T08:22:59Z</time>
      </trkpt>
      <trkpt lat="45.9277" lon="4.76182">
        <ele>167</ele>
        <time>2018-05-29T08:23:00Z</time>
      </trkpt>
      <trkpt lat="45.92776" lon="4.76187">
        <ele>168</ele>
        <time>2018-05-29T08:23:01Z</time>
      </trkpt>
      <trkpt lat="45.92783" lon="4.76191">
        <ele>168</ele>
        <time>2018-05-29T08:23:02Z</time>
      </trkpt>
      <trkpt lat="45.92788" lon="4.76197">
        <ele>168</ele>
        <time>2018-05-29T08:23:03Z</time>
      </trkpt>
      <trkpt lat="45.92793" lon="4.76202">
        <ele>168</ele>
        <time>2018-05-29T08:23:04Z</time>
      </trkpt>
      <trkpt lat="45.92798" lon="4.76207">
        <ele>168</ele>
        <time>2018-05-29T08:23:05Z</time>
      </trkpt>
      <trkpt lat="45.92804" lon="4.76212">
        <ele>168</ele>
        <time>2018-05-29T08:23:06Z</time>
      </trkpt>
      <trkpt lat="45.92809" lon="4.76217">
        <ele>168</ele>
        <time>2018-05-29T08:23:07Z</time>
      </trkpt>
      <trkpt lat="45.92815" lon="4.76223">
        <ele>168</ele>
        <time>2018-05-29T08:23:08Z</time>
      </trkpt>
      <trkpt lat="45.9282" lon="4.76228">
        <ele>168</ele>
        <time>2018-05-29T08:23:09Z</time>
      </trkpt>
      <trkpt lat="45.92825" lon="4.76232">
        <ele>168</ele>
        <time>2018-05-29T08:23:10Z</time>
      </trkpt>
      <trkpt lat="45.9283" lon="4.76236">
        <ele>168</ele>
        <time>2018-05-29T08:23:11Z</time>
      </trkpt>
      <trkpt lat="45.92836" lon="4.76241">
        <ele>169</ele>
        <time>2018-05-29T08:23:12Z</time>
      </trkpt>
      <trkpt lat="45.92839" lon="4.76246">
        <ele>169</ele>
        <time>2018-05-29T08:23:13Z</time>
      </trkpt>
      <trkpt lat="45.92844" lon="4.76249">
        <ele>169</ele>
        <time>2018-05-29T08:23:14Z</time>
      </trkpt>
      <trkpt lat="45.92848" lon="4.76254">
        <ele>169</ele>
        <time>2018-05-29T08:23:15Z</time>
      </trkpt>
      <trkpt lat="45.92852" lon="4.76259">
        <ele>169</ele>
        <time>2018-05-29T08:23:16Z</time>
      </trkpt>
      <trkpt lat="45.92856" lon="4.76264">
        <ele>169</ele>
        <time>2018-05-29T08:23:17Z</time>
      </trkpt>
      <trkpt lat="45.92862" lon="4.76268">
        <ele>169</ele>
        <time>2018-05-29T08:23:18Z</time>
      </trkpt>
      <trkpt lat="45.92869" lon="4.76275">
        <ele>169</ele>
        <time>2018-05-29T08:23:19Z</time>
      </trkpt>
      <trkpt lat="45.92874" lon="4.7628">
        <ele>169</ele>
        <time>2018-05-29T08:23:20Z</time>
      </trkpt>
      <trkpt lat="45.9288" lon="4.76286">
        <ele>169</ele>
        <time>2018-05-29T08:23:21Z</time>
      </trkpt>
      <trkpt lat="45.92885" lon="4.76294">
        <ele>169</ele>
        <time>2018-05-29T08:23:22Z</time>
      </trkpt>
      <trkpt lat="45.92891" lon="4.763">
        <ele>169</ele>
        <time>2018-05-29T08:23:23Z</time>
      </trkpt>
      <trkpt lat="45.92895" lon="4.76306">
        <ele>169</ele>
        <time>2018-05-29T08:23:24Z</time>
      </trkpt>
      <trkpt lat="45.929" lon="4.76311">
        <ele>169</ele>
        <time>2018-05-29T08:23:25Z</time>
      </trkpt>
      <trkpt lat="45.92904" lon="4.76316">
        <ele>169</ele>
        <time>2018-05-29T08:23:26Z</time>
      </trkpt>
      <trkpt lat="45.92907" lon="4.76321">
        <ele>169</ele>
        <time>2018-05-29T08:23:27Z</time>
      </trkpt>
      <trkpt lat="45.92911" lon="4.76328">
        <ele>169</ele>
        <time>2018-05-29T08:23:28Z</time>
      </trkpt>
      <trkpt lat="45.92916" lon="4.76333">
        <ele>169</ele>
        <time>2018-05-29T08:23:29Z</time>
      </trkpt>
      <trkpt lat="45.9292" lon="4.76337">
        <ele>169</ele>
        <time>2018-05-29T08:23:30Z</time>
      </trkpt>
      <trkpt lat="45.92925" lon="4.76342">
        <ele>169</ele>
        <time>2018-05-29T08:23:31Z</time>
      </trkpt>
      <trkpt lat="45.9293" lon="4.76347">
        <ele>169</ele>
        <time>2018-05-29T08:23:32Z</time>
      </trkpt>
      <trkpt lat="45.92935" lon="4.76352">
        <ele>169</ele>
        <time>2018-05-29T08:23:33Z</time>
      </trkpt>
      <trkpt lat="45.9294" lon="4.76356">
        <ele>169</ele>
        <time>2018-05-29T08:23:34Z</time>
      </trkpt>
      <trkpt lat="45.92945" lon="4.76361">
        <ele>169</ele>
        <time>2018-05-29T08:23:35Z</time>
      </trkpt>
      <trkpt lat="45.9295" lon="4.76365">
        <ele>169</ele>
        <time>2018-05-29T08:23:36Z</time>
      </trkpt>
      <trkpt lat="45.92955" lon="4.7637">
        <ele>169</ele>
        <time>2018-05-29T08:23:37Z</time>
      </trkpt>
      <trkpt lat="45.92959" lon="4.76375">
        <ele>169</ele>
        <time>2018-05-29T08:23:38Z</time>
      </trkpt>
      <trkpt lat="45.92964" lon="4.76379">
        <ele>169</ele>
        <time>2018-05-29T08:23:39Z</time>
      </trkpt>
      <trkpt lat="45.92969" lon="4.76384">
        <ele>169</ele>
        <time>2018-05-29T08:23:40Z</time>
      </trkpt>
      <trkpt lat="45.92975" lon="4.76389">
        <ele>169</ele>
        <time>2018-05-29T08:23:41Z</time>
      </trkpt>
      <trkpt lat="45.92979" lon="4.76394">
        <ele>169</ele>
        <time>2018-05-29T08:23:42Z</time>
      </trkpt>
      <trkpt lat="45.92984" lon="4.76399">
        <ele>169</ele>
        <time>2018-05-29T08:23:43Z</time>
      </trkpt>
      <trkpt lat="45.9299" lon="4.76403">
        <ele>169</ele>
        <time>2018-05-29T08:23:44Z</time>
      </trkpt>
      <trkpt lat="45.92995" lon="4.76407">
        <ele>169</ele>
        <time>2018-05-29T08:23:45Z</time>
      </trkpt>
      <trkpt lat="45.93001" lon="4.7641">
        <ele>169</ele>
        <time>2018-05-29T08:23:46Z</time>
      </trkpt>
      <trkpt lat="45.93005" lon="4.76415">
        <ele>169</ele>
        <time>2018-05-29T08:23:47Z</time>
      </trkpt>
      <trkpt lat="45.9301" lon="4.76419">
        <ele>169</ele>
        <time>2018-05-29T08:23:48Z</time>
      </trkpt>
      <trkpt lat="45.93015" lon="4.76424">
        <ele>169</ele>
        <time>2018-05-29T08:23:49Z</time>
      </trkpt>
      <trkpt lat="45.9302" lon="4.76427">
        <ele>169</ele>
        <time>2018-05-29T08:23:50Z</time>
      </trkpt>
      <trkpt lat="45.93024" lon="4.76434">
        <ele>169</ele>
        <time>2018-05-29T08:23:51Z</time>
      </trkpt>
      <trkpt lat="45.93029" lon="4.76439">
        <ele>169</ele>
        <time>2018-05-29T08:23:52Z</time>
      </trkpt>
      <trkpt lat="45.93033" lon="4.76444">
        <ele>169</ele>
        <time>2018-05-29T08:23:53Z</time>
      </trkpt>
      <trkpt lat="45.93038" lon="4.76448">
        <ele>169</ele>
        <time>2018-05-29T08:23:54Z</time>
      </trkpt>
      <trkpt lat="45.93043" lon="4.76454">
        <ele>169</ele>
        <time>2018-05-29T08:23:55Z</time>
      </trkpt>
      <trkpt lat="45.93048" lon="4.76457">
        <ele>169</ele>
        <time>2018-05-29T08:23:56Z</time>
      </trkpt>
      <trkpt lat="45.93053" lon="4.76461">
        <ele>169</ele>
        <time>2018-05-29T08:23:57Z</time>
      </trkpt>
      <trkpt lat="45.93057" lon="4.76466">
        <ele>169</ele>
        <time>2018-05-29T08:23:58Z</time>
      </trkpt>
      <trkpt lat="45.93061" lon="4.7647">
        <ele>169</ele>
        <time>2018-05-29T08:23:59Z</time>
      </trkpt>
      <trkpt lat="45.93066" lon="4.76474">
        <ele>169</ele>
        <time>2018-05-29T08:24:00Z</time>
      </trkpt>
      <trkpt lat="45.9307" lon="4.76479">
        <ele>169</ele>
        <time>2018-05-29T08:24:01Z</time>
      </trkpt>
      <trkpt lat="45.93075" lon="4.76481">
        <ele>169</ele>
        <time>2018-05-29T08:24:02Z</time>
      </trkpt>
      <trkpt lat="45.9308" lon="4.76486">
        <ele>170</ele>
        <time>2018-05-29T08:24:03Z</time>
      </trkpt>
      <trkpt lat="45.93085" lon="4.76491">
        <ele>170</ele>
        <time>2018-05-29T08:24:04Z</time>
      </trkpt>
      <trkpt lat="45.93091" lon="4.76496">
        <ele>170</ele>
        <time>2018-05-29T08:24:05Z</time>
      </trkpt>
      <trkpt lat="45.93096" lon="4.765">
        <ele>170</ele>
        <time>2018-05-29T08:24:06Z</time>
      </trkpt>
      <trkpt lat="45.93101" lon="4.76505">
        <ele>170</ele>
        <time>2018-05-29T08:24:07Z</time>
      </trkpt>
      <trkpt lat="45.93106" lon="4.76511">
        <ele>170</ele>
        <time>2018-05-29T08:24:08Z</time>
      </trkpt>
      <trkpt lat="45.93111" lon="4.76516">
        <ele>170</ele>
        <time>2018-05-29T08:24:09Z</time>
      </trkpt>
      <trkpt lat="45.93115" lon="4.7652">
        <ele>170</ele>
        <time>2018-05-29T08:24:10Z</time>
      </trkpt>
      <trkpt lat="45.9312" lon="4.76525">
        <ele>170</ele>
        <time>2018-05-29T08:24:11Z</time>
      </trkpt>
      <trkpt lat="45.93125" lon="4.7653">
        <ele>170</ele>
        <time>2018-05-29T08:24:12Z</time>
      </trkpt>
      <trkpt lat="45.93129" lon="4.76534">
        <ele>170</ele>
        <time>2018-05-29T08:24:13Z</time>
      </trkpt>
      <trkpt lat="45.93132" lon="4.76539">
        <ele>170</ele>
        <time>2018-05-29T08:24:14Z</time>
      </trkpt>
      <trkpt lat="45.93136" lon="4.76544">
        <ele>170</ele>
        <time>2018-05-29T08:24:15Z</time>
      </trkpt>
      <trkpt lat="45.93142" lon="4.76548">
        <ele>170</ele>
        <time>2018-05-29T08:24:16Z</time>
      </trkpt>
      <trkpt lat="45.9315" lon="4.76553">
        <ele>170</ele>
        <time>2018-05-29T08:24:17Z</time>
      </trkpt>
      <trkpt lat="45.93154" lon="4.76559">
        <ele>170</ele>
        <time>2018-05-29T08:24:18Z</time>
      </trkpt>
      <trkpt lat="45.93159" lon="4.76565">
        <ele>170</ele>
        <time>2018-05-29T08:24:19Z</time>
      </trkpt>
      <trkpt lat="45.93164" lon="4.7657">
        <ele>170</ele>
        <time>2018-05-29T08:24:20Z</time>
      </trkpt>
      <trkpt lat="45.93167" lon="4.76575">
        <ele>170</ele>
        <time>2018-05-29T08:24:21Z</time>
      </trkpt>
      <trkpt lat="45.93173" lon="4.7658">
        <ele>170</ele>
        <time>2018-05-29T08:24:22Z</time>
      </trkpt>
      <trkpt lat="45.93179" lon="4.76584">
        <ele>171</ele>
        <time>2018-05-29T08:24:23Z</time>
      </trkpt>
      <trkpt lat="45.93185" lon="4.76588">
        <ele>171</ele>
        <time>2018-05-29T08:24:24Z</time>
      </trkpt>
      <trkpt lat="45.93189" lon="4.76592">
        <ele>170</ele>
        <time>2018-05-29T08:24:25Z</time>
      </trkpt>
      <trkpt lat="45.93195" lon="4.76596">
        <ele>170</ele>
        <time>2018-05-29T08:24:26Z</time>
      </trkpt>
      <trkpt lat="45.93199" lon="4.76601">
        <ele>170</ele>
        <time>2018-05-29T08:24:27Z</time>
      </trkpt>
      <trkpt lat="45.93204" lon="4.76605">
        <ele>170</ele>
        <time>2018-05-29T08:24:28Z</time>
      </trkpt>
      <trkpt lat="45.9321" lon="4.76615">
        <ele>170</ele>
        <time>2018-05-29T08:24:30Z</time>
      </trkpt>
      <trkpt lat="45.93215" lon="4.76619">
        <ele>170</ele>
        <time>2018-05-29T08:24:31Z</time>
      </trkpt>
      <trkpt lat="45.9322" lon="4.76623">
        <ele>170</ele>
        <time>2018-05-29T08:24:32Z</time>
      </trkpt>
      <trkpt lat="45.93225" lon="4.76628">
        <ele>170</ele>
        <time>2018-05-29T08:24:33Z</time>
      </trkpt>
      <trkpt lat="45.93229" lon="4.76634">
        <ele>171</ele>
        <time>2018-05-29T08:24:34Z</time>
      </trkpt>
      <trkpt lat="45.93235" lon="4.7664">
        <ele>171</ele>
        <time>2018-05-29T08:24:35Z</time>
      </trkpt>
      <trkpt lat="45.9324" lon="4.76643">
        <ele>171</ele>
        <time>2018-05-29T08:24:36Z</time>
      </trkpt>
      <trkpt lat="45.93244" lon="4.76648">
        <ele>171</ele>
        <time>2018-05-29T08:24:37Z</time>
      </trkpt>
      <trkpt lat="45.93249" lon="4.76654">
        <ele>171</ele>
        <time>2018-05-29T08:24:38Z</time>
      </trkpt>
      <trkpt lat="45.93254" lon="4.76658">
        <ele>171</ele>
        <time>2018-05-29T08:24:39Z</time>
      </trkpt>
      <trkpt lat="45.93259" lon="4.76663">
        <ele>171</ele>
        <time>2018-05-29T08:24:40Z</time>
      </trkpt>
      <trkpt lat="45.93263" lon="4.76668">
        <ele>172</ele>
        <time>2018-05-29T08:24:41Z</time>
      </trkpt>
      <trkpt lat="45.93268" lon="4.76673">
        <ele>172</ele>
        <time>2018-05-29T08:24:42Z</time>
      </trkpt>
      <trkpt lat="45.93271" lon="4.76677">
        <ele>172</ele>
        <time>2018-05-29T08:24:43Z</time>
      </trkpt>
      <trkpt lat="45.93276" lon="4.76682">
        <ele>172</ele>
        <time>2018-05-29T08:24:44Z</time>
      </trkpt>
      <trkpt lat="45.93281" lon="4.76687">
        <ele>172</ele>
        <time>2018-05-29T08:24:45Z</time>
      </trkpt>
      <trkpt lat="45.93286" lon="4.76692">
        <ele>172</ele>
        <time>2018-05-29T08:24:46Z</time>
      </trkpt>
      <trkpt lat="45.93291" lon="4.76697">
        <ele>172</ele>
        <time>2018-05-29T08:24:47Z</time>
      </trkpt>
      <trkpt lat="45.93295" lon="4.76702">
        <ele>172</ele>
        <time>2018-05-29T08:24:48Z</time>
      </trkpt>
      <trkpt lat="45.933" lon="4.76708">
        <ele>172</ele>
        <time>2018-05-29T08:24:49Z</time>
      </trkpt>
      <trkpt lat="45.93304" lon="4.76712">
        <ele>172</ele>
        <time>2018-05-29T08:24:50Z</time>
      </trkpt>
      <trkpt lat="45.93307" lon="4.76716">
        <ele>172</ele>
        <time>2018-05-29T08:24:51Z</time>
      </trkpt>
      <trkpt lat="45.93315" lon="4.76721">
        <ele>172</ele>
        <time>2018-05-29T08:24:52Z</time>
      </trkpt>
      <trkpt lat="45.93319" lon="4.76725">
        <ele>172</ele>
        <time>2018-05-29T08:24:53Z</time>
      </trkpt>
      <trkpt lat="45.93323" lon="4.7673">
        <ele>172</ele>
        <time>2018-05-29T08:24:54Z</time>
      </trkpt>
      <trkpt lat="45.93327" lon="4.76735">
        <ele>172</ele>
        <time>2018-05-29T08:24:55Z</time>
      </trkpt>
      <trkpt lat="45.93331" lon="4.76737">
        <ele>172</ele>
        <time>2018-05-29T08:24:56Z</time>
      </trkpt>
      <trkpt lat="45.93336" lon="4.76742">
        <ele>173</ele>
        <time>2018-05-29T08:24:57Z</time>
      </trkpt>
      <trkpt lat="45.9334" lon="4.76748">
        <ele>173</ele>
        <time>2018-05-29T08:24:58Z</time>
      </trkpt>
      <trkpt lat="45.93345" lon="4.76752">
        <ele>173</ele>
        <time>2018-05-29T08:24:59Z</time>
      </trkpt>
      <trkpt lat="45.93349" lon="4.76756">
        <ele>172</ele>
        <time>2018-05-29T08:25:00Z</time>
      </trkpt>
      <trkpt lat="45.93354" lon="4.76761">
        <ele>172</ele>
        <time>2018-05-29T08:25:01Z</time>
      </trkpt>
      <trkpt lat="45.93358" lon="4.76766">
        <ele>172</ele>
        <time>2018-05-29T08:25:02Z</time>
      </trkpt>
      <trkpt lat="45.93363" lon="4.76771">
        <ele>172</ele>
        <time>2018-05-29T08:25:03Z</time>
      </trkpt>
      <trkpt lat="45.93368" lon="4.76776">
        <ele>172</ele>
        <time>2018-05-29T08:25:04Z</time>
      </trkpt>
      <trkpt lat="45.93373" lon="4.7678">
        <ele>172</ele>
        <time>2018-05-29T08:25:05Z</time>
      </trkpt>
      <trkpt lat="45.93377" lon="4.76785">
        <ele>172</ele>
        <time>2018-05-29T08:25:06Z</time>
      </trkpt>
      <trkpt lat="45.93381" lon="4.76791">
        <ele>172</ele>
        <time>2018-05-29T08:25:07Z</time>
      </trkpt>
      <trkpt lat="45.93386" lon="4.76796">
        <ele>172</ele>
        <time>2018-05-29T08:25:08Z</time>
      </trkpt>
      <trkpt lat="45.9339" lon="4.76801">
        <ele>172</ele>
        <time>2018-05-29T08:25:09Z</time>
      </trkpt>
      <trkpt lat="45.93394" lon="4.76806">
        <ele>172</ele>
        <time>2018-05-29T08:25:10Z</time>
      </trkpt>
      <trkpt lat="45.93399" lon="4.76811">
        <ele>172</ele>
        <time>2018-05-29T08:25:11Z</time>
      </trkpt>
      <trkpt lat="45.93403" lon="4.76816">
        <ele>172</ele>
        <time>2018-05-29T08:25:12Z</time>
      </trkpt>
      <trkpt lat="45.93408" lon="4.76822">
        <ele>172</ele>
        <time>2018-05-29T08:25:13Z</time>
      </trkpt>
      <trkpt lat="45.93412" lon="4.76828">
        <ele>172</ele>
        <time>2018-05-29T08:25:14Z</time>
      </trkpt>
      <trkpt lat="45.93416" lon="4.76835">
        <ele>172</ele>
        <time>2018-05-29T08:25:15Z</time>
      </trkpt>
      <trkpt lat="45.93419" lon="4.76843">
        <ele>171</ele>
        <time>2018-05-29T08:25:16Z</time>
      </trkpt>
      <trkpt lat="45.93423" lon="4.76849">
        <ele>171</ele>
        <time>2018-05-29T08:25:17Z</time>
      </trkpt>
      <trkpt lat="45.93427" lon="4.76857">
        <ele>171</ele>
        <time>2018-05-29T08:25:18Z</time>
      </trkpt>
      <trkpt lat="45.9343" lon="4.76864">
        <ele>171</ele>
        <time>2018-05-29T08:25:19Z</time>
      </trkpt>
      <trkpt lat="45.93432" lon="4.76871">
        <ele>171</ele>
        <time>2018-05-29T08:25:20Z</time>
      </trkpt>
      <trkpt lat="45.93435" lon="4.76879">
        <ele>171</ele>
        <time>2018-05-29T08:25:21Z</time>
      </trkpt>
      <trkpt lat="45.93437" lon="4.76886">
        <ele>171</ele>
        <time>2018-05-29T08:25:22Z</time>
      </trkpt>
      <trkpt lat="45.93439" lon="4.76893">
        <ele>170</ele>
        <time>2018-05-29T08:25:23Z</time>
      </trkpt>
      <trkpt lat="45.93441" lon="4.769">
        <ele>170</ele>
        <time>2018-05-29T08:25:24Z</time>
      </trkpt>
      <trkpt lat="45.93443" lon="4.76908">
        <ele>170</ele>
        <time>2018-05-29T08:25:25Z</time>
      </trkpt>
      <trkpt lat="45.93446" lon="4.76916">
        <ele>170</ele>
        <time>2018-05-29T08:25:26Z</time>
      </trkpt>
      <trkpt lat="45.93447" lon="4.76924">
        <ele>170</ele>
        <time>2018-05-29T08:25:27Z</time>
      </trkpt>
      <trkpt lat="45.93448" lon="4.76931">
        <ele>170</ele>
        <time>2018-05-29T08:25:28Z</time>
      </trkpt>
      <trkpt lat="45.93448" lon="4.76938">
        <ele>170</ele>
        <time>2018-05-29T08:25:29Z</time>
      </trkpt>
      <trkpt lat="45.9345" lon="4.76948">
        <ele>170</ele>
        <time>2018-05-29T08:25:30Z</time>
      </trkpt>
      <trkpt lat="45.93451" lon="4.76958">
        <ele>170</ele>
        <time>2018-05-29T08:25:31Z</time>
      </trkpt>
      <trkpt lat="45.93453" lon="4.76966">
        <ele>170</ele>
        <time>2018-05-29T08:25:32Z</time>
      </trkpt>
      <trkpt lat="45.93454" lon="4.76974">
        <ele>170</ele>
        <time>2018-05-29T08:25:33Z</time>
      </trkpt>
      <trkpt lat="45.93456" lon="4.76982">
        <ele>170</ele>
        <time>2018-05-29T08:25:34Z</time>
      </trkpt>
      <trkpt lat="45.93457" lon="4.7699">
        <ele>170</ele>
        <time>2018-05-29T08:25:35Z</time>
      </trkpt>
      <trkpt lat="45.93458" lon="4.76997">
        <ele>170</ele>
        <time>2018-05-29T08:25:36Z</time>
      </trkpt>
      <trkpt lat="45.93459" lon="4.77004">
        <ele>170</ele>
        <time>2018-05-29T08:25:37Z</time>
      </trkpt>
      <trkpt lat="45.9346" lon="4.77013">
        <ele>170</ele>
        <time>2018-05-29T08:25:38Z</time>
      </trkpt>
      <trkpt lat="45.93461" lon="4.77021">
        <ele>170</ele>
        <time>2018-05-29T08:25:39Z</time>
      </trkpt>
      <trkpt lat="45.93464" lon="4.77033">
        <ele>170</ele>
        <time>2018-05-29T08:25:41Z</time>
      </trkpt>
      <trkpt lat="45.93465" lon="4.7704">
        <ele>170</ele>
        <time>2018-05-29T08:25:42Z</time>
      </trkpt>
      <trkpt lat="45.93466" lon="4.77048">
        <ele>170</ele>
        <time>2018-05-29T08:25:43Z</time>
      </trkpt>
      <trkpt lat="45.93468" lon="4.77055">
        <ele>170</ele>
        <time>2018-05-29T08:25:44Z</time>
      </trkpt>
      <trkpt lat="45.9347" lon="4.77063">
        <ele>170</ele>
        <time>2018-05-29T08:25:45Z</time>
      </trkpt>
      <trkpt lat="45.93472" lon="4.77069">
        <ele>170</ele>
        <time>2018-05-29T08:25:46Z</time>
      </trkpt>
      <trkpt lat="45.93473" lon="4.77074">
        <ele>170</ele>
        <time>2018-05-29T08:25:47Z</time>
      </trkpt>
      <trkpt lat="45.93474" lon="4.77082">
        <ele>170</ele>
        <time>2018-05-29T08:25:48Z</time>
      </trkpt>
      <trkpt lat="45.93476" lon="4.77089">
        <ele>169</ele>
        <time>2018-05-29T08:25:49Z</time>
      </trkpt>
      <trkpt lat="45.93477" lon="4.77096">
        <ele>169</ele>
        <time>2018-05-29T08:25:50Z</time>
      </trkpt>
      <trkpt lat="45.93478" lon="4.77103">
        <ele>169</ele>
        <time>2018-05-29T08:25:51Z</time>
      </trkpt>
      <trkpt lat="45.93479" lon="4.7711">
        <ele>169</ele>
        <time>2018-05-29T08:25:52Z</time>
      </trkpt>
      <trkpt lat="45.93481" lon="4.77118">
        <ele>169</ele>
        <time>2018-05-29T08:25:53Z</time>
      </trkpt>
      <trkpt lat="45.93482" lon="4.77125">
        <ele>169</ele>
        <time>2018-05-29T08:25:54Z</time>
      </trkpt>
      <trkpt lat="45.93483" lon="4.77133">
        <ele>169</ele>
        <time>2018-05-29T08:25:55Z</time>
      </trkpt>
      <trkpt lat="45.93485" lon="4.77139">
        <ele>169</ele>
        <time>2018-05-29T08:25:56Z</time>
      </trkpt>
      <trkpt lat="45.93486" lon="4.77147">
        <ele>169</ele>
        <time>2018-05-29T08:25:57Z</time>
      </trkpt>
      <trkpt lat="45.93488" lon="4.77154">
        <ele>169</ele>
        <time>2018-05-29T08:25:58Z</time>
      </trkpt>
      <trkpt lat="45.9349" lon="4.77163">
        <ele>169</ele>
        <time>2018-05-29T08:25:59Z</time>
      </trkpt>
      <trkpt lat="45.93491" lon="4.7717">
        <ele>169</ele>
        <time>2018-05-29T08:26:00Z</time>
      </trkpt>
      <trkpt lat="45.93493" lon="4.77178">
        <ele>169</ele>
        <time>2018-05-29T08:26:01Z</time>
      </trkpt>
      <trkpt lat="45.93494" lon="4.77186">
        <ele>169</ele>
        <time>2018-05-29T08:26:02Z</time>
      </trkpt>
      <trkpt lat="45.93496" lon="4.77194">
        <ele>169</ele>
        <time>2018-05-29T08:26:03Z</time>
      </trkpt>
      <trkpt lat="45.93497" lon="4.77201">
        <ele>169</ele>
        <time>2018-05-29T08:26:04Z</time>
      </trkpt>
      <trkpt lat="45.93499" lon="4.77208">
        <ele>169</ele>
        <time>2018-05-29T08:26:05Z</time>
      </trkpt>
      <trkpt lat="45.935" lon="4.77218">
        <ele>169</ele>
        <time>2018-05-29T08:26:06Z</time>
      </trkpt>
      <trkpt lat="45.93501" lon="4.77225">
        <ele>169</ele>
        <time>2018-05-29T08:26:07Z</time>
      </trkpt>
      <trkpt lat="45.93503" lon="4.77234">
        <ele>169</ele>
        <time>2018-05-29T08:26:08Z</time>
      </trkpt>
      <trkpt lat="45.93505" lon="4.77242">
        <ele>170</ele>
        <time>2018-05-29T08:26:09Z</time>
      </trkpt>
      <trkpt lat="45.93507" lon="4.7725">
        <ele>170</ele>
        <time>2018-05-29T08:26:10Z</time>
      </trkpt>
      <trkpt lat="45.93509" lon="4.77257">
        <ele>170</ele>
        <time>2018-05-29T08:26:11Z</time>
      </trkpt>
      <trkpt lat="45.93511" lon="4.77265">
        <ele>170</ele>
        <time>2018-05-29T08:26:12Z</time>
      </trkpt>
      <trkpt lat="45.93511" lon="4.77275">
        <ele>170</ele>
        <time>2018-05-29T08:26:13Z</time>
      </trkpt>
      <trkpt lat="45.93513" lon="4.77282">
        <ele>170</ele>
        <time>2018-05-29T08:26:14Z</time>
      </trkpt>
      <trkpt lat="45.93515" lon="4.7729">
        <ele>170</ele>
        <time>2018-05-29T08:26:15Z</time>
      </trkpt>
      <trkpt lat="45.93516" lon="4.77298">
        <ele>170</ele>
        <time>2018-05-29T08:26:16Z</time>
      </trkpt>
      <trkpt lat="45.93519" lon="4.77304">
        <ele>170</ele>
        <time>2018-05-29T08:26:17Z</time>
      </trkpt>
      <trkpt lat="45.93521" lon="4.7731">
        <ele>170</ele>
        <time>2018-05-29T08:26:18Z</time>
      </trkpt>
      <trkpt lat="45.93523" lon="4.77317">
        <ele>170</ele>
        <time>2018-05-29T08:26:19Z</time>
      </trkpt>
      <trkpt lat="45.93524" lon="4.77325">
        <ele>170</ele>
        <time>2018-05-29T08:26:20Z</time>
      </trkpt>
      <trkpt lat="45.93526" lon="4.77332">
        <ele>170</ele>
        <time>2018-05-29T08:26:21Z</time>
      </trkpt>
      <trkpt lat="45.93527" lon="4.77341">
        <ele>170</ele>
        <time>2018-05-29T08:26:22Z</time>
      </trkpt>
      <trkpt lat="45.9353" lon="4.77349">
        <ele>170</ele>
        <time>2018-05-29T08:26:23Z</time>
      </trkpt>
      <trkpt lat="45.93531" lon="4.77357">
        <ele>170</ele>
        <time>2018-05-29T08:26:24Z</time>
      </trkpt>
      <trkpt lat="45.93532" lon="4.77367">
        <ele>170</ele>
        <time>2018-05-29T08:26:25Z</time>
      </trkpt>
      <trkpt lat="45.93534" lon="4.77373">
        <ele>170</ele>
        <time>2018-05-29T08:26:26Z</time>
      </trkpt>
      <trkpt lat="45.93535" lon="4.77381">
        <ele>170</ele>
        <time>2018-05-29T08:26:27Z</time>
      </trkpt>
      <trkpt lat="45.93537" lon="4.77388">
        <ele>170</ele>
        <time>2018-05-29T08:26:28Z</time>
      </trkpt>
      <trkpt lat="45.93539" lon="4.77396">
        <ele>170</ele>
        <time>2018-05-29T08:26:29Z</time>
      </trkpt>
      <trkpt lat="45.93541" lon="4.77403">
        <ele>170</ele>
        <time>2018-05-29T08:26:30Z</time>
      </trkpt>
      <trkpt lat="45.93542" lon="4.77411">
        <ele>170</ele>
        <time>2018-05-29T08:26:31Z</time>
      </trkpt>
      <trkpt lat="45.93544" lon="4.77419">
        <ele>170</ele>
        <time>2018-05-29T08:26:32Z</time>
      </trkpt>
      <trkpt lat="45.93545" lon="4.77425">
        <ele>170</ele>
        <time>2018-05-29T08:26:33Z</time>
      </trkpt>
      <trkpt lat="45.93546" lon="4.77432">
        <ele>169</ele>
        <time>2018-05-29T08:26:34Z</time>
      </trkpt>
      <trkpt lat="45.93548" lon="4.77441">
        <ele>169</ele>
        <time>2018-05-29T08:26:35Z</time>
      </trkpt>
      <trkpt lat="45.9355" lon="4.7745">
        <ele>169</ele>
        <time>2018-05-29T08:26:36Z</time>
      </trkpt>
      <trkpt lat="45.93552" lon="4.77458">
        <ele>169</ele>
        <time>2018-05-29T08:26:37Z</time>
      </trkpt>
      <trkpt lat="45.93553" lon="4.77465">
        <ele>169</ele>
        <time>2018-05-29T08:26:38Z</time>
      </trkpt>
      <trkpt lat="45.93557" lon="4.77472">
        <ele>169</ele>
        <time>2018-05-29T08:26:39Z</time>
      </trkpt>
      <trkpt lat="45.93559" lon="4.77481">
        <ele>169</ele>
        <time>2018-05-29T08:26:40Z</time>
      </trkpt>
      <trkpt lat="45.93561" lon="4.77488">
        <ele>169</ele>
        <time>2018-05-29T08:26:41Z</time>
      </trkpt>
      <trkpt lat="45.93563" lon="4.77496">
        <ele>169</ele>
        <time>2018-05-29T08:26:42Z</time>
      </trkpt>
      <trkpt lat="45.93565" lon="4.77503">
        <ele>169</ele>
        <time>2018-05-29T08:26:43Z</time>
      </trkpt>
      <trkpt lat="45.93566" lon="4.77511">
        <ele>169</ele>
        <time>2018-05-29T08:26:44Z</time>
      </trkpt>
      <trkpt lat="45.93568" lon="4.77519">
        <ele>169</ele>
        <time>2018-05-29T08:26:45Z</time>
      </trkpt>
      <trkpt lat="45.9357" lon="4.77527">
        <ele>169</ele>
        <time>2018-05-29T08:26:46Z</time>
      </trkpt>
      <trkpt lat="45.93572" lon="4.77535">
        <ele>169</ele>
        <time>2018-05-29T08:26:47Z</time>
      </trkpt>
      <trkpt lat="45.93574" lon="4.77543">
        <ele>169</ele>
        <time>2018-05-29T08:26:48Z</time>
      </trkpt>
      <trkpt lat="45.93575" lon="4.77551">
        <ele>169</ele>
        <time>2018-05-29T08:26:49Z</time>
      </trkpt>
      <trkpt lat="45.93577" lon="4.77558">
        <ele>169</ele>
        <time>2018-05-29T08:26:50Z</time>
      </trkpt>
      <trkpt lat="45.93579" lon="4.77565">
        <ele>169</ele>
        <time>2018-05-29T08:26:51Z</time>
      </trkpt>
      <trkpt lat="45.93582" lon="4.77573">
        <ele>170</ele>
        <time>2018-05-29T08:26:52Z</time>
      </trkpt>
      <trkpt lat="45.93584" lon="4.77582">
        <ele>170</ele>
        <time>2018-05-29T08:26:53Z</time>
      </trkpt>
      <trkpt lat="45.93586" lon="4.7759">
        <ele>170</ele>
        <time>2018-05-29T08:26:54Z</time>
      </trkpt>
      <trkpt lat="45.93588" lon="4.77598">
        <ele>170</ele>
        <time>2018-05-29T08:26:55Z</time>
      </trkpt>
      <trkpt lat="45.93591" lon="4.77605">
        <ele>170</ele>
        <time>2018-05-29T08:26:56Z</time>
      </trkpt>
      <trkpt lat="45.93593" lon="4.77612">
        <ele>170</ele>
        <time>2018-05-29T08:26:57Z</time>
      </trkpt>
      <trkpt lat="45.93596" lon="4.77619">
        <ele>170</ele>
        <time>2018-05-29T08:26:58Z</time>
      </trkpt>
      <trkpt lat="45.93599" lon="4.77626">
        <ele>169</ele>
        <time>2018-05-29T08:26:59Z</time>
      </trkpt>
      <trkpt lat="45.93602" lon="4.77633">
        <ele>169</ele>
        <time>2018-05-29T08:27:00Z</time>
      </trkpt>
      <trkpt lat="45.93604" lon="4.77641">
        <ele>169</ele>
        <time>2018-05-29T08:27:01Z</time>
      </trkpt>
      <trkpt lat="45.93608" lon="4.77647">
        <ele>169</ele>
        <time>2018-05-29T08:27:02Z</time>
      </trkpt>
      <trkpt lat="45.9361" lon="4.77654">
        <ele>169</ele>
        <time>2018-05-29T08:27:03Z</time>
      </trkpt>
      <trkpt lat="45.93613" lon="4.77662">
        <ele>169</ele>
        <time>2018-05-29T08:27:04Z</time>
      </trkpt>
      <trkpt lat="45.93617" lon="4.77669">
        <ele>169</ele>
        <time>2018-05-29T08:27:05Z</time>
      </trkpt>
      <trkpt lat="45.9362" lon="4.77676">
        <ele>169</ele>
        <time>2018-05-29T08:27:06Z</time>
      </trkpt>
      <trkpt lat="45.93623" lon="4.77683">
        <ele>169</ele>
        <time>2018-05-29T08:27:07Z</time>
      </trkpt>
      <trkpt lat="45.93626" lon="4.77689">
        <ele>169</ele>
        <time>2018-05-29T08:27:08Z</time>
      </trkpt>
      <trkpt lat="45.93628" lon="4.77695">
        <ele>169</ele>
        <time>2018-05-29T08:27:09Z</time>
      </trkpt>
      <trkpt lat="45.93631" lon="4.777">
        <ele>169</ele>
        <time>2018-05-29T08:27:10Z</time>
      </trkpt>
      <trkpt lat="45.93633" lon="4.77706">
        <ele>170</ele>
        <time>2018-05-29T08:27:11Z</time>
      </trkpt>
      <trkpt lat="45.93636" lon="4.77712">
        <ele>170</ele>
        <time>2018-05-29T08:27:12Z</time>
      </trkpt>
      <trkpt lat="45.93642" lon="4.77721">
        <ele>170</ele>
        <time>2018-05-29T08:27:14Z</time>
      </trkpt>
      <trkpt lat="45.93644" lon="4.77727">
        <ele>170</ele>
        <time>2018-05-29T08:27:15Z</time>
      </trkpt>
      <trkpt lat="45.9365" lon="4.77735">
        <ele>170</ele>
        <time>2018-05-29T08:27:17Z</time>
      </trkpt>
      <trkpt lat="45.93653" lon="4.7774">
        <ele>170</ele>
        <time>2018-05-29T08:27:18Z</time>
      </trkpt>
      <trkpt lat="45.93659" lon="4.77748">
        <ele>171</ele>
        <time>2018-05-29T08:27:20Z</time>
      </trkpt>
      <trkpt lat="45.93661" lon="4.77752">
        <ele>171</ele>
        <time>2018-05-29T08:27:21Z</time>
      </trkpt>
      <trkpt lat="45.93667" lon="4.77762">
        <ele>170</ele>
        <time>2018-05-29T08:27:23Z</time>
      </trkpt>
      <trkpt lat="45.9367" lon="4.77767">
        <ele>170</ele>
        <time>2018-05-29T08:27:24Z</time>
      </trkpt>
      <trkpt lat="45.93675" lon="4.77775">
        <ele>170</ele>
        <time>2018-05-29T08:27:26Z</time>
      </trkpt>
      <trkpt lat="45.93678" lon="4.77779">
        <ele>170</ele>
        <time>2018-05-29T08:27:27Z</time>
      </trkpt>
      <trkpt lat="45.93683" lon="4.77788">
        <ele>170</ele>
        <time>2018-05-29T08:27:29Z</time>
      </trkpt>
      <trkpt lat="45.93686" lon="4.77792">
        <ele>170</ele>
        <time>2018-05-29T08:27:30Z</time>
      </trkpt>
      <trkpt lat="45.93691" lon="4.77799">
        <ele>169</ele>
        <time>2018-05-29T08:27:32Z</time>
      </trkpt>
      <trkpt lat="45.93694" lon="4.77803">
        <ele>169</ele>
        <time>2018-05-29T08:27:33Z</time>
      </trkpt>
      <trkpt lat="45.937" lon="4.77811">
        <ele>169</ele>
        <time>2018-05-29T08:27:35Z</time>
      </trkpt>
      <trkpt lat="45.93702" lon="4.77814">
        <ele>169</ele>
        <time>2018-05-29T08:27:36Z</time>
      </trkpt>
      <trkpt lat="45.93708" lon="4.77822">
        <ele>169</ele>
        <time>2018-05-29T08:27:38Z</time>
      </trkpt>
      <trkpt lat="45.93711" lon="4.77825">
        <ele>169</ele>
        <time>2018-05-29T08:27:39Z</time>
      </trkpt>
      <trkpt lat="45.93717" lon="4.77833">
        <ele>168</ele>
        <time>2018-05-29T08:27:41Z</time>
      </trkpt>
      <trkpt lat="45.9372" lon="4.77837">
        <ele>167</ele>
        <time>2018-05-29T08:27:42Z</time>
      </trkpt>
      <trkpt lat="45.93726" lon="4.77845">
        <ele>167</ele>
        <time>2018-05-29T08:27:44Z</time>
      </trkpt>
      <trkpt lat="45.93729" lon="4.77848">
        <ele>167</ele>
        <time>2018-05-29T08:27:45Z</time>
      </trkpt>
      <trkpt lat="45.93735" lon="4.77856">
        <ele>167</ele>
        <time>2018-05-29T08:27:47Z</time>
      </trkpt>
      <trkpt lat="45.93738" lon="4.7786">
        <ele>167</ele>
        <time>2018-05-29T08:27:48Z</time>
      </trkpt>
      <trkpt lat="45.93742" lon="4.77865">
        <ele>167</ele>
        <time>2018-05-29T08:27:49Z</time>
      </trkpt>
      <trkpt lat="45.93745" lon="4.77869">
        <ele>167</ele>
        <time>2018-05-29T08:27:50Z</time>
      </trkpt>
      <trkpt lat="45.93752" lon="4.77878">
        <ele>166</ele>
        <time>2018-05-29T08:27:52Z</time>
      </trkpt>
      <trkpt lat="45.93755" lon="4.77881">
        <ele>166</ele>
        <time>2018-05-29T08:27:53Z</time>
      </trkpt>
      <trkpt lat="45.93762" lon="4.77888">
        <ele>166</ele>
        <time>2018-05-29T08:27:55Z</time>
      </trkpt>
      <trkpt lat="45.93765" lon="4.77893">
        <ele>166</ele>
        <time>2018-05-29T08:27:56Z</time>
      </trkpt>
      <trkpt lat="45.93769" lon="4.77898">
        <ele>166</ele>
        <time>2018-05-29T08:27:57Z</time>
      </trkpt>
      <trkpt lat="45.93774" lon="4.77902">
        <ele>166</ele>
        <time>2018-05-29T08:27:58Z</time>
      </trkpt>
      <trkpt lat="45.93778" lon="4.77907">
        <ele>166</ele>
        <time>2018-05-29T08:27:59Z</time>
      </trkpt>
      <trkpt lat="45.93782" lon="4.77911">
        <ele>166</ele>
        <time>2018-05-29T08:28:00Z</time>
      </trkpt>
      <trkpt lat="45.93786" lon="4.77916">
        <ele>166</ele>
        <time>2018-05-29T08:28:01Z</time>
      </trkpt>
      <trkpt lat="45.9379" lon="4.77922">
        <ele>168</ele>
        <time>2018-05-29T08:28:02Z</time>
      </trkpt>
      <trkpt lat="45.93793" lon="4.77926">
        <ele>168</ele>
        <time>2018-05-29T08:28:03Z</time>
      </trkpt>
      <trkpt lat="45.93797" lon="4.77931">
        <ele>168</ele>
        <time>2018-05-29T08:28:04Z</time>
      </trkpt>
      <trkpt lat="45.938" lon="4.77937">
        <ele>169</ele>
        <time>2018-05-29T08:28:05Z</time>
      </trkpt>
      <trkpt lat="45.93804" lon="4.77941">
        <ele>169</ele>
        <time>2018-05-29T08:28:06Z</time>
      </trkpt>
      <trkpt lat="45.93808" lon="4.77947">
        <ele>169</ele>
        <time>2018-05-29T08:28:07Z</time>
      </trkpt>
      <trkpt lat="45.93812" lon="4.77952">
        <ele>170</ele>
        <time>2018-05-29T08:28:08Z</time>
      </trkpt>
      <trkpt lat="45.93817" lon="4.77957">
        <ele>170</ele>
        <time>2018-05-29T08:28:09Z</time>
      </trkpt>
      <trkpt lat="45.93821" lon="4.77962">
        <ele>171</ele>
        <time>2018-05-29T08:28:10Z</time>
      </trkpt>
      <trkpt lat="45.93825" lon="4.77968">
        <ele>171</ele>
        <time>2018-05-29T08:28:11Z</time>
      </trkpt>
      <trkpt lat="45.9383" lon="4.77973">
        <ele>172</ele>
        <time>2018-05-29T08:28:12Z</time>
      </trkpt>
      <trkpt lat="45.93833" lon="4.77981">
        <ele>178</ele>
        <time>2018-05-29T08:28:13Z</time>
      </trkpt>
      <trkpt lat="45.93837" lon="4.77989">
        <ele>179</ele>
        <time>2018-05-29T08:28:14Z</time>
      </trkpt>
      <trkpt lat="45.9384" lon="4.77994">
        <ele>179</ele>
        <time>2018-05-29T08:28:15Z</time>
      </trkpt>
      <trkpt lat="45.93842" lon="4.78005">
        <ele>181</ele>
        <time>2018-05-29T08:28:16Z</time>
      </trkpt>
      <trkpt lat="45.93843" lon="4.78014">
        <ele>181</ele>
        <time>2018-05-29T08:28:17Z</time>
      </trkpt>
      <trkpt lat="45.93844" lon="4.78023">
        <ele>182</ele>
        <time>2018-05-29T08:28:18Z</time>
      </trkpt>
      <trkpt lat="45.93845" lon="4.78031">
        <ele>182</ele>
        <time>2018-05-29T08:28:19Z</time>
      </trkpt>
      <trkpt lat="45.93847" lon="4.78039">
        <ele>182</ele>
        <time>2018-05-29T08:28:20Z</time>
      </trkpt>
      <trkpt lat="45.93847" lon="4.78046">
        <ele>183</ele>
        <time>2018-05-29T08:28:21Z</time>
      </trkpt>
      <trkpt lat="45.93846" lon="4.78053">
        <ele>182</ele>
        <time>2018-05-29T08:28:22Z</time>
      </trkpt>
      <trkpt lat="45.93845" lon="4.78059">
        <ele>182</ele>
        <time>2018-05-29T08:28:23Z</time>
      </trkpt>
      <trkpt lat="45.93844" lon="4.78066">
        <ele>182</ele>
        <time>2018-05-29T08:28:24Z</time>
      </trkpt>
      <trkpt lat="45.93842" lon="4.78074">
        <ele>182</ele>
        <time>2018-05-29T08:28:25Z</time>
      </trkpt>
      <trkpt lat="45.93842" lon="4.78081">
        <ele>181</ele>
        <time>2018-05-29T08:28:26Z</time>
      </trkpt>
      <trkpt lat="45.9384" lon="4.78088">
        <ele>182</ele>
        <time>2018-05-29T08:28:27Z</time>
      </trkpt>
      <trkpt lat="45.93838" lon="4.78095">
        <ele>182</ele>
        <time>2018-05-29T08:28:28Z</time>
      </trkpt>
      <trkpt lat="45.93837" lon="4.78102">
        <ele>183</ele>
        <time>2018-05-29T08:28:29Z</time>
      </trkpt>
      <trkpt lat="45.93836" lon="4.78108">
        <ele>184</ele>
        <time>2018-05-29T08:28:30Z</time>
      </trkpt>
      <trkpt lat="45.93832" lon="4.78119">
        <ele>180</ele>
        <time>2018-05-29T08:28:32Z</time>
      </trkpt>
      <trkpt lat="45.93831" lon="4.78125">
        <ele>180</ele>
        <time>2018-05-29T08:28:33Z</time>
      </trkpt>
      <trkpt lat="45.93829" lon="4.78131">
        <ele>180</ele>
        <time>2018-05-29T08:28:34Z</time>
      </trkpt>
      <trkpt lat="45.93826" lon="4.78138">
        <ele>180</ele>
        <time>2018-05-29T08:28:35Z</time>
      </trkpt>
      <trkpt lat="45.93825" lon="4.78144">
        <ele>180</ele>
        <time>2018-05-29T08:28:36Z</time>
      </trkpt>
      <trkpt lat="45.93822" lon="4.78151">
        <ele>180</ele>
        <time>2018-05-29T08:28:37Z</time>
      </trkpt>
      <trkpt lat="45.9382" lon="4.78158">
        <ele>180</ele>
        <time>2018-05-29T08:28:38Z</time>
      </trkpt>
      <trkpt lat="45.93819" lon="4.78166">
        <ele>181</ele>
        <time>2018-05-29T08:28:39Z</time>
      </trkpt>
      <trkpt lat="45.93817" lon="4.78176">
        <ele>182</ele>
        <time>2018-05-29T08:28:40Z</time>
      </trkpt>
      <trkpt lat="45.93816" lon="4.78182">
        <ele>182</ele>
        <time>2018-05-29T08:28:41Z</time>
      </trkpt>
      <trkpt lat="45.93813" lon="4.7819">
        <ele>182</ele>
        <time>2018-05-29T08:28:42Z</time>
      </trkpt>
      <trkpt lat="45.9381" lon="4.78197">
        <ele>182</ele>
        <time>2018-05-29T08:28:43Z</time>
      </trkpt>
      <trkpt lat="45.93809" lon="4.78203">
        <ele>182</ele>
        <time>2018-05-29T08:28:44Z</time>
      </trkpt>
      <trkpt lat="45.93807" lon="4.78211">
        <ele>182</ele>
        <time>2018-05-29T08:28:45Z</time>
      </trkpt>
      <trkpt lat="45.93802" lon="4.7822">
        <ele>182</ele>
        <time>2018-05-29T08:28:47Z</time>
      </trkpt>
      <trkpt lat="45.93799" lon="4.78227">
        <ele>182</ele>
        <time>2018-05-29T08:28:48Z</time>
      </trkpt>
      <trkpt lat="45.93796" lon="4.78232">
        <ele>182</ele>
        <time>2018-05-29T08:28:49Z</time>
      </trkpt>
      <trkpt lat="45.93793" lon="4.78242">
        <ele>182</ele>
        <time>2018-05-29T08:28:50Z</time>
      </trkpt>
      <trkpt lat="45.93792" lon="4.78247">
        <ele>182</ele>
        <time>2018-05-29T08:28:51Z</time>
      </trkpt>
      <trkpt lat="45.93791" lon="4.78255">
        <ele>183</ele>
        <time>2018-05-29T08:28:52Z</time>
      </trkpt>
      <trkpt lat="45.9379" lon="4.78263">
        <ele>183</ele>
        <time>2018-05-29T08:28:53Z</time>
      </trkpt>
      <trkpt lat="45.93789" lon="4.78271">
        <ele>183</ele>
        <time>2018-05-29T08:28:54Z</time>
      </trkpt>
      <trkpt lat="45.93788" lon="4.78277">
        <ele>183</ele>
        <time>2018-05-29T08:28:55Z</time>
      </trkpt>
      <trkpt lat="45.93785" lon="4.78284">
        <ele>183</ele>
        <time>2018-05-29T08:28:56Z</time>
      </trkpt>
      <trkpt lat="45.93783" lon="4.78291">
        <ele>183</ele>
        <time>2018-05-29T08:28:57Z</time>
      </trkpt>
      <trkpt lat="45.93781" lon="4.78298">
        <ele>183</ele>
        <time>2018-05-29T08:28:58Z</time>
      </trkpt>
      <trkpt lat="45.9378" lon="4.78304">
        <ele>183</ele>
        <time>2018-05-29T08:28:59Z</time>
      </trkpt>
      <trkpt lat="45.93777" lon="4.78311">
        <ele>183</ele>
        <time>2018-05-29T08:29:00Z</time>
      </trkpt>
      <trkpt lat="45.93775" lon="4.78318">
        <ele>183</ele>
        <time>2018-05-29T08:29:01Z</time>
      </trkpt>
      <trkpt lat="45.93774" lon="4.78324">
        <ele>183</ele>
        <time>2018-05-29T08:29:02Z</time>
      </trkpt>
      <trkpt lat="45.93772" lon="4.7833">
        <ele>183</ele>
        <time>2018-05-29T08:29:03Z</time>
      </trkpt>
      <trkpt lat="45.9377" lon="4.78339">
        <ele>183</ele>
        <time>2018-05-29T08:29:04Z</time>
      </trkpt>
      <trkpt lat="45.93768" lon="4.78346">
        <ele>183</ele>
        <time>2018-05-29T08:29:05Z</time>
      </trkpt>
      <trkpt lat="45.93766" lon="4.78354">
        <ele>183</ele>
        <time>2018-05-29T08:29:06Z</time>
      </trkpt>
      <trkpt lat="45.93764" lon="4.78362">
        <ele>183</ele>
        <time>2018-05-29T08:29:07Z</time>
      </trkpt>
      <trkpt lat="45.93762" lon="4.78369">
        <ele>183</ele>
        <time>2018-05-29T08:29:08Z</time>
      </trkpt>
      <trkpt lat="45.9376" lon="4.78376">
        <ele>183</ele>
        <time>2018-05-29T08:29:09Z</time>
      </trkpt>
      <trkpt lat="45.93759" lon="4.78383">
        <ele>183</ele>
        <time>2018-05-29T08:29:10Z</time>
      </trkpt>
      <trkpt lat="45.93758" lon="4.7839">
        <ele>183</ele>
        <time>2018-05-29T08:29:11Z</time>
      </trkpt>
      <trkpt lat="45.93755" lon="4.78397">
        <ele>183</ele>
        <time>2018-05-29T08:29:12Z</time>
      </trkpt>
      <trkpt lat="45.93754" lon="4.78405">
        <ele>182</ele>
        <time>2018-05-29T08:29:13Z</time>
      </trkpt>
      <trkpt lat="45.93751" lon="4.78412">
        <ele>182</ele>
        <time>2018-05-29T08:29:14Z</time>
      </trkpt>
      <trkpt lat="45.93749" lon="4.7842">
        <ele>181</ele>
        <time>2018-05-29T08:29:15Z</time>
      </trkpt>
      <trkpt lat="45.93747" lon="4.78428">
        <ele>180</ele>
        <time>2018-05-29T08:29:16Z</time>
      </trkpt>
      <trkpt lat="45.93745" lon="4.78437">
        <ele>180</ele>
        <time>2018-05-29T08:29:17Z</time>
      </trkpt>
      <trkpt lat="45.93743" lon="4.78445">
        <ele>180</ele>
        <time>2018-05-29T08:29:18Z</time>
      </trkpt>
      <trkpt lat="45.93741" lon="4.78453">
        <ele>180</ele>
        <time>2018-05-29T08:29:19Z</time>
      </trkpt>
      <trkpt lat="45.93738" lon="4.78462">
        <ele>180</ele>
        <time>2018-05-29T08:29:20Z</time>
      </trkpt>
      <trkpt lat="45.93735" lon="4.7847">
        <ele>180</ele>
        <time>2018-05-29T08:29:21Z</time>
      </trkpt>
      <trkpt lat="45.93733" lon="4.78478">
        <ele>180</ele>
        <time>2018-05-29T08:29:22Z</time>
      </trkpt>
      <trkpt lat="45.93731" lon="4.78487">
        <ele>180</ele>
        <time>2018-05-29T08:29:23Z</time>
      </trkpt>
      <trkpt lat="45.93729" lon="4.78495">
        <ele>180</ele>
        <time>2018-05-29T08:29:24Z</time>
      </trkpt>
      <trkpt lat="45.93726" lon="4.78503">
        <ele>179</ele>
        <time>2018-05-29T08:29:25Z</time>
      </trkpt>
      <trkpt lat="45.93724" lon="4.78512">
        <ele>179</ele>
        <time>2018-05-29T08:29:26Z</time>
      </trkpt>
      <trkpt lat="45.93722" lon="4.7852">
        <ele>178</ele>
        <time>2018-05-29T08:29:27Z</time>
      </trkpt>
      <trkpt lat="45.9372" lon="4.78529">
        <ele>178</ele>
        <time>2018-05-29T08:29:28Z</time>
      </trkpt>
      <trkpt lat="45.93717" lon="4.78537">
        <ele>178</ele>
        <time>2018-05-29T08:29:29Z</time>
      </trkpt>
      <trkpt lat="45.93716" lon="4.78548">
        <ele>178</ele>
        <time>2018-05-29T08:29:30Z</time>
      </trkpt>
      <trkpt lat="45.93713" lon="4.78557">
        <ele>178</ele>
        <time>2018-05-29T08:29:31Z</time>
      </trkpt>
      <trkpt lat="45.93712" lon="4.78567">
        <ele>178</ele>
        <time>2018-05-29T08:29:32Z</time>
      </trkpt>
      <trkpt lat="45.93711" lon="4.78575">
        <ele>177</ele>
        <time>2018-05-29T08:29:33Z</time>
      </trkpt>
      <trkpt lat="45.93709" lon="4.78585">
        <ele>176</ele>
        <time>2018-05-29T08:29:34Z</time>
      </trkpt>
      <trkpt lat="45.93707" lon="4.78592">
        <ele>176</ele>
        <time>2018-05-29T08:29:35Z</time>
      </trkpt>
      <trkpt lat="45.93702" lon="4.78598">
        <ele>176</ele>
        <time>2018-05-29T08:29:36Z</time>
      </trkpt>
      <trkpt lat="45.937" lon="4.78604">
        <ele>176</ele>
        <time>2018-05-29T08:29:37Z</time>
      </trkpt>
      <trkpt lat="45.93699" lon="4.7861">
        <ele>176</ele>
        <time>2018-05-29T08:29:38Z</time>
      </trkpt>
      <trkpt lat="45.937" lon="4.78618">
        <ele>176</ele>
        <time>2018-05-29T08:29:39Z</time>
      </trkpt>
      <trkpt lat="45.93702" lon="4.78623">
        <ele>176</ele>
        <time>2018-05-29T08:29:40Z</time>
      </trkpt>
      <trkpt lat="45.93707" lon="4.78625">
        <ele>176</ele>
        <time>2018-05-29T08:29:41Z</time>
      </trkpt>
      <trkpt lat="45.93711" lon="4.78626">
        <ele>176</ele>
        <time>2018-05-29T08:29:42Z</time>
      </trkpt>
      <trkpt lat="45.9372" lon="4.78626">
        <ele>177</ele>
        <time>2018-05-29T08:29:45Z</time>
      </trkpt>
      <trkpt lat="45.93722" lon="4.78626">
        <ele>177</ele>
        <time>2018-05-29T08:29:46Z</time>
      </trkpt>
      <trkpt lat="45.93731" lon="4.78624">
        <ele>177</ele>
        <time>2018-05-29T08:29:48Z</time>
      </trkpt>
      <trkpt lat="45.93733" lon="4.78624">
        <ele>177</ele>
        <time>2018-05-29T08:29:49Z</time>
      </trkpt>
      <trkpt lat="45.9374" lon="4.78623">
        <ele>177</ele>
        <time>2018-05-29T08:29:52Z</time>
      </trkpt>
      <trkpt lat="45.93743" lon="4.78623">
        <ele>177</ele>
        <time>2018-05-29T08:29:53Z</time>
      </trkpt>
      <trkpt lat="45.93749" lon="4.78621">
        <ele>177</ele>
        <time>2018-05-29T08:29:55Z</time>
      </trkpt>
      <trkpt lat="45.93752" lon="4.7862">
        <ele>181</ele>
        <time>2018-05-29T08:29:56Z</time>
      </trkpt>
      <trkpt lat="45.93759" lon="4.78619">
        <ele>181</ele>
        <time>2018-05-29T08:29:58Z</time>
      </trkpt>
      <trkpt lat="45.93762" lon="4.78618">
        <ele>181</ele>
        <time>2018-05-29T08:29:59Z</time>
      </trkpt>
      <trkpt lat="45.93768" lon="4.78617">
        <ele>181</ele>
        <time>2018-05-29T08:30:01Z</time>
      </trkpt>
      <trkpt lat="45.93771" lon="4.78616">
        <ele>181</ele>
        <time>2018-05-29T08:30:02Z</time>
      </trkpt>
      <trkpt lat="45.93777" lon="4.78615">
        <ele>181</ele>
        <time>2018-05-29T08:30:04Z</time>
      </trkpt>
      <trkpt lat="45.9378" lon="4.78614">
        <ele>181</ele>
        <time>2018-05-29T08:30:05Z</time>
      </trkpt>
      <trkpt lat="45.93787" lon="4.78612">
        <ele>182</ele>
        <time>2018-05-29T08:30:07Z</time>
      </trkpt>
      <trkpt lat="45.9379" lon="4.78611">
        <ele>182</ele>
        <time>2018-05-29T08:30:08Z</time>
      </trkpt>
      <trkpt lat="45.938" lon="4.78608">
        <ele>182</ele>
        <time>2018-05-29T08:30:09Z</time>
      </trkpt>
      <trkpt lat="45.93807" lon="4.78606">
        <ele>183</ele>
        <time>2018-05-29T08:30:12Z</time>
      </trkpt>
      <trkpt lat="45.93809" lon="4.78606">
        <ele>183</ele>
        <time>2018-05-29T08:30:13Z</time>
      </trkpt>
      <trkpt lat="45.93817" lon="4.78603">
        <ele>184</ele>
        <time>2018-05-29T08:30:16Z</time>
      </trkpt>
      <trkpt lat="45.9382" lon="4.78602">
        <ele>184</ele>
        <time>2018-05-29T08:30:17Z</time>
      </trkpt>
      <trkpt lat="45.93829" lon="4.78599">
        <ele>184</ele>
        <time>2018-05-29T08:30:20Z</time>
      </trkpt>
      <trkpt lat="45.93831" lon="4.78598">
        <ele>185</ele>
        <time>2018-05-29T08:30:21Z</time>
      </trkpt>
      <trkpt lat="45.93839" lon="4.78597">
        <ele>187</ele>
        <time>2018-05-29T08:30:24Z</time>
      </trkpt>
      <trkpt lat="45.93841" lon="4.78596">
        <ele>187</ele>
        <time>2018-05-29T08:30:25Z</time>
      </trkpt>
      <trkpt lat="45.93848" lon="4.78595">
        <ele>188</ele>
        <time>2018-05-29T08:30:28Z</time>
      </trkpt>
      <trkpt lat="45.93851" lon="4.78595">
        <ele>188</ele>
        <time>2018-05-29T08:30:29Z</time>
      </trkpt>
      <trkpt lat="45.93857" lon="4.78594">
        <ele>188</ele>
        <time>2018-05-29T08:30:32Z</time>
      </trkpt>
      <trkpt lat="45.9386" lon="4.78594">
        <ele>188</ele>
        <time>2018-05-29T08:30:33Z</time>
      </trkpt>
      <trkpt lat="45.93867" lon="4.78592">
        <ele>188</ele>
        <time>2018-05-29T08:30:36Z</time>
      </trkpt>
      <trkpt lat="45.93869" lon="4.78592">
        <ele>189</ele>
        <time>2018-05-29T08:30:37Z</time>
      </trkpt>
      <trkpt lat="45.93876" lon="4.7859">
        <ele>189</ele>
        <time>2018-05-29T08:30:40Z</time>
      </trkpt>
      <trkpt lat="45.93879" lon="4.78589">
        <ele>189</ele>
        <time>2018-05-29T08:30:41Z</time>
      </trkpt>
      <trkpt lat="45.93886" lon="4.78587">
        <ele>190</ele>
        <time>2018-05-29T08:30:44Z</time>
      </trkpt>
      <trkpt lat="45.93888" lon="4.78586">
        <ele>190</ele>
        <time>2018-05-29T08:30:45Z</time>
      </trkpt>
      <trkpt lat="45.93896" lon="4.78585">
        <ele>190</ele>
        <time>2018-05-29T08:30:49Z</time>
      </trkpt>
      <trkpt lat="45.93899" lon="4.78585">
        <ele>191</ele>
        <time>2018-05-29T08:30:50Z</time>
      </trkpt>
      <trkpt lat="45.93907" lon="4.78583">
        <ele>192</ele>
        <time>2018-05-29T08:30:54Z</time>
      </trkpt>
      <trkpt lat="45.93909" lon="4.78583">
        <ele>193</ele>
        <time>2018-05-29T08:30:55Z</time>
      </trkpt>
      <trkpt lat="45.93915" lon="4.78579">
        <ele>193</ele>
        <time>2018-05-29T08:30:58Z</time>
      </trkpt>
      <trkpt lat="45.93917" lon="4.78577">
        <ele>194</ele>
        <time>2018-05-29T08:30:59Z</time>
      </trkpt>
      <trkpt lat="45.93923" lon="4.78571">
        <ele>195</ele>
        <time>2018-05-29T08:31:02Z</time>
      </trkpt>
      <trkpt lat="45.93925" lon="4.7857">
        <ele>195</ele>
        <time>2018-05-29T08:31:03Z</time>
      </trkpt>
      <trkpt lat="45.93932" lon="4.78576">
        <ele>196</ele>
        <time>2018-05-29T08:31:09Z</time>
      </trkpt>
      <trkpt lat="45.93932" lon="4.78579">
        <ele>196</ele>
        <time>2018-05-29T08:31:10Z</time>
      </trkpt>
      <trkpt lat="45.93933" lon="4.78582">
        <ele>196</ele>
        <time>2018-05-29T08:31:11Z</time>
      </trkpt>
      <trkpt lat="45.93934" lon="4.78595">
        <ele>195</ele>
        <time>2018-05-29T08:31:12Z</time>
      </trkpt>
      <trkpt lat="45.93935" lon="4.78606">
        <ele>195</ele>
        <time>2018-05-29T08:31:14Z</time>
      </trkpt>
      <trkpt lat="45.93935" lon="4.78611">
        <ele>196</ele>
        <time>2018-05-29T08:31:15Z</time>
      </trkpt>
      <trkpt lat="45.93935" lon="4.78618">
        <ele>196</ele>
        <time>2018-05-29T08:31:17Z</time>
      </trkpt>
      <trkpt lat="45.93936" lon="4.78627">
        <ele>195</ele>
        <time>2018-05-29T08:31:18Z</time>
      </trkpt>
      <trkpt lat="45.93936" lon="4.78639">
        <ele>195</ele>
        <time>2018-05-29T08:31:20Z</time>
      </trkpt>
      <trkpt lat="45.93936" lon="4.78645">
        <ele>195</ele>
        <time>2018-05-29T08:31:21Z</time>
      </trkpt>
      <trkpt lat="45.93936" lon="4.78657">
        <ele>194</ele>
        <time>2018-05-29T08:31:23Z</time>
      </trkpt>
      <trkpt lat="45.93936" lon="4.78662">
        <ele>194</ele>
        <time>2018-05-29T08:31:24Z</time>
      </trkpt>
      <trkpt lat="45.93936" lon="4.78673">
        <ele>193</ele>
        <time>2018-05-29T08:31:26Z</time>
      </trkpt>
      <trkpt lat="45.93936" lon="4.78679">
        <ele>193</ele>
        <time>2018-05-29T08:31:27Z</time>
      </trkpt>
      <trkpt lat="45.93936" lon="4.78691">
        <ele>194</ele>
        <time>2018-05-29T08:31:29Z</time>
      </trkpt>
      <trkpt lat="45.93936" lon="4.78697">
        <ele>194</ele>
        <time>2018-05-29T08:31:30Z</time>
      </trkpt>
      <trkpt lat="45.93935" lon="4.78709">
        <ele>194</ele>
        <time>2018-05-29T08:31:32Z</time>
      </trkpt>
      <trkpt lat="45.93935" lon="4.78715">
        <ele>194</ele>
        <time>2018-05-29T08:31:33Z</time>
      </trkpt>
      <trkpt lat="45.93936" lon="4.78728">
        <ele>194</ele>
        <time>2018-05-29T08:31:35Z</time>
      </trkpt>
      <trkpt lat="45.93936" lon="4.78735">
        <ele>193</ele>
        <time>2018-05-29T08:31:36Z</time>
      </trkpt>
      <trkpt lat="45.93937" lon="4.78747">
        <ele>193</ele>
        <time>2018-05-29T08:31:38Z</time>
      </trkpt>
      <trkpt lat="45.93935" lon="4.78754">
        <ele>193</ele>
        <time>2018-05-29T08:31:39Z</time>
      </trkpt>
      <trkpt lat="45.93935" lon="4.78759">
        <ele>193</ele>
        <time>2018-05-29T08:31:40Z</time>
      </trkpt>
      <trkpt lat="45.93936" lon="4.78767">
        <ele>193</ele>
        <time>2018-05-29T08:31:41Z</time>
      </trkpt>
      <trkpt lat="45.93935" lon="4.78774">
        <ele>194</ele>
        <time>2018-05-29T08:31:42Z</time>
      </trkpt>
      <trkpt lat="45.93935" lon="4.78781">
        <ele>194</ele>
        <time>2018-05-29T08:31:43Z</time>
      </trkpt>
      <trkpt lat="45.93935" lon="4.78792">
        <ele>194</ele>
        <time>2018-05-29T08:31:45Z</time>
      </trkpt>
      <trkpt lat="45.93935" lon="4.78797">
        <ele>194</ele>
        <time>2018-05-29T08:31:46Z</time>
      </trkpt>
      <trkpt lat="45.93935" lon="4.7881">
        <ele>194</ele>
        <time>2018-05-29T08:31:48Z</time>
      </trkpt>
      <trkpt lat="45.93936" lon="4.78816">
        <ele>194</ele>
        <time>2018-05-29T08:31:49Z</time>
      </trkpt>
      <trkpt lat="45.93936" lon="4.78827">
        <ele>193</ele>
        <time>2018-05-29T08:31:51Z</time>
      </trkpt>
      <trkpt lat="45.93936" lon="4.78832">
        <ele>193</ele>
        <time>2018-05-29T08:31:52Z</time>
      </trkpt>
      <trkpt lat="45.93936" lon="4.78841">
        <ele>193</ele>
        <time>2018-05-29T08:31:54Z</time>
      </trkpt>
      <trkpt lat="45.93936" lon="4.78849">
        <ele>193</ele>
        <time>2018-05-29T08:31:55Z</time>
      </trkpt>
      <trkpt lat="45.93936" lon="4.78861">
        <ele>193</ele>
        <time>2018-05-29T08:31:57Z</time>
      </trkpt>
      <trkpt lat="45.93936" lon="4.78867">
        <ele>194</ele>
        <time>2018-05-29T08:31:58Z</time>
      </trkpt>
      <trkpt lat="45.93937" lon="4.7888">
        <ele>193</ele>
        <time>2018-05-29T08:32:00Z</time>
      </trkpt>
      <trkpt lat="45.93937" lon="4.78886">
        <ele>193</ele>
        <time>2018-05-29T08:32:01Z</time>
      </trkpt>
      <trkpt lat="45.93937" lon="4.78893">
        <ele>193</ele>
        <time>2018-05-29T08:32:02Z</time>
      </trkpt>
      <trkpt lat="45.93937" lon="4.789">
        <ele>193</ele>
        <time>2018-05-29T08:32:03Z</time>
      </trkpt>
      <trkpt lat="45.93939" lon="4.78912">
        <ele>193</ele>
        <time>2018-05-29T08:32:05Z</time>
      </trkpt>
      <trkpt lat="45.93939" lon="4.78918">
        <ele>193</ele>
        <time>2018-05-29T08:32:06Z</time>
      </trkpt>
      <trkpt lat="45.9394" lon="4.7893">
        <ele>193</ele>
        <time>2018-05-29T08:32:08Z</time>
      </trkpt>
      <trkpt lat="45.93941" lon="4.78936">
        <ele>193</ele>
        <time>2018-05-29T08:32:09Z</time>
      </trkpt>
      <trkpt lat="45.93942" lon="4.78947">
        <ele>194</ele>
        <time>2018-05-29T08:32:11Z</time>
      </trkpt>
      <trkpt lat="45.93942" lon="4.78952">
        <ele>194</ele>
        <time>2018-05-29T08:32:12Z</time>
      </trkpt>
      <trkpt lat="45.93942" lon="4.78964">
        <ele>194</ele>
        <time>2018-05-29T08:32:14Z</time>
      </trkpt>
      <trkpt lat="45.93942" lon="4.7897">
        <ele>194</ele>
        <time>2018-05-29T08:32:15Z</time>
      </trkpt>
      <trkpt lat="45.93942" lon="4.78983">
        <ele>194</ele>
        <time>2018-05-29T08:32:17Z</time>
      </trkpt>
      <trkpt lat="45.93942" lon="4.78989">
        <ele>194</ele>
        <time>2018-05-29T08:32:18Z</time>
      </trkpt>
      <trkpt lat="45.93944" lon="4.79002">
        <ele>194</ele>
        <time>2018-05-29T08:32:20Z</time>
      </trkpt>
      <trkpt lat="45.93944" lon="4.79008">
        <ele>195</ele>
        <time>2018-05-29T08:32:21Z</time>
      </trkpt>
      <trkpt lat="45.93945" lon="4.7902">
        <ele>195</ele>
        <time>2018-05-29T08:32:23Z</time>
      </trkpt>
      <trkpt lat="45.93945" lon="4.79026">
        <ele>195</ele>
        <time>2018-05-29T08:32:24Z</time>
      </trkpt>
      <trkpt lat="45.93945" lon="4.79034">
        <ele>195</ele>
        <time>2018-05-29T08:32:25Z</time>
      </trkpt>
      <trkpt lat="45.93944" lon="4.79039">
        <ele>195</ele>
        <time>2018-05-29T08:32:26Z</time>
      </trkpt>
      <trkpt lat="45.93945" lon="4.79052">
        <ele>195</ele>
        <time>2018-05-29T08:32:28Z</time>
      </trkpt>
      <trkpt lat="45.93945" lon="4.79059">
        <ele>195</ele>
        <time>2018-05-29T08:32:29Z</time>
      </trkpt>
      <trkpt lat="45.93946" lon="4.7907">
        <ele>195</ele>
        <time>2018-05-29T08:32:31Z</time>
      </trkpt>
      <trkpt lat="45.93947" lon="4.79076">
        <ele>196</ele>
        <time>2018-05-29T08:32:32Z</time>
      </trkpt>
      <trkpt lat="45.93948" lon="4.79082">
        <ele>196</ele>
        <time>2018-05-29T08:32:33Z</time>
      </trkpt>
      <trkpt lat="45.93946" lon="4.79089">
        <ele>196</ele>
        <time>2018-05-29T08:32:34Z</time>
      </trkpt>
      <trkpt lat="45.93947" lon="4.791">
        <ele>196</ele>
        <time>2018-05-29T08:32:36Z</time>
      </trkpt>
      <trkpt lat="45.93947" lon="4.79106">
        <ele>196</ele>
        <time>2018-05-29T08:32:37Z</time>
      </trkpt>
      <trkpt lat="45.93948" lon="4.79119">
        <ele>197</ele>
        <time>2018-05-29T08:32:39Z</time>
      </trkpt>
      <trkpt lat="45.93949" lon="4.79125">
        <ele>197</ele>
        <time>2018-05-29T08:32:40Z</time>
      </trkpt>
      <trkpt lat="45.93949" lon="4.79137">
        <ele>197</ele>
        <time>2018-05-29T08:32:42Z</time>
      </trkpt>
      <trkpt lat="45.93949" lon="4.79143">
        <ele>197</ele>
        <time>2018-05-29T08:32:43Z</time>
      </trkpt>
      <trkpt lat="45.93949" lon="4.79156">
        <ele>196</ele>
        <time>2018-05-29T08:32:45Z</time>
      </trkpt>
      <trkpt lat="45.93949" lon="4.79162">
        <ele>196</ele>
        <time>2018-05-29T08:32:46Z</time>
      </trkpt>
      <trkpt lat="45.93949" lon="4.79174">
        <ele>197</ele>
        <time>2018-05-29T08:32:48Z</time>
      </trkpt>
      <trkpt lat="45.93949" lon="4.7918">
        <ele>197</ele>
        <time>2018-05-29T08:32:49Z</time>
      </trkpt>
      <trkpt lat="45.93949" lon="4.79192">
        <ele>197</ele>
        <time>2018-05-29T08:32:51Z</time>
      </trkpt>
      <trkpt lat="45.93949" lon="4.79198">
        <ele>197</ele>
        <time>2018-05-29T08:32:52Z</time>
      </trkpt>
      <trkpt lat="45.93949" lon="4.7921">
        <ele>197</ele>
        <time>2018-05-29T08:32:54Z</time>
      </trkpt>
      <trkpt lat="45.93948" lon="4.79215">
        <ele>197</ele>
        <time>2018-05-29T08:32:55Z</time>
      </trkpt>
      <trkpt lat="45.93949" lon="4.79227">
        <ele>197</ele>
        <time>2018-05-29T08:32:57Z</time>
      </trkpt>
      <trkpt lat="45.93949" lon="4.79233">
        <ele>197</ele>
        <time>2018-05-29T08:32:58Z</time>
      </trkpt>
      <trkpt lat="45.9395" lon="4.79245">
        <ele>197</ele>
        <time>2018-05-29T08:33:00Z</time>
      </trkpt>
      <trkpt lat="45.9395" lon="4.7925">
        <ele>197</ele>
        <time>2018-05-29T08:33:01Z</time>
      </trkpt>
      <trkpt lat="45.93951" lon="4.79263">
        <ele>198</ele>
        <time>2018-05-29T08:33:03Z</time>
      </trkpt>
      <trkpt lat="45.93951" lon="4.79269">
        <ele>198</ele>
        <time>2018-05-29T08:33:04Z</time>
      </trkpt>
      <trkpt lat="45.93951" lon="4.7928">
        <ele>198</ele>
        <time>2018-05-29T08:33:06Z</time>
      </trkpt>
      <trkpt lat="45.93951" lon="4.79286">
        <ele>198</ele>
        <time>2018-05-29T08:33:07Z</time>
      </trkpt>
      <trkpt lat="45.93951" lon="4.79297">
        <ele>198</ele>
        <time>2018-05-29T08:33:09Z</time>
      </trkpt>
      <trkpt lat="45.93951" lon="4.79302">
        <ele>198</ele>
        <time>2018-05-29T08:33:10Z</time>
      </trkpt>
      <trkpt lat="45.93952" lon="4.7931">
        <ele>198</ele>
        <time>2018-05-29T08:33:12Z</time>
      </trkpt>
      <trkpt lat="45.93953" lon="4.79318">
        <ele>199</ele>
        <time>2018-05-29T08:33:13Z</time>
      </trkpt>
      <trkpt lat="45.93954" lon="4.79328">
        <ele>199</ele>
        <time>2018-05-29T08:33:15Z</time>
      </trkpt>
      <trkpt lat="45.93954" lon="4.79333">
        <ele>199</ele>
        <time>2018-05-29T08:33:16Z</time>
      </trkpt>
      <trkpt lat="45.93954" lon="4.79346">
        <ele>200</ele>
        <time>2018-05-29T08:33:18Z</time>
      </trkpt>
      <trkpt lat="45.93953" lon="4.79354">
        <ele>200</ele>
        <time>2018-05-29T08:33:19Z</time>
      </trkpt>
      <trkpt lat="45.93954" lon="4.79365">
        <ele>201</ele>
        <time>2018-05-29T08:33:21Z</time>
      </trkpt>
      <trkpt lat="45.93954" lon="4.79371">
        <ele>201</ele>
        <time>2018-05-29T08:33:22Z</time>
      </trkpt>
      <trkpt lat="45.93953" lon="4.79382">
        <ele>201</ele>
        <time>2018-05-29T08:33:24Z</time>
      </trkpt>
      <trkpt lat="45.93952" lon="4.79385">
        <ele>201</ele>
        <time>2018-05-29T08:33:25Z</time>
      </trkpt>
      <trkpt lat="45.93952" lon="4.79393">
        <ele>201</ele>
        <time>2018-05-29T08:33:26Z</time>
      </trkpt>
      <trkpt lat="45.93953" lon="4.79399">
        <ele>201</ele>
        <time>2018-05-29T08:33:27Z</time>
      </trkpt>
      <trkpt lat="45.93953" lon="4.79409">
        <ele>201</ele>
        <time>2018-05-29T08:33:30Z</time>
      </trkpt>
      <trkpt lat="45.93953" lon="4.79413">
        <ele>201</ele>
        <time>2018-05-29T08:33:31Z</time>
      </trkpt>
      <trkpt lat="45.93953" lon="4.79418">
        <ele>202</ele>
        <time>2018-05-29T08:33:32Z</time>
      </trkpt>
      <trkpt lat="45.93952" lon="4.79431">
        <ele>202</ele>
        <time>2018-05-29T08:33:33Z</time>
      </trkpt>
      <trkpt lat="45.93952" lon="4.79441">
        <ele>202</ele>
        <time>2018-05-29T08:33:35Z</time>
      </trkpt>
      <trkpt lat="45.93951" lon="4.79447">
        <ele>202</ele>
        <time>2018-05-29T08:33:36Z</time>
      </trkpt>
      <trkpt lat="45.93951" lon="4.79452">
        <ele>202</ele>
        <time>2018-05-29T08:33:38Z</time>
      </trkpt>
      <trkpt lat="45.9395" lon="4.79462">
        <ele>202</ele>
        <time>2018-05-29T08:33:39Z</time>
      </trkpt>
      <trkpt lat="45.9395" lon="4.79472">
        <ele>202</ele>
        <time>2018-05-29T08:33:41Z</time>
      </trkpt>
      <trkpt lat="45.9395" lon="4.79477">
        <ele>202</ele>
        <time>2018-05-29T08:33:42Z</time>
      </trkpt>
      <trkpt lat="45.93951" lon="4.79486">
        <ele>202</ele>
        <time>2018-05-29T08:33:44Z</time>
      </trkpt>
      <trkpt lat="45.93951" lon="4.79494">
        <ele>202</ele>
        <time>2018-05-29T08:33:45Z</time>
      </trkpt>
      <trkpt lat="45.93952" lon="4.79504">
        <ele>204</ele>
        <time>2018-05-29T08:33:48Z</time>
      </trkpt>
      <trkpt lat="45.93952" lon="4.79508">
        <ele>204</ele>
        <time>2018-05-29T08:33:49Z</time>
      </trkpt>
      <trkpt lat="45.93953" lon="4.79517">
        <ele>204</ele>
        <time>2018-05-29T08:33:51Z</time>
      </trkpt>
      <trkpt lat="45.93953" lon="4.79521">
        <ele>204</ele>
        <time>2018-05-29T08:33:52Z</time>
      </trkpt>
      <trkpt lat="45.93953" lon="4.79534">
        <ele>204</ele>
        <time>2018-05-29T08:33:53Z</time>
      </trkpt>
      <trkpt lat="45.93953" lon="4.79536">
        <ele>205</ele>
        <time>2018-05-29T08:33:54Z</time>
      </trkpt>
      <trkpt lat="45.93954" lon="4.79547">
        <ele>205</ele>
        <time>2018-05-29T08:33:57Z</time>
      </trkpt>
      <trkpt lat="45.93955" lon="4.79559">
        <ele>205</ele>
        <time>2018-05-29T08:33:58Z</time>
      </trkpt>
      <trkpt lat="45.93956" lon="4.79567">
        <ele>205</ele>
        <time>2018-05-29T08:34:00Z</time>
      </trkpt>
      <trkpt lat="45.93957" lon="4.79574">
        <ele>205</ele>
        <time>2018-05-29T08:34:01Z</time>
      </trkpt>
      <trkpt lat="45.93957" lon="4.79584">
        <ele>207</ele>
        <time>2018-05-29T08:34:04Z</time>
      </trkpt>
      <trkpt lat="45.93958" lon="4.79588">
        <ele>207</ele>
        <time>2018-05-29T08:34:05Z</time>
      </trkpt>
      <trkpt lat="45.93959" lon="4.79599">
        <ele>207</ele>
        <time>2018-05-29T08:34:06Z</time>
      </trkpt>
      <trkpt lat="45.93959" lon="4.79602">
        <ele>207</ele>
        <time>2018-05-29T08:34:07Z</time>
      </trkpt>
      <trkpt lat="45.9396" lon="4.79612">
        <ele>207</ele>
        <time>2018-05-29T08:34:09Z</time>
      </trkpt>
      <trkpt lat="45.93961" lon="4.7962">
        <ele>207</ele>
        <time>2018-05-29T08:34:10Z</time>
      </trkpt>
      <trkpt lat="45.93961" lon="4.7963">
        <ele>207</ele>
        <time>2018-05-29T08:34:12Z</time>
      </trkpt>
      <trkpt lat="45.93962" lon="4.79636">
        <ele>207</ele>
        <time>2018-05-29T08:34:13Z</time>
      </trkpt>
      <trkpt lat="45.93962" lon="4.79645">
        <ele>207</ele>
        <time>2018-05-29T08:34:16Z</time>
      </trkpt>
      <trkpt lat="45.93964" lon="4.79655">
        <ele>207</ele>
        <time>2018-05-29T08:34:17Z</time>
      </trkpt>
      <trkpt lat="45.93965" lon="4.79667">
        <ele>207</ele>
        <time>2018-05-29T08:34:20Z</time>
      </trkpt>
      <trkpt lat="45.93966" lon="4.79676">
        <ele>207</ele>
        <time>2018-05-29T08:34:21Z</time>
      </trkpt>
      <trkpt lat="45.93967" lon="4.79686">
        <ele>207</ele>
        <time>2018-05-29T08:34:23Z</time>
      </trkpt>
      <trkpt lat="45.93968" lon="4.79691">
        <ele>207</ele>
        <time>2018-05-29T08:34:24Z</time>
      </trkpt>
      <trkpt lat="45.93969" lon="4.79701">
        <ele>207</ele>
        <time>2018-05-29T08:34:26Z</time>
      </trkpt>
      <trkpt lat="45.9397" lon="4.79706">
        <ele>207</ele>
        <time>2018-05-29T08:34:27Z</time>
      </trkpt>
      <trkpt lat="45.93971" lon="4.79716">
        <ele>207</ele>
        <time>2018-05-29T08:34:29Z</time>
      </trkpt>
      <trkpt lat="45.93971" lon="4.79721">
        <ele>207</ele>
        <time>2018-05-29T08:34:30Z</time>
      </trkpt>
      <trkpt lat="45.93972" lon="4.79732">
        <ele>207</ele>
        <time>2018-05-29T08:34:32Z</time>
      </trkpt>
      <trkpt lat="45.93972" lon="4.79738">
        <ele>207</ele>
        <time>2018-05-29T08:34:33Z</time>
      </trkpt>
      <trkpt lat="45.93973" lon="4.79745">
        <ele>207</ele>
        <time>2018-05-29T08:34:34Z</time>
      </trkpt>
      <trkpt lat="45.93973" lon="4.79752">
        <ele>206</ele>
        <time>2018-05-29T08:34:35Z</time>
      </trkpt>
      <trkpt lat="45.93973" lon="4.7976">
        <ele>206</ele>
        <time>2018-05-29T08:34:36Z</time>
      </trkpt>
      <trkpt lat="45.93974" lon="4.79767">
        <ele>206</ele>
        <time>2018-05-29T08:34:37Z</time>
      </trkpt>
      <trkpt lat="45.93974" lon="4.79775">
        <ele>206</ele>
        <time>2018-05-29T08:34:38Z</time>
      </trkpt>
      <trkpt lat="45.93974" lon="4.79783">
        <ele>206</ele>
        <time>2018-05-29T08:34:39Z</time>
      </trkpt>
      <trkpt lat="45.93974" lon="4.79789">
        <ele>206</ele>
        <time>2018-05-29T08:34:40Z</time>
      </trkpt>
      <trkpt lat="45.93973" lon="4.79796">
        <ele>206</ele>
        <time>2018-05-29T08:34:41Z</time>
      </trkpt>
      <trkpt lat="45.93972" lon="4.79799">
        <ele>206</ele>
        <time>2018-05-29T08:34:42Z</time>
      </trkpt>
      <trkpt lat="45.9397" lon="4.79809">
        <ele>207</ele>
        <time>2018-05-29T08:34:43Z</time>
      </trkpt>
      <trkpt lat="45.93969" lon="4.79816">
        <ele>207</ele>
        <time>2018-05-29T08:34:44Z</time>
      </trkpt>
      <trkpt lat="45.93968" lon="4.79822">
        <ele>207</ele>
        <time>2018-05-29T08:34:45Z</time>
      </trkpt>
      <trkpt lat="45.93967" lon="4.79829">
        <ele>207</ele>
        <time>2018-05-29T08:34:46Z</time>
      </trkpt>
      <trkpt lat="45.93965" lon="4.79836">
        <ele>206</ele>
        <time>2018-05-29T08:34:47Z</time>
      </trkpt>
      <trkpt lat="45.93964" lon="4.79843">
        <ele>206</ele>
        <time>2018-05-29T08:34:48Z</time>
      </trkpt>
      <trkpt lat="45.93963" lon="4.79851">
        <ele>206</ele>
        <time>2018-05-29T08:34:49Z</time>
      </trkpt>
      <trkpt lat="45.93962" lon="4.79858">
        <ele>206</ele>
        <time>2018-05-29T08:34:50Z</time>
      </trkpt>
      <trkpt lat="45.9396" lon="4.79865">
        <ele>206</ele>
        <time>2018-05-29T08:34:51Z</time>
      </trkpt>
      <trkpt lat="45.93958" lon="4.79871">
        <ele>206</ele>
        <time>2018-05-29T08:34:52Z</time>
      </trkpt>
      <trkpt lat="45.93957" lon="4.79879">
        <ele>206</ele>
        <time>2018-05-29T08:34:53Z</time>
      </trkpt>
      <trkpt lat="45.93955" lon="4.79885">
        <ele>206</ele>
        <time>2018-05-29T08:34:54Z</time>
      </trkpt>
      <trkpt lat="45.93953" lon="4.79893">
        <ele>205</ele>
        <time>2018-05-29T08:34:55Z</time>
      </trkpt>
      <trkpt lat="45.93951" lon="4.79901">
        <ele>205</ele>
        <time>2018-05-29T08:34:56Z</time>
      </trkpt>
      <trkpt lat="45.93949" lon="4.79908">
        <ele>205</ele>
        <time>2018-05-29T08:34:57Z</time>
      </trkpt>
      <trkpt lat="45.93948" lon="4.79915">
        <ele>205</ele>
        <time>2018-05-29T08:34:58Z</time>
      </trkpt>
      <trkpt lat="45.93948" lon="4.79923">
        <ele>205</ele>
        <time>2018-05-29T08:34:59Z</time>
      </trkpt>
      <trkpt lat="45.93946" lon="4.79929">
        <ele>205</ele>
        <time>2018-05-29T08:35:00Z</time>
      </trkpt>
      <trkpt lat="45.93945" lon="4.79936">
        <ele>205</ele>
        <time>2018-05-29T08:35:01Z</time>
      </trkpt>
      <trkpt lat="45.93943" lon="4.79943">
        <ele>205</ele>
        <time>2018-05-29T08:35:02Z</time>
      </trkpt>
      <trkpt lat="45.93943" lon="4.7995">
        <ele>205</ele>
        <time>2018-05-29T08:35:03Z</time>
      </trkpt>
      <trkpt lat="45.93943" lon="4.79959">
        <ele>205</ele>
        <time>2018-05-29T08:35:04Z</time>
      </trkpt>
      <trkpt lat="45.93942" lon="4.79964">
        <ele>205</ele>
        <time>2018-05-29T08:35:05Z</time>
      </trkpt>
      <trkpt lat="45.93941" lon="4.79971">
        <ele>205</ele>
        <time>2018-05-29T08:35:06Z</time>
      </trkpt>
      <trkpt lat="45.9394" lon="4.79977">
        <ele>204</ele>
        <time>2018-05-29T08:35:07Z</time>
      </trkpt>
      <trkpt lat="45.93939" lon="4.79984">
        <ele>204</ele>
        <time>2018-05-29T08:35:08Z</time>
      </trkpt>
      <trkpt lat="45.93938" lon="4.79991">
        <ele>204</ele>
        <time>2018-05-29T08:35:09Z</time>
      </trkpt>
      <trkpt lat="45.93937" lon="4.79997">
        <ele>204</ele>
        <time>2018-05-29T08:35:10Z</time>
      </trkpt>
      <trkpt lat="45.93936" lon="4.80004">
        <ele>205</ele>
        <time>2018-05-29T08:35:11Z</time>
      </trkpt>
      <trkpt lat="45.93935" lon="4.80011">
        <ele>205</ele>
        <time>2018-05-29T08:35:12Z</time>
      </trkpt>
      <trkpt lat="45.93935" lon="4.80019">
        <ele>206</ele>
        <time>2018-05-29T08:35:13Z</time>
      </trkpt>
      <trkpt lat="45.93935" lon="4.80031">
        <ele>206</ele>
        <time>2018-05-29T08:35:15Z</time>
      </trkpt>
      <trkpt lat="45.93934" lon="4.80038">
        <ele>207</ele>
        <time>2018-05-29T08:35:16Z</time>
      </trkpt>
      <trkpt lat="45.93933" lon="4.80046">
        <ele>207</ele>
        <time>2018-05-29T08:35:17Z</time>
      </trkpt>
      <trkpt lat="45.93933" lon="4.80053">
        <ele>207</ele>
        <time>2018-05-29T08:35:18Z</time>
      </trkpt>
      <trkpt lat="45.93934" lon="4.8006">
        <ele>207</ele>
        <time>2018-05-29T08:35:19Z</time>
      </trkpt>
      <trkpt lat="45.93934" lon="4.80068">
        <ele>207</ele>
        <time>2018-05-29T08:35:20Z</time>
      </trkpt>
      <trkpt lat="45.93934" lon="4.80076">
        <ele>207</ele>
        <time>2018-05-29T08:35:21Z</time>
      </trkpt>
      <trkpt lat="45.93936" lon="4.80082">
        <ele>207</ele>
        <time>2018-05-29T08:35:22Z</time>
      </trkpt>
      <trkpt lat="45.93935" lon="4.8009">
        <ele>208</ele>
        <time>2018-05-29T08:35:23Z</time>
      </trkpt>
      <trkpt lat="45.93935" lon="4.80098">
        <ele>208</ele>
        <time>2018-05-29T08:35:24Z</time>
      </trkpt>
      <trkpt lat="45.93937" lon="4.80106">
        <ele>208</ele>
        <time>2018-05-29T08:35:25Z</time>
      </trkpt>
      <trkpt lat="45.93938" lon="4.80114">
        <ele>208</ele>
        <time>2018-05-29T08:35:26Z</time>
      </trkpt>
      <trkpt lat="45.93939" lon="4.80121">
        <ele>208</ele>
        <time>2018-05-29T08:35:27Z</time>
      </trkpt>
      <trkpt lat="45.9394" lon="4.80129">
        <ele>208</ele>
        <time>2018-05-29T08:35:28Z</time>
      </trkpt>
      <trkpt lat="45.93941" lon="4.80136">
        <ele>208</ele>
        <time>2018-05-29T08:35:29Z</time>
      </trkpt>
      <trkpt lat="45.93942" lon="4.80143">
        <ele>208</ele>
        <time>2018-05-29T08:35:30Z</time>
      </trkpt>
      <trkpt lat="45.93943" lon="4.8015">
        <ele>208</ele>
        <time>2018-05-29T08:35:31Z</time>
      </trkpt>
      <trkpt lat="45.93944" lon="4.80157">
        <ele>208</ele>
        <time>2018-05-29T08:35:32Z</time>
      </trkpt>
      <trkpt lat="45.93945" lon="4.80164">
        <ele>208</ele>
        <time>2018-05-29T08:35:33Z</time>
      </trkpt>
      <trkpt lat="45.93946" lon="4.80171">
        <ele>206</ele>
        <time>2018-05-29T08:35:34Z</time>
      </trkpt>
      <trkpt lat="45.93948" lon="4.80177">
        <ele>206</ele>
        <time>2018-05-29T08:35:35Z</time>
      </trkpt>
      <trkpt lat="45.93949" lon="4.80183">
        <ele>206</ele>
        <time>2018-05-29T08:35:36Z</time>
      </trkpt>
      <trkpt lat="45.9395" lon="4.80191">
        <ele>205</ele>
        <time>2018-05-29T08:35:37Z</time>
      </trkpt>
      <trkpt lat="45.93952" lon="4.80198">
        <ele>205</ele>
        <time>2018-05-29T08:35:38Z</time>
      </trkpt>
      <trkpt lat="45.93954" lon="4.80206">
        <ele>205</ele>
        <time>2018-05-29T08:35:39Z</time>
      </trkpt>
      <trkpt lat="45.93956" lon="4.80212">
        <ele>205</ele>
        <time>2018-05-29T08:35:40Z</time>
      </trkpt>
      <trkpt lat="45.93958" lon="4.80219">
        <ele>205</ele>
        <time>2018-05-29T08:35:41Z</time>
      </trkpt>
      <trkpt lat="45.9396" lon="4.80226">
        <ele>205</ele>
        <time>2018-05-29T08:35:42Z</time>
      </trkpt>
      <trkpt lat="45.93963" lon="4.80233">
        <ele>205</ele>
        <time>2018-05-29T08:35:43Z</time>
      </trkpt>
      <trkpt lat="45.93964" lon="4.8024">
        <ele>204</ele>
        <time>2018-05-29T08:35:44Z</time>
      </trkpt>
      <trkpt lat="45.93967" lon="4.80248">
        <ele>204</ele>
        <time>2018-05-29T08:35:45Z</time>
      </trkpt>
      <trkpt lat="45.93969" lon="4.80255">
        <ele>202</ele>
        <time>2018-05-29T08:35:46Z</time>
      </trkpt>
      <trkpt lat="45.9397" lon="4.80262">
        <ele>202</ele>
        <time>2018-05-29T08:35:47Z</time>
      </trkpt>
      <trkpt lat="45.93972" lon="4.80269">
        <ele>202</ele>
        <time>2018-05-29T08:35:48Z</time>
      </trkpt>
      <trkpt lat="45.93973" lon="4.80276">
        <ele>202</ele>
        <time>2018-05-29T08:35:49Z</time>
      </trkpt>
      <trkpt lat="45.93976" lon="4.80282">
        <ele>203</ele>
        <time>2018-05-29T08:35:50Z</time>
      </trkpt>
      <trkpt lat="45.93977" lon="4.80289">
        <ele>203</ele>
        <time>2018-05-29T08:35:51Z</time>
      </trkpt>
      <trkpt lat="45.93979" lon="4.80295">
        <ele>203</ele>
        <time>2018-05-29T08:35:52Z</time>
      </trkpt>
      <trkpt lat="45.93983" lon="4.80307">
        <ele>203</ele>
        <time>2018-05-29T08:35:54Z</time>
      </trkpt>
      <trkpt lat="45.93984" lon="4.80313">
        <ele>203</ele>
        <time>2018-05-29T08:35:55Z</time>
      </trkpt>
      <trkpt lat="45.93986" lon="4.80324">
        <ele>204</ele>
        <time>2018-05-29T08:35:57Z</time>
      </trkpt>
      <trkpt lat="45.93987" lon="4.8033">
        <ele>204</ele>
        <time>2018-05-29T08:35:58Z</time>
      </trkpt>
      <trkpt lat="45.9399" lon="4.80339">
        <ele>206</ele>
        <time>2018-05-29T08:36:00Z</time>
      </trkpt>
      <trkpt lat="45.93992" lon="4.80344">
        <ele>206</ele>
        <time>2018-05-29T08:36:01Z</time>
      </trkpt>
      <trkpt lat="45.93995" lon="4.80355">
        <ele>206</ele>
        <time>2018-05-29T08:36:05Z</time>
      </trkpt>
      <trkpt lat="45.93996" lon="4.80358">
        <ele>207</ele>
        <time>2018-05-29T08:36:06Z</time>
      </trkpt>
      <trkpt lat="45.94" lon="4.80369">
        <ele>207</ele>
        <time>2018-05-29T08:36:09Z</time>
      </trkpt>
      <trkpt lat="45.94001" lon="4.80372">
        <ele>216</ele>
        <time>2018-05-29T08:36:10Z</time>
      </trkpt>
      <trkpt lat="45.94005" lon="4.80382">
        <ele>216</ele>
        <time>2018-05-29T08:36:13Z</time>
      </trkpt>
      <trkpt lat="45.94006" lon="4.80384">
        <ele>217</ele>
        <time>2018-05-29T08:36:14Z</time>
      </trkpt>
      <trkpt lat="45.94009" lon="4.80394">
        <ele>217</ele>
        <time>2018-05-29T08:36:17Z</time>
      </trkpt>
      <trkpt lat="45.9401" lon="4.80398">
        <ele>217</ele>
        <time>2018-05-29T08:36:18Z</time>
      </trkpt>
      <trkpt lat="45.94013" lon="4.80409">
        <ele>217</ele>
        <time>2018-05-29T08:36:21Z</time>
      </trkpt>
      <trkpt lat="45.94013" lon="4.80412">
        <ele>217</ele>
        <time>2018-05-29T08:36:22Z</time>
      </trkpt>
      <trkpt lat="45.94016" lon="4.80424">
        <ele>221</ele>
        <time>2018-05-29T08:36:25Z</time>
      </trkpt>
      <trkpt lat="45.94017" lon="4.80428">
        <ele>221</ele>
        <time>2018-05-29T08:36:26Z</time>
      </trkpt>
      <trkpt lat="45.94019" lon="4.80438">
        <ele>222</ele>
        <time>2018-05-29T08:36:29Z</time>
      </trkpt>
      <trkpt lat="45.94019" lon="4.80443">
        <ele>223</ele>
        <time>2018-05-29T08:36:30Z</time>
      </trkpt>
      <trkpt lat="45.9402" lon="4.80454">
        <ele>223</ele>
        <time>2018-05-29T08:36:33Z</time>
      </trkpt>
      <trkpt lat="45.9402" lon="4.80458">
        <ele>223</ele>
        <time>2018-05-29T08:36:34Z</time>
      </trkpt>
      <trkpt lat="45.94021" lon="4.8047">
        <ele>223</ele>
        <time>2018-05-29T08:36:37Z</time>
      </trkpt>
      <trkpt lat="45.94021" lon="4.80474">
        <ele>223</ele>
        <time>2018-05-29T08:36:38Z</time>
      </trkpt>
      <trkpt lat="45.94021" lon="4.80485">
        <ele>223</ele>
        <time>2018-05-29T08:36:41Z</time>
      </trkpt>
      <trkpt lat="45.94021" lon="4.80489">
        <ele>223</ele>
        <time>2018-05-29T08:36:42Z</time>
      </trkpt>
      <trkpt lat="45.94022" lon="4.80499">
        <ele>223</ele>
        <time>2018-05-29T08:36:45Z</time>
      </trkpt>
      <trkpt lat="45.94022" lon="4.80502">
        <ele>224</ele>
        <time>2018-05-29T08:36:46Z</time>
      </trkpt>
      <trkpt lat="45.94022" lon="4.80514">
        <ele>224</ele>
        <time>2018-05-29T08:36:50Z</time>
      </trkpt>
      <trkpt lat="45.94021" lon="4.80518">
        <ele>224</ele>
        <time>2018-05-29T08:36:51Z</time>
      </trkpt>
      <trkpt lat="45.94021" lon="4.80527">
        <ele>224</ele>
        <time>2018-05-29T08:36:54Z</time>
      </trkpt>
      <trkpt lat="45.9402" lon="4.80531">
        <ele>225</ele>
        <time>2018-05-29T08:36:55Z</time>
      </trkpt>
      <trkpt lat="45.94021" lon="4.80541">
        <ele>225</ele>
        <time>2018-05-29T08:36:58Z</time>
      </trkpt>
      <trkpt lat="45.94021" lon="4.80545">
        <ele>225</ele>
        <time>2018-05-29T08:36:59Z</time>
      </trkpt>
      <trkpt lat="45.94021" lon="4.80556">
        <ele>225</ele>
        <time>2018-05-29T08:37:02Z</time>
      </trkpt>
      <trkpt lat="45.94021" lon="4.80559">
        <ele>224</ele>
        <time>2018-05-29T08:37:03Z</time>
      </trkpt>
      <trkpt lat="45.94021" lon="4.8057">
        <ele>224</ele>
        <time>2018-05-29T08:37:06Z</time>
      </trkpt>
      <trkpt lat="45.9402" lon="4.80574">
        <ele>223</ele>
        <time>2018-05-29T08:37:07Z</time>
      </trkpt>
      <trkpt lat="45.9402" lon="4.80584">
        <ele>223</ele>
        <time>2018-05-29T08:37:10Z</time>
      </trkpt>
      <trkpt lat="45.94019" lon="4.80587">
        <ele>223</ele>
        <time>2018-05-29T08:37:11Z</time>
      </trkpt>
      <trkpt lat="45.9402" lon="4.80597">
        <ele>223</ele>
        <time>2018-05-29T08:37:14Z</time>
      </trkpt>
      <trkpt lat="45.9402" lon="4.80601">
        <ele>224</ele>
        <time>2018-05-29T08:37:15Z</time>
      </trkpt>
      <trkpt lat="45.94022" lon="4.80612">
        <ele>224</ele>
        <time>2018-05-29T08:37:18Z</time>
      </trkpt>
      <trkpt lat="45.94022" lon="4.80616">
        <ele>224</ele>
        <time>2018-05-29T08:37:19Z</time>
      </trkpt>
      <trkpt lat="45.94024" lon="4.80626">
        <ele>225</ele>
        <time>2018-05-29T08:37:22Z</time>
      </trkpt>
      <trkpt lat="45.94025" lon="4.8063">
        <ele>225</ele>
        <time>2018-05-29T08:37:23Z</time>
      </trkpt>
      <trkpt lat="45.94026" lon="4.8064">
        <ele>225</ele>
        <time>2018-05-29T08:37:26Z</time>
      </trkpt>
      <trkpt lat="45.94027" lon="4.80643">
        <ele>224</ele>
        <time>2018-05-29T08:37:27Z</time>
      </trkpt>
      <trkpt lat="45.94029" lon="4.80652">
        <ele>224</ele>
        <time>2018-05-29T08:37:30Z</time>
      </trkpt>
      <trkpt lat="45.9403" lon="4.80655">
        <ele>224</ele>
        <time>2018-05-29T08:37:31Z</time>
      </trkpt>
      <trkpt lat="45.94032" lon="4.80665">
        <ele>225</ele>
        <time>2018-05-29T08:37:34Z</time>
      </trkpt>
      <trkpt lat="45.94032" lon="4.80669">
        <ele>225</ele>
        <time>2018-05-29T08:37:35Z</time>
      </trkpt>
      <trkpt lat="45.94034" lon="4.80681">
        <ele>225</ele>
        <time>2018-05-29T08:37:38Z</time>
      </trkpt>
      <trkpt lat="45.94034" lon="4.80684">
        <ele>225</ele>
        <time>2018-05-29T08:37:39Z</time>
      </trkpt>
      <trkpt lat="45.94036" lon="4.80696">
        <ele>226</ele>
        <time>2018-05-29T08:37:42Z</time>
      </trkpt>
      <trkpt lat="45.94037" lon="4.807">
        <ele>226</ele>
        <time>2018-05-29T08:37:43Z</time>
      </trkpt>
      <trkpt lat="45.94039" lon="4.80712">
        <ele>226</ele>
        <time>2018-05-29T08:37:46Z</time>
      </trkpt>
      <trkpt lat="45.94039" lon="4.80716">
        <ele>227</ele>
        <time>2018-05-29T08:37:47Z</time>
      </trkpt>
      <trkpt lat="45.94041" lon="4.80727">
        <ele>227</ele>
        <time>2018-05-29T08:37:50Z</time>
      </trkpt>
      <trkpt lat="45.94041" lon="4.8073">
        <ele>227</ele>
        <time>2018-05-29T08:37:51Z</time>
      </trkpt>
      <trkpt lat="45.94043" lon="4.80741">
        <ele>227</ele>
        <time>2018-05-29T08:37:54Z</time>
      </trkpt>
      <trkpt lat="45.94043" lon="4.80745">
        <ele>227</ele>
        <time>2018-05-29T08:37:55Z</time>
      </trkpt>
      <trkpt lat="45.94045" lon="4.80755">
        <ele>228</ele>
        <time>2018-05-29T08:37:58Z</time>
      </trkpt>
      <trkpt lat="45.94045" lon="4.80759">
        <ele>228</ele>
        <time>2018-05-29T08:37:59Z</time>
      </trkpt>
      <trkpt lat="45.94046" lon="4.80771">
        <ele>229</ele>
        <time>2018-05-29T08:38:02Z</time>
      </trkpt>
      <trkpt lat="45.94047" lon="4.80775">
        <ele>229</ele>
        <time>2018-05-29T08:38:03Z</time>
      </trkpt>
      <trkpt lat="45.94048" lon="4.80786">
        <ele>229</ele>
        <time>2018-05-29T08:38:06Z</time>
      </trkpt>
      <trkpt lat="45.94048" lon="4.8079">
        <ele>229</ele>
        <time>2018-05-29T08:38:07Z</time>
      </trkpt>
      <trkpt lat="45.94049" lon="4.808">
        <ele>229</ele>
        <time>2018-05-29T08:38:10Z</time>
      </trkpt>
      <trkpt lat="45.9405" lon="4.80804">
        <ele>229</ele>
        <time>2018-05-29T08:38:11Z</time>
      </trkpt>
      <trkpt lat="45.94051" lon="4.80815">
        <ele>230</ele>
        <time>2018-05-29T08:38:14Z</time>
      </trkpt>
      <trkpt lat="45.94051" lon="4.80818">
        <ele>230</ele>
        <time>2018-05-29T08:38:15Z</time>
      </trkpt>
      <trkpt lat="45.94053" lon="4.8083">
        <ele>230</ele>
        <time>2018-05-29T08:38:18Z</time>
      </trkpt>
      <trkpt lat="45.94053" lon="4.80834">
        <ele>231</ele>
        <time>2018-05-29T08:38:19Z</time>
      </trkpt>
      <trkpt lat="45.94054" lon="4.80845">
        <ele>231</ele>
        <time>2018-05-29T08:38:22Z</time>
      </trkpt>
      <trkpt lat="45.94055" lon="4.80848">
        <ele>231</ele>
        <time>2018-05-29T08:38:23Z</time>
      </trkpt>
      <trkpt lat="45.94056" lon="4.8086">
        <ele>231</ele>
        <time>2018-05-29T08:38:26Z</time>
      </trkpt>
      <trkpt lat="45.94056" lon="4.80863">
        <ele>231</ele>
        <time>2018-05-29T08:38:27Z</time>
      </trkpt>
      <trkpt lat="45.94058" lon="4.80874">
        <ele>231</ele>
        <time>2018-05-29T08:38:30Z</time>
      </trkpt>
      <trkpt lat="45.94058" lon="4.80877">
        <ele>231</ele>
        <time>2018-05-29T08:38:31Z</time>
      </trkpt>
      <trkpt lat="45.94059" lon="4.80888">
        <ele>231</ele>
        <time>2018-05-29T08:38:34Z</time>
      </trkpt>
      <trkpt lat="45.9406" lon="4.80892">
        <ele>231</ele>
        <time>2018-05-29T08:38:35Z</time>
      </trkpt>
      <trkpt lat="45.9406" lon="4.80903">
        <ele>232</ele>
        <time>2018-05-29T08:38:38Z</time>
      </trkpt>
      <trkpt lat="45.94061" lon="4.80907">
        <ele>232</ele>
        <time>2018-05-29T08:38:39Z</time>
      </trkpt>
      <trkpt lat="45.94062" lon="4.80918">
        <ele>233</ele>
        <time>2018-05-29T08:38:42Z</time>
      </trkpt>
      <trkpt lat="45.94062" lon="4.80921">
        <ele>233</ele>
        <time>2018-05-29T08:38:43Z</time>
      </trkpt>
      <trkpt lat="45.94063" lon="4.80932">
        <ele>233</ele>
        <time>2018-05-29T08:38:46Z</time>
      </trkpt>
      <trkpt lat="45.94063" lon="4.80936">
        <ele>233</ele>
        <time>2018-05-29T08:38:47Z</time>
      </trkpt>
      <trkpt lat="45.94065" lon="4.80947">
        <ele>232</ele>
        <time>2018-05-29T08:38:50Z</time>
      </trkpt>
      <trkpt lat="45.94065" lon="4.8095">
        <ele>232</ele>
        <time>2018-05-29T08:38:51Z</time>
      </trkpt>
      <trkpt lat="45.94066" lon="4.80961">
        <ele>232</ele>
        <time>2018-05-29T08:38:54Z</time>
      </trkpt>
      <trkpt lat="45.94067" lon="4.80964">
        <ele>232</ele>
        <time>2018-05-29T08:38:55Z</time>
      </trkpt>
      <trkpt lat="45.94068" lon="4.80974">
        <ele>233</ele>
        <time>2018-05-29T08:38:58Z</time>
      </trkpt>
      <trkpt lat="45.94069" lon="4.80978">
        <ele>233</ele>
        <time>2018-05-29T08:38:59Z</time>
      </trkpt>
      <trkpt lat="45.9407" lon="4.80989">
        <ele>235</ele>
        <time>2018-05-29T08:39:02Z</time>
      </trkpt>
      <trkpt lat="45.9407" lon="4.80993">
        <ele>235</ele>
        <time>2018-05-29T08:39:03Z</time>
      </trkpt>
      <trkpt lat="45.94071" lon="4.81004">
        <ele>236</ele>
        <time>2018-05-29T08:39:06Z</time>
      </trkpt>
      <trkpt lat="45.94072" lon="4.81008">
        <ele>236</ele>
        <time>2018-05-29T08:39:07Z</time>
      </trkpt>
      <trkpt lat="45.94074" lon="4.81019">
        <ele>235</ele>
        <time>2018-05-29T08:39:10Z</time>
      </trkpt>
      <trkpt lat="45.94074" lon="4.81022">
        <ele>234</ele>
        <time>2018-05-29T08:39:11Z</time>
      </trkpt>
      <trkpt lat="45.94077" lon="4.81033">
        <ele>234</ele>
        <time>2018-05-29T08:39:14Z</time>
      </trkpt>
      <trkpt lat="45.94078" lon="4.81036">
        <ele>234</ele>
        <time>2018-05-29T08:39:15Z</time>
      </trkpt>
      <trkpt lat="45.94081" lon="4.81046">
        <ele>233</ele>
        <time>2018-05-29T08:39:18Z</time>
      </trkpt>
      <trkpt lat="45.94082" lon="4.81049">
        <ele>233</ele>
        <time>2018-05-29T08:39:19Z</time>
      </trkpt>
      <trkpt lat="45.94086" lon="4.81059">
        <ele>242</ele>
        <time>2018-05-29T08:39:22Z</time>
      </trkpt>
      <trkpt lat="45.94087" lon="4.81062">
        <ele>242</ele>
        <time>2018-05-29T08:39:23Z</time>
      </trkpt>
      <trkpt lat="45.94091" lon="4.8107">
        <ele>241</ele>
        <time>2018-05-29T08:39:26Z</time>
      </trkpt>
      <trkpt lat="45.94093" lon="4.81073">
        <ele>241</ele>
        <time>2018-05-29T08:39:27Z</time>
      </trkpt>
      <trkpt lat="45.94098" lon="4.81082">
        <ele>241</ele>
        <time>2018-05-29T08:39:30Z</time>
      </trkpt>
      <trkpt lat="45.941" lon="4.81085">
        <ele>240</ele>
        <time>2018-05-29T08:39:31Z</time>
      </trkpt>
      <trkpt lat="45.94104" lon="4.81094">
        <ele>241</ele>
        <time>2018-05-29T08:39:34Z</time>
      </trkpt>
      <trkpt lat="45.94106" lon="4.81097">
        <ele>241</ele>
        <time>2018-05-29T08:39:35Z</time>
      </trkpt>
      <trkpt lat="45.94111" lon="4.81107">
        <ele>242</ele>
        <time>2018-05-29T08:39:38Z</time>
      </trkpt>
      <trkpt lat="45.94112" lon="4.8111">
        <ele>242</ele>
        <time>2018-05-29T08:39:39Z</time>
      </trkpt>
      <trkpt lat="45.94116" lon="4.8112">
        <ele>243</ele>
        <time>2018-05-29T08:39:42Z</time>
      </trkpt>
      <trkpt lat="45.94118" lon="4.81123">
        <ele>243</ele>
        <time>2018-05-29T08:39:43Z</time>
      </trkpt>
      <trkpt lat="45.94123" lon="4.81131">
        <ele>243</ele>
        <time>2018-05-29T08:39:46Z</time>
      </trkpt>
      <trkpt lat="45.94124" lon="4.81133">
        <ele>243</ele>
        <time>2018-05-29T08:39:47Z</time>
      </trkpt>
      <trkpt lat="45.94129" lon="4.81141">
        <ele>243</ele>
        <time>2018-05-29T08:39:50Z</time>
      </trkpt>
      <trkpt lat="45.9413" lon="4.81144">
        <ele>243</ele>
        <time>2018-05-29T08:39:51Z</time>
      </trkpt>
      <trkpt lat="45.94135" lon="4.81152">
        <ele>244</ele>
        <time>2018-05-29T08:39:54Z</time>
      </trkpt>
      <trkpt lat="45.94137" lon="4.81155">
        <ele>244</ele>
        <time>2018-05-29T08:39:55Z</time>
      </trkpt>
      <trkpt lat="45.9414" lon="4.81165">
        <ele>244</ele>
        <time>2018-05-29T08:39:58Z</time>
      </trkpt>
      <trkpt lat="45.94141" lon="4.81168">
        <ele>244</ele>
        <time>2018-05-29T08:39:59Z</time>
      </trkpt>
      <trkpt lat="45.94144" lon="4.81178">
        <ele>244</ele>
        <time>2018-05-29T08:40:02Z</time>
      </trkpt>
      <trkpt lat="45.94145" lon="4.81181">
        <ele>244</ele>
        <time>2018-05-29T08:40:03Z</time>
      </trkpt>
      <trkpt lat="45.94149" lon="4.81191">
        <ele>244</ele>
        <time>2018-05-29T08:40:06Z</time>
      </trkpt>
      <trkpt lat="45.9415" lon="4.81194">
        <ele>244</ele>
        <time>2018-05-29T08:40:07Z</time>
      </trkpt>
      <trkpt lat="45.94153" lon="4.81204">
        <ele>244</ele>
        <time>2018-05-29T08:40:10Z</time>
      </trkpt>
      <trkpt lat="45.94156" lon="4.81215">
        <ele>245</ele>
        <time>2018-05-29T08:40:11Z</time>
      </trkpt>
      <trkpt lat="45.94159" lon="4.81226">
        <ele>246</ele>
        <time>2018-05-29T08:40:16Z</time>
      </trkpt>
      <trkpt lat="45.9416" lon="4.81229">
        <ele>246</ele>
        <time>2018-05-29T08:40:17Z</time>
      </trkpt>
      <trkpt lat="45.94162" lon="4.8124">
        <ele>247</ele>
        <time>2018-05-29T08:40:20Z</time>
      </trkpt>
      <trkpt lat="45.94162" lon="4.81243">
        <ele>248</ele>
        <time>2018-05-29T08:40:21Z</time>
      </trkpt>
      <trkpt lat="45.94163" lon="4.81255">
        <ele>249</ele>
        <time>2018-05-29T08:40:25Z</time>
      </trkpt>
      <trkpt lat="45.94164" lon="4.81258">
        <ele>249</ele>
        <time>2018-05-29T08:40:26Z</time>
      </trkpt>
      <trkpt lat="45.94165" lon="4.81268">
        <ele>248</ele>
        <time>2018-05-29T08:40:29Z</time>
      </trkpt>
      <trkpt lat="45.94165" lon="4.81272">
        <ele>248</ele>
        <time>2018-05-29T08:40:30Z</time>
      </trkpt>
      <trkpt lat="45.94166" lon="4.81283">
        <ele>247</ele>
        <time>2018-05-29T08:40:33Z</time>
      </trkpt>
      <trkpt lat="45.94166" lon="4.81287">
        <ele>247</ele>
        <time>2018-05-29T08:40:34Z</time>
      </trkpt>
      <trkpt lat="45.94166" lon="4.81291">
        <ele>247</ele>
        <time>2018-05-29T08:40:35Z</time>
      </trkpt>
      <trkpt lat="45.94167" lon="4.81307">
        <ele>255</ele>
        <time>2018-05-29T08:40:36Z</time>
      </trkpt>
      <trkpt lat="45.94168" lon="4.81319">
        <ele>254</ele>
        <time>2018-05-29T08:40:42Z</time>
      </trkpt>
      <trkpt lat="45.94167" lon="4.81322">
        <ele>254</ele>
        <time>2018-05-29T08:40:43Z</time>
      </trkpt>
      <trkpt lat="45.94166" lon="4.81334">
        <ele>252</ele>
        <time>2018-05-29T08:40:47Z</time>
      </trkpt>
      <trkpt lat="45.94166" lon="4.81338">
        <ele>252</ele>
        <time>2018-05-29T08:40:48Z</time>
      </trkpt>
      <trkpt lat="45.94165" lon="4.81348">
        <ele>251</ele>
        <time>2018-05-29T08:40:51Z</time>
      </trkpt>
      <trkpt lat="45.94164" lon="4.81352">
        <ele>251</ele>
        <time>2018-05-29T08:40:52Z</time>
      </trkpt>
      <trkpt lat="45.94164" lon="4.81362">
        <ele>251</ele>
        <time>2018-05-29T08:40:55Z</time>
      </trkpt>
      <trkpt lat="45.94164" lon="4.81365">
        <ele>251</ele>
        <time>2018-05-29T08:40:56Z</time>
      </trkpt>
      <trkpt lat="45.94162" lon="4.81376">
        <ele>251</ele>
        <time>2018-05-29T08:41:00Z</time>
      </trkpt>
      <trkpt lat="45.94161" lon="4.81379">
        <ele>251</ele>
        <time>2018-05-29T08:41:01Z</time>
      </trkpt>
      <trkpt lat="45.9416" lon="4.81391">
        <ele>252</ele>
        <time>2018-05-29T08:41:05Z</time>
      </trkpt>
      <trkpt lat="45.94159" lon="4.81396">
        <ele>252</ele>
        <time>2018-05-29T08:41:06Z</time>
      </trkpt>
      <trkpt lat="45.94158" lon="4.81408">
        <ele>253</ele>
        <time>2018-05-29T08:41:09Z</time>
      </trkpt>
      <trkpt lat="45.94157" lon="4.81413">
        <ele>254</ele>
        <time>2018-05-29T08:41:10Z</time>
      </trkpt>
      <trkpt lat="45.94156" lon="4.81425">
        <ele>256</ele>
        <time>2018-05-29T08:41:13Z</time>
      </trkpt>
      <trkpt lat="45.94156" lon="4.81429">
        <ele>256</ele>
        <time>2018-05-29T08:41:14Z</time>
      </trkpt>
      <trkpt lat="45.94155" lon="4.8144">
        <ele>256</ele>
        <time>2018-05-29T08:41:17Z</time>
      </trkpt>
      <trkpt lat="45.94154" lon="4.81444">
        <ele>256</ele>
        <time>2018-05-29T08:41:18Z</time>
      </trkpt>
      <trkpt lat="45.94151" lon="4.81454">
        <ele>257</ele>
        <time>2018-05-29T08:41:22Z</time>
      </trkpt>
      <trkpt lat="45.94151" lon="4.81457">
        <ele>257</ele>
        <time>2018-05-29T08:41:23Z</time>
      </trkpt>
      <trkpt lat="45.94148" lon="4.81468">
        <ele>257</ele>
        <time>2018-05-29T08:41:27Z</time>
      </trkpt>
      <trkpt lat="45.94148" lon="4.8147">
        <ele>258</ele>
        <time>2018-05-29T08:41:28Z</time>
      </trkpt>
      <trkpt lat="45.94148" lon="4.8148">
        <ele>258</ele>
        <time>2018-05-29T08:41:31Z</time>
      </trkpt>
      <trkpt lat="45.94147" lon="4.81484">
        <ele>259</ele>
        <time>2018-05-29T08:41:32Z</time>
      </trkpt>
      <trkpt lat="45.94147" lon="4.81496">
        <ele>259</ele>
        <time>2018-05-29T08:41:35Z</time>
      </trkpt>
      <trkpt lat="45.94147" lon="4.815">
        <ele>259</ele>
        <time>2018-05-29T08:41:36Z</time>
      </trkpt>
      <trkpt lat="45.94148" lon="4.81512">
        <ele>263</ele>
        <time>2018-05-29T08:41:39Z</time>
      </trkpt>
      <trkpt lat="45.94148" lon="4.81516">
        <ele>263</ele>
        <time>2018-05-29T08:41:40Z</time>
      </trkpt>
      <trkpt lat="45.94148" lon="4.81528">
        <ele>263</ele>
        <time>2018-05-29T08:41:43Z</time>
      </trkpt>
      <trkpt lat="45.94149" lon="4.81532">
        <ele>264</ele>
        <time>2018-05-29T08:41:44Z</time>
      </trkpt>
      <trkpt lat="45.9415" lon="4.81543">
        <ele>264</ele>
        <time>2018-05-29T08:41:47Z</time>
      </trkpt>
      <trkpt lat="45.9415" lon="4.81546">
        <ele>264</ele>
        <time>2018-05-29T08:41:48Z</time>
      </trkpt>
      <trkpt lat="45.94151" lon="4.81558">
        <ele>265</ele>
        <time>2018-05-29T08:41:51Z</time>
      </trkpt>
      <trkpt lat="45.94152" lon="4.81561">
        <ele>265</ele>
        <time>2018-05-29T08:41:52Z</time>
      </trkpt>
      <trkpt lat="45.94154" lon="4.81574">
        <ele>265</ele>
        <time>2018-05-29T08:41:55Z</time>
      </trkpt>
      <trkpt lat="45.94155" lon="4.81578">
        <ele>266</ele>
        <time>2018-05-29T08:41:56Z</time>
      </trkpt>
      <trkpt lat="45.94156" lon="4.81587">
        <ele>267</ele>
        <time>2018-05-29T08:41:58Z</time>
      </trkpt>
      <trkpt lat="45.94157" lon="4.81591">
        <ele>267</ele>
        <time>2018-05-29T08:41:59Z</time>
      </trkpt>
      <trkpt lat="45.94158" lon="4.816">
        <ele>267</ele>
        <time>2018-05-29T08:42:01Z</time>
      </trkpt>
      <trkpt lat="45.94159" lon="4.81604">
        <ele>267</ele>
        <time>2018-05-29T08:42:02Z</time>
      </trkpt>
      <trkpt lat="45.9416" lon="4.81613">
        <ele>267</ele>
        <time>2018-05-29T08:42:04Z</time>
      </trkpt>
      <trkpt lat="45.94161" lon="4.81618">
        <ele>268</ele>
        <time>2018-05-29T08:42:05Z</time>
      </trkpt>
      <trkpt lat="45.94162" lon="4.81627">
        <ele>268</ele>
        <time>2018-05-29T08:42:07Z</time>
      </trkpt>
      <trkpt lat="45.94163" lon="4.81631">
        <ele>268</ele>
        <time>2018-05-29T08:42:08Z</time>
      </trkpt>
      <trkpt lat="45.94166" lon="4.81643">
        <ele>268</ele>
        <time>2018-05-29T08:42:11Z</time>
      </trkpt>
      <trkpt lat="45.94166" lon="4.81647">
        <ele>268</ele>
        <time>2018-05-29T08:42:12Z</time>
      </trkpt>
      <trkpt lat="45.94168" lon="4.81659">
        <ele>268</ele>
        <time>2018-05-29T08:42:15Z</time>
      </trkpt>
      <trkpt lat="45.94169" lon="4.81662">
        <ele>269</ele>
        <time>2018-05-29T08:42:16Z</time>
      </trkpt>
      <trkpt lat="45.9417" lon="4.81674">
        <ele>268</ele>
        <time>2018-05-29T08:42:19Z</time>
      </trkpt>
      <trkpt lat="45.94171" lon="4.81678">
        <ele>268</ele>
        <time>2018-05-29T08:42:20Z</time>
      </trkpt>
      <trkpt lat="45.94174" lon="4.81688">
        <ele>267</ele>
        <time>2018-05-29T08:42:23Z</time>
      </trkpt>
      <trkpt lat="45.94175" lon="4.81692">
        <ele>267</ele>
        <time>2018-05-29T08:42:24Z</time>
      </trkpt>
      <trkpt lat="45.94178" lon="4.81702">
        <ele>267</ele>
        <time>2018-05-29T08:42:27Z</time>
      </trkpt>
      <trkpt lat="45.94179" lon="4.81706">
        <ele>267</ele>
        <time>2018-05-29T08:42:28Z</time>
      </trkpt>
      <trkpt lat="45.94181" lon="4.81715">
        <ele>267</ele>
        <time>2018-05-29T08:42:30Z</time>
      </trkpt>
      <trkpt lat="45.94181" lon="4.8172">
        <ele>267</ele>
        <time>2018-05-29T08:42:31Z</time>
      </trkpt>
      <trkpt lat="45.94182" lon="4.81732">
        <ele>267</ele>
        <time>2018-05-29T08:42:32Z</time>
      </trkpt>
      <trkpt lat="45.94183" lon="4.81738">
        <ele>267</ele>
        <time>2018-05-29T08:42:33Z</time>
      </trkpt>
      <trkpt lat="45.94184" lon="4.81749">
        <ele>267</ele>
        <time>2018-05-29T08:42:35Z</time>
      </trkpt>
      <trkpt lat="45.94185" lon="4.81752">
        <ele>267</ele>
        <time>2018-05-29T08:42:36Z</time>
      </trkpt>
      <trkpt lat="45.94188" lon="4.81759">
        <ele>266</ele>
        <time>2018-05-29T08:42:37Z</time>
      </trkpt>
      <trkpt lat="45.9419" lon="4.81763">
        <ele>266</ele>
        <time>2018-05-29T08:42:38Z</time>
      </trkpt>
      <trkpt lat="45.94194" lon="4.81772">
        <ele>266</ele>
        <time>2018-05-29T08:42:40Z</time>
      </trkpt>
      <trkpt lat="45.94195" lon="4.81778">
        <ele>266</ele>
        <time>2018-05-29T08:42:41Z</time>
      </trkpt>
      <trkpt lat="45.94196" lon="4.81788">
        <ele>266</ele>
        <time>2018-05-29T08:42:43Z</time>
      </trkpt>
      <trkpt lat="45.94197" lon="4.81794">
        <ele>266</ele>
        <time>2018-05-29T08:42:44Z</time>
      </trkpt>
      <trkpt lat="45.94197" lon="4.818">
        <ele>266</ele>
        <time>2018-05-29T08:42:46Z</time>
      </trkpt>
      <trkpt lat="45.94198" lon="4.8181">
        <ele>266</ele>
        <time>2018-05-29T08:42:47Z</time>
      </trkpt>
      <trkpt lat="45.94199" lon="4.81819">
        <ele>266</ele>
        <time>2018-05-29T08:42:50Z</time>
      </trkpt>
      <trkpt lat="45.94199" lon="4.81823">
        <ele>266</ele>
        <time>2018-05-29T08:42:51Z</time>
      </trkpt>
      <trkpt lat="45.94201" lon="4.81832">
        <ele>266</ele>
        <time>2018-05-29T08:42:53Z</time>
      </trkpt>
      <trkpt lat="45.94202" lon="4.81837">
        <ele>266</ele>
        <time>2018-05-29T08:42:54Z</time>
      </trkpt>
      <trkpt lat="45.94204" lon="4.81849">
        <ele>266</ele>
        <time>2018-05-29T08:42:55Z</time>
      </trkpt>
      <trkpt lat="45.94206" lon="4.8186">
        <ele>265</ele>
        <time>2018-05-29T08:42:57Z</time>
      </trkpt>
      <trkpt lat="45.94207" lon="4.81866">
        <ele>265</ele>
        <time>2018-05-29T08:42:58Z</time>
      </trkpt>
      <trkpt lat="45.94209" lon="4.81878">
        <ele>265</ele>
        <time>2018-05-29T08:43:00Z</time>
      </trkpt>
      <trkpt lat="45.94211" lon="4.81884">
        <ele>265</ele>
        <time>2018-05-29T08:43:01Z</time>
      </trkpt>
      <trkpt lat="45.94213" lon="4.81895">
        <ele>265</ele>
        <time>2018-05-29T08:43:03Z</time>
      </trkpt>
      <trkpt lat="45.94215" lon="4.819">
        <ele>265</ele>
        <time>2018-05-29T08:43:04Z</time>
      </trkpt>
      <trkpt lat="45.94217" lon="4.81912">
        <ele>265</ele>
        <time>2018-05-29T08:43:06Z</time>
      </trkpt>
      <trkpt lat="45.94219" lon="4.81918">
        <ele>264</ele>
        <time>2018-05-29T08:43:07Z</time>
      </trkpt>
      <trkpt lat="45.94221" lon="4.8193">
        <ele>264</ele>
        <time>2018-05-29T08:43:09Z</time>
      </trkpt>
      <trkpt lat="45.94221" lon="4.81936">
        <ele>264</ele>
        <time>2018-05-29T08:43:10Z</time>
      </trkpt>
      <trkpt lat="45.94224" lon="4.81942">
        <ele>264</ele>
        <time>2018-05-29T08:43:11Z</time>
      </trkpt>
      <trkpt lat="45.94225" lon="4.81948">
        <ele>264</ele>
        <time>2018-05-29T08:43:12Z</time>
      </trkpt>
      <trkpt lat="45.94228" lon="4.8196">
        <ele>264</ele>
        <time>2018-05-29T08:43:14Z</time>
      </trkpt>
      <trkpt lat="45.94229" lon="4.81968">
        <ele>264</ele>
        <time>2018-05-29T08:43:15Z</time>
      </trkpt>
      <trkpt lat="45.94231" lon="4.81975">
        <ele>264</ele>
        <time>2018-05-29T08:43:16Z</time>
      </trkpt>
      <trkpt lat="45.94232" lon="4.81982">
        <ele>263</ele>
        <time>2018-05-29T08:43:17Z</time>
      </trkpt>
      <trkpt lat="45.94234" lon="4.81988">
        <ele>263</ele>
        <time>2018-05-29T08:43:18Z</time>
      </trkpt>
      <trkpt lat="45.94235" lon="4.81996">
        <ele>263</ele>
        <time>2018-05-29T08:43:19Z</time>
      </trkpt>
      <trkpt lat="45.94236" lon="4.82004">
        <ele>263</ele>
        <time>2018-05-29T08:43:20Z</time>
      </trkpt>
      <trkpt lat="45.94238" lon="4.82011">
        <ele>263</ele>
        <time>2018-05-29T08:43:21Z</time>
      </trkpt>
      <trkpt lat="45.9424" lon="4.82023">
        <ele>263</ele>
        <time>2018-05-29T08:43:23Z</time>
      </trkpt>
      <trkpt lat="45.94241" lon="4.82029">
        <ele>263</ele>
        <time>2018-05-29T08:43:24Z</time>
      </trkpt>
      <trkpt lat="45.94243" lon="4.82036">
        <ele>263</ele>
        <time>2018-05-29T08:43:25Z</time>
      </trkpt>
      <trkpt lat="45.94245" lon="4.82045">
        <ele>263</ele>
        <time>2018-05-29T08:43:26Z</time>
      </trkpt>
      <trkpt lat="45.94248" lon="4.82055">
        <ele>263</ele>
        <time>2018-05-29T08:43:28Z</time>
      </trkpt>
      <trkpt lat="45.94249" lon="4.82062">
        <ele>263</ele>
        <time>2018-05-29T08:43:29Z</time>
      </trkpt>
      <trkpt lat="45.94252" lon="4.82074">
        <ele>262</ele>
        <time>2018-05-29T08:43:31Z</time>
      </trkpt>
      <trkpt lat="45.94254" lon="4.82083">
        <ele>262</ele>
        <time>2018-05-29T08:43:32Z</time>
      </trkpt>
      <trkpt lat="45.94256" lon="4.82095">
        <ele>262</ele>
        <time>2018-05-29T08:43:34Z</time>
      </trkpt>
      <trkpt lat="45.94257" lon="4.82101">
        <ele>262</ele>
        <time>2018-05-29T08:43:35Z</time>
      </trkpt>
      <trkpt lat="45.94258" lon="4.82108">
        <ele>263</ele>
        <time>2018-05-29T08:43:36Z</time>
      </trkpt>
      <trkpt lat="45.94259" lon="4.82114">
        <ele>263</ele>
        <time>2018-05-29T08:43:37Z</time>
      </trkpt>
      <trkpt lat="45.94261" lon="4.82126">
        <ele>263</ele>
        <time>2018-05-29T08:43:39Z</time>
      </trkpt>
      <trkpt lat="45.94262" lon="4.82131">
        <ele>263</ele>
        <time>2018-05-29T08:43:40Z</time>
      </trkpt>
      <trkpt lat="45.94264" lon="4.82143">
        <ele>263</ele>
        <time>2018-05-29T08:43:42Z</time>
      </trkpt>
      <trkpt lat="45.94265" lon="4.82148">
        <ele>263</ele>
        <time>2018-05-29T08:43:43Z</time>
      </trkpt>
      <trkpt lat="45.94267" lon="4.82161">
        <ele>263</ele>
        <time>2018-05-29T08:43:45Z</time>
      </trkpt>
      <trkpt lat="45.94269" lon="4.82168">
        <ele>263</ele>
        <time>2018-05-29T08:43:46Z</time>
      </trkpt>
      <trkpt lat="45.94271" lon="4.82175">
        <ele>264</ele>
        <time>2018-05-29T08:43:47Z</time>
      </trkpt>
      <trkpt lat="45.94272" lon="4.82183">
        <ele>264</ele>
        <time>2018-05-29T08:43:48Z</time>
      </trkpt>
      <trkpt lat="45.94273" lon="4.82191">
        <ele>264</ele>
        <time>2018-05-29T08:43:49Z</time>
      </trkpt>
      <trkpt lat="45.94274" lon="4.82199">
        <ele>264</ele>
        <time>2018-05-29T08:43:50Z</time>
      </trkpt>
      <trkpt lat="45.94277" lon="4.82205">
        <ele>264</ele>
        <time>2018-05-29T08:43:51Z</time>
      </trkpt>
      <trkpt lat="45.94277" lon="4.82214">
        <ele>264</ele>
        <time>2018-05-29T08:43:52Z</time>
      </trkpt>
      <trkpt lat="45.94278" lon="4.82221">
        <ele>264</ele>
        <time>2018-05-29T08:43:53Z</time>
      </trkpt>
      <trkpt lat="45.94279" lon="4.82228">
        <ele>264</ele>
        <time>2018-05-29T08:43:54Z</time>
      </trkpt>
      <trkpt lat="45.94279" lon="4.82235">
        <ele>264</ele>
        <time>2018-05-29T08:43:55Z</time>
      </trkpt>
      <trkpt lat="45.94279" lon="4.82241">
        <ele>264</ele>
        <time>2018-05-29T08:43:56Z</time>
      </trkpt>
      <trkpt lat="45.94279" lon="4.82249">
        <ele>264</ele>
        <time>2018-05-29T08:43:57Z</time>
      </trkpt>
      <trkpt lat="45.9428" lon="4.82256">
        <ele>265</ele>
        <time>2018-05-29T08:43:58Z</time>
      </trkpt>
      <trkpt lat="45.9428" lon="4.82263">
        <ele>265</ele>
        <time>2018-05-29T08:43:59Z</time>
      </trkpt>
      <trkpt lat="45.9428" lon="4.82271">
        <ele>265</ele>
        <time>2018-05-29T08:44:00Z</time>
      </trkpt>
      <trkpt lat="45.9428" lon="4.82278">
        <ele>265</ele>
        <time>2018-05-29T08:44:01Z</time>
      </trkpt>
      <trkpt lat="45.94281" lon="4.82285">
        <ele>265</ele>
        <time>2018-05-29T08:44:02Z</time>
      </trkpt>
      <trkpt lat="45.94281" lon="4.82292">
        <ele>265</ele>
        <time>2018-05-29T08:44:03Z</time>
      </trkpt>
      <trkpt lat="45.94282" lon="4.82299">
        <ele>265</ele>
        <time>2018-05-29T08:44:04Z</time>
      </trkpt>
      <trkpt lat="45.94282" lon="4.82307">
        <ele>265</ele>
        <time>2018-05-29T08:44:05Z</time>
      </trkpt>
      <trkpt lat="45.94283" lon="4.82314">
        <ele>265</ele>
        <time>2018-05-29T08:44:06Z</time>
      </trkpt>
      <trkpt lat="45.94283" lon="4.82322">
        <ele>265</ele>
        <time>2018-05-29T08:44:07Z</time>
      </trkpt>
      <trkpt lat="45.94285" lon="4.82329">
        <ele>265</ele>
        <time>2018-05-29T08:44:08Z</time>
      </trkpt>
      <trkpt lat="45.94285" lon="4.82337">
        <ele>264</ele>
        <time>2018-05-29T08:44:09Z</time>
      </trkpt>
      <trkpt lat="45.94285" lon="4.82344">
        <ele>264</ele>
        <time>2018-05-29T08:44:10Z</time>
      </trkpt>
      <trkpt lat="45.94285" lon="4.82351">
        <ele>264</ele>
        <time>2018-05-29T08:44:11Z</time>
      </trkpt>
      <trkpt lat="45.94285" lon="4.82358">
        <ele>264</ele>
        <time>2018-05-29T08:44:12Z</time>
      </trkpt>
      <trkpt lat="45.94286" lon="4.8237">
        <ele>264</ele>
        <time>2018-05-29T08:44:14Z</time>
      </trkpt>
      <trkpt lat="45.94286" lon="4.82376">
        <ele>264</ele>
        <time>2018-05-29T08:44:15Z</time>
      </trkpt>
      <trkpt lat="45.94287" lon="4.82383">
        <ele>264</ele>
        <time>2018-05-29T08:44:16Z</time>
      </trkpt>
      <trkpt lat="45.94287" lon="4.82391">
        <ele>264</ele>
        <time>2018-05-29T08:44:17Z</time>
      </trkpt>
      <trkpt lat="45.94288" lon="4.82398">
        <ele>264</ele>
        <time>2018-05-29T08:44:18Z</time>
      </trkpt>
      <trkpt lat="45.94288" lon="4.82405">
        <ele>264</ele>
        <time>2018-05-29T08:44:19Z</time>
      </trkpt>
      <trkpt lat="45.94288" lon="4.82412">
        <ele>264</ele>
        <time>2018-05-29T08:44:20Z</time>
      </trkpt>
      <trkpt lat="45.94289" lon="4.82419">
        <ele>264</ele>
        <time>2018-05-29T08:44:21Z</time>
      </trkpt>
      <trkpt lat="45.94289" lon="4.82426">
        <ele>264</ele>
        <time>2018-05-29T08:44:22Z</time>
      </trkpt>
      <trkpt lat="45.94289" lon="4.82433">
        <ele>264</ele>
        <time>2018-05-29T08:44:23Z</time>
      </trkpt>
      <trkpt lat="45.94289" lon="4.8244">
        <ele>264</ele>
        <time>2018-05-29T08:44:24Z</time>
      </trkpt>
      <trkpt lat="45.94289" lon="4.82447">
        <ele>264</ele>
        <time>2018-05-29T08:44:25Z</time>
      </trkpt>
      <trkpt lat="45.9429" lon="4.82459">
        <ele>264</ele>
        <time>2018-05-29T08:44:27Z</time>
      </trkpt>
      <trkpt lat="45.9429" lon="4.82466">
        <ele>264</ele>
        <time>2018-05-29T08:44:28Z</time>
      </trkpt>
      <trkpt lat="45.9429" lon="4.82472">
        <ele>264</ele>
        <time>2018-05-29T08:44:29Z</time>
      </trkpt>
      <trkpt lat="45.94291" lon="4.82479">
        <ele>264</ele>
        <time>2018-05-29T08:44:30Z</time>
      </trkpt>
      <trkpt lat="45.94292" lon="4.82486">
        <ele>264</ele>
        <time>2018-05-29T08:44:31Z</time>
      </trkpt>
      <trkpt lat="45.94292" lon="4.82493">
        <ele>264</ele>
        <time>2018-05-29T08:44:32Z</time>
      </trkpt>
      <trkpt lat="45.94292" lon="4.82505">
        <ele>264</ele>
        <time>2018-05-29T08:44:34Z</time>
      </trkpt>
      <trkpt lat="45.94292" lon="4.82511">
        <ele>264</ele>
        <time>2018-05-29T08:44:35Z</time>
      </trkpt>
      <trkpt lat="45.94292" lon="4.82523">
        <ele>264</ele>
        <time>2018-05-29T08:44:37Z</time>
      </trkpt>
      <trkpt lat="45.94292" lon="4.82529">
        <ele>264</ele>
        <time>2018-05-29T08:44:38Z</time>
      </trkpt>
      <trkpt lat="45.94291" lon="4.82539">
        <ele>264</ele>
        <time>2018-05-29T08:44:40Z</time>
      </trkpt>
      <trkpt lat="45.94291" lon="4.82544">
        <ele>264</ele>
        <time>2018-05-29T08:44:41Z</time>
      </trkpt>
      <trkpt lat="45.9429" lon="4.82556">
        <ele>264</ele>
        <time>2018-05-29T08:44:43Z</time>
      </trkpt>
      <trkpt lat="45.9429" lon="4.82562">
        <ele>264</ele>
        <time>2018-05-29T08:44:44Z</time>
      </trkpt>
      <trkpt lat="45.9429" lon="4.82569">
        <ele>264</ele>
        <time>2018-05-29T08:44:45Z</time>
      </trkpt>
      <trkpt lat="45.9429" lon="4.82575">
        <ele>265</ele>
        <time>2018-05-29T08:44:46Z</time>
      </trkpt>
      <trkpt lat="45.9429" lon="4.82582">
        <ele>265</ele>
        <time>2018-05-29T08:44:47Z</time>
      </trkpt>
      <trkpt lat="45.9429" lon="4.82588">
        <ele>265</ele>
        <time>2018-05-29T08:44:48Z</time>
      </trkpt>
      <trkpt lat="45.9429" lon="4.82595">
        <ele>265</ele>
        <time>2018-05-29T08:44:49Z</time>
      </trkpt>
      <trkpt lat="45.94289" lon="4.82602">
        <ele>265</ele>
        <time>2018-05-29T08:44:50Z</time>
      </trkpt>
      <trkpt lat="45.94289" lon="4.82614">
        <ele>265</ele>
        <time>2018-05-29T08:44:52Z</time>
      </trkpt>
      <trkpt lat="45.94289" lon="4.82621">
        <ele>265</ele>
        <time>2018-05-29T08:44:53Z</time>
      </trkpt>
      <trkpt lat="45.9429" lon="4.82627">
        <ele>265</ele>
        <time>2018-05-29T08:44:54Z</time>
      </trkpt>
      <trkpt lat="45.9429" lon="4.82634">
        <ele>265</ele>
        <time>2018-05-29T08:44:55Z</time>
      </trkpt>
      <trkpt lat="45.9429" lon="4.8264">
        <ele>265</ele>
        <time>2018-05-29T08:44:56Z</time>
      </trkpt>
      <trkpt lat="45.94291" lon="4.82647">
        <ele>265</ele>
        <time>2018-05-29T08:44:57Z</time>
      </trkpt>
      <trkpt lat="45.9429" lon="4.82654">
        <ele>265</ele>
        <time>2018-05-29T08:44:58Z</time>
      </trkpt>
      <trkpt lat="45.9429" lon="4.8266">
        <ele>265</ele>
        <time>2018-05-29T08:44:59Z</time>
      </trkpt>
      <trkpt lat="45.9429" lon="4.82667">
        <ele>265</ele>
        <time>2018-05-29T08:45:00Z</time>
      </trkpt>
      <trkpt lat="45.9429" lon="4.82674">
        <ele>265</ele>
        <time>2018-05-29T08:45:01Z</time>
      </trkpt>
      <trkpt lat="45.94289" lon="4.82686">
        <ele>265</ele>
        <time>2018-05-29T08:45:03Z</time>
      </trkpt>
      <trkpt lat="45.94289" lon="4.82692">
        <ele>265</ele>
        <time>2018-05-29T08:45:04Z</time>
      </trkpt>
      <trkpt lat="45.94289" lon="4.82699">
        <ele>265</ele>
        <time>2018-05-29T08:45:05Z</time>
      </trkpt>
      <trkpt lat="45.94288" lon="4.82706">
        <ele>265</ele>
        <time>2018-05-29T08:45:06Z</time>
      </trkpt>
      <trkpt lat="45.94288" lon="4.82713">
        <ele>265</ele>
        <time>2018-05-29T08:45:07Z</time>
      </trkpt>
      <trkpt lat="45.9429" lon="4.82721">
        <ele>265</ele>
        <time>2018-05-29T08:45:08Z</time>
      </trkpt>
      <trkpt lat="45.9429" lon="4.82728">
        <ele>265</ele>
        <time>2018-05-29T08:45:09Z</time>
      </trkpt>
      <trkpt lat="45.9429" lon="4.82734">
        <ele>265</ele>
        <time>2018-05-29T08:45:10Z</time>
      </trkpt>
      <trkpt lat="45.9429" lon="4.82746">
        <ele>265</ele>
        <time>2018-05-29T08:45:12Z</time>
      </trkpt>
      <trkpt lat="45.94289" lon="4.82752">
        <ele>265</ele>
        <time>2018-05-29T08:45:13Z</time>
      </trkpt>
      <trkpt lat="45.94289" lon="4.82763">
        <ele>265</ele>
        <time>2018-05-29T08:45:15Z</time>
      </trkpt>
      <trkpt lat="45.94288" lon="4.82769">
        <ele>265</ele>
        <time>2018-05-29T08:45:16Z</time>
      </trkpt>
      <trkpt lat="45.94288" lon="4.82779">
        <ele>265</ele>
        <time>2018-05-29T08:45:18Z</time>
      </trkpt>
      <trkpt lat="45.94288" lon="4.82785">
        <ele>265</ele>
        <time>2018-05-29T08:45:19Z</time>
      </trkpt>
      <trkpt lat="45.94287" lon="4.82796">
        <ele>265</ele>
        <time>2018-05-29T08:45:21Z</time>
      </trkpt>
      <trkpt lat="45.94287" lon="4.82799">
        <ele>265</ele>
        <time>2018-05-29T08:45:22Z</time>
      </trkpt>
      <trkpt lat="45.94287" lon="4.82808">
        <ele>265</ele>
        <time>2018-05-29T08:45:23Z</time>
      </trkpt>
      <trkpt lat="45.94288" lon="4.82813">
        <ele>265</ele>
        <time>2018-05-29T08:45:24Z</time>
      </trkpt>
      <trkpt lat="45.94287" lon="4.82826">
        <ele>265</ele>
        <time>2018-05-29T08:45:26Z</time>
      </trkpt>
      <trkpt lat="45.94287" lon="4.82832">
        <ele>265</ele>
        <time>2018-05-29T08:45:27Z</time>
      </trkpt>
      <trkpt lat="45.94287" lon="4.8284">
        <ele>265</ele>
        <time>2018-05-29T08:45:28Z</time>
      </trkpt>
      <trkpt lat="45.94287" lon="4.82847">
        <ele>265</ele>
        <time>2018-05-29T08:45:29Z</time>
      </trkpt>
      <trkpt lat="45.94286" lon="4.82853">
        <ele>265</ele>
        <time>2018-05-29T08:45:30Z</time>
      </trkpt>
      <trkpt lat="45.94287" lon="4.82861">
        <ele>265</ele>
        <time>2018-05-29T08:45:31Z</time>
      </trkpt>
      <trkpt lat="45.94286" lon="4.82867">
        <ele>265</ele>
        <time>2018-05-29T08:45:32Z</time>
      </trkpt>
      <trkpt lat="45.94286" lon="4.82875">
        <ele>265</ele>
        <time>2018-05-29T08:45:33Z</time>
      </trkpt>
      <trkpt lat="45.94287" lon="4.82883">
        <ele>265</ele>
        <time>2018-05-29T08:45:34Z</time>
      </trkpt>
      <trkpt lat="45.94286" lon="4.82891">
        <ele>265</ele>
        <time>2018-05-29T08:45:35Z</time>
      </trkpt>
      <trkpt lat="45.94286" lon="4.82899">
        <ele>265</ele>
        <time>2018-05-29T08:45:36Z</time>
      </trkpt>
      <trkpt lat="45.94286" lon="4.82906">
        <ele>265</ele>
        <time>2018-05-29T08:45:37Z</time>
      </trkpt>
      <trkpt lat="45.94285" lon="4.82915">
        <ele>265</ele>
        <time>2018-05-29T08:45:38Z</time>
      </trkpt>
      <trkpt lat="45.94284" lon="4.82923">
        <ele>265</ele>
        <time>2018-05-29T08:45:39Z</time>
      </trkpt>
      <trkpt lat="45.94283" lon="4.82931">
        <ele>265</ele>
        <time>2018-05-29T08:45:40Z</time>
      </trkpt>
      <trkpt lat="45.94282" lon="4.82939">
        <ele>265</ele>
        <time>2018-05-29T08:45:41Z</time>
      </trkpt>
      <trkpt lat="45.94279" lon="4.82946">
        <ele>265</ele>
        <time>2018-05-29T08:45:42Z</time>
      </trkpt>
      <trkpt lat="45.94279" lon="4.82952">
        <ele>265</ele>
        <time>2018-05-29T08:45:43Z</time>
      </trkpt>
      <trkpt lat="45.94279" lon="4.8296">
        <ele>265</ele>
        <time>2018-05-29T08:45:44Z</time>
      </trkpt>
      <trkpt lat="45.94281" lon="4.82966">
        <ele>265</ele>
        <time>2018-05-29T08:45:45Z</time>
      </trkpt>
      <trkpt lat="45.94283" lon="4.82972">
        <ele>265</ele>
        <time>2018-05-29T08:45:46Z</time>
      </trkpt>
      <trkpt lat="45.94285" lon="4.82978">
        <ele>265</ele>
        <time>2018-05-29T08:45:47Z</time>
      </trkpt>
      <trkpt lat="45.94289" lon="4.8299">
        <ele>265</ele>
        <time>2018-05-29T08:45:49Z</time>
      </trkpt>
      <trkpt lat="45.94291" lon="4.82995">
        <ele>265</ele>
        <time>2018-05-29T08:45:50Z</time>
      </trkpt>
      <trkpt lat="45.94292" lon="4.83002">
        <ele>266</ele>
        <time>2018-05-29T08:45:51Z</time>
      </trkpt>
      <trkpt lat="45.94294" lon="4.83008">
        <ele>266</ele>
        <time>2018-05-29T08:45:52Z</time>
      </trkpt>
      <trkpt lat="45.94295" lon="4.83015">
        <ele>266</ele>
        <time>2018-05-29T08:45:53Z</time>
      </trkpt>
      <trkpt lat="45.94296" lon="4.83022">
        <ele>266</ele>
        <time>2018-05-29T08:45:54Z</time>
      </trkpt>
      <trkpt lat="45.94298" lon="4.83029">
        <ele>266</ele>
        <time>2018-05-29T08:45:55Z</time>
      </trkpt>
      <trkpt lat="45.94299" lon="4.83035">
        <ele>266</ele>
        <time>2018-05-29T08:45:56Z</time>
      </trkpt>
      <trkpt lat="45.94301" lon="4.83042">
        <ele>266</ele>
        <time>2018-05-29T08:45:57Z</time>
      </trkpt>
      <trkpt lat="45.94302" lon="4.83048">
        <ele>266</ele>
        <time>2018-05-29T08:45:58Z</time>
      </trkpt>
      <trkpt lat="45.94303" lon="4.83053">
        <ele>266</ele>
        <time>2018-05-29T08:45:59Z</time>
      </trkpt>
      <trkpt lat="45.94305" lon="4.8306">
        <ele>266</ele>
        <time>2018-05-29T08:46:00Z</time>
      </trkpt>
      <trkpt lat="45.94306" lon="4.83067">
        <ele>266</ele>
        <time>2018-05-29T08:46:01Z</time>
      </trkpt>
      <trkpt lat="45.94308" lon="4.83073">
        <ele>266</ele>
        <time>2018-05-29T08:46:02Z</time>
      </trkpt>
      <trkpt lat="45.94309" lon="4.83079">
        <ele>266</ele>
        <time>2018-05-29T08:46:03Z</time>
      </trkpt>
      <trkpt lat="45.9431" lon="4.83086">
        <ele>266</ele>
        <time>2018-05-29T08:46:04Z</time>
      </trkpt>
      <trkpt lat="45.94312" lon="4.83092">
        <ele>266</ele>
        <time>2018-05-29T08:46:05Z</time>
      </trkpt>
      <trkpt lat="45.94314" lon="4.83099">
        <ele>266</ele>
        <time>2018-05-29T08:46:06Z</time>
      </trkpt>
      <trkpt lat="45.94316" lon="4.83104">
        <ele>266</ele>
        <time>2018-05-29T08:46:07Z</time>
      </trkpt>
      <trkpt lat="45.94318" lon="4.8311">
        <ele>266</ele>
        <time>2018-05-29T08:46:08Z</time>
      </trkpt>
      <trkpt lat="45.94322" lon="4.83121">
        <ele>266</ele>
        <time>2018-05-29T08:46:10Z</time>
      </trkpt>
      <trkpt lat="45.94324" lon="4.83127">
        <ele>266</ele>
        <time>2018-05-29T08:46:11Z</time>
      </trkpt>
      <trkpt lat="45.94327" lon="4.83133">
        <ele>266</ele>
        <time>2018-05-29T08:46:12Z</time>
      </trkpt>
      <trkpt lat="45.9433" lon="4.83138">
        <ele>266</ele>
        <time>2018-05-29T08:46:13Z</time>
      </trkpt>
      <trkpt lat="45.94332" lon="4.83145">
        <ele>266</ele>
        <time>2018-05-29T08:46:14Z</time>
      </trkpt>
      <trkpt lat="45.94334" lon="4.83152">
        <ele>266</ele>
        <time>2018-05-29T08:46:15Z</time>
      </trkpt>
      <trkpt lat="45.94336" lon="4.83158">
        <ele>266</ele>
        <time>2018-05-29T08:46:16Z</time>
      </trkpt>
      <trkpt lat="45.94339" lon="4.83165">
        <ele>266</ele>
        <time>2018-05-29T08:46:17Z</time>
      </trkpt>
      <trkpt lat="45.94341" lon="4.83172">
        <ele>266</ele>
        <time>2018-05-29T08:46:18Z</time>
      </trkpt>
      <trkpt lat="45.94343" lon="4.83179">
        <ele>266</ele>
        <time>2018-05-29T08:46:19Z</time>
      </trkpt>
      <trkpt lat="45.94346" lon="4.83186">
        <ele>266</ele>
        <time>2018-05-29T08:46:20Z</time>
      </trkpt>
      <trkpt lat="45.94348" lon="4.83192">
        <ele>266</ele>
        <time>2018-05-29T08:46:21Z</time>
      </trkpt>
      <trkpt lat="45.9435" lon="4.83199">
        <ele>266</ele>
        <time>2018-05-29T08:46:22Z</time>
      </trkpt>
      <trkpt lat="45.94352" lon="4.83205">
        <ele>266</ele>
        <time>2018-05-29T08:46:23Z</time>
      </trkpt>
      <trkpt lat="45.94354" lon="4.83211">
        <ele>266</ele>
        <time>2018-05-29T08:46:24Z</time>
      </trkpt>
      <trkpt lat="45.94356" lon="4.83217">
        <ele>266</ele>
        <time>2018-05-29T08:46:25Z</time>
      </trkpt>
      <trkpt lat="45.94359" lon="4.83223">
        <ele>266</ele>
        <time>2018-05-29T08:46:26Z</time>
      </trkpt>
      <trkpt lat="45.94361" lon="4.83229">
        <ele>266</ele>
        <time>2018-05-29T08:46:27Z</time>
      </trkpt>
      <trkpt lat="45.94363" lon="4.83234">
        <ele>266</ele>
        <time>2018-05-29T08:46:28Z</time>
      </trkpt>
      <trkpt lat="45.94365" lon="4.83241">
        <ele>265</ele>
        <time>2018-05-29T08:46:29Z</time>
      </trkpt>
      <trkpt lat="45.94367" lon="4.83247">
        <ele>265</ele>
        <time>2018-05-29T08:46:30Z</time>
      </trkpt>
      <trkpt lat="45.94371" lon="4.83254">
        <ele>265</ele>
        <time>2018-05-29T08:46:31Z</time>
      </trkpt>
      <trkpt lat="45.94373" lon="4.83262">
        <ele>264</ele>
        <time>2018-05-29T08:46:32Z</time>
      </trkpt>
      <trkpt lat="45.94376" lon="4.83269">
        <ele>264</ele>
        <time>2018-05-29T08:46:33Z</time>
      </trkpt>
      <trkpt lat="45.94378" lon="4.83278">
        <ele>264</ele>
        <time>2018-05-29T08:46:34Z</time>
      </trkpt>
      <trkpt lat="45.94381" lon="4.83286">
        <ele>264</ele>
        <time>2018-05-29T08:46:35Z</time>
      </trkpt>
      <trkpt lat="45.94383" lon="4.83293">
        <ele>264</ele>
        <time>2018-05-29T08:46:36Z</time>
      </trkpt>
      <trkpt lat="45.94386" lon="4.83301">
        <ele>264</ele>
        <time>2018-05-29T08:46:37Z</time>
      </trkpt>
      <trkpt lat="45.94389" lon="4.83308">
        <ele>264</ele>
        <time>2018-05-29T08:46:38Z</time>
      </trkpt>
      <trkpt lat="45.94391" lon="4.83314">
        <ele>264</ele>
        <time>2018-05-29T08:46:39Z</time>
      </trkpt>
      <trkpt lat="45.94394" lon="4.83321">
        <ele>264</ele>
        <time>2018-05-29T08:46:40Z</time>
      </trkpt>
      <trkpt lat="45.94396" lon="4.83328">
        <ele>264</ele>
        <time>2018-05-29T08:46:41Z</time>
      </trkpt>
      <trkpt lat="45.94398" lon="4.83335">
        <ele>263</ele>
        <time>2018-05-29T08:46:42Z</time>
      </trkpt>
      <trkpt lat="45.944" lon="4.83341">
        <ele>263</ele>
        <time>2018-05-29T08:46:43Z</time>
      </trkpt>
      <trkpt lat="45.94403" lon="4.83348">
        <ele>263</ele>
        <time>2018-05-29T08:46:44Z</time>
      </trkpt>
      <trkpt lat="45.94405" lon="4.83354">
        <ele>263</ele>
        <time>2018-05-29T08:46:45Z</time>
      </trkpt>
      <trkpt lat="45.94408" lon="4.83361">
        <ele>264</ele>
        <time>2018-05-29T08:46:46Z</time>
      </trkpt>
      <trkpt lat="45.9441" lon="4.83367">
        <ele>264</ele>
        <time>2018-05-29T08:46:47Z</time>
      </trkpt>
      <trkpt lat="45.94413" lon="4.83373">
        <ele>264</ele>
        <time>2018-05-29T08:46:48Z</time>
      </trkpt>
      <trkpt lat="45.94416" lon="4.8338">
        <ele>264</ele>
        <time>2018-05-29T08:46:49Z</time>
      </trkpt>
      <trkpt lat="45.94417" lon="4.83387">
        <ele>264</ele>
        <time>2018-05-29T08:46:50Z</time>
      </trkpt>
      <trkpt lat="45.94421" lon="4.83395">
        <ele>264</ele>
        <time>2018-05-29T08:46:51Z</time>
      </trkpt>
      <trkpt lat="45.94423" lon="4.834">
        <ele>264</ele>
        <time>2018-05-29T08:46:52Z</time>
      </trkpt>
      <trkpt lat="45.94426" lon="4.83406">
        <ele>264</ele>
        <time>2018-05-29T08:46:53Z</time>
      </trkpt>
      <trkpt lat="45.9443" lon="4.8341">
        <ele>264</ele>
        <time>2018-05-29T08:46:54Z</time>
      </trkpt>
      <trkpt lat="45.94435" lon="4.83418">
        <ele>264</ele>
        <time>2018-05-29T08:46:55Z</time>
      </trkpt>
      <trkpt lat="45.94437" lon="4.83426">
        <ele>264</ele>
        <time>2018-05-29T08:46:56Z</time>
      </trkpt>
      <trkpt lat="45.94441" lon="4.83431">
        <ele>263</ele>
        <time>2018-05-29T08:46:57Z</time>
      </trkpt>
      <trkpt lat="45.94443" lon="4.83436">
        <ele>263</ele>
        <time>2018-05-29T08:46:58Z</time>
      </trkpt>
      <trkpt lat="45.94446" lon="4.83443">
        <ele>263</ele>
        <time>2018-05-29T08:46:59Z</time>
      </trkpt>
      <trkpt lat="45.94449" lon="4.83449">
        <ele>263</ele>
        <time>2018-05-29T08:47:00Z</time>
      </trkpt>
      <trkpt lat="45.94453" lon="4.83455">
        <ele>263</ele>
        <time>2018-05-29T08:47:01Z</time>
      </trkpt>
      <trkpt lat="45.94456" lon="4.83461">
        <ele>263</ele>
        <time>2018-05-29T08:47:02Z</time>
      </trkpt>
      <trkpt lat="45.9446" lon="4.83467">
        <ele>263</ele>
        <time>2018-05-29T08:47:03Z</time>
      </trkpt>
      <trkpt lat="45.94463" lon="4.83473">
        <ele>263</ele>
        <time>2018-05-29T08:47:04Z</time>
      </trkpt>
      <trkpt lat="45.94467" lon="4.83481">
        <ele>263</ele>
        <time>2018-05-29T08:47:05Z</time>
      </trkpt>
      <trkpt lat="45.94471" lon="4.83487">
        <ele>263</ele>
        <time>2018-05-29T08:47:06Z</time>
      </trkpt>
      <trkpt lat="45.94475" lon="4.83493">
        <ele>263</ele>
        <time>2018-05-29T08:47:07Z</time>
      </trkpt>
      <trkpt lat="45.94481" lon="4.835">
        <ele>263</ele>
        <time>2018-05-29T08:47:08Z</time>
      </trkpt>
      <trkpt lat="45.94484" lon="4.83506">
        <ele>262</ele>
        <time>2018-05-29T08:47:09Z</time>
      </trkpt>
      <trkpt lat="45.94488" lon="4.83511">
        <ele>262</ele>
        <time>2018-05-29T08:47:10Z</time>
      </trkpt>
      <trkpt lat="45.94492" lon="4.83518">
        <ele>262</ele>
        <time>2018-05-29T08:47:11Z</time>
      </trkpt>
      <trkpt lat="45.94497" lon="4.83526">
        <ele>262</ele>
        <time>2018-05-29T08:47:13Z</time>
      </trkpt>
      <trkpt lat="45.94499" lon="4.83531">
        <ele>262</ele>
        <time>2018-05-29T08:47:14Z</time>
      </trkpt>
      <trkpt lat="45.94502" lon="4.83536">
        <ele>262</ele>
        <time>2018-05-29T08:47:15Z</time>
      </trkpt>
      <trkpt lat="45.94506" lon="4.83543">
        <ele>261</ele>
        <time>2018-05-29T08:47:16Z</time>
      </trkpt>
      <trkpt lat="45.94509" lon="4.8355">
        <ele>261</ele>
        <time>2018-05-29T08:47:17Z</time>
      </trkpt>
      <trkpt lat="45.94513" lon="4.83556">
        <ele>261</ele>
        <time>2018-05-29T08:47:18Z</time>
      </trkpt>
      <trkpt lat="45.94516" lon="4.83562">
        <ele>261</ele>
        <time>2018-05-29T08:47:19Z</time>
      </trkpt>
      <trkpt lat="45.94519" lon="4.83569">
        <ele>261</ele>
        <time>2018-05-29T08:47:20Z</time>
      </trkpt>
      <trkpt lat="45.94522" lon="4.83576">
        <ele>261</ele>
        <time>2018-05-29T08:47:21Z</time>
      </trkpt>
      <trkpt lat="45.94524" lon="4.83582">
        <ele>261</ele>
        <time>2018-05-29T08:47:22Z</time>
      </trkpt>
      <trkpt lat="45.94526" lon="4.83589">
        <ele>261</ele>
        <time>2018-05-29T08:47:23Z</time>
      </trkpt>
      <trkpt lat="45.94527" lon="4.83595">
        <ele>261</ele>
        <time>2018-05-29T08:47:24Z</time>
      </trkpt>
      <trkpt lat="45.94529" lon="4.83602">
        <ele>261</ele>
        <time>2018-05-29T08:47:25Z</time>
      </trkpt>
      <trkpt lat="45.94531" lon="4.8361">
        <ele>261</ele>
        <time>2018-05-29T08:47:26Z</time>
      </trkpt>
      <trkpt lat="45.94532" lon="4.83618">
        <ele>261</ele>
        <time>2018-05-29T08:47:27Z</time>
      </trkpt>
      <trkpt lat="45.94533" lon="4.83626">
        <ele>261</ele>
        <time>2018-05-29T08:47:28Z</time>
      </trkpt>
      <trkpt lat="45.94534" lon="4.83634">
        <ele>261</ele>
        <time>2018-05-29T08:47:29Z</time>
      </trkpt>
      <trkpt lat="45.94535" lon="4.83642">
        <ele>261</ele>
        <time>2018-05-29T08:47:30Z</time>
      </trkpt>
      <trkpt lat="45.94536" lon="4.83649">
        <ele>261</ele>
        <time>2018-05-29T08:47:31Z</time>
      </trkpt>
      <trkpt lat="45.94538" lon="4.83658">
        <ele>261</ele>
        <time>2018-05-29T08:47:32Z</time>
      </trkpt>
      <trkpt lat="45.94539" lon="4.83666">
        <ele>261</ele>
        <time>2018-05-29T08:47:33Z</time>
      </trkpt>
      <trkpt lat="45.94541" lon="4.83672">
        <ele>262</ele>
        <time>2018-05-29T08:47:34Z</time>
      </trkpt>
      <trkpt lat="45.94542" lon="4.8368">
        <ele>262</ele>
        <time>2018-05-29T08:47:35Z</time>
      </trkpt>
      <trkpt lat="45.94543" lon="4.83688">
        <ele>262</ele>
        <time>2018-05-29T08:47:36Z</time>
      </trkpt>
      <trkpt lat="45.94544" lon="4.83696">
        <ele>262</ele>
        <time>2018-05-29T08:47:37Z</time>
      </trkpt>
      <trkpt lat="45.94545" lon="4.83702">
        <ele>262</ele>
        <time>2018-05-29T08:47:38Z</time>
      </trkpt>
      <trkpt lat="45.94546" lon="4.83715">
        <ele>262</ele>
        <time>2018-05-29T08:47:40Z</time>
      </trkpt>
      <trkpt lat="45.94548" lon="4.83722">
        <ele>262</ele>
        <time>2018-05-29T08:47:41Z</time>
      </trkpt>
      <trkpt lat="45.94549" lon="4.83729">
        <ele>262</ele>
        <time>2018-05-29T08:47:42Z</time>
      </trkpt>
      <trkpt lat="45.9455" lon="4.83736">
        <ele>262</ele>
        <time>2018-05-29T08:47:43Z</time>
      </trkpt>
      <trkpt lat="45.94552" lon="4.83743">
        <ele>262</ele>
        <time>2018-05-29T08:47:44Z</time>
      </trkpt>
      <trkpt lat="45.94553" lon="4.8375">
        <ele>263</ele>
        <time>2018-05-29T08:47:45Z</time>
      </trkpt>
      <trkpt lat="45.94554" lon="4.83758">
        <ele>263</ele>
        <time>2018-05-29T08:47:46Z</time>
      </trkpt>
      <trkpt lat="45.94555" lon="4.83766">
        <ele>263</ele>
        <time>2018-05-29T08:47:47Z</time>
      </trkpt>
      <trkpt lat="45.94557" lon="4.83773">
        <ele>264</ele>
        <time>2018-05-29T08:47:48Z</time>
      </trkpt>
      <trkpt lat="45.94558" lon="4.8378">
        <ele>264</ele>
        <time>2018-05-29T08:47:49Z</time>
      </trkpt>
      <trkpt lat="45.94559" lon="4.83787">
        <ele>264</ele>
        <time>2018-05-29T08:47:50Z</time>
      </trkpt>
      <trkpt lat="45.9456" lon="4.83795">
        <ele>264</ele>
        <time>2018-05-29T08:47:51Z</time>
      </trkpt>
      <trkpt lat="45.9456" lon="4.83802">
        <ele>264</ele>
        <time>2018-05-29T08:47:52Z</time>
      </trkpt>
      <trkpt lat="45.94562" lon="4.83807">
        <ele>264</ele>
        <time>2018-05-29T08:47:53Z</time>
      </trkpt>
      <trkpt lat="45.94563" lon="4.83814">
        <ele>264</ele>
        <time>2018-05-29T08:47:54Z</time>
      </trkpt>
      <trkpt lat="45.94563" lon="4.83821">
        <ele>264</ele>
        <time>2018-05-29T08:47:55Z</time>
      </trkpt>
      <trkpt lat="45.94565" lon="4.83834">
        <ele>266</ele>
        <time>2018-05-29T08:47:57Z</time>
      </trkpt>
      <trkpt lat="45.94566" lon="4.83841">
        <ele>266</ele>
        <time>2018-05-29T08:47:58Z</time>
      </trkpt>
      <trkpt lat="45.94567" lon="4.83849">
        <ele>266</ele>
        <time>2018-05-29T08:48:00Z</time>
      </trkpt>
      <trkpt lat="45.94568" lon="4.83857">
        <ele>267</ele>
        <time>2018-05-29T08:48:01Z</time>
      </trkpt>
      <trkpt lat="45.94569" lon="4.83866">
        <ele>267</ele>
        <time>2018-05-29T08:48:02Z</time>
      </trkpt>
      <trkpt lat="45.9457" lon="4.83873">
        <ele>267</ele>
        <time>2018-05-29T08:48:03Z</time>
      </trkpt>
      <trkpt lat="45.94572" lon="4.83885">
        <ele>267</ele>
        <time>2018-05-29T08:48:05Z</time>
      </trkpt>
      <trkpt lat="45.94573" lon="4.83891">
        <ele>267</ele>
        <time>2018-05-29T08:48:06Z</time>
      </trkpt>
      <trkpt lat="45.94575" lon="4.83904">
        <ele>268</ele>
        <time>2018-05-29T08:48:08Z</time>
      </trkpt>
      <trkpt lat="45.94576" lon="4.8391">
        <ele>268</ele>
        <time>2018-05-29T08:48:09Z</time>
      </trkpt>
      <trkpt lat="45.94576" lon="4.83915">
        <ele>268</ele>
        <time>2018-05-29T08:48:10Z</time>
      </trkpt>
      <trkpt lat="45.94578" lon="4.83924">
        <ele>268</ele>
        <time>2018-05-29T08:48:11Z</time>
      </trkpt>
      <trkpt lat="45.9458" lon="4.83933">
        <ele>269</ele>
        <time>2018-05-29T08:48:13Z</time>
      </trkpt>
      <trkpt lat="45.94581" lon="4.83941">
        <ele>269</ele>
        <time>2018-05-29T08:48:14Z</time>
      </trkpt>
      <trkpt lat="45.94582" lon="4.83947">
        <ele>269</ele>
        <time>2018-05-29T08:48:15Z</time>
      </trkpt>
      <trkpt lat="45.94582" lon="4.83955">
        <ele>269</ele>
        <time>2018-05-29T08:48:16Z</time>
      </trkpt>
      <trkpt lat="45.94584" lon="4.83961">
        <ele>268</ele>
        <time>2018-05-29T08:48:17Z</time>
      </trkpt>
      <trkpt lat="45.94586" lon="4.83968">
        <ele>268</ele>
        <time>2018-05-29T08:48:18Z</time>
      </trkpt>
      <trkpt lat="45.94586" lon="4.83974">
        <ele>268</ele>
        <time>2018-05-29T08:48:19Z</time>
      </trkpt>
      <trkpt lat="45.94587" lon="4.83982">
        <ele>268</ele>
        <time>2018-05-29T08:48:20Z</time>
      </trkpt>
      <trkpt lat="45.94589" lon="4.83995">
        <ele>269</ele>
        <time>2018-05-29T08:48:22Z</time>
      </trkpt>
      <trkpt lat="45.9459" lon="4.84002">
        <ele>269</ele>
        <time>2018-05-29T08:48:23Z</time>
      </trkpt>
      <trkpt lat="45.94591" lon="4.84009">
        <ele>269</ele>
        <time>2018-05-29T08:48:24Z</time>
      </trkpt>
      <trkpt lat="45.94592" lon="4.84018">
        <ele>269</ele>
        <time>2018-05-29T08:48:25Z</time>
      </trkpt>
      <trkpt lat="45.94593" lon="4.84025">
        <ele>269</ele>
        <time>2018-05-29T08:48:26Z</time>
      </trkpt>
      <trkpt lat="45.94595" lon="4.84034">
        <ele>269</ele>
        <time>2018-05-29T08:48:27Z</time>
      </trkpt>
      <trkpt lat="45.94596" lon="4.84041">
        <ele>269</ele>
        <time>2018-05-29T08:48:28Z</time>
      </trkpt>
      <trkpt lat="45.94597" lon="4.84047">
        <ele>269</ele>
        <time>2018-05-29T08:48:29Z</time>
      </trkpt>
      <trkpt lat="45.94599" lon="4.84056">
        <ele>269</ele>
        <time>2018-05-29T08:48:30Z</time>
      </trkpt>
      <trkpt lat="45.946" lon="4.84063">
        <ele>269</ele>
        <time>2018-05-29T08:48:31Z</time>
      </trkpt>
      <trkpt lat="45.94602" lon="4.8407">
        <ele>269</ele>
        <time>2018-05-29T08:48:32Z</time>
      </trkpt>
      <trkpt lat="45.94603" lon="4.84077">
        <ele>269</ele>
        <time>2018-05-29T08:48:33Z</time>
      </trkpt>
      <trkpt lat="45.94604" lon="4.84085">
        <ele>269</ele>
        <time>2018-05-29T08:48:34Z</time>
      </trkpt>
      <trkpt lat="45.94605" lon="4.84092">
        <ele>269</ele>
        <time>2018-05-29T08:48:35Z</time>
      </trkpt>
      <trkpt lat="45.94606" lon="4.84099">
        <ele>269</ele>
        <time>2018-05-29T08:48:36Z</time>
      </trkpt>
      <trkpt lat="45.94607" lon="4.84106">
        <ele>269</ele>
        <time>2018-05-29T08:48:37Z</time>
      </trkpt>
      <trkpt lat="45.94609" lon="4.84119">
        <ele>269</ele>
        <time>2018-05-29T08:48:39Z</time>
      </trkpt>
      <trkpt lat="45.9461" lon="4.84126">
        <ele>269</ele>
        <time>2018-05-29T08:48:40Z</time>
      </trkpt>
      <trkpt lat="45.94611" lon="4.84134">
        <ele>269</ele>
        <time>2018-05-29T08:48:41Z</time>
      </trkpt>
      <trkpt lat="45.94613" lon="4.84141">
        <ele>269</ele>
        <time>2018-05-29T08:48:42Z</time>
      </trkpt>
      <trkpt lat="45.94614" lon="4.84148">
        <ele>269</ele>
        <time>2018-05-29T08:48:43Z</time>
      </trkpt>
      <trkpt lat="45.94615" lon="4.84155">
        <ele>269</ele>
        <time>2018-05-29T08:48:44Z</time>
      </trkpt>
      <trkpt lat="45.94616" lon="4.84161">
        <ele>269</ele>
        <time>2018-05-29T08:48:45Z</time>
      </trkpt>
      <trkpt lat="45.94617" lon="4.84168">
        <ele>269</ele>
        <time>2018-05-29T08:48:46Z</time>
      </trkpt>
      <trkpt lat="45.94618" lon="4.8418">
        <ele>269</ele>
        <time>2018-05-29T08:48:48Z</time>
      </trkpt>
      <trkpt lat="45.94619" lon="4.84186">
        <ele>269</ele>
        <time>2018-05-29T08:48:49Z</time>
      </trkpt>
      <trkpt lat="45.94621" lon="4.84194">
        <ele>269</ele>
        <time>2018-05-29T08:48:50Z</time>
      </trkpt>
      <trkpt lat="45.94622" lon="4.842">
        <ele>269</ele>
        <time>2018-05-29T08:48:51Z</time>
      </trkpt>
      <trkpt lat="45.94624" lon="4.84212">
        <ele>269</ele>
        <time>2018-05-29T08:48:53Z</time>
      </trkpt>
      <trkpt lat="45.94625" lon="4.84219">
        <ele>269</ele>
        <time>2018-05-29T08:48:54Z</time>
      </trkpt>
      <trkpt lat="45.94626" lon="4.84227">
        <ele>269</ele>
        <time>2018-05-29T08:48:55Z</time>
      </trkpt>
      <trkpt lat="45.94627" lon="4.84235">
        <ele>269</ele>
        <time>2018-05-29T08:48:56Z</time>
      </trkpt>
      <trkpt lat="45.94628" lon="4.84247">
        <ele>269</ele>
        <time>2018-05-29T08:48:58Z</time>
      </trkpt>
      <trkpt lat="45.94629" lon="4.84253">
        <ele>269</ele>
        <time>2018-05-29T08:48:59Z</time>
      </trkpt>
      <trkpt lat="45.94633" lon="4.84265">
        <ele>269</ele>
        <time>2018-05-29T08:49:01Z</time>
      </trkpt>
      <trkpt lat="45.94633" lon="4.84271">
        <ele>269</ele>
        <time>2018-05-29T08:49:02Z</time>
      </trkpt>
      <trkpt lat="45.94635" lon="4.84277">
        <ele>269</ele>
        <time>2018-05-29T08:49:03Z</time>
      </trkpt>
      <trkpt lat="45.94635" lon="4.84285">
        <ele>269</ele>
        <time>2018-05-29T08:49:04Z</time>
      </trkpt>
      <trkpt lat="45.94636" lon="4.84297">
        <ele>269</ele>
        <time>2018-05-29T08:49:06Z</time>
      </trkpt>
      <trkpt lat="45.94637" lon="4.84303">
        <ele>269</ele>
        <time>2018-05-29T08:49:07Z</time>
      </trkpt>
      <trkpt lat="45.94639" lon="4.84315">
        <ele>269</ele>
        <time>2018-05-29T08:49:09Z</time>
      </trkpt>
      <trkpt lat="45.9464" lon="4.8432">
        <ele>269</ele>
        <time>2018-05-29T08:49:10Z</time>
      </trkpt>
      <trkpt lat="45.94641" lon="4.84326">
        <ele>268</ele>
        <time>2018-05-29T08:49:11Z</time>
      </trkpt>
      <trkpt lat="45.94642" lon="4.84334">
        <ele>268</ele>
        <time>2018-05-29T08:49:12Z</time>
      </trkpt>
      <trkpt lat="45.94644" lon="4.84345">
        <ele>268</ele>
        <time>2018-05-29T08:49:14Z</time>
      </trkpt>
      <trkpt lat="45.94645" lon="4.84352">
        <ele>268</ele>
        <time>2018-05-29T08:49:15Z</time>
      </trkpt>
      <trkpt lat="45.94646" lon="4.84359">
        <ele>268</ele>
        <time>2018-05-29T08:49:16Z</time>
      </trkpt>
      <trkpt lat="45.94645" lon="4.84365">
        <ele>268</ele>
        <time>2018-05-29T08:49:17Z</time>
      </trkpt>
      <trkpt lat="45.94645" lon="4.8437">
        <ele>268</ele>
        <time>2018-05-29T08:49:18Z</time>
      </trkpt>
      <trkpt lat="45.94646" lon="4.84378">
        <ele>268</ele>
        <time>2018-05-29T08:49:19Z</time>
      </trkpt>
      <trkpt lat="45.94648" lon="4.84389">
        <ele>268</ele>
        <time>2018-05-29T08:49:21Z</time>
      </trkpt>
      <trkpt lat="45.94649" lon="4.84395">
        <ele>268</ele>
        <time>2018-05-29T08:49:22Z</time>
      </trkpt>
      <trkpt lat="45.9465" lon="4.84401">
        <ele>268</ele>
        <time>2018-05-29T08:49:23Z</time>
      </trkpt>
      <trkpt lat="45.94651" lon="4.8441">
        <ele>268</ele>
        <time>2018-05-29T08:49:24Z</time>
      </trkpt>
      <trkpt lat="45.94651" lon="4.84417">
        <ele>268</ele>
        <time>2018-05-29T08:49:25Z</time>
      </trkpt>
      <trkpt lat="45.94651" lon="4.84424">
        <ele>268</ele>
        <time>2018-05-29T08:49:26Z</time>
      </trkpt>
      <trkpt lat="45.94653" lon="4.84437">
        <ele>268</ele>
        <time>2018-05-29T08:49:28Z</time>
      </trkpt>
      <trkpt lat="45.94654" lon="4.84444">
        <ele>268</ele>
        <time>2018-05-29T08:49:29Z</time>
      </trkpt>
      <trkpt lat="45.94654" lon="4.84452">
        <ele>268</ele>
        <time>2018-05-29T08:49:30Z</time>
      </trkpt>
      <trkpt lat="45.94656" lon="4.84461">
        <ele>268</ele>
        <time>2018-05-29T08:49:31Z</time>
      </trkpt>
      <trkpt lat="45.94657" lon="4.84474">
        <ele>268</ele>
        <time>2018-05-29T08:49:33Z</time>
      </trkpt>
      <trkpt lat="45.94659" lon="4.84481">
        <ele>268</ele>
        <time>2018-05-29T08:49:34Z</time>
      </trkpt>
      <trkpt lat="45.9466" lon="4.84493">
        <ele>268</ele>
        <time>2018-05-29T08:49:36Z</time>
      </trkpt>
      <trkpt lat="45.94661" lon="4.845">
        <ele>268</ele>
        <time>2018-05-29T08:49:37Z</time>
      </trkpt>
      <trkpt lat="45.94662" lon="4.84512">
        <ele>268</ele>
        <time>2018-05-29T08:49:39Z</time>
      </trkpt>
      <trkpt lat="45.94662" lon="4.8452">
        <ele>268</ele>
        <time>2018-05-29T08:49:40Z</time>
      </trkpt>
      <trkpt lat="45.94662" lon="4.84526">
        <ele>268</ele>
        <time>2018-05-29T08:49:41Z</time>
      </trkpt>
      <trkpt lat="45.94663" lon="4.84534">
        <ele>268</ele>
        <time>2018-05-29T08:49:42Z</time>
      </trkpt>
      <trkpt lat="45.94663" lon="4.84541">
        <ele>268</ele>
        <time>2018-05-29T08:49:43Z</time>
      </trkpt>
      <trkpt lat="45.94664" lon="4.84548">
        <ele>268</ele>
        <time>2018-05-29T08:49:44Z</time>
      </trkpt>
      <trkpt lat="45.94666" lon="4.84559">
        <ele>268</ele>
        <time>2018-05-29T08:49:46Z</time>
      </trkpt>
      <trkpt lat="45.94667" lon="4.84564">
        <ele>268</ele>
        <time>2018-05-29T08:49:47Z</time>
      </trkpt>
      <trkpt lat="45.94668" lon="4.84572">
        <ele>268</ele>
        <time>2018-05-29T08:49:48Z</time>
      </trkpt>
      <trkpt lat="45.94668" lon="4.84578">
        <ele>268</ele>
        <time>2018-05-29T08:49:49Z</time>
      </trkpt>
      <trkpt lat="45.94668" lon="4.84585">
        <ele>268</ele>
        <time>2018-05-29T08:49:50Z</time>
      </trkpt>
      <trkpt lat="45.94669" lon="4.84593">
        <ele>268</ele>
        <time>2018-05-29T08:49:51Z</time>
      </trkpt>
      <trkpt lat="45.94669" lon="4.84601">
        <ele>268</ele>
        <time>2018-05-29T08:49:52Z</time>
      </trkpt>
      <trkpt lat="45.94669" lon="4.84609">
        <ele>268</ele>
        <time>2018-05-29T08:49:53Z</time>
      </trkpt>
      <trkpt lat="45.94669" lon="4.84617">
        <ele>268</ele>
        <time>2018-05-29T08:49:54Z</time>
      </trkpt>
      <trkpt lat="45.94669" lon="4.84624">
        <ele>268</ele>
        <time>2018-05-29T08:49:55Z</time>
      </trkpt>
      <trkpt lat="45.9467" lon="4.84632">
        <ele>268</ele>
        <time>2018-05-29T08:49:56Z</time>
      </trkpt>
      <trkpt lat="45.9467" lon="4.8464">
        <ele>268</ele>
        <time>2018-05-29T08:49:57Z</time>
      </trkpt>
      <trkpt lat="45.9467" lon="4.84653">
        <ele>268</ele>
        <time>2018-05-29T08:49:59Z</time>
      </trkpt>
      <trkpt lat="45.94669" lon="4.84659">
        <ele>269</ele>
        <time>2018-05-29T08:50:00Z</time>
      </trkpt>
      <trkpt lat="45.9467" lon="4.84665">
        <ele>269</ele>
        <time>2018-05-29T08:50:01Z</time>
      </trkpt>
      <trkpt lat="45.9467" lon="4.84672">
        <ele>269</ele>
        <time>2018-05-29T08:50:02Z</time>
      </trkpt>
      <trkpt lat="45.94671" lon="4.84679">
        <ele>269</ele>
        <time>2018-05-29T08:50:03Z</time>
      </trkpt>
      <trkpt lat="45.94671" lon="4.84687">
        <ele>269</ele>
        <time>2018-05-29T08:50:04Z</time>
      </trkpt>
      <trkpt lat="45.94672" lon="4.84693">
        <ele>269</ele>
        <time>2018-05-29T08:50:05Z</time>
      </trkpt>
      <trkpt lat="45.94672" lon="4.847">
        <ele>269</ele>
        <time>2018-05-29T08:50:06Z</time>
      </trkpt>
      <trkpt lat="45.94673" lon="4.84709">
        <ele>269</ele>
        <time>2018-05-29T08:50:07Z</time>
      </trkpt>
      <trkpt lat="45.94672" lon="4.84716">
        <ele>269</ele>
        <time>2018-05-29T08:50:08Z</time>
      </trkpt>
      <trkpt lat="45.94672" lon="4.84728">
        <ele>269</ele>
        <time>2018-05-29T08:50:10Z</time>
      </trkpt>
      <trkpt lat="45.94673" lon="4.84735">
        <ele>269</ele>
        <time>2018-05-29T08:50:11Z</time>
      </trkpt>
      <trkpt lat="45.94673" lon="4.84742">
        <ele>269</ele>
        <time>2018-05-29T08:50:12Z</time>
      </trkpt>
      <trkpt lat="45.94674" lon="4.8475">
        <ele>269</ele>
        <time>2018-05-29T08:50:13Z</time>
      </trkpt>
      <trkpt lat="45.94674" lon="4.84762">
        <ele>269</ele>
        <time>2018-05-29T08:50:15Z</time>
      </trkpt>
      <trkpt lat="45.94674" lon="4.84769">
        <ele>269</ele>
        <time>2018-05-29T08:50:16Z</time>
      </trkpt>
      <trkpt lat="45.94675" lon="4.84775">
        <ele>269</ele>
        <time>2018-05-29T08:50:17Z</time>
      </trkpt>
      <trkpt lat="45.94676" lon="4.84782">
        <ele>269</ele>
        <time>2018-05-29T08:50:18Z</time>
      </trkpt>
      <trkpt lat="45.94677" lon="4.84789">
        <ele>269</ele>
        <time>2018-05-29T08:50:19Z</time>
      </trkpt>
      <trkpt lat="45.94678" lon="4.84795">
        <ele>268</ele>
        <time>2018-05-29T08:50:20Z</time>
      </trkpt>
      <trkpt lat="45.94678" lon="4.84802">
        <ele>268</ele>
        <time>2018-05-29T08:50:21Z</time>
      </trkpt>
      <trkpt lat="45.94679" lon="4.84811">
        <ele>268</ele>
        <time>2018-05-29T08:50:22Z</time>
      </trkpt>
      <trkpt lat="45.94679" lon="4.84818">
        <ele>268</ele>
        <time>2018-05-29T08:50:23Z</time>
      </trkpt>
      <trkpt lat="45.9468" lon="4.84826">
        <ele>268</ele>
        <time>2018-05-29T08:50:24Z</time>
      </trkpt>
      <trkpt lat="45.9468" lon="4.84833">
        <ele>268</ele>
        <time>2018-05-29T08:50:25Z</time>
      </trkpt>
      <trkpt lat="45.94681" lon="4.8484">
        <ele>268</ele>
        <time>2018-05-29T08:50:26Z</time>
      </trkpt>
      <trkpt lat="45.94681" lon="4.84847">
        <ele>268</ele>
        <time>2018-05-29T08:50:27Z</time>
      </trkpt>
      <trkpt lat="45.94681" lon="4.84854">
        <ele>268</ele>
        <time>2018-05-29T08:50:28Z</time>
      </trkpt>
      <trkpt lat="45.94682" lon="4.84861">
        <ele>268</ele>
        <time>2018-05-29T08:50:29Z</time>
      </trkpt>
      <trkpt lat="45.94682" lon="4.84868">
        <ele>268</ele>
        <time>2018-05-29T08:50:30Z</time>
      </trkpt>
      <trkpt lat="45.94683" lon="4.84876">
        <ele>268</ele>
        <time>2018-05-29T08:50:31Z</time>
      </trkpt>
      <trkpt lat="45.94684" lon="4.84883">
        <ele>268</ele>
        <time>2018-05-29T08:50:32Z</time>
      </trkpt>
      <trkpt lat="45.94684" lon="4.8489">
        <ele>268</ele>
        <time>2018-05-29T08:50:33Z</time>
      </trkpt>
      <trkpt lat="45.94685" lon="4.84898">
        <ele>268</ele>
        <time>2018-05-29T08:50:34Z</time>
      </trkpt>
      <trkpt lat="45.94686" lon="4.84906">
        <ele>269</ele>
        <time>2018-05-29T08:50:35Z</time>
      </trkpt>
      <trkpt lat="45.94687" lon="4.84914">
        <ele>269</ele>
        <time>2018-05-29T08:50:36Z</time>
      </trkpt>
      <trkpt lat="45.94687" lon="4.84921">
        <ele>269</ele>
        <time>2018-05-29T08:50:37Z</time>
      </trkpt>
      <trkpt lat="45.94689" lon="4.84928">
        <ele>269</ele>
        <time>2018-05-29T08:50:38Z</time>
      </trkpt>
      <trkpt lat="45.9469" lon="4.84937">
        <ele>269</ele>
        <time>2018-05-29T08:50:39Z</time>
      </trkpt>
      <trkpt lat="45.94691" lon="4.84944">
        <ele>269</ele>
        <time>2018-05-29T08:50:40Z</time>
      </trkpt>
      <trkpt lat="45.94692" lon="4.84952">
        <ele>269</ele>
        <time>2018-05-29T08:50:41Z</time>
      </trkpt>
      <trkpt lat="45.94693" lon="4.8496">
        <ele>269</ele>
        <time>2018-05-29T08:50:42Z</time>
      </trkpt>
      <trkpt lat="45.94694" lon="4.84968">
        <ele>269</ele>
        <time>2018-05-29T08:50:43Z</time>
      </trkpt>
      <trkpt lat="45.94695" lon="4.84977">
        <ele>269</ele>
        <time>2018-05-29T08:50:44Z</time>
      </trkpt>
      <trkpt lat="45.94696" lon="4.84983">
        <ele>269</ele>
        <time>2018-05-29T08:50:45Z</time>
      </trkpt>
      <trkpt lat="45.94697" lon="4.8499">
        <ele>269</ele>
        <time>2018-05-29T08:50:46Z</time>
      </trkpt>
      <trkpt lat="45.94698" lon="4.84997">
        <ele>269</ele>
        <time>2018-05-29T08:50:47Z</time>
      </trkpt>
      <trkpt lat="45.94699" lon="4.85003">
        <ele>269</ele>
        <time>2018-05-29T08:50:48Z</time>
      </trkpt>
      <trkpt lat="45.947" lon="4.85011">
        <ele>269</ele>
        <time>2018-05-29T08:50:49Z</time>
      </trkpt>
      <trkpt lat="45.94702" lon="4.85019">
        <ele>269</ele>
        <time>2018-05-29T08:50:50Z</time>
      </trkpt>
      <trkpt lat="45.94704" lon="4.8503">
        <ele>269</ele>
        <time>2018-05-29T08:50:51Z</time>
      </trkpt>
      <trkpt lat="45.94704" lon="4.85037">
        <ele>269</ele>
        <time>2018-05-29T08:50:52Z</time>
      </trkpt>
      <trkpt lat="45.94705" lon="4.85043">
        <ele>269</ele>
        <time>2018-05-29T08:50:53Z</time>
      </trkpt>
      <trkpt lat="45.94706" lon="4.85051">
        <ele>269</ele>
        <time>2018-05-29T08:50:54Z</time>
      </trkpt>
      <trkpt lat="45.94706" lon="4.85058">
        <ele>269</ele>
        <time>2018-05-29T08:50:55Z</time>
      </trkpt>
      <trkpt lat="45.94706" lon="4.85067">
        <ele>269</ele>
        <time>2018-05-29T08:50:56Z</time>
      </trkpt>
      <trkpt lat="45.94708" lon="4.85073">
        <ele>269</ele>
        <time>2018-05-29T08:50:57Z</time>
      </trkpt>
      <trkpt lat="45.94709" lon="4.8508">
        <ele>269</ele>
        <time>2018-05-29T08:50:58Z</time>
      </trkpt>
      <trkpt lat="45.9471" lon="4.85092">
        <ele>269</ele>
        <time>2018-05-29T08:51:00Z</time>
      </trkpt>
      <trkpt lat="45.94711" lon="4.851">
        <ele>269</ele>
        <time>2018-05-29T08:51:01Z</time>
      </trkpt>
      <trkpt lat="45.94712" lon="4.85109">
        <ele>269</ele>
        <time>2018-05-29T08:51:02Z</time>
      </trkpt>
      <trkpt lat="45.94713" lon="4.85117">
        <ele>269</ele>
        <time>2018-05-29T08:51:03Z</time>
      </trkpt>
      <trkpt lat="45.94713" lon="4.85124">
        <ele>269</ele>
        <time>2018-05-29T08:51:04Z</time>
      </trkpt>
      <trkpt lat="45.94712" lon="4.85131">
        <ele>269</ele>
        <time>2018-05-29T08:51:05Z</time>
      </trkpt>
      <trkpt lat="45.94713" lon="4.85138">
        <ele>269</ele>
        <time>2018-05-29T08:51:06Z</time>
      </trkpt>
      <trkpt lat="45.94714" lon="4.85145">
        <ele>269</ele>
        <time>2018-05-29T08:51:07Z</time>
      </trkpt>
      <trkpt lat="45.94715" lon="4.85157">
        <ele>269</ele>
        <time>2018-05-29T08:51:09Z</time>
      </trkpt>
      <trkpt lat="45.94716" lon="4.85165">
        <ele>269</ele>
        <time>2018-05-29T08:51:10Z</time>
      </trkpt>
      <trkpt lat="45.94716" lon="4.85172">
        <ele>269</ele>
        <time>2018-05-29T08:51:11Z</time>
      </trkpt>
      <trkpt lat="45.94717" lon="4.85179">
        <ele>269</ele>
        <time>2018-05-29T08:51:12Z</time>
      </trkpt>
      <trkpt lat="45.94717" lon="4.85186">
        <ele>269</ele>
        <time>2018-05-29T08:51:13Z</time>
      </trkpt>
      <trkpt lat="45.94718" lon="4.85193">
        <ele>269</ele>
        <time>2018-05-29T08:51:14Z</time>
      </trkpt>
      <trkpt lat="45.94719" lon="4.852">
        <ele>269</ele>
        <time>2018-05-29T08:51:15Z</time>
      </trkpt>
      <trkpt lat="45.94719" lon="4.85207">
        <ele>269</ele>
        <time>2018-05-29T08:51:16Z</time>
      </trkpt>
      <trkpt lat="45.9472" lon="4.85216">
        <ele>269</ele>
        <time>2018-05-29T08:51:17Z</time>
      </trkpt>
      <trkpt lat="45.9472" lon="4.8522">
        <ele>269</ele>
        <time>2018-05-29T08:51:18Z</time>
      </trkpt>
      <trkpt lat="45.9472" lon="4.85227">
        <ele>269</ele>
        <time>2018-05-29T08:51:19Z</time>
      </trkpt>
      <trkpt lat="45.94722" lon="4.85233">
        <ele>269</ele>
        <time>2018-05-29T08:51:20Z</time>
      </trkpt>
      <trkpt lat="45.94723" lon="4.8524">
        <ele>269</ele>
        <time>2018-05-29T08:51:21Z</time>
      </trkpt>
      <trkpt lat="45.94723" lon="4.85248">
        <ele>269</ele>
        <time>2018-05-29T08:51:22Z</time>
      </trkpt>
      <trkpt lat="45.94724" lon="4.85257">
        <ele>269</ele>
        <time>2018-05-29T08:51:23Z</time>
      </trkpt>
      <trkpt lat="45.94725" lon="4.85263">
        <ele>269</ele>
        <time>2018-05-29T08:51:24Z</time>
      </trkpt>
      <trkpt lat="45.94725" lon="4.8527">
        <ele>269</ele>
        <time>2018-05-29T08:51:25Z</time>
      </trkpt>
      <trkpt lat="45.94726" lon="4.85279">
        <ele>269</ele>
        <time>2018-05-29T08:51:26Z</time>
      </trkpt>
      <trkpt lat="45.94728" lon="4.8529">
        <ele>269</ele>
        <time>2018-05-29T08:51:28Z</time>
      </trkpt>
      <trkpt lat="45.9473" lon="4.85299">
        <ele>270</ele>
        <time>2018-05-29T08:51:29Z</time>
      </trkpt>
      <trkpt lat="45.9473" lon="4.85306">
        <ele>270</ele>
        <time>2018-05-29T08:51:30Z</time>
      </trkpt>
      <trkpt lat="45.94731" lon="4.85314">
        <ele>270</ele>
        <time>2018-05-29T08:51:31Z</time>
      </trkpt>
      <trkpt lat="45.94731" lon="4.85322">
        <ele>270</ele>
        <time>2018-05-29T08:51:32Z</time>
      </trkpt>
      <trkpt lat="45.94732" lon="4.8533">
        <ele>270</ele>
        <time>2018-05-29T08:51:33Z</time>
      </trkpt>
      <trkpt lat="45.94733" lon="4.85343">
        <ele>271</ele>
        <time>2018-05-29T08:51:35Z</time>
      </trkpt>
      <trkpt lat="45.94734" lon="4.85353">
        <ele>271</ele>
        <time>2018-05-29T08:51:36Z</time>
      </trkpt>
      <trkpt lat="45.94735" lon="4.85359">
        <ele>271</ele>
        <time>2018-05-29T08:51:37Z</time>
      </trkpt>
      <trkpt lat="45.94736" lon="4.85368">
        <ele>271</ele>
        <time>2018-05-29T08:51:38Z</time>
      </trkpt>
      <trkpt lat="45.94737" lon="4.85374">
        <ele>271</ele>
        <time>2018-05-29T08:51:39Z</time>
      </trkpt>
      <trkpt lat="45.94739" lon="4.85383">
        <ele>272</ele>
        <time>2018-05-29T08:51:40Z</time>
      </trkpt>
      <trkpt lat="45.94739" lon="4.8539">
        <ele>272</ele>
        <time>2018-05-29T08:51:41Z</time>
      </trkpt>
      <trkpt lat="45.94739" lon="4.85397">
        <ele>272</ele>
        <time>2018-05-29T08:51:42Z</time>
      </trkpt>
      <trkpt lat="45.94739" lon="4.85406">
        <ele>272</ele>
        <time>2018-05-29T08:51:43Z</time>
      </trkpt>
      <trkpt lat="45.9474" lon="4.85413">
        <ele>272</ele>
        <time>2018-05-29T08:51:44Z</time>
      </trkpt>
      <trkpt lat="45.94741" lon="4.85419">
        <ele>273</ele>
        <time>2018-05-29T08:51:45Z</time>
      </trkpt>
      <trkpt lat="45.94742" lon="4.85426">
        <ele>273</ele>
        <time>2018-05-29T08:51:46Z</time>
      </trkpt>
      <trkpt lat="45.94742" lon="4.85433">
        <ele>273</ele>
        <time>2018-05-29T08:51:47Z</time>
      </trkpt>
      <trkpt lat="45.94744" lon="4.85442">
        <ele>274</ele>
        <time>2018-05-29T08:51:48Z</time>
      </trkpt>
      <trkpt lat="45.94745" lon="4.85454">
        <ele>274</ele>
        <time>2018-05-29T08:51:50Z</time>
      </trkpt>
      <trkpt lat="45.94746" lon="4.85459">
        <ele>274</ele>
        <time>2018-05-29T08:51:51Z</time>
      </trkpt>
      <trkpt lat="45.94747" lon="4.85471">
        <ele>274</ele>
        <time>2018-05-29T08:51:53Z</time>
      </trkpt>
      <trkpt lat="45.94748" lon="4.85477">
        <ele>275</ele>
        <time>2018-05-29T08:51:54Z</time>
      </trkpt>
      <trkpt lat="45.94749" lon="4.85488">
        <ele>275</ele>
        <time>2018-05-29T08:51:56Z</time>
      </trkpt>
      <trkpt lat="45.9475" lon="4.85493">
        <ele>275</ele>
        <time>2018-05-29T08:51:57Z</time>
      </trkpt>
      <trkpt lat="45.94752" lon="4.855">
        <ele>276</ele>
        <time>2018-05-29T08:51:59Z</time>
      </trkpt>
      <trkpt lat="45.94753" lon="4.85507">
        <ele>277</ele>
        <time>2018-05-29T08:52:00Z</time>
      </trkpt>
      <trkpt lat="45.94754" lon="4.85516">
        <ele>277</ele>
        <time>2018-05-29T08:52:03Z</time>
      </trkpt>
      <trkpt lat="45.94754" lon="4.8552">
        <ele>277</ele>
        <time>2018-05-29T08:52:04Z</time>
      </trkpt>
      <trkpt lat="45.94756" lon="4.85532">
        <ele>278</ele>
        <time>2018-05-29T08:52:07Z</time>
      </trkpt>
      <trkpt lat="45.94757" lon="4.85537">
        <ele>278</ele>
        <time>2018-05-29T08:52:08Z</time>
      </trkpt>
      <trkpt lat="45.94758" lon="4.85545">
        <ele>278</ele>
        <time>2018-05-29T08:52:10Z</time>
      </trkpt>
      <trkpt lat="45.94759" lon="4.8555">
        <ele>278</ele>
        <time>2018-05-29T08:52:11Z</time>
      </trkpt>
      <trkpt lat="45.9476" lon="4.85558">
        <ele>278</ele>
        <time>2018-05-29T08:52:13Z</time>
      </trkpt>
      <trkpt lat="45.94761" lon="4.85562">
        <ele>278</ele>
        <time>2018-05-29T08:52:14Z</time>
      </trkpt>
      <trkpt lat="45.94763" lon="4.85571">
        <ele>279</ele>
        <time>2018-05-29T08:52:16Z</time>
      </trkpt>
      <trkpt lat="45.94765" lon="4.85584">
        <ele>280</ele>
        <time>2018-05-29T08:52:17Z</time>
      </trkpt>
      <trkpt lat="45.94767" lon="4.85594">
        <ele>280</ele>
        <time>2018-05-29T08:52:19Z</time>
      </trkpt>
      <trkpt lat="45.94768" lon="4.856">
        <ele>280</ele>
        <time>2018-05-29T08:52:20Z</time>
      </trkpt>
      <trkpt lat="45.94771" lon="4.8561">
        <ele>280</ele>
        <time>2018-05-29T08:52:22Z</time>
      </trkpt>
      <trkpt lat="45.94772" lon="4.85615">
        <ele>280</ele>
        <time>2018-05-29T08:52:23Z</time>
      </trkpt>
      <trkpt lat="45.94775" lon="4.85625">
        <ele>280</ele>
        <time>2018-05-29T08:52:25Z</time>
      </trkpt>
      <trkpt lat="45.94776" lon="4.85631">
        <ele>280</ele>
        <time>2018-05-29T08:52:26Z</time>
      </trkpt>
      <trkpt lat="45.94778" lon="4.85641">
        <ele>281</ele>
        <time>2018-05-29T08:52:28Z</time>
      </trkpt>
      <trkpt lat="45.94779" lon="4.85646">
        <ele>281</ele>
        <time>2018-05-29T08:52:29Z</time>
      </trkpt>
      <trkpt lat="45.94782" lon="4.85656">
        <ele>281</ele>
        <time>2018-05-29T08:52:31Z</time>
      </trkpt>
      <trkpt lat="45.94783" lon="4.85661">
        <ele>281</ele>
        <time>2018-05-29T08:52:32Z</time>
      </trkpt>
      <trkpt lat="45.94786" lon="4.85671">
        <ele>280</ele>
        <time>2018-05-29T08:52:34Z</time>
      </trkpt>
      <trkpt lat="45.94787" lon="4.85676">
        <ele>280</ele>
        <time>2018-05-29T08:52:35Z</time>
      </trkpt>
      <trkpt lat="45.94789" lon="4.85686">
        <ele>280</ele>
        <time>2018-05-29T08:52:37Z</time>
      </trkpt>
      <trkpt lat="45.94791" lon="4.85692">
        <ele>280</ele>
        <time>2018-05-29T08:52:38Z</time>
      </trkpt>
      <trkpt lat="45.94793" lon="4.85702">
        <ele>280</ele>
        <time>2018-05-29T08:52:40Z</time>
      </trkpt>
      <trkpt lat="45.94795" lon="4.85708">
        <ele>280</ele>
        <time>2018-05-29T08:52:41Z</time>
      </trkpt>
      <trkpt lat="45.94799" lon="4.8572">
        <ele>280</ele>
        <time>2018-05-29T08:52:43Z</time>
      </trkpt>
      <trkpt lat="45.948" lon="4.85726">
        <ele>280</ele>
        <time>2018-05-29T08:52:44Z</time>
      </trkpt>
      <trkpt lat="45.94802" lon="4.85732">
        <ele>280</ele>
        <time>2018-05-29T08:52:45Z</time>
      </trkpt>
      <trkpt lat="45.94803" lon="4.85739">
        <ele>279</ele>
        <time>2018-05-29T08:52:46Z</time>
      </trkpt>
      <trkpt lat="45.94805" lon="4.85745">
        <ele>279</ele>
        <time>2018-05-29T08:52:47Z</time>
      </trkpt>
      <trkpt lat="45.94806" lon="4.85751">
        <ele>278</ele>
        <time>2018-05-29T08:52:48Z</time>
      </trkpt>
      <trkpt lat="45.94808" lon="4.85758">
        <ele>278</ele>
        <time>2018-05-29T08:52:49Z</time>
      </trkpt>
      <trkpt lat="45.94809" lon="4.85764">
        <ele>278</ele>
        <time>2018-05-29T08:52:50Z</time>
      </trkpt>
      <trkpt lat="45.9481" lon="4.85771">
        <ele>278</ele>
        <time>2018-05-29T08:52:51Z</time>
      </trkpt>
      <trkpt lat="45.94813" lon="4.85777">
        <ele>278</ele>
        <time>2018-05-29T08:52:52Z</time>
      </trkpt>
      <trkpt lat="45.94815" lon="4.85783">
        <ele>278</ele>
        <time>2018-05-29T08:52:53Z</time>
      </trkpt>
      <trkpt lat="45.94817" lon="4.8579">
        <ele>278</ele>
        <time>2018-05-29T08:52:54Z</time>
      </trkpt>
      <trkpt lat="45.94819" lon="4.85798">
        <ele>278</ele>
        <time>2018-05-29T08:52:55Z</time>
      </trkpt>
      <trkpt lat="45.9482" lon="4.85802">
        <ele>278</ele>
        <time>2018-05-29T08:52:56Z</time>
      </trkpt>
      <trkpt lat="45.94822" lon="4.8581">
        <ele>278</ele>
        <time>2018-05-29T08:52:57Z</time>
      </trkpt>
      <trkpt lat="45.94824" lon="4.85816">
        <ele>278</ele>
        <time>2018-05-29T08:52:58Z</time>
      </trkpt>
      <trkpt lat="45.94825" lon="4.85823">
        <ele>277</ele>
        <time>2018-05-29T08:52:59Z</time>
      </trkpt>
      <trkpt lat="45.94827" lon="4.8583">
        <ele>277</ele>
        <time>2018-05-29T08:53:00Z</time>
      </trkpt>
      <trkpt lat="45.94829" lon="4.85838">
        <ele>277</ele>
        <time>2018-05-29T08:53:01Z</time>
      </trkpt>
      <trkpt lat="45.94831" lon="4.85845">
        <ele>277</ele>
        <time>2018-05-29T08:53:02Z</time>
      </trkpt>
      <trkpt lat="45.94832" lon="4.85852">
        <ele>277</ele>
        <time>2018-05-29T08:53:03Z</time>
      </trkpt>
      <trkpt lat="45.94834" lon="4.85859">
        <ele>276</ele>
        <time>2018-05-29T08:53:04Z</time>
      </trkpt>
      <trkpt lat="45.94836" lon="4.85866">
        <ele>276</ele>
        <time>2018-05-29T08:53:05Z</time>
      </trkpt>
      <trkpt lat="45.94837" lon="4.85873">
        <ele>276</ele>
        <time>2018-05-29T08:53:06Z</time>
      </trkpt>
      <trkpt lat="45.9484" lon="4.85879">
        <ele>276</ele>
        <time>2018-05-29T08:53:07Z</time>
      </trkpt>
      <trkpt lat="45.94842" lon="4.85887">
        <ele>276</ele>
        <time>2018-05-29T08:53:08Z</time>
      </trkpt>
      <trkpt lat="45.94844" lon="4.85894">
        <ele>276</ele>
        <time>2018-05-29T08:53:09Z</time>
      </trkpt>
      <trkpt lat="45.94845" lon="4.85902">
        <ele>276</ele>
        <time>2018-05-29T08:53:10Z</time>
      </trkpt>
      <trkpt lat="45.94848" lon="4.85909">
        <ele>275</ele>
        <time>2018-05-29T08:53:11Z</time>
      </trkpt>
      <trkpt lat="45.9485" lon="4.85917">
        <ele>275</ele>
        <time>2018-05-29T08:53:12Z</time>
      </trkpt>
      <trkpt lat="45.94852" lon="4.85924">
        <ele>275</ele>
        <time>2018-05-29T08:53:13Z</time>
      </trkpt>
      <trkpt lat="45.94854" lon="4.85931">
        <ele>275</ele>
        <time>2018-05-29T08:53:14Z</time>
      </trkpt>
      <trkpt lat="45.94856" lon="4.85939">
        <ele>275</ele>
        <time>2018-05-29T08:53:15Z</time>
      </trkpt>
      <trkpt lat="45.94858" lon="4.85945">
        <ele>275</ele>
        <time>2018-05-29T08:53:16Z</time>
      </trkpt>
      <trkpt lat="45.94859" lon="4.85952">
        <ele>275</ele>
        <time>2018-05-29T08:53:17Z</time>
      </trkpt>
      <trkpt lat="45.94862" lon="4.85958">
        <ele>275</ele>
        <time>2018-05-29T08:53:18Z</time>
      </trkpt>
      <trkpt lat="45.94863" lon="4.85966">
        <ele>275</ele>
        <time>2018-05-29T08:53:19Z</time>
      </trkpt>
      <trkpt lat="45.94866" lon="4.85975">
        <ele>275</ele>
        <time>2018-05-29T08:53:20Z</time>
      </trkpt>
      <trkpt lat="45.94868" lon="4.85982">
        <ele>275</ele>
        <time>2018-05-29T08:53:21Z</time>
      </trkpt>
      <trkpt lat="45.9487" lon="4.85989">
        <ele>275</ele>
        <time>2018-05-29T08:53:22Z</time>
      </trkpt>
      <trkpt lat="45.94871" lon="4.85995">
        <ele>275</ele>
        <time>2018-05-29T08:53:23Z</time>
      </trkpt>
      <trkpt lat="45.94873" lon="4.86003">
        <ele>274</ele>
        <time>2018-05-29T08:53:24Z</time>
      </trkpt>
      <trkpt lat="45.94875" lon="4.8601">
        <ele>274</ele>
        <time>2018-05-29T08:53:25Z</time>
      </trkpt>
      <trkpt lat="45.94876" lon="4.86016">
        <ele>274</ele>
        <time>2018-05-29T08:53:26Z</time>
      </trkpt>
      <trkpt lat="45.94878" lon="4.86023">
        <ele>274</ele>
        <time>2018-05-29T08:53:27Z</time>
      </trkpt>
      <trkpt lat="45.9488" lon="4.86031">
        <ele>274</ele>
        <time>2018-05-29T08:53:28Z</time>
      </trkpt>
      <trkpt lat="45.94882" lon="4.86038">
        <ele>274</ele>
        <time>2018-05-29T08:53:29Z</time>
      </trkpt>
      <trkpt lat="45.94884" lon="4.86045">
        <ele>274</ele>
        <time>2018-05-29T08:53:30Z</time>
      </trkpt>
      <trkpt lat="45.94886" lon="4.86054">
        <ele>274</ele>
        <time>2018-05-29T08:53:31Z</time>
      </trkpt>
      <trkpt lat="45.94888" lon="4.86061">
        <ele>274</ele>
        <time>2018-05-29T08:53:32Z</time>
      </trkpt>
      <trkpt lat="45.9489" lon="4.86069">
        <ele>274</ele>
        <time>2018-05-29T08:53:33Z</time>
      </trkpt>
      <trkpt lat="45.94891" lon="4.86076">
        <ele>274</ele>
        <time>2018-05-29T08:53:34Z</time>
      </trkpt>
      <trkpt lat="45.94894" lon="4.86084">
        <ele>274</ele>
        <time>2018-05-29T08:53:35Z</time>
      </trkpt>
      <trkpt lat="45.94897" lon="4.86091">
        <ele>274</ele>
        <time>2018-05-29T08:53:36Z</time>
      </trkpt>
      <trkpt lat="45.94899" lon="4.86098">
        <ele>274</ele>
        <time>2018-05-29T08:53:37Z</time>
      </trkpt>
      <trkpt lat="45.94901" lon="4.86105">
        <ele>274</ele>
        <time>2018-05-29T08:53:38Z</time>
      </trkpt>
      <trkpt lat="45.94904" lon="4.86113">
        <ele>274</ele>
        <time>2018-05-29T08:53:39Z</time>
      </trkpt>
      <trkpt lat="45.94907" lon="4.8612">
        <ele>274</ele>
        <time>2018-05-29T08:53:40Z</time>
      </trkpt>
      <trkpt lat="45.9491" lon="4.86127">
        <ele>274</ele>
        <time>2018-05-29T08:53:41Z</time>
      </trkpt>
      <trkpt lat="45.94914" lon="4.86133">
        <ele>274</ele>
        <time>2018-05-29T08:53:42Z</time>
      </trkpt>
      <trkpt lat="45.94917" lon="4.8614">
        <ele>273</ele>
        <time>2018-05-29T08:53:43Z</time>
      </trkpt>
      <trkpt lat="45.94922" lon="4.86146">
        <ele>273</ele>
        <time>2018-05-29T08:53:44Z</time>
      </trkpt>
      <trkpt lat="45.94926" lon="4.86152">
        <ele>273</ele>
        <time>2018-05-29T08:53:45Z</time>
      </trkpt>
      <trkpt lat="45.94931" lon="4.86158">
        <ele>273</ele>
        <time>2018-05-29T08:53:46Z</time>
      </trkpt>
      <trkpt lat="45.94935" lon="4.86164">
        <ele>273</ele>
        <time>2018-05-29T08:53:47Z</time>
      </trkpt>
      <trkpt lat="45.9494" lon="4.86169">
        <ele>273</ele>
        <time>2018-05-29T08:53:48Z</time>
      </trkpt>
      <trkpt lat="45.94943" lon="4.86175">
        <ele>273</ele>
        <time>2018-05-29T08:53:49Z</time>
      </trkpt>
      <trkpt lat="45.94947" lon="4.8618">
        <ele>273</ele>
        <time>2018-05-29T08:53:50Z</time>
      </trkpt>
      <trkpt lat="45.94951" lon="4.86185">
        <ele>273</ele>
        <time>2018-05-29T08:53:51Z</time>
      </trkpt>
      <trkpt lat="45.94956" lon="4.86192">
        <ele>273</ele>
        <time>2018-05-29T08:53:52Z</time>
      </trkpt>
      <trkpt lat="45.94961" lon="4.86197">
        <ele>272</ele>
        <time>2018-05-29T08:53:53Z</time>
      </trkpt>
      <trkpt lat="45.94966" lon="4.86202">
        <ele>272</ele>
        <time>2018-05-29T08:53:54Z</time>
      </trkpt>
      <trkpt lat="45.94971" lon="4.86207">
        <ele>272</ele>
        <time>2018-05-29T08:53:55Z</time>
      </trkpt>
      <trkpt lat="45.94976" lon="4.86212">
        <ele>272</ele>
        <time>2018-05-29T08:53:56Z</time>
      </trkpt>
      <trkpt lat="45.9498" lon="4.86219">
        <ele>272</ele>
        <time>2018-05-29T08:53:57Z</time>
      </trkpt>
      <trkpt lat="45.94984" lon="4.86224">
        <ele>272</ele>
        <time>2018-05-29T08:53:58Z</time>
      </trkpt>
      <trkpt lat="45.94989" lon="4.86231">
        <ele>272</ele>
        <time>2018-05-29T08:53:59Z</time>
      </trkpt>
      <trkpt lat="45.94994" lon="4.86237">
        <ele>272</ele>
        <time>2018-05-29T08:54:00Z</time>
      </trkpt>
      <trkpt lat="45.95" lon="4.86243">
        <ele>272</ele>
        <time>2018-05-29T08:54:01Z</time>
      </trkpt>
      <trkpt lat="45.95005" lon="4.86249">
        <ele>272</ele>
        <time>2018-05-29T08:54:02Z</time>
      </trkpt>
      <trkpt lat="45.95011" lon="4.86255">
        <ele>272</ele>
        <time>2018-05-29T08:54:03Z</time>
      </trkpt>
      <trkpt lat="45.95016" lon="4.86262">
        <ele>271</ele>
        <time>2018-05-29T08:54:04Z</time>
      </trkpt>
      <trkpt lat="45.95022" lon="4.86268">
        <ele>271</ele>
        <time>2018-05-29T08:54:05Z</time>
      </trkpt>
      <trkpt lat="45.95027" lon="4.86276">
        <ele>271</ele>
        <time>2018-05-29T08:54:06Z</time>
      </trkpt>
      <trkpt lat="45.95032" lon="4.86283">
        <ele>271</ele>
        <time>2018-05-29T08:54:07Z</time>
      </trkpt>
      <trkpt lat="45.9504" lon="4.86289">
        <ele>271</ele>
        <time>2018-05-29T08:54:08Z</time>
      </trkpt>
      <trkpt lat="45.95045" lon="4.86295">
        <ele>271</ele>
        <time>2018-05-29T08:54:09Z</time>
      </trkpt>
      <trkpt lat="45.9505" lon="4.86301">
        <ele>271</ele>
        <time>2018-05-29T08:54:10Z</time>
      </trkpt>
      <trkpt lat="45.95056" lon="4.86308">
        <ele>271</ele>
        <time>2018-05-29T08:54:11Z</time>
      </trkpt>
      <trkpt lat="45.95062" lon="4.86315">
        <ele>270</ele>
        <time>2018-05-29T08:54:12Z</time>
      </trkpt>
      <trkpt lat="45.95067" lon="4.86322">
        <ele>270</ele>
        <time>2018-05-29T08:54:13Z</time>
      </trkpt>
      <trkpt lat="45.95072" lon="4.8633">
        <ele>270</ele>
        <time>2018-05-29T08:54:14Z</time>
      </trkpt>
      <trkpt lat="45.95077" lon="4.86337">
        <ele>270</ele>
        <time>2018-05-29T08:54:15Z</time>
      </trkpt>
      <trkpt lat="45.95083" lon="4.86344">
        <ele>270</ele>
        <time>2018-05-29T08:54:16Z</time>
      </trkpt>
      <trkpt lat="45.95088" lon="4.86351">
        <ele>269</ele>
        <time>2018-05-29T08:54:17Z</time>
      </trkpt>
      <trkpt lat="45.95093" lon="4.86358">
        <ele>269</ele>
        <time>2018-05-29T08:54:18Z</time>
      </trkpt>
      <trkpt lat="45.95099" lon="4.86365">
        <ele>269</ele>
        <time>2018-05-29T08:54:19Z</time>
      </trkpt>
      <trkpt lat="45.95104" lon="4.86371">
        <ele>269</ele>
        <time>2018-05-29T08:54:20Z</time>
      </trkpt>
      <trkpt lat="45.95109" lon="4.86377">
        <ele>269</ele>
        <time>2018-05-29T08:54:21Z</time>
      </trkpt>
      <trkpt lat="45.95115" lon="4.86383">
        <ele>269</ele>
        <time>2018-05-29T08:54:22Z</time>
      </trkpt>
      <trkpt lat="45.9512" lon="4.86389">
        <ele>269</ele>
        <time>2018-05-29T08:54:23Z</time>
      </trkpt>
      <trkpt lat="45.95125" lon="4.86396">
        <ele>269</ele>
        <time>2018-05-29T08:54:24Z</time>
      </trkpt>
      <trkpt lat="45.9513" lon="4.86403">
        <ele>268</ele>
        <time>2018-05-29T08:54:25Z</time>
      </trkpt>
      <trkpt lat="45.95135" lon="4.86409">
        <ele>268</ele>
        <time>2018-05-29T08:54:26Z</time>
      </trkpt>
      <trkpt lat="45.95141" lon="4.86414">
        <ele>268</ele>
        <time>2018-05-29T08:54:27Z</time>
      </trkpt>
      <trkpt lat="45.95146" lon="4.8642">
        <ele>268</ele>
        <time>2018-05-29T08:54:28Z</time>
      </trkpt>
      <trkpt lat="45.95151" lon="4.86427">
        <ele>268</ele>
        <time>2018-05-29T08:54:29Z</time>
      </trkpt>
      <trkpt lat="45.95156" lon="4.86433">
        <ele>268</ele>
        <time>2018-05-29T08:54:30Z</time>
      </trkpt>
      <trkpt lat="45.9516" lon="4.86439">
        <ele>268</ele>
        <time>2018-05-29T08:54:31Z</time>
      </trkpt>
      <trkpt lat="45.95164" lon="4.86445">
        <ele>269</ele>
        <time>2018-05-29T08:54:32Z</time>
      </trkpt>
      <trkpt lat="45.95171" lon="4.86451">
        <ele>268</ele>
        <time>2018-05-29T08:54:33Z</time>
      </trkpt>
      <trkpt lat="45.95175" lon="4.86457">
        <ele>268</ele>
        <time>2018-05-29T08:54:34Z</time>
      </trkpt>
      <trkpt lat="45.95179" lon="4.86464">
        <ele>268</ele>
        <time>2018-05-29T08:54:35Z</time>
      </trkpt>
      <trkpt lat="45.95184" lon="4.8647">
        <ele>268</ele>
        <time>2018-05-29T08:54:36Z</time>
      </trkpt>
      <trkpt lat="45.95189" lon="4.86475">
        <ele>268</ele>
        <time>2018-05-29T08:54:37Z</time>
      </trkpt>
      <trkpt lat="45.95195" lon="4.86483">
        <ele>268</ele>
        <time>2018-05-29T08:54:38Z</time>
      </trkpt>
      <trkpt lat="45.952" lon="4.8649">
        <ele>268</ele>
        <time>2018-05-29T08:54:39Z</time>
      </trkpt>
      <trkpt lat="45.95206" lon="4.86497">
        <ele>268</ele>
        <time>2018-05-29T08:54:40Z</time>
      </trkpt>
      <trkpt lat="45.95212" lon="4.86504">
        <ele>268</ele>
        <time>2018-05-29T08:54:41Z</time>
      </trkpt>
      <trkpt lat="45.95217" lon="4.86511">
        <ele>268</ele>
        <time>2018-05-29T08:54:42Z</time>
      </trkpt>
      <trkpt lat="45.95223" lon="4.86518">
        <ele>268</ele>
        <time>2018-05-29T08:54:43Z</time>
      </trkpt>
      <trkpt lat="45.95229" lon="4.86525">
        <ele>268</ele>
        <time>2018-05-29T08:54:44Z</time>
      </trkpt>
      <trkpt lat="45.95236" lon="4.86532">
        <ele>268</ele>
        <time>2018-05-29T08:54:45Z</time>
      </trkpt>
      <trkpt lat="45.9524" lon="4.8654">
        <ele>268</ele>
        <time>2018-05-29T08:54:46Z</time>
      </trkpt>
      <trkpt lat="45.95246" lon="4.86545">
        <ele>268</ele>
        <time>2018-05-29T08:54:47Z</time>
      </trkpt>
      <trkpt lat="45.95249" lon="4.86552">
        <ele>268</ele>
        <time>2018-05-29T08:54:48Z</time>
      </trkpt>
      <trkpt lat="45.95253" lon="4.86557">
        <ele>267</ele>
        <time>2018-05-29T08:54:49Z</time>
      </trkpt>
      <trkpt lat="45.95255" lon="4.86562">
        <ele>267</ele>
        <time>2018-05-29T08:54:50Z</time>
      </trkpt>
      <trkpt lat="45.95258" lon="4.86574">
        <ele>267</ele>
        <time>2018-05-29T08:54:52Z</time>
      </trkpt>
      <trkpt lat="45.95256" lon="4.86579">
        <ele>268</ele>
        <time>2018-05-29T08:54:53Z</time>
      </trkpt>
      <trkpt lat="45.95249" lon="4.86584">
        <ele>268</ele>
        <time>2018-05-29T08:54:55Z</time>
      </trkpt>
      <trkpt lat="45.95246" lon="4.86585">
        <ele>268</ele>
        <time>2018-05-29T08:54:56Z</time>
      </trkpt>
      <trkpt lat="45.95238" lon="4.86584">
        <ele>268</ele>
        <time>2018-05-29T08:54:58Z</time>
      </trkpt>
      <trkpt lat="45.95234" lon="4.86582">
        <ele>268</ele>
        <time>2018-05-29T08:54:59Z</time>
      </trkpt>
      <trkpt lat="45.95226" lon="4.86582">
        <ele>268</ele>
        <time>2018-05-29T08:55:01Z</time>
      </trkpt>
      <trkpt lat="45.95223" lon="4.86582">
        <ele>268</ele>
        <time>2018-05-29T08:55:02Z</time>
      </trkpt>
      <trkpt lat="45.95215" lon="4.86582">
        <ele>268</ele>
        <time>2018-05-29T08:55:04Z</time>
      </trkpt>
      <trkpt lat="45.95211" lon="4.86582">
        <ele>268</ele>
        <time>2018-05-29T08:55:05Z</time>
      </trkpt>
      <trkpt lat="45.95204" lon="4.86579">
        <ele>268</ele>
        <time>2018-05-29T08:55:08Z</time>
      </trkpt>
      <trkpt lat="45.95201" lon="4.86579">
        <ele>268</ele>
        <time>2018-05-29T08:55:09Z</time>
      </trkpt>
      <trkpt lat="45.95193" lon="4.86579">
        <ele>269</ele>
        <time>2018-05-29T08:55:12Z</time>
      </trkpt>
      <trkpt lat="45.9519" lon="4.8658">
        <ele>269</ele>
        <time>2018-05-29T08:55:13Z</time>
      </trkpt>
      <trkpt lat="45.95183" lon="4.86581">
        <ele>269</ele>
        <time>2018-05-29T08:55:15Z</time>
      </trkpt>
      <trkpt lat="45.9518" lon="4.86582">
        <ele>269</ele>
        <time>2018-05-29T08:55:16Z</time>
      </trkpt>
      <trkpt lat="45.95173" lon="4.86582">
        <ele>269</ele>
        <time>2018-05-29T08:55:18Z</time>
      </trkpt>
      <trkpt lat="45.9517" lon="4.86582">
        <ele>269</ele>
        <time>2018-05-29T08:55:19Z</time>
      </trkpt>
      <trkpt lat="45.95163" lon="4.86583">
        <ele>269</ele>
        <time>2018-05-29T08:55:21Z</time>
      </trkpt>
      <trkpt lat="45.9516" lon="4.86583">
        <ele>269</ele>
        <time>2018-05-29T08:55:22Z</time>
      </trkpt>
      <trkpt lat="45.95156" lon="4.86583">
        <ele>269</ele>
        <time>2018-05-29T08:55:23Z</time>
      </trkpt>
      <trkpt lat="45.95146" lon="4.86584">
        <ele>270</ele>
        <time>2018-05-29T08:55:24Z</time>
      </trkpt>
      <trkpt lat="45.95142" lon="4.86584">
        <ele>270</ele>
        <time>2018-05-29T08:55:26Z</time>
      </trkpt>
      <trkpt lat="45.95136" lon="4.86584">
        <ele>270</ele>
        <time>2018-05-29T08:55:27Z</time>
      </trkpt>
      <trkpt lat="45.95127" lon="4.86584">
        <ele>270</ele>
        <time>2018-05-29T08:55:31Z</time>
      </trkpt>
      <trkpt lat="45.95125" lon="4.86585">
        <ele>270</ele>
        <time>2018-05-29T08:55:32Z</time>
      </trkpt>
      <trkpt lat="45.95116" lon="4.86586">
        <ele>270</ele>
        <time>2018-05-29T08:55:35Z</time>
      </trkpt>
      <trkpt lat="45.95113" lon="4.86587">
        <ele>271</ele>
        <time>2018-05-29T08:55:36Z</time>
      </trkpt>
      <trkpt lat="45.95107" lon="4.86588">
        <ele>271</ele>
        <time>2018-05-29T08:55:38Z</time>
      </trkpt>
      <trkpt lat="45.95104" lon="4.86589">
        <ele>271</ele>
        <time>2018-05-29T08:55:39Z</time>
      </trkpt>
      <trkpt lat="45.95097" lon="4.8659">
        <ele>271</ele>
        <time>2018-05-29T08:55:41Z</time>
      </trkpt>
      <trkpt lat="45.95093" lon="4.8659">
        <ele>271</ele>
        <time>2018-05-29T08:55:42Z</time>
      </trkpt>
      <trkpt lat="45.95087" lon="4.86591">
        <ele>271</ele>
        <time>2018-05-29T08:55:44Z</time>
      </trkpt>
      <trkpt lat="45.95083" lon="4.86592">
        <ele>271</ele>
        <time>2018-05-29T08:55:45Z</time>
      </trkpt>
      <trkpt lat="45.95077" lon="4.86593">
        <ele>272</ele>
        <time>2018-05-29T08:55:47Z</time>
      </trkpt>
      <trkpt lat="45.95074" lon="4.86594">
        <ele>272</ele>
        <time>2018-05-29T08:55:48Z</time>
      </trkpt>
      <trkpt lat="45.95068" lon="4.86595">
        <ele>272</ele>
        <time>2018-05-29T08:55:50Z</time>
      </trkpt>
      <trkpt lat="45.95065" lon="4.86596">
        <ele>272</ele>
        <time>2018-05-29T08:55:51Z</time>
      </trkpt>
      <trkpt lat="45.95058" lon="4.86599">
        <ele>272</ele>
        <time>2018-05-29T08:55:53Z</time>
      </trkpt>
      <trkpt lat="45.95055" lon="4.866">
        <ele>272</ele>
        <time>2018-05-29T08:55:54Z</time>
      </trkpt>
      <trkpt lat="45.95049" lon="4.86602">
        <ele>272</ele>
        <time>2018-05-29T08:55:56Z</time>
      </trkpt>
      <trkpt lat="45.95045" lon="4.86604">
        <ele>272</ele>
        <time>2018-05-29T08:55:57Z</time>
      </trkpt>
      <trkpt lat="45.95039" lon="4.86605">
        <ele>273</ele>
        <time>2018-05-29T08:55:59Z</time>
      </trkpt>
      <trkpt lat="45.95036" lon="4.86606">
        <ele>273</ele>
        <time>2018-05-29T08:56:00Z</time>
      </trkpt>
      <trkpt lat="45.95029" lon="4.86607">
        <ele>273</ele>
        <time>2018-05-29T08:56:02Z</time>
      </trkpt>
      <trkpt lat="45.95026" lon="4.86608">
        <ele>273</ele>
        <time>2018-05-29T08:56:03Z</time>
      </trkpt>
      <trkpt lat="45.9502" lon="4.86608">
        <ele>273</ele>
        <time>2018-05-29T08:56:05Z</time>
      </trkpt>
      <trkpt lat="45.95017" lon="4.86608">
        <ele>273</ele>
        <time>2018-05-29T08:56:06Z</time>
      </trkpt>
      <trkpt lat="45.9501" lon="4.86609">
        <ele>273</ele>
        <time>2018-05-29T08:56:08Z</time>
      </trkpt>
      <trkpt lat="45.95007" lon="4.8661">
        <ele>273</ele>
        <time>2018-05-29T08:56:09Z</time>
      </trkpt>
      <trkpt lat="45.95001" lon="4.86612">
        <ele>273</ele>
        <time>2018-05-29T08:56:11Z</time>
      </trkpt>
      <trkpt lat="45.94998" lon="4.86613">
        <ele>275</ele>
        <time>2018-05-29T08:56:12Z</time>
      </trkpt>
      <trkpt lat="45.94992" lon="4.86614">
        <ele>275</ele>
        <time>2018-05-29T08:56:14Z</time>
      </trkpt>
      <trkpt lat="45.94989" lon="4.86614">
        <ele>275</ele>
        <time>2018-05-29T08:56:15Z</time>
      </trkpt>
      <trkpt lat="45.94982" lon="4.86615">
        <ele>275</ele>
        <time>2018-05-29T08:56:17Z</time>
      </trkpt>
      <trkpt lat="45.94979" lon="4.86616">
        <ele>275</ele>
        <time>2018-05-29T08:56:18Z</time>
      </trkpt>
      <trkpt lat="45.94973" lon="4.86618">
        <ele>275</ele>
        <time>2018-05-29T08:56:20Z</time>
      </trkpt>
      <trkpt lat="45.94969" lon="4.86619">
        <ele>275</ele>
        <time>2018-05-29T08:56:21Z</time>
      </trkpt>
      <trkpt lat="45.94963" lon="4.86623">
        <ele>275</ele>
        <time>2018-05-29T08:56:23Z</time>
      </trkpt>
      <trkpt lat="45.94955" lon="4.86629">
        <ele>276</ele>
        <time>2018-05-29T08:56:24Z</time>
      </trkpt>
      <trkpt lat="45.94949" lon="4.86637">
        <ele>276</ele>
        <time>2018-05-29T08:56:26Z</time>
      </trkpt>
      <trkpt lat="45.94946" lon="4.86642">
        <ele>276</ele>
        <time>2018-05-29T08:56:27Z</time>
      </trkpt>
      <trkpt lat="45.94942" lon="4.86651">
        <ele>276</ele>
        <time>2018-05-29T08:56:29Z</time>
      </trkpt>
      <trkpt lat="45.94942" lon="4.86654">
        <ele>276</ele>
        <time>2018-05-29T08:56:30Z</time>
      </trkpt>
      <trkpt lat="45.9494" lon="4.86664">
        <ele>276</ele>
        <time>2018-05-29T08:56:32Z</time>
      </trkpt>
      <trkpt lat="45.9494" lon="4.86667">
        <ele>276</ele>
        <time>2018-05-29T08:56:33Z</time>
      </trkpt>
      <trkpt lat="45.9494" lon="4.86671">
        <ele>276</ele>
        <time>2018-05-29T08:56:34Z</time>
      </trkpt>
      <trkpt lat="45.9494" lon="4.86683">
        <ele>276</ele>
        <time>2018-05-29T08:56:35Z</time>
      </trkpt>
      <trkpt lat="45.94942" lon="4.86695">
        <ele>276</ele>
        <time>2018-05-29T08:56:37Z</time>
      </trkpt>
      <trkpt lat="45.94943" lon="4.867">
        <ele>276</ele>
        <time>2018-05-29T08:56:38Z</time>
      </trkpt>
      <trkpt lat="45.94944" lon="4.86706">
        <ele>275</ele>
        <time>2018-05-29T08:56:39Z</time>
      </trkpt>
      <trkpt lat="45.94947" lon="4.86712">
        <ele>275</ele>
        <time>2018-05-29T08:56:40Z</time>
      </trkpt>
      <trkpt lat="45.9495" lon="4.86718">
        <ele>275</ele>
        <time>2018-05-29T08:56:41Z</time>
      </trkpt>
      <trkpt lat="45.94955" lon="4.86727">
        <ele>275</ele>
        <time>2018-05-29T08:56:42Z</time>
      </trkpt>
      <trkpt lat="45.94959" lon="4.86738">
        <ele>275</ele>
        <time>2018-05-29T08:56:44Z</time>
      </trkpt>
      <trkpt lat="45.94961" lon="4.86743">
        <ele>275</ele>
        <time>2018-05-29T08:56:45Z</time>
      </trkpt>
      <trkpt lat="45.94966" lon="4.86753">
        <ele>275</ele>
        <time>2018-05-29T08:56:47Z</time>
      </trkpt>
      <trkpt lat="45.94968" lon="4.86759">
        <ele>275</ele>
        <time>2018-05-29T08:56:48Z</time>
      </trkpt>
      <trkpt lat="45.94973" lon="4.8677">
        <ele>275</ele>
        <time>2018-05-29T08:56:50Z</time>
      </trkpt>
      <trkpt lat="45.94976" lon="4.86774">
        <ele>275</ele>
        <time>2018-05-29T08:56:51Z</time>
      </trkpt>
      <trkpt lat="45.94981" lon="4.86784">
        <ele>275</ele>
        <time>2018-05-29T08:56:53Z</time>
      </trkpt>
      <trkpt lat="45.94984" lon="4.8679">
        <ele>276</ele>
        <time>2018-05-29T08:56:54Z</time>
      </trkpt>
      <trkpt lat="45.94987" lon="4.86794">
        <ele>276</ele>
        <time>2018-05-29T08:56:55Z</time>
      </trkpt>
      <trkpt lat="45.9499" lon="4.868">
        <ele>276</ele>
        <time>2018-05-29T08:56:56Z</time>
      </trkpt>
      <trkpt lat="45.94993" lon="4.86805">
        <ele>276</ele>
        <time>2018-05-29T08:56:57Z</time>
      </trkpt>
      <trkpt lat="45.94996" lon="4.86811">
        <ele>276</ele>
        <time>2018-05-29T08:56:58Z</time>
      </trkpt>
      <trkpt lat="45.94998" lon="4.86817">
        <ele>276</ele>
        <time>2018-05-29T08:56:59Z</time>
      </trkpt>
      <trkpt lat="45.95" lon="4.86822">
        <ele>276</ele>
        <time>2018-05-29T08:57:00Z</time>
      </trkpt>
      <trkpt lat="45.95003" lon="4.86827">
        <ele>275</ele>
        <time>2018-05-29T08:57:01Z</time>
      </trkpt>
      <trkpt lat="45.95006" lon="4.86833">
        <ele>276</ele>
        <time>2018-05-29T08:57:02Z</time>
      </trkpt>
      <trkpt lat="45.95008" lon="4.86838">
        <ele>276</ele>
        <time>2018-05-29T08:57:03Z</time>
      </trkpt>
      <trkpt lat="45.95011" lon="4.86845">
        <ele>275</ele>
        <time>2018-05-29T08:57:04Z</time>
      </trkpt>
      <trkpt lat="45.95015" lon="4.86856">
        <ele>275</ele>
        <time>2018-05-29T08:57:06Z</time>
      </trkpt>
      <trkpt lat="45.95018" lon="4.86863">
        <ele>275</ele>
        <time>2018-05-29T08:57:07Z</time>
      </trkpt>
      <trkpt lat="45.9502" lon="4.86869">
        <ele>275</ele>
        <time>2018-05-29T08:57:08Z</time>
      </trkpt>
      <trkpt lat="45.95022" lon="4.86875">
        <ele>275</ele>
        <time>2018-05-29T08:57:09Z</time>
      </trkpt>
      <trkpt lat="45.95024" lon="4.86883">
        <ele>275</ele>
        <time>2018-05-29T08:57:10Z</time>
      </trkpt>
      <trkpt lat="45.95025" lon="4.8689">
        <ele>275</ele>
        <time>2018-05-29T08:57:11Z</time>
      </trkpt>
      <trkpt lat="45.95028" lon="4.86897">
        <ele>275</ele>
        <time>2018-05-29T08:57:12Z</time>
      </trkpt>
      <trkpt lat="45.95031" lon="4.86902">
        <ele>275</ele>
        <time>2018-05-29T08:57:13Z</time>
      </trkpt>
      <trkpt lat="45.95033" lon="4.86909">
        <ele>275</ele>
        <time>2018-05-29T08:57:14Z</time>
      </trkpt>
      <trkpt lat="45.95034" lon="4.86916">
        <ele>275</ele>
        <time>2018-05-29T08:57:15Z</time>
      </trkpt>
      <trkpt lat="45.95036" lon="4.86922">
        <ele>276</ele>
        <time>2018-05-29T08:57:16Z</time>
      </trkpt>
      <trkpt lat="45.95037" lon="4.86929">
        <ele>276</ele>
        <time>2018-05-29T08:57:17Z</time>
      </trkpt>
      <trkpt lat="45.95039" lon="4.86935">
        <ele>276</ele>
        <time>2018-05-29T08:57:18Z</time>
      </trkpt>
      <trkpt lat="45.95041" lon="4.86941">
        <ele>276</ele>
        <time>2018-05-29T08:57:19Z</time>
      </trkpt>
      <trkpt lat="45.95044" lon="4.86953">
        <ele>276</ele>
        <time>2018-05-29T08:57:21Z</time>
      </trkpt>
      <trkpt lat="45.95047" lon="4.86958">
        <ele>276</ele>
        <time>2018-05-29T08:57:22Z</time>
      </trkpt>
      <trkpt lat="45.95051" lon="4.86967">
        <ele>276</ele>
        <time>2018-05-29T08:57:24Z</time>
      </trkpt>
      <trkpt lat="45.95052" lon="4.86973">
        <ele>276</ele>
        <time>2018-05-29T08:57:25Z</time>
      </trkpt>
      <trkpt lat="45.95056" lon="4.86984">
        <ele>276</ele>
        <time>2018-05-29T08:57:27Z</time>
      </trkpt>
      <trkpt lat="45.95058" lon="4.8699">
        <ele>276</ele>
        <time>2018-05-29T08:57:28Z</time>
      </trkpt>
      <trkpt lat="45.95061" lon="4.86995">
        <ele>276</ele>
        <time>2018-05-29T08:57:29Z</time>
      </trkpt>
      <trkpt lat="45.95064" lon="4.87">
        <ele>277</ele>
        <time>2018-05-29T08:57:30Z</time>
      </trkpt>
      <trkpt lat="45.95067" lon="4.87005">
        <ele>277</ele>
        <time>2018-05-29T08:57:31Z</time>
      </trkpt>
      <trkpt lat="45.95067" lon="4.87012">
        <ele>277</ele>
        <time>2018-05-29T08:57:32Z</time>
      </trkpt>
      <trkpt lat="45.9507" lon="4.87017">
        <ele>277</ele>
        <time>2018-05-29T08:57:33Z</time>
      </trkpt>
      <trkpt lat="45.95075" lon="4.87021">
        <ele>277</ele>
        <time>2018-05-29T08:57:34Z</time>
      </trkpt>
      <trkpt lat="45.95078" lon="4.87028">
        <ele>277</ele>
        <time>2018-05-29T08:57:35Z</time>
      </trkpt>
      <trkpt lat="45.9508" lon="4.87034">
        <ele>277</ele>
        <time>2018-05-29T08:57:36Z</time>
      </trkpt>
      <trkpt lat="45.95084" lon="4.87041">
        <ele>277</ele>
        <time>2018-05-29T08:57:37Z</time>
      </trkpt>
      <trkpt lat="45.95086" lon="4.87045">
        <ele>277</ele>
        <time>2018-05-29T08:57:38Z</time>
      </trkpt>
      <trkpt lat="45.95088" lon="4.8705">
        <ele>277</ele>
        <time>2018-05-29T08:57:39Z</time>
      </trkpt>
      <trkpt lat="45.95091" lon="4.87056">
        <ele>277</ele>
        <time>2018-05-29T08:57:40Z</time>
      </trkpt>
      <trkpt lat="45.95094" lon="4.87063">
        <ele>277</ele>
        <time>2018-05-29T08:57:41Z</time>
      </trkpt>
      <trkpt lat="45.95096" lon="4.87069">
        <ele>277</ele>
        <time>2018-05-29T08:57:42Z</time>
      </trkpt>
      <trkpt lat="45.95098" lon="4.87076">
        <ele>277</ele>
        <time>2018-05-29T08:57:43Z</time>
      </trkpt>
      <trkpt lat="45.951" lon="4.87082">
        <ele>277</ele>
        <time>2018-05-29T08:57:44Z</time>
      </trkpt>
      <trkpt lat="45.95102" lon="4.87088">
        <ele>277</ele>
        <time>2018-05-29T08:57:45Z</time>
      </trkpt>
      <trkpt lat="45.95105" lon="4.87095">
        <ele>277</ele>
        <time>2018-05-29T08:57:46Z</time>
      </trkpt>
      <trkpt lat="45.95107" lon="4.87101">
        <ele>277</ele>
        <time>2018-05-29T08:57:47Z</time>
      </trkpt>
      <trkpt lat="45.95109" lon="4.87107">
        <ele>277</ele>
        <time>2018-05-29T08:57:48Z</time>
      </trkpt>
      <trkpt lat="45.95111" lon="4.87113">
        <ele>277</ele>
        <time>2018-05-29T08:57:49Z</time>
      </trkpt>
      <trkpt lat="45.95112" lon="4.8712">
        <ele>277</ele>
        <time>2018-05-29T08:57:50Z</time>
      </trkpt>
      <trkpt lat="45.95113" lon="4.8713">
        <ele>277</ele>
        <time>2018-05-29T08:57:52Z</time>
      </trkpt>
      <trkpt lat="45.95116" lon="4.8714">
        <ele>277</ele>
        <time>2018-05-29T08:57:53Z</time>
      </trkpt>
      <trkpt lat="45.95117" lon="4.87146">
        <ele>277</ele>
        <time>2018-05-29T08:57:54Z</time>
      </trkpt>
      <trkpt lat="45.95118" lon="4.87153">
        <ele>277</ele>
        <time>2018-05-29T08:57:55Z</time>
      </trkpt>
      <trkpt lat="45.95119" lon="4.87161">
        <ele>277</ele>
        <time>2018-05-29T08:57:56Z</time>
      </trkpt>
      <trkpt lat="45.95121" lon="4.87168">
        <ele>277</ele>
        <time>2018-05-29T08:57:57Z</time>
      </trkpt>
      <trkpt lat="45.95124" lon="4.87178">
        <ele>276</ele>
        <time>2018-05-29T08:57:58Z</time>
      </trkpt>
      <trkpt lat="45.95124" lon="4.87184">
        <ele>276</ele>
        <time>2018-05-29T08:57:59Z</time>
      </trkpt>
      <trkpt lat="45.95126" lon="4.8719">
        <ele>276</ele>
        <time>2018-05-29T08:58:00Z</time>
      </trkpt>
      <trkpt lat="45.95126" lon="4.87199">
        <ele>276</ele>
        <time>2018-05-29T08:58:01Z</time>
      </trkpt>
      <trkpt lat="45.95129" lon="4.87205">
        <ele>276</ele>
        <time>2018-05-29T08:58:02Z</time>
      </trkpt>
      <trkpt lat="45.9513" lon="4.87214">
        <ele>276</ele>
        <time>2018-05-29T08:58:03Z</time>
      </trkpt>
      <trkpt lat="45.95133" lon="4.87224">
        <ele>276</ele>
        <time>2018-05-29T08:58:04Z</time>
      </trkpt>
      <trkpt lat="45.95135" lon="4.87233">
        <ele>276</ele>
        <time>2018-05-29T08:58:05Z</time>
      </trkpt>
      <trkpt lat="45.95138" lon="4.87243">
        <ele>275</ele>
        <time>2018-05-29T08:58:06Z</time>
      </trkpt>
      <trkpt lat="45.95139" lon="4.87254">
        <ele>275</ele>
        <time>2018-05-29T08:58:07Z</time>
      </trkpt>
      <trkpt lat="45.95143" lon="4.87266">
        <ele>274</ele>
        <time>2018-05-29T08:58:08Z</time>
      </trkpt>
      <trkpt lat="45.95146" lon="4.87276">
        <ele>274</ele>
        <time>2018-05-29T08:58:09Z</time>
      </trkpt>
      <trkpt lat="45.95149" lon="4.87285">
        <ele>274</ele>
        <time>2018-05-29T08:58:10Z</time>
      </trkpt>
      <trkpt lat="45.95151" lon="4.87294">
        <ele>274</ele>
        <time>2018-05-29T08:58:11Z</time>
      </trkpt>
      <trkpt lat="45.95153" lon="4.87304">
        <ele>274</ele>
        <time>2018-05-29T08:58:12Z</time>
      </trkpt>
      <trkpt lat="45.95156" lon="4.87314">
        <ele>273</ele>
        <time>2018-05-29T08:58:13Z</time>
      </trkpt>
      <trkpt lat="45.95158" lon="4.87324">
        <ele>272</ele>
        <time>2018-05-29T08:58:14Z</time>
      </trkpt>
      <trkpt lat="45.95161" lon="4.87332">
        <ele>272</ele>
        <time>2018-05-29T08:58:15Z</time>
      </trkpt>
      <trkpt lat="45.95162" lon="4.87342">
        <ele>272</ele>
        <time>2018-05-29T08:58:16Z</time>
      </trkpt>
      <trkpt lat="45.95164" lon="4.87351">
        <ele>272</ele>
        <time>2018-05-29T08:58:17Z</time>
      </trkpt>
      <trkpt lat="45.95167" lon="4.8736">
        <ele>272</ele>
        <time>2018-05-29T08:58:18Z</time>
      </trkpt>
      <trkpt lat="45.95169" lon="4.87368">
        <ele>271</ele>
        <time>2018-05-29T08:58:19Z</time>
      </trkpt>
      <trkpt lat="45.95171" lon="4.87377">
        <ele>271</ele>
        <time>2018-05-29T08:58:20Z</time>
      </trkpt>
      <trkpt lat="45.95172" lon="4.87384">
        <ele>271</ele>
        <time>2018-05-29T08:58:21Z</time>
      </trkpt>
      <trkpt lat="45.95172" lon="4.87393">
        <ele>271</ele>
        <time>2018-05-29T08:58:22Z</time>
      </trkpt>
      <trkpt lat="45.95174" lon="4.87401">
        <ele>271</ele>
        <time>2018-05-29T08:58:23Z</time>
      </trkpt>
      <trkpt lat="45.95175" lon="4.87408">
        <ele>271</ele>
        <time>2018-05-29T08:58:24Z</time>
      </trkpt>
      <trkpt lat="45.95176" lon="4.87416">
        <ele>271</ele>
        <time>2018-05-29T08:58:25Z</time>
      </trkpt>
      <trkpt lat="45.95179" lon="4.87423">
        <ele>271</ele>
        <time>2018-05-29T08:58:26Z</time>
      </trkpt>
      <trkpt lat="45.95181" lon="4.8743">
        <ele>271</ele>
        <time>2018-05-29T08:58:27Z</time>
      </trkpt>
      <trkpt lat="45.95183" lon="4.87438">
        <ele>272</ele>
        <time>2018-05-29T08:58:28Z</time>
      </trkpt>
      <trkpt lat="45.95184" lon="4.87446">
        <ele>272</ele>
        <time>2018-05-29T08:58:29Z</time>
      </trkpt>
      <trkpt lat="45.95185" lon="4.87454">
        <ele>272</ele>
        <time>2018-05-29T08:58:30Z</time>
      </trkpt>
      <trkpt lat="45.95187" lon="4.87461">
        <ele>272</ele>
        <time>2018-05-29T08:58:31Z</time>
      </trkpt>
      <trkpt lat="45.95189" lon="4.87469">
        <ele>272</ele>
        <time>2018-05-29T08:58:32Z</time>
      </trkpt>
      <trkpt lat="45.9519" lon="4.87475">
        <ele>272</ele>
        <time>2018-05-29T08:58:33Z</time>
      </trkpt>
      <trkpt lat="45.95191" lon="4.87481">
        <ele>272</ele>
        <time>2018-05-29T08:58:34Z</time>
      </trkpt>
      <trkpt lat="45.95192" lon="4.8749">
        <ele>272</ele>
        <time>2018-05-29T08:58:35Z</time>
      </trkpt>
      <trkpt lat="45.95193" lon="4.87495">
        <ele>272</ele>
        <time>2018-05-29T08:58:36Z</time>
      </trkpt>
      <trkpt lat="45.95195" lon="4.87501">
        <ele>273</ele>
        <time>2018-05-29T08:58:37Z</time>
      </trkpt>
      <trkpt lat="45.95196" lon="4.87508">
        <ele>273</ele>
        <time>2018-05-29T08:58:38Z</time>
      </trkpt>
      <trkpt lat="45.95199" lon="4.87519">
        <ele>273</ele>
        <time>2018-05-29T08:58:40Z</time>
      </trkpt>
      <trkpt lat="45.95202" lon="4.87527">
        <ele>274</ele>
        <time>2018-05-29T08:58:41Z</time>
      </trkpt>
      <trkpt lat="45.95203" lon="4.87533">
        <ele>274</ele>
        <time>2018-05-29T08:58:42Z</time>
      </trkpt>
      <trkpt lat="45.95204" lon="4.8754">
        <ele>274</ele>
        <time>2018-05-29T08:58:43Z</time>
      </trkpt>
      <trkpt lat="45.95207" lon="4.87548">
        <ele>274</ele>
        <time>2018-05-29T08:58:44Z</time>
      </trkpt>
      <trkpt lat="45.95207" lon="4.87554">
        <ele>274</ele>
        <time>2018-05-29T08:58:45Z</time>
      </trkpt>
      <trkpt lat="45.95208" lon="4.87561">
        <ele>274</ele>
        <time>2018-05-29T08:58:46Z</time>
      </trkpt>
      <trkpt lat="45.95208" lon="4.87569">
        <ele>274</ele>
        <time>2018-05-29T08:58:47Z</time>
      </trkpt>
      <trkpt lat="45.95209" lon="4.87575">
        <ele>274</ele>
        <time>2018-05-29T08:58:48Z</time>
      </trkpt>
      <trkpt lat="45.95209" lon="4.87583">
        <ele>274</ele>
        <time>2018-05-29T08:58:49Z</time>
      </trkpt>
      <trkpt lat="45.95209" lon="4.8759">
        <ele>276</ele>
        <time>2018-05-29T08:58:50Z</time>
      </trkpt>
      <trkpt lat="45.9521" lon="4.87598">
        <ele>276</ele>
        <time>2018-05-29T08:58:51Z</time>
      </trkpt>
      <trkpt lat="45.95212" lon="4.87609">
        <ele>276</ele>
        <time>2018-05-29T08:58:53Z</time>
      </trkpt>
      <trkpt lat="45.95213" lon="4.87614">
        <ele>276</ele>
        <time>2018-05-29T08:58:54Z</time>
      </trkpt>
      <trkpt lat="45.95213" lon="4.87622">
        <ele>276</ele>
        <time>2018-05-29T08:58:55Z</time>
      </trkpt>
      <trkpt lat="45.95215" lon="4.87628">
        <ele>276</ele>
        <time>2018-05-29T08:58:56Z</time>
      </trkpt>
      <trkpt lat="45.95215" lon="4.87634">
        <ele>276</ele>
        <time>2018-05-29T08:58:57Z</time>
      </trkpt>
      <trkpt lat="45.95217" lon="4.87641">
        <ele>276</ele>
        <time>2018-05-29T08:58:58Z</time>
      </trkpt>
      <trkpt lat="45.95218" lon="4.87652">
        <ele>276</ele>
        <time>2018-05-29T08:59:00Z</time>
      </trkpt>
      <trkpt lat="45.95221" lon="4.87659">
        <ele>276</ele>
        <time>2018-05-29T08:59:01Z</time>
      </trkpt>
      <trkpt lat="45.95222" lon="4.87666">
        <ele>276</ele>
        <time>2018-05-29T08:59:02Z</time>
      </trkpt>
      <trkpt lat="45.95223" lon="4.87673">
        <ele>278</ele>
        <time>2018-05-29T08:59:03Z</time>
      </trkpt>
      <trkpt lat="45.95223" lon="4.87681">
        <ele>278</ele>
        <time>2018-05-29T08:59:04Z</time>
      </trkpt>
      <trkpt lat="45.95225" lon="4.87687">
        <ele>279</ele>
        <time>2018-05-29T08:59:05Z</time>
      </trkpt>
      <trkpt lat="45.95226" lon="4.87695">
        <ele>279</ele>
        <time>2018-05-29T08:59:06Z</time>
      </trkpt>
      <trkpt lat="45.95226" lon="4.87702">
        <ele>279</ele>
        <time>2018-05-29T08:59:07Z</time>
      </trkpt>
      <trkpt lat="45.95227" lon="4.87707">
        <ele>279</ele>
        <time>2018-05-29T08:59:08Z</time>
      </trkpt>
      <trkpt lat="45.95228" lon="4.87714">
        <ele>279</ele>
        <time>2018-05-29T08:59:09Z</time>
      </trkpt>
      <trkpt lat="45.95231" lon="4.87725">
        <ele>280</ele>
        <time>2018-05-29T08:59:11Z</time>
      </trkpt>
      <trkpt lat="45.95233" lon="4.87731">
        <ele>280</ele>
        <time>2018-05-29T08:59:12Z</time>
      </trkpt>
      <trkpt lat="45.95235" lon="4.87744">
        <ele>280</ele>
        <time>2018-05-29T08:59:14Z</time>
      </trkpt>
      <trkpt lat="45.95237" lon="4.87752">
        <ele>281</ele>
        <time>2018-05-29T08:59:15Z</time>
      </trkpt>
      <trkpt lat="45.95239" lon="4.87763">
        <ele>281</ele>
        <time>2018-05-29T08:59:17Z</time>
      </trkpt>
      <trkpt lat="45.95239" lon="4.8777">
        <ele>282</ele>
        <time>2018-05-29T08:59:18Z</time>
      </trkpt>
      <trkpt lat="45.95241" lon="4.87781">
        <ele>282</ele>
        <time>2018-05-29T08:59:20Z</time>
      </trkpt>
      <trkpt lat="45.95242" lon="4.87789">
        <ele>282</ele>
        <time>2018-05-29T08:59:21Z</time>
      </trkpt>
      <trkpt lat="45.95243" lon="4.878">
        <ele>282</ele>
        <time>2018-05-29T08:59:23Z</time>
      </trkpt>
      <trkpt lat="45.95244" lon="4.87807">
        <ele>282</ele>
        <time>2018-05-29T08:59:24Z</time>
      </trkpt>
      <trkpt lat="45.95245" lon="4.87814">
        <ele>282</ele>
        <time>2018-05-29T08:59:25Z</time>
      </trkpt>
      <trkpt lat="45.95245" lon="4.8782">
        <ele>282</ele>
        <time>2018-05-29T08:59:26Z</time>
      </trkpt>
      <trkpt lat="45.95247" lon="4.87829">
        <ele>282</ele>
        <time>2018-05-29T08:59:28Z</time>
      </trkpt>
      <trkpt lat="45.95247" lon="4.87835">
        <ele>282</ele>
        <time>2018-05-29T08:59:29Z</time>
      </trkpt>
      <trkpt lat="45.95248" lon="4.87841">
        <ele>283</ele>
        <time>2018-05-29T08:59:31Z</time>
      </trkpt>
      <trkpt lat="45.9525" lon="4.87848">
        <ele>283</ele>
        <time>2018-05-29T08:59:32Z</time>
      </trkpt>
      <trkpt lat="45.95252" lon="4.87859">
        <ele>281</ele>
        <time>2018-05-29T08:59:34Z</time>
      </trkpt>
      <trkpt lat="45.95253" lon="4.87862">
        <ele>281</ele>
        <time>2018-05-29T08:59:35Z</time>
      </trkpt>
      <trkpt lat="45.95255" lon="4.87869">
        <ele>281</ele>
        <time>2018-05-29T08:59:36Z</time>
      </trkpt>
      <trkpt lat="45.95256" lon="4.87874">
        <ele>281</ele>
        <time>2018-05-29T08:59:37Z</time>
      </trkpt>
      <trkpt lat="45.95258" lon="4.87886">
        <ele>281</ele>
        <time>2018-05-29T08:59:39Z</time>
      </trkpt>
      <trkpt lat="45.95259" lon="4.87892">
        <ele>281</ele>
        <time>2018-05-29T08:59:40Z</time>
      </trkpt>
      <trkpt lat="45.95261" lon="4.87903">
        <ele>281</ele>
        <time>2018-05-29T08:59:42Z</time>
      </trkpt>
      <trkpt lat="45.95262" lon="4.87909">
        <ele>281</ele>
        <time>2018-05-29T08:59:43Z</time>
      </trkpt>
      <trkpt lat="45.95262" lon="4.87918">
        <ele>281</ele>
        <time>2018-05-29T08:59:45Z</time>
      </trkpt>
      <trkpt lat="45.95262" lon="4.87926">
        <ele>281</ele>
        <time>2018-05-29T08:59:46Z</time>
      </trkpt>
      <trkpt lat="45.95261" lon="4.87937">
        <ele>280</ele>
        <time>2018-05-29T08:59:48Z</time>
      </trkpt>
      <trkpt lat="45.9526" lon="4.87942">
        <ele>280</ele>
        <time>2018-05-29T08:59:49Z</time>
      </trkpt>
      <trkpt lat="45.95257" lon="4.87952">
        <ele>280</ele>
        <time>2018-05-29T08:59:51Z</time>
      </trkpt>
      <trkpt lat="45.95256" lon="4.87957">
        <ele>280</ele>
        <time>2018-05-29T08:59:52Z</time>
      </trkpt>
      <trkpt lat="45.95253" lon="4.87962">
        <ele>280</ele>
        <time>2018-05-29T08:59:54Z</time>
      </trkpt>
      <trkpt lat="45.95249" lon="4.87969">
        <ele>282</ele>
        <time>2018-05-29T08:59:55Z</time>
      </trkpt>
      <trkpt lat="45.95244" lon="4.87977">
        <ele>282</ele>
        <time>2018-05-29T08:59:57Z</time>
      </trkpt>
      <trkpt lat="45.95242" lon="4.8798">
        <ele>281</ele>
        <time>2018-05-29T08:59:58Z</time>
      </trkpt>
      <trkpt lat="45.95236" lon="4.87987">
        <ele>281</ele>
        <time>2018-05-29T09:00:00Z</time>
      </trkpt>
      <trkpt lat="45.95233" lon="4.87991">
        <ele>281</ele>
        <time>2018-05-29T09:00:01Z</time>
      </trkpt>
      <trkpt lat="45.95229" lon="4.87997">
        <ele>281</ele>
        <time>2018-05-29T09:00:04Z</time>
      </trkpt>
      <trkpt lat="45.95222" lon="4.88006">
        <ele>281</ele>
        <time>2018-05-29T09:00:05Z</time>
      </trkpt>
      <trkpt lat="45.95218" lon="4.88012">
        <ele>281</ele>
        <time>2018-05-29T09:00:06Z</time>
      </trkpt>
      <trkpt lat="45.95215" lon="4.88015">
        <ele>281</ele>
        <time>2018-05-29T09:00:07Z</time>
      </trkpt>
      <trkpt lat="45.95212" lon="4.8802">
        <ele>281</ele>
        <time>2018-05-29T09:00:08Z</time>
      </trkpt>
      <trkpt lat="45.95209" lon="4.88026">
        <ele>281</ele>
        <time>2018-05-29T09:00:09Z</time>
      </trkpt>
      <trkpt lat="45.95203" lon="4.88034">
        <ele>281</ele>
        <time>2018-05-29T09:00:11Z</time>
      </trkpt>
      <trkpt lat="45.952" lon="4.8804">
        <ele>281</ele>
        <time>2018-05-29T09:00:12Z</time>
      </trkpt>
      <trkpt lat="45.95195" lon="4.8805">
        <ele>281</ele>
        <time>2018-05-29T09:00:14Z</time>
      </trkpt>
      <trkpt lat="45.95194" lon="4.88057">
        <ele>281</ele>
        <time>2018-05-29T09:00:15Z</time>
      </trkpt>
      <trkpt lat="45.95192" lon="4.88063">
        <ele>281</ele>
        <time>2018-05-29T09:00:16Z</time>
      </trkpt>
      <trkpt lat="45.95191" lon="4.88069">
        <ele>281</ele>
        <time>2018-05-29T09:00:17Z</time>
      </trkpt>
      <trkpt lat="45.95188" lon="4.8808">
        <ele>281</ele>
        <time>2018-05-29T09:00:19Z</time>
      </trkpt>
      <trkpt lat="45.95187" lon="4.88085">
        <ele>282</ele>
        <time>2018-05-29T09:00:20Z</time>
      </trkpt>
      <trkpt lat="45.95185" lon="4.88097">
        <ele>282</ele>
        <time>2018-05-29T09:00:22Z</time>
      </trkpt>
      <trkpt lat="45.95184" lon="4.88103">
        <ele>282</ele>
        <time>2018-05-29T09:00:23Z</time>
      </trkpt>
      <trkpt lat="45.95181" lon="4.88112">
        <ele>282</ele>
        <time>2018-05-29T09:00:25Z</time>
      </trkpt>
      <trkpt lat="45.9518" lon="4.88117">
        <ele>282</ele>
        <time>2018-05-29T09:00:26Z</time>
      </trkpt>
      <trkpt lat="45.95177" lon="4.88127">
        <ele>282</ele>
        <time>2018-05-29T09:00:28Z</time>
      </trkpt>
      <trkpt lat="45.95176" lon="4.88133">
        <ele>283</ele>
        <time>2018-05-29T09:00:29Z</time>
      </trkpt>
      <trkpt lat="45.95173" lon="4.88143">
        <ele>283</ele>
        <time>2018-05-29T09:00:31Z</time>
      </trkpt>
      <trkpt lat="45.95172" lon="4.88148">
        <ele>283</ele>
        <time>2018-05-29T09:00:32Z</time>
      </trkpt>
      <trkpt lat="45.9517" lon="4.8816">
        <ele>284</ele>
        <time>2018-05-29T09:00:34Z</time>
      </trkpt>
      <trkpt lat="45.9517" lon="4.88162">
        <ele>284</ele>
        <time>2018-05-29T09:00:35Z</time>
      </trkpt>
      <trkpt lat="45.95171" lon="4.88167">
        <ele>285</ele>
        <time>2018-05-29T09:00:37Z</time>
      </trkpt>
      <trkpt lat="45.95176" lon="4.88172">
        <ele>285</ele>
        <time>2018-05-29T09:00:38Z</time>
      </trkpt>
      <trkpt lat="45.95184" lon="4.88171">
        <ele>285</ele>
        <time>2018-05-29T09:00:40Z</time>
      </trkpt>
      <trkpt lat="45.95187" lon="4.8817">
        <ele>285</ele>
        <time>2018-05-29T09:00:41Z</time>
      </trkpt>
      <trkpt lat="45.95192" lon="4.88169">
        <ele>285</ele>
        <time>2018-05-29T09:00:42Z</time>
      </trkpt>
      <trkpt lat="45.95196" lon="4.88169">
        <ele>285</ele>
        <time>2018-05-29T09:00:43Z</time>
      </trkpt>
      <trkpt lat="45.95202" lon="4.88168">
        <ele>285</ele>
        <time>2018-05-29T09:00:44Z</time>
      </trkpt>
      <trkpt lat="45.95208" lon="4.88168">
        <ele>284</ele>
        <time>2018-05-29T09:00:45Z</time>
      </trkpt>
      <trkpt lat="45.95213" lon="4.88166">
        <ele>282</ele>
        <time>2018-05-29T09:00:46Z</time>
      </trkpt>
      <trkpt lat="45.95219" lon="4.88166">
        <ele>282</ele>
        <time>2018-05-29T09:00:47Z</time>
      </trkpt>
      <trkpt lat="45.95224" lon="4.88165">
        <ele>282</ele>
        <time>2018-05-29T09:00:48Z</time>
      </trkpt>
      <trkpt lat="45.9523" lon="4.88165">
        <ele>282</ele>
        <time>2018-05-29T09:00:49Z</time>
      </trkpt>
      <trkpt lat="45.95237" lon="4.88165">
        <ele>281</ele>
        <time>2018-05-29T09:00:50Z</time>
      </trkpt>
      <trkpt lat="45.95243" lon="4.88165">
        <ele>281</ele>
        <time>2018-05-29T09:00:51Z</time>
      </trkpt>
      <trkpt lat="45.9525" lon="4.88166">
        <ele>281</ele>
        <time>2018-05-29T09:00:52Z</time>
      </trkpt>
      <trkpt lat="45.95256" lon="4.88166">
        <ele>280</ele>
        <time>2018-05-29T09:00:53Z</time>
      </trkpt>
      <trkpt lat="45.95263" lon="4.88166">
        <ele>280</ele>
        <time>2018-05-29T09:00:54Z</time>
      </trkpt>
      <trkpt lat="45.95271" lon="4.88167">
        <ele>279</ele>
        <time>2018-05-29T09:00:55Z</time>
      </trkpt>
      <trkpt lat="45.95278" lon="4.88167">
        <ele>281</ele>
        <time>2018-05-29T09:00:56Z</time>
      </trkpt>
      <trkpt lat="45.95285" lon="4.88169">
        <ele>281</ele>
        <time>2018-05-29T09:00:57Z</time>
      </trkpt>
      <trkpt lat="45.95293" lon="4.8817">
        <ele>281</ele>
        <time>2018-05-29T09:00:58Z</time>
      </trkpt>
      <trkpt lat="45.95301" lon="4.88171">
        <ele>281</ele>
        <time>2018-05-29T09:00:59Z</time>
      </trkpt>
      <trkpt lat="45.95309" lon="4.88171">
        <ele>280</ele>
        <time>2018-05-29T09:01:00Z</time>
      </trkpt>
      <trkpt lat="45.95318" lon="4.88172">
        <ele>280</ele>
        <time>2018-05-29T09:01:01Z</time>
      </trkpt>
      <trkpt lat="45.95326" lon="4.88172">
        <ele>279</ele>
        <time>2018-05-29T09:01:02Z</time>
      </trkpt>
      <trkpt lat="45.95334" lon="4.88171">
        <ele>278</ele>
        <time>2018-05-29T09:01:03Z</time>
      </trkpt>
      <trkpt lat="45.95342" lon="4.88171">
        <ele>278</ele>
        <time>2018-05-29T09:01:04Z</time>
      </trkpt>
      <trkpt lat="45.9535" lon="4.8817">
        <ele>278</ele>
        <time>2018-05-29T09:01:05Z</time>
      </trkpt>
      <trkpt lat="45.95359" lon="4.88168">
        <ele>278</ele>
        <time>2018-05-29T09:01:06Z</time>
      </trkpt>
      <trkpt lat="45.95367" lon="4.88167">
        <ele>278</ele>
        <time>2018-05-29T09:01:07Z</time>
      </trkpt>
      <trkpt lat="45.95375" lon="4.88165">
        <ele>276</ele>
        <time>2018-05-29T09:01:08Z</time>
      </trkpt>
      <trkpt lat="45.95383" lon="4.88162">
        <ele>276</ele>
        <time>2018-05-29T09:01:09Z</time>
      </trkpt>
      <trkpt lat="45.95391" lon="4.8816">
        <ele>276</ele>
        <time>2018-05-29T09:01:10Z</time>
      </trkpt>
      <trkpt lat="45.95398" lon="4.88158">
        <ele>276</ele>
        <time>2018-05-29T09:01:11Z</time>
      </trkpt>
      <trkpt lat="45.95406" lon="4.88154">
        <ele>276</ele>
        <time>2018-05-29T09:01:12Z</time>
      </trkpt>
      <trkpt lat="45.95413" lon="4.88151">
        <ele>276</ele>
        <time>2018-05-29T09:01:13Z</time>
      </trkpt>
      <trkpt lat="45.95419" lon="4.88148">
        <ele>276</ele>
        <time>2018-05-29T09:01:14Z</time>
      </trkpt>
      <trkpt lat="45.95426" lon="4.88146">
        <ele>276</ele>
        <time>2018-05-29T09:01:15Z</time>
      </trkpt>
      <trkpt lat="45.95431" lon="4.88144">
        <ele>276</ele>
        <time>2018-05-29T09:01:16Z</time>
      </trkpt>
      <trkpt lat="45.95438" lon="4.88142">
        <ele>276</ele>
        <time>2018-05-29T09:01:17Z</time>
      </trkpt>
      <trkpt lat="45.95445" lon="4.88139">
        <ele>276</ele>
        <time>2018-05-29T09:01:18Z</time>
      </trkpt>
      <trkpt lat="45.95451" lon="4.88136">
        <ele>276</ele>
        <time>2018-05-29T09:01:19Z</time>
      </trkpt>
      <trkpt lat="45.95455" lon="4.88133">
        <ele>276</ele>
        <time>2018-05-29T09:01:20Z</time>
      </trkpt>
      <trkpt lat="45.9546" lon="4.88134">
        <ele>276</ele>
        <time>2018-05-29T09:01:21Z</time>
      </trkpt>
      <trkpt lat="45.95466" lon="4.88131">
        <ele>276</ele>
        <time>2018-05-29T09:01:22Z</time>
      </trkpt>
      <trkpt lat="45.9547" lon="4.88129">
        <ele>276</ele>
        <time>2018-05-29T09:01:23Z</time>
      </trkpt>
      <trkpt lat="45.95475" lon="4.88126">
        <ele>276</ele>
        <time>2018-05-29T09:01:24Z</time>
      </trkpt>
      <trkpt lat="45.9548" lon="4.88123">
        <ele>276</ele>
        <time>2018-05-29T09:01:25Z</time>
      </trkpt>
      <trkpt lat="45.95485" lon="4.8812">
        <ele>276</ele>
        <time>2018-05-29T09:01:26Z</time>
      </trkpt>
      <trkpt lat="45.9549" lon="4.88118">
        <ele>276</ele>
        <time>2018-05-29T09:01:27Z</time>
      </trkpt>
      <trkpt lat="45.95496" lon="4.88115">
        <ele>276</ele>
        <time>2018-05-29T09:01:28Z</time>
      </trkpt>
      <trkpt lat="45.955" lon="4.88113">
        <ele>276</ele>
        <time>2018-05-29T09:01:29Z</time>
      </trkpt>
      <trkpt lat="45.95506" lon="4.88111">
        <ele>276</ele>
        <time>2018-05-29T09:01:30Z</time>
      </trkpt>
      <trkpt lat="45.95511" lon="4.88109">
        <ele>276</ele>
        <time>2018-05-29T09:01:31Z</time>
      </trkpt>
      <trkpt lat="45.95516" lon="4.88108">
        <ele>276</ele>
        <time>2018-05-29T09:01:32Z</time>
      </trkpt>
      <trkpt lat="45.95521" lon="4.88105">
        <ele>277</ele>
        <time>2018-05-29T09:01:33Z</time>
      </trkpt>
      <trkpt lat="45.95526" lon="4.88103">
        <ele>277</ele>
        <time>2018-05-29T09:01:34Z</time>
      </trkpt>
      <trkpt lat="45.95531" lon="4.881">
        <ele>277</ele>
        <time>2018-05-29T09:01:35Z</time>
      </trkpt>
      <trkpt lat="45.95536" lon="4.88098">
        <ele>277</ele>
        <time>2018-05-29T09:01:36Z</time>
      </trkpt>
      <trkpt lat="45.95541" lon="4.88096">
        <ele>277</ele>
        <time>2018-05-29T09:01:37Z</time>
      </trkpt>
      <trkpt lat="45.95545" lon="4.88093">
        <ele>277</ele>
        <time>2018-05-29T09:01:38Z</time>
      </trkpt>
      <trkpt lat="45.9555" lon="4.88092">
        <ele>277</ele>
        <time>2018-05-29T09:01:39Z</time>
      </trkpt>
      <trkpt lat="45.95555" lon="4.8809">
        <ele>277</ele>
        <time>2018-05-29T09:01:40Z</time>
      </trkpt>
      <trkpt lat="45.9556" lon="4.88088">
        <ele>277</ele>
        <time>2018-05-29T09:01:41Z</time>
      </trkpt>
      <trkpt lat="45.95565" lon="4.88084">
        <ele>277</ele>
        <time>2018-05-29T09:01:42Z</time>
      </trkpt>
      <trkpt lat="45.9557" lon="4.88081">
        <ele>277</ele>
        <time>2018-05-29T09:01:43Z</time>
      </trkpt>
      <trkpt lat="45.95574" lon="4.88076">
        <ele>277</ele>
        <time>2018-05-29T09:01:44Z</time>
      </trkpt>
      <trkpt lat="45.9558" lon="4.88072">
        <ele>277</ele>
        <time>2018-05-29T09:01:45Z</time>
      </trkpt>
      <trkpt lat="45.95585" lon="4.88068">
        <ele>278</ele>
        <time>2018-05-29T09:01:46Z</time>
      </trkpt>
      <trkpt lat="45.9559" lon="4.88065">
        <ele>278</ele>
        <time>2018-05-29T09:01:47Z</time>
      </trkpt>
      <trkpt lat="45.95595" lon="4.88061">
        <ele>278</ele>
        <time>2018-05-29T09:01:48Z</time>
      </trkpt>
      <trkpt lat="45.956" lon="4.88057">
        <ele>278</ele>
        <time>2018-05-29T09:01:49Z</time>
      </trkpt>
      <trkpt lat="45.95604" lon="4.8805">
        <ele>278</ele>
        <time>2018-05-29T09:01:50Z</time>
      </trkpt>
      <trkpt lat="45.95609" lon="4.88046">
        <ele>278</ele>
        <time>2018-05-29T09:01:51Z</time>
      </trkpt>
      <trkpt lat="45.95612" lon="4.88042">
        <ele>278</ele>
        <time>2018-05-29T09:01:52Z</time>
      </trkpt>
      <trkpt lat="45.95616" lon="4.88039">
        <ele>278</ele>
        <time>2018-05-29T09:01:53Z</time>
      </trkpt>
      <trkpt lat="45.9562" lon="4.88035">
        <ele>278</ele>
        <time>2018-05-29T09:01:54Z</time>
      </trkpt>
      <trkpt lat="45.95627" lon="4.88028">
        <ele>279</ele>
        <time>2018-05-29T09:01:56Z</time>
      </trkpt>
      <trkpt lat="45.95631" lon="4.88026">
        <ele>279</ele>
        <time>2018-05-29T09:01:57Z</time>
      </trkpt>
      <trkpt lat="45.95635" lon="4.88023">
        <ele>279</ele>
        <time>2018-05-29T09:01:58Z</time>
      </trkpt>
      <trkpt lat="45.95639" lon="4.88019">
        <ele>279</ele>
        <time>2018-05-29T09:01:59Z</time>
      </trkpt>
      <trkpt lat="45.95645" lon="4.88011">
        <ele>279</ele>
        <time>2018-05-29T09:02:01Z</time>
      </trkpt>
      <trkpt lat="45.95649" lon="4.88009">
        <ele>280</ele>
        <time>2018-05-29T09:02:02Z</time>
      </trkpt>
      <trkpt lat="45.95656" lon="4.88002">
        <ele>280</ele>
        <time>2018-05-29T09:02:04Z</time>
      </trkpt>
      <trkpt lat="45.95659" lon="4.87997">
        <ele>280</ele>
        <time>2018-05-29T09:02:05Z</time>
      </trkpt>
      <trkpt lat="45.95663" lon="4.87993">
        <ele>280</ele>
        <time>2018-05-29T09:02:06Z</time>
      </trkpt>
      <trkpt lat="45.95667" lon="4.8799">
        <ele>282</ele>
        <time>2018-05-29T09:02:07Z</time>
      </trkpt>
      <trkpt lat="45.95672" lon="4.87983">
        <ele>282</ele>
        <time>2018-05-29T09:02:09Z</time>
      </trkpt>
      <trkpt lat="45.95676" lon="4.8798">
        <ele>282</ele>
        <time>2018-05-29T09:02:10Z</time>
      </trkpt>
      <trkpt lat="45.95684" lon="4.87974">
        <ele>282</ele>
        <time>2018-05-29T09:02:12Z</time>
      </trkpt>
      <trkpt lat="45.95688" lon="4.87971">
        <ele>282</ele>
        <time>2018-05-29T09:02:13Z</time>
      </trkpt>
      <trkpt lat="45.95695" lon="4.87965">
        <ele>282</ele>
        <time>2018-05-29T09:02:15Z</time>
      </trkpt>
      <trkpt lat="45.95696" lon="4.87964">
        <ele>282</ele>
        <time>2018-05-29T09:02:16Z</time>
      </trkpt>
      <trkpt lat="45.95704" lon="4.8796">
        <ele>283</ele>
        <time>2018-05-29T09:02:18Z</time>
      </trkpt>
      <trkpt lat="45.95706" lon="4.87959">
        <ele>283</ele>
        <time>2018-05-29T09:02:19Z</time>
      </trkpt>
      <trkpt lat="45.9571" lon="4.87956">
        <ele>283</ele>
        <time>2018-05-29T09:02:21Z</time>
      </trkpt>
      <trkpt lat="45.95717" lon="4.8795">
        <ele>283</ele>
        <time>2018-05-29T09:02:22Z</time>
      </trkpt>
      <trkpt lat="45.95723" lon="4.87944">
        <ele>283</ele>
        <time>2018-05-29T09:02:25Z</time>
      </trkpt>
      <trkpt lat="45.95725" lon="4.87941">
        <ele>283</ele>
        <time>2018-05-29T09:02:26Z</time>
      </trkpt>
      <trkpt lat="45.9573" lon="4.87937">
        <ele>283</ele>
        <time>2018-05-29T09:02:28Z</time>
      </trkpt>
      <trkpt lat="45.95733" lon="4.87934">
        <ele>284</ele>
        <time>2018-05-29T09:02:29Z</time>
      </trkpt>
      <trkpt lat="45.95738" lon="4.8793">
        <ele>284</ele>
        <time>2018-05-29T09:02:31Z</time>
      </trkpt>
      <trkpt lat="45.95741" lon="4.87928">
        <ele>284</ele>
        <time>2018-05-29T09:02:32Z</time>
      </trkpt>
      <trkpt lat="45.95748" lon="4.87923">
        <ele>284</ele>
        <time>2018-05-29T09:02:35Z</time>
      </trkpt>
      <trkpt lat="45.95751" lon="4.87921">
        <ele>285</ele>
        <time>2018-05-29T09:02:36Z</time>
      </trkpt>
      <trkpt lat="45.95758" lon="4.87917">
        <ele>285</ele>
        <time>2018-05-29T09:02:39Z</time>
      </trkpt>
      <trkpt lat="45.9576" lon="4.87915">
        <ele>285</ele>
        <time>2018-05-29T09:02:40Z</time>
      </trkpt>
      <trkpt lat="45.95767" lon="4.8791">
        <ele>286</ele>
        <time>2018-05-29T09:02:43Z</time>
      </trkpt>
      <trkpt lat="45.95769" lon="4.87909">
        <ele>286</ele>
        <time>2018-05-29T09:02:44Z</time>
      </trkpt>
      <trkpt lat="45.95777" lon="4.87903">
        <ele>286</ele>
        <time>2018-05-29T09:02:47Z</time>
      </trkpt>
      <trkpt lat="45.9578" lon="4.87902">
        <ele>286</ele>
        <time>2018-05-29T09:02:48Z</time>
      </trkpt>
      <trkpt lat="45.95788" lon="4.87897">
        <ele>286</ele>
        <time>2018-05-29T09:02:51Z</time>
      </trkpt>
      <trkpt lat="45.95791" lon="4.87896">
        <ele>286</ele>
        <time>2018-05-29T09:02:52Z</time>
      </trkpt>
      <trkpt lat="45.95799" lon="4.87892">
        <ele>287</ele>
        <time>2018-05-29T09:02:55Z</time>
      </trkpt>
      <trkpt lat="45.95801" lon="4.8789">
        <ele>287</ele>
        <time>2018-05-29T09:02:56Z</time>
      </trkpt>
      <trkpt lat="45.95807" lon="4.87887">
        <ele>287</ele>
        <time>2018-05-29T09:02:58Z</time>
      </trkpt>
      <trkpt lat="45.95815" lon="4.87882">
        <ele>287</ele>
        <time>2018-05-29T09:02:59Z</time>
      </trkpt>
      <trkpt lat="45.95824" lon="4.87879">
        <ele>287</ele>
        <time>2018-05-29T09:03:03Z</time>
      </trkpt>
      <trkpt lat="45.95826" lon="4.87879">
        <ele>287</ele>
        <time>2018-05-29T09:03:04Z</time>
      </trkpt>
      <trkpt lat="45.95833" lon="4.87876">
        <ele>287</ele>
        <time>2018-05-29T09:03:07Z</time>
      </trkpt>
      <trkpt lat="45.95836" lon="4.87874">
        <ele>289</ele>
        <time>2018-05-29T09:03:08Z</time>
      </trkpt>
      <trkpt lat="45.95843" lon="4.87868">
        <ele>289</ele>
        <time>2018-05-29T09:03:09Z</time>
      </trkpt>
      <trkpt lat="45.95847" lon="4.87866">
        <ele>289</ele>
        <time>2018-05-29T09:03:10Z</time>
      </trkpt>
      <trkpt lat="45.95854" lon="4.87861">
        <ele>289</ele>
        <time>2018-05-29T09:03:12Z</time>
      </trkpt>
      <trkpt lat="45.95857" lon="4.87858">
        <ele>289</ele>
        <time>2018-05-29T09:03:13Z</time>
      </trkpt>
      <trkpt lat="45.95864" lon="4.87851">
        <ele>289</ele>
        <time>2018-05-29T09:03:15Z</time>
      </trkpt>
      <trkpt lat="45.95867" lon="4.87847">
        <ele>289</ele>
        <time>2018-05-29T09:03:16Z</time>
      </trkpt>
      <trkpt lat="45.95873" lon="4.87838">
        <ele>289</ele>
        <time>2018-05-29T09:03:18Z</time>
      </trkpt>
      <trkpt lat="45.95877" lon="4.87834">
        <ele>289</ele>
        <time>2018-05-29T09:03:19Z</time>
      </trkpt>
      <trkpt lat="45.95881" lon="4.87831">
        <ele>288</ele>
        <time>2018-05-29T09:03:20Z</time>
      </trkpt>
      <trkpt lat="45.95886" lon="4.87827">
        <ele>288</ele>
        <time>2018-05-29T09:03:21Z</time>
      </trkpt>
      <trkpt lat="45.95892" lon="4.87818">
        <ele>288</ele>
        <time>2018-05-29T09:03:23Z</time>
      </trkpt>
      <trkpt lat="45.95896" lon="4.87811">
        <ele>288</ele>
        <time>2018-05-29T09:03:24Z</time>
      </trkpt>
      <trkpt lat="45.95902" lon="4.87802">
        <ele>288</ele>
        <time>2018-05-29T09:03:26Z</time>
      </trkpt>
      <trkpt lat="45.95902" lon="4.87796">
        <ele>288</ele>
        <time>2018-05-29T09:03:27Z</time>
      </trkpt>
      <trkpt lat="45.95908" lon="4.87787">
        <ele>288</ele>
        <time>2018-05-29T09:03:29Z</time>
      </trkpt>
      <trkpt lat="45.95911" lon="4.87783">
        <ele>288</ele>
        <time>2018-05-29T09:03:30Z</time>
      </trkpt>
      <trkpt lat="45.95915" lon="4.87778">
        <ele>288</ele>
        <time>2018-05-29T09:03:31Z</time>
      </trkpt>
      <trkpt lat="45.95918" lon="4.87772">
        <ele>289</ele>
        <time>2018-05-29T09:03:32Z</time>
      </trkpt>
      <trkpt lat="45.95923" lon="4.87762">
        <ele>288</ele>
        <time>2018-05-29T09:03:34Z</time>
      </trkpt>
      <trkpt lat="45.95926" lon="4.87757">
        <ele>288</ele>
        <time>2018-05-29T09:03:35Z</time>
      </trkpt>
      <trkpt lat="45.95929" lon="4.87752">
        <ele>288</ele>
        <time>2018-05-29T09:03:36Z</time>
      </trkpt>
      <trkpt lat="45.95932" lon="4.87747">
        <ele>288</ele>
        <time>2018-05-29T09:03:37Z</time>
      </trkpt>
      <trkpt lat="45.95935" lon="4.87742">
        <ele>288</ele>
        <time>2018-05-29T09:03:38Z</time>
      </trkpt>
      <trkpt lat="45.95938" lon="4.87737">
        <ele>288</ele>
        <time>2018-05-29T09:03:39Z</time>
      </trkpt>
      <trkpt lat="45.95942" lon="4.87732">
        <ele>289</ele>
        <time>2018-05-29T09:03:40Z</time>
      </trkpt>
      <trkpt lat="45.95945" lon="4.87727">
        <ele>289</ele>
        <time>2018-05-29T09:03:41Z</time>
      </trkpt>
      <trkpt lat="45.95949" lon="4.87723">
        <ele>289</ele>
        <time>2018-05-29T09:03:42Z</time>
      </trkpt>
      <trkpt lat="45.95952" lon="4.87718">
        <ele>289</ele>
        <time>2018-05-29T09:03:43Z</time>
      </trkpt>
      <trkpt lat="45.95955" lon="4.87713">
        <ele>289</ele>
        <time>2018-05-29T09:03:44Z</time>
      </trkpt>
      <trkpt lat="45.95959" lon="4.87709">
        <ele>289</ele>
        <time>2018-05-29T09:03:45Z</time>
      </trkpt>
      <trkpt lat="45.95963" lon="4.87704">
        <ele>289</ele>
        <time>2018-05-29T09:03:46Z</time>
      </trkpt>
      <trkpt lat="45.95967" lon="4.87699">
        <ele>289</ele>
        <time>2018-05-29T09:03:47Z</time>
      </trkpt>
      <trkpt lat="45.95971" lon="4.87694">
        <ele>289</ele>
        <time>2018-05-29T09:03:48Z</time>
      </trkpt>
      <trkpt lat="45.95976" lon="4.87688">
        <ele>289</ele>
        <time>2018-05-29T09:03:49Z</time>
      </trkpt>
      <trkpt lat="45.95981" lon="4.87683">
        <ele>289</ele>
        <time>2018-05-29T09:03:50Z</time>
      </trkpt>
      <trkpt lat="45.95986" lon="4.87678">
        <ele>289</ele>
        <time>2018-05-29T09:03:51Z</time>
      </trkpt>
      <trkpt lat="45.95991" lon="4.87671">
        <ele>290</ele>
        <time>2018-05-29T09:03:52Z</time>
      </trkpt>
      <trkpt lat="45.95994" lon="4.87669">
        <ele>290</ele>
        <time>2018-05-29T09:03:53Z</time>
      </trkpt>
      <trkpt lat="45.95998" lon="4.87664">
        <ele>290</ele>
        <time>2018-05-29T09:03:54Z</time>
      </trkpt>
      <trkpt lat="45.96002" lon="4.87659">
        <ele>290</ele>
        <time>2018-05-29T09:03:55Z</time>
      </trkpt>
      <trkpt lat="45.96006" lon="4.87655">
        <ele>289</ele>
        <time>2018-05-29T09:03:56Z</time>
      </trkpt>
      <trkpt lat="45.9601" lon="4.8765">
        <ele>289</ele>
        <time>2018-05-29T09:03:57Z</time>
      </trkpt>
      <trkpt lat="45.96014" lon="4.87644">
        <ele>289</ele>
        <time>2018-05-29T09:03:58Z</time>
      </trkpt>
      <trkpt lat="45.96018" lon="4.87639">
        <ele>289</ele>
        <time>2018-05-29T09:03:59Z</time>
      </trkpt>
      <trkpt lat="45.96022" lon="4.87634">
        <ele>289</ele>
        <time>2018-05-29T09:04:00Z</time>
      </trkpt>
      <trkpt lat="45.96026" lon="4.87629">
        <ele>289</ele>
        <time>2018-05-29T09:04:01Z</time>
      </trkpt>
      <trkpt lat="45.9603" lon="4.87625">
        <ele>289</ele>
        <time>2018-05-29T09:04:02Z</time>
      </trkpt>
      <trkpt lat="45.96034" lon="4.87619">
        <ele>289</ele>
        <time>2018-05-29T09:04:03Z</time>
      </trkpt>
      <trkpt lat="45.96038" lon="4.87617">
        <ele>289</ele>
        <time>2018-05-29T09:04:04Z</time>
      </trkpt>
      <trkpt lat="45.96041" lon="4.87612">
        <ele>289</ele>
        <time>2018-05-29T09:04:05Z</time>
      </trkpt>
      <trkpt lat="45.96046" lon="4.87606">
        <ele>289</ele>
        <time>2018-05-29T09:04:06Z</time>
      </trkpt>
      <trkpt lat="45.9605" lon="4.87602">
        <ele>289</ele>
        <time>2018-05-29T09:04:07Z</time>
      </trkpt>
      <trkpt lat="45.96054" lon="4.87597">
        <ele>288</ele>
        <time>2018-05-29T09:04:08Z</time>
      </trkpt>
      <trkpt lat="45.96059" lon="4.87592">
        <ele>288</ele>
        <time>2018-05-29T09:04:09Z</time>
      </trkpt>
      <trkpt lat="45.96063" lon="4.87587">
        <ele>288</ele>
        <time>2018-05-29T09:04:10Z</time>
      </trkpt>
      <trkpt lat="45.96068" lon="4.87582">
        <ele>288</ele>
        <time>2018-05-29T09:04:11Z</time>
      </trkpt>
      <trkpt lat="45.96072" lon="4.87578">
        <ele>288</ele>
        <time>2018-05-29T09:04:12Z</time>
      </trkpt>
      <trkpt lat="45.96077" lon="4.87572">
        <ele>288</ele>
        <time>2018-05-29T09:04:13Z</time>
      </trkpt>
      <trkpt lat="45.96081" lon="4.87568">
        <ele>288</ele>
        <time>2018-05-29T09:04:14Z</time>
      </trkpt>
      <trkpt lat="45.96084" lon="4.87564">
        <ele>287</ele>
        <time>2018-05-29T09:04:15Z</time>
      </trkpt>
      <trkpt lat="45.96087" lon="4.8756">
        <ele>287</ele>
        <time>2018-05-29T09:04:16Z</time>
      </trkpt>
      <trkpt lat="45.96092" lon="4.87556">
        <ele>287</ele>
        <time>2018-05-29T09:04:17Z</time>
      </trkpt>
      <trkpt lat="45.96096" lon="4.87551">
        <ele>287</ele>
        <time>2018-05-29T09:04:18Z</time>
      </trkpt>
      <trkpt lat="45.961" lon="4.87547">
        <ele>287</ele>
        <time>2018-05-29T09:04:19Z</time>
      </trkpt>
      <trkpt lat="45.96105" lon="4.87541">
        <ele>287</ele>
        <time>2018-05-29T09:04:20Z</time>
      </trkpt>
      <trkpt lat="45.96109" lon="4.87537">
        <ele>287</ele>
        <time>2018-05-29T09:04:21Z</time>
      </trkpt>
      <trkpt lat="45.96113" lon="4.87532">
        <ele>287</ele>
        <time>2018-05-29T09:04:22Z</time>
      </trkpt>
      <trkpt lat="45.96118" lon="4.87527">
        <ele>287</ele>
        <time>2018-05-29T09:04:23Z</time>
      </trkpt>
      <trkpt lat="45.96124" lon="4.87524">
        <ele>286</ele>
        <time>2018-05-29T09:04:24Z</time>
      </trkpt>
      <trkpt lat="45.96129" lon="4.87515">
        <ele>286</ele>
        <time>2018-05-29T09:04:25Z</time>
      </trkpt>
      <trkpt lat="45.96133" lon="4.8751">
        <ele>286</ele>
        <time>2018-05-29T09:04:26Z</time>
      </trkpt>
      <trkpt lat="45.96139" lon="4.87504">
        <ele>286</ele>
        <time>2018-05-29T09:04:27Z</time>
      </trkpt>
      <trkpt lat="45.96144" lon="4.87499">
        <ele>285</ele>
        <time>2018-05-29T09:04:28Z</time>
      </trkpt>
      <trkpt lat="45.96147" lon="4.87496">
        <ele>285</ele>
        <time>2018-05-29T09:04:29Z</time>
      </trkpt>
      <trkpt lat="45.96152" lon="4.8749">
        <ele>285</ele>
        <time>2018-05-29T09:04:30Z</time>
      </trkpt>
      <trkpt lat="45.96157" lon="4.87484">
        <ele>285</ele>
        <time>2018-05-29T09:04:31Z</time>
      </trkpt>
      <trkpt lat="45.96162" lon="4.87478">
        <ele>285</ele>
        <time>2018-05-29T09:04:32Z</time>
      </trkpt>
      <trkpt lat="45.96168" lon="4.87474">
        <ele>284</ele>
        <time>2018-05-29T09:04:33Z</time>
      </trkpt>
      <trkpt lat="45.96172" lon="4.87467">
        <ele>284</ele>
        <time>2018-05-29T09:04:34Z</time>
      </trkpt>
      <trkpt lat="45.96178" lon="4.8746">
        <ele>284</ele>
        <time>2018-05-29T09:04:35Z</time>
      </trkpt>
      <trkpt lat="45.96184" lon="4.87455">
        <ele>284</ele>
        <time>2018-05-29T09:04:36Z</time>
      </trkpt>
      <trkpt lat="45.9619" lon="4.87449">
        <ele>284</ele>
        <time>2018-05-29T09:04:37Z</time>
      </trkpt>
      <trkpt lat="45.96195" lon="4.87442">
        <ele>284</ele>
        <time>2018-05-29T09:04:38Z</time>
      </trkpt>
      <trkpt lat="45.96201" lon="4.87436">
        <ele>284</ele>
        <time>2018-05-29T09:04:39Z</time>
      </trkpt>
      <trkpt lat="45.96207" lon="4.87429">
        <ele>284</ele>
        <time>2018-05-29T09:04:40Z</time>
      </trkpt>
      <trkpt lat="45.96212" lon="4.87422">
        <ele>284</ele>
        <time>2018-05-29T09:04:41Z</time>
      </trkpt>
      <trkpt lat="45.96217" lon="4.87416">
        <ele>283</ele>
        <time>2018-05-29T09:04:42Z</time>
      </trkpt>
      <trkpt lat="45.96223" lon="4.87409">
        <ele>283</ele>
        <time>2018-05-29T09:04:43Z</time>
      </trkpt>
      <trkpt lat="45.96229" lon="4.87401">
        <ele>283</ele>
        <time>2018-05-29T09:04:44Z</time>
      </trkpt>
      <trkpt lat="45.96234" lon="4.87395">
        <ele>283</ele>
        <time>2018-05-29T09:04:45Z</time>
      </trkpt>
      <trkpt lat="45.96239" lon="4.87389">
        <ele>283</ele>
        <time>2018-05-29T09:04:46Z</time>
      </trkpt>
      <trkpt lat="45.96245" lon="4.87383">
        <ele>283</ele>
        <time>2018-05-29T09:04:47Z</time>
      </trkpt>
      <trkpt lat="45.9625" lon="4.87377">
        <ele>283</ele>
        <time>2018-05-29T09:04:48Z</time>
      </trkpt>
      <trkpt lat="45.96254" lon="4.87371">
        <ele>283</ele>
        <time>2018-05-29T09:04:49Z</time>
      </trkpt>
      <trkpt lat="45.96259" lon="4.87366">
        <ele>283</ele>
        <time>2018-05-29T09:04:50Z</time>
      </trkpt>
      <trkpt lat="45.96263" lon="4.87359">
        <ele>283</ele>
        <time>2018-05-29T09:04:51Z</time>
      </trkpt>
      <trkpt lat="45.96267" lon="4.87353">
        <ele>283</ele>
        <time>2018-05-29T09:04:52Z</time>
      </trkpt>
      <trkpt lat="45.96272" lon="4.87348">
        <ele>283</ele>
        <time>2018-05-29T09:04:53Z</time>
      </trkpt>
      <trkpt lat="45.96276" lon="4.87342">
        <ele>284</ele>
        <time>2018-05-29T09:04:54Z</time>
      </trkpt>
      <trkpt lat="45.96281" lon="4.87336">
        <ele>284</ele>
        <time>2018-05-29T09:04:55Z</time>
      </trkpt>
      <trkpt lat="45.96286" lon="4.8733">
        <ele>283</ele>
        <time>2018-05-29T09:04:56Z</time>
      </trkpt>
      <trkpt lat="45.9629" lon="4.87322">
        <ele>283</ele>
        <time>2018-05-29T09:04:57Z</time>
      </trkpt>
      <trkpt lat="45.96295" lon="4.87316">
        <ele>283</ele>
        <time>2018-05-29T09:04:58Z</time>
      </trkpt>
      <trkpt lat="45.963" lon="4.8731">
        <ele>283</ele>
        <time>2018-05-29T09:04:59Z</time>
      </trkpt>
      <trkpt lat="45.96306" lon="4.87304">
        <ele>283</ele>
        <time>2018-05-29T09:05:00Z</time>
      </trkpt>
      <trkpt lat="45.96311" lon="4.87296">
        <ele>283</ele>
        <time>2018-05-29T09:05:01Z</time>
      </trkpt>
      <trkpt lat="45.96316" lon="4.87289">
        <ele>283</ele>
        <time>2018-05-29T09:05:02Z</time>
      </trkpt>
      <trkpt lat="45.96321" lon="4.87283">
        <ele>283</ele>
        <time>2018-05-29T09:05:03Z</time>
      </trkpt>
      <trkpt lat="45.96326" lon="4.87277">
        <ele>283</ele>
        <time>2018-05-29T09:05:04Z</time>
      </trkpt>
      <trkpt lat="45.96331" lon="4.87272">
        <ele>283</ele>
        <time>2018-05-29T09:05:05Z</time>
      </trkpt>
      <trkpt lat="45.96335" lon="4.87264">
        <ele>283</ele>
        <time>2018-05-29T09:05:06Z</time>
      </trkpt>
      <trkpt lat="45.9634" lon="4.87258">
        <ele>283</ele>
        <time>2018-05-29T09:05:07Z</time>
      </trkpt>
      <trkpt lat="45.96344" lon="4.87252">
        <ele>283</ele>
        <time>2018-05-29T09:05:08Z</time>
      </trkpt>
      <trkpt lat="45.9635" lon="4.87244">
        <ele>282</ele>
        <time>2018-05-29T09:05:09Z</time>
      </trkpt>
      <trkpt lat="45.96355" lon="4.87238">
        <ele>282</ele>
        <time>2018-05-29T09:05:10Z</time>
      </trkpt>
      <trkpt lat="45.9636" lon="4.87234">
        <ele>282</ele>
        <time>2018-05-29T09:05:11Z</time>
      </trkpt>
      <trkpt lat="45.96364" lon="4.87228">
        <ele>282</ele>
        <time>2018-05-29T09:05:12Z</time>
      </trkpt>
      <trkpt lat="45.96367" lon="4.87224">
        <ele>282</ele>
        <time>2018-05-29T09:05:13Z</time>
      </trkpt>
      <trkpt lat="45.96372" lon="4.87218">
        <ele>282</ele>
        <time>2018-05-29T09:05:14Z</time>
      </trkpt>
      <trkpt lat="45.96377" lon="4.87212">
        <ele>282</ele>
        <time>2018-05-29T09:05:15Z</time>
      </trkpt>
      <trkpt lat="45.96381" lon="4.87206">
        <ele>282</ele>
        <time>2018-05-29T09:05:16Z</time>
      </trkpt>
      <trkpt lat="45.96386" lon="4.87199">
        <ele>282</ele>
        <time>2018-05-29T09:05:17Z</time>
      </trkpt>
      <trkpt lat="45.96391" lon="4.87192">
        <ele>282</ele>
        <time>2018-05-29T09:05:18Z</time>
      </trkpt>
      <trkpt lat="45.96396" lon="4.87185">
        <ele>282</ele>
        <time>2018-05-29T09:05:19Z</time>
      </trkpt>
      <trkpt lat="45.96401" lon="4.87177">
        <ele>282</ele>
        <time>2018-05-29T09:05:20Z</time>
      </trkpt>
      <trkpt lat="45.96407" lon="4.87169">
        <ele>281</ele>
        <time>2018-05-29T09:05:21Z</time>
      </trkpt>
      <trkpt lat="45.96413" lon="4.87162">
        <ele>281</ele>
        <time>2018-05-29T09:05:22Z</time>
      </trkpt>
      <trkpt lat="45.96418" lon="4.87156">
        <ele>281</ele>
        <time>2018-05-29T09:05:23Z</time>
      </trkpt>
      <trkpt lat="45.96423" lon="4.87149">
        <ele>281</ele>
        <time>2018-05-29T09:05:24Z</time>
      </trkpt>
      <trkpt lat="45.96428" lon="4.87142">
        <ele>281</ele>
        <time>2018-05-29T09:05:25Z</time>
      </trkpt>
      <trkpt lat="45.96431" lon="4.87138">
        <ele>281</ele>
        <time>2018-05-29T09:05:26Z</time>
      </trkpt>
      <trkpt lat="45.96436" lon="4.87132">
        <ele>281</ele>
        <time>2018-05-29T09:05:27Z</time>
      </trkpt>
      <trkpt lat="45.96441" lon="4.87127">
        <ele>281</ele>
        <time>2018-05-29T09:05:28Z</time>
      </trkpt>
      <trkpt lat="45.96445" lon="4.87122">
        <ele>281</ele>
        <time>2018-05-29T09:05:29Z</time>
      </trkpt>
      <trkpt lat="45.96448" lon="4.87119">
        <ele>281</ele>
        <time>2018-05-29T09:05:30Z</time>
      </trkpt>
      <trkpt lat="45.96453" lon="4.87115">
        <ele>281</ele>
        <time>2018-05-29T09:05:31Z</time>
      </trkpt>
      <trkpt lat="45.96455" lon="4.87109">
        <ele>281</ele>
        <time>2018-05-29T09:05:32Z</time>
      </trkpt>
      <trkpt lat="45.96459" lon="4.87103">
        <ele>282</ele>
        <time>2018-05-29T09:05:33Z</time>
      </trkpt>
      <trkpt lat="45.96463" lon="4.87098">
        <ele>282</ele>
        <time>2018-05-29T09:05:34Z</time>
      </trkpt>
      <trkpt lat="45.96466" lon="4.87094">
        <ele>282</ele>
        <time>2018-05-29T09:05:35Z</time>
      </trkpt>
      <trkpt lat="45.96469" lon="4.87088">
        <ele>282</ele>
        <time>2018-05-29T09:05:36Z</time>
      </trkpt>
      <trkpt lat="45.96474" lon="4.87084">
        <ele>282</ele>
        <time>2018-05-29T09:05:37Z</time>
      </trkpt>
      <trkpt lat="45.96478" lon="4.87079">
        <ele>282</ele>
        <time>2018-05-29T09:05:38Z</time>
      </trkpt>
      <trkpt lat="45.96481" lon="4.87073">
        <ele>282</ele>
        <time>2018-05-29T09:05:39Z</time>
      </trkpt>
      <trkpt lat="45.96484" lon="4.87068">
        <ele>282</ele>
        <time>2018-05-29T09:05:40Z</time>
      </trkpt>
      <trkpt lat="45.96487" lon="4.87064">
        <ele>282</ele>
        <time>2018-05-29T09:05:41Z</time>
      </trkpt>
      <trkpt lat="45.96494" lon="4.87055">
        <ele>281</ele>
        <time>2018-05-29T09:05:43Z</time>
      </trkpt>
      <trkpt lat="45.96497" lon="4.8705">
        <ele>281</ele>
        <time>2018-05-29T09:05:44Z</time>
      </trkpt>
      <trkpt lat="45.965" lon="4.87048">
        <ele>282</ele>
        <time>2018-05-29T09:05:46Z</time>
      </trkpt>
      <trkpt lat="45.96506" lon="4.87046">
        <ele>282</ele>
        <time>2018-05-29T09:05:47Z</time>
      </trkpt>
      <trkpt lat="45.96511" lon="4.87056">
        <ele>283</ele>
        <time>2018-05-29T09:05:51Z</time>
      </trkpt>
      <trkpt lat="45.96513" lon="4.87058">
        <ele>283</ele>
        <time>2018-05-29T09:05:52Z</time>
      </trkpt>
      <trkpt lat="45.96519" lon="4.87064">
        <ele>283</ele>
        <time>2018-05-29T09:05:55Z</time>
      </trkpt>
      <trkpt lat="45.96521" lon="4.87066">
        <ele>283</ele>
        <time>2018-05-29T09:05:56Z</time>
      </trkpt>
      <trkpt lat="45.9653" lon="4.87064">
        <ele>283</ele>
        <time>2018-05-29T09:06:00Z</time>
      </trkpt>
      <trkpt lat="45.96531" lon="4.87063">
        <ele>283</ele>
        <time>2018-05-29T09:06:01Z</time>
      </trkpt>
      <trkpt lat="45.96539" lon="4.8707">
        <ele>283</ele>
        <time>2018-05-29T09:06:10Z</time>
      </trkpt>
      <trkpt lat="45.9654" lon="4.87072">
        <ele>283</ele>
        <time>2018-05-29T09:06:11Z</time>
      </trkpt>
      <trkpt lat="45.96547" lon="4.87075">
        <ele>283</ele>
        <time>2018-05-29T09:06:15Z</time>
      </trkpt>
      <trkpt lat="45.96549" lon="4.87075">
        <ele>283</ele>
        <time>2018-05-29T09:06:16Z</time>
      </trkpt>
      <trkpt lat="45.96557" lon="4.87072">
        <ele>283</ele>
        <time>2018-05-29T09:06:19Z</time>
      </trkpt>
      <trkpt lat="45.96559" lon="4.87069">
        <ele>283</ele>
        <time>2018-05-29T09:06:20Z</time>
      </trkpt>
      <trkpt lat="45.9656" lon="4.8706">
        <ele>283</ele>
        <time>2018-05-29T09:06:22Z</time>
      </trkpt>
      <trkpt lat="45.9656" lon="4.87056">
        <ele>283</ele>
        <time>2018-05-29T09:06:23Z</time>
      </trkpt>
      <trkpt lat="45.9656" lon="4.87046">
        <ele>283</ele>
        <time>2018-05-29T09:06:25Z</time>
      </trkpt>
      <trkpt lat="45.96559" lon="4.87042">
        <ele>283</ele>
        <time>2018-05-29T09:06:26Z</time>
      </trkpt>
      <trkpt lat="45.96556" lon="4.8703">
        <ele>283</ele>
        <time>2018-05-29T09:06:29Z</time>
      </trkpt>
      <trkpt lat="45.96554" lon="4.87027">
        <ele>283</ele>
        <time>2018-05-29T09:06:30Z</time>
      </trkpt>
      <trkpt lat="45.96546" lon="4.87023">
        <ele>283</ele>
        <time>2018-05-29T09:06:34Z</time>
      </trkpt>
      <trkpt lat="45.96543" lon="4.87022">
        <ele>283</ele>
        <time>2018-05-29T09:06:35Z</time>
      </trkpt>
      <trkpt lat="45.96535" lon="4.87023">
        <ele>283</ele>
        <time>2018-05-29T09:06:39Z</time>
      </trkpt>
      <trkpt lat="45.96533" lon="4.87024">
        <ele>283</ele>
        <time>2018-05-29T09:06:40Z</time>
      </trkpt>
      <trkpt lat="45.9653" lon="4.87027">
        <ele>283</ele>
        <time>2018-05-29T09:07:23Z</time>
      </trkpt>
      <trkpt lat="45.9653" lon="4.87027">
        <ele>283</ele>
        <time>2018-05-29T09:07:24Z</time>
      </trkpt>
      <trkpt lat="45.96529" lon="4.87027">
        <ele>283</ele>
        <time>2018-05-29T09:07:25Z</time>
      </trkpt>
      <trkpt lat="45.96529" lon="4.87028">
        <ele>283</ele>
        <time>2018-05-29T09:07:26Z</time>
      </trkpt>
      <trkpt lat="45.96529" lon="4.8703">
        <ele>283</ele>
        <time>2018-05-29T09:08:56Z</time>
      </trkpt>
      <trkpt lat="45.96529" lon="4.8703">
        <ele>283</ele>
        <time>2018-05-29T09:08:57Z</time>
      </trkpt>
      <trkpt lat="45.96528" lon="4.87036">
        <ele>283</ele>
        <time>2018-05-29T09:16:18.736Z</time>
      </trkpt>
      <trkpt lat="45.96529" lon="4.87035">
        <ele>283</ele>
        <time>2018-05-29T09:16:19.736Z</time>
      </trkpt>
      <trkpt lat="45.96532" lon="4.87031">
        <ele>283</ele>
        <time>2018-05-29T09:18:35Z</time>
      </trkpt>
      <trkpt lat="45.96533" lon="4.87031">
        <ele>283</ele>
        <time>2018-05-29T09:18:36Z</time>
      </trkpt>
      <trkpt lat="45.96538" lon="4.87024">
        <ele>283</ele>
        <time>2018-05-29T09:18:55Z</time>
      </trkpt>
      <trkpt lat="45.96539" lon="4.87022">
        <ele>283</ele>
        <time>2018-05-29T09:18:56Z</time>
      </trkpt>
      <trkpt lat="45.96541" lon="4.87011">
        <ele>283</ele>
        <time>2018-05-29T09:19:00Z</time>
      </trkpt>
      <trkpt lat="45.96542" lon="4.87008">
        <ele>283</ele>
        <time>2018-05-29T09:19:01Z</time>
      </trkpt>
      <trkpt lat="45.96542" lon="4.86997">
        <ele>283</ele>
        <time>2018-05-29T09:19:04Z</time>
      </trkpt>
      <trkpt lat="45.96543" lon="4.86994">
        <ele>283</ele>
        <time>2018-05-29T09:19:05Z</time>
      </trkpt>
      <trkpt lat="45.96546" lon="4.86984">
        <ele>283</ele>
        <time>2018-05-29T09:19:08Z</time>
      </trkpt>
      <trkpt lat="45.96547" lon="4.86981">
        <ele>283</ele>
        <time>2018-05-29T09:19:09Z</time>
      </trkpt>
      <trkpt lat="45.96553" lon="4.86972">
        <ele>283</ele>
        <time>2018-05-29T09:19:12Z</time>
      </trkpt>
      <trkpt lat="45.96556" lon="4.86969">
        <ele>283</ele>
        <time>2018-05-29T09:19:13Z</time>
      </trkpt>
      <trkpt lat="45.96561" lon="4.86961">
        <ele>283</ele>
        <time>2018-05-29T09:19:16Z</time>
      </trkpt>
      <trkpt lat="45.96563" lon="4.86958">
        <ele>283</ele>
        <time>2018-05-29T09:19:17Z</time>
      </trkpt>
      <trkpt lat="45.96568" lon="4.86948">
        <ele>284</ele>
        <time>2018-05-29T09:19:20Z</time>
      </trkpt>
      <trkpt lat="45.9657" lon="4.86944">
        <ele>284</ele>
        <time>2018-05-29T09:19:21Z</time>
      </trkpt>
      <trkpt lat="45.96575" lon="4.86934">
        <ele>284</ele>
        <time>2018-05-29T09:19:24Z</time>
      </trkpt>
      <trkpt lat="45.96577" lon="4.86931">
        <ele>284</ele>
        <time>2018-05-29T09:19:25Z</time>
      </trkpt>
      <trkpt lat="45.96582" lon="4.86924">
        <ele>284</ele>
        <time>2018-05-29T09:19:27Z</time>
      </trkpt>
      <trkpt lat="45.96584" lon="4.86921">
        <ele>285</ele>
        <time>2018-05-29T09:19:28Z</time>
      </trkpt>
      <trkpt lat="45.96588" lon="4.86914">
        <ele>285</ele>
        <time>2018-05-29T09:19:30Z</time>
      </trkpt>
      <trkpt lat="45.9659" lon="4.86911">
        <ele>286</ele>
        <time>2018-05-29T09:19:31Z</time>
      </trkpt>
      <trkpt lat="45.96595" lon="4.869">
        <ele>286</ele>
        <time>2018-05-29T09:19:34Z</time>
      </trkpt>
      <trkpt lat="45.96597" lon="4.86897">
        <ele>286</ele>
        <time>2018-05-29T09:19:35Z</time>
      </trkpt>
      <trkpt lat="45.96601" lon="4.8689">
        <ele>286</ele>
        <time>2018-05-29T09:19:37Z</time>
      </trkpt>
      <trkpt lat="45.96603" lon="4.86887">
        <ele>287</ele>
        <time>2018-05-29T09:19:38Z</time>
      </trkpt>
      <trkpt lat="45.96608" lon="4.8688">
        <ele>287</ele>
        <time>2018-05-29T09:19:40Z</time>
      </trkpt>
      <trkpt lat="45.96616" lon="4.86869">
        <ele>287</ele>
        <time>2018-05-29T09:19:41Z</time>
      </trkpt>
      <trkpt lat="45.96621" lon="4.8686">
        <ele>287</ele>
        <time>2018-05-29T09:19:44Z</time>
      </trkpt>
      <trkpt lat="45.96623" lon="4.86857">
        <ele>287</ele>
        <time>2018-05-29T09:19:45Z</time>
      </trkpt>
      <trkpt lat="45.96625" lon="4.86854">
        <ele>287</ele>
        <time>2018-05-29T09:19:46Z</time>
      </trkpt>
      <trkpt lat="45.96632" lon="4.86843">
        <ele>287</ele>
        <time>2018-05-29T09:19:47Z</time>
      </trkpt>
      <trkpt lat="45.96638" lon="4.86834">
        <ele>287</ele>
        <time>2018-05-29T09:19:49Z</time>
      </trkpt>
      <trkpt lat="45.9664" lon="4.8683">
        <ele>288</ele>
        <time>2018-05-29T09:19:50Z</time>
      </trkpt>
      <trkpt lat="45.96646" lon="4.86821">
        <ele>288</ele>
        <time>2018-05-29T09:19:52Z</time>
      </trkpt>
      <trkpt lat="45.96648" lon="4.86816">
        <ele>288</ele>
        <time>2018-05-29T09:19:53Z</time>
      </trkpt>
      <trkpt lat="45.96654" lon="4.86807">
        <ele>288</ele>
        <time>2018-05-29T09:19:55Z</time>
      </trkpt>
      <trkpt lat="45.96657" lon="4.86803">
        <ele>288</ele>
        <time>2018-05-29T09:19:56Z</time>
      </trkpt>
      <trkpt lat="45.96659" lon="4.86798">
        <ele>288</ele>
        <time>2018-05-29T09:19:58Z</time>
      </trkpt>
      <trkpt lat="45.96664" lon="4.86791">
        <ele>288</ele>
        <time>2018-05-29T09:19:59Z</time>
      </trkpt>
      <trkpt lat="45.96668" lon="4.86782">
        <ele>289</ele>
        <time>2018-05-29T09:20:01Z</time>
      </trkpt>
      <trkpt lat="45.96671" lon="4.86778">
        <ele>289</ele>
        <time>2018-05-29T09:20:02Z</time>
      </trkpt>
      <trkpt lat="45.96674" lon="4.86772">
        <ele>289</ele>
        <time>2018-05-29T09:20:04Z</time>
      </trkpt>
      <trkpt lat="45.96678" lon="4.86767">
        <ele>289</ele>
        <time>2018-05-29T09:20:05Z</time>
      </trkpt>
      <trkpt lat="45.96684" lon="4.86757">
        <ele>289</ele>
        <time>2018-05-29T09:20:07Z</time>
      </trkpt>
      <trkpt lat="45.96687" lon="4.86753">
        <ele>289</ele>
        <time>2018-05-29T09:20:08Z</time>
      </trkpt>
      <trkpt lat="45.96693" lon="4.86744">
        <ele>289</ele>
        <time>2018-05-29T09:20:10Z</time>
      </trkpt>
      <trkpt lat="45.96696" lon="4.86739">
        <ele>289</ele>
        <time>2018-05-29T09:20:11Z</time>
      </trkpt>
      <trkpt lat="45.96702" lon="4.8673">
        <ele>289</ele>
        <time>2018-05-29T09:20:13Z</time>
      </trkpt>
      <trkpt lat="45.96705" lon="4.86725">
        <ele>289</ele>
        <time>2018-05-29T09:20:14Z</time>
      </trkpt>
      <trkpt lat="45.96708" lon="4.8672">
        <ele>289</ele>
        <time>2018-05-29T09:20:15Z</time>
      </trkpt>
      <trkpt lat="45.96711" lon="4.86714">
        <ele>289</ele>
        <time>2018-05-29T09:20:16Z</time>
      </trkpt>
      <trkpt lat="45.96716" lon="4.86706">
        <ele>289</ele>
        <time>2018-05-29T09:20:18Z</time>
      </trkpt>
      <trkpt lat="45.96719" lon="4.86702">
        <ele>289</ele>
        <time>2018-05-29T09:20:19Z</time>
      </trkpt>
      <trkpt lat="45.96721" lon="4.86697">
        <ele>289</ele>
        <time>2018-05-29T09:20:20Z</time>
      </trkpt>
      <trkpt lat="45.96724" lon="4.86692">
        <ele>289</ele>
        <time>2018-05-29T09:20:21Z</time>
      </trkpt>
      <trkpt lat="45.9673" lon="4.86682">
        <ele>289</ele>
        <time>2018-05-29T09:20:23Z</time>
      </trkpt>
      <trkpt lat="45.96732" lon="4.86678">
        <ele>290</ele>
        <time>2018-05-29T09:20:24Z</time>
      </trkpt>
      <trkpt lat="45.96737" lon="4.86669">
        <ele>290</ele>
        <time>2018-05-29T09:20:26Z</time>
      </trkpt>
      <trkpt lat="45.9674" lon="4.86664">
        <ele>290</ele>
        <time>2018-05-29T09:20:27Z</time>
      </trkpt>
      <trkpt lat="45.96744" lon="4.86655">
        <ele>290</ele>
        <time>2018-05-29T09:20:29Z</time>
      </trkpt>
      <trkpt lat="45.96747" lon="4.8665">
        <ele>290</ele>
        <time>2018-05-29T09:20:30Z</time>
      </trkpt>
      <trkpt lat="45.96752" lon="4.86641">
        <ele>290</ele>
        <time>2018-05-29T09:20:32Z</time>
      </trkpt>
      <trkpt lat="45.96755" lon="4.86636">
        <ele>290</ele>
        <time>2018-05-29T09:20:33Z</time>
      </trkpt>
      <trkpt lat="45.96761" lon="4.86626">
        <ele>289</ele>
        <time>2018-05-29T09:20:35Z</time>
      </trkpt>
      <trkpt lat="45.96764" lon="4.8662">
        <ele>289</ele>
        <time>2018-05-29T09:20:36Z</time>
      </trkpt>
      <trkpt lat="45.96768" lon="4.86614">
        <ele>289</ele>
        <time>2018-05-29T09:20:37Z</time>
      </trkpt>
      <trkpt lat="45.96771" lon="4.86609">
        <ele>289</ele>
        <time>2018-05-29T09:20:38Z</time>
      </trkpt>
      <trkpt lat="45.96777" lon="4.866">
        <ele>289</ele>
        <time>2018-05-29T09:20:40Z</time>
      </trkpt>
      <trkpt lat="45.9678" lon="4.86594">
        <ele>289</ele>
        <time>2018-05-29T09:20:41Z</time>
      </trkpt>
      <trkpt lat="45.96786" lon="4.86585">
        <ele>289</ele>
        <time>2018-05-29T09:20:43Z</time>
      </trkpt>
      <trkpt lat="45.96789" lon="4.86578">
        <ele>290</ele>
        <time>2018-05-29T09:20:44Z</time>
      </trkpt>
      <trkpt lat="45.96792" lon="4.86573">
        <ele>290</ele>
        <time>2018-05-29T09:20:45Z</time>
      </trkpt>
      <trkpt lat="45.96795" lon="4.86568">
        <ele>290</ele>
        <time>2018-05-29T09:20:46Z</time>
      </trkpt>
      <trkpt lat="45.96798" lon="4.86563">
        <ele>290</ele>
        <time>2018-05-29T09:20:47Z</time>
      </trkpt>
      <trkpt lat="45.96801" lon="4.86559">
        <ele>290</ele>
        <time>2018-05-29T09:20:48Z</time>
      </trkpt>
      <trkpt lat="45.96804" lon="4.86555">
        <ele>290</ele>
        <time>2018-05-29T09:20:49Z</time>
      </trkpt>
      <trkpt lat="45.96808" lon="4.86549">
        <ele>290</ele>
        <time>2018-05-29T09:20:50Z</time>
      </trkpt>
      <trkpt lat="45.96813" lon="4.86539">
        <ele>290</ele>
        <time>2018-05-29T09:20:52Z</time>
      </trkpt>
      <trkpt lat="45.96816" lon="4.86535">
        <ele>290</ele>
        <time>2018-05-29T09:20:53Z</time>
      </trkpt>
      <trkpt lat="45.96822" lon="4.86527">
        <ele>289</ele>
        <time>2018-05-29T09:20:55Z</time>
      </trkpt>
      <trkpt lat="45.96824" lon="4.86522">
        <ele>289</ele>
        <time>2018-05-29T09:20:56Z</time>
      </trkpt>
      <trkpt lat="45.96829" lon="4.86512">
        <ele>289</ele>
        <time>2018-05-29T09:20:58Z</time>
      </trkpt>
      <trkpt lat="45.96832" lon="4.86503">
        <ele>289</ele>
        <time>2018-05-29T09:20:59Z</time>
      </trkpt>
      <trkpt lat="45.96834" lon="4.86497">
        <ele>289</ele>
        <time>2018-05-29T09:21:00Z</time>
      </trkpt>
      <trkpt lat="45.96837" lon="4.86491">
        <ele>289</ele>
        <time>2018-05-29T09:21:01Z</time>
      </trkpt>
      <trkpt lat="45.9684" lon="4.86486">
        <ele>289</ele>
        <time>2018-05-29T09:21:02Z</time>
      </trkpt>
      <trkpt lat="45.96842" lon="4.8648">
        <ele>289</ele>
        <time>2018-05-29T09:21:03Z</time>
      </trkpt>
      <trkpt lat="45.96844" lon="4.86473">
        <ele>289</ele>
        <time>2018-05-29T09:21:04Z</time>
      </trkpt>
      <trkpt lat="45.96847" lon="4.86466">
        <ele>289</ele>
        <time>2018-05-29T09:21:05Z</time>
      </trkpt>
      <trkpt lat="45.96851" lon="4.86455">
        <ele>289</ele>
        <time>2018-05-29T09:21:07Z</time>
      </trkpt>
      <trkpt lat="45.96854" lon="4.86447">
        <ele>289</ele>
        <time>2018-05-29T09:21:08Z</time>
      </trkpt>
      <trkpt lat="45.96855" lon="4.8644">
        <ele>290</ele>
        <time>2018-05-29T09:21:09Z</time>
      </trkpt>
      <trkpt lat="45.96857" lon="4.86432">
        <ele>290</ele>
        <time>2018-05-29T09:21:10Z</time>
      </trkpt>
      <trkpt lat="45.96858" lon="4.86425">
        <ele>290</ele>
        <time>2018-05-29T09:21:11Z</time>
      </trkpt>
      <trkpt lat="45.96859" lon="4.86418">
        <ele>290</ele>
        <time>2018-05-29T09:21:12Z</time>
      </trkpt>
      <trkpt lat="45.9686" lon="4.86411">
        <ele>290</ele>
        <time>2018-05-29T09:21:13Z</time>
      </trkpt>
      <trkpt lat="45.96862" lon="4.86404">
        <ele>290</ele>
        <time>2018-05-29T09:21:14Z</time>
      </trkpt>
      <trkpt lat="45.96862" lon="4.86397">
        <ele>290</ele>
        <time>2018-05-29T09:21:15Z</time>
      </trkpt>
      <trkpt lat="45.96865" lon="4.86389">
        <ele>290</ele>
        <time>2018-05-29T09:21:16Z</time>
      </trkpt>
      <trkpt lat="45.96865" lon="4.86377">
        <ele>290</ele>
        <time>2018-05-29T09:21:18Z</time>
      </trkpt>
      <trkpt lat="45.96866" lon="4.86368">
        <ele>290</ele>
        <time>2018-05-29T09:21:19Z</time>
      </trkpt>
      <trkpt lat="45.96867" lon="4.86361">
        <ele>290</ele>
        <time>2018-05-29T09:21:20Z</time>
      </trkpt>
      <trkpt lat="45.96868" lon="4.86352">
        <ele>290</ele>
        <time>2018-05-29T09:21:21Z</time>
      </trkpt>
      <trkpt lat="45.96868" lon="4.86345">
        <ele>290</ele>
        <time>2018-05-29T09:21:22Z</time>
      </trkpt>
      <trkpt lat="45.96869" lon="4.86338">
        <ele>290</ele>
        <time>2018-05-29T09:21:23Z</time>
      </trkpt>
      <trkpt lat="45.9687" lon="4.86329">
        <ele>289</ele>
        <time>2018-05-29T09:21:25Z</time>
      </trkpt>
      <trkpt lat="45.96872" lon="4.86322">
        <ele>289</ele>
        <time>2018-05-29T09:21:26Z</time>
      </trkpt>
      <trkpt lat="45.96874" lon="4.86312">
        <ele>289</ele>
        <time>2018-05-29T09:21:28Z</time>
      </trkpt>
      <trkpt lat="45.96875" lon="4.86306">
        <ele>289</ele>
        <time>2018-05-29T09:21:29Z</time>
      </trkpt>
      <trkpt lat="45.96877" lon="4.86295">
        <ele>289</ele>
        <time>2018-05-29T09:21:31Z</time>
      </trkpt>
      <trkpt lat="45.96878" lon="4.86289">
        <ele>289</ele>
        <time>2018-05-29T09:21:32Z</time>
      </trkpt>
      <trkpt lat="45.96879" lon="4.86279">
        <ele>289</ele>
        <time>2018-05-29T09:21:35Z</time>
      </trkpt>
      <trkpt lat="45.9688" lon="4.86275">
        <ele>289</ele>
        <time>2018-05-29T09:21:36Z</time>
      </trkpt>
      <trkpt lat="45.96881" lon="4.86265">
        <ele>288</ele>
        <time>2018-05-29T09:21:37Z</time>
      </trkpt>
      <trkpt lat="45.96882" lon="4.86262">
        <ele>288</ele>
        <time>2018-05-29T09:21:38Z</time>
      </trkpt>
      <trkpt lat="45.96882" lon="4.86249">
        <ele>288</ele>
        <time>2018-05-29T09:22:40Z</time>
      </trkpt>
      <trkpt lat="45.96882" lon="4.86249">
        <ele>288</ele>
        <time>2018-05-29T09:22:41Z</time>
      </trkpt>
      <trkpt lat="45.96884" lon="4.86239">
        <ele>288</ele>
        <time>2018-05-29T09:22:48Z</time>
      </trkpt>
      <trkpt lat="45.96884" lon="4.86236">
        <ele>288</ele>
        <time>2018-05-29T09:22:49Z</time>
      </trkpt>
      <trkpt lat="45.96886" lon="4.86226">
        <ele>289</ele>
        <time>2018-05-29T09:22:52Z</time>
      </trkpt>
      <trkpt lat="45.96887" lon="4.86222">
        <ele>289</ele>
        <time>2018-05-29T09:22:53Z</time>
      </trkpt>
      <trkpt lat="45.96887" lon="4.86218">
        <ele>289</ele>
        <time>2018-05-29T09:22:54Z</time>
      </trkpt>
      <trkpt lat="45.96888" lon="4.86204">
        <ele>289</ele>
        <time>2018-05-29T09:22:55Z</time>
      </trkpt>
      <trkpt lat="45.9689" lon="4.86193">
        <ele>289</ele>
        <time>2018-05-29T09:22:57Z</time>
      </trkpt>
      <trkpt lat="45.96891" lon="4.86185">
        <ele>289</ele>
        <time>2018-05-29T09:22:58Z</time>
      </trkpt>
      <trkpt lat="45.96892" lon="4.86177">
        <ele>289</ele>
        <time>2018-05-29T09:22:59Z</time>
      </trkpt>
      <trkpt lat="45.96893" lon="4.86169">
        <ele>289</ele>
        <time>2018-05-29T09:23:00Z</time>
      </trkpt>
      <trkpt lat="45.96894" lon="4.86161">
        <ele>289</ele>
        <time>2018-05-29T09:23:01Z</time>
      </trkpt>
      <trkpt lat="45.96895" lon="4.86152">
        <ele>289</ele>
        <time>2018-05-29T09:23:02Z</time>
      </trkpt>
      <trkpt lat="45.96896" lon="4.86144">
        <ele>289</ele>
        <time>2018-05-29T09:23:03Z</time>
      </trkpt>
      <trkpt lat="45.96897" lon="4.86136">
        <ele>289</ele>
        <time>2018-05-29T09:23:04Z</time>
      </trkpt>
      <trkpt lat="45.96899" lon="4.86127">
        <ele>289</ele>
        <time>2018-05-29T09:23:05Z</time>
      </trkpt>
      <trkpt lat="45.96899" lon="4.86118">
        <ele>289</ele>
        <time>2018-05-29T09:23:06Z</time>
      </trkpt>
      <trkpt lat="45.969" lon="4.8611">
        <ele>289</ele>
        <time>2018-05-29T09:23:07Z</time>
      </trkpt>
      <trkpt lat="45.96901" lon="4.86101">
        <ele>288</ele>
        <time>2018-05-29T09:23:08Z</time>
      </trkpt>
      <trkpt lat="45.96902" lon="4.86092">
        <ele>288</ele>
        <time>2018-05-29T09:23:09Z</time>
      </trkpt>
      <trkpt lat="45.96902" lon="4.86084">
        <ele>288</ele>
        <time>2018-05-29T09:23:10Z</time>
      </trkpt>
      <trkpt lat="45.96903" lon="4.86075">
        <ele>288</ele>
        <time>2018-05-29T09:23:11Z</time>
      </trkpt>
      <trkpt lat="45.96904" lon="4.86067">
        <ele>288</ele>
        <time>2018-05-29T09:23:12Z</time>
      </trkpt>
      <trkpt lat="45.96905" lon="4.86057">
        <ele>288</ele>
        <time>2018-05-29T09:23:13Z</time>
      </trkpt>
      <trkpt lat="45.96906" lon="4.86048">
        <ele>289</ele>
        <time>2018-05-29T09:23:14Z</time>
      </trkpt>
      <trkpt lat="45.96907" lon="4.86038">
        <ele>289</ele>
        <time>2018-05-29T09:23:15Z</time>
      </trkpt>
      <trkpt lat="45.96908" lon="4.86029">
        <ele>289</ele>
        <time>2018-05-29T09:23:16Z</time>
      </trkpt>
      <trkpt lat="45.9691" lon="4.8602">
        <ele>289</ele>
        <time>2018-05-29T09:23:17Z</time>
      </trkpt>
      <trkpt lat="45.96913" lon="4.86013">
        <ele>288</ele>
        <time>2018-05-29T09:23:18Z</time>
      </trkpt>
      <trkpt lat="45.96915" lon="4.86005">
        <ele>288</ele>
        <time>2018-05-29T09:23:19Z</time>
      </trkpt>
      <trkpt lat="45.96916" lon="4.85996">
        <ele>288</ele>
        <time>2018-05-29T09:23:20Z</time>
      </trkpt>
      <trkpt lat="45.96918" lon="4.85987">
        <ele>287</ele>
        <time>2018-05-29T09:23:21Z</time>
      </trkpt>
      <trkpt lat="45.96921" lon="4.85978">
        <ele>287</ele>
        <time>2018-05-29T09:23:22Z</time>
      </trkpt>
      <trkpt lat="45.96922" lon="4.85971">
        <ele>287</ele>
        <time>2018-05-29T09:23:23Z</time>
      </trkpt>
      <trkpt lat="45.96926" lon="4.85962">
        <ele>287</ele>
        <time>2018-05-29T09:23:24Z</time>
      </trkpt>
      <trkpt lat="45.96927" lon="4.8595">
        <ele>287</ele>
        <time>2018-05-29T09:23:25Z</time>
      </trkpt>
      <trkpt lat="45.96929" lon="4.8594">
        <ele>286</ele>
        <time>2018-05-29T09:23:26Z</time>
      </trkpt>
      <trkpt lat="45.96932" lon="4.85932">
        <ele>286</ele>
        <time>2018-05-29T09:23:27Z</time>
      </trkpt>
      <trkpt lat="45.96935" lon="4.85922">
        <ele>286</ele>
        <time>2018-05-29T09:23:28Z</time>
      </trkpt>
      <trkpt lat="45.96938" lon="4.85912">
        <ele>286</ele>
        <time>2018-05-29T09:23:29Z</time>
      </trkpt>
      <trkpt lat="45.9694" lon="4.85903">
        <ele>285</ele>
        <time>2018-05-29T09:23:30Z</time>
      </trkpt>
      <trkpt lat="45.96942" lon="4.85893">
        <ele>285</ele>
        <time>2018-05-29T09:23:31Z</time>
      </trkpt>
      <trkpt lat="45.96944" lon="4.85884">
        <ele>285</ele>
        <time>2018-05-29T09:23:32Z</time>
      </trkpt>
      <trkpt lat="45.96947" lon="4.85875">
        <ele>285</ele>
        <time>2018-05-29T09:23:33Z</time>
      </trkpt>
      <trkpt lat="45.96949" lon="4.85865">
        <ele>285</ele>
        <time>2018-05-29T09:23:34Z</time>
      </trkpt>
      <trkpt lat="45.96952" lon="4.85856">
        <ele>285</ele>
        <time>2018-05-29T09:23:35Z</time>
      </trkpt>
      <trkpt lat="45.96953" lon="4.85848">
        <ele>285</ele>
        <time>2018-05-29T09:23:36Z</time>
      </trkpt>
      <trkpt lat="45.96955" lon="4.85838">
        <ele>285</ele>
        <time>2018-05-29T09:23:37Z</time>
      </trkpt>
      <trkpt lat="45.96958" lon="4.85829">
        <ele>285</ele>
        <time>2018-05-29T09:23:38Z</time>
      </trkpt>
      <trkpt lat="45.96959" lon="4.85821">
        <ele>285</ele>
        <time>2018-05-29T09:23:39Z</time>
      </trkpt>
      <trkpt lat="45.96962" lon="4.85812">
        <ele>285</ele>
        <time>2018-05-29T09:23:40Z</time>
      </trkpt>
      <trkpt lat="45.96964" lon="4.85804">
        <ele>285</ele>
        <time>2018-05-29T09:23:41Z</time>
      </trkpt>
      <trkpt lat="45.96966" lon="4.85795">
        <ele>285</ele>
        <time>2018-05-29T09:23:42Z</time>
      </trkpt>
      <trkpt lat="45.96969" lon="4.85786">
        <ele>285</ele>
        <time>2018-05-29T09:23:43Z</time>
      </trkpt>
      <trkpt lat="45.96972" lon="4.85776">
        <ele>285</ele>
        <time>2018-05-29T09:23:44Z</time>
      </trkpt>
      <trkpt lat="45.96975" lon="4.85767">
        <ele>285</ele>
        <time>2018-05-29T09:23:45Z</time>
      </trkpt>
      <trkpt lat="45.96977" lon="4.85757">
        <ele>285</ele>
        <time>2018-05-29T09:23:46Z</time>
      </trkpt>
      <trkpt lat="45.96981" lon="4.85746">
        <ele>285</ele>
        <time>2018-05-29T09:23:47Z</time>
      </trkpt>
      <trkpt lat="45.96984" lon="4.85736">
        <ele>285</ele>
        <time>2018-05-29T09:23:48Z</time>
      </trkpt>
      <trkpt lat="45.96987" lon="4.85727">
        <ele>285</ele>
        <time>2018-05-29T09:23:49Z</time>
      </trkpt>
      <trkpt lat="45.96989" lon="4.85719">
        <ele>285</ele>
        <time>2018-05-29T09:23:50Z</time>
      </trkpt>
      <trkpt lat="45.96991" lon="4.85711">
        <ele>285</ele>
        <time>2018-05-29T09:23:51Z</time>
      </trkpt>
      <trkpt lat="45.96993" lon="4.85704">
        <ele>285</ele>
        <time>2018-05-29T09:23:52Z</time>
      </trkpt>
      <trkpt lat="45.96995" lon="4.85698">
        <ele>285</ele>
        <time>2018-05-29T09:23:53Z</time>
      </trkpt>
      <trkpt lat="45.96998" lon="4.85688">
        <ele>285</ele>
        <time>2018-05-29T09:23:54Z</time>
      </trkpt>
      <trkpt lat="45.97" lon="4.85679">
        <ele>286</ele>
        <time>2018-05-29T09:23:55Z</time>
      </trkpt>
      <trkpt lat="45.97002" lon="4.85671">
        <ele>286</ele>
        <time>2018-05-29T09:23:56Z</time>
      </trkpt>
      <trkpt lat="45.97004" lon="4.85663">
        <ele>285</ele>
        <time>2018-05-29T09:23:57Z</time>
      </trkpt>
      <trkpt lat="45.97005" lon="4.85654">
        <ele>285</ele>
        <time>2018-05-29T09:23:58Z</time>
      </trkpt>
      <trkpt lat="45.97007" lon="4.85645">
        <ele>284</ele>
        <time>2018-05-29T09:23:59Z</time>
      </trkpt>
      <trkpt lat="45.9701" lon="4.85636">
        <ele>284</ele>
        <time>2018-05-29T09:24:00Z</time>
      </trkpt>
      <trkpt lat="45.97012" lon="4.85626">
        <ele>284</ele>
        <time>2018-05-29T09:24:01Z</time>
      </trkpt>
      <trkpt lat="45.97015" lon="4.85616">
        <ele>284</ele>
        <time>2018-05-29T09:24:02Z</time>
      </trkpt>
      <trkpt lat="45.97017" lon="4.85608">
        <ele>284</ele>
        <time>2018-05-29T09:24:03Z</time>
      </trkpt>
      <trkpt lat="45.9702" lon="4.85598">
        <ele>284</ele>
        <time>2018-05-29T09:24:04Z</time>
      </trkpt>
      <trkpt lat="45.97022" lon="4.85588">
        <ele>284</ele>
        <time>2018-05-29T09:24:05Z</time>
      </trkpt>
      <trkpt lat="45.97025" lon="4.85577">
        <ele>283</ele>
        <time>2018-05-29T09:24:06Z</time>
      </trkpt>
      <trkpt lat="45.97028" lon="4.85568">
        <ele>283</ele>
        <time>2018-05-29T09:24:07Z</time>
      </trkpt>
      <trkpt lat="45.9703" lon="4.85558">
        <ele>283</ele>
        <time>2018-05-29T09:24:08Z</time>
      </trkpt>
      <trkpt lat="45.97034" lon="4.85549">
        <ele>283</ele>
        <time>2018-05-29T09:24:09Z</time>
      </trkpt>
      <trkpt lat="45.97037" lon="4.85541">
        <ele>282</ele>
        <time>2018-05-29T09:24:10Z</time>
      </trkpt>
      <trkpt lat="45.97039" lon="4.85532">
        <ele>282</ele>
        <time>2018-05-29T09:24:11Z</time>
      </trkpt>
      <trkpt lat="45.97042" lon="4.85522">
        <ele>282</ele>
        <time>2018-05-29T09:24:12Z</time>
      </trkpt>
      <trkpt lat="45.97045" lon="4.85513">
        <ele>282</ele>
        <time>2018-05-29T09:24:13Z</time>
      </trkpt>
      <trkpt lat="45.97048" lon="4.85504">
        <ele>282</ele>
        <time>2018-05-29T09:24:14Z</time>
      </trkpt>
      <trkpt lat="45.9705" lon="4.85494">
        <ele>281</ele>
        <time>2018-05-29T09:24:15Z</time>
      </trkpt>
      <trkpt lat="45.97053" lon="4.85485">
        <ele>281</ele>
        <time>2018-05-29T09:24:16Z</time>
      </trkpt>
      <trkpt lat="45.97056" lon="4.85475">
        <ele>281</ele>
        <time>2018-05-29T09:24:17Z</time>
      </trkpt>
      <trkpt lat="45.97059" lon="4.85465">
        <ele>281</ele>
        <time>2018-05-29T09:24:18Z</time>
      </trkpt>
      <trkpt lat="45.97062" lon="4.85455">
        <ele>281</ele>
        <time>2018-05-29T09:24:19Z</time>
      </trkpt>
      <trkpt lat="45.97065" lon="4.85445">
        <ele>281</ele>
        <time>2018-05-29T09:24:20Z</time>
      </trkpt>
      <trkpt lat="45.97068" lon="4.85436">
        <ele>281</ele>
        <time>2018-05-29T09:24:21Z</time>
      </trkpt>
      <trkpt lat="45.97071" lon="4.85426">
        <ele>281</ele>
        <time>2018-05-29T09:24:22Z</time>
      </trkpt>
      <trkpt lat="45.97074" lon="4.85416">
        <ele>280</ele>
        <time>2018-05-29T09:24:23Z</time>
      </trkpt>
      <trkpt lat="45.97078" lon="4.85407">
        <ele>281</ele>
        <time>2018-05-29T09:24:24Z</time>
      </trkpt>
      <trkpt lat="45.97081" lon="4.85398">
        <ele>281</ele>
        <time>2018-05-29T09:24:25Z</time>
      </trkpt>
      <trkpt lat="45.97083" lon="4.85388">
        <ele>281</ele>
        <time>2018-05-29T09:24:26Z</time>
      </trkpt>
      <trkpt lat="45.97086" lon="4.85379">
        <ele>280</ele>
        <time>2018-05-29T09:24:27Z</time>
      </trkpt>
      <trkpt lat="45.97089" lon="4.85368">
        <ele>280</ele>
        <time>2018-05-29T09:24:28Z</time>
      </trkpt>
      <trkpt lat="45.97092" lon="4.85358">
        <ele>280</ele>
        <time>2018-05-29T09:24:29Z</time>
      </trkpt>
      <trkpt lat="45.97096" lon="4.85349">
        <ele>280</ele>
        <time>2018-05-29T09:24:30Z</time>
      </trkpt>
      <trkpt lat="45.97099" lon="4.8534">
        <ele>280</ele>
        <time>2018-05-29T09:24:31Z</time>
      </trkpt>
      <trkpt lat="45.97102" lon="4.85331">
        <ele>280</ele>
        <time>2018-05-29T09:24:32Z</time>
      </trkpt>
      <trkpt lat="45.97106" lon="4.85323">
        <ele>280</ele>
        <time>2018-05-29T09:24:33Z</time>
      </trkpt>
      <trkpt lat="45.9711" lon="4.85314">
        <ele>280</ele>
        <time>2018-05-29T09:24:34Z</time>
      </trkpt>
      <trkpt lat="45.97113" lon="4.85306">
        <ele>280</ele>
        <time>2018-05-29T09:24:35Z</time>
      </trkpt>
      <trkpt lat="45.97117" lon="4.85297">
        <ele>280</ele>
        <time>2018-05-29T09:24:36Z</time>
      </trkpt>
      <trkpt lat="45.97121" lon="4.85289">
        <ele>280</ele>
        <time>2018-05-29T09:24:37Z</time>
      </trkpt>
      <trkpt lat="45.97123" lon="4.85284">
        <ele>280</ele>
        <time>2018-05-29T09:24:38Z</time>
      </trkpt>
      <trkpt lat="45.97128" lon="4.85273">
        <ele>279</ele>
        <time>2018-05-29T09:24:39Z</time>
      </trkpt>
      <trkpt lat="45.97133" lon="4.85266">
        <ele>279</ele>
        <time>2018-05-29T09:24:40Z</time>
      </trkpt>
      <trkpt lat="45.97136" lon="4.85258">
        <ele>279</ele>
        <time>2018-05-29T09:24:41Z</time>
      </trkpt>
      <trkpt lat="45.97141" lon="4.85249">
        <ele>279</ele>
        <time>2018-05-29T09:24:42Z</time>
      </trkpt>
      <trkpt lat="45.97144" lon="4.85241">
        <ele>279</ele>
        <time>2018-05-29T09:24:43Z</time>
      </trkpt>
      <trkpt lat="45.97149" lon="4.85233">
        <ele>279</ele>
        <time>2018-05-29T09:24:44Z</time>
      </trkpt>
      <trkpt lat="45.97152" lon="4.85227">
        <ele>279</ele>
        <time>2018-05-29T09:24:45Z</time>
      </trkpt>
      <trkpt lat="45.97156" lon="4.8522">
        <ele>279</ele>
        <time>2018-05-29T09:24:46Z</time>
      </trkpt>
      <trkpt lat="45.97159" lon="4.85212">
        <ele>279</ele>
        <time>2018-05-29T09:24:47Z</time>
      </trkpt>
      <trkpt lat="45.97162" lon="4.85204">
        <ele>279</ele>
        <time>2018-05-29T09:24:48Z</time>
      </trkpt>
      <trkpt lat="45.97165" lon="4.85194">
        <ele>279</ele>
        <time>2018-05-29T09:24:49Z</time>
      </trkpt>
      <trkpt lat="45.97169" lon="4.85186">
        <ele>278</ele>
        <time>2018-05-29T09:24:50Z</time>
      </trkpt>
      <trkpt lat="45.97172" lon="4.85178">
        <ele>278</ele>
        <time>2018-05-29T09:24:51Z</time>
      </trkpt>
      <trkpt lat="45.97176" lon="4.8517">
        <ele>278</ele>
        <time>2018-05-29T09:24:52Z</time>
      </trkpt>
      <trkpt lat="45.9718" lon="4.85162">
        <ele>278</ele>
        <time>2018-05-29T09:24:53Z</time>
      </trkpt>
      <trkpt lat="45.97184" lon="4.85153">
        <ele>278</ele>
        <time>2018-05-29T09:24:54Z</time>
      </trkpt>
      <trkpt lat="45.97189" lon="4.85144">
        <ele>278</ele>
        <time>2018-05-29T09:24:55Z</time>
      </trkpt>
      <trkpt lat="45.97194" lon="4.85136">
        <ele>278</ele>
        <time>2018-05-29T09:24:56Z</time>
      </trkpt>
      <trkpt lat="45.97198" lon="4.85127">
        <ele>278</ele>
        <time>2018-05-29T09:24:57Z</time>
      </trkpt>
      <trkpt lat="45.97202" lon="4.85119">
        <ele>278</ele>
        <time>2018-05-29T09:24:58Z</time>
      </trkpt>
      <trkpt lat="45.97206" lon="4.85109">
        <ele>278</ele>
        <time>2018-05-29T09:24:59Z</time>
      </trkpt>
      <trkpt lat="45.9721" lon="4.851">
        <ele>278</ele>
        <time>2018-05-29T09:25:00Z</time>
      </trkpt>
      <trkpt lat="45.97213" lon="4.85093">
        <ele>278</ele>
        <time>2018-05-29T09:25:01Z</time>
      </trkpt>
      <trkpt lat="45.97216" lon="4.85084">
        <ele>278</ele>
        <time>2018-05-29T09:25:02Z</time>
      </trkpt>
      <trkpt lat="45.9722" lon="4.85075">
        <ele>278</ele>
        <time>2018-05-29T09:25:03Z</time>
      </trkpt>
      <trkpt lat="45.97224" lon="4.85066">
        <ele>278</ele>
        <time>2018-05-29T09:25:04Z</time>
      </trkpt>
      <trkpt lat="45.97229" lon="4.85059">
        <ele>279</ele>
        <time>2018-05-29T09:25:05Z</time>
      </trkpt>
      <trkpt lat="45.97233" lon="4.85051">
        <ele>279</ele>
        <time>2018-05-29T09:25:06Z</time>
      </trkpt>
      <trkpt lat="45.97236" lon="4.85043">
        <ele>279</ele>
        <time>2018-05-29T09:25:07Z</time>
      </trkpt>
      <trkpt lat="45.9724" lon="4.85035">
        <ele>279</ele>
        <time>2018-05-29T09:25:08Z</time>
      </trkpt>
      <trkpt lat="45.97243" lon="4.85028">
        <ele>279</ele>
        <time>2018-05-29T09:25:09Z</time>
      </trkpt>
      <trkpt lat="45.97247" lon="4.85021">
        <ele>279</ele>
        <time>2018-05-29T09:25:10Z</time>
      </trkpt>
      <trkpt lat="45.9725" lon="4.85015">
        <ele>279</ele>
        <time>2018-05-29T09:25:11Z</time>
      </trkpt>
      <trkpt lat="45.97254" lon="4.85008">
        <ele>279</ele>
        <time>2018-05-29T09:25:12Z</time>
      </trkpt>
      <trkpt lat="45.97257" lon="4.85">
        <ele>279</ele>
        <time>2018-05-29T09:25:13Z</time>
      </trkpt>
      <trkpt lat="45.9726" lon="4.84992">
        <ele>279</ele>
        <time>2018-05-29T09:25:14Z</time>
      </trkpt>
      <trkpt lat="45.97264" lon="4.84985">
        <ele>279</ele>
        <time>2018-05-29T09:25:15Z</time>
      </trkpt>
      <trkpt lat="45.97267" lon="4.84977">
        <ele>279</ele>
        <time>2018-05-29T09:25:16Z</time>
      </trkpt>
      <trkpt lat="45.9727" lon="4.8497">
        <ele>279</ele>
        <time>2018-05-29T09:25:17Z</time>
      </trkpt>
      <trkpt lat="45.97274" lon="4.84962">
        <ele>278</ele>
        <time>2018-05-29T09:25:18Z</time>
      </trkpt>
      <trkpt lat="45.97278" lon="4.84954">
        <ele>278</ele>
        <time>2018-05-29T09:25:19Z</time>
      </trkpt>
      <trkpt lat="45.97281" lon="4.84947">
        <ele>278</ele>
        <time>2018-05-29T09:25:20Z</time>
      </trkpt>
      <trkpt lat="45.97286" lon="4.8494">
        <ele>278</ele>
        <time>2018-05-29T09:25:21Z</time>
      </trkpt>
      <trkpt lat="45.9729" lon="4.84931">
        <ele>278</ele>
        <time>2018-05-29T09:25:22Z</time>
      </trkpt>
      <trkpt lat="45.97295" lon="4.84926">
        <ele>278</ele>
        <time>2018-05-29T09:25:23Z</time>
      </trkpt>
      <trkpt lat="45.97299" lon="4.84918">
        <ele>278</ele>
        <time>2018-05-29T09:25:24Z</time>
      </trkpt>
      <trkpt lat="45.97304" lon="4.84911">
        <ele>278</ele>
        <time>2018-05-29T09:25:25Z</time>
      </trkpt>
      <trkpt lat="45.97308" lon="4.84905">
        <ele>278</ele>
        <time>2018-05-29T09:25:26Z</time>
      </trkpt>
      <trkpt lat="45.97313" lon="4.84898">
        <ele>278</ele>
        <time>2018-05-29T09:25:27Z</time>
      </trkpt>
      <trkpt lat="45.97317" lon="4.84892">
        <ele>278</ele>
        <time>2018-05-29T09:25:28Z</time>
      </trkpt>
      <trkpt lat="45.97321" lon="4.84886">
        <ele>278</ele>
        <time>2018-05-29T09:25:29Z</time>
      </trkpt>
      <trkpt lat="45.97325" lon="4.8488">
        <ele>278</ele>
        <time>2018-05-29T09:25:30Z</time>
      </trkpt>
      <trkpt lat="45.97329" lon="4.84875">
        <ele>278</ele>
        <time>2018-05-29T09:25:31Z</time>
      </trkpt>
      <trkpt lat="45.97332" lon="4.84869">
        <ele>278</ele>
        <time>2018-05-29T09:25:32Z</time>
      </trkpt>
      <trkpt lat="45.97335" lon="4.84863">
        <ele>277</ele>
        <time>2018-05-29T09:25:33Z</time>
      </trkpt>
      <trkpt lat="45.97339" lon="4.84856">
        <ele>277</ele>
        <time>2018-05-29T09:25:34Z</time>
      </trkpt>
      <trkpt lat="45.97342" lon="4.84845">
        <ele>277</ele>
        <time>2018-05-29T09:25:35Z</time>
      </trkpt>
      <trkpt lat="45.97345" lon="4.84839">
        <ele>277</ele>
        <time>2018-05-29T09:25:36Z</time>
      </trkpt>
      <trkpt lat="45.97348" lon="4.84832">
        <ele>278</ele>
        <time>2018-05-29T09:25:37Z</time>
      </trkpt>
      <trkpt lat="45.97351" lon="4.84826">
        <ele>278</ele>
        <time>2018-05-29T09:25:38Z</time>
      </trkpt>
      <trkpt lat="45.97355" lon="4.84818">
        <ele>278</ele>
        <time>2018-05-29T09:25:39Z</time>
      </trkpt>
      <trkpt lat="45.97357" lon="4.84808">
        <ele>278</ele>
        <time>2018-05-29T09:25:40Z</time>
      </trkpt>
      <trkpt lat="45.97358" lon="4.84806">
        <ele>278</ele>
        <time>2018-05-29T09:25:41Z</time>
      </trkpt>
      <trkpt lat="45.97363" lon="4.84793">
        <ele>278</ele>
        <time>2018-05-29T09:25:42Z</time>
      </trkpt>
      <trkpt lat="45.97366" lon="4.84786">
        <ele>278</ele>
        <time>2018-05-29T09:25:43Z</time>
      </trkpt>
      <trkpt lat="45.9737" lon="4.84776">
        <ele>278</ele>
        <time>2018-05-29T09:25:44Z</time>
      </trkpt>
      <trkpt lat="45.97374" lon="4.84766">
        <ele>278</ele>
        <time>2018-05-29T09:25:45Z</time>
      </trkpt>
      <trkpt lat="45.97378" lon="4.84758">
        <ele>278</ele>
        <time>2018-05-29T09:25:46Z</time>
      </trkpt>
      <trkpt lat="45.97382" lon="4.84748">
        <ele>278</ele>
        <time>2018-05-29T09:25:47Z</time>
      </trkpt>
      <trkpt lat="45.97384" lon="4.84741">
        <ele>278</ele>
        <time>2018-05-29T09:25:48Z</time>
      </trkpt>
      <trkpt lat="45.97387" lon="4.84734">
        <ele>278</ele>
        <time>2018-05-29T09:25:49Z</time>
      </trkpt>
      <trkpt lat="45.97391" lon="4.84727">
        <ele>278</ele>
        <time>2018-05-29T09:25:50Z</time>
      </trkpt>
      <trkpt lat="45.97396" lon="4.84722">
        <ele>278</ele>
        <time>2018-05-29T09:25:51Z</time>
      </trkpt>
      <trkpt lat="45.97402" lon="4.84717">
        <ele>278</ele>
        <time>2018-05-29T09:25:52Z</time>
      </trkpt>
      <trkpt lat="45.97408" lon="4.84714">
        <ele>278</ele>
        <time>2018-05-29T09:25:53Z</time>
      </trkpt>
      <trkpt lat="45.97413" lon="4.84711">
        <ele>278</ele>
        <time>2018-05-29T09:25:54Z</time>
      </trkpt>
      <trkpt lat="45.97419" lon="4.84708">
        <ele>276</ele>
        <time>2018-05-29T09:25:55Z</time>
      </trkpt>
      <trkpt lat="45.97424" lon="4.84704">
        <ele>276</ele>
        <time>2018-05-29T09:25:56Z</time>
      </trkpt>
      <trkpt lat="45.9743" lon="4.847">
        <ele>276</ele>
        <time>2018-05-29T09:25:57Z</time>
      </trkpt>
      <trkpt lat="45.97435" lon="4.84697">
        <ele>276</ele>
        <time>2018-05-29T09:25:58Z</time>
      </trkpt>
      <trkpt lat="45.97441" lon="4.84691">
        <ele>276</ele>
        <time>2018-05-29T09:25:59Z</time>
      </trkpt>
      <trkpt lat="45.97447" lon="4.84686">
        <ele>276</ele>
        <time>2018-05-29T09:26:00Z</time>
      </trkpt>
      <trkpt lat="45.97453" lon="4.84682">
        <ele>276</ele>
        <time>2018-05-29T09:26:01Z</time>
      </trkpt>
      <trkpt lat="45.97459" lon="4.84679">
        <ele>276</ele>
        <time>2018-05-29T09:26:02Z</time>
      </trkpt>
      <trkpt lat="45.97464" lon="4.84674">
        <ele>276</ele>
        <time>2018-05-29T09:26:03Z</time>
      </trkpt>
      <trkpt lat="45.97471" lon="4.8467">
        <ele>276</ele>
        <time>2018-05-29T09:26:04Z</time>
      </trkpt>
      <trkpt lat="45.97476" lon="4.84667">
        <ele>276</ele>
        <time>2018-05-29T09:26:05Z</time>
      </trkpt>
      <trkpt lat="45.97481" lon="4.84663">
        <ele>276</ele>
        <time>2018-05-29T09:26:06Z</time>
      </trkpt>
      <trkpt lat="45.97486" lon="4.84659">
        <ele>275</ele>
        <time>2018-05-29T09:26:07Z</time>
      </trkpt>
      <trkpt lat="45.97492" lon="4.84655">
        <ele>275</ele>
        <time>2018-05-29T09:26:08Z</time>
      </trkpt>
      <trkpt lat="45.97497" lon="4.84652">
        <ele>275</ele>
        <time>2018-05-29T09:26:09Z</time>
      </trkpt>
      <trkpt lat="45.97502" lon="4.84648">
        <ele>275</ele>
        <time>2018-05-29T09:26:10Z</time>
      </trkpt>
      <trkpt lat="45.97508" lon="4.84644">
        <ele>275</ele>
        <time>2018-05-29T09:26:11Z</time>
      </trkpt>
      <trkpt lat="45.97514" lon="4.84641">
        <ele>275</ele>
        <time>2018-05-29T09:26:12Z</time>
      </trkpt>
      <trkpt lat="45.97519" lon="4.84636">
        <ele>275</ele>
        <time>2018-05-29T09:26:13Z</time>
      </trkpt>
      <trkpt lat="45.97525" lon="4.84632">
        <ele>275</ele>
        <time>2018-05-29T09:26:14Z</time>
      </trkpt>
      <trkpt lat="45.97531" lon="4.84626">
        <ele>275</ele>
        <time>2018-05-29T09:26:15Z</time>
      </trkpt>
      <trkpt lat="45.97537" lon="4.84622">
        <ele>275</ele>
        <time>2018-05-29T09:26:16Z</time>
      </trkpt>
      <trkpt lat="45.97542" lon="4.84617">
        <ele>274</ele>
        <time>2018-05-29T09:26:17Z</time>
      </trkpt>
      <trkpt lat="45.97549" lon="4.84611">
        <ele>274</ele>
        <time>2018-05-29T09:26:18Z</time>
      </trkpt>
      <trkpt lat="45.97555" lon="4.84606">
        <ele>274</ele>
        <time>2018-05-29T09:26:19Z</time>
      </trkpt>
      <trkpt lat="45.9756" lon="4.846">
        <ele>274</ele>
        <time>2018-05-29T09:26:20Z</time>
      </trkpt>
      <trkpt lat="45.97566" lon="4.84595">
        <ele>274</ele>
        <time>2018-05-29T09:26:21Z</time>
      </trkpt>
      <trkpt lat="45.97571" lon="4.8459">
        <ele>274</ele>
        <time>2018-05-29T09:26:22Z</time>
      </trkpt>
      <trkpt lat="45.97576" lon="4.84584">
        <ele>274</ele>
        <time>2018-05-29T09:26:23Z</time>
      </trkpt>
      <trkpt lat="45.9758" lon="4.84579">
        <ele>274</ele>
        <time>2018-05-29T09:26:24Z</time>
      </trkpt>
      <trkpt lat="45.97585" lon="4.84572">
        <ele>274</ele>
        <time>2018-05-29T09:26:25Z</time>
      </trkpt>
      <trkpt lat="45.9759" lon="4.84565">
        <ele>274</ele>
        <time>2018-05-29T09:26:26Z</time>
      </trkpt>
      <trkpt lat="45.97595" lon="4.84559">
        <ele>275</ele>
        <time>2018-05-29T09:26:27Z</time>
      </trkpt>
      <trkpt lat="45.976" lon="4.84554">
        <ele>275</ele>
        <time>2018-05-29T09:26:28Z</time>
      </trkpt>
      <trkpt lat="45.97605" lon="4.84548">
        <ele>275</ele>
        <time>2018-05-29T09:26:29Z</time>
      </trkpt>
      <trkpt lat="45.9761" lon="4.84542">
        <ele>275</ele>
        <time>2018-05-29T09:26:30Z</time>
      </trkpt>
      <trkpt lat="45.97615" lon="4.84535">
        <ele>275</ele>
        <time>2018-05-29T09:26:31Z</time>
      </trkpt>
      <trkpt lat="45.9762" lon="4.84529">
        <ele>275</ele>
        <time>2018-05-29T09:26:32Z</time>
      </trkpt>
      <trkpt lat="45.97625" lon="4.84523">
        <ele>275</ele>
        <time>2018-05-29T09:26:33Z</time>
      </trkpt>
      <trkpt lat="45.9763" lon="4.84516">
        <ele>275</ele>
        <time>2018-05-29T09:26:34Z</time>
      </trkpt>
      <trkpt lat="45.97636" lon="4.84509">
        <ele>275</ele>
        <time>2018-05-29T09:26:35Z</time>
      </trkpt>
      <trkpt lat="45.9764" lon="4.84503">
        <ele>275</ele>
        <time>2018-05-29T09:26:36Z</time>
      </trkpt>
      <trkpt lat="45.97645" lon="4.84499">
        <ele>275</ele>
        <time>2018-05-29T09:26:37Z</time>
      </trkpt>
      <trkpt lat="45.9765" lon="4.84494">
        <ele>275</ele>
        <time>2018-05-29T09:26:38Z</time>
      </trkpt>
      <trkpt lat="45.97655" lon="4.8449">
        <ele>275</ele>
        <time>2018-05-29T09:26:39Z</time>
      </trkpt>
      <trkpt lat="45.9766" lon="4.84485">
        <ele>275</ele>
        <time>2018-05-29T09:26:40Z</time>
      </trkpt>
      <trkpt lat="45.97666" lon="4.84479">
        <ele>276</ele>
        <time>2018-05-29T09:26:41Z</time>
      </trkpt>
      <trkpt lat="45.97672" lon="4.84476">
        <ele>276</ele>
        <time>2018-05-29T09:26:42Z</time>
      </trkpt>
      <trkpt lat="45.97679" lon="4.84471">
        <ele>277</ele>
        <time>2018-05-29T09:26:43Z</time>
      </trkpt>
      <trkpt lat="45.97685" lon="4.84467">
        <ele>277</ele>
        <time>2018-05-29T09:26:44Z</time>
      </trkpt>
      <trkpt lat="45.97692" lon="4.84463">
        <ele>277</ele>
        <time>2018-05-29T09:26:45Z</time>
      </trkpt>
      <trkpt lat="45.97697" lon="4.84459">
        <ele>277</ele>
        <time>2018-05-29T09:26:46Z</time>
      </trkpt>
      <trkpt lat="45.97704" lon="4.84456">
        <ele>277</ele>
        <time>2018-05-29T09:26:47Z</time>
      </trkpt>
      <trkpt lat="45.9771" lon="4.84453">
        <ele>277</ele>
        <time>2018-05-29T09:26:48Z</time>
      </trkpt>
      <trkpt lat="45.97717" lon="4.84451">
        <ele>277</ele>
        <time>2018-05-29T09:26:49Z</time>
      </trkpt>
      <trkpt lat="45.97723" lon="4.84448">
        <ele>277</ele>
        <time>2018-05-29T09:26:50Z</time>
      </trkpt>
      <trkpt lat="45.97729" lon="4.84446">
        <ele>277</ele>
        <time>2018-05-29T09:26:51Z</time>
      </trkpt>
      <trkpt lat="45.97735" lon="4.84444">
        <ele>277</ele>
        <time>2018-05-29T09:26:52Z</time>
      </trkpt>
      <trkpt lat="45.97741" lon="4.84443">
        <ele>277</ele>
        <time>2018-05-29T09:26:53Z</time>
      </trkpt>
      <trkpt lat="45.97747" lon="4.84439">
        <ele>277</ele>
        <time>2018-05-29T09:26:54Z</time>
      </trkpt>
      <trkpt lat="45.97753" lon="4.84437">
        <ele>277</ele>
        <time>2018-05-29T09:26:55Z</time>
      </trkpt>
      <trkpt lat="45.9776" lon="4.84434">
        <ele>277</ele>
        <time>2018-05-29T09:26:56Z</time>
      </trkpt>
      <trkpt lat="45.97766" lon="4.84433">
        <ele>277</ele>
        <time>2018-05-29T09:26:57Z</time>
      </trkpt>
      <trkpt lat="45.97773" lon="4.84433">
        <ele>277</ele>
        <time>2018-05-29T09:26:58Z</time>
      </trkpt>
      <trkpt lat="45.9778" lon="4.8443">
        <ele>277</ele>
        <time>2018-05-29T09:26:59Z</time>
      </trkpt>
      <trkpt lat="45.97788" lon="4.84429">
        <ele>277</ele>
        <time>2018-05-29T09:27:00Z</time>
      </trkpt>
      <trkpt lat="45.97795" lon="4.84427">
        <ele>277</ele>
        <time>2018-05-29T09:27:01Z</time>
      </trkpt>
      <trkpt lat="45.97802" lon="4.84422">
        <ele>277</ele>
        <time>2018-05-29T09:27:02Z</time>
      </trkpt>
      <trkpt lat="45.97808" lon="4.84419">
        <ele>277</ele>
        <time>2018-05-29T09:27:03Z</time>
      </trkpt>
      <trkpt lat="45.97814" lon="4.84414">
        <ele>276</ele>
        <time>2018-05-29T09:27:04Z</time>
      </trkpt>
      <trkpt lat="45.9782" lon="4.8441">
        <ele>276</ele>
        <time>2018-05-29T09:27:05Z</time>
      </trkpt>
      <trkpt lat="45.97826" lon="4.84406">
        <ele>276</ele>
        <time>2018-05-29T09:27:06Z</time>
      </trkpt>
      <trkpt lat="45.97832" lon="4.84402">
        <ele>276</ele>
        <time>2018-05-29T09:27:07Z</time>
      </trkpt>
      <trkpt lat="45.97837" lon="4.84397">
        <ele>276</ele>
        <time>2018-05-29T09:27:08Z</time>
      </trkpt>
      <trkpt lat="45.97842" lon="4.84392">
        <ele>276</ele>
        <time>2018-05-29T09:27:09Z</time>
      </trkpt>
      <trkpt lat="45.97847" lon="4.84387">
        <ele>276</ele>
        <time>2018-05-29T09:27:10Z</time>
      </trkpt>
      <trkpt lat="45.97851" lon="4.84382">
        <ele>276</ele>
        <time>2018-05-29T09:27:11Z</time>
      </trkpt>
      <trkpt lat="45.97855" lon="4.84376">
        <ele>276</ele>
        <time>2018-05-29T09:27:12Z</time>
      </trkpt>
      <trkpt lat="45.97859" lon="4.84369">
        <ele>276</ele>
        <time>2018-05-29T09:27:13Z</time>
      </trkpt>
      <trkpt lat="45.97864" lon="4.84363">
        <ele>276</ele>
        <time>2018-05-29T09:27:14Z</time>
      </trkpt>
      <trkpt lat="45.97868" lon="4.84356">
        <ele>276</ele>
        <time>2018-05-29T09:27:15Z</time>
      </trkpt>
      <trkpt lat="45.97872" lon="4.84349">
        <ele>276</ele>
        <time>2018-05-29T09:27:16Z</time>
      </trkpt>
      <trkpt lat="45.97875" lon="4.84343">
        <ele>275</ele>
        <time>2018-05-29T09:27:17Z</time>
      </trkpt>
      <trkpt lat="45.9788" lon="4.84336">
        <ele>275</ele>
        <time>2018-05-29T09:27:18Z</time>
      </trkpt>
      <trkpt lat="45.97884" lon="4.8433">
        <ele>275</ele>
        <time>2018-05-29T09:27:19Z</time>
      </trkpt>
      <trkpt lat="45.97888" lon="4.84323">
        <ele>275</ele>
        <time>2018-05-29T09:27:20Z</time>
      </trkpt>
      <trkpt lat="45.97893" lon="4.84315">
        <ele>275</ele>
        <time>2018-05-29T09:27:21Z</time>
      </trkpt>
      <trkpt lat="45.97898" lon="4.84308">
        <ele>275</ele>
        <time>2018-05-29T09:27:22Z</time>
      </trkpt>
      <trkpt lat="45.97903" lon="4.84301">
        <ele>275</ele>
        <time>2018-05-29T09:27:23Z</time>
      </trkpt>
      <trkpt lat="45.97907" lon="4.84293">
        <ele>275</ele>
        <time>2018-05-29T09:27:24Z</time>
      </trkpt>
      <trkpt lat="45.97912" lon="4.84286">
        <ele>275</ele>
        <time>2018-05-29T09:27:25Z</time>
      </trkpt>
      <trkpt lat="45.97917" lon="4.84281">
        <ele>275</ele>
        <time>2018-05-29T09:27:26Z</time>
      </trkpt>
      <trkpt lat="45.97922" lon="4.84276">
        <ele>275</ele>
        <time>2018-05-29T09:27:27Z</time>
      </trkpt>
      <trkpt lat="45.97927" lon="4.84271">
        <ele>275</ele>
        <time>2018-05-29T09:27:28Z</time>
      </trkpt>
      <trkpt lat="45.97932" lon="4.84266">
        <ele>275</ele>
        <time>2018-05-29T09:27:29Z</time>
      </trkpt>
      <trkpt lat="45.97937" lon="4.8426">
        <ele>275</ele>
        <time>2018-05-29T09:27:30Z</time>
      </trkpt>
      <trkpt lat="45.97941" lon="4.84254">
        <ele>275</ele>
        <time>2018-05-29T09:27:31Z</time>
      </trkpt>
      <trkpt lat="45.97948" lon="4.8425">
        <ele>275</ele>
        <time>2018-05-29T09:27:32Z</time>
      </trkpt>
      <trkpt lat="45.97953" lon="4.84245">
        <ele>275</ele>
        <time>2018-05-29T09:27:33Z</time>
      </trkpt>
      <trkpt lat="45.97959" lon="4.84239">
        <ele>274</ele>
        <time>2018-05-29T09:27:34Z</time>
      </trkpt>
      <trkpt lat="45.97965" lon="4.84234">
        <ele>274</ele>
        <time>2018-05-29T09:27:35Z</time>
      </trkpt>
      <trkpt lat="45.9797" lon="4.84228">
        <ele>274</ele>
        <time>2018-05-29T09:27:36Z</time>
      </trkpt>
      <trkpt lat="45.97976" lon="4.84222">
        <ele>274</ele>
        <time>2018-05-29T09:27:37Z</time>
      </trkpt>
      <trkpt lat="45.97982" lon="4.84217">
        <ele>274</ele>
        <time>2018-05-29T09:27:38Z</time>
      </trkpt>
      <trkpt lat="45.97988" lon="4.84211">
        <ele>274</ele>
        <time>2018-05-29T09:27:39Z</time>
      </trkpt>
      <trkpt lat="45.97993" lon="4.84204">
        <ele>274</ele>
        <time>2018-05-29T09:27:40Z</time>
      </trkpt>
      <trkpt lat="45.98" lon="4.84198">
        <ele>274</ele>
        <time>2018-05-29T09:27:41Z</time>
      </trkpt>
      <trkpt lat="45.98006" lon="4.84192">
        <ele>274</ele>
        <time>2018-05-29T09:27:42Z</time>
      </trkpt>
      <trkpt lat="45.98013" lon="4.84186">
        <ele>274</ele>
        <time>2018-05-29T09:27:43Z</time>
      </trkpt>
      <trkpt lat="45.98019" lon="4.84181">
        <ele>274</ele>
        <time>2018-05-29T09:27:44Z</time>
      </trkpt>
      <trkpt lat="45.98024" lon="4.84173">
        <ele>274</ele>
        <time>2018-05-29T09:27:45Z</time>
      </trkpt>
      <trkpt lat="45.9803" lon="4.84167">
        <ele>273</ele>
        <time>2018-05-29T09:27:46Z</time>
      </trkpt>
      <trkpt lat="45.98037" lon="4.84161">
        <ele>273</ele>
        <time>2018-05-29T09:27:47Z</time>
      </trkpt>
      <trkpt lat="45.98043" lon="4.84156">
        <ele>273</ele>
        <time>2018-05-29T09:27:48Z</time>
      </trkpt>
      <trkpt lat="45.98049" lon="4.84151">
        <ele>273</ele>
        <time>2018-05-29T09:27:49Z</time>
      </trkpt>
      <trkpt lat="45.98055" lon="4.84145">
        <ele>273</ele>
        <time>2018-05-29T09:27:50Z</time>
      </trkpt>
      <trkpt lat="45.98061" lon="4.84138">
        <ele>273</ele>
        <time>2018-05-29T09:27:51Z</time>
      </trkpt>
      <trkpt lat="45.98068" lon="4.84134">
        <ele>273</ele>
        <time>2018-05-29T09:27:52Z</time>
      </trkpt>
      <trkpt lat="45.98073" lon="4.84129">
        <ele>273</ele>
        <time>2018-05-29T09:27:53Z</time>
      </trkpt>
      <trkpt lat="45.98079" lon="4.84123">
        <ele>273</ele>
        <time>2018-05-29T09:27:54Z</time>
      </trkpt>
      <trkpt lat="45.98085" lon="4.84118">
        <ele>273</ele>
        <time>2018-05-29T09:27:55Z</time>
      </trkpt>
      <trkpt lat="45.98091" lon="4.84112">
        <ele>273</ele>
        <time>2018-05-29T09:27:56Z</time>
      </trkpt>
      <trkpt lat="45.98097" lon="4.84106">
        <ele>273</ele>
        <time>2018-05-29T09:27:57Z</time>
      </trkpt>
      <trkpt lat="45.98103" lon="4.841">
        <ele>273</ele>
        <time>2018-05-29T09:27:58Z</time>
      </trkpt>
      <trkpt lat="45.98109" lon="4.84095">
        <ele>273</ele>
        <time>2018-05-29T09:27:59Z</time>
      </trkpt>
      <trkpt lat="45.98115" lon="4.84089">
        <ele>273</ele>
        <time>2018-05-29T09:28:00Z</time>
      </trkpt>
      <trkpt lat="45.9812" lon="4.84084">
        <ele>273</ele>
        <time>2018-05-29T09:28:01Z</time>
      </trkpt>
      <trkpt lat="45.98126" lon="4.84077">
        <ele>273</ele>
        <time>2018-05-29T09:28:02Z</time>
      </trkpt>
      <trkpt lat="45.98132" lon="4.84071">
        <ele>273</ele>
        <time>2018-05-29T09:28:03Z</time>
      </trkpt>
      <trkpt lat="45.98136" lon="4.84064">
        <ele>273</ele>
        <time>2018-05-29T09:28:04Z</time>
      </trkpt>
      <trkpt lat="45.98141" lon="4.84057">
        <ele>273</ele>
        <time>2018-05-29T09:28:05Z</time>
      </trkpt>
      <trkpt lat="45.98145" lon="4.84047">
        <ele>273</ele>
        <time>2018-05-29T09:28:06Z</time>
      </trkpt>
      <trkpt lat="45.9815" lon="4.8404">
        <ele>273</ele>
        <time>2018-05-29T09:28:07Z</time>
      </trkpt>
      <trkpt lat="45.98156" lon="4.8403">
        <ele>273</ele>
        <time>2018-05-29T09:28:08Z</time>
      </trkpt>
      <trkpt lat="45.98161" lon="4.8402">
        <ele>273</ele>
        <time>2018-05-29T09:28:09Z</time>
      </trkpt>
      <trkpt lat="45.98165" lon="4.84013">
        <ele>273</ele>
        <time>2018-05-29T09:28:10Z</time>
      </trkpt>
      <trkpt lat="45.9817" lon="4.84004">
        <ele>273</ele>
        <time>2018-05-29T09:28:11Z</time>
      </trkpt>
      <trkpt lat="45.98175" lon="4.83996">
        <ele>273</ele>
        <time>2018-05-29T09:28:12Z</time>
      </trkpt>
      <trkpt lat="45.98179" lon="4.83986">
        <ele>273</ele>
        <time>2018-05-29T09:28:13Z</time>
      </trkpt>
      <trkpt lat="45.98183" lon="4.83975">
        <ele>273</ele>
        <time>2018-05-29T09:28:14Z</time>
      </trkpt>
      <trkpt lat="45.98187" lon="4.83965">
        <ele>273</ele>
        <time>2018-05-29T09:28:15Z</time>
      </trkpt>
      <trkpt lat="45.9819" lon="4.83955">
        <ele>273</ele>
        <time>2018-05-29T09:28:16Z</time>
      </trkpt>
      <trkpt lat="45.98194" lon="4.83946">
        <ele>273</ele>
        <time>2018-05-29T09:28:17Z</time>
      </trkpt>
      <trkpt lat="45.98197" lon="4.83936">
        <ele>273</ele>
        <time>2018-05-29T09:28:18Z</time>
      </trkpt>
      <trkpt lat="45.982" lon="4.83926">
        <ele>273</ele>
        <time>2018-05-29T09:28:19Z</time>
      </trkpt>
      <trkpt lat="45.98204" lon="4.83918">
        <ele>273</ele>
        <time>2018-05-29T09:28:20Z</time>
      </trkpt>
      <trkpt lat="45.98207" lon="4.83908">
        <ele>273</ele>
        <time>2018-05-29T09:28:21Z</time>
      </trkpt>
      <trkpt lat="45.9821" lon="4.83898">
        <ele>273</ele>
        <time>2018-05-29T09:28:22Z</time>
      </trkpt>
      <trkpt lat="45.98213" lon="4.83889">
        <ele>273</ele>
        <time>2018-05-29T09:28:23Z</time>
      </trkpt>
      <trkpt lat="45.98216" lon="4.83881">
        <ele>272</ele>
        <time>2018-05-29T09:28:24Z</time>
      </trkpt>
      <trkpt lat="45.98219" lon="4.83873">
        <ele>272</ele>
        <time>2018-05-29T09:28:25Z</time>
      </trkpt>
      <trkpt lat="45.98223" lon="4.83864">
        <ele>272</ele>
        <time>2018-05-29T09:28:26Z</time>
      </trkpt>
      <trkpt lat="45.98225" lon="4.83855">
        <ele>272</ele>
        <time>2018-05-29T09:28:27Z</time>
      </trkpt>
      <trkpt lat="45.98226" lon="4.83848">
        <ele>272</ele>
        <time>2018-05-29T09:28:28Z</time>
      </trkpt>
      <trkpt lat="45.9823" lon="4.8384">
        <ele>272</ele>
        <time>2018-05-29T09:28:29Z</time>
      </trkpt>
      <trkpt lat="45.98234" lon="4.83831">
        <ele>272</ele>
        <time>2018-05-29T09:28:30Z</time>
      </trkpt>
      <trkpt lat="45.98238" lon="4.83823">
        <ele>272</ele>
        <time>2018-05-29T09:28:31Z</time>
      </trkpt>
      <trkpt lat="45.98241" lon="4.83814">
        <ele>272</ele>
        <time>2018-05-29T09:28:32Z</time>
      </trkpt>
      <trkpt lat="45.98244" lon="4.83806">
        <ele>272</ele>
        <time>2018-05-29T09:28:33Z</time>
      </trkpt>
      <trkpt lat="45.98246" lon="4.83797">
        <ele>272</ele>
        <time>2018-05-29T09:28:34Z</time>
      </trkpt>
      <trkpt lat="45.98249" lon="4.83789">
        <ele>272</ele>
        <time>2018-05-29T09:28:35Z</time>
      </trkpt>
      <trkpt lat="45.98252" lon="4.8378">
        <ele>272</ele>
        <time>2018-05-29T09:28:36Z</time>
      </trkpt>
      <trkpt lat="45.98255" lon="4.83773">
        <ele>272</ele>
        <time>2018-05-29T09:28:37Z</time>
      </trkpt>
      <trkpt lat="45.98258" lon="4.83765">
        <ele>272</ele>
        <time>2018-05-29T09:28:38Z</time>
      </trkpt>
      <trkpt lat="45.9826" lon="4.83756">
        <ele>272</ele>
        <time>2018-05-29T09:28:39Z</time>
      </trkpt>
      <trkpt lat="45.98263" lon="4.83748">
        <ele>272</ele>
        <time>2018-05-29T09:28:40Z</time>
      </trkpt>
      <trkpt lat="45.98266" lon="4.83741">
        <ele>272</ele>
        <time>2018-05-29T09:28:41Z</time>
      </trkpt>
      <trkpt lat="45.98268" lon="4.83733">
        <ele>272</ele>
        <time>2018-05-29T09:28:42Z</time>
      </trkpt>
      <trkpt lat="45.98271" lon="4.83725">
        <ele>272</ele>
        <time>2018-05-29T09:28:43Z</time>
      </trkpt>
      <trkpt lat="45.98274" lon="4.83718">
        <ele>272</ele>
        <time>2018-05-29T09:28:44Z</time>
      </trkpt>
      <trkpt lat="45.98278" lon="4.8371">
        <ele>272</ele>
        <time>2018-05-29T09:28:45Z</time>
      </trkpt>
      <trkpt lat="45.9828" lon="4.83701">
        <ele>272</ele>
        <time>2018-05-29T09:28:46Z</time>
      </trkpt>
      <trkpt lat="45.98284" lon="4.83692">
        <ele>272</ele>
        <time>2018-05-29T09:28:47Z</time>
      </trkpt>
      <trkpt lat="45.98287" lon="4.83684">
        <ele>272</ele>
        <time>2018-05-29T09:28:48Z</time>
      </trkpt>
      <trkpt lat="45.9829" lon="4.83676">
        <ele>272</ele>
        <time>2018-05-29T09:28:49Z</time>
      </trkpt>
      <trkpt lat="45.98293" lon="4.83668">
        <ele>272</ele>
        <time>2018-05-29T09:28:50Z</time>
      </trkpt>
      <trkpt lat="45.98296" lon="4.8366">
        <ele>271</ele>
        <time>2018-05-29T09:28:51Z</time>
      </trkpt>
      <trkpt lat="45.983" lon="4.83653">
        <ele>271</ele>
        <time>2018-05-29T09:28:52Z</time>
      </trkpt>
      <trkpt lat="45.98304" lon="4.83645">
        <ele>271</ele>
        <time>2018-05-29T09:28:53Z</time>
      </trkpt>
      <trkpt lat="45.98308" lon="4.83637">
        <ele>271</ele>
        <time>2018-05-29T09:28:54Z</time>
      </trkpt>
      <trkpt lat="45.98312" lon="4.83629">
        <ele>271</ele>
        <time>2018-05-29T09:28:55Z</time>
      </trkpt>
      <trkpt lat="45.98316" lon="4.83622">
        <ele>271</ele>
        <time>2018-05-29T09:28:56Z</time>
      </trkpt>
      <trkpt lat="45.98321" lon="4.83614">
        <ele>271</ele>
        <time>2018-05-29T09:28:57Z</time>
      </trkpt>
      <trkpt lat="45.98325" lon="4.83607">
        <ele>271</ele>
        <time>2018-05-29T09:28:58Z</time>
      </trkpt>
      <trkpt lat="45.9833" lon="4.836">
        <ele>271</ele>
        <time>2018-05-29T09:28:59Z</time>
      </trkpt>
      <trkpt lat="45.98333" lon="4.8359">
        <ele>270</ele>
        <time>2018-05-29T09:29:00Z</time>
      </trkpt>
      <trkpt lat="45.98338" lon="4.83584">
        <ele>270</ele>
        <time>2018-05-29T09:29:01Z</time>
      </trkpt>
      <trkpt lat="45.98343" lon="4.83577">
        <ele>270</ele>
        <time>2018-05-29T09:29:02Z</time>
      </trkpt>
      <trkpt lat="45.98349" lon="4.83571">
        <ele>269</ele>
        <time>2018-05-29T09:29:03Z</time>
      </trkpt>
      <trkpt lat="45.98354" lon="4.83564">
        <ele>269</ele>
        <time>2018-05-29T09:29:04Z</time>
      </trkpt>
      <trkpt lat="45.9836" lon="4.83557">
        <ele>269</ele>
        <time>2018-05-29T09:29:05Z</time>
      </trkpt>
      <trkpt lat="45.98365" lon="4.8355">
        <ele>269</ele>
        <time>2018-05-29T09:29:06Z</time>
      </trkpt>
      <trkpt lat="45.98369" lon="4.83544">
        <ele>269</ele>
        <time>2018-05-29T09:29:07Z</time>
      </trkpt>
      <trkpt lat="45.98374" lon="4.83537">
        <ele>269</ele>
        <time>2018-05-29T09:29:08Z</time>
      </trkpt>
      <trkpt lat="45.98379" lon="4.8353">
        <ele>269</ele>
        <time>2018-05-29T09:29:09Z</time>
      </trkpt>
      <trkpt lat="45.98384" lon="4.83524">
        <ele>269</ele>
        <time>2018-05-29T09:29:10Z</time>
      </trkpt>
      <trkpt lat="45.98389" lon="4.83517">
        <ele>269</ele>
        <time>2018-05-29T09:29:11Z</time>
      </trkpt>
      <trkpt lat="45.98394" lon="4.8351">
        <ele>269</ele>
        <time>2018-05-29T09:29:12Z</time>
      </trkpt>
      <trkpt lat="45.98399" lon="4.83503">
        <ele>269</ele>
        <time>2018-05-29T09:29:13Z</time>
      </trkpt>
      <trkpt lat="45.98405" lon="4.83495">
        <ele>269</ele>
        <time>2018-05-29T09:29:14Z</time>
      </trkpt>
      <trkpt lat="45.9841" lon="4.83489">
        <ele>269</ele>
        <time>2018-05-29T09:29:15Z</time>
      </trkpt>
      <trkpt lat="45.98415" lon="4.83483">
        <ele>269</ele>
        <time>2018-05-29T09:29:16Z</time>
      </trkpt>
      <trkpt lat="45.9842" lon="4.83476">
        <ele>268</ele>
        <time>2018-05-29T09:29:17Z</time>
      </trkpt>
      <trkpt lat="45.98425" lon="4.83469">
        <ele>268</ele>
        <time>2018-05-29T09:29:18Z</time>
      </trkpt>
      <trkpt lat="45.98431" lon="4.83463">
        <ele>268</ele>
        <time>2018-05-29T09:29:19Z</time>
      </trkpt>
      <trkpt lat="45.98436" lon="4.83458">
        <ele>268</ele>
        <time>2018-05-29T09:29:20Z</time>
      </trkpt>
      <trkpt lat="45.9844" lon="4.83452">
        <ele>268</ele>
        <time>2018-05-29T09:29:21Z</time>
      </trkpt>
      <trkpt lat="45.98444" lon="4.83445">
        <ele>268</ele>
        <time>2018-05-29T09:29:22Z</time>
      </trkpt>
      <trkpt lat="45.98449" lon="4.83439">
        <ele>268</ele>
        <time>2018-05-29T09:29:23Z</time>
      </trkpt>
      <trkpt lat="45.98453" lon="4.83434">
        <ele>268</ele>
        <time>2018-05-29T09:29:24Z</time>
      </trkpt>
      <trkpt lat="45.98457" lon="4.83427">
        <ele>268</ele>
        <time>2018-05-29T09:29:25Z</time>
      </trkpt>
      <trkpt lat="45.98461" lon="4.83421">
        <ele>269</ele>
        <time>2018-05-29T09:29:26Z</time>
      </trkpt>
      <trkpt lat="45.98465" lon="4.83415">
        <ele>269</ele>
        <time>2018-05-29T09:29:27Z</time>
      </trkpt>
      <trkpt lat="45.98469" lon="4.83409">
        <ele>269</ele>
        <time>2018-05-29T09:29:28Z</time>
      </trkpt>
      <trkpt lat="45.98473" lon="4.83404">
        <ele>269</ele>
        <time>2018-05-29T09:29:29Z</time>
      </trkpt>
      <trkpt lat="45.98478" lon="4.83398">
        <ele>269</ele>
        <time>2018-05-29T09:29:30Z</time>
      </trkpt>
      <trkpt lat="45.98482" lon="4.83393">
        <ele>269</ele>
        <time>2018-05-29T09:29:31Z</time>
      </trkpt>
      <trkpt lat="45.98486" lon="4.83388">
        <ele>269</ele>
        <time>2018-05-29T09:29:32Z</time>
      </trkpt>
      <trkpt lat="45.9849" lon="4.83382">
        <ele>269</ele>
        <time>2018-05-29T09:29:33Z</time>
      </trkpt>
      <trkpt lat="45.98495" lon="4.83373">
        <ele>270</ele>
        <time>2018-05-29T09:29:34Z</time>
      </trkpt>
      <trkpt lat="45.98499" lon="4.83368">
        <ele>270</ele>
        <time>2018-05-29T09:29:35Z</time>
      </trkpt>
      <trkpt lat="45.98503" lon="4.83363">
        <ele>269</ele>
        <time>2018-05-29T09:29:36Z</time>
      </trkpt>
      <trkpt lat="45.98508" lon="4.83357">
        <ele>270</ele>
        <time>2018-05-29T09:29:37Z</time>
      </trkpt>
      <trkpt lat="45.98512" lon="4.83351">
        <ele>270</ele>
        <time>2018-05-29T09:29:38Z</time>
      </trkpt>
      <trkpt lat="45.98516" lon="4.83345">
        <ele>270</ele>
        <time>2018-05-29T09:29:39Z</time>
      </trkpt>
      <trkpt lat="45.9852" lon="4.83339">
        <ele>270</ele>
        <time>2018-05-29T09:29:40Z</time>
      </trkpt>
      <trkpt lat="45.98525" lon="4.83333">
        <ele>270</ele>
        <time>2018-05-29T09:29:41Z</time>
      </trkpt>
      <trkpt lat="45.9853" lon="4.83327">
        <ele>269</ele>
        <time>2018-05-29T09:29:42Z</time>
      </trkpt>
      <trkpt lat="45.98535" lon="4.8332">
        <ele>269</ele>
        <time>2018-05-29T09:29:43Z</time>
      </trkpt>
      <trkpt lat="45.9854" lon="4.83315">
        <ele>269</ele>
        <time>2018-05-29T09:29:44Z</time>
      </trkpt>
      <trkpt lat="45.98544" lon="4.83308">
        <ele>269</ele>
        <time>2018-05-29T09:29:45Z</time>
      </trkpt>
      <trkpt lat="45.98549" lon="4.833">
        <ele>269</ele>
        <time>2018-05-29T09:29:46Z</time>
      </trkpt>
      <trkpt lat="45.98554" lon="4.83293">
        <ele>269</ele>
        <time>2018-05-29T09:29:47Z</time>
      </trkpt>
      <trkpt lat="45.98559" lon="4.83287">
        <ele>269</ele>
        <time>2018-05-29T09:29:48Z</time>
      </trkpt>
      <trkpt lat="45.98564" lon="4.83279">
        <ele>269</ele>
        <time>2018-05-29T09:29:49Z</time>
      </trkpt>
      <trkpt lat="45.98569" lon="4.83273">
        <ele>269</ele>
        <time>2018-05-29T09:29:50Z</time>
      </trkpt>
      <trkpt lat="45.98574" lon="4.83268">
        <ele>269</ele>
        <time>2018-05-29T09:29:51Z</time>
      </trkpt>
      <trkpt lat="45.98578" lon="4.83262">
        <ele>269</ele>
        <time>2018-05-29T09:29:52Z</time>
      </trkpt>
      <trkpt lat="45.98583" lon="4.83255">
        <ele>268</ele>
        <time>2018-05-29T09:29:53Z</time>
      </trkpt>
      <trkpt lat="45.98588" lon="4.83249">
        <ele>268</ele>
        <time>2018-05-29T09:29:54Z</time>
      </trkpt>
      <trkpt lat="45.98593" lon="4.83242">
        <ele>268</ele>
        <time>2018-05-29T09:29:55Z</time>
      </trkpt>
      <trkpt lat="45.98597" lon="4.83235">
        <ele>268</ele>
        <time>2018-05-29T09:29:56Z</time>
      </trkpt>
      <trkpt lat="45.98602" lon="4.8323">
        <ele>268</ele>
        <time>2018-05-29T09:29:57Z</time>
      </trkpt>
      <trkpt lat="45.98607" lon="4.83223">
        <ele>267</ele>
        <time>2018-05-29T09:29:58Z</time>
      </trkpt>
      <trkpt lat="45.98612" lon="4.83216">
        <ele>267</ele>
        <time>2018-05-29T09:29:59Z</time>
      </trkpt>
      <trkpt lat="45.98617" lon="4.83211">
        <ele>267</ele>
        <time>2018-05-29T09:30:00Z</time>
      </trkpt>
      <trkpt lat="45.98622" lon="4.83205">
        <ele>267</ele>
        <time>2018-05-29T09:30:01Z</time>
      </trkpt>
      <trkpt lat="45.98628" lon="4.83199">
        <ele>267</ele>
        <time>2018-05-29T09:30:02Z</time>
      </trkpt>
      <trkpt lat="45.98634" lon="4.83193">
        <ele>267</ele>
        <time>2018-05-29T09:30:03Z</time>
      </trkpt>
      <trkpt lat="45.9864" lon="4.83186">
        <ele>267</ele>
        <time>2018-05-29T09:30:04Z</time>
      </trkpt>
      <trkpt lat="45.98646" lon="4.8318">
        <ele>267</ele>
        <time>2018-05-29T09:30:05Z</time>
      </trkpt>
      <trkpt lat="45.98652" lon="4.83175">
        <ele>267</ele>
        <time>2018-05-29T09:30:06Z</time>
      </trkpt>
      <trkpt lat="45.98659" lon="4.83169">
        <ele>266</ele>
        <time>2018-05-29T09:30:07Z</time>
      </trkpt>
      <trkpt lat="45.98665" lon="4.83164">
        <ele>266</ele>
        <time>2018-05-29T09:30:08Z</time>
      </trkpt>
      <trkpt lat="45.98672" lon="4.83159">
        <ele>266</ele>
        <time>2018-05-29T09:30:09Z</time>
      </trkpt>
      <trkpt lat="45.98678" lon="4.83154">
        <ele>266</ele>
        <time>2018-05-29T09:30:10Z</time>
      </trkpt>
      <trkpt lat="45.98684" lon="4.8315">
        <ele>266</ele>
        <time>2018-05-29T09:30:11Z</time>
      </trkpt>
      <trkpt lat="45.9869" lon="4.83145">
        <ele>266</ele>
        <time>2018-05-29T09:30:12Z</time>
      </trkpt>
      <trkpt lat="45.98697" lon="4.8314">
        <ele>266</ele>
        <time>2018-05-29T09:30:13Z</time>
      </trkpt>
      <trkpt lat="45.98703" lon="4.83135">
        <ele>266</ele>
        <time>2018-05-29T09:30:14Z</time>
      </trkpt>
      <trkpt lat="45.98709" lon="4.83129">
        <ele>266</ele>
        <time>2018-05-29T09:30:15Z</time>
      </trkpt>
      <trkpt lat="45.98715" lon="4.83124">
        <ele>266</ele>
        <time>2018-05-29T09:30:16Z</time>
      </trkpt>
      <trkpt lat="45.98721" lon="4.8312">
        <ele>266</ele>
        <time>2018-05-29T09:30:17Z</time>
      </trkpt>
      <trkpt lat="45.98726" lon="4.83114">
        <ele>267</ele>
        <time>2018-05-29T09:30:18Z</time>
      </trkpt>
      <trkpt lat="45.98732" lon="4.83109">
        <ele>267</ele>
        <time>2018-05-29T09:30:19Z</time>
      </trkpt>
      <trkpt lat="45.98738" lon="4.83104">
        <ele>267</ele>
        <time>2018-05-29T09:30:20Z</time>
      </trkpt>
      <trkpt lat="45.98744" lon="4.83099">
        <ele>267</ele>
        <time>2018-05-29T09:30:21Z</time>
      </trkpt>
      <trkpt lat="45.9875" lon="4.83094">
        <ele>266</ele>
        <time>2018-05-29T09:30:22Z</time>
      </trkpt>
      <trkpt lat="45.98756" lon="4.83089">
        <ele>266</ele>
        <time>2018-05-29T09:30:23Z</time>
      </trkpt>
      <trkpt lat="45.98763" lon="4.83083">
        <ele>266</ele>
        <time>2018-05-29T09:30:24Z</time>
      </trkpt>
      <trkpt lat="45.98769" lon="4.83077">
        <ele>266</ele>
        <time>2018-05-29T09:30:25Z</time>
      </trkpt>
      <trkpt lat="45.98776" lon="4.83071">
        <ele>265</ele>
        <time>2018-05-29T09:30:26Z</time>
      </trkpt>
      <trkpt lat="45.98783" lon="4.83066">
        <ele>265</ele>
        <time>2018-05-29T09:30:27Z</time>
      </trkpt>
      <trkpt lat="45.9879" lon="4.8306">
        <ele>265</ele>
        <time>2018-05-29T09:30:28Z</time>
      </trkpt>
      <trkpt lat="45.98797" lon="4.83054">
        <ele>264</ele>
        <time>2018-05-29T09:30:29Z</time>
      </trkpt>
      <trkpt lat="45.98805" lon="4.83048">
        <ele>264</ele>
        <time>2018-05-29T09:30:30Z</time>
      </trkpt>
      <trkpt lat="45.98813" lon="4.83042">
        <ele>264</ele>
        <time>2018-05-29T09:30:31Z</time>
      </trkpt>
      <trkpt lat="45.98821" lon="4.83037">
        <ele>264</ele>
        <time>2018-05-29T09:30:32Z</time>
      </trkpt>
      <trkpt lat="45.98829" lon="4.8303">
        <ele>264</ele>
        <time>2018-05-29T09:30:33Z</time>
      </trkpt>
      <trkpt lat="45.98838" lon="4.83023">
        <ele>261</ele>
        <time>2018-05-29T09:30:34Z</time>
      </trkpt>
      <trkpt lat="45.98846" lon="4.83017">
        <ele>261</ele>
        <time>2018-05-29T09:30:35Z</time>
      </trkpt>
      <trkpt lat="45.98855" lon="4.83011">
        <ele>261</ele>
        <time>2018-05-29T09:30:36Z</time>
      </trkpt>
      <trkpt lat="45.98864" lon="4.83005">
        <ele>260</ele>
        <time>2018-05-29T09:30:37Z</time>
      </trkpt>
      <trkpt lat="45.98873" lon="4.82999">
        <ele>260</ele>
        <time>2018-05-29T09:30:38Z</time>
      </trkpt>
      <trkpt lat="45.98882" lon="4.82993">
        <ele>259</ele>
        <time>2018-05-29T09:30:39Z</time>
      </trkpt>
      <trkpt lat="45.98891" lon="4.82986">
        <ele>259</ele>
        <time>2018-05-29T09:30:40Z</time>
      </trkpt>
      <trkpt lat="45.98901" lon="4.82977">
        <ele>259</ele>
        <time>2018-05-29T09:30:41Z</time>
      </trkpt>
      <trkpt lat="45.98909" lon="4.8297">
        <ele>259</ele>
        <time>2018-05-29T09:30:42Z</time>
      </trkpt>
      <trkpt lat="45.98916" lon="4.82962">
        <ele>258</ele>
        <time>2018-05-29T09:30:43Z</time>
      </trkpt>
      <trkpt lat="45.98922" lon="4.82947">
        <ele>255</ele>
        <time>2018-05-29T09:30:44Z</time>
      </trkpt>
      <trkpt lat="45.98928" lon="4.82929">
        <ele>255</ele>
        <time>2018-05-29T09:30:45Z</time>
      </trkpt>
      <trkpt lat="45.98935" lon="4.82915">
        <ele>254</ele>
        <time>2018-05-29T09:30:46Z</time>
      </trkpt>
      <trkpt lat="45.98941" lon="4.82902">
        <ele>253</ele>
        <time>2018-05-29T09:30:47Z</time>
      </trkpt>
      <trkpt lat="45.98949" lon="4.82884">
        <ele>253</ele>
        <time>2018-05-29T09:30:48Z</time>
      </trkpt>
      <trkpt lat="45.98955" lon="4.82867">
        <ele>252</ele>
        <time>2018-05-29T09:30:49Z</time>
      </trkpt>
      <trkpt lat="45.98962" lon="4.82851">
        <ele>252</ele>
        <time>2018-05-29T09:30:50Z</time>
      </trkpt>
      <trkpt lat="45.98968" lon="4.82835">
        <ele>251</ele>
        <time>2018-05-29T09:30:51Z</time>
      </trkpt>
      <trkpt lat="45.98975" lon="4.82818">
        <ele>248</ele>
        <time>2018-05-29T09:30:52Z</time>
      </trkpt>
      <trkpt lat="45.98983" lon="4.82802">
        <ele>248</ele>
        <time>2018-05-29T09:30:53Z</time>
      </trkpt>
      <trkpt lat="45.9899" lon="4.82785">
        <ele>247</ele>
        <time>2018-05-29T09:30:54Z</time>
      </trkpt>
      <trkpt lat="45.98997" lon="4.82768">
        <ele>245</ele>
        <time>2018-05-29T09:30:55Z</time>
      </trkpt>
      <trkpt lat="45.99005" lon="4.82752">
        <ele>241</ele>
        <time>2018-05-29T09:30:56Z</time>
      </trkpt>
      <trkpt lat="45.99012" lon="4.82736">
        <ele>239</ele>
        <time>2018-05-29T09:30:57Z</time>
      </trkpt>
      <trkpt lat="45.99019" lon="4.82719">
        <ele>239</ele>
        <time>2018-05-29T09:30:58Z</time>
      </trkpt>
      <trkpt lat="45.99027" lon="4.82703">
        <ele>238</ele>
        <time>2018-05-29T09:30:59Z</time>
      </trkpt>
      <trkpt lat="45.99034" lon="4.82686">
        <ele>238</ele>
        <time>2018-05-29T09:31:00Z</time>
      </trkpt>
      <trkpt lat="45.99041" lon="4.8267">
        <ele>238</ele>
        <time>2018-05-29T09:31:01Z</time>
      </trkpt>
      <trkpt lat="45.99048" lon="4.82652">
        <ele>236</ele>
        <time>2018-05-29T09:31:02Z</time>
      </trkpt>
      <trkpt lat="45.99055" lon="4.82637">
        <ele>236</ele>
        <time>2018-05-29T09:31:03Z</time>
      </trkpt>
      <trkpt lat="45.99061" lon="4.82622">
        <ele>236</ele>
        <time>2018-05-29T09:31:04Z</time>
      </trkpt>
      <trkpt lat="45.99067" lon="4.82607">
        <ele>236</ele>
        <time>2018-05-29T09:31:05Z</time>
      </trkpt>
      <trkpt lat="45.99073" lon="4.82594">
        <ele>235</ele>
        <time>2018-05-29T09:31:06Z</time>
      </trkpt>
      <trkpt lat="45.9908" lon="4.82581">
        <ele>235</ele>
        <time>2018-05-29T09:31:07Z</time>
      </trkpt>
      <trkpt lat="45.99086" lon="4.8257">
        <ele>235</ele>
        <time>2018-05-29T09:31:08Z</time>
      </trkpt>
      <trkpt lat="45.99093" lon="4.82558">
        <ele>236</ele>
        <time>2018-05-29T09:31:09Z</time>
      </trkpt>
      <trkpt lat="45.991" lon="4.82549">
        <ele>236</ele>
        <time>2018-05-29T09:31:10Z</time>
      </trkpt>
      <trkpt lat="45.99107" lon="4.82539">
        <ele>236</ele>
        <time>2018-05-29T09:31:11Z</time>
      </trkpt>
      <trkpt lat="45.99115" lon="4.82532">
        <ele>236</ele>
        <time>2018-05-29T09:31:12Z</time>
      </trkpt>
      <trkpt lat="45.99122" lon="4.82527">
        <ele>236</ele>
        <time>2018-05-29T09:31:13Z</time>
      </trkpt>
      <trkpt lat="45.99129" lon="4.82519">
        <ele>236</ele>
        <time>2018-05-29T09:31:14Z</time>
      </trkpt>
      <trkpt lat="45.99138" lon="4.82513">
        <ele>236</ele>
        <time>2018-05-29T09:31:15Z</time>
      </trkpt>
      <trkpt lat="45.99143" lon="4.82507">
        <ele>236</ele>
        <time>2018-05-29T09:31:16Z</time>
      </trkpt>
      <trkpt lat="45.99151" lon="4.82501">
        <ele>237</ele>
        <time>2018-05-29T09:31:17Z</time>
      </trkpt>
      <trkpt lat="45.99157" lon="4.82495">
        <ele>237</ele>
        <time>2018-05-29T09:31:18Z</time>
      </trkpt>
      <trkpt lat="45.99164" lon="4.8249">
        <ele>237</ele>
        <time>2018-05-29T09:31:19Z</time>
      </trkpt>
      <trkpt lat="45.9917" lon="4.82484">
        <ele>238</ele>
        <time>2018-05-29T09:31:20Z</time>
      </trkpt>
      <trkpt lat="45.99176" lon="4.82479">
        <ele>238</ele>
        <time>2018-05-29T09:31:21Z</time>
      </trkpt>
      <trkpt lat="45.99182" lon="4.82474">
        <ele>239</ele>
        <time>2018-05-29T09:31:22Z</time>
      </trkpt>
      <trkpt lat="45.99187" lon="4.82469">
        <ele>239</ele>
        <time>2018-05-29T09:31:23Z</time>
      </trkpt>
      <trkpt lat="45.99192" lon="4.82463">
        <ele>239</ele>
        <time>2018-05-29T09:31:24Z</time>
      </trkpt>
      <trkpt lat="45.99197" lon="4.82457">
        <ele>239</ele>
        <time>2018-05-29T09:31:25Z</time>
      </trkpt>
      <trkpt lat="45.99201" lon="4.82452">
        <ele>240</ele>
        <time>2018-05-29T09:31:26Z</time>
      </trkpt>
      <trkpt lat="45.99204" lon="4.82449">
        <ele>240</ele>
        <time>2018-05-29T09:31:27Z</time>
      </trkpt>
      <trkpt lat="45.99209" lon="4.82441">
        <ele>240</ele>
        <time>2018-05-29T09:31:30Z</time>
      </trkpt>
      <trkpt lat="45.99212" lon="4.82434">
        <ele>240</ele>
        <time>2018-05-29T09:31:31Z</time>
      </trkpt>
      <trkpt lat="45.99214" lon="4.82423">
        <ele>241</ele>
        <time>2018-05-29T09:31:34Z</time>
      </trkpt>
      <trkpt lat="45.99214" lon="4.8242">
        <ele>241</ele>
        <time>2018-05-29T09:31:35Z</time>
      </trkpt>
      <trkpt lat="45.99217" lon="4.82409">
        <ele>243</ele>
        <time>2018-05-29T09:31:38Z</time>
      </trkpt>
      <trkpt lat="45.99217" lon="4.82406">
        <ele>244</ele>
        <time>2018-05-29T09:31:39Z</time>
      </trkpt>
      <trkpt lat="45.99219" lon="4.82394">
        <ele>244</ele>
        <time>2018-05-29T09:31:42Z</time>
      </trkpt>
      <trkpt lat="45.9922" lon="4.8239">
        <ele>244</ele>
        <time>2018-05-29T09:31:43Z</time>
      </trkpt>
      <trkpt lat="45.99221" lon="4.8238">
        <ele>244</ele>
        <time>2018-05-29T09:31:46Z</time>
      </trkpt>
      <trkpt lat="45.99221" lon="4.82376">
        <ele>245</ele>
        <time>2018-05-29T09:31:47Z</time>
      </trkpt>
      <trkpt lat="45.99223" lon="4.82364">
        <ele>245</ele>
        <time>2018-05-29T09:31:51Z</time>
      </trkpt>
      <trkpt lat="45.99223" lon="4.82361">
        <ele>245</ele>
        <time>2018-05-29T09:31:52Z</time>
      </trkpt>
      <trkpt lat="45.99224" lon="4.8235">
        <ele>246</ele>
        <time>2018-05-29T09:31:55Z</time>
      </trkpt>
      <trkpt lat="45.99224" lon="4.82346">
        <ele>246</ele>
        <time>2018-05-29T09:31:56Z</time>
      </trkpt>
      <trkpt lat="45.99224" lon="4.82335">
        <ele>246</ele>
        <time>2018-05-29T09:31:59Z</time>
      </trkpt>
      <trkpt lat="45.99224" lon="4.82331">
        <ele>248</ele>
        <time>2018-05-29T09:32:00Z</time>
      </trkpt>
      <trkpt lat="45.99225" lon="4.82319">
        <ele>248</ele>
        <time>2018-05-29T09:32:03Z</time>
      </trkpt>
      <trkpt lat="45.99226" lon="4.82315">
        <ele>248</ele>
        <time>2018-05-29T09:32:04Z</time>
      </trkpt>
      <trkpt lat="45.99228" lon="4.82303">
        <ele>248</ele>
        <time>2018-05-29T09:32:07Z</time>
      </trkpt>
      <trkpt lat="45.99228" lon="4.82299">
        <ele>248</ele>
        <time>2018-05-29T09:32:08Z</time>
      </trkpt>
      <trkpt lat="45.99229" lon="4.82286">
        <ele>248</ele>
        <time>2018-05-29T09:32:11Z</time>
      </trkpt>
      <trkpt lat="45.99229" lon="4.82282">
        <ele>248</ele>
        <time>2018-05-29T09:32:12Z</time>
      </trkpt>
      <trkpt lat="45.9923" lon="4.82269">
        <ele>248</ele>
        <time>2018-05-29T09:32:15Z</time>
      </trkpt>
      <trkpt lat="45.99231" lon="4.82265">
        <ele>248</ele>
        <time>2018-05-29T09:32:16Z</time>
      </trkpt>
      <trkpt lat="45.99235" lon="4.82256">
        <ele>249</ele>
        <time>2018-05-29T09:32:19Z</time>
      </trkpt>
      <trkpt lat="45.99237" lon="4.82254">
        <ele>249</ele>
        <time>2018-05-29T09:32:20Z</time>
      </trkpt>
      <trkpt lat="45.99244" lon="4.82251">
        <ele>249</ele>
        <time>2018-05-29T09:32:23Z</time>
      </trkpt>
      <trkpt lat="45.99246" lon="4.8225">
        <ele>250</ele>
        <time>2018-05-29T09:32:24Z</time>
      </trkpt>
      <trkpt lat="45.99254" lon="4.82248">
        <ele>250</ele>
        <time>2018-05-29T09:32:28Z</time>
      </trkpt>
      <trkpt lat="45.99255" lon="4.82248">
        <ele>250</ele>
        <time>2018-05-29T09:32:29Z</time>
      </trkpt>
      <trkpt lat="45.99255" lon="4.82247">
        <ele>250</ele>
        <time>2018-05-29T09:32:51Z</time>
      </trkpt>
      <trkpt lat="45.99255" lon="4.82247">
        <ele>250</ele>
        <time>2018-05-29T09:32:52Z</time>
      </trkpt>
      <trkpt lat="45.99255" lon="4.82247">
        <ele>250</ele>
        <time>2018-05-29T09:32:53Z</time>
      </trkpt>
      <trkpt lat="45.99247" lon="4.82241">
        <ele>248</ele>
        <time>2018-05-29T09:33:29Z</time>
      </trkpt>
      <trkpt lat="45.99247" lon="4.82241">
        <ele>249</ele>
        <time>2018-05-29T09:33:30Z</time>
      </trkpt>
      <trkpt lat="45.99241" lon="4.82248">
        <ele>248</ele>
        <time>2018-05-29T09:33:38Z</time>
      </trkpt>
      <trkpt lat="45.99239" lon="4.82249">
        <ele>248</ele>
        <time>2018-05-29T09:33:39Z</time>
      </trkpt>
      <trkpt lat="45.99231" lon="4.82253">
        <ele>248</ele>
        <time>2018-05-29T09:33:48Z</time>
      </trkpt>
      <trkpt lat="45.9923" lon="4.82253">
        <ele>248</ele>
        <time>2018-05-29T09:33:49Z</time>
      </trkpt>
      <trkpt lat="45.99229" lon="4.82253">
        <ele>248</ele>
        <time>2018-05-29T09:33:50Z</time>
      </trkpt>
      <trkpt lat="45.99229" lon="4.82253">
        <ele>248</ele>
        <time>2018-05-29T09:33:51Z</time>
      </trkpt>
      <trkpt lat="45.99228" lon="4.82253">
        <ele>248</ele>
        <time>2018-05-29T09:33:52Z</time>
      </trkpt>
      <trkpt lat="45.99228" lon="4.82254">
        <ele>248</ele>
        <time>2018-05-29T09:33:53Z</time>
      </trkpt>
      <trkpt lat="45.99226" lon="4.82273">
        <ele>248</ele>
        <time>2018-05-29T09:34:08.901Z</time>
      </trkpt>
      <trkpt lat="45.99226" lon="4.82263">
        <ele>248</ele>
        <time>2018-05-29T09:34:35Z</time>
      </trkpt>
      <trkpt lat="45.99226" lon="4.82264">
        <ele>248</ele>
        <time>2018-05-29T09:34:36Z</time>
      </trkpt>
      <trkpt lat="45.99225" lon="4.82264">
        <ele>248</ele>
        <time>2018-05-29T09:34:40Z</time>
      </trkpt>
      <trkpt lat="45.99225" lon="4.82264">
        <ele>248</ele>
        <time>2018-05-29T09:34:41Z</time>
      </trkpt>
      <trkpt lat="45.99224" lon="4.82264">
        <ele>248</ele>
        <time>2018-05-29T09:34:47Z</time>
      </trkpt>
      <trkpt lat="45.99224" lon="4.82264">
        <ele>248</ele>
        <time>2018-05-29T09:34:48Z</time>
      </trkpt>
      <trkpt lat="45.99223" lon="4.82265">
        <ele>248</ele>
        <time>2018-05-29T09:34:57Z</time>
      </trkpt>
      <trkpt lat="45.99223" lon="4.82265">
        <ele>248</ele>
        <time>2018-05-29T09:34:58Z</time>
      </trkpt>
      <trkpt lat="45.99219" lon="4.82263">
        <ele>248</ele>
        <time>2018-05-29T09:35:15Z</time>
      </trkpt>
      <trkpt lat="45.99219" lon="4.82263">
        <ele>248</ele>
        <time>2018-05-29T09:35:16Z</time>
      </trkpt>
      <trkpt lat="45.99219" lon="4.82263">
        <ele>248</ele>
        <time>2018-05-29T09:35:17Z</time>
      </trkpt>
      <trkpt lat="45.99223" lon="4.82274">
        <ele>248</ele>
        <time>2018-05-29T09:35:35Z</time>
      </trkpt>
      <trkpt lat="45.99222" lon="4.82277">
        <ele>248</ele>
        <time>2018-05-29T09:35:36Z</time>
      </trkpt>
      <trkpt lat="45.99221" lon="4.82287">
        <ele>248</ele>
        <time>2018-05-29T09:35:39Z</time>
      </trkpt>
      <trkpt lat="45.99221" lon="4.82291">
        <ele>248</ele>
        <time>2018-05-29T09:35:40Z</time>
      </trkpt>
      <trkpt lat="45.99221" lon="4.82306">
        <ele>248</ele>
        <time>2018-05-29T09:35:41Z</time>
      </trkpt>
      <trkpt lat="45.99222" lon="4.82316">
        <ele>248</ele>
        <time>2018-05-29T09:35:43Z</time>
      </trkpt>
      <trkpt lat="45.99222" lon="4.82324">
        <ele>248</ele>
        <time>2018-05-29T09:35:44Z</time>
      </trkpt>
      <trkpt lat="45.99221" lon="4.82336">
        <ele>246</ele>
        <time>2018-05-29T09:35:46Z</time>
      </trkpt>
      <trkpt lat="45.9922" lon="4.82344">
        <ele>246</ele>
        <time>2018-05-29T09:35:47Z</time>
      </trkpt>
      <trkpt lat="45.99223" lon="4.82351">
        <ele>246</ele>
        <time>2018-05-29T09:35:48Z</time>
      </trkpt>
      <trkpt lat="45.9922" lon="4.82357">
        <ele>245</ele>
        <time>2018-05-29T09:35:49Z</time>
      </trkpt>
      <trkpt lat="45.99219" lon="4.82363">
        <ele>245</ele>
        <time>2018-05-29T09:35:50Z</time>
      </trkpt>
      <trkpt lat="45.99217" lon="4.8237">
        <ele>245</ele>
        <time>2018-05-29T09:35:51Z</time>
      </trkpt>
      <trkpt lat="45.99217" lon="4.82377">
        <ele>244</ele>
        <time>2018-05-29T09:35:52Z</time>
      </trkpt>
      <trkpt lat="45.99216" lon="4.82385">
        <ele>244</ele>
        <time>2018-05-29T09:35:53Z</time>
      </trkpt>
      <trkpt lat="45.99214" lon="4.82392">
        <ele>244</ele>
        <time>2018-05-29T09:35:54Z</time>
      </trkpt>
      <trkpt lat="45.99213" lon="4.824">
        <ele>243</ele>
        <time>2018-05-29T09:35:55Z</time>
      </trkpt>
      <trkpt lat="45.99214" lon="4.82412">
        <ele>243</ele>
        <time>2018-05-29T09:35:56Z</time>
      </trkpt>
      <trkpt lat="45.99215" lon="4.82421">
        <ele>241</ele>
        <time>2018-05-29T09:35:57Z</time>
      </trkpt>
      <trkpt lat="45.99212" lon="4.82431">
        <ele>240</ele>
        <time>2018-05-29T09:35:58Z</time>
      </trkpt>
      <trkpt lat="45.99208" lon="4.82441">
        <ele>240</ele>
        <time>2018-05-29T09:35:59Z</time>
      </trkpt>
      <trkpt lat="45.99205" lon="4.8245">
        <ele>240</ele>
        <time>2018-05-29T09:36:00Z</time>
      </trkpt>
      <trkpt lat="45.99199" lon="4.82457">
        <ele>239</ele>
        <time>2018-05-29T09:36:01Z</time>
      </trkpt>
      <trkpt lat="45.99193" lon="4.82464">
        <ele>239</ele>
        <time>2018-05-29T09:36:02Z</time>
      </trkpt>
      <trkpt lat="45.99186" lon="4.82468">
        <ele>239</ele>
        <time>2018-05-29T09:36:03Z</time>
      </trkpt>
      <trkpt lat="45.99179" lon="4.82472">
        <ele>239</ele>
        <time>2018-05-29T09:36:04Z</time>
      </trkpt>
      <trkpt lat="45.99173" lon="4.82477">
        <ele>238</ele>
        <time>2018-05-29T09:36:05Z</time>
      </trkpt>
      <trkpt lat="45.99167" lon="4.82482">
        <ele>238</ele>
        <time>2018-05-29T09:36:06Z</time>
      </trkpt>
      <trkpt lat="45.99161" lon="4.82487">
        <ele>237</ele>
        <time>2018-05-29T09:36:07Z</time>
      </trkpt>
      <trkpt lat="45.99155" lon="4.82491">
        <ele>237</ele>
        <time>2018-05-29T09:36:08Z</time>
      </trkpt>
      <trkpt lat="45.9915" lon="4.82496">
        <ele>237</ele>
        <time>2018-05-29T09:36:09Z</time>
      </trkpt>
      <trkpt lat="45.99144" lon="4.825">
        <ele>236</ele>
        <time>2018-05-29T09:36:10Z</time>
      </trkpt>
      <trkpt lat="45.99139" lon="4.82504">
        <ele>236</ele>
        <time>2018-05-29T09:36:11Z</time>
      </trkpt>
      <trkpt lat="45.99134" lon="4.82509">
        <ele>236</ele>
        <time>2018-05-29T09:36:12Z</time>
      </trkpt>
      <trkpt lat="45.9913" lon="4.82513">
        <ele>236</ele>
        <time>2018-05-29T09:36:13Z</time>
      </trkpt>
      <trkpt lat="45.99125" lon="4.82516">
        <ele>236</ele>
        <time>2018-05-29T09:36:14Z</time>
      </trkpt>
      <trkpt lat="45.9912" lon="4.82519">
        <ele>236</ele>
        <time>2018-05-29T09:36:15Z</time>
      </trkpt>
      <trkpt lat="45.99115" lon="4.82525">
        <ele>236</ele>
        <time>2018-05-29T09:36:16Z</time>
      </trkpt>
      <trkpt lat="45.9911" lon="4.82529">
        <ele>236</ele>
        <time>2018-05-29T09:36:17Z</time>
      </trkpt>
      <trkpt lat="45.99105" lon="4.82534">
        <ele>236</ele>
        <time>2018-05-29T09:36:18Z</time>
      </trkpt>
      <trkpt lat="45.991" lon="4.82538">
        <ele>236</ele>
        <time>2018-05-29T09:36:19Z</time>
      </trkpt>
      <trkpt lat="45.99096" lon="4.82542">
        <ele>236</ele>
        <time>2018-05-29T09:36:20Z</time>
      </trkpt>
      <trkpt lat="45.99092" lon="4.82547">
        <ele>236</ele>
        <time>2018-05-29T09:36:21Z</time>
      </trkpt>
      <trkpt lat="45.99088" lon="4.8255">
        <ele>236</ele>
        <time>2018-05-29T09:36:22Z</time>
      </trkpt>
      <trkpt lat="45.99084" lon="4.82556">
        <ele>236</ele>
        <time>2018-05-29T09:36:23Z</time>
      </trkpt>
      <trkpt lat="45.9908" lon="4.82558">
        <ele>235</ele>
        <time>2018-05-29T09:36:24Z</time>
      </trkpt>
      <trkpt lat="45.99076" lon="4.82561">
        <ele>235</ele>
        <time>2018-05-29T09:36:25Z</time>
      </trkpt>
      <trkpt lat="45.99067" lon="4.82565">
        <ele>235</ele>
        <time>2018-05-29T09:36:27Z</time>
      </trkpt>
      <trkpt lat="45.99063" lon="4.82566">
        <ele>235</ele>
        <time>2018-05-29T09:36:28Z</time>
      </trkpt>
      <trkpt lat="45.99055" lon="4.82565">
        <ele>235</ele>
        <time>2018-05-29T09:36:30Z</time>
      </trkpt>
      <trkpt lat="45.99051" lon="4.82563">
        <ele>235</ele>
        <time>2018-05-29T09:36:31Z</time>
      </trkpt>
      <trkpt lat="45.99046" lon="4.82562">
        <ele>235</ele>
        <time>2018-05-29T09:36:32Z</time>
      </trkpt>
      <trkpt lat="45.99041" lon="4.8256">
        <ele>235</ele>
        <time>2018-05-29T09:36:33Z</time>
      </trkpt>
      <trkpt lat="45.99034" lon="4.82555">
        <ele>235</ele>
        <time>2018-05-29T09:36:35Z</time>
      </trkpt>
      <trkpt lat="45.9903" lon="4.82552">
        <ele>235</ele>
        <time>2018-05-29T09:36:36Z</time>
      </trkpt>
      <trkpt lat="45.99026" lon="4.82548">
        <ele>235</ele>
        <time>2018-05-29T09:36:37Z</time>
      </trkpt>
      <trkpt lat="45.99022" lon="4.82543">
        <ele>235</ele>
        <time>2018-05-29T09:36:38Z</time>
      </trkpt>
      <trkpt lat="45.99018" lon="4.82538">
        <ele>235</ele>
        <time>2018-05-29T09:36:39Z</time>
      </trkpt>
      <trkpt lat="45.99014" lon="4.82532">
        <ele>235</ele>
        <time>2018-05-29T09:36:40Z</time>
      </trkpt>
      <trkpt lat="45.99011" lon="4.82526">
        <ele>235</ele>
        <time>2018-05-29T09:36:41Z</time>
      </trkpt>
      <trkpt lat="45.99007" lon="4.8252">
        <ele>235</ele>
        <time>2018-05-29T09:36:42Z</time>
      </trkpt>
      <trkpt lat="45.99005" lon="4.82514">
        <ele>235</ele>
        <time>2018-05-29T09:36:43Z</time>
      </trkpt>
      <trkpt lat="45.99002" lon="4.82507">
        <ele>235</ele>
        <time>2018-05-29T09:36:44Z</time>
      </trkpt>
      <trkpt lat="45.98999" lon="4.82501">
        <ele>235</ele>
        <time>2018-05-29T09:36:45Z</time>
      </trkpt>
      <trkpt lat="45.98996" lon="4.82495">
        <ele>235</ele>
        <time>2018-05-29T09:36:46Z</time>
      </trkpt>
      <trkpt lat="45.98993" lon="4.82488">
        <ele>236</ele>
        <time>2018-05-29T09:36:47Z</time>
      </trkpt>
      <trkpt lat="45.98991" lon="4.82482">
        <ele>236</ele>
        <time>2018-05-29T09:36:48Z</time>
      </trkpt>
      <trkpt lat="45.98989" lon="4.82475">
        <ele>236</ele>
        <time>2018-05-29T09:36:49Z</time>
      </trkpt>
      <trkpt lat="45.98988" lon="4.82468">
        <ele>236</ele>
        <time>2018-05-29T09:36:50Z</time>
      </trkpt>
      <trkpt lat="45.98986" lon="4.82461">
        <ele>236</ele>
        <time>2018-05-29T09:36:51Z</time>
      </trkpt>
      <trkpt lat="45.98984" lon="4.82453">
        <ele>236</ele>
        <time>2018-05-29T09:36:52Z</time>
      </trkpt>
      <trkpt lat="45.98982" lon="4.82446">
        <ele>236</ele>
        <time>2018-05-29T09:36:53Z</time>
      </trkpt>
      <trkpt lat="45.9898" lon="4.82438">
        <ele>236</ele>
        <time>2018-05-29T09:36:54Z</time>
      </trkpt>
      <trkpt lat="45.98978" lon="4.82431">
        <ele>236</ele>
        <time>2018-05-29T09:36:55Z</time>
      </trkpt>
      <trkpt lat="45.98976" lon="4.82424">
        <ele>236</ele>
        <time>2018-05-29T09:36:56Z</time>
      </trkpt>
      <trkpt lat="45.98974" lon="4.82417">
        <ele>236</ele>
        <time>2018-05-29T09:36:57Z</time>
      </trkpt>
      <trkpt lat="45.98972" lon="4.82409">
        <ele>235</ele>
        <time>2018-05-29T09:36:58Z</time>
      </trkpt>
      <trkpt lat="45.98971" lon="4.82402">
        <ele>235</ele>
        <time>2018-05-29T09:36:59Z</time>
      </trkpt>
      <trkpt lat="45.98969" lon="4.82397">
        <ele>235</ele>
        <time>2018-05-29T09:37:00Z</time>
      </trkpt>
      <trkpt lat="45.98968" lon="4.8239">
        <ele>235</ele>
        <time>2018-05-29T09:37:01Z</time>
      </trkpt>
      <trkpt lat="45.98967" lon="4.82384">
        <ele>235</ele>
        <time>2018-05-29T09:37:02Z</time>
      </trkpt>
      <trkpt lat="45.98965" lon="4.82376">
        <ele>235</ele>
        <time>2018-05-29T09:37:03Z</time>
      </trkpt>
      <trkpt lat="45.98963" lon="4.8237">
        <ele>235</ele>
        <time>2018-05-29T09:37:04Z</time>
      </trkpt>
      <trkpt lat="45.98961" lon="4.82363">
        <ele>235</ele>
        <time>2018-05-29T09:37:05Z</time>
      </trkpt>
      <trkpt lat="45.98958" lon="4.82357">
        <ele>235</ele>
        <time>2018-05-29T09:37:06Z</time>
      </trkpt>
      <trkpt lat="45.98956" lon="4.8235">
        <ele>235</ele>
        <time>2018-05-29T09:37:07Z</time>
      </trkpt>
      <trkpt lat="45.98953" lon="4.82343">
        <ele>235</ele>
        <time>2018-05-29T09:37:08Z</time>
      </trkpt>
      <trkpt lat="45.9895" lon="4.82337">
        <ele>235</ele>
        <time>2018-05-29T09:37:09Z</time>
      </trkpt>
      <trkpt lat="45.98947" lon="4.82331">
        <ele>234</ele>
        <time>2018-05-29T09:37:10Z</time>
      </trkpt>
      <trkpt lat="45.98944" lon="4.82326">
        <ele>234</ele>
        <time>2018-05-29T09:37:11Z</time>
      </trkpt>
      <trkpt lat="45.9894" lon="4.8232">
        <ele>234</ele>
        <time>2018-05-29T09:37:12Z</time>
      </trkpt>
      <trkpt lat="45.98936" lon="4.82316">
        <ele>234</ele>
        <time>2018-05-29T09:37:13Z</time>
      </trkpt>
      <trkpt lat="45.98932" lon="4.82311">
        <ele>234</ele>
        <time>2018-05-29T09:37:14Z</time>
      </trkpt>
      <trkpt lat="45.98928" lon="4.82307">
        <ele>234</ele>
        <time>2018-05-29T09:37:15Z</time>
      </trkpt>
      <trkpt lat="45.98924" lon="4.82303">
        <ele>234</ele>
        <time>2018-05-29T09:37:16Z</time>
      </trkpt>
      <trkpt lat="45.9892" lon="4.82298">
        <ele>234</ele>
        <time>2018-05-29T09:37:17Z</time>
      </trkpt>
      <trkpt lat="45.98916" lon="4.82294">
        <ele>236</ele>
        <time>2018-05-29T09:37:18Z</time>
      </trkpt>
      <trkpt lat="45.98912" lon="4.8229">
        <ele>236</ele>
        <time>2018-05-29T09:37:19Z</time>
      </trkpt>
      <trkpt lat="45.98908" lon="4.82285">
        <ele>236</ele>
        <time>2018-05-29T09:37:20Z</time>
      </trkpt>
      <trkpt lat="45.98904" lon="4.8228">
        <ele>236</ele>
        <time>2018-05-29T09:37:21Z</time>
      </trkpt>
      <trkpt lat="45.98899" lon="4.82274">
        <ele>236</ele>
        <time>2018-05-29T09:37:22Z</time>
      </trkpt>
      <trkpt lat="45.98896" lon="4.82268">
        <ele>236</ele>
        <time>2018-05-29T09:37:23Z</time>
      </trkpt>
      <trkpt lat="45.98892" lon="4.82262">
        <ele>236</ele>
        <time>2018-05-29T09:37:24Z</time>
      </trkpt>
      <trkpt lat="45.9889" lon="4.82256">
        <ele>236</ele>
        <time>2018-05-29T09:37:25Z</time>
      </trkpt>
      <trkpt lat="45.98886" lon="4.8225">
        <ele>235</ele>
        <time>2018-05-29T09:37:26Z</time>
      </trkpt>
      <trkpt lat="45.98882" lon="4.82244">
        <ele>236</ele>
        <time>2018-05-29T09:37:27Z</time>
      </trkpt>
      <trkpt lat="45.9888" lon="4.82238">
        <ele>236</ele>
        <time>2018-05-29T09:37:28Z</time>
      </trkpt>
      <trkpt lat="45.98877" lon="4.8223">
        <ele>236</ele>
        <time>2018-05-29T09:37:29Z</time>
      </trkpt>
      <trkpt lat="45.98873" lon="4.82223">
        <ele>236</ele>
        <time>2018-05-29T09:37:30Z</time>
      </trkpt>
      <trkpt lat="45.98871" lon="4.82217">
        <ele>236</ele>
        <time>2018-05-29T09:37:31Z</time>
      </trkpt>
      <trkpt lat="45.98868" lon="4.8221">
        <ele>236</ele>
        <time>2018-05-29T09:37:32Z</time>
      </trkpt>
      <trkpt lat="45.98865" lon="4.82203">
        <ele>236</ele>
        <time>2018-05-29T09:37:33Z</time>
      </trkpt>
      <trkpt lat="45.98863" lon="4.82195">
        <ele>236</ele>
        <time>2018-05-29T09:37:34Z</time>
      </trkpt>
      <trkpt lat="45.9886" lon="4.82189">
        <ele>236</ele>
        <time>2018-05-29T09:37:35Z</time>
      </trkpt>
      <trkpt lat="45.98856" lon="4.82181">
        <ele>236</ele>
        <time>2018-05-29T09:37:36Z</time>
      </trkpt>
      <trkpt lat="45.98854" lon="4.82174">
        <ele>236</ele>
        <time>2018-05-29T09:37:37Z</time>
      </trkpt>
      <trkpt lat="45.98852" lon="4.82167">
        <ele>236</ele>
        <time>2018-05-29T09:37:38Z</time>
      </trkpt>
      <trkpt lat="45.98849" lon="4.8216">
        <ele>236</ele>
        <time>2018-05-29T09:37:39Z</time>
      </trkpt>
      <trkpt lat="45.98847" lon="4.82153">
        <ele>236</ele>
        <time>2018-05-29T09:37:40Z</time>
      </trkpt>
      <trkpt lat="45.98845" lon="4.82145">
        <ele>236</ele>
        <time>2018-05-29T09:37:41Z</time>
      </trkpt>
      <trkpt lat="45.98844" lon="4.82137">
        <ele>236</ele>
        <time>2018-05-29T09:37:42Z</time>
      </trkpt>
      <trkpt lat="45.98843" lon="4.82127">
        <ele>236</ele>
        <time>2018-05-29T09:37:43Z</time>
      </trkpt>
      <trkpt lat="45.98842" lon="4.82119">
        <ele>235</ele>
        <time>2018-05-29T09:37:44Z</time>
      </trkpt>
      <trkpt lat="45.9884" lon="4.82111">
        <ele>235</ele>
        <time>2018-05-29T09:37:45Z</time>
      </trkpt>
      <trkpt lat="45.98837" lon="4.82105">
        <ele>236</ele>
        <time>2018-05-29T09:37:46Z</time>
      </trkpt>
      <trkpt lat="45.98836" lon="4.82097">
        <ele>236</ele>
        <time>2018-05-29T09:37:47Z</time>
      </trkpt>
      <trkpt lat="45.98834" lon="4.82089">
        <ele>236</ele>
        <time>2018-05-29T09:37:48Z</time>
      </trkpt>
      <trkpt lat="45.98834" lon="4.82081">
        <ele>236</ele>
        <time>2018-05-29T09:37:49Z</time>
      </trkpt>
      <trkpt lat="45.98832" lon="4.82073">
        <ele>237</ele>
        <time>2018-05-29T09:37:50Z</time>
      </trkpt>
      <trkpt lat="45.98831" lon="4.82065">
        <ele>237</ele>
        <time>2018-05-29T09:37:51Z</time>
      </trkpt>
      <trkpt lat="45.9883" lon="4.82058">
        <ele>237</ele>
        <time>2018-05-29T09:37:52Z</time>
      </trkpt>
      <trkpt lat="45.98829" lon="4.8205">
        <ele>237</ele>
        <time>2018-05-29T09:37:53Z</time>
      </trkpt>
      <trkpt lat="45.98827" lon="4.82042">
        <ele>238</ele>
        <time>2018-05-29T09:37:54Z</time>
      </trkpt>
      <trkpt lat="45.98826" lon="4.82035">
        <ele>238</ele>
        <time>2018-05-29T09:37:55Z</time>
      </trkpt>
      <trkpt lat="45.98825" lon="4.82028">
        <ele>238</ele>
        <time>2018-05-29T09:37:56Z</time>
      </trkpt>
      <trkpt lat="45.98824" lon="4.82021">
        <ele>238</ele>
        <time>2018-05-29T09:37:57Z</time>
      </trkpt>
      <trkpt lat="45.98824" lon="4.82013">
        <ele>238</ele>
        <time>2018-05-29T09:37:58Z</time>
      </trkpt>
      <trkpt lat="45.98822" lon="4.82006">
        <ele>238</ele>
        <time>2018-05-29T09:37:59Z</time>
      </trkpt>
      <trkpt lat="45.98821" lon="4.81998">
        <ele>238</ele>
        <time>2018-05-29T09:38:00Z</time>
      </trkpt>
      <trkpt lat="45.98819" lon="4.8199">
        <ele>238</ele>
        <time>2018-05-29T09:38:01Z</time>
      </trkpt>
      <trkpt lat="45.98819" lon="4.81984">
        <ele>238</ele>
        <time>2018-05-29T09:38:02Z</time>
      </trkpt>
      <trkpt lat="45.98818" lon="4.81977">
        <ele>239</ele>
        <time>2018-05-29T09:38:03Z</time>
      </trkpt>
      <trkpt lat="45.98818" lon="4.8197">
        <ele>239</ele>
        <time>2018-05-29T09:38:04Z</time>
      </trkpt>
      <trkpt lat="45.98818" lon="4.81962">
        <ele>239</ele>
        <time>2018-05-29T09:38:05Z</time>
      </trkpt>
      <trkpt lat="45.98816" lon="4.81954">
        <ele>239</ele>
        <time>2018-05-29T09:38:06Z</time>
      </trkpt>
      <trkpt lat="45.98816" lon="4.81946">
        <ele>239</ele>
        <time>2018-05-29T09:38:07Z</time>
      </trkpt>
      <trkpt lat="45.98816" lon="4.81938">
        <ele>239</ele>
        <time>2018-05-29T09:38:08Z</time>
      </trkpt>
      <trkpt lat="45.98814" lon="4.8193">
        <ele>239</ele>
        <time>2018-05-29T09:38:09Z</time>
      </trkpt>
      <trkpt lat="45.98813" lon="4.81922">
        <ele>239</ele>
        <time>2018-05-29T09:38:10Z</time>
      </trkpt>
      <trkpt lat="45.98813" lon="4.81914">
        <ele>239</ele>
        <time>2018-05-29T09:38:11Z</time>
      </trkpt>
      <trkpt lat="45.98812" lon="4.81907">
        <ele>239</ele>
        <time>2018-05-29T09:38:12Z</time>
      </trkpt>
      <trkpt lat="45.98808" lon="4.819">
        <ele>239</ele>
        <time>2018-05-29T09:38:13Z</time>
      </trkpt>
      <trkpt lat="45.98807" lon="4.81894">
        <ele>239</ele>
        <time>2018-05-29T09:38:14Z</time>
      </trkpt>
      <trkpt lat="45.98806" lon="4.81887">
        <ele>239</ele>
        <time>2018-05-29T09:38:15Z</time>
      </trkpt>
      <trkpt lat="45.98803" lon="4.81879">
        <ele>239</ele>
        <time>2018-05-29T09:38:16Z</time>
      </trkpt>
      <trkpt lat="45.988" lon="4.81872">
        <ele>239</ele>
        <time>2018-05-29T09:38:17Z</time>
      </trkpt>
      <trkpt lat="45.98798" lon="4.81866">
        <ele>239</ele>
        <time>2018-05-29T09:38:18Z</time>
      </trkpt>
      <trkpt lat="45.98796" lon="4.81858">
        <ele>239</ele>
        <time>2018-05-29T09:38:19Z</time>
      </trkpt>
      <trkpt lat="45.98793" lon="4.81854">
        <ele>239</ele>
        <time>2018-05-29T09:38:20Z</time>
      </trkpt>
      <trkpt lat="45.98791" lon="4.8185">
        <ele>239</ele>
        <time>2018-05-29T09:38:21Z</time>
      </trkpt>
      <trkpt lat="45.98789" lon="4.81842">
        <ele>239</ele>
        <time>2018-05-29T09:38:22Z</time>
      </trkpt>
      <trkpt lat="45.98787" lon="4.81838">
        <ele>239</ele>
        <time>2018-05-29T09:38:23Z</time>
      </trkpt>
      <trkpt lat="45.98784" lon="4.8183">
        <ele>240</ele>
        <time>2018-05-29T09:38:24Z</time>
      </trkpt>
      <trkpt lat="45.98782" lon="4.81824">
        <ele>240</ele>
        <time>2018-05-29T09:38:25Z</time>
      </trkpt>
      <trkpt lat="45.98779" lon="4.8182">
        <ele>240</ele>
        <time>2018-05-29T09:38:26Z</time>
      </trkpt>
      <trkpt lat="45.98776" lon="4.81814">
        <ele>240</ele>
        <time>2018-05-29T09:38:27Z</time>
      </trkpt>
      <trkpt lat="45.98773" lon="4.81809">
        <ele>240</ele>
        <time>2018-05-29T09:38:28Z</time>
      </trkpt>
      <trkpt lat="45.98771" lon="4.81803">
        <ele>240</ele>
        <time>2018-05-29T09:38:29Z</time>
      </trkpt>
      <trkpt lat="45.98769" lon="4.81797">
        <ele>240</ele>
        <time>2018-05-29T09:38:30Z</time>
      </trkpt>
      <trkpt lat="45.98764" lon="4.81788">
        <ele>241</ele>
        <time>2018-05-29T09:38:32Z</time>
      </trkpt>
      <trkpt lat="45.98761" lon="4.81783">
        <ele>241</ele>
        <time>2018-05-29T09:38:33Z</time>
      </trkpt>
      <trkpt lat="45.98756" lon="4.81774">
        <ele>241</ele>
        <time>2018-05-29T09:38:35Z</time>
      </trkpt>
      <trkpt lat="45.98754" lon="4.81766">
        <ele>241</ele>
        <time>2018-05-29T09:38:36Z</time>
      </trkpt>
      <trkpt lat="45.98751" lon="4.81759">
        <ele>241</ele>
        <time>2018-05-29T09:38:37Z</time>
      </trkpt>
      <trkpt lat="45.98748" lon="4.81753">
        <ele>241</ele>
        <time>2018-05-29T09:38:38Z</time>
      </trkpt>
      <trkpt lat="45.98745" lon="4.81747">
        <ele>240</ele>
        <time>2018-05-29T09:38:39Z</time>
      </trkpt>
      <trkpt lat="45.98742" lon="4.81742">
        <ele>240</ele>
        <time>2018-05-29T09:38:40Z</time>
      </trkpt>
      <trkpt lat="45.98738" lon="4.81736">
        <ele>240</ele>
        <time>2018-05-29T09:38:41Z</time>
      </trkpt>
      <trkpt lat="45.98733" lon="4.81731">
        <ele>239</ele>
        <time>2018-05-29T09:38:42Z</time>
      </trkpt>
      <trkpt lat="45.98728" lon="4.81728">
        <ele>239</ele>
        <time>2018-05-29T09:38:43Z</time>
      </trkpt>
      <trkpt lat="45.98722" lon="4.81726">
        <ele>239</ele>
        <time>2018-05-29T09:38:44Z</time>
      </trkpt>
      <trkpt lat="45.98715" lon="4.81727">
        <ele>239</ele>
        <time>2018-05-29T09:38:45Z</time>
      </trkpt>
      <trkpt lat="45.9871" lon="4.81728">
        <ele>239</ele>
        <time>2018-05-29T09:38:46Z</time>
      </trkpt>
      <trkpt lat="45.98704" lon="4.81729">
        <ele>239</ele>
        <time>2018-05-29T09:38:47Z</time>
      </trkpt>
      <trkpt lat="45.98699" lon="4.8173">
        <ele>239</ele>
        <time>2018-05-29T09:38:48Z</time>
      </trkpt>
      <trkpt lat="45.98693" lon="4.81732">
        <ele>238</ele>
        <time>2018-05-29T09:38:49Z</time>
      </trkpt>
      <trkpt lat="45.98688" lon="4.81735">
        <ele>238</ele>
        <time>2018-05-29T09:38:50Z</time>
      </trkpt>
      <trkpt lat="45.98681" lon="4.81736">
        <ele>238</ele>
        <time>2018-05-29T09:38:51Z</time>
      </trkpt>
      <trkpt lat="45.98674" lon="4.81738">
        <ele>238</ele>
        <time>2018-05-29T09:38:52Z</time>
      </trkpt>
      <trkpt lat="45.98669" lon="4.81739">
        <ele>238</ele>
        <time>2018-05-29T09:38:53Z</time>
      </trkpt>
      <trkpt lat="45.98663" lon="4.8174">
        <ele>237</ele>
        <time>2018-05-29T09:38:54Z</time>
      </trkpt>
      <trkpt lat="45.98658" lon="4.81741">
        <ele>237</ele>
        <time>2018-05-29T09:38:55Z</time>
      </trkpt>
      <trkpt lat="45.98652" lon="4.81743">
        <ele>237</ele>
        <time>2018-05-29T09:38:56Z</time>
      </trkpt>
      <trkpt lat="45.98646" lon="4.81744">
        <ele>237</ele>
        <time>2018-05-29T09:38:57Z</time>
      </trkpt>
      <trkpt lat="45.98639" lon="4.81746">
        <ele>237</ele>
        <time>2018-05-29T09:38:58Z</time>
      </trkpt>
      <trkpt lat="45.98634" lon="4.81749">
        <ele>237</ele>
        <time>2018-05-29T09:38:59Z</time>
      </trkpt>
      <trkpt lat="45.98628" lon="4.81751">
        <ele>238</ele>
        <time>2018-05-29T09:39:00Z</time>
      </trkpt>
      <trkpt lat="45.98622" lon="4.81752">
        <ele>238</ele>
        <time>2018-05-29T09:39:01Z</time>
      </trkpt>
      <trkpt lat="45.98616" lon="4.81754">
        <ele>238</ele>
        <time>2018-05-29T09:39:02Z</time>
      </trkpt>
      <trkpt lat="45.98611" lon="4.81756">
        <ele>238</ele>
        <time>2018-05-29T09:39:03Z</time>
      </trkpt>
      <trkpt lat="45.98606" lon="4.81757">
        <ele>238</ele>
        <time>2018-05-29T09:39:04Z</time>
      </trkpt>
      <trkpt lat="45.986" lon="4.8176">
        <ele>238</ele>
        <time>2018-05-29T09:39:05Z</time>
      </trkpt>
      <trkpt lat="45.98595" lon="4.81764">
        <ele>238</ele>
        <time>2018-05-29T09:39:06Z</time>
      </trkpt>
      <trkpt lat="45.98588" lon="4.81769">
        <ele>238</ele>
        <time>2018-05-29T09:39:07Z</time>
      </trkpt>
      <trkpt lat="45.98582" lon="4.81772">
        <ele>237</ele>
        <time>2018-05-29T09:39:08Z</time>
      </trkpt>
      <trkpt lat="45.98577" lon="4.81776">
        <ele>237</ele>
        <time>2018-05-29T09:39:09Z</time>
      </trkpt>
      <trkpt lat="45.98575" lon="4.81782">
        <ele>238</ele>
        <time>2018-05-29T09:39:10Z</time>
      </trkpt>
      <trkpt lat="45.98571" lon="4.81786">
        <ele>238</ele>
        <time>2018-05-29T09:39:11Z</time>
      </trkpt>
      <trkpt lat="45.98566" lon="4.81791">
        <ele>238</ele>
        <time>2018-05-29T09:39:12Z</time>
      </trkpt>
      <trkpt lat="45.98562" lon="4.81795">
        <ele>238</ele>
        <time>2018-05-29T09:39:13Z</time>
      </trkpt>
      <trkpt lat="45.9856" lon="4.818">
        <ele>238</ele>
        <time>2018-05-29T09:39:14Z</time>
      </trkpt>
      <trkpt lat="45.98552" lon="4.81806">
        <ele>238</ele>
        <time>2018-05-29T09:39:16Z</time>
      </trkpt>
      <trkpt lat="45.98547" lon="4.81806">
        <ele>238</ele>
        <time>2018-05-29T09:39:17Z</time>
      </trkpt>
      <trkpt lat="45.98543" lon="4.81805">
        <ele>238</ele>
        <time>2018-05-29T09:39:18Z</time>
      </trkpt>
      <trkpt lat="45.98538" lon="4.81803">
        <ele>238</ele>
        <time>2018-05-29T09:39:19Z</time>
      </trkpt>
      <trkpt lat="45.98535" lon="4.81798">
        <ele>238</ele>
        <time>2018-05-29T09:39:20Z</time>
      </trkpt>
      <trkpt lat="45.98531" lon="4.81794">
        <ele>238</ele>
        <time>2018-05-29T09:39:21Z</time>
      </trkpt>
      <trkpt lat="45.98528" lon="4.81789">
        <ele>238</ele>
        <time>2018-05-29T09:39:22Z</time>
      </trkpt>
      <trkpt lat="45.98525" lon="4.81784">
        <ele>238</ele>
        <time>2018-05-29T09:39:23Z</time>
      </trkpt>
      <trkpt lat="45.98522" lon="4.81779">
        <ele>238</ele>
        <time>2018-05-29T09:39:24Z</time>
      </trkpt>
      <trkpt lat="45.98518" lon="4.81774">
        <ele>238</ele>
        <time>2018-05-29T09:39:25Z</time>
      </trkpt>
      <trkpt lat="45.98512" lon="4.81765">
        <ele>237</ele>
        <time>2018-05-29T09:39:27Z</time>
      </trkpt>
      <trkpt lat="45.98509" lon="4.81761">
        <ele>237</ele>
        <time>2018-05-29T09:39:28Z</time>
      </trkpt>
      <trkpt lat="45.98502" lon="4.81754">
        <ele>237</ele>
        <time>2018-05-29T09:39:30Z</time>
      </trkpt>
      <trkpt lat="45.985" lon="4.81752">
        <ele>237</ele>
        <time>2018-05-29T09:39:31Z</time>
      </trkpt>
      <trkpt lat="45.98496" lon="4.81748">
        <ele>237</ele>
        <time>2018-05-29T09:39:33Z</time>
      </trkpt>
      <trkpt lat="45.98489" lon="4.81743">
        <ele>238</ele>
        <time>2018-05-29T09:39:34Z</time>
      </trkpt>
      <trkpt lat="45.98483" lon="4.81737">
        <ele>238</ele>
        <time>2018-05-29T09:39:36Z</time>
      </trkpt>
      <trkpt lat="45.98481" lon="4.81733">
        <ele>238</ele>
        <time>2018-05-29T09:39:37Z</time>
      </trkpt>
      <trkpt lat="45.98474" lon="4.81726">
        <ele>239</ele>
        <time>2018-05-29T09:39:39Z</time>
      </trkpt>
      <trkpt lat="45.98472" lon="4.81723">
        <ele>239</ele>
        <time>2018-05-29T09:39:40Z</time>
      </trkpt>
      <trkpt lat="45.98465" lon="4.81714">
        <ele>239</ele>
        <time>2018-05-29T09:39:44Z</time>
      </trkpt>
      <trkpt lat="45.98463" lon="4.81711">
        <ele>239</ele>
        <time>2018-05-29T09:39:45Z</time>
      </trkpt>
      <trkpt lat="45.98459" lon="4.81705">
        <ele>239</ele>
        <time>2018-05-29T09:39:47Z</time>
      </trkpt>
      <trkpt lat="45.98453" lon="4.81696">
        <ele>239</ele>
        <time>2018-05-29T09:39:48Z</time>
      </trkpt>
      <trkpt lat="45.9845" lon="4.81689">
        <ele>239</ele>
        <time>2018-05-29T09:39:51Z</time>
      </trkpt>
      <trkpt lat="45.98446" lon="4.81681">
        <ele>239</ele>
        <time>2018-05-29T09:39:52Z</time>
      </trkpt>
      <trkpt lat="45.98441" lon="4.81673">
        <ele>240</ele>
        <time>2018-05-29T09:39:54Z</time>
      </trkpt>
      <trkpt lat="45.98438" lon="4.81669">
        <ele>240</ele>
        <time>2018-05-29T09:39:55Z</time>
      </trkpt>
      <trkpt lat="45.98431" lon="4.81663">
        <ele>239</ele>
        <time>2018-05-29T09:39:57Z</time>
      </trkpt>
      <trkpt lat="45.98427" lon="4.81663">
        <ele>240</ele>
        <time>2018-05-29T09:39:58Z</time>
      </trkpt>
      <trkpt lat="45.98418" lon="4.81662">
        <ele>240</ele>
        <time>2018-05-29T09:40:00Z</time>
      </trkpt>
      <trkpt lat="45.98412" lon="4.81662">
        <ele>241</ele>
        <time>2018-05-29T09:40:01Z</time>
      </trkpt>
      <trkpt lat="45.98407" lon="4.81662">
        <ele>241</ele>
        <time>2018-05-29T09:40:02Z</time>
      </trkpt>
      <trkpt lat="45.98402" lon="4.81663">
        <ele>242</ele>
        <time>2018-05-29T09:40:03Z</time>
      </trkpt>
      <trkpt lat="45.98397" lon="4.81663">
        <ele>242</ele>
        <time>2018-05-29T09:40:04Z</time>
      </trkpt>
      <trkpt lat="45.98392" lon="4.81665">
        <ele>242</ele>
        <time>2018-05-29T09:40:05Z</time>
      </trkpt>
      <trkpt lat="45.98387" lon="4.81666">
        <ele>242</ele>
        <time>2018-05-29T09:40:06Z</time>
      </trkpt>
      <trkpt lat="45.98383" lon="4.81668">
        <ele>243</ele>
        <time>2018-05-29T09:40:07Z</time>
      </trkpt>
      <trkpt lat="45.98378" lon="4.8167">
        <ele>244</ele>
        <time>2018-05-29T09:40:08Z</time>
      </trkpt>
      <trkpt lat="45.98373" lon="4.81671">
        <ele>244</ele>
        <time>2018-05-29T09:40:09Z</time>
      </trkpt>
      <trkpt lat="45.98369" lon="4.81672">
        <ele>244</ele>
        <time>2018-05-29T09:40:10Z</time>
      </trkpt>
      <trkpt lat="45.98364" lon="4.81672">
        <ele>244</ele>
        <time>2018-05-29T09:40:11Z</time>
      </trkpt>
      <trkpt lat="45.9836" lon="4.81673">
        <ele>244</ele>
        <time>2018-05-29T09:40:12Z</time>
      </trkpt>
      <trkpt lat="45.98355" lon="4.81673">
        <ele>245</ele>
        <time>2018-05-29T09:40:13Z</time>
      </trkpt>
      <trkpt lat="45.98351" lon="4.81671">
        <ele>245</ele>
        <time>2018-05-29T09:40:14Z</time>
      </trkpt>
      <trkpt lat="45.98346" lon="4.81669">
        <ele>245</ele>
        <time>2018-05-29T09:40:15Z</time>
      </trkpt>
      <trkpt lat="45.98341" lon="4.81668">
        <ele>245</ele>
        <time>2018-05-29T09:40:16Z</time>
      </trkpt>
      <trkpt lat="45.98337" lon="4.81667">
        <ele>246</ele>
        <time>2018-05-29T09:40:17Z</time>
      </trkpt>
      <trkpt lat="45.9833" lon="4.81662">
        <ele>246</ele>
        <time>2018-05-29T09:40:19Z</time>
      </trkpt>
      <trkpt lat="45.98326" lon="4.8166">
        <ele>246</ele>
        <time>2018-05-29T09:40:20Z</time>
      </trkpt>
      <trkpt lat="45.98319" lon="4.81655">
        <ele>246</ele>
        <time>2018-05-29T09:40:22Z</time>
      </trkpt>
      <trkpt lat="45.98315" lon="4.81652">
        <ele>246</ele>
        <time>2018-05-29T09:40:23Z</time>
      </trkpt>
      <trkpt lat="45.98306" lon="4.81649">
        <ele>246</ele>
        <time>2018-05-29T09:40:25Z</time>
      </trkpt>
      <trkpt lat="45.98303" lon="4.81645">
        <ele>246</ele>
        <time>2018-05-29T09:40:26Z</time>
      </trkpt>
      <trkpt lat="45.98296" lon="4.81638">
        <ele>247</ele>
        <time>2018-05-29T09:40:28Z</time>
      </trkpt>
      <trkpt lat="45.98293" lon="4.81633">
        <ele>247</ele>
        <time>2018-05-29T09:40:29Z</time>
      </trkpt>
      <trkpt lat="45.98287" lon="4.81625">
        <ele>247</ele>
        <time>2018-05-29T09:40:31Z</time>
      </trkpt>
      <trkpt lat="45.98283" lon="4.81621">
        <ele>247</ele>
        <time>2018-05-29T09:40:32Z</time>
      </trkpt>
      <trkpt lat="45.9828" lon="4.81616">
        <ele>247</ele>
        <time>2018-05-29T09:40:33Z</time>
      </trkpt>
      <trkpt lat="45.98278" lon="4.81611">
        <ele>247</ele>
        <time>2018-05-29T09:40:34Z</time>
      </trkpt>
      <trkpt lat="45.98275" lon="4.81605">
        <ele>247</ele>
        <time>2018-05-29T09:40:35Z</time>
      </trkpt>
      <trkpt lat="45.98273" lon="4.81599">
        <ele>247</ele>
        <time>2018-05-29T09:40:36Z</time>
      </trkpt>
      <trkpt lat="45.9827" lon="4.81587">
        <ele>247</ele>
        <time>2018-05-29T09:40:38Z</time>
      </trkpt>
      <trkpt lat="45.98268" lon="4.81583">
        <ele>247</ele>
        <time>2018-05-29T09:40:39Z</time>
      </trkpt>
      <trkpt lat="45.98264" lon="4.81572">
        <ele>247</ele>
        <time>2018-05-29T09:40:41Z</time>
      </trkpt>
      <trkpt lat="45.98263" lon="4.81567">
        <ele>247</ele>
        <time>2018-05-29T09:40:42Z</time>
      </trkpt>
      <trkpt lat="45.98261" lon="4.81555">
        <ele>247</ele>
        <time>2018-05-29T09:40:44Z</time>
      </trkpt>
      <trkpt lat="45.98261" lon="4.81549">
        <ele>247</ele>
        <time>2018-05-29T09:40:45Z</time>
      </trkpt>
      <trkpt lat="45.98259" lon="4.81543">
        <ele>247</ele>
        <time>2018-05-29T09:40:46Z</time>
      </trkpt>
      <trkpt lat="45.98257" lon="4.81538">
        <ele>247</ele>
        <time>2018-05-29T09:40:47Z</time>
      </trkpt>
      <trkpt lat="45.98253" lon="4.81526">
        <ele>247</ele>
        <time>2018-05-29T09:40:49Z</time>
      </trkpt>
      <trkpt lat="45.98252" lon="4.81521">
        <ele>247</ele>
        <time>2018-05-29T09:40:50Z</time>
      </trkpt>
      <trkpt lat="45.98249" lon="4.8151">
        <ele>249</ele>
        <time>2018-05-29T09:40:52Z</time>
      </trkpt>
      <trkpt lat="45.98246" lon="4.81505">
        <ele>249</ele>
        <time>2018-05-29T09:40:53Z</time>
      </trkpt>
      <trkpt lat="45.98244" lon="4.81498">
        <ele>249</ele>
        <time>2018-05-29T09:40:54Z</time>
      </trkpt>
      <trkpt lat="45.98242" lon="4.81493">
        <ele>249</ele>
        <time>2018-05-29T09:40:55Z</time>
      </trkpt>
      <trkpt lat="45.9824" lon="4.81486">
        <ele>249</ele>
        <time>2018-05-29T09:40:56Z</time>
      </trkpt>
      <trkpt lat="45.98238" lon="4.8148">
        <ele>249</ele>
        <time>2018-05-29T09:40:57Z</time>
      </trkpt>
      <trkpt lat="45.98234" lon="4.81469">
        <ele>249</ele>
        <time>2018-05-29T09:40:59Z</time>
      </trkpt>
      <trkpt lat="45.98232" lon="4.81462">
        <ele>249</ele>
        <time>2018-05-29T09:41:00Z</time>
      </trkpt>
      <trkpt lat="45.98228" lon="4.81451">
        <ele>249</ele>
        <time>2018-05-29T09:41:02Z</time>
      </trkpt>
      <trkpt lat="45.98227" lon="4.81445">
        <ele>249</ele>
        <time>2018-05-29T09:41:03Z</time>
      </trkpt>
      <trkpt lat="45.98223" lon="4.81434">
        <ele>249</ele>
        <time>2018-05-29T09:41:05Z</time>
      </trkpt>
      <trkpt lat="45.98221" lon="4.81428">
        <ele>249</ele>
        <time>2018-05-29T09:41:06Z</time>
      </trkpt>
      <trkpt lat="45.98219" lon="4.81422">
        <ele>249</ele>
        <time>2018-05-29T09:41:07Z</time>
      </trkpt>
      <trkpt lat="45.98217" lon="4.81416">
        <ele>248</ele>
        <time>2018-05-29T09:41:08Z</time>
      </trkpt>
      <trkpt lat="45.98214" lon="4.81405">
        <ele>248</ele>
        <time>2018-05-29T09:41:10Z</time>
      </trkpt>
      <trkpt lat="45.98212" lon="4.81399">
        <ele>248</ele>
        <time>2018-05-29T09:41:11Z</time>
      </trkpt>
      <trkpt lat="45.98209" lon="4.81388">
        <ele>248</ele>
        <time>2018-05-29T09:41:13Z</time>
      </trkpt>
      <trkpt lat="45.98207" lon="4.81382">
        <ele>248</ele>
        <time>2018-05-29T09:41:14Z</time>
      </trkpt>
      <trkpt lat="45.98204" lon="4.8137">
        <ele>248</ele>
        <time>2018-05-29T09:41:16Z</time>
      </trkpt>
      <trkpt lat="45.98202" lon="4.81362">
        <ele>248</ele>
        <time>2018-05-29T09:41:17Z</time>
      </trkpt>
      <trkpt lat="45.982" lon="4.81356">
        <ele>248</ele>
        <time>2018-05-29T09:41:18Z</time>
      </trkpt>
      <trkpt lat="45.982" lon="4.81348">
        <ele>248</ele>
        <time>2018-05-29T09:41:19Z</time>
      </trkpt>
      <trkpt lat="45.98197" lon="4.81339">
        <ele>248</ele>
        <time>2018-05-29T09:41:20Z</time>
      </trkpt>
      <trkpt lat="45.98196" lon="4.81333">
        <ele>247</ele>
        <time>2018-05-29T09:41:21Z</time>
      </trkpt>
      <trkpt lat="45.98194" lon="4.81325">
        <ele>247</ele>
        <time>2018-05-29T09:41:22Z</time>
      </trkpt>
      <trkpt lat="45.98193" lon="4.81317">
        <ele>247</ele>
        <time>2018-05-29T09:41:23Z</time>
      </trkpt>
      <trkpt lat="45.98192" lon="4.81308">
        <ele>247</ele>
        <time>2018-05-29T09:41:24Z</time>
      </trkpt>
      <trkpt lat="45.9819" lon="4.813">
        <ele>247</ele>
        <time>2018-05-29T09:41:25Z</time>
      </trkpt>
      <trkpt lat="45.98188" lon="4.81292">
        <ele>247</ele>
        <time>2018-05-29T09:41:26Z</time>
      </trkpt>
      <trkpt lat="45.98186" lon="4.81285">
        <ele>247</ele>
        <time>2018-05-29T09:41:27Z</time>
      </trkpt>
      <trkpt lat="45.98185" lon="4.81276">
        <ele>247</ele>
        <time>2018-05-29T09:41:28Z</time>
      </trkpt>
      <trkpt lat="45.98184" lon="4.81268">
        <ele>247</ele>
        <time>2018-05-29T09:41:29Z</time>
      </trkpt>
      <trkpt lat="45.98182" lon="4.8126">
        <ele>247</ele>
        <time>2018-05-29T09:41:30Z</time>
      </trkpt>
      <trkpt lat="45.9818" lon="4.81252">
        <ele>247</ele>
        <time>2018-05-29T09:41:31Z</time>
      </trkpt>
      <trkpt lat="45.98179" lon="4.81244">
        <ele>247</ele>
        <time>2018-05-29T09:41:32Z</time>
      </trkpt>
      <trkpt lat="45.98178" lon="4.81236">
        <ele>246</ele>
        <time>2018-05-29T09:41:33Z</time>
      </trkpt>
      <trkpt lat="45.98176" lon="4.81228">
        <ele>246</ele>
        <time>2018-05-29T09:41:34Z</time>
      </trkpt>
      <trkpt lat="45.98175" lon="4.81218">
        <ele>246</ele>
        <time>2018-05-29T09:41:35Z</time>
      </trkpt>
      <trkpt lat="45.98173" lon="4.8121">
        <ele>246</ele>
        <time>2018-05-29T09:41:36Z</time>
      </trkpt>
      <trkpt lat="45.98172" lon="4.81202">
        <ele>245</ele>
        <time>2018-05-29T09:41:37Z</time>
      </trkpt>
      <trkpt lat="45.98172" lon="4.81194">
        <ele>245</ele>
        <time>2018-05-29T09:41:38Z</time>
      </trkpt>
      <trkpt lat="45.98171" lon="4.81186">
        <ele>245</ele>
        <time>2018-05-29T09:41:39Z</time>
      </trkpt>
      <trkpt lat="45.9817" lon="4.81178">
        <ele>245</ele>
        <time>2018-05-29T09:41:40Z</time>
      </trkpt>
      <trkpt lat="45.98168" lon="4.81171">
        <ele>245</ele>
        <time>2018-05-29T09:41:41Z</time>
      </trkpt>
      <trkpt lat="45.98166" lon="4.81164">
        <ele>245</ele>
        <time>2018-05-29T09:41:42Z</time>
      </trkpt>
      <trkpt lat="45.98163" lon="4.81156">
        <ele>245</ele>
        <time>2018-05-29T09:41:43Z</time>
      </trkpt>
      <trkpt lat="45.9816" lon="4.81148">
        <ele>245</ele>
        <time>2018-05-29T09:41:44Z</time>
      </trkpt>
      <trkpt lat="45.98157" lon="4.8114">
        <ele>245</ele>
        <time>2018-05-29T09:41:45Z</time>
      </trkpt>
      <trkpt lat="45.98154" lon="4.81132">
        <ele>245</ele>
        <time>2018-05-29T09:41:46Z</time>
      </trkpt>
      <trkpt lat="45.98151" lon="4.81124">
        <ele>245</ele>
        <time>2018-05-29T09:41:47Z</time>
      </trkpt>
      <trkpt lat="45.98147" lon="4.81117">
        <ele>245</ele>
        <time>2018-05-29T09:41:48Z</time>
      </trkpt>
      <trkpt lat="45.98145" lon="4.81109">
        <ele>245</ele>
        <time>2018-05-29T09:41:49Z</time>
      </trkpt>
      <trkpt lat="45.98142" lon="4.81101">
        <ele>245</ele>
        <time>2018-05-29T09:41:50Z</time>
      </trkpt>
      <trkpt lat="45.98138" lon="4.81094">
        <ele>245</ele>
        <time>2018-05-29T09:41:51Z</time>
      </trkpt>
      <trkpt lat="45.98135" lon="4.81086">
        <ele>245</ele>
        <time>2018-05-29T09:41:52Z</time>
      </trkpt>
      <trkpt lat="45.98131" lon="4.81078">
        <ele>243</ele>
        <time>2018-05-29T09:41:53Z</time>
      </trkpt>
      <trkpt lat="45.98128" lon="4.8107">
        <ele>243</ele>
        <time>2018-05-29T09:41:54Z</time>
      </trkpt>
      <trkpt lat="45.98125" lon="4.81062">
        <ele>243</ele>
        <time>2018-05-29T09:41:55Z</time>
      </trkpt>
      <trkpt lat="45.98122" lon="4.81054">
        <ele>243</ele>
        <time>2018-05-29T09:41:56Z</time>
      </trkpt>
      <trkpt lat="45.98119" lon="4.81046">
        <ele>242</ele>
        <time>2018-05-29T09:41:57Z</time>
      </trkpt>
      <trkpt lat="45.98116" lon="4.81037">
        <ele>242</ele>
        <time>2018-05-29T09:41:58Z</time>
      </trkpt>
      <trkpt lat="45.98114" lon="4.8103">
        <ele>242</ele>
        <time>2018-05-29T09:41:59Z</time>
      </trkpt>
      <trkpt lat="45.98112" lon="4.81023">
        <ele>242</ele>
        <time>2018-05-29T09:42:00Z</time>
      </trkpt>
      <trkpt lat="45.9811" lon="4.81015">
        <ele>242</ele>
        <time>2018-05-29T09:42:01Z</time>
      </trkpt>
      <trkpt lat="45.98107" lon="4.81008">
        <ele>242</ele>
        <time>2018-05-29T09:42:02Z</time>
      </trkpt>
      <trkpt lat="45.98104" lon="4.81002">
        <ele>242</ele>
        <time>2018-05-29T09:42:03Z</time>
      </trkpt>
      <trkpt lat="45.98102" lon="4.80995">
        <ele>240</ele>
        <time>2018-05-29T09:42:04Z</time>
      </trkpt>
      <trkpt lat="45.981" lon="4.8099">
        <ele>240</ele>
        <time>2018-05-29T09:42:05Z</time>
      </trkpt>
      <trkpt lat="45.98098" lon="4.80978">
        <ele>239</ele>
        <time>2018-05-29T09:42:07Z</time>
      </trkpt>
      <trkpt lat="45.98096" lon="4.80969">
        <ele>239</ele>
        <time>2018-05-29T09:42:08Z</time>
      </trkpt>
      <trkpt lat="45.98094" lon="4.80963">
        <ele>239</ele>
        <time>2018-05-29T09:42:09Z</time>
      </trkpt>
      <trkpt lat="45.98093" lon="4.80954">
        <ele>238</ele>
        <time>2018-05-29T09:42:10Z</time>
      </trkpt>
      <trkpt lat="45.9809" lon="4.80945">
        <ele>238</ele>
        <time>2018-05-29T09:42:11Z</time>
      </trkpt>
      <trkpt lat="45.98088" lon="4.80936">
        <ele>238</ele>
        <time>2018-05-29T09:42:12Z</time>
      </trkpt>
      <trkpt lat="45.98086" lon="4.80925">
        <ele>239</ele>
        <time>2018-05-29T09:42:13Z</time>
      </trkpt>
      <trkpt lat="45.98083" lon="4.80914">
        <ele>238</ele>
        <time>2018-05-29T09:42:14Z</time>
      </trkpt>
      <trkpt lat="45.98081" lon="4.80903">
        <ele>238</ele>
        <time>2018-05-29T09:42:15Z</time>
      </trkpt>
      <trkpt lat="45.98078" lon="4.80893">
        <ele>238</ele>
        <time>2018-05-29T09:42:16Z</time>
      </trkpt>
      <trkpt lat="45.98075" lon="4.80881">
        <ele>237</ele>
        <time>2018-05-29T09:42:17Z</time>
      </trkpt>
      <trkpt lat="45.98073" lon="4.8087">
        <ele>237</ele>
        <time>2018-05-29T09:42:18Z</time>
      </trkpt>
      <trkpt lat="45.98069" lon="4.80858">
        <ele>236</ele>
        <time>2018-05-29T09:42:19Z</time>
      </trkpt>
      <trkpt lat="45.98066" lon="4.80847">
        <ele>236</ele>
        <time>2018-05-29T09:42:20Z</time>
      </trkpt>
      <trkpt lat="45.98061" lon="4.80834">
        <ele>236</ele>
        <time>2018-05-29T09:42:21Z</time>
      </trkpt>
      <trkpt lat="45.98059" lon="4.80824">
        <ele>234</ele>
        <time>2018-05-29T09:42:22Z</time>
      </trkpt>
      <trkpt lat="45.98056" lon="4.80811">
        <ele>234</ele>
        <time>2018-05-29T09:42:23Z</time>
      </trkpt>
      <trkpt lat="45.98053" lon="4.80798">
        <ele>233</ele>
        <time>2018-05-29T09:42:24Z</time>
      </trkpt>
      <trkpt lat="45.98049" lon="4.80786">
        <ele>233</ele>
        <time>2018-05-29T09:42:25Z</time>
      </trkpt>
      <trkpt lat="45.98047" lon="4.80775">
        <ele>233</ele>
        <time>2018-05-29T09:42:26Z</time>
      </trkpt>
      <trkpt lat="45.98043" lon="4.80764">
        <ele>233</ele>
        <time>2018-05-29T09:42:27Z</time>
      </trkpt>
      <trkpt lat="45.98041" lon="4.80755">
        <ele>233</ele>
        <time>2018-05-29T09:42:28Z</time>
      </trkpt>
      <trkpt lat="45.98038" lon="4.80747">
        <ele>231</ele>
        <time>2018-05-29T09:42:29Z</time>
      </trkpt>
      <trkpt lat="45.98036" lon="4.80739">
        <ele>231</ele>
        <time>2018-05-29T09:42:30Z</time>
      </trkpt>
      <trkpt lat="45.98035" lon="4.80731">
        <ele>231</ele>
        <time>2018-05-29T09:42:31Z</time>
      </trkpt>
      <trkpt lat="45.98034" lon="4.80725">
        <ele>231</ele>
        <time>2018-05-29T09:42:32Z</time>
      </trkpt>
      <trkpt lat="45.98033" lon="4.80719">
        <ele>231</ele>
        <time>2018-05-29T09:42:33Z</time>
      </trkpt>
      <trkpt lat="45.98035" lon="4.80708">
        <ele>231</ele>
        <time>2018-05-29T09:42:35Z</time>
      </trkpt>
      <trkpt lat="45.98039" lon="4.80704">
        <ele>230</ele>
        <time>2018-05-29T09:42:36Z</time>
      </trkpt>
      <trkpt lat="45.98047" lon="4.80699">
        <ele>230</ele>
        <time>2018-05-29T09:42:38Z</time>
      </trkpt>
      <trkpt lat="45.98052" lon="4.80698">
        <ele>230</ele>
        <time>2018-05-29T09:42:39Z</time>
      </trkpt>
      <trkpt lat="45.98057" lon="4.80696">
        <ele>230</ele>
        <time>2018-05-29T09:42:40Z</time>
      </trkpt>
      <trkpt lat="45.98063" lon="4.80694">
        <ele>230</ele>
        <time>2018-05-29T09:42:41Z</time>
      </trkpt>
      <trkpt lat="45.98068" lon="4.80693">
        <ele>230</ele>
        <time>2018-05-29T09:42:42Z</time>
      </trkpt>
      <trkpt lat="45.98074" lon="4.80693">
        <ele>230</ele>
        <time>2018-05-29T09:42:43Z</time>
      </trkpt>
      <trkpt lat="45.98081" lon="4.80693">
        <ele>230</ele>
        <time>2018-05-29T09:42:44Z</time>
      </trkpt>
      <trkpt lat="45.98088" lon="4.80694">
        <ele>228</ele>
        <time>2018-05-29T09:42:45Z</time>
      </trkpt>
      <trkpt lat="45.98095" lon="4.80694">
        <ele>228</ele>
        <time>2018-05-29T09:42:46Z</time>
      </trkpt>
      <trkpt lat="45.98102" lon="4.80694">
        <ele>228</ele>
        <time>2018-05-29T09:42:47Z</time>
      </trkpt>
      <trkpt lat="45.98109" lon="4.80693">
        <ele>228</ele>
        <time>2018-05-29T09:42:48Z</time>
      </trkpt>
      <trkpt lat="45.98117" lon="4.80693">
        <ele>228</ele>
        <time>2018-05-29T09:42:49Z</time>
      </trkpt>
      <trkpt lat="45.98124" lon="4.80692">
        <ele>228</ele>
        <time>2018-05-29T09:42:50Z</time>
      </trkpt>
      <trkpt lat="45.98132" lon="4.80693">
        <ele>228</ele>
        <time>2018-05-29T09:42:51Z</time>
      </trkpt>
      <trkpt lat="45.9814" lon="4.80693">
        <ele>228</ele>
        <time>2018-05-29T09:42:52Z</time>
      </trkpt>
      <trkpt lat="45.98147" lon="4.80692">
        <ele>228</ele>
        <time>2018-05-29T09:42:53Z</time>
      </trkpt>
      <trkpt lat="45.98155" lon="4.80693">
        <ele>228</ele>
        <time>2018-05-29T09:42:54Z</time>
      </trkpt>
      <trkpt lat="45.98163" lon="4.80692">
        <ele>227</ele>
        <time>2018-05-29T09:42:55Z</time>
      </trkpt>
      <trkpt lat="45.9817" lon="4.8069">
        <ele>225</ele>
        <time>2018-05-29T09:42:56Z</time>
      </trkpt>
      <trkpt lat="45.98177" lon="4.80689">
        <ele>225</ele>
        <time>2018-05-29T09:42:57Z</time>
      </trkpt>
      <trkpt lat="45.98184" lon="4.80687">
        <ele>225</ele>
        <time>2018-05-29T09:42:58Z</time>
      </trkpt>
      <trkpt lat="45.98192" lon="4.80684">
        <ele>225</ele>
        <time>2018-05-29T09:42:59Z</time>
      </trkpt>
      <trkpt lat="45.98199" lon="4.80681">
        <ele>225</ele>
        <time>2018-05-29T09:43:00Z</time>
      </trkpt>
      <trkpt lat="45.98206" lon="4.80678">
        <ele>224</ele>
        <time>2018-05-29T09:43:01Z</time>
      </trkpt>
      <trkpt lat="45.98213" lon="4.80673">
        <ele>224</ele>
        <time>2018-05-29T09:43:02Z</time>
      </trkpt>
      <trkpt lat="45.98219" lon="4.80667">
        <ele>224</ele>
        <time>2018-05-29T09:43:03Z</time>
      </trkpt>
      <trkpt lat="45.98226" lon="4.80659">
        <ele>223</ele>
        <time>2018-05-29T09:43:04Z</time>
      </trkpt>
      <trkpt lat="45.98228" lon="4.8065">
        <ele>223</ele>
        <time>2018-05-29T09:43:05Z</time>
      </trkpt>
      <trkpt lat="45.98233" lon="4.8064">
        <ele>224</ele>
        <time>2018-05-29T09:43:06Z</time>
      </trkpt>
      <trkpt lat="45.98236" lon="4.8063">
        <ele>224</ele>
        <time>2018-05-29T09:43:07Z</time>
      </trkpt>
      <trkpt lat="45.9824" lon="4.8062">
        <ele>224</ele>
        <time>2018-05-29T09:43:08Z</time>
      </trkpt>
      <trkpt lat="45.98243" lon="4.80609">
        <ele>224</ele>
        <time>2018-05-29T09:43:09Z</time>
      </trkpt>
      <trkpt lat="45.98246" lon="4.80598">
        <ele>224</ele>
        <time>2018-05-29T09:43:10Z</time>
      </trkpt>
      <trkpt lat="45.98248" lon="4.80588">
        <ele>224</ele>
        <time>2018-05-29T09:43:11Z</time>
      </trkpt>
      <trkpt lat="45.98251" lon="4.80578">
        <ele>224</ele>
        <time>2018-05-29T09:43:12Z</time>
      </trkpt>
      <trkpt lat="45.98252" lon="4.80569">
        <ele>224</ele>
        <time>2018-05-29T09:43:13Z</time>
      </trkpt>
      <trkpt lat="45.98256" lon="4.80559">
        <ele>224</ele>
        <time>2018-05-29T09:43:14Z</time>
      </trkpt>
      <trkpt lat="45.9826" lon="4.8055">
        <ele>224</ele>
        <time>2018-05-29T09:43:15Z</time>
      </trkpt>
      <trkpt lat="45.98263" lon="4.80543">
        <ele>224</ele>
        <time>2018-05-29T09:43:16Z</time>
      </trkpt>
      <trkpt lat="45.98264" lon="4.80534">
        <ele>224</ele>
        <time>2018-05-29T09:43:17Z</time>
      </trkpt>
      <trkpt lat="45.98266" lon="4.80527">
        <ele>224</ele>
        <time>2018-05-29T09:43:18Z</time>
      </trkpt>
      <trkpt lat="45.98268" lon="4.80519">
        <ele>223</ele>
        <time>2018-05-29T09:43:19Z</time>
      </trkpt>
      <trkpt lat="45.9827" lon="4.8051">
        <ele>223</ele>
        <time>2018-05-29T09:43:20Z</time>
      </trkpt>
      <trkpt lat="45.98272" lon="4.80502">
        <ele>223</ele>
        <time>2018-05-29T09:43:21Z</time>
      </trkpt>
      <trkpt lat="45.98274" lon="4.80495">
        <ele>223</ele>
        <time>2018-05-29T09:43:22Z</time>
      </trkpt>
      <trkpt lat="45.98276" lon="4.80486">
        <ele>223</ele>
        <time>2018-05-29T09:43:23Z</time>
      </trkpt>
      <trkpt lat="45.9828" lon="4.80478">
        <ele>223</ele>
        <time>2018-05-29T09:43:24Z</time>
      </trkpt>
      <trkpt lat="45.98282" lon="4.80469">
        <ele>223</ele>
        <time>2018-05-29T09:43:25Z</time>
      </trkpt>
      <trkpt lat="45.98284" lon="4.80461">
        <ele>223</ele>
        <time>2018-05-29T09:43:26Z</time>
      </trkpt>
      <trkpt lat="45.98283" lon="4.80452">
        <ele>223</ele>
        <time>2018-05-29T09:43:27Z</time>
      </trkpt>
      <trkpt lat="45.98284" lon="4.80444">
        <ele>223</ele>
        <time>2018-05-29T09:43:28Z</time>
      </trkpt>
      <trkpt lat="45.98287" lon="4.80437">
        <ele>224</ele>
        <time>2018-05-29T09:43:29Z</time>
      </trkpt>
      <trkpt lat="45.98291" lon="4.80429">
        <ele>224</ele>
        <time>2018-05-29T09:43:30Z</time>
      </trkpt>
      <trkpt lat="45.98294" lon="4.80421">
        <ele>224</ele>
        <time>2018-05-29T09:43:31Z</time>
      </trkpt>
      <trkpt lat="45.98296" lon="4.80415">
        <ele>224</ele>
        <time>2018-05-29T09:43:32Z</time>
      </trkpt>
      <trkpt lat="45.98298" lon="4.80408">
        <ele>225</ele>
        <time>2018-05-29T09:43:33Z</time>
      </trkpt>
      <trkpt lat="45.98299" lon="4.80401">
        <ele>225</ele>
        <time>2018-05-29T09:43:34Z</time>
      </trkpt>
      <trkpt lat="45.983" lon="4.80393">
        <ele>225</ele>
        <time>2018-05-29T09:43:35Z</time>
      </trkpt>
      <trkpt lat="45.98302" lon="4.80385">
        <ele>225</ele>
        <time>2018-05-29T09:43:36Z</time>
      </trkpt>
      <trkpt lat="45.98303" lon="4.80378">
        <ele>225</ele>
        <time>2018-05-29T09:43:37Z</time>
      </trkpt>
      <trkpt lat="45.98305" lon="4.80371">
        <ele>225</ele>
        <time>2018-05-29T09:43:38Z</time>
      </trkpt>
      <trkpt lat="45.98306" lon="4.80364">
        <ele>225</ele>
        <time>2018-05-29T09:43:39Z</time>
      </trkpt>
      <trkpt lat="45.98308" lon="4.80353">
        <ele>226</ele>
        <time>2018-05-29T09:43:41Z</time>
      </trkpt>
      <trkpt lat="45.98308" lon="4.80351">
        <ele>226</ele>
        <time>2018-05-29T09:43:42Z</time>
      </trkpt>
      <trkpt lat="45.98309" lon="4.80342">
        <ele>226</ele>
        <time>2018-05-29T09:43:43Z</time>
      </trkpt>
      <trkpt lat="45.98309" lon="4.80337">
        <ele>226</ele>
        <time>2018-05-29T09:43:44Z</time>
      </trkpt>
      <trkpt lat="45.98312" lon="4.80327">
        <ele>227</ele>
        <time>2018-05-29T09:43:46Z</time>
      </trkpt>
      <trkpt lat="45.98316" lon="4.80319">
        <ele>227</ele>
        <time>2018-05-29T09:43:47Z</time>
      </trkpt>
      <trkpt lat="45.98318" lon="4.80308">
        <ele>227</ele>
        <time>2018-05-29T09:43:49Z</time>
      </trkpt>
      <trkpt lat="45.9832" lon="4.803">
        <ele>227</ele>
        <time>2018-05-29T09:43:50Z</time>
      </trkpt>
      <trkpt lat="45.98322" lon="4.80298">
        <ele>227</ele>
        <time>2018-05-29T09:43:51Z</time>
      </trkpt>
      <trkpt lat="45.98325" lon="4.80289">
        <ele>227</ele>
        <time>2018-05-29T09:43:52Z</time>
      </trkpt>
      <trkpt lat="45.98327" lon="4.80277">
        <ele>227</ele>
        <time>2018-05-29T09:43:54Z</time>
      </trkpt>
      <trkpt lat="45.98328" lon="4.80271">
        <ele>227</ele>
        <time>2018-05-29T09:43:55Z</time>
      </trkpt>
      <trkpt lat="45.98331" lon="4.80263">
        <ele>228</ele>
        <time>2018-05-29T09:43:57Z</time>
      </trkpt>
      <trkpt lat="45.98333" lon="4.80255">
        <ele>229</ele>
        <time>2018-05-29T09:43:58Z</time>
      </trkpt>
      <trkpt lat="45.98336" lon="4.80246">
        <ele>230</ele>
        <time>2018-05-29T09:44:00Z</time>
      </trkpt>
      <trkpt lat="45.98338" lon="4.80241">
        <ele>230</ele>
        <time>2018-05-29T09:44:01Z</time>
      </trkpt>
      <trkpt lat="45.98339" lon="4.8023">
        <ele>230</ele>
        <time>2018-05-29T09:44:03Z</time>
      </trkpt>
      <trkpt lat="45.98339" lon="4.80225">
        <ele>230</ele>
        <time>2018-05-29T09:44:04Z</time>
      </trkpt>
      <trkpt lat="45.98338" lon="4.80213">
        <ele>230</ele>
        <time>2018-05-29T09:44:06Z</time>
      </trkpt>
      <trkpt lat="45.98337" lon="4.8021">
        <ele>230</ele>
        <time>2018-05-29T09:44:07Z</time>
      </trkpt>
      <trkpt lat="45.98335" lon="4.80202">
        <ele>230</ele>
        <time>2018-05-29T09:44:08Z</time>
      </trkpt>
      <trkpt lat="45.98333" lon="4.80197">
        <ele>227</ele>
        <time>2018-05-29T09:44:09Z</time>
      </trkpt>
      <trkpt lat="45.98328" lon="4.80191">
        <ele>227</ele>
        <time>2018-05-29T09:44:10Z</time>
      </trkpt>
      <trkpt lat="45.98327" lon="4.80185">
        <ele>227</ele>
        <time>2018-05-29T09:44:11Z</time>
      </trkpt>
      <trkpt lat="45.98325" lon="4.80178">
        <ele>227</ele>
        <time>2018-05-29T09:44:12Z</time>
      </trkpt>
      <trkpt lat="45.98322" lon="4.80171">
        <ele>227</ele>
        <time>2018-05-29T09:44:13Z</time>
      </trkpt>
      <trkpt lat="45.98319" lon="4.80164">
        <ele>228</ele>
        <time>2018-05-29T09:44:14Z</time>
      </trkpt>
      <trkpt lat="45.98316" lon="4.80157">
        <ele>228</ele>
        <time>2018-05-29T09:44:15Z</time>
      </trkpt>
      <trkpt lat="45.98313" lon="4.8015">
        <ele>228</ele>
        <time>2018-05-29T09:44:16Z</time>
      </trkpt>
      <trkpt lat="45.98311" lon="4.80145">
        <ele>228</ele>
        <time>2018-05-29T09:44:17Z</time>
      </trkpt>
      <trkpt lat="45.98309" lon="4.80138">
        <ele>228</ele>
        <time>2018-05-29T09:44:18Z</time>
      </trkpt>
      <trkpt lat="45.98306" lon="4.80132">
        <ele>228</ele>
        <time>2018-05-29T09:44:19Z</time>
      </trkpt>
      <trkpt lat="45.98303" lon="4.80121">
        <ele>228</ele>
        <time>2018-05-29T09:44:21Z</time>
      </trkpt>
      <trkpt lat="45.98301" lon="4.80115">
        <ele>228</ele>
        <time>2018-05-29T09:44:22Z</time>
      </trkpt>
      <trkpt lat="45.98298" lon="4.80108">
        <ele>228</ele>
        <time>2018-05-29T09:44:23Z</time>
      </trkpt>
      <trkpt lat="45.98296" lon="4.80103">
        <ele>228</ele>
        <time>2018-05-29T09:44:24Z</time>
      </trkpt>
      <trkpt lat="45.98294" lon="4.80096">
        <ele>228</ele>
        <time>2018-05-29T09:44:25Z</time>
      </trkpt>
      <trkpt lat="45.98292" lon="4.8009">
        <ele>228</ele>
        <time>2018-05-29T09:44:26Z</time>
      </trkpt>
      <trkpt lat="45.98289" lon="4.80084">
        <ele>228</ele>
        <time>2018-05-29T09:44:27Z</time>
      </trkpt>
      <trkpt lat="45.98287" lon="4.80078">
        <ele>229</ele>
        <time>2018-05-29T09:44:28Z</time>
      </trkpt>
      <trkpt lat="45.98285" lon="4.80071">
        <ele>229</ele>
        <time>2018-05-29T09:44:29Z</time>
      </trkpt>
      <trkpt lat="45.98282" lon="4.80065">
        <ele>229</ele>
        <time>2018-05-29T09:44:30Z</time>
      </trkpt>
      <trkpt lat="45.9828" lon="4.80059">
        <ele>229</ele>
        <time>2018-05-29T09:44:31Z</time>
      </trkpt>
      <trkpt lat="45.98278" lon="4.80052">
        <ele>229</ele>
        <time>2018-05-29T09:44:32Z</time>
      </trkpt>
      <trkpt lat="45.98275" lon="4.80046">
        <ele>229</ele>
        <time>2018-05-29T09:44:33Z</time>
      </trkpt>
      <trkpt lat="45.98273" lon="4.80038">
        <ele>229</ele>
        <time>2018-05-29T09:44:34Z</time>
      </trkpt>
      <trkpt lat="45.98271" lon="4.80032">
        <ele>229</ele>
        <time>2018-05-29T09:44:35Z</time>
      </trkpt>
      <trkpt lat="45.98268" lon="4.80025">
        <ele>228</ele>
        <time>2018-05-29T09:44:36Z</time>
      </trkpt>
      <trkpt lat="45.98266" lon="4.80016">
        <ele>228</ele>
        <time>2018-05-29T09:44:37Z</time>
      </trkpt>
      <trkpt lat="45.98262" lon="4.80008">
        <ele>228</ele>
        <time>2018-05-29T09:44:38Z</time>
      </trkpt>
      <trkpt lat="45.98259" lon="4.79997">
        <ele>227</ele>
        <time>2018-05-29T09:44:40Z</time>
      </trkpt>
      <trkpt lat="45.98258" lon="4.79991">
        <ele>227</ele>
        <time>2018-05-29T09:44:41Z</time>
      </trkpt>
      <trkpt lat="45.98256" lon="4.79985">
        <ele>228</ele>
        <time>2018-05-29T09:44:42Z</time>
      </trkpt>
      <trkpt lat="45.98253" lon="4.79979">
        <ele>228</ele>
        <time>2018-05-29T09:44:43Z</time>
      </trkpt>
      <trkpt lat="45.9825" lon="4.79973">
        <ele>228</ele>
        <time>2018-05-29T09:44:44Z</time>
      </trkpt>
      <trkpt lat="45.98246" lon="4.79965">
        <ele>225</ele>
        <time>2018-05-29T09:44:45Z</time>
      </trkpt>
      <trkpt lat="45.98245" lon="4.79959">
        <ele>225</ele>
        <time>2018-05-29T09:44:46Z</time>
      </trkpt>
      <trkpt lat="45.98242" lon="4.79951">
        <ele>225</ele>
        <time>2018-05-29T09:44:47Z</time>
      </trkpt>
      <trkpt lat="45.9824" lon="4.79944">
        <ele>225</ele>
        <time>2018-05-29T09:44:48Z</time>
      </trkpt>
      <trkpt lat="45.98238" lon="4.79937">
        <ele>225</ele>
        <time>2018-05-29T09:44:49Z</time>
      </trkpt>
      <trkpt lat="45.98236" lon="4.79931">
        <ele>225</ele>
        <time>2018-05-29T09:44:50Z</time>
      </trkpt>
      <trkpt lat="45.98233" lon="4.79925">
        <ele>225</ele>
        <time>2018-05-29T09:44:51Z</time>
      </trkpt>
      <trkpt lat="45.9823" lon="4.79919">
        <ele>225</ele>
        <time>2018-05-29T09:44:52Z</time>
      </trkpt>
      <trkpt lat="45.98229" lon="4.79912">
        <ele>225</ele>
        <time>2018-05-29T09:44:53Z</time>
      </trkpt>
      <trkpt lat="45.98226" lon="4.79906">
        <ele>225</ele>
        <time>2018-05-29T09:44:54Z</time>
      </trkpt>
      <trkpt lat="45.98224" lon="4.799">
        <ele>225</ele>
        <time>2018-05-29T09:44:55Z</time>
      </trkpt>
      <trkpt lat="45.98221" lon="4.7989">
        <ele>225</ele>
        <time>2018-05-29T09:44:57Z</time>
      </trkpt>
      <trkpt lat="45.98219" lon="4.79885">
        <ele>225</ele>
        <time>2018-05-29T09:44:58Z</time>
      </trkpt>
      <trkpt lat="45.98214" lon="4.79875">
        <ele>225</ele>
        <time>2018-05-29T09:45:00Z</time>
      </trkpt>
      <trkpt lat="45.98211" lon="4.7987">
        <ele>225</ele>
        <time>2018-05-29T09:45:01Z</time>
      </trkpt>
      <trkpt lat="45.98208" lon="4.79864">
        <ele>225</ele>
        <time>2018-05-29T09:45:02Z</time>
      </trkpt>
      <trkpt lat="45.98205" lon="4.79858">
        <ele>225</ele>
        <time>2018-05-29T09:45:03Z</time>
      </trkpt>
      <trkpt lat="45.98201" lon="4.79848">
        <ele>225</ele>
        <time>2018-05-29T09:45:05Z</time>
      </trkpt>
      <trkpt lat="45.98199" lon="4.79842">
        <ele>225</ele>
        <time>2018-05-29T09:45:06Z</time>
      </trkpt>
      <trkpt lat="45.98196" lon="4.79831">
        <ele>225</ele>
        <time>2018-05-29T09:45:08Z</time>
      </trkpt>
      <trkpt lat="45.98194" lon="4.79827">
        <ele>225</ele>
        <time>2018-05-29T09:45:09Z</time>
      </trkpt>
      <trkpt lat="45.98191" lon="4.79818">
        <ele>225</ele>
        <time>2018-05-29T09:45:11Z</time>
      </trkpt>
      <trkpt lat="45.98189" lon="4.79813">
        <ele>225</ele>
        <time>2018-05-29T09:45:12Z</time>
      </trkpt>
      <trkpt lat="45.98186" lon="4.79803">
        <ele>226</ele>
        <time>2018-05-29T09:45:15Z</time>
      </trkpt>
      <trkpt lat="45.98185" lon="4.798">
        <ele>226</ele>
        <time>2018-05-29T09:45:16Z</time>
      </trkpt>
      <trkpt lat="45.98183" lon="4.79789">
        <ele>226</ele>
        <time>2018-05-29T09:45:19Z</time>
      </trkpt>
      <trkpt lat="45.98183" lon="4.79785">
        <ele>226</ele>
        <time>2018-05-29T09:45:20Z</time>
      </trkpt>
      <trkpt lat="45.98183" lon="4.79772">
        <ele>226</ele>
        <time>2018-05-29T09:45:21Z</time>
      </trkpt>
      <trkpt lat="45.98187" lon="4.79762">
        <ele>226</ele>
        <time>2018-05-29T09:45:25Z</time>
      </trkpt>
      <trkpt lat="45.9819" lon="4.7976">
        <ele>226</ele>
        <time>2018-05-29T09:45:26Z</time>
      </trkpt>
      <trkpt lat="45.98195" lon="4.79757">
        <ele>226</ele>
        <time>2018-05-29T09:45:28Z</time>
      </trkpt>
      <trkpt lat="45.98198" lon="4.79756">
        <ele>226</ele>
        <time>2018-05-29T09:45:29Z</time>
      </trkpt>
      <trkpt lat="45.98202" lon="4.79755">
        <ele>226</ele>
        <time>2018-05-29T09:45:30Z</time>
      </trkpt>
      <trkpt lat="45.98212" lon="4.79752">
        <ele>226</ele>
        <time>2018-05-29T09:45:31Z</time>
      </trkpt>
      <trkpt lat="45.98219" lon="4.7975">
        <ele>227</ele>
        <time>2018-05-29T09:45:33Z</time>
      </trkpt>
      <trkpt lat="45.98223" lon="4.7975">
        <ele>228</ele>
        <time>2018-05-29T09:45:34Z</time>
      </trkpt>
      <trkpt lat="45.98231" lon="4.79748">
        <ele>228</ele>
        <time>2018-05-29T09:45:36Z</time>
      </trkpt>
      <trkpt lat="45.98235" lon="4.79747">
        <ele>228</ele>
        <time>2018-05-29T09:45:37Z</time>
      </trkpt>
      <trkpt lat="45.98243" lon="4.79745">
        <ele>228</ele>
        <time>2018-05-29T09:45:39Z</time>
      </trkpt>
      <trkpt lat="45.98246" lon="4.79745">
        <ele>228</ele>
        <time>2018-05-29T09:45:40Z</time>
      </trkpt>
      <trkpt lat="45.98254" lon="4.79743">
        <ele>230</ele>
        <time>2018-05-29T09:45:42Z</time>
      </trkpt>
      <trkpt lat="45.98258" lon="4.79743">
        <ele>231</ele>
        <time>2018-05-29T09:45:43Z</time>
      </trkpt>
      <trkpt lat="45.98266" lon="4.79742">
        <ele>232</ele>
        <time>2018-05-29T09:45:45Z</time>
      </trkpt>
      <trkpt lat="45.9827" lon="4.79741">
        <ele>232</ele>
        <time>2018-05-29T09:45:46Z</time>
      </trkpt>
      <trkpt lat="45.98278" lon="4.7974">
        <ele>233</ele>
        <time>2018-05-29T09:45:49Z</time>
      </trkpt>
      <trkpt lat="45.98285" lon="4.79739">
        <ele>234</ele>
        <time>2018-05-29T09:45:50Z</time>
      </trkpt>
      <trkpt lat="45.98292" lon="4.79737">
        <ele>234</ele>
        <time>2018-05-29T09:45:53Z</time>
      </trkpt>
      <trkpt lat="45.98295" lon="4.79737">
        <ele>235</ele>
        <time>2018-05-29T09:45:54Z</time>
      </trkpt>
      <trkpt lat="45.98301" lon="4.79735">
        <ele>235</ele>
        <time>2018-05-29T09:45:56Z</time>
      </trkpt>
      <trkpt lat="45.98304" lon="4.79735">
        <ele>235</ele>
        <time>2018-05-29T09:45:57Z</time>
      </trkpt>
      <trkpt lat="45.9831" lon="4.79734">
        <ele>236</ele>
        <time>2018-05-29T09:45:59Z</time>
      </trkpt>
      <trkpt lat="45.9832" lon="4.79733">
        <ele>236</ele>
        <time>2018-05-29T09:46:00Z</time>
      </trkpt>
      <trkpt lat="45.98326" lon="4.79732">
        <ele>236</ele>
        <time>2018-05-29T09:46:03Z</time>
      </trkpt>
      <trkpt lat="45.98333" lon="4.79731">
        <ele>239</ele>
        <time>2018-05-29T09:46:04Z</time>
      </trkpt>
      <trkpt lat="45.9834" lon="4.7973">
        <ele>239</ele>
        <time>2018-05-29T09:46:07Z</time>
      </trkpt>
      <trkpt lat="45.98342" lon="4.79729">
        <ele>239</ele>
        <time>2018-05-29T09:46:08Z</time>
      </trkpt>
      <trkpt lat="45.98351" lon="4.79729">
        <ele>240</ele>
        <time>2018-05-29T09:46:11Z</time>
      </trkpt>
      <trkpt lat="45.98354" lon="4.79729">
        <ele>240</ele>
        <time>2018-05-29T09:46:12Z</time>
      </trkpt>
      <trkpt lat="45.9836" lon="4.79728">
        <ele>240</ele>
        <time>2018-05-29T09:46:14Z</time>
      </trkpt>
      <trkpt lat="45.98364" lon="4.79728">
        <ele>240</ele>
        <time>2018-05-29T09:46:15Z</time>
      </trkpt>
      <trkpt lat="45.9837" lon="4.79727">
        <ele>240</ele>
        <time>2018-05-29T09:46:17Z</time>
      </trkpt>
      <trkpt lat="45.98374" lon="4.79727">
        <ele>241</ele>
        <time>2018-05-29T09:46:18Z</time>
      </trkpt>
      <trkpt lat="45.9838" lon="4.79727">
        <ele>241</ele>
        <time>2018-05-29T09:46:20Z</time>
      </trkpt>
      <trkpt lat="45.98383" lon="4.79727">
        <ele>241</ele>
        <time>2018-05-29T09:46:21Z</time>
      </trkpt>
      <trkpt lat="45.9839" lon="4.79727">
        <ele>241</ele>
        <time>2018-05-29T09:46:23Z</time>
      </trkpt>
      <trkpt lat="45.98393" lon="4.79726">
        <ele>241</ele>
        <time>2018-05-29T09:46:24Z</time>
      </trkpt>
      <trkpt lat="45.98399" lon="4.79726">
        <ele>241</ele>
        <time>2018-05-29T09:46:26Z</time>
      </trkpt>
      <trkpt lat="45.98408" lon="4.79725">
        <ele>241</ele>
        <time>2018-05-29T09:46:27Z</time>
      </trkpt>
      <trkpt lat="45.98415" lon="4.79725">
        <ele>241</ele>
        <time>2018-05-29T09:46:29Z</time>
      </trkpt>
      <trkpt lat="45.98417" lon="4.79725">
        <ele>242</ele>
        <time>2018-05-29T09:46:30Z</time>
      </trkpt>
      <trkpt lat="45.98425" lon="4.79724">
        <ele>242</ele>
        <time>2018-05-29T09:46:33Z</time>
      </trkpt>
      <trkpt lat="45.98428" lon="4.79724">
        <ele>242</ele>
        <time>2018-05-29T09:46:34Z</time>
      </trkpt>
      <trkpt lat="45.98434" lon="4.79724">
        <ele>242</ele>
        <time>2018-05-29T09:46:36Z</time>
      </trkpt>
      <trkpt lat="45.98437" lon="4.79723">
        <ele>242</ele>
        <time>2018-05-29T09:46:37Z</time>
      </trkpt>
      <trkpt lat="45.98444" lon="4.79723">
        <ele>242</ele>
        <time>2018-05-29T09:46:39Z</time>
      </trkpt>
      <trkpt lat="45.98448" lon="4.79723">
        <ele>242</ele>
        <time>2018-05-29T09:46:40Z</time>
      </trkpt>
      <trkpt lat="45.98455" lon="4.79723">
        <ele>243</ele>
        <time>2018-05-29T09:46:42Z</time>
      </trkpt>
      <trkpt lat="45.98459" lon="4.79723">
        <ele>243</ele>
        <time>2018-05-29T09:46:43Z</time>
      </trkpt>
      <trkpt lat="45.98466" lon="4.79723">
        <ele>243</ele>
        <time>2018-05-29T09:46:45Z</time>
      </trkpt>
      <trkpt lat="45.98469" lon="4.79724">
        <ele>243</ele>
        <time>2018-05-29T09:46:46Z</time>
      </trkpt>
      <trkpt lat="45.98476" lon="4.79724">
        <ele>243</ele>
        <time>2018-05-29T09:46:48Z</time>
      </trkpt>
      <trkpt lat="45.98479" lon="4.79724">
        <ele>243</ele>
        <time>2018-05-29T09:46:49Z</time>
      </trkpt>
      <trkpt lat="45.98486" lon="4.79724">
        <ele>243</ele>
        <time>2018-05-29T09:46:51Z</time>
      </trkpt>
      <trkpt lat="45.98489" lon="4.79724">
        <ele>243</ele>
        <time>2018-05-29T09:46:52Z</time>
      </trkpt>
      <trkpt lat="45.98499" lon="4.79724">
        <ele>243</ele>
        <time>2018-05-29T09:46:53Z</time>
      </trkpt>
      <trkpt lat="45.98505" lon="4.79724">
        <ele>244</ele>
        <time>2018-05-29T09:46:56Z</time>
      </trkpt>
      <trkpt lat="45.98508" lon="4.79723">
        <ele>244</ele>
        <time>2018-05-29T09:46:57Z</time>
      </trkpt>
      <trkpt lat="45.98514" lon="4.79722">
        <ele>244</ele>
        <time>2018-05-29T09:46:59Z</time>
      </trkpt>
      <trkpt lat="45.98517" lon="4.79721">
        <ele>244</ele>
        <time>2018-05-29T09:47:00Z</time>
      </trkpt>
      <trkpt lat="45.98524" lon="4.79718">
        <ele>244</ele>
        <time>2018-05-29T09:47:02Z</time>
      </trkpt>
      <trkpt lat="45.98534" lon="4.79714">
        <ele>244</ele>
        <time>2018-05-29T09:47:03Z</time>
      </trkpt>
      <trkpt lat="45.98541" lon="4.7971">
        <ele>244</ele>
        <time>2018-05-29T09:47:05Z</time>
      </trkpt>
      <trkpt lat="45.98542" lon="4.79709">
        <ele>244</ele>
        <time>2018-05-29T09:47:06Z</time>
      </trkpt>
      <trkpt lat="45.9855" lon="4.79702">
        <ele>244</ele>
        <time>2018-05-29T09:47:08Z</time>
      </trkpt>
      <trkpt lat="45.98552" lon="4.79701">
        <ele>244</ele>
        <time>2018-05-29T09:47:09Z</time>
      </trkpt>
      <trkpt lat="45.98557" lon="4.79696">
        <ele>244</ele>
        <time>2018-05-29T09:47:11Z</time>
      </trkpt>
      <trkpt lat="45.98559" lon="4.79694">
        <ele>244</ele>
        <time>2018-05-29T09:47:12Z</time>
      </trkpt>
      <trkpt lat="45.98561" lon="4.79692">
        <ele>244</ele>
        <time>2018-05-29T09:47:13Z</time>
      </trkpt>
      <trkpt lat="45.98566" lon="4.79685">
        <ele>244</ele>
        <time>2018-05-29T09:47:14Z</time>
      </trkpt>
      <trkpt lat="45.9857" lon="4.79679">
        <ele>244</ele>
        <time>2018-05-29T09:47:16Z</time>
      </trkpt>
      <trkpt lat="45.98574" lon="4.79674">
        <ele>245</ele>
        <time>2018-05-29T09:47:17Z</time>
      </trkpt>
      <trkpt lat="45.98577" lon="4.79667">
        <ele>245</ele>
        <time>2018-05-29T09:47:19Z</time>
      </trkpt>
      <trkpt lat="45.9858" lon="4.79662">
        <ele>245</ele>
        <time>2018-05-29T09:47:20Z</time>
      </trkpt>
      <trkpt lat="45.98586" lon="4.79653">
        <ele>245</ele>
        <time>2018-05-29T09:47:22Z</time>
      </trkpt>
      <trkpt lat="45.98588" lon="4.7965">
        <ele>245</ele>
        <time>2018-05-29T09:47:23Z</time>
      </trkpt>
      <trkpt lat="45.98594" lon="4.79642">
        <ele>245</ele>
        <time>2018-05-29T09:47:26Z</time>
      </trkpt>
      <trkpt lat="45.98595" lon="4.7964">
        <ele>245</ele>
        <time>2018-05-29T09:47:27Z</time>
      </trkpt>
      <trkpt lat="45.98602" lon="4.79635">
        <ele>245</ele>
        <time>2018-05-29T09:47:30Z</time>
      </trkpt>
      <trkpt lat="45.9861" lon="4.7963">
        <ele>245</ele>
        <time>2018-05-29T09:47:31Z</time>
      </trkpt>
      <trkpt lat="45.98617" lon="4.79626">
        <ele>245</ele>
        <time>2018-05-29T09:47:33Z</time>
      </trkpt>
      <trkpt lat="45.9862" lon="4.79623">
        <ele>245</ele>
        <time>2018-05-29T09:47:34Z</time>
      </trkpt>
      <trkpt lat="45.98626" lon="4.79615">
        <ele>245</ele>
        <time>2018-05-29T09:47:36Z</time>
      </trkpt>
      <trkpt lat="45.98626" lon="4.79605">
        <ele>245</ele>
        <time>2018-05-29T09:47:37Z</time>
      </trkpt>
      <trkpt lat="45.98626" lon="4.79597">
        <ele>245</ele>
        <time>2018-05-29T09:47:38Z</time>
      </trkpt>
      <trkpt lat="45.98623" lon="4.7959">
        <ele>245</ele>
        <time>2018-05-29T09:47:39Z</time>
      </trkpt>
      <trkpt lat="45.98616" lon="4.79582">
        <ele>245</ele>
        <time>2018-05-29T09:47:41Z</time>
      </trkpt>
      <trkpt lat="45.98613" lon="4.79581">
        <ele>245</ele>
        <time>2018-05-29T09:47:42Z</time>
      </trkpt>
      <trkpt lat="45.98604" lon="4.79581">
        <ele>245</ele>
        <time>2018-05-29T09:47:44Z</time>
      </trkpt>
      <trkpt lat="45.986" lon="4.79582">
        <ele>245</ele>
        <time>2018-05-29T09:47:45Z</time>
      </trkpt>
      <trkpt lat="45.98597" lon="4.79582">
        <ele>245</ele>
        <time>2018-05-29T09:47:46Z</time>
      </trkpt>
      <trkpt lat="45.98591" lon="4.79582">
        <ele>245</ele>
        <time>2018-05-29T09:47:47Z</time>
      </trkpt>
      <trkpt lat="45.98586" lon="4.79582">
        <ele>245</ele>
        <time>2018-05-29T09:47:48Z</time>
      </trkpt>
      <trkpt lat="45.98581" lon="4.79579">
        <ele>245</ele>
        <time>2018-05-29T09:47:49Z</time>
      </trkpt>
      <trkpt lat="45.98576" lon="4.79576">
        <ele>245</ele>
        <time>2018-05-29T09:47:50Z</time>
      </trkpt>
      <trkpt lat="45.98572" lon="4.79573">
        <ele>245</ele>
        <time>2018-05-29T09:47:51Z</time>
      </trkpt>
      <trkpt lat="45.98567" lon="4.79569">
        <ele>244</ele>
        <time>2018-05-29T09:47:52Z</time>
      </trkpt>
      <trkpt lat="45.98562" lon="4.79565">
        <ele>244</ele>
        <time>2018-05-29T09:47:53Z</time>
      </trkpt>
      <trkpt lat="45.98557" lon="4.79561">
        <ele>244</ele>
        <time>2018-05-29T09:47:54Z</time>
      </trkpt>
      <trkpt lat="45.98553" lon="4.79556">
        <ele>244</ele>
        <time>2018-05-29T09:47:55Z</time>
      </trkpt>
      <trkpt lat="45.98549" lon="4.79551">
        <ele>244</ele>
        <time>2018-05-29T09:47:56Z</time>
      </trkpt>
      <trkpt lat="45.98545" lon="4.79544">
        <ele>244</ele>
        <time>2018-05-29T09:47:57Z</time>
      </trkpt>
      <trkpt lat="45.98542" lon="4.79537">
        <ele>244</ele>
        <time>2018-05-29T09:47:58Z</time>
      </trkpt>
      <trkpt lat="45.98538" lon="4.79531">
        <ele>244</ele>
        <time>2018-05-29T09:47:59Z</time>
      </trkpt>
      <trkpt lat="45.98535" lon="4.79523">
        <ele>244</ele>
        <time>2018-05-29T09:48:00Z</time>
      </trkpt>
      <trkpt lat="45.98533" lon="4.79516">
        <ele>244</ele>
        <time>2018-05-29T09:48:01Z</time>
      </trkpt>
      <trkpt lat="45.98531" lon="4.7951">
        <ele>244</ele>
        <time>2018-05-29T09:48:02Z</time>
      </trkpt>
      <trkpt lat="45.98529" lon="4.79503">
        <ele>244</ele>
        <time>2018-05-29T09:48:03Z</time>
      </trkpt>
      <trkpt lat="45.98528" lon="4.79496">
        <ele>244</ele>
        <time>2018-05-29T09:48:04Z</time>
      </trkpt>
      <trkpt lat="45.98527" lon="4.7949">
        <ele>244</ele>
        <time>2018-05-29T09:48:05Z</time>
      </trkpt>
      <trkpt lat="45.98526" lon="4.79484">
        <ele>244</ele>
        <time>2018-05-29T09:48:06Z</time>
      </trkpt>
      <trkpt lat="45.98525" lon="4.79477">
        <ele>244</ele>
        <time>2018-05-29T09:48:07Z</time>
      </trkpt>
      <trkpt lat="45.98525" lon="4.7947">
        <ele>244</ele>
        <time>2018-05-29T09:48:08Z</time>
      </trkpt>
      <trkpt lat="45.98524" lon="4.79463">
        <ele>244</ele>
        <time>2018-05-29T09:48:09Z</time>
      </trkpt>
      <trkpt lat="45.98524" lon="4.79455">
        <ele>244</ele>
        <time>2018-05-29T09:48:10Z</time>
      </trkpt>
      <trkpt lat="45.98524" lon="4.79448">
        <ele>244</ele>
        <time>2018-05-29T09:48:11Z</time>
      </trkpt>
      <trkpt lat="45.98524" lon="4.7944">
        <ele>244</ele>
        <time>2018-05-29T09:48:12Z</time>
      </trkpt>
      <trkpt lat="45.98525" lon="4.79431">
        <ele>244</ele>
        <time>2018-05-29T09:48:13Z</time>
      </trkpt>
      <trkpt lat="45.98524" lon="4.79424">
        <ele>244</ele>
        <time>2018-05-29T09:48:14Z</time>
      </trkpt>
      <trkpt lat="45.98521" lon="4.79417">
        <ele>244</ele>
        <time>2018-05-29T09:48:15Z</time>
      </trkpt>
      <trkpt lat="45.98521" lon="4.79411">
        <ele>244</ele>
        <time>2018-05-29T09:48:16Z</time>
      </trkpt>
      <trkpt lat="45.98521" lon="4.79404">
        <ele>244</ele>
        <time>2018-05-29T09:48:17Z</time>
      </trkpt>
      <trkpt lat="45.9852" lon="4.79396">
        <ele>244</ele>
        <time>2018-05-29T09:48:18Z</time>
      </trkpt>
      <trkpt lat="45.98518" lon="4.7939">
        <ele>244</ele>
        <time>2018-05-29T09:48:19Z</time>
      </trkpt>
      <trkpt lat="45.98517" lon="4.7938">
        <ele>244</ele>
        <time>2018-05-29T09:48:20Z</time>
      </trkpt>
      <trkpt lat="45.98516" lon="4.79373">
        <ele>243</ele>
        <time>2018-05-29T09:48:21Z</time>
      </trkpt>
      <trkpt lat="45.98514" lon="4.79365">
        <ele>243</ele>
        <time>2018-05-29T09:48:22Z</time>
      </trkpt>
      <trkpt lat="45.98513" lon="4.79356">
        <ele>243</ele>
        <time>2018-05-29T09:48:23Z</time>
      </trkpt>
      <trkpt lat="45.98511" lon="4.79349">
        <ele>243</ele>
        <time>2018-05-29T09:48:24Z</time>
      </trkpt>
      <trkpt lat="45.98509" lon="4.79341">
        <ele>243</ele>
        <time>2018-05-29T09:48:25Z</time>
      </trkpt>
      <trkpt lat="45.98507" lon="4.79333">
        <ele>243</ele>
        <time>2018-05-29T09:48:26Z</time>
      </trkpt>
      <trkpt lat="45.98505" lon="4.79326">
        <ele>243</ele>
        <time>2018-05-29T09:48:27Z</time>
      </trkpt>
      <trkpt lat="45.98503" lon="4.79318">
        <ele>243</ele>
        <time>2018-05-29T09:48:28Z</time>
      </trkpt>
      <trkpt lat="45.98501" lon="4.79311">
        <ele>243</ele>
        <time>2018-05-29T09:48:29Z</time>
      </trkpt>
      <trkpt lat="45.98498" lon="4.79305">
        <ele>243</ele>
        <time>2018-05-29T09:48:30Z</time>
      </trkpt>
      <trkpt lat="45.98496" lon="4.79299">
        <ele>243</ele>
        <time>2018-05-29T09:48:31Z</time>
      </trkpt>
      <trkpt lat="45.98493" lon="4.79292">
        <ele>243</ele>
        <time>2018-05-29T09:48:32Z</time>
      </trkpt>
      <trkpt lat="45.9849" lon="4.79285">
        <ele>243</ele>
        <time>2018-05-29T09:48:33Z</time>
      </trkpt>
      <trkpt lat="45.98487" lon="4.79278">
        <ele>243</ele>
        <time>2018-05-29T09:48:34Z</time>
      </trkpt>
      <trkpt lat="45.98484" lon="4.79271">
        <ele>243</ele>
        <time>2018-05-29T09:48:35Z</time>
      </trkpt>
      <trkpt lat="45.98481" lon="4.79265">
        <ele>243</ele>
        <time>2018-05-29T09:48:36Z</time>
      </trkpt>
      <trkpt lat="45.98478" lon="4.79258">
        <ele>243</ele>
        <time>2018-05-29T09:48:37Z</time>
      </trkpt>
      <trkpt lat="45.98475" lon="4.79253">
        <ele>243</ele>
        <time>2018-05-29T09:48:38Z</time>
      </trkpt>
      <trkpt lat="45.98472" lon="4.79248">
        <ele>243</ele>
        <time>2018-05-29T09:48:39Z</time>
      </trkpt>
      <trkpt lat="45.98469" lon="4.79242">
        <ele>243</ele>
        <time>2018-05-29T09:48:40Z</time>
      </trkpt>
      <trkpt lat="45.98465" lon="4.79235">
        <ele>243</ele>
        <time>2018-05-29T09:48:41Z</time>
      </trkpt>
      <trkpt lat="45.98462" lon="4.79229">
        <ele>243</ele>
        <time>2018-05-29T09:48:42Z</time>
      </trkpt>
      <trkpt lat="45.98458" lon="4.79222">
        <ele>243</ele>
        <time>2018-05-29T09:48:43Z</time>
      </trkpt>
      <trkpt lat="45.98455" lon="4.79216">
        <ele>243</ele>
        <time>2018-05-29T09:48:44Z</time>
      </trkpt>
      <trkpt lat="45.98451" lon="4.7921">
        <ele>242</ele>
        <time>2018-05-29T09:48:45Z</time>
      </trkpt>
      <trkpt lat="45.98449" lon="4.79204">
        <ele>242</ele>
        <time>2018-05-29T09:48:46Z</time>
      </trkpt>
      <trkpt lat="45.98446" lon="4.79197">
        <ele>242</ele>
        <time>2018-05-29T09:48:47Z</time>
      </trkpt>
      <trkpt lat="45.98443" lon="4.79191">
        <ele>242</ele>
        <time>2018-05-29T09:48:48Z</time>
      </trkpt>
      <trkpt lat="45.9844" lon="4.79185">
        <ele>242</ele>
        <time>2018-05-29T09:48:49Z</time>
      </trkpt>
      <trkpt lat="45.98436" lon="4.79179">
        <ele>242</ele>
        <time>2018-05-29T09:48:50Z</time>
      </trkpt>
      <trkpt lat="45.98433" lon="4.79174">
        <ele>242</ele>
        <time>2018-05-29T09:48:51Z</time>
      </trkpt>
      <trkpt lat="45.98429" lon="4.79168">
        <ele>242</ele>
        <time>2018-05-29T09:48:52Z</time>
      </trkpt>
      <trkpt lat="45.98425" lon="4.79161">
        <ele>242</ele>
        <time>2018-05-29T09:48:53Z</time>
      </trkpt>
      <trkpt lat="45.98421" lon="4.79155">
        <ele>242</ele>
        <time>2018-05-29T09:48:54Z</time>
      </trkpt>
      <trkpt lat="45.98418" lon="4.79148">
        <ele>242</ele>
        <time>2018-05-29T09:48:55Z</time>
      </trkpt>
      <trkpt lat="45.98414" lon="4.79141">
        <ele>242</ele>
        <time>2018-05-29T09:48:56Z</time>
      </trkpt>
      <trkpt lat="45.9841" lon="4.79135">
        <ele>242</ele>
        <time>2018-05-29T09:48:57Z</time>
      </trkpt>
      <trkpt lat="45.98407" lon="4.79128">
        <ele>242</ele>
        <time>2018-05-29T09:48:58Z</time>
      </trkpt>
      <trkpt lat="45.98404" lon="4.79122">
        <ele>242</ele>
        <time>2018-05-29T09:48:59Z</time>
      </trkpt>
      <trkpt lat="45.984" lon="4.79115">
        <ele>242</ele>
        <time>2018-05-29T09:49:00Z</time>
      </trkpt>
      <trkpt lat="45.98396" lon="4.79108">
        <ele>242</ele>
        <time>2018-05-29T09:49:01Z</time>
      </trkpt>
      <trkpt lat="45.98393" lon="4.79101">
        <ele>242</ele>
        <time>2018-05-29T09:49:02Z</time>
      </trkpt>
      <trkpt lat="45.9839" lon="4.79096">
        <ele>242</ele>
        <time>2018-05-29T09:49:03Z</time>
      </trkpt>
      <trkpt lat="45.98388" lon="4.79088">
        <ele>242</ele>
        <time>2018-05-29T09:49:04Z</time>
      </trkpt>
      <trkpt lat="45.98385" lon="4.79081">
        <ele>242</ele>
        <time>2018-05-29T09:49:05Z</time>
      </trkpt>
      <trkpt lat="45.98381" lon="4.79075">
        <ele>242</ele>
        <time>2018-05-29T09:49:06Z</time>
      </trkpt>
      <trkpt lat="45.98378" lon="4.79069">
        <ele>242</ele>
        <time>2018-05-29T09:49:07Z</time>
      </trkpt>
      <trkpt lat="45.98375" lon="4.79062">
        <ele>242</ele>
        <time>2018-05-29T09:49:08Z</time>
      </trkpt>
      <trkpt lat="45.98371" lon="4.79055">
        <ele>242</ele>
        <time>2018-05-29T09:49:09Z</time>
      </trkpt>
      <trkpt lat="45.98368" lon="4.79049">
        <ele>242</ele>
        <time>2018-05-29T09:49:10Z</time>
      </trkpt>
      <trkpt lat="45.98363" lon="4.79043">
        <ele>242</ele>
        <time>2018-05-29T09:49:11Z</time>
      </trkpt>
      <trkpt lat="45.9836" lon="4.79037">
        <ele>242</ele>
        <time>2018-05-29T09:49:12Z</time>
      </trkpt>
      <trkpt lat="45.98356" lon="4.79032">
        <ele>242</ele>
        <time>2018-05-29T09:49:13Z</time>
      </trkpt>
      <trkpt lat="45.98352" lon="4.79027">
        <ele>242</ele>
        <time>2018-05-29T09:49:14Z</time>
      </trkpt>
      <trkpt lat="45.98348" lon="4.79022">
        <ele>242</ele>
        <time>2018-05-29T09:49:15Z</time>
      </trkpt>
      <trkpt lat="45.98344" lon="4.79018">
        <ele>242</ele>
        <time>2018-05-29T09:49:16Z</time>
      </trkpt>
      <trkpt lat="45.98339" lon="4.79014">
        <ele>242</ele>
        <time>2018-05-29T09:49:17Z</time>
      </trkpt>
      <trkpt lat="45.98334" lon="4.79011">
        <ele>242</ele>
        <time>2018-05-29T09:49:18Z</time>
      </trkpt>
      <trkpt lat="45.98327" lon="4.79007">
        <ele>242</ele>
        <time>2018-05-29T09:49:19Z</time>
      </trkpt>
      <trkpt lat="45.98321" lon="4.79004">
        <ele>242</ele>
        <time>2018-05-29T09:49:20Z</time>
      </trkpt>
      <trkpt lat="45.98317" lon="4.79">
        <ele>242</ele>
        <time>2018-05-29T09:49:21Z</time>
      </trkpt>
      <trkpt lat="45.98311" lon="4.78998">
        <ele>241</ele>
        <time>2018-05-29T09:49:22Z</time>
      </trkpt>
      <trkpt lat="45.98306" lon="4.78994">
        <ele>241</ele>
        <time>2018-05-29T09:49:23Z</time>
      </trkpt>
      <trkpt lat="45.98301" lon="4.78991">
        <ele>241</ele>
        <time>2018-05-29T09:49:24Z</time>
      </trkpt>
      <trkpt lat="45.98293" lon="4.78987">
        <ele>241</ele>
        <time>2018-05-29T09:49:25Z</time>
      </trkpt>
      <trkpt lat="45.98287" lon="4.78984">
        <ele>241</ele>
        <time>2018-05-29T09:49:26Z</time>
      </trkpt>
      <trkpt lat="45.98283" lon="4.78982">
        <ele>241</ele>
        <time>2018-05-29T09:49:27Z</time>
      </trkpt>
      <trkpt lat="45.98277" lon="4.78978">
        <ele>241</ele>
        <time>2018-05-29T09:49:28Z</time>
      </trkpt>
      <trkpt lat="45.98272" lon="4.78976">
        <ele>241</ele>
        <time>2018-05-29T09:49:29Z</time>
      </trkpt>
      <trkpt lat="45.98267" lon="4.78972">
        <ele>241</ele>
        <time>2018-05-29T09:49:30Z</time>
      </trkpt>
      <trkpt lat="45.98261" lon="4.78969">
        <ele>241</ele>
        <time>2018-05-29T09:49:31Z</time>
      </trkpt>
      <trkpt lat="45.98254" lon="4.78965">
        <ele>241</ele>
        <time>2018-05-29T09:49:32Z</time>
      </trkpt>
      <trkpt lat="45.98248" lon="4.78962">
        <ele>241</ele>
        <time>2018-05-29T09:49:33Z</time>
      </trkpt>
      <trkpt lat="45.98243" lon="4.78958">
        <ele>241</ele>
        <time>2018-05-29T09:49:34Z</time>
      </trkpt>
      <trkpt lat="45.98237" lon="4.78953">
        <ele>241</ele>
        <time>2018-05-29T09:49:35Z</time>
      </trkpt>
      <trkpt lat="45.98231" lon="4.78949">
        <ele>241</ele>
        <time>2018-05-29T09:49:36Z</time>
      </trkpt>
      <trkpt lat="45.98224" lon="4.78946">
        <ele>241</ele>
        <time>2018-05-29T09:49:37Z</time>
      </trkpt>
      <trkpt lat="45.98217" lon="4.78942">
        <ele>241</ele>
        <time>2018-05-29T09:49:38Z</time>
      </trkpt>
      <trkpt lat="45.98212" lon="4.78939">
        <ele>241</ele>
        <time>2018-05-29T09:49:39Z</time>
      </trkpt>
      <trkpt lat="45.98206" lon="4.78938">
        <ele>241</ele>
        <time>2018-05-29T09:49:40Z</time>
      </trkpt>
      <trkpt lat="45.98202" lon="4.78934">
        <ele>241</ele>
        <time>2018-05-29T09:49:41Z</time>
      </trkpt>
      <trkpt lat="45.98196" lon="4.78931">
        <ele>241</ele>
        <time>2018-05-29T09:49:42Z</time>
      </trkpt>
      <trkpt lat="45.9819" lon="4.78927">
        <ele>241</ele>
        <time>2018-05-29T09:49:43Z</time>
      </trkpt>
      <trkpt lat="45.98187" lon="4.78923">
        <ele>241</ele>
        <time>2018-05-29T09:49:44Z</time>
      </trkpt>
      <trkpt lat="45.98181" lon="4.7892">
        <ele>240</ele>
        <time>2018-05-29T09:49:45Z</time>
      </trkpt>
      <trkpt lat="45.98174" lon="4.78917">
        <ele>240</ele>
        <time>2018-05-29T09:49:46Z</time>
      </trkpt>
      <trkpt lat="45.98169" lon="4.78913">
        <ele>240</ele>
        <time>2018-05-29T09:49:47Z</time>
      </trkpt>
      <trkpt lat="45.98163" lon="4.7891">
        <ele>240</ele>
        <time>2018-05-29T09:49:48Z</time>
      </trkpt>
      <trkpt lat="45.98156" lon="4.78906">
        <ele>240</ele>
        <time>2018-05-29T09:49:49Z</time>
      </trkpt>
      <trkpt lat="45.98149" lon="4.78902">
        <ele>240</ele>
        <time>2018-05-29T09:49:50Z</time>
      </trkpt>
      <trkpt lat="45.98142" lon="4.78898">
        <ele>240</ele>
        <time>2018-05-29T09:49:51Z</time>
      </trkpt>
      <trkpt lat="45.98135" lon="4.78895">
        <ele>240</ele>
        <time>2018-05-29T09:49:52Z</time>
      </trkpt>
      <trkpt lat="45.98129" lon="4.7889">
        <ele>240</ele>
        <time>2018-05-29T09:49:53Z</time>
      </trkpt>
      <trkpt lat="45.98124" lon="4.78886">
        <ele>240</ele>
        <time>2018-05-29T09:49:54Z</time>
      </trkpt>
      <trkpt lat="45.98117" lon="4.78883">
        <ele>240</ele>
        <time>2018-05-29T09:49:55Z</time>
      </trkpt>
      <trkpt lat="45.98111" lon="4.78879">
        <ele>240</ele>
        <time>2018-05-29T09:49:56Z</time>
      </trkpt>
      <trkpt lat="45.98106" lon="4.78876">
        <ele>240</ele>
        <time>2018-05-29T09:49:57Z</time>
      </trkpt>
      <trkpt lat="45.981" lon="4.78873">
        <ele>239</ele>
        <time>2018-05-29T09:49:58Z</time>
      </trkpt>
      <trkpt lat="45.98096" lon="4.78873">
        <ele>239</ele>
        <time>2018-05-29T09:49:59Z</time>
      </trkpt>
      <trkpt lat="45.98092" lon="4.7887">
        <ele>239</ele>
        <time>2018-05-29T09:50:00Z</time>
      </trkpt>
      <trkpt lat="45.98087" lon="4.78867">
        <ele>239</ele>
        <time>2018-05-29T09:50:01Z</time>
      </trkpt>
      <trkpt lat="45.98083" lon="4.78864">
        <ele>239</ele>
        <time>2018-05-29T09:50:02Z</time>
      </trkpt>
      <trkpt lat="45.98079" lon="4.78861">
        <ele>239</ele>
        <time>2018-05-29T09:50:03Z</time>
      </trkpt>
      <trkpt lat="45.98075" lon="4.78858">
        <ele>239</ele>
        <time>2018-05-29T09:50:04Z</time>
      </trkpt>
      <trkpt lat="45.9807" lon="4.78855">
        <ele>239</ele>
        <time>2018-05-29T09:50:05Z</time>
      </trkpt>
      <trkpt lat="45.98065" lon="4.78852">
        <ele>239</ele>
        <time>2018-05-29T09:50:06Z</time>
      </trkpt>
      <trkpt lat="45.98061" lon="4.78849">
        <ele>239</ele>
        <time>2018-05-29T09:50:07Z</time>
      </trkpt>
      <trkpt lat="45.98055" lon="4.78845">
        <ele>239</ele>
        <time>2018-05-29T09:50:08Z</time>
      </trkpt>
      <trkpt lat="45.98051" lon="4.78841">
        <ele>239</ele>
        <time>2018-05-29T09:50:09Z</time>
      </trkpt>
      <trkpt lat="45.98046" lon="4.78839">
        <ele>238</ele>
        <time>2018-05-29T09:50:10Z</time>
      </trkpt>
      <trkpt lat="45.98042" lon="4.78836">
        <ele>238</ele>
        <time>2018-05-29T09:50:11Z</time>
      </trkpt>
      <trkpt lat="45.98037" lon="4.78832">
        <ele>238</ele>
        <time>2018-05-29T09:50:12Z</time>
      </trkpt>
      <trkpt lat="45.98032" lon="4.78828">
        <ele>238</ele>
        <time>2018-05-29T09:50:13Z</time>
      </trkpt>
      <trkpt lat="45.98028" lon="4.78825">
        <ele>238</ele>
        <time>2018-05-29T09:50:14Z</time>
      </trkpt>
      <trkpt lat="45.98023" lon="4.78821">
        <ele>238</ele>
        <time>2018-05-29T09:50:15Z</time>
      </trkpt>
      <trkpt lat="45.98019" lon="4.78817">
        <ele>238</ele>
        <time>2018-05-29T09:50:16Z</time>
      </trkpt>
      <trkpt lat="45.98014" lon="4.78814">
        <ele>238</ele>
        <time>2018-05-29T09:50:17Z</time>
      </trkpt>
      <trkpt lat="45.98009" lon="4.7881">
        <ele>238</ele>
        <time>2018-05-29T09:50:18Z</time>
      </trkpt>
      <trkpt lat="45.98004" lon="4.78806">
        <ele>238</ele>
        <time>2018-05-29T09:50:19Z</time>
      </trkpt>
      <trkpt lat="45.97999" lon="4.78803">
        <ele>238</ele>
        <time>2018-05-29T09:50:20Z</time>
      </trkpt>
      <trkpt lat="45.97995" lon="4.788">
        <ele>238</ele>
        <time>2018-05-29T09:50:21Z</time>
      </trkpt>
      <trkpt lat="45.9799" lon="4.78796">
        <ele>238</ele>
        <time>2018-05-29T09:50:22Z</time>
      </trkpt>
      <trkpt lat="45.97985" lon="4.78793">
        <ele>238</ele>
        <time>2018-05-29T09:50:23Z</time>
      </trkpt>
      <trkpt lat="45.97979" lon="4.78789">
        <ele>238</ele>
        <time>2018-05-29T09:50:24Z</time>
      </trkpt>
      <trkpt lat="45.97972" lon="4.78787">
        <ele>238</ele>
        <time>2018-05-29T09:50:25Z</time>
      </trkpt>
      <trkpt lat="45.97966" lon="4.78781">
        <ele>238</ele>
        <time>2018-05-29T09:50:26Z</time>
      </trkpt>
      <trkpt lat="45.97961" lon="4.78778">
        <ele>238</ele>
        <time>2018-05-29T09:50:27Z</time>
      </trkpt>
      <trkpt lat="45.97955" lon="4.78775">
        <ele>238</ele>
        <time>2018-05-29T09:50:28Z</time>
      </trkpt>
      <trkpt lat="45.97951" lon="4.78771">
        <ele>238</ele>
        <time>2018-05-29T09:50:29Z</time>
      </trkpt>
      <trkpt lat="45.97946" lon="4.78768">
        <ele>238</ele>
        <time>2018-05-29T09:50:30Z</time>
      </trkpt>
      <trkpt lat="45.97941" lon="4.78765">
        <ele>238</ele>
        <time>2018-05-29T09:50:31Z</time>
      </trkpt>
      <trkpt lat="45.97935" lon="4.78761">
        <ele>238</ele>
        <time>2018-05-29T09:50:32Z</time>
      </trkpt>
      <trkpt lat="45.97931" lon="4.78757">
        <ele>238</ele>
        <time>2018-05-29T09:50:33Z</time>
      </trkpt>
      <trkpt lat="45.97926" lon="4.78753">
        <ele>237</ele>
        <time>2018-05-29T09:50:34Z</time>
      </trkpt>
      <trkpt lat="45.9792" lon="4.7875">
        <ele>237</ele>
        <time>2018-05-29T09:50:35Z</time>
      </trkpt>
      <trkpt lat="45.97915" lon="4.78745">
        <ele>237</ele>
        <time>2018-05-29T09:50:36Z</time>
      </trkpt>
      <trkpt lat="45.9791" lon="4.78741">
        <ele>237</ele>
        <time>2018-05-29T09:50:37Z</time>
      </trkpt>
      <trkpt lat="45.97905" lon="4.78738">
        <ele>237</ele>
        <time>2018-05-29T09:50:38Z</time>
      </trkpt>
      <trkpt lat="45.979" lon="4.78734">
        <ele>237</ele>
        <time>2018-05-29T09:50:39Z</time>
      </trkpt>
      <trkpt lat="45.97895" lon="4.7873">
        <ele>236</ele>
        <time>2018-05-29T09:50:40Z</time>
      </trkpt>
      <trkpt lat="45.9789" lon="4.78726">
        <ele>236</ele>
        <time>2018-05-29T09:50:41Z</time>
      </trkpt>
      <trkpt lat="45.97884" lon="4.78722">
        <ele>236</ele>
        <time>2018-05-29T09:50:42Z</time>
      </trkpt>
      <trkpt lat="45.97879" lon="4.7872">
        <ele>236</ele>
        <time>2018-05-29T09:50:43Z</time>
      </trkpt>
      <trkpt lat="45.97875" lon="4.78717">
        <ele>236</ele>
        <time>2018-05-29T09:50:44Z</time>
      </trkpt>
      <trkpt lat="45.97869" lon="4.78713">
        <ele>236</ele>
        <time>2018-05-29T09:50:45Z</time>
      </trkpt>
      <trkpt lat="45.97865" lon="4.78709">
        <ele>236</ele>
        <time>2018-05-29T09:50:46Z</time>
      </trkpt>
      <trkpt lat="45.97859" lon="4.78705">
        <ele>236</ele>
        <time>2018-05-29T09:50:47Z</time>
      </trkpt>
      <trkpt lat="45.97854" lon="4.78701">
        <ele>236</ele>
        <time>2018-05-29T09:50:48Z</time>
      </trkpt>
      <trkpt lat="45.97849" lon="4.78698">
        <ele>236</ele>
        <time>2018-05-29T09:50:49Z</time>
      </trkpt>
      <trkpt lat="45.97846" lon="4.78695">
        <ele>236</ele>
        <time>2018-05-29T09:50:50Z</time>
      </trkpt>
      <trkpt lat="45.9784" lon="4.78691">
        <ele>236</ele>
        <time>2018-05-29T09:50:51Z</time>
      </trkpt>
      <trkpt lat="45.97835" lon="4.78689">
        <ele>236</ele>
        <time>2018-05-29T09:50:52Z</time>
      </trkpt>
      <trkpt lat="45.97829" lon="4.78686">
        <ele>235</ele>
        <time>2018-05-29T09:50:53Z</time>
      </trkpt>
      <trkpt lat="45.97823" lon="4.78683">
        <ele>235</ele>
        <time>2018-05-29T09:50:54Z</time>
      </trkpt>
      <trkpt lat="45.97818" lon="4.78681">
        <ele>235</ele>
        <time>2018-05-29T09:50:55Z</time>
      </trkpt>
      <trkpt lat="45.97813" lon="4.78677">
        <ele>235</ele>
        <time>2018-05-29T09:50:56Z</time>
      </trkpt>
      <trkpt lat="45.97806" lon="4.78675">
        <ele>235</ele>
        <time>2018-05-29T09:50:57Z</time>
      </trkpt>
      <trkpt lat="45.97801" lon="4.78672">
        <ele>235</ele>
        <time>2018-05-29T09:50:58Z</time>
      </trkpt>
      <trkpt lat="45.97795" lon="4.78671">
        <ele>235</ele>
        <time>2018-05-29T09:50:59Z</time>
      </trkpt>
      <trkpt lat="45.9779" lon="4.78669">
        <ele>235</ele>
        <time>2018-05-29T09:51:00Z</time>
      </trkpt>
      <trkpt lat="45.97784" lon="4.78666">
        <ele>235</ele>
        <time>2018-05-29T09:51:01Z</time>
      </trkpt>
      <trkpt lat="45.97778" lon="4.78663">
        <ele>235</ele>
        <time>2018-05-29T09:51:02Z</time>
      </trkpt>
      <trkpt lat="45.97774" lon="4.78661">
        <ele>235</ele>
        <time>2018-05-29T09:51:03Z</time>
      </trkpt>
      <trkpt lat="45.97769" lon="4.78658">
        <ele>235</ele>
        <time>2018-05-29T09:51:04Z</time>
      </trkpt>
      <trkpt lat="45.97759" lon="4.78656">
        <ele>235</ele>
        <time>2018-05-29T09:51:05Z</time>
      </trkpt>
      <trkpt lat="45.97752" lon="4.78654">
        <ele>235</ele>
        <time>2018-05-29T09:51:06Z</time>
      </trkpt>
      <trkpt lat="45.97746" lon="4.78652">
        <ele>234</ele>
        <time>2018-05-29T09:51:07Z</time>
      </trkpt>
      <trkpt lat="45.9774" lon="4.78649">
        <ele>234</ele>
        <time>2018-05-29T09:51:08Z</time>
      </trkpt>
      <trkpt lat="45.97734" lon="4.78646">
        <ele>234</ele>
        <time>2018-05-29T09:51:09Z</time>
      </trkpt>
      <trkpt lat="45.97728" lon="4.78643">
        <ele>234</ele>
        <time>2018-05-29T09:51:10Z</time>
      </trkpt>
      <trkpt lat="45.97722" lon="4.7864">
        <ele>234</ele>
        <time>2018-05-29T09:51:11Z</time>
      </trkpt>
      <trkpt lat="45.97716" lon="4.78638">
        <ele>234</ele>
        <time>2018-05-29T09:51:12Z</time>
      </trkpt>
      <trkpt lat="45.9771" lon="4.78636">
        <ele>234</ele>
        <time>2018-05-29T09:51:13Z</time>
      </trkpt>
      <trkpt lat="45.97704" lon="4.78634">
        <ele>234</ele>
        <time>2018-05-29T09:51:14Z</time>
      </trkpt>
      <trkpt lat="45.97698" lon="4.78632">
        <ele>234</ele>
        <time>2018-05-29T09:51:15Z</time>
      </trkpt>
      <trkpt lat="45.97691" lon="4.78629">
        <ele>234</ele>
        <time>2018-05-29T09:51:16Z</time>
      </trkpt>
      <trkpt lat="45.97684" lon="4.78626">
        <ele>234</ele>
        <time>2018-05-29T09:51:17Z</time>
      </trkpt>
      <trkpt lat="45.97678" lon="4.78623">
        <ele>234</ele>
        <time>2018-05-29T09:51:18Z</time>
      </trkpt>
      <trkpt lat="45.97673" lon="4.7862">
        <ele>234</ele>
        <time>2018-05-29T09:51:19Z</time>
      </trkpt>
      <trkpt lat="45.97667" lon="4.78616">
        <ele>234</ele>
        <time>2018-05-29T09:51:20Z</time>
      </trkpt>
      <trkpt lat="45.97661" lon="4.78614">
        <ele>233</ele>
        <time>2018-05-29T09:51:21Z</time>
      </trkpt>
      <trkpt lat="45.97653" lon="4.7861">
        <ele>233</ele>
        <time>2018-05-29T09:51:22Z</time>
      </trkpt>
      <trkpt lat="45.97645" lon="4.78607">
        <ele>233</ele>
        <time>2018-05-29T09:51:23Z</time>
      </trkpt>
      <trkpt lat="45.9764" lon="4.78605">
        <ele>233</ele>
        <time>2018-05-29T09:51:24Z</time>
      </trkpt>
      <trkpt lat="45.97634" lon="4.78603">
        <ele>233</ele>
        <time>2018-05-29T09:51:25Z</time>
      </trkpt>
      <trkpt lat="45.97628" lon="4.786">
        <ele>233</ele>
        <time>2018-05-29T09:51:26Z</time>
      </trkpt>
      <trkpt lat="45.97622" lon="4.78597">
        <ele>233</ele>
        <time>2018-05-29T09:51:27Z</time>
      </trkpt>
      <trkpt lat="45.97616" lon="4.78595">
        <ele>233</ele>
        <time>2018-05-29T09:51:28Z</time>
      </trkpt>
      <trkpt lat="45.97611" lon="4.78592">
        <ele>233</ele>
        <time>2018-05-29T09:51:29Z</time>
      </trkpt>
      <trkpt lat="45.97606" lon="4.7859">
        <ele>233</ele>
        <time>2018-05-29T09:51:30Z</time>
      </trkpt>
      <trkpt lat="45.97602" lon="4.78587">
        <ele>233</ele>
        <time>2018-05-29T09:51:31Z</time>
      </trkpt>
      <trkpt lat="45.97597" lon="4.78586">
        <ele>233</ele>
        <time>2018-05-29T09:51:32Z</time>
      </trkpt>
      <trkpt lat="45.97592" lon="4.78583">
        <ele>233</ele>
        <time>2018-05-29T09:51:33Z</time>
      </trkpt>
      <trkpt lat="45.97587" lon="4.78582">
        <ele>233</ele>
        <time>2018-05-29T09:51:34Z</time>
      </trkpt>
      <trkpt lat="45.97582" lon="4.78579">
        <ele>233</ele>
        <time>2018-05-29T09:51:35Z</time>
      </trkpt>
      <trkpt lat="45.97577" lon="4.78577">
        <ele>233</ele>
        <time>2018-05-29T09:51:36Z</time>
      </trkpt>
      <trkpt lat="45.97572" lon="4.78574">
        <ele>233</ele>
        <time>2018-05-29T09:51:37Z</time>
      </trkpt>
      <trkpt lat="45.97568" lon="4.78571">
        <ele>233</ele>
        <time>2018-05-29T09:51:38Z</time>
      </trkpt>
      <trkpt lat="45.97562" lon="4.78571">
        <ele>233</ele>
        <time>2018-05-29T09:51:39Z</time>
      </trkpt>
      <trkpt lat="45.97558" lon="4.78568">
        <ele>234</ele>
        <time>2018-05-29T09:51:40Z</time>
      </trkpt>
      <trkpt lat="45.97553" lon="4.78566">
        <ele>234</ele>
        <time>2018-05-29T09:51:41Z</time>
      </trkpt>
      <trkpt lat="45.97548" lon="4.78564">
        <ele>234</ele>
        <time>2018-05-29T09:51:42Z</time>
      </trkpt>
      <trkpt lat="45.97541" lon="4.78562">
        <ele>234</ele>
        <time>2018-05-29T09:51:43Z</time>
      </trkpt>
      <trkpt lat="45.97536" lon="4.7856">
        <ele>234</ele>
        <time>2018-05-29T09:51:44Z</time>
      </trkpt>
      <trkpt lat="45.97531" lon="4.78557">
        <ele>234</ele>
        <time>2018-05-29T09:51:45Z</time>
      </trkpt>
      <trkpt lat="45.97526" lon="4.78555">
        <ele>234</ele>
        <time>2018-05-29T09:51:46Z</time>
      </trkpt>
      <trkpt lat="45.97521" lon="4.78552">
        <ele>234</ele>
        <time>2018-05-29T09:51:47Z</time>
      </trkpt>
      <trkpt lat="45.97516" lon="4.7855">
        <ele>234</ele>
        <time>2018-05-29T09:51:48Z</time>
      </trkpt>
      <trkpt lat="45.97511" lon="4.78547">
        <ele>234</ele>
        <time>2018-05-29T09:51:49Z</time>
      </trkpt>
      <trkpt lat="45.97507" lon="4.78543">
        <ele>234</ele>
        <time>2018-05-29T09:51:50Z</time>
      </trkpt>
      <trkpt lat="45.97501" lon="4.78539">
        <ele>234</ele>
        <time>2018-05-29T09:51:51Z</time>
      </trkpt>
      <trkpt lat="45.97494" lon="4.78535">
        <ele>233</ele>
        <time>2018-05-29T09:51:52Z</time>
      </trkpt>
      <trkpt lat="45.97489" lon="4.78531">
        <ele>233</ele>
        <time>2018-05-29T09:51:53Z</time>
      </trkpt>
      <trkpt lat="45.97485" lon="4.78527">
        <ele>233</ele>
        <time>2018-05-29T09:51:54Z</time>
      </trkpt>
      <trkpt lat="45.9748" lon="4.78522">
        <ele>233</ele>
        <time>2018-05-29T09:51:55Z</time>
      </trkpt>
      <trkpt lat="45.97474" lon="4.78519">
        <ele>233</ele>
        <time>2018-05-29T09:51:56Z</time>
      </trkpt>
      <trkpt lat="45.9747" lon="4.78514">
        <ele>234</ele>
        <time>2018-05-29T09:51:57Z</time>
      </trkpt>
      <trkpt lat="45.97464" lon="4.7851">
        <ele>234</ele>
        <time>2018-05-29T09:51:58Z</time>
      </trkpt>
      <trkpt lat="45.97459" lon="4.78506">
        <ele>234</ele>
        <time>2018-05-29T09:51:59Z</time>
      </trkpt>
      <trkpt lat="45.97454" lon="4.78503">
        <ele>234</ele>
        <time>2018-05-29T09:52:00Z</time>
      </trkpt>
      <trkpt lat="45.9745" lon="4.78499">
        <ele>234</ele>
        <time>2018-05-29T09:52:01Z</time>
      </trkpt>
      <trkpt lat="45.97446" lon="4.78495">
        <ele>234</ele>
        <time>2018-05-29T09:52:02Z</time>
      </trkpt>
      <trkpt lat="45.97442" lon="4.78491">
        <ele>234</ele>
        <time>2018-05-29T09:52:03Z</time>
      </trkpt>
      <trkpt lat="45.97437" lon="4.78487">
        <ele>234</ele>
        <time>2018-05-29T09:52:04Z</time>
      </trkpt>
      <trkpt lat="45.97432" lon="4.78483">
        <ele>234</ele>
        <time>2018-05-29T09:52:05Z</time>
      </trkpt>
      <trkpt lat="45.97427" lon="4.7848">
        <ele>234</ele>
        <time>2018-05-29T09:52:06Z</time>
      </trkpt>
      <trkpt lat="45.97422" lon="4.78476">
        <ele>234</ele>
        <time>2018-05-29T09:52:07Z</time>
      </trkpt>
      <trkpt lat="45.97418" lon="4.78472">
        <ele>234</ele>
        <time>2018-05-29T09:52:08Z</time>
      </trkpt>
      <trkpt lat="45.97414" lon="4.78467">
        <ele>233</ele>
        <time>2018-05-29T09:52:09Z</time>
      </trkpt>
      <trkpt lat="45.97408" lon="4.78462">
        <ele>233</ele>
        <time>2018-05-29T09:52:10Z</time>
      </trkpt>
      <trkpt lat="45.97404" lon="4.78458">
        <ele>233</ele>
        <time>2018-05-29T09:52:11Z</time>
      </trkpt>
      <trkpt lat="45.97397" lon="4.7845">
        <ele>233</ele>
        <time>2018-05-29T09:52:13Z</time>
      </trkpt>
      <trkpt lat="45.97392" lon="4.78446">
        <ele>233</ele>
        <time>2018-05-29T09:52:14Z</time>
      </trkpt>
      <trkpt lat="45.97388" lon="4.78441">
        <ele>233</ele>
        <time>2018-05-29T09:52:15Z</time>
      </trkpt>
      <trkpt lat="45.97383" lon="4.78437">
        <ele>233</ele>
        <time>2018-05-29T09:52:16Z</time>
      </trkpt>
      <trkpt lat="45.97379" lon="4.78432">
        <ele>233</ele>
        <time>2018-05-29T09:52:17Z</time>
      </trkpt>
      <trkpt lat="45.97374" lon="4.78427">
        <ele>233</ele>
        <time>2018-05-29T09:52:18Z</time>
      </trkpt>
      <trkpt lat="45.9737" lon="4.78422">
        <ele>233</ele>
        <time>2018-05-29T09:52:19Z</time>
      </trkpt>
      <trkpt lat="45.97365" lon="4.78418">
        <ele>233</ele>
        <time>2018-05-29T09:52:20Z</time>
      </trkpt>
      <trkpt lat="45.97361" lon="4.78412">
        <ele>233</ele>
        <time>2018-05-29T09:52:21Z</time>
      </trkpt>
      <trkpt lat="45.97356" lon="4.78408">
        <ele>232</ele>
        <time>2018-05-29T09:52:22Z</time>
      </trkpt>
      <trkpt lat="45.97351" lon="4.78403">
        <ele>232</ele>
        <time>2018-05-29T09:52:23Z</time>
      </trkpt>
      <trkpt lat="45.97347" lon="4.78398">
        <ele>232</ele>
        <time>2018-05-29T09:52:24Z</time>
      </trkpt>
      <trkpt lat="45.97342" lon="4.78393">
        <ele>232</ele>
        <time>2018-05-29T09:52:25Z</time>
      </trkpt>
      <trkpt lat="45.97337" lon="4.78388">
        <ele>233</ele>
        <time>2018-05-29T09:52:26Z</time>
      </trkpt>
      <trkpt lat="45.97333" lon="4.78383">
        <ele>232</ele>
        <time>2018-05-29T09:52:27Z</time>
      </trkpt>
      <trkpt lat="45.97329" lon="4.78378">
        <ele>232</ele>
        <time>2018-05-29T09:52:28Z</time>
      </trkpt>
      <trkpt lat="45.97323" lon="4.78372">
        <ele>232</ele>
        <time>2018-05-29T09:52:29Z</time>
      </trkpt>
      <trkpt lat="45.97319" lon="4.78367">
        <ele>232</ele>
        <time>2018-05-29T09:52:30Z</time>
      </trkpt>
      <trkpt lat="45.97315" lon="4.78362">
        <ele>232</ele>
        <time>2018-05-29T09:52:31Z</time>
      </trkpt>
      <trkpt lat="45.97311" lon="4.78357">
        <ele>232</ele>
        <time>2018-05-29T09:52:32Z</time>
      </trkpt>
      <trkpt lat="45.97307" lon="4.78352">
        <ele>232</ele>
        <time>2018-05-29T09:52:33Z</time>
      </trkpt>
      <trkpt lat="45.97303" lon="4.78346">
        <ele>232</ele>
        <time>2018-05-29T09:52:34Z</time>
      </trkpt>
      <trkpt lat="45.973" lon="4.78341">
        <ele>232</ele>
        <time>2018-05-29T09:52:35Z</time>
      </trkpt>
      <trkpt lat="45.97296" lon="4.78336">
        <ele>232</ele>
        <time>2018-05-29T09:52:36Z</time>
      </trkpt>
      <trkpt lat="45.97293" lon="4.7833">
        <ele>232</ele>
        <time>2018-05-29T09:52:37Z</time>
      </trkpt>
      <trkpt lat="45.97289" lon="4.78325">
        <ele>232</ele>
        <time>2018-05-29T09:52:38Z</time>
      </trkpt>
      <trkpt lat="45.97284" lon="4.78319">
        <ele>232</ele>
        <time>2018-05-29T09:52:39Z</time>
      </trkpt>
      <trkpt lat="45.9728" lon="4.78315">
        <ele>232</ele>
        <time>2018-05-29T09:52:40Z</time>
      </trkpt>
      <trkpt lat="45.97277" lon="4.7831">
        <ele>232</ele>
        <time>2018-05-29T09:52:41Z</time>
      </trkpt>
      <trkpt lat="45.97273" lon="4.78304">
        <ele>232</ele>
        <time>2018-05-29T09:52:42Z</time>
      </trkpt>
      <trkpt lat="45.97269" lon="4.78298">
        <ele>232</ele>
        <time>2018-05-29T09:52:43Z</time>
      </trkpt>
      <trkpt lat="45.97265" lon="4.78292">
        <ele>232</ele>
        <time>2018-05-29T09:52:44Z</time>
      </trkpt>
      <trkpt lat="45.9726" lon="4.78285">
        <ele>232</ele>
        <time>2018-05-29T09:52:45Z</time>
      </trkpt>
      <trkpt lat="45.97256" lon="4.78279">
        <ele>232</ele>
        <time>2018-05-29T09:52:46Z</time>
      </trkpt>
      <trkpt lat="45.97252" lon="4.78273">
        <ele>232</ele>
        <time>2018-05-29T09:52:47Z</time>
      </trkpt>
      <trkpt lat="45.97248" lon="4.78266">
        <ele>231</ele>
        <time>2018-05-29T09:52:48Z</time>
      </trkpt>
      <trkpt lat="45.97244" lon="4.7826">
        <ele>231</ele>
        <time>2018-05-29T09:52:49Z</time>
      </trkpt>
      <trkpt lat="45.97239" lon="4.78254">
        <ele>231</ele>
        <time>2018-05-29T09:52:50Z</time>
      </trkpt>
      <trkpt lat="45.97235" lon="4.78247">
        <ele>231</ele>
        <time>2018-05-29T09:52:51Z</time>
      </trkpt>
      <trkpt lat="45.97231" lon="4.7824">
        <ele>231</ele>
        <time>2018-05-29T09:52:52Z</time>
      </trkpt>
      <trkpt lat="45.97227" lon="4.78234">
        <ele>231</ele>
        <time>2018-05-29T09:52:53Z</time>
      </trkpt>
      <trkpt lat="45.97222" lon="4.78228">
        <ele>231</ele>
        <time>2018-05-29T09:52:54Z</time>
      </trkpt>
      <trkpt lat="45.97219" lon="4.78221">
        <ele>231</ele>
        <time>2018-05-29T09:52:55Z</time>
      </trkpt>
      <trkpt lat="45.97216" lon="4.78215">
        <ele>231</ele>
        <time>2018-05-29T09:52:56Z</time>
      </trkpt>
      <trkpt lat="45.97213" lon="4.78209">
        <ele>231</ele>
        <time>2018-05-29T09:52:57Z</time>
      </trkpt>
      <trkpt lat="45.97209" lon="4.78204">
        <ele>231</ele>
        <time>2018-05-29T09:52:58Z</time>
      </trkpt>
      <trkpt lat="45.97204" lon="4.78199">
        <ele>231</ele>
        <time>2018-05-29T09:52:59Z</time>
      </trkpt>
      <trkpt lat="45.97201" lon="4.78193">
        <ele>231</ele>
        <time>2018-05-29T09:53:00Z</time>
      </trkpt>
      <trkpt lat="45.97197" lon="4.78186">
        <ele>231</ele>
        <time>2018-05-29T09:53:01Z</time>
      </trkpt>
      <trkpt lat="45.97194" lon="4.7818">
        <ele>231</ele>
        <time>2018-05-29T09:53:02Z</time>
      </trkpt>
      <trkpt lat="45.97191" lon="4.78173">
        <ele>231</ele>
        <time>2018-05-29T09:53:03Z</time>
      </trkpt>
      <trkpt lat="45.97188" lon="4.78166">
        <ele>231</ele>
        <time>2018-05-29T09:53:04Z</time>
      </trkpt>
      <trkpt lat="45.97185" lon="4.78161">
        <ele>231</ele>
        <time>2018-05-29T09:53:05Z</time>
      </trkpt>
      <trkpt lat="45.97182" lon="4.78155">
        <ele>231</ele>
        <time>2018-05-29T09:53:06Z</time>
      </trkpt>
      <trkpt lat="45.97179" lon="4.78148">
        <ele>231</ele>
        <time>2018-05-29T09:53:07Z</time>
      </trkpt>
      <trkpt lat="45.97176" lon="4.78143">
        <ele>231</ele>
        <time>2018-05-29T09:53:08Z</time>
      </trkpt>
      <trkpt lat="45.97173" lon="4.78137">
        <ele>231</ele>
        <time>2018-05-29T09:53:09Z</time>
      </trkpt>
      <trkpt lat="45.9717" lon="4.78131">
        <ele>231</ele>
        <time>2018-05-29T09:53:10Z</time>
      </trkpt>
      <trkpt lat="45.97166" lon="4.78125">
        <ele>230</ele>
        <time>2018-05-29T09:53:11Z</time>
      </trkpt>
      <trkpt lat="45.97163" lon="4.7812">
        <ele>230</ele>
        <time>2018-05-29T09:53:12Z</time>
      </trkpt>
      <trkpt lat="45.9716" lon="4.78113">
        <ele>230</ele>
        <time>2018-05-29T09:53:13Z</time>
      </trkpt>
      <trkpt lat="45.97157" lon="4.78107">
        <ele>230</ele>
        <time>2018-05-29T09:53:14Z</time>
      </trkpt>
      <trkpt lat="45.97154" lon="4.781">
        <ele>230</ele>
        <time>2018-05-29T09:53:15Z</time>
      </trkpt>
      <trkpt lat="45.97151" lon="4.78093">
        <ele>230</ele>
        <time>2018-05-29T09:53:16Z</time>
      </trkpt>
      <trkpt lat="45.97146" lon="4.78087">
        <ele>230</ele>
        <time>2018-05-29T09:53:17Z</time>
      </trkpt>
      <trkpt lat="45.97142" lon="4.78081">
        <ele>230</ele>
        <time>2018-05-29T09:53:18Z</time>
      </trkpt>
      <trkpt lat="45.97139" lon="4.78075">
        <ele>230</ele>
        <time>2018-05-29T09:53:19Z</time>
      </trkpt>
      <trkpt lat="45.97135" lon="4.78069">
        <ele>230</ele>
        <time>2018-05-29T09:53:20Z</time>
      </trkpt>
      <trkpt lat="45.97131" lon="4.78063">
        <ele>230</ele>
        <time>2018-05-29T09:53:21Z</time>
      </trkpt>
      <trkpt lat="45.97126" lon="4.78058">
        <ele>230</ele>
        <time>2018-05-29T09:53:22Z</time>
      </trkpt>
      <trkpt lat="45.97122" lon="4.78053">
        <ele>229</ele>
        <time>2018-05-29T09:53:23Z</time>
      </trkpt>
      <trkpt lat="45.97117" lon="4.78048">
        <ele>229</ele>
        <time>2018-05-29T09:53:24Z</time>
      </trkpt>
      <trkpt lat="45.97111" lon="4.78044">
        <ele>229</ele>
        <time>2018-05-29T09:53:25Z</time>
      </trkpt>
      <trkpt lat="45.97106" lon="4.78039">
        <ele>229</ele>
        <time>2018-05-29T09:53:26Z</time>
      </trkpt>
      <trkpt lat="45.97102" lon="4.78035">
        <ele>229</ele>
        <time>2018-05-29T09:53:27Z</time>
      </trkpt>
      <trkpt lat="45.97097" lon="4.78031">
        <ele>229</ele>
        <time>2018-05-29T09:53:28Z</time>
      </trkpt>
      <trkpt lat="45.97091" lon="4.78026">
        <ele>229</ele>
        <time>2018-05-29T09:53:29Z</time>
      </trkpt>
      <trkpt lat="45.97087" lon="4.78022">
        <ele>229</ele>
        <time>2018-05-29T09:53:30Z</time>
      </trkpt>
      <trkpt lat="45.97082" lon="4.78018">
        <ele>229</ele>
        <time>2018-05-29T09:53:31Z</time>
      </trkpt>
      <trkpt lat="45.97077" lon="4.78014">
        <ele>229</ele>
        <time>2018-05-29T09:53:32Z</time>
      </trkpt>
      <trkpt lat="45.97073" lon="4.78009">
        <ele>229</ele>
        <time>2018-05-29T09:53:33Z</time>
      </trkpt>
      <trkpt lat="45.97068" lon="4.78004">
        <ele>229</ele>
        <time>2018-05-29T09:53:34Z</time>
      </trkpt>
      <trkpt lat="45.97064" lon="4.77998">
        <ele>229</ele>
        <time>2018-05-29T09:53:35Z</time>
      </trkpt>
      <trkpt lat="45.97059" lon="4.77993">
        <ele>229</ele>
        <time>2018-05-29T09:53:36Z</time>
      </trkpt>
      <trkpt lat="45.97054" lon="4.77988">
        <ele>229</ele>
        <time>2018-05-29T09:53:37Z</time>
      </trkpt>
      <trkpt lat="45.97049" lon="4.77982">
        <ele>229</ele>
        <time>2018-05-29T09:53:38Z</time>
      </trkpt>
      <trkpt lat="45.97045" lon="4.77977">
        <ele>229</ele>
        <time>2018-05-29T09:53:39Z</time>
      </trkpt>
      <trkpt lat="45.9704" lon="4.77972">
        <ele>229</ele>
        <time>2018-05-29T09:53:40Z</time>
      </trkpt>
      <trkpt lat="45.97035" lon="4.77967">
        <ele>229</ele>
        <time>2018-05-29T09:53:41Z</time>
      </trkpt>
      <trkpt lat="45.97031" lon="4.77961">
        <ele>228</ele>
        <time>2018-05-29T09:53:42Z</time>
      </trkpt>
      <trkpt lat="45.97026" lon="4.77956">
        <ele>228</ele>
        <time>2018-05-29T09:53:43Z</time>
      </trkpt>
      <trkpt lat="45.97021" lon="4.7795">
        <ele>228</ele>
        <time>2018-05-29T09:53:44Z</time>
      </trkpt>
      <trkpt lat="45.97017" lon="4.77945">
        <ele>228</ele>
        <time>2018-05-29T09:53:45Z</time>
      </trkpt>
      <trkpt lat="45.97014" lon="4.7794">
        <ele>228</ele>
        <time>2018-05-29T09:53:46Z</time>
      </trkpt>
      <trkpt lat="45.9701" lon="4.77936">
        <ele>228</ele>
        <time>2018-05-29T09:53:47Z</time>
      </trkpt>
      <trkpt lat="45.97006" lon="4.7793">
        <ele>228</ele>
        <time>2018-05-29T09:53:48Z</time>
      </trkpt>
      <trkpt lat="45.97002" lon="4.77926">
        <ele>228</ele>
        <time>2018-05-29T09:53:49Z</time>
      </trkpt>
      <trkpt lat="45.96998" lon="4.77921">
        <ele>227</ele>
        <time>2018-05-29T09:53:50Z</time>
      </trkpt>
      <trkpt lat="45.96993" lon="4.77916">
        <ele>227</ele>
        <time>2018-05-29T09:53:51Z</time>
      </trkpt>
      <trkpt lat="45.96989" lon="4.7791">
        <ele>227</ele>
        <time>2018-05-29T09:53:52Z</time>
      </trkpt>
      <trkpt lat="45.96984" lon="4.77905">
        <ele>227</ele>
        <time>2018-05-29T09:53:53Z</time>
      </trkpt>
      <trkpt lat="45.96979" lon="4.77899">
        <ele>228</ele>
        <time>2018-05-29T09:53:54Z</time>
      </trkpt>
      <trkpt lat="45.96974" lon="4.77893">
        <ele>228</ele>
        <time>2018-05-29T09:53:55Z</time>
      </trkpt>
      <trkpt lat="45.9697" lon="4.77887">
        <ele>228</ele>
        <time>2018-05-29T09:53:56Z</time>
      </trkpt>
      <trkpt lat="45.96966" lon="4.77882">
        <ele>228</ele>
        <time>2018-05-29T09:53:57Z</time>
      </trkpt>
      <trkpt lat="45.96962" lon="4.77877">
        <ele>228</ele>
        <time>2018-05-29T09:53:58Z</time>
      </trkpt>
      <trkpt lat="45.96958" lon="4.77871">
        <ele>228</ele>
        <time>2018-05-29T09:53:59Z</time>
      </trkpt>
      <trkpt lat="45.96953" lon="4.77866">
        <ele>228</ele>
        <time>2018-05-29T09:54:00Z</time>
      </trkpt>
      <trkpt lat="45.96949" lon="4.77861">
        <ele>228</ele>
        <time>2018-05-29T09:54:01Z</time>
      </trkpt>
      <trkpt lat="45.96944" lon="4.77856">
        <ele>228</ele>
        <time>2018-05-29T09:54:02Z</time>
      </trkpt>
      <trkpt lat="45.9694" lon="4.77851">
        <ele>228</ele>
        <time>2018-05-29T09:54:03Z</time>
      </trkpt>
      <trkpt lat="45.96936" lon="4.77846">
        <ele>228</ele>
        <time>2018-05-29T09:54:04Z</time>
      </trkpt>
      <trkpt lat="45.96931" lon="4.77841">
        <ele>228</ele>
        <time>2018-05-29T09:54:05Z</time>
      </trkpt>
      <trkpt lat="45.96926" lon="4.77836">
        <ele>228</ele>
        <time>2018-05-29T09:54:06Z</time>
      </trkpt>
      <trkpt lat="45.96922" lon="4.77831">
        <ele>228</ele>
        <time>2018-05-29T09:54:07Z</time>
      </trkpt>
      <trkpt lat="45.96917" lon="4.77826">
        <ele>228</ele>
        <time>2018-05-29T09:54:08Z</time>
      </trkpt>
      <trkpt lat="45.96913" lon="4.77821">
        <ele>228</ele>
        <time>2018-05-29T09:54:09Z</time>
      </trkpt>
      <trkpt lat="45.96908" lon="4.77817">
        <ele>228</ele>
        <time>2018-05-29T09:54:10Z</time>
      </trkpt>
      <trkpt lat="45.96903" lon="4.77812">
        <ele>228</ele>
        <time>2018-05-29T09:54:11Z</time>
      </trkpt>
      <trkpt lat="45.96899" lon="4.77807">
        <ele>228</ele>
        <time>2018-05-29T09:54:12Z</time>
      </trkpt>
      <trkpt lat="45.96895" lon="4.77802">
        <ele>228</ele>
        <time>2018-05-29T09:54:13Z</time>
      </trkpt>
      <trkpt lat="45.9689" lon="4.77797">
        <ele>228</ele>
        <time>2018-05-29T09:54:14Z</time>
      </trkpt>
      <trkpt lat="45.96885" lon="4.77792">
        <ele>228</ele>
        <time>2018-05-29T09:54:15Z</time>
      </trkpt>
      <trkpt lat="45.9688" lon="4.77787">
        <ele>228</ele>
        <time>2018-05-29T09:54:16Z</time>
      </trkpt>
      <trkpt lat="45.96875" lon="4.77783">
        <ele>228</ele>
        <time>2018-05-29T09:54:17Z</time>
      </trkpt>
      <trkpt lat="45.9687" lon="4.77778">
        <ele>228</ele>
        <time>2018-05-29T09:54:18Z</time>
      </trkpt>
      <trkpt lat="45.96865" lon="4.77773">
        <ele>228</ele>
        <time>2018-05-29T09:54:19Z</time>
      </trkpt>
      <trkpt lat="45.9686" lon="4.77768">
        <ele>228</ele>
        <time>2018-05-29T09:54:20Z</time>
      </trkpt>
      <trkpt lat="45.96855" lon="4.77763">
        <ele>228</ele>
        <time>2018-05-29T09:54:21Z</time>
      </trkpt>
      <trkpt lat="45.96849" lon="4.77759">
        <ele>228</ele>
        <time>2018-05-29T09:54:22Z</time>
      </trkpt>
      <trkpt lat="45.96844" lon="4.77754">
        <ele>228</ele>
        <time>2018-05-29T09:54:23Z</time>
      </trkpt>
      <trkpt lat="45.9684" lon="4.77749">
        <ele>228</ele>
        <time>2018-05-29T09:54:24Z</time>
      </trkpt>
      <trkpt lat="45.96835" lon="4.77744">
        <ele>228</ele>
        <time>2018-05-29T09:54:25Z</time>
      </trkpt>
      <trkpt lat="45.9683" lon="4.77739">
        <ele>228</ele>
        <time>2018-05-29T09:54:26Z</time>
      </trkpt>
      <trkpt lat="45.96824" lon="4.77734">
        <ele>228</ele>
        <time>2018-05-29T09:54:27Z</time>
      </trkpt>
      <trkpt lat="45.96819" lon="4.77729">
        <ele>228</ele>
        <time>2018-05-29T09:54:28Z</time>
      </trkpt>
      <trkpt lat="45.96814" lon="4.77724">
        <ele>228</ele>
        <time>2018-05-29T09:54:29Z</time>
      </trkpt>
      <trkpt lat="45.96809" lon="4.77718">
        <ele>228</ele>
        <time>2018-05-29T09:54:30Z</time>
      </trkpt>
      <trkpt lat="45.96804" lon="4.77712">
        <ele>228</ele>
        <time>2018-05-29T09:54:31Z</time>
      </trkpt>
      <trkpt lat="45.968" lon="4.77709">
        <ele>228</ele>
        <time>2018-05-29T09:54:32Z</time>
      </trkpt>
      <trkpt lat="45.96796" lon="4.77703">
        <ele>228</ele>
        <time>2018-05-29T09:54:33Z</time>
      </trkpt>
      <trkpt lat="45.96792" lon="4.77697">
        <ele>228</ele>
        <time>2018-05-29T09:54:34Z</time>
      </trkpt>
      <trkpt lat="45.96787" lon="4.77692">
        <ele>227</ele>
        <time>2018-05-29T09:54:35Z</time>
      </trkpt>
      <trkpt lat="45.96782" lon="4.77686">
        <ele>227</ele>
        <time>2018-05-29T09:54:36Z</time>
      </trkpt>
      <trkpt lat="45.96776" lon="4.7768">
        <ele>227</ele>
        <time>2018-05-29T09:54:37Z</time>
      </trkpt>
      <trkpt lat="45.96771" lon="4.77675">
        <ele>227</ele>
        <time>2018-05-29T09:54:38Z</time>
      </trkpt>
      <trkpt lat="45.96765" lon="4.77671">
        <ele>227</ele>
        <time>2018-05-29T09:54:39Z</time>
      </trkpt>
      <trkpt lat="45.96762" lon="4.77664">
        <ele>227</ele>
        <time>2018-05-29T09:54:40Z</time>
      </trkpt>
      <trkpt lat="45.96757" lon="4.77658">
        <ele>227</ele>
        <time>2018-05-29T09:54:41Z</time>
      </trkpt>
      <trkpt lat="45.96752" lon="4.77653">
        <ele>227</ele>
        <time>2018-05-29T09:54:42Z</time>
      </trkpt>
      <trkpt lat="45.96747" lon="4.77648">
        <ele>227</ele>
        <time>2018-05-29T09:54:43Z</time>
      </trkpt>
      <trkpt lat="45.96743" lon="4.77643">
        <ele>227</ele>
        <time>2018-05-29T09:54:44Z</time>
      </trkpt>
      <trkpt lat="45.96739" lon="4.77637">
        <ele>227</ele>
        <time>2018-05-29T09:54:45Z</time>
      </trkpt>
      <trkpt lat="45.96735" lon="4.77632">
        <ele>226</ele>
        <time>2018-05-29T09:54:46Z</time>
      </trkpt>
      <trkpt lat="45.9673" lon="4.77627">
        <ele>226</ele>
        <time>2018-05-29T09:54:47Z</time>
      </trkpt>
      <trkpt lat="45.96726" lon="4.77621">
        <ele>226</ele>
        <time>2018-05-29T09:54:48Z</time>
      </trkpt>
      <trkpt lat="45.96722" lon="4.77616">
        <ele>226</ele>
        <time>2018-05-29T09:54:49Z</time>
      </trkpt>
      <trkpt lat="45.96717" lon="4.77611">
        <ele>226</ele>
        <time>2018-05-29T09:54:50Z</time>
      </trkpt>
      <trkpt lat="45.96712" lon="4.77606">
        <ele>226</ele>
        <time>2018-05-29T09:54:51Z</time>
      </trkpt>
      <trkpt lat="45.96707" lon="4.776">
        <ele>226</ele>
        <time>2018-05-29T09:54:52Z</time>
      </trkpt>
      <trkpt lat="45.96702" lon="4.77593">
        <ele>226</ele>
        <time>2018-05-29T09:54:53Z</time>
      </trkpt>
      <trkpt lat="45.96697" lon="4.77589">
        <ele>226</ele>
        <time>2018-05-29T09:54:54Z</time>
      </trkpt>
      <trkpt lat="45.96692" lon="4.77585">
        <ele>226</ele>
        <time>2018-05-29T09:54:55Z</time>
      </trkpt>
      <trkpt lat="45.96688" lon="4.77579">
        <ele>225</ele>
        <time>2018-05-29T09:54:56Z</time>
      </trkpt>
      <trkpt lat="45.96683" lon="4.77574">
        <ele>225</ele>
        <time>2018-05-29T09:54:57Z</time>
      </trkpt>
      <trkpt lat="45.96678" lon="4.7757">
        <ele>225</ele>
        <time>2018-05-29T09:54:58Z</time>
      </trkpt>
      <trkpt lat="45.96674" lon="4.77565">
        <ele>225</ele>
        <time>2018-05-29T09:54:59Z</time>
      </trkpt>
      <trkpt lat="45.96669" lon="4.77561">
        <ele>225</ele>
        <time>2018-05-29T09:55:00Z</time>
      </trkpt>
      <trkpt lat="45.96664" lon="4.77556">
        <ele>224</ele>
        <time>2018-05-29T09:55:01Z</time>
      </trkpt>
      <trkpt lat="45.96659" lon="4.77553">
        <ele>224</ele>
        <time>2018-05-29T09:55:02Z</time>
      </trkpt>
      <trkpt lat="45.96652" lon="4.7755">
        <ele>224</ele>
        <time>2018-05-29T09:55:03Z</time>
      </trkpt>
      <trkpt lat="45.96647" lon="4.77546">
        <ele>224</ele>
        <time>2018-05-29T09:55:04Z</time>
      </trkpt>
      <trkpt lat="45.96642" lon="4.77543">
        <ele>224</ele>
        <time>2018-05-29T09:55:05Z</time>
      </trkpt>
      <trkpt lat="45.96637" lon="4.77539">
        <ele>224</ele>
        <time>2018-05-29T09:55:06Z</time>
      </trkpt>
      <trkpt lat="45.96632" lon="4.77536">
        <ele>224</ele>
        <time>2018-05-29T09:55:07Z</time>
      </trkpt>
      <trkpt lat="45.96628" lon="4.77533">
        <ele>224</ele>
        <time>2018-05-29T09:55:08Z</time>
      </trkpt>
      <trkpt lat="45.96623" lon="4.77529">
        <ele>224</ele>
        <time>2018-05-29T09:55:09Z</time>
      </trkpt>
      <trkpt lat="45.96617" lon="4.77525">
        <ele>224</ele>
        <time>2018-05-29T09:55:10Z</time>
      </trkpt>
      <trkpt lat="45.96613" lon="4.77522">
        <ele>224</ele>
        <time>2018-05-29T09:55:11Z</time>
      </trkpt>
      <trkpt lat="45.96608" lon="4.77519">
        <ele>224</ele>
        <time>2018-05-29T09:55:12Z</time>
      </trkpt>
      <trkpt lat="45.96604" lon="4.77515">
        <ele>224</ele>
        <time>2018-05-29T09:55:13Z</time>
      </trkpt>
      <trkpt lat="45.96599" lon="4.77512">
        <ele>224</ele>
        <time>2018-05-29T09:55:14Z</time>
      </trkpt>
      <trkpt lat="45.96594" lon="4.77509">
        <ele>224</ele>
        <time>2018-05-29T09:55:15Z</time>
      </trkpt>
      <trkpt lat="45.96589" lon="4.77505">
        <ele>224</ele>
        <time>2018-05-29T09:55:16Z</time>
      </trkpt>
      <trkpt lat="45.96584" lon="4.77502">
        <ele>224</ele>
        <time>2018-05-29T09:55:17Z</time>
      </trkpt>
      <trkpt lat="45.96579" lon="4.77499">
        <ele>224</ele>
        <time>2018-05-29T09:55:18Z</time>
      </trkpt>
      <trkpt lat="45.96574" lon="4.77496">
        <ele>224</ele>
        <time>2018-05-29T09:55:19Z</time>
      </trkpt>
      <trkpt lat="45.96568" lon="4.77492">
        <ele>224</ele>
        <time>2018-05-29T09:55:20Z</time>
      </trkpt>
      <trkpt lat="45.96563" lon="4.77488">
        <ele>224</ele>
        <time>2018-05-29T09:55:21Z</time>
      </trkpt>
      <trkpt lat="45.96557" lon="4.77484">
        <ele>224</ele>
        <time>2018-05-29T09:55:22Z</time>
      </trkpt>
      <trkpt lat="45.96552" lon="4.77479">
        <ele>223</ele>
        <time>2018-05-29T09:55:23Z</time>
      </trkpt>
      <trkpt lat="45.96547" lon="4.77476">
        <ele>223</ele>
        <time>2018-05-29T09:55:24Z</time>
      </trkpt>
      <trkpt lat="45.96543" lon="4.77473">
        <ele>223</ele>
        <time>2018-05-29T09:55:25Z</time>
      </trkpt>
      <trkpt lat="45.96537" lon="4.7747">
        <ele>223</ele>
        <time>2018-05-29T09:55:26Z</time>
      </trkpt>
      <trkpt lat="45.96532" lon="4.77467">
        <ele>223</ele>
        <time>2018-05-29T09:55:27Z</time>
      </trkpt>
      <trkpt lat="45.96528" lon="4.77464">
        <ele>223</ele>
        <time>2018-05-29T09:55:28Z</time>
      </trkpt>
      <trkpt lat="45.96521" lon="4.7746">
        <ele>223</ele>
        <time>2018-05-29T09:55:29Z</time>
      </trkpt>
      <trkpt lat="45.96516" lon="4.77456">
        <ele>223</ele>
        <time>2018-05-29T09:55:30Z</time>
      </trkpt>
      <trkpt lat="45.96511" lon="4.77452">
        <ele>223</ele>
        <time>2018-05-29T09:55:31Z</time>
      </trkpt>
      <trkpt lat="45.96505" lon="4.77447">
        <ele>223</ele>
        <time>2018-05-29T09:55:32Z</time>
      </trkpt>
      <trkpt lat="45.96499" lon="4.77443">
        <ele>222</ele>
        <time>2018-05-29T09:55:33Z</time>
      </trkpt>
      <trkpt lat="45.96493" lon="4.7744">
        <ele>222</ele>
        <time>2018-05-29T09:55:34Z</time>
      </trkpt>
      <trkpt lat="45.96486" lon="4.77436">
        <ele>222</ele>
        <time>2018-05-29T09:55:35Z</time>
      </trkpt>
      <trkpt lat="45.9648" lon="4.77432">
        <ele>222</ele>
        <time>2018-05-29T09:55:36Z</time>
      </trkpt>
      <trkpt lat="45.96473" lon="4.77429">
        <ele>221</ele>
        <time>2018-05-29T09:55:37Z</time>
      </trkpt>
      <trkpt lat="45.96467" lon="4.77424">
        <ele>221</ele>
        <time>2018-05-29T09:55:38Z</time>
      </trkpt>
      <trkpt lat="45.96461" lon="4.7742">
        <ele>221</ele>
        <time>2018-05-29T09:55:39Z</time>
      </trkpt>
      <trkpt lat="45.96455" lon="4.77416">
        <ele>222</ele>
        <time>2018-05-29T09:55:40Z</time>
      </trkpt>
      <trkpt lat="45.96448" lon="4.77413">
        <ele>222</ele>
        <time>2018-05-29T09:55:41Z</time>
      </trkpt>
      <trkpt lat="45.96443" lon="4.77408">
        <ele>222</ele>
        <time>2018-05-29T09:55:42Z</time>
      </trkpt>
      <trkpt lat="45.96436" lon="4.77404">
        <ele>222</ele>
        <time>2018-05-29T09:55:43Z</time>
      </trkpt>
      <trkpt lat="45.96431" lon="4.774">
        <ele>222</ele>
        <time>2018-05-29T09:55:44Z</time>
      </trkpt>
      <trkpt lat="45.96425" lon="4.77397">
        <ele>222</ele>
        <time>2018-05-29T09:55:45Z</time>
      </trkpt>
      <trkpt lat="45.9642" lon="4.77394">
        <ele>222</ele>
        <time>2018-05-29T09:55:46Z</time>
      </trkpt>
      <trkpt lat="45.96413" lon="4.77389">
        <ele>220</ele>
        <time>2018-05-29T09:55:47Z</time>
      </trkpt>
      <trkpt lat="45.96408" lon="4.77388">
        <ele>220</ele>
        <time>2018-05-29T09:55:48Z</time>
      </trkpt>
      <trkpt lat="45.96401" lon="4.77384">
        <ele>220</ele>
        <time>2018-05-29T09:55:49Z</time>
      </trkpt>
      <trkpt lat="45.96396" lon="4.77379">
        <ele>220</ele>
        <time>2018-05-29T09:55:50Z</time>
      </trkpt>
      <trkpt lat="45.9639" lon="4.77376">
        <ele>220</ele>
        <time>2018-05-29T09:55:51Z</time>
      </trkpt>
      <trkpt lat="45.96385" lon="4.77375">
        <ele>220</ele>
        <time>2018-05-29T09:55:52Z</time>
      </trkpt>
      <trkpt lat="45.96379" lon="4.77372">
        <ele>220</ele>
        <time>2018-05-29T09:55:53Z</time>
      </trkpt>
      <trkpt lat="45.96374" lon="4.77369">
        <ele>220</ele>
        <time>2018-05-29T09:55:54Z</time>
      </trkpt>
      <trkpt lat="45.96368" lon="4.77366">
        <ele>220</ele>
        <time>2018-05-29T09:55:55Z</time>
      </trkpt>
      <trkpt lat="45.96359" lon="4.77362">
        <ele>219</ele>
        <time>2018-05-29T09:55:56Z</time>
      </trkpt>
      <trkpt lat="45.96353" lon="4.77358">
        <ele>219</ele>
        <time>2018-05-29T09:55:57Z</time>
      </trkpt>
      <trkpt lat="45.96347" lon="4.77357">
        <ele>219</ele>
        <time>2018-05-29T09:55:58Z</time>
      </trkpt>
      <trkpt lat="45.96341" lon="4.77354">
        <ele>219</ele>
        <time>2018-05-29T09:55:59Z</time>
      </trkpt>
      <trkpt lat="45.96334" lon="4.7735">
        <ele>220</ele>
        <time>2018-05-29T09:56:00Z</time>
      </trkpt>
      <trkpt lat="45.96328" lon="4.77346">
        <ele>218</ele>
        <time>2018-05-29T09:56:01Z</time>
      </trkpt>
      <trkpt lat="45.96321" lon="4.77342">
        <ele>218</ele>
        <time>2018-05-29T09:56:02Z</time>
      </trkpt>
      <trkpt lat="45.96314" lon="4.77339">
        <ele>218</ele>
        <time>2018-05-29T09:56:03Z</time>
      </trkpt>
      <trkpt lat="45.96309" lon="4.77335">
        <ele>217</ele>
        <time>2018-05-29T09:56:04Z</time>
      </trkpt>
      <trkpt lat="45.96302" lon="4.77331">
        <ele>219</ele>
        <time>2018-05-29T09:56:05Z</time>
      </trkpt>
      <trkpt lat="45.96296" lon="4.77328">
        <ele>219</ele>
        <time>2018-05-29T09:56:06Z</time>
      </trkpt>
      <trkpt lat="45.9629" lon="4.77324">
        <ele>219</ele>
        <time>2018-05-29T09:56:07Z</time>
      </trkpt>
      <trkpt lat="45.96283" lon="4.7732">
        <ele>219</ele>
        <time>2018-05-29T09:56:08Z</time>
      </trkpt>
      <trkpt lat="45.96277" lon="4.77317">
        <ele>219</ele>
        <time>2018-05-29T09:56:09Z</time>
      </trkpt>
      <trkpt lat="45.96271" lon="4.77313">
        <ele>219</ele>
        <time>2018-05-29T09:56:10Z</time>
      </trkpt>
      <trkpt lat="45.96265" lon="4.7731">
        <ele>218</ele>
        <time>2018-05-29T09:56:11Z</time>
      </trkpt>
      <trkpt lat="45.96259" lon="4.77307">
        <ele>219</ele>
        <time>2018-05-29T09:56:12Z</time>
      </trkpt>
      <trkpt lat="45.96253" lon="4.77303">
        <ele>219</ele>
        <time>2018-05-29T09:56:13Z</time>
      </trkpt>
      <trkpt lat="45.96247" lon="4.773">
        <ele>217</ele>
        <time>2018-05-29T09:56:14Z</time>
      </trkpt>
      <trkpt lat="45.96242" lon="4.77296">
        <ele>217</ele>
        <time>2018-05-29T09:56:15Z</time>
      </trkpt>
      <trkpt lat="45.96235" lon="4.77293">
        <ele>217</ele>
        <time>2018-05-29T09:56:16Z</time>
      </trkpt>
      <trkpt lat="45.9623" lon="4.77289">
        <ele>217</ele>
        <time>2018-05-29T09:56:17Z</time>
      </trkpt>
      <trkpt lat="45.96224" lon="4.77285">
        <ele>217</ele>
        <time>2018-05-29T09:56:18Z</time>
      </trkpt>
      <trkpt lat="45.96219" lon="4.77282">
        <ele>217</ele>
        <time>2018-05-29T09:56:19Z</time>
      </trkpt>
      <trkpt lat="45.96213" lon="4.77277">
        <ele>217</ele>
        <time>2018-05-29T09:56:20Z</time>
      </trkpt>
      <trkpt lat="45.96207" lon="4.77274">
        <ele>217</ele>
        <time>2018-05-29T09:56:21Z</time>
      </trkpt>
      <trkpt lat="45.96201" lon="4.77271">
        <ele>217</ele>
        <time>2018-05-29T09:56:22Z</time>
      </trkpt>
      <trkpt lat="45.96195" lon="4.77268">
        <ele>216</ele>
        <time>2018-05-29T09:56:23Z</time>
      </trkpt>
      <trkpt lat="45.9619" lon="4.77265">
        <ele>216</ele>
        <time>2018-05-29T09:56:24Z</time>
      </trkpt>
      <trkpt lat="45.96183" lon="4.77261">
        <ele>216</ele>
        <time>2018-05-29T09:56:25Z</time>
      </trkpt>
      <trkpt lat="45.96179" lon="4.7726">
        <ele>216</ele>
        <time>2018-05-29T09:56:26Z</time>
      </trkpt>
      <trkpt lat="45.96172" lon="4.77257">
        <ele>216</ele>
        <time>2018-05-29T09:56:27Z</time>
      </trkpt>
      <trkpt lat="45.96166" lon="4.77254">
        <ele>215</ele>
        <time>2018-05-29T09:56:28Z</time>
      </trkpt>
      <trkpt lat="45.96161" lon="4.7725">
        <ele>216</ele>
        <time>2018-05-29T09:56:29Z</time>
      </trkpt>
      <trkpt lat="45.96155" lon="4.77246">
        <ele>216</ele>
        <time>2018-05-29T09:56:30Z</time>
      </trkpt>
      <trkpt lat="45.9615" lon="4.77244">
        <ele>215</ele>
        <time>2018-05-29T09:56:31Z</time>
      </trkpt>
      <trkpt lat="45.96143" lon="4.77241">
        <ele>215</ele>
        <time>2018-05-29T09:56:32Z</time>
      </trkpt>
      <trkpt lat="45.96135" lon="4.7724">
        <ele>215</ele>
        <time>2018-05-29T09:56:33Z</time>
      </trkpt>
      <trkpt lat="45.9613" lon="4.77239">
        <ele>215</ele>
        <time>2018-05-29T09:56:34Z</time>
      </trkpt>
      <trkpt lat="45.96124" lon="4.7724">
        <ele>214</ele>
        <time>2018-05-29T09:56:35Z</time>
      </trkpt>
      <trkpt lat="45.96117" lon="4.77239">
        <ele>214</ele>
        <time>2018-05-29T09:56:36Z</time>
      </trkpt>
      <trkpt lat="45.96111" lon="4.77239">
        <ele>214</ele>
        <time>2018-05-29T09:56:37Z</time>
      </trkpt>
      <trkpt lat="45.96103" lon="4.77239">
        <ele>213</ele>
        <time>2018-05-29T09:56:38Z</time>
      </trkpt>
      <trkpt lat="45.96096" lon="4.7724">
        <ele>212</ele>
        <time>2018-05-29T09:56:39Z</time>
      </trkpt>
      <trkpt lat="45.9609" lon="4.77242">
        <ele>212</ele>
        <time>2018-05-29T09:56:40Z</time>
      </trkpt>
      <trkpt lat="45.96083" lon="4.77243">
        <ele>210</ele>
        <time>2018-05-29T09:56:41Z</time>
      </trkpt>
      <trkpt lat="45.96077" lon="4.77242">
        <ele>210</ele>
        <time>2018-05-29T09:56:42Z</time>
      </trkpt>
      <trkpt lat="45.9607" lon="4.77243">
        <ele>210</ele>
        <time>2018-05-29T09:56:43Z</time>
      </trkpt>
      <trkpt lat="45.96063" lon="4.77244">
        <ele>209</ele>
        <time>2018-05-29T09:56:44Z</time>
      </trkpt>
      <trkpt lat="45.96058" lon="4.77243">
        <ele>209</ele>
        <time>2018-05-29T09:56:45Z</time>
      </trkpt>
      <trkpt lat="45.96052" lon="4.77243">
        <ele>209</ele>
        <time>2018-05-29T09:56:46Z</time>
      </trkpt>
      <trkpt lat="45.96046" lon="4.77241">
        <ele>209</ele>
        <time>2018-05-29T09:56:47Z</time>
      </trkpt>
      <trkpt lat="45.96039" lon="4.77242">
        <ele>208</ele>
        <time>2018-05-29T09:56:48Z</time>
      </trkpt>
      <trkpt lat="45.96031" lon="4.77242">
        <ele>208</ele>
        <time>2018-05-29T09:56:49Z</time>
      </trkpt>
      <trkpt lat="45.96025" lon="4.77242">
        <ele>207</ele>
        <time>2018-05-29T09:56:50Z</time>
      </trkpt>
      <trkpt lat="45.96017" lon="4.77242">
        <ele>206</ele>
        <time>2018-05-29T09:56:51Z</time>
      </trkpt>
      <trkpt lat="45.9601" lon="4.77242">
        <ele>206</ele>
        <time>2018-05-29T09:56:52Z</time>
      </trkpt>
      <trkpt lat="45.96" lon="4.77241">
        <ele>203</ele>
        <time>2018-05-29T09:56:53Z</time>
      </trkpt>
      <trkpt lat="45.95992" lon="4.77238">
        <ele>202</ele>
        <time>2018-05-29T09:56:54Z</time>
      </trkpt>
      <trkpt lat="45.95985" lon="4.77236">
        <ele>202</ele>
        <time>2018-05-29T09:56:55Z</time>
      </trkpt>
      <trkpt lat="45.95978" lon="4.77233">
        <ele>202</ele>
        <time>2018-05-29T09:56:56Z</time>
      </trkpt>
      <trkpt lat="45.95971" lon="4.77227">
        <ele>202</ele>
        <time>2018-05-29T09:56:57Z</time>
      </trkpt>
      <trkpt lat="45.95964" lon="4.7722">
        <ele>201</ele>
        <time>2018-05-29T09:56:58Z</time>
      </trkpt>
      <trkpt lat="45.95959" lon="4.77211">
        <ele>201</ele>
        <time>2018-05-29T09:56:59Z</time>
      </trkpt>
      <trkpt lat="45.95955" lon="4.77201">
        <ele>201</ele>
        <time>2018-05-29T09:57:00Z</time>
      </trkpt>
      <trkpt lat="45.9595" lon="4.77191">
        <ele>201</ele>
        <time>2018-05-29T09:57:01Z</time>
      </trkpt>
      <trkpt lat="45.95948" lon="4.7718">
        <ele>201</ele>
        <time>2018-05-29T09:57:02Z</time>
      </trkpt>
      <trkpt lat="45.95945" lon="4.77168">
        <ele>200</ele>
        <time>2018-05-29T09:57:03Z</time>
      </trkpt>
      <trkpt lat="45.95944" lon="4.77156">
        <ele>201</ele>
        <time>2018-05-29T09:57:04Z</time>
      </trkpt>
      <trkpt lat="45.95942" lon="4.77144">
        <ele>201</ele>
        <time>2018-05-29T09:57:05Z</time>
      </trkpt>
      <trkpt lat="45.95942" lon="4.77131">
        <ele>201</ele>
        <time>2018-05-29T09:57:06Z</time>
      </trkpt>
      <trkpt lat="45.95942" lon="4.77119">
        <ele>201</ele>
        <time>2018-05-29T09:57:07Z</time>
      </trkpt>
      <trkpt lat="45.95944" lon="4.77108">
        <ele>201</ele>
        <time>2018-05-29T09:57:08Z</time>
      </trkpt>
      <trkpt lat="45.95946" lon="4.77096">
        <ele>201</ele>
        <time>2018-05-29T09:57:09Z</time>
      </trkpt>
      <trkpt lat="45.95947" lon="4.77084">
        <ele>201</ele>
        <time>2018-05-29T09:57:10Z</time>
      </trkpt>
      <trkpt lat="45.9595" lon="4.77072">
        <ele>200</ele>
        <time>2018-05-29T09:57:11Z</time>
      </trkpt>
      <trkpt lat="45.95953" lon="4.7706">
        <ele>200</ele>
        <time>2018-05-29T09:57:12Z</time>
      </trkpt>
      <trkpt lat="45.95957" lon="4.77049">
        <ele>200</ele>
        <time>2018-05-29T09:57:13Z</time>
      </trkpt>
      <trkpt lat="45.95961" lon="4.77038">
        <ele>200</ele>
        <time>2018-05-29T09:57:14Z</time>
      </trkpt>
      <trkpt lat="45.95964" lon="4.77029">
        <ele>200</ele>
        <time>2018-05-29T09:57:15Z</time>
      </trkpt>
      <trkpt lat="45.95968" lon="4.77018">
        <ele>200</ele>
        <time>2018-05-29T09:57:16Z</time>
      </trkpt>
      <trkpt lat="45.95973" lon="4.77007">
        <ele>200</ele>
        <time>2018-05-29T09:57:17Z</time>
      </trkpt>
      <trkpt lat="45.95977" lon="4.76995">
        <ele>198</ele>
        <time>2018-05-29T09:57:18Z</time>
      </trkpt>
      <trkpt lat="45.9598" lon="4.76983">
        <ele>197</ele>
        <time>2018-05-29T09:57:19Z</time>
      </trkpt>
      <trkpt lat="45.95981" lon="4.76969">
        <ele>197</ele>
        <time>2018-05-29T09:57:20Z</time>
      </trkpt>
      <trkpt lat="45.9598" lon="4.76956">
        <ele>196</ele>
        <time>2018-05-29T09:57:21Z</time>
      </trkpt>
      <trkpt lat="45.95976" lon="4.76942">
        <ele>196</ele>
        <time>2018-05-29T09:57:22Z</time>
      </trkpt>
      <trkpt lat="45.95969" lon="4.76931">
        <ele>195</ele>
        <time>2018-05-29T09:57:23Z</time>
      </trkpt>
      <trkpt lat="45.95961" lon="4.76921">
        <ele>195</ele>
        <time>2018-05-29T09:57:24Z</time>
      </trkpt>
      <trkpt lat="45.95953" lon="4.76912">
        <ele>193</ele>
        <time>2018-05-29T09:57:25Z</time>
      </trkpt>
      <trkpt lat="45.95945" lon="4.76903">
        <ele>192</ele>
        <time>2018-05-29T09:57:26Z</time>
      </trkpt>
      <trkpt lat="45.95937" lon="4.76896">
        <ele>192</ele>
        <time>2018-05-29T09:57:27Z</time>
      </trkpt>
      <trkpt lat="45.9593" lon="4.76887">
        <ele>192</ele>
        <time>2018-05-29T09:57:28Z</time>
      </trkpt>
      <trkpt lat="45.95922" lon="4.76878">
        <ele>192</ele>
        <time>2018-05-29T09:57:29Z</time>
      </trkpt>
      <trkpt lat="45.95914" lon="4.76869">
        <ele>191</ele>
        <time>2018-05-29T09:57:30Z</time>
      </trkpt>
      <trkpt lat="45.95907" lon="4.76861">
        <ele>191</ele>
        <time>2018-05-29T09:57:31Z</time>
      </trkpt>
      <trkpt lat="45.95899" lon="4.76853">
        <ele>191</ele>
        <time>2018-05-29T09:57:32Z</time>
      </trkpt>
      <trkpt lat="45.95892" lon="4.76845">
        <ele>191</ele>
        <time>2018-05-29T09:57:33Z</time>
      </trkpt>
      <trkpt lat="45.95886" lon="4.76838">
        <ele>191</ele>
        <time>2018-05-29T09:57:34Z</time>
      </trkpt>
      <trkpt lat="45.95879" lon="4.76831">
        <ele>191</ele>
        <time>2018-05-29T09:57:35Z</time>
      </trkpt>
      <trkpt lat="45.95872" lon="4.76824">
        <ele>191</ele>
        <time>2018-05-29T09:57:36Z</time>
      </trkpt>
      <trkpt lat="45.95865" lon="4.76816">
        <ele>191</ele>
        <time>2018-05-29T09:57:37Z</time>
      </trkpt>
      <trkpt lat="45.95858" lon="4.76809">
        <ele>191</ele>
        <time>2018-05-29T09:57:38Z</time>
      </trkpt>
      <trkpt lat="45.95852" lon="4.76802">
        <ele>191</ele>
        <time>2018-05-29T09:57:39Z</time>
      </trkpt>
      <trkpt lat="45.95845" lon="4.76796">
        <ele>191</ele>
        <time>2018-05-29T09:57:40Z</time>
      </trkpt>
      <trkpt lat="45.9584" lon="4.76789">
        <ele>191</ele>
        <time>2018-05-29T09:57:41Z</time>
      </trkpt>
      <trkpt lat="45.95835" lon="4.76782">
        <ele>191</ele>
        <time>2018-05-29T09:57:42Z</time>
      </trkpt>
      <trkpt lat="45.95832" lon="4.76774">
        <ele>190</ele>
        <time>2018-05-29T09:57:43Z</time>
      </trkpt>
      <trkpt lat="45.95829" lon="4.76764">
        <ele>190</ele>
        <time>2018-05-29T09:57:44Z</time>
      </trkpt>
      <trkpt lat="45.95826" lon="4.76756">
        <ele>191</ele>
        <time>2018-05-29T09:57:45Z</time>
      </trkpt>
      <trkpt lat="45.95824" lon="4.76746">
        <ele>190</ele>
        <time>2018-05-29T09:57:46Z</time>
      </trkpt>
      <trkpt lat="45.95819" lon="4.76736">
        <ele>190</ele>
        <time>2018-05-29T09:57:47Z</time>
      </trkpt>
      <trkpt lat="45.95817" lon="4.76725">
        <ele>190</ele>
        <time>2018-05-29T09:57:48Z</time>
      </trkpt>
      <trkpt lat="45.95816" lon="4.76714">
        <ele>189</ele>
        <time>2018-05-29T09:57:49Z</time>
      </trkpt>
      <trkpt lat="45.95814" lon="4.76704">
        <ele>189</ele>
        <time>2018-05-29T09:57:50Z</time>
      </trkpt>
      <trkpt lat="45.95813" lon="4.76693">
        <ele>189</ele>
        <time>2018-05-29T09:57:51Z</time>
      </trkpt>
      <trkpt lat="45.95812" lon="4.76683">
        <ele>189</ele>
        <time>2018-05-29T09:57:52Z</time>
      </trkpt>
      <trkpt lat="45.95811" lon="4.76674">
        <ele>189</ele>
        <time>2018-05-29T09:57:53Z</time>
      </trkpt>
      <trkpt lat="45.95809" lon="4.76664">
        <ele>188</ele>
        <time>2018-05-29T09:57:54Z</time>
      </trkpt>
      <trkpt lat="45.95808" lon="4.76654">
        <ele>188</ele>
        <time>2018-05-29T09:57:55Z</time>
      </trkpt>
      <trkpt lat="45.95807" lon="4.76644">
        <ele>188</ele>
        <time>2018-05-29T09:57:56Z</time>
      </trkpt>
      <trkpt lat="45.95805" lon="4.76635">
        <ele>188</ele>
        <time>2018-05-29T09:57:57Z</time>
      </trkpt>
      <trkpt lat="45.95804" lon="4.76625">
        <ele>188</ele>
        <time>2018-05-29T09:57:58Z</time>
      </trkpt>
      <trkpt lat="45.95803" lon="4.76617">
        <ele>188</ele>
        <time>2018-05-29T09:57:59Z</time>
      </trkpt>
      <trkpt lat="45.95802" lon="4.76608">
        <ele>188</ele>
        <time>2018-05-29T09:58:00Z</time>
      </trkpt>
      <trkpt lat="45.95802" lon="4.76599">
        <ele>187</ele>
        <time>2018-05-29T09:58:01Z</time>
      </trkpt>
      <trkpt lat="45.95801" lon="4.7659">
        <ele>187</ele>
        <time>2018-05-29T09:58:02Z</time>
      </trkpt>
      <trkpt lat="45.95801" lon="4.76582">
        <ele>187</ele>
        <time>2018-05-29T09:58:03Z</time>
      </trkpt>
      <trkpt lat="45.95799" lon="4.76573">
        <ele>187</ele>
        <time>2018-05-29T09:58:04Z</time>
      </trkpt>
      <trkpt lat="45.95797" lon="4.76564">
        <ele>187</ele>
        <time>2018-05-29T09:58:05Z</time>
      </trkpt>
      <trkpt lat="45.95796" lon="4.76554">
        <ele>187</ele>
        <time>2018-05-29T09:58:06Z</time>
      </trkpt>
      <trkpt lat="45.95796" lon="4.76545">
        <ele>187</ele>
        <time>2018-05-29T09:58:07Z</time>
      </trkpt>
      <trkpt lat="45.95795" lon="4.76535">
        <ele>187</ele>
        <time>2018-05-29T09:58:08Z</time>
      </trkpt>
      <trkpt lat="45.95794" lon="4.76526">
        <ele>187</ele>
        <time>2018-05-29T09:58:09Z</time>
      </trkpt>
      <trkpt lat="45.95793" lon="4.76518">
        <ele>187</ele>
        <time>2018-05-29T09:58:10Z</time>
      </trkpt>
      <trkpt lat="45.95792" lon="4.76509">
        <ele>187</ele>
        <time>2018-05-29T09:58:11Z</time>
      </trkpt>
      <trkpt lat="45.95791" lon="4.76501">
        <ele>187</ele>
        <time>2018-05-29T09:58:12Z</time>
      </trkpt>
      <trkpt lat="45.95789" lon="4.76493">
        <ele>186</ele>
        <time>2018-05-29T09:58:13Z</time>
      </trkpt>
      <trkpt lat="45.95789" lon="4.76486">
        <ele>186</ele>
        <time>2018-05-29T09:58:14Z</time>
      </trkpt>
      <trkpt lat="45.95788" lon="4.76478">
        <ele>186</ele>
        <time>2018-05-29T09:58:15Z</time>
      </trkpt>
      <trkpt lat="45.95787" lon="4.76469">
        <ele>186</ele>
        <time>2018-05-29T09:58:16Z</time>
      </trkpt>
      <trkpt lat="45.95786" lon="4.7646">
        <ele>186</ele>
        <time>2018-05-29T09:58:17Z</time>
      </trkpt>
      <trkpt lat="45.95784" lon="4.76453">
        <ele>186</ele>
        <time>2018-05-29T09:58:18Z</time>
      </trkpt>
      <trkpt lat="45.95782" lon="4.76444">
        <ele>186</ele>
        <time>2018-05-29T09:58:19Z</time>
      </trkpt>
      <trkpt lat="45.95781" lon="4.76435">
        <ele>186</ele>
        <time>2018-05-29T09:58:20Z</time>
      </trkpt>
      <trkpt lat="45.95781" lon="4.76426">
        <ele>186</ele>
        <time>2018-05-29T09:58:21Z</time>
      </trkpt>
      <trkpt lat="45.95779" lon="4.76419">
        <ele>186</ele>
        <time>2018-05-29T09:58:22Z</time>
      </trkpt>
      <trkpt lat="45.95778" lon="4.7641">
        <ele>186</ele>
        <time>2018-05-29T09:58:23Z</time>
      </trkpt>
      <trkpt lat="45.95777" lon="4.76402">
        <ele>186</ele>
        <time>2018-05-29T09:58:24Z</time>
      </trkpt>
      <trkpt lat="45.95776" lon="4.76392">
        <ele>186</ele>
        <time>2018-05-29T09:58:25Z</time>
      </trkpt>
      <trkpt lat="45.95776" lon="4.76384">
        <ele>186</ele>
        <time>2018-05-29T09:58:26Z</time>
      </trkpt>
      <trkpt lat="45.95775" lon="4.76375">
        <ele>186</ele>
        <time>2018-05-29T09:58:27Z</time>
      </trkpt>
      <trkpt lat="45.95775" lon="4.76367">
        <ele>186</ele>
        <time>2018-05-29T09:58:28Z</time>
      </trkpt>
      <trkpt lat="45.95774" lon="4.76359">
        <ele>186</ele>
        <time>2018-05-29T09:58:29Z</time>
      </trkpt>
      <trkpt lat="45.95774" lon="4.7635">
        <ele>186</ele>
        <time>2018-05-29T09:58:30Z</time>
      </trkpt>
      <trkpt lat="45.95773" lon="4.7634">
        <ele>186</ele>
        <time>2018-05-29T09:58:31Z</time>
      </trkpt>
      <trkpt lat="45.95773" lon="4.76331">
        <ele>185</ele>
        <time>2018-05-29T09:58:32Z</time>
      </trkpt>
      <trkpt lat="45.95772" lon="4.76323">
        <ele>185</ele>
        <time>2018-05-29T09:58:33Z</time>
      </trkpt>
      <trkpt lat="45.95771" lon="4.76314">
        <ele>185</ele>
        <time>2018-05-29T09:58:34Z</time>
      </trkpt>
      <trkpt lat="45.95771" lon="4.76305">
        <ele>186</ele>
        <time>2018-05-29T09:58:35Z</time>
      </trkpt>
      <trkpt lat="45.9577" lon="4.76296">
        <ele>186</ele>
        <time>2018-05-29T09:58:36Z</time>
      </trkpt>
      <trkpt lat="45.9577" lon="4.76289">
        <ele>186</ele>
        <time>2018-05-29T09:58:37Z</time>
      </trkpt>
      <trkpt lat="45.95769" lon="4.76281">
        <ele>186</ele>
        <time>2018-05-29T09:58:38Z</time>
      </trkpt>
      <trkpt lat="45.9577" lon="4.76274">
        <ele>186</ele>
        <time>2018-05-29T09:58:39Z</time>
      </trkpt>
      <trkpt lat="45.95769" lon="4.76265">
        <ele>186</ele>
        <time>2018-05-29T09:58:40Z</time>
      </trkpt>
      <trkpt lat="45.95769" lon="4.76257">
        <ele>185</ele>
        <time>2018-05-29T09:58:41Z</time>
      </trkpt>
      <trkpt lat="45.95769" lon="4.76249">
        <ele>186</ele>
        <time>2018-05-29T09:58:42Z</time>
      </trkpt>
      <trkpt lat="45.95768" lon="4.7624">
        <ele>186</ele>
        <time>2018-05-29T09:58:43Z</time>
      </trkpt>
      <trkpt lat="45.95768" lon="4.76232">
        <ele>186</ele>
        <time>2018-05-29T09:58:44Z</time>
      </trkpt>
      <trkpt lat="45.95768" lon="4.76223">
        <ele>186</ele>
        <time>2018-05-29T09:58:45Z</time>
      </trkpt>
      <trkpt lat="45.95767" lon="4.76216">
        <ele>186</ele>
        <time>2018-05-29T09:58:46Z</time>
      </trkpt>
      <trkpt lat="45.95767" lon="4.76207">
        <ele>186</ele>
        <time>2018-05-29T09:58:47Z</time>
      </trkpt>
      <trkpt lat="45.95766" lon="4.76198">
        <ele>186</ele>
        <time>2018-05-29T09:58:48Z</time>
      </trkpt>
      <trkpt lat="45.95766" lon="4.76189">
        <ele>186</ele>
        <time>2018-05-29T09:58:49Z</time>
      </trkpt>
      <trkpt lat="45.95766" lon="4.76181">
        <ele>186</ele>
        <time>2018-05-29T09:58:50Z</time>
      </trkpt>
      <trkpt lat="45.95766" lon="4.76173">
        <ele>186</ele>
        <time>2018-05-29T09:58:51Z</time>
      </trkpt>
      <trkpt lat="45.95764" lon="4.76165">
        <ele>186</ele>
        <time>2018-05-29T09:58:52Z</time>
      </trkpt>
      <trkpt lat="45.95763" lon="4.76156">
        <ele>186</ele>
        <time>2018-05-29T09:58:53Z</time>
      </trkpt>
      <trkpt lat="45.95763" lon="4.76149">
        <ele>186</ele>
        <time>2018-05-29T09:58:54Z</time>
      </trkpt>
      <trkpt lat="45.95762" lon="4.76141">
        <ele>186</ele>
        <time>2018-05-29T09:58:55Z</time>
      </trkpt>
      <trkpt lat="45.95761" lon="4.76133">
        <ele>186</ele>
        <time>2018-05-29T09:58:56Z</time>
      </trkpt>
      <trkpt lat="45.9576" lon="4.76126">
        <ele>186</ele>
        <time>2018-05-29T09:58:57Z</time>
      </trkpt>
      <trkpt lat="45.95759" lon="4.76118">
        <ele>186</ele>
        <time>2018-05-29T09:58:58Z</time>
      </trkpt>
      <trkpt lat="45.95758" lon="4.76111">
        <ele>186</ele>
        <time>2018-05-29T09:58:59Z</time>
      </trkpt>
      <trkpt lat="45.95756" lon="4.76104">
        <ele>186</ele>
        <time>2018-05-29T09:59:00Z</time>
      </trkpt>
      <trkpt lat="45.95754" lon="4.76096">
        <ele>186</ele>
        <time>2018-05-29T09:59:01Z</time>
      </trkpt>
      <trkpt lat="45.95752" lon="4.76088">
        <ele>185</ele>
        <time>2018-05-29T09:59:02Z</time>
      </trkpt>
      <trkpt lat="45.9575" lon="4.76082">
        <ele>185</ele>
        <time>2018-05-29T09:59:03Z</time>
      </trkpt>
      <trkpt lat="45.95747" lon="4.76073">
        <ele>185</ele>
        <time>2018-05-29T09:59:04Z</time>
      </trkpt>
      <trkpt lat="45.95744" lon="4.76065">
        <ele>185</ele>
        <time>2018-05-29T09:59:05Z</time>
      </trkpt>
      <trkpt lat="45.9574" lon="4.76058">
        <ele>184</ele>
        <time>2018-05-29T09:59:06Z</time>
      </trkpt>
      <trkpt lat="45.95737" lon="4.76051">
        <ele>184</ele>
        <time>2018-05-29T09:59:07Z</time>
      </trkpt>
      <trkpt lat="45.95733" lon="4.76043">
        <ele>184</ele>
        <time>2018-05-29T09:59:08Z</time>
      </trkpt>
      <trkpt lat="45.9573" lon="4.76036">
        <ele>184</ele>
        <time>2018-05-29T09:59:09Z</time>
      </trkpt>
      <trkpt lat="45.95727" lon="4.76029">
        <ele>184</ele>
        <time>2018-05-29T09:59:10Z</time>
      </trkpt>
      <trkpt lat="45.95724" lon="4.76022">
        <ele>184</ele>
        <time>2018-05-29T09:59:11Z</time>
      </trkpt>
      <trkpt lat="45.95721" lon="4.76015">
        <ele>184</ele>
        <time>2018-05-29T09:59:12Z</time>
      </trkpt>
      <trkpt lat="45.95718" lon="4.76009">
        <ele>184</ele>
        <time>2018-05-29T09:59:13Z</time>
      </trkpt>
      <trkpt lat="45.95714" lon="4.76001">
        <ele>184</ele>
        <time>2018-05-29T09:59:14Z</time>
      </trkpt>
      <trkpt lat="45.95711" lon="4.75995">
        <ele>185</ele>
        <time>2018-05-29T09:59:15Z</time>
      </trkpt>
      <trkpt lat="45.95708" lon="4.75988">
        <ele>185</ele>
        <time>2018-05-29T09:59:16Z</time>
      </trkpt>
      <trkpt lat="45.95705" lon="4.75981">
        <ele>185</ele>
        <time>2018-05-29T09:59:17Z</time>
      </trkpt>
      <trkpt lat="45.95701" lon="4.75974">
        <ele>185</ele>
        <time>2018-05-29T09:59:18Z</time>
      </trkpt>
      <trkpt lat="45.957" lon="4.75967">
        <ele>185</ele>
        <time>2018-05-29T09:59:19Z</time>
      </trkpt>
      <trkpt lat="45.95697" lon="4.7596">
        <ele>185</ele>
        <time>2018-05-29T09:59:20Z</time>
      </trkpt>
      <trkpt lat="45.95694" lon="4.75954">
        <ele>185</ele>
        <time>2018-05-29T09:59:21Z</time>
      </trkpt>
      <trkpt lat="45.95691" lon="4.75946">
        <ele>185</ele>
        <time>2018-05-29T09:59:22Z</time>
      </trkpt>
      <trkpt lat="45.95688" lon="4.75939">
        <ele>185</ele>
        <time>2018-05-29T09:59:23Z</time>
      </trkpt>
      <trkpt lat="45.95685" lon="4.75932">
        <ele>185</ele>
        <time>2018-05-29T09:59:24Z</time>
      </trkpt>
      <trkpt lat="45.95683" lon="4.75925">
        <ele>185</ele>
        <time>2018-05-29T09:59:25Z</time>
      </trkpt>
      <trkpt lat="45.95679" lon="4.75918">
        <ele>185</ele>
        <time>2018-05-29T09:59:26Z</time>
      </trkpt>
      <trkpt lat="45.95676" lon="4.75911">
        <ele>185</ele>
        <time>2018-05-29T09:59:27Z</time>
      </trkpt>
      <trkpt lat="45.95674" lon="4.75904">
        <ele>185</ele>
        <time>2018-05-29T09:59:28Z</time>
      </trkpt>
      <trkpt lat="45.95671" lon="4.75897">
        <ele>185</ele>
        <time>2018-05-29T09:59:29Z</time>
      </trkpt>
      <trkpt lat="45.95669" lon="4.75889">
        <ele>186</ele>
        <time>2018-05-29T09:59:30Z</time>
      </trkpt>
      <trkpt lat="45.95666" lon="4.75882">
        <ele>184</ele>
        <time>2018-05-29T09:59:31Z</time>
      </trkpt>
      <trkpt lat="45.95664" lon="4.75875">
        <ele>184</ele>
        <time>2018-05-29T09:59:32Z</time>
      </trkpt>
      <trkpt lat="45.95662" lon="4.75869">
        <ele>184</ele>
        <time>2018-05-29T09:59:33Z</time>
      </trkpt>
      <trkpt lat="45.95659" lon="4.75861">
        <ele>184</ele>
        <time>2018-05-29T09:59:34Z</time>
      </trkpt>
      <trkpt lat="45.95658" lon="4.75854">
        <ele>185</ele>
        <time>2018-05-29T09:59:35Z</time>
      </trkpt>
      <trkpt lat="45.95656" lon="4.75847">
        <ele>185</ele>
        <time>2018-05-29T09:59:36Z</time>
      </trkpt>
      <trkpt lat="45.95654" lon="4.75839">
        <ele>185</ele>
        <time>2018-05-29T09:59:37Z</time>
      </trkpt>
      <trkpt lat="45.95653" lon="4.75831">
        <ele>186</ele>
        <time>2018-05-29T09:59:38Z</time>
      </trkpt>
      <trkpt lat="45.95651" lon="4.75825">
        <ele>185</ele>
        <time>2018-05-29T09:59:39Z</time>
      </trkpt>
      <trkpt lat="45.9565" lon="4.75817">
        <ele>185</ele>
        <time>2018-05-29T09:59:40Z</time>
      </trkpt>
      <trkpt lat="45.95647" lon="4.7581">
        <ele>185</ele>
        <time>2018-05-29T09:59:41Z</time>
      </trkpt>
      <trkpt lat="45.95645" lon="4.75805">
        <ele>185</ele>
        <time>2018-05-29T09:59:42Z</time>
      </trkpt>
      <trkpt lat="45.95643" lon="4.75792">
        <ele>185</ele>
        <time>2018-05-29T09:59:44Z</time>
      </trkpt>
      <trkpt lat="45.95641" lon="4.75786">
        <ele>185</ele>
        <time>2018-05-29T09:59:45Z</time>
      </trkpt>
      <trkpt lat="45.95641" lon="4.75779">
        <ele>186</ele>
        <time>2018-05-29T09:59:46Z</time>
      </trkpt>
      <trkpt lat="45.9564" lon="4.75773">
        <ele>186</ele>
        <time>2018-05-29T09:59:47Z</time>
      </trkpt>
      <trkpt lat="45.95639" lon="4.75761">
        <ele>186</ele>
        <time>2018-05-29T09:59:49Z</time>
      </trkpt>
      <trkpt lat="45.95637" lon="4.75754">
        <ele>186</ele>
        <time>2018-05-29T09:59:50Z</time>
      </trkpt>
      <trkpt lat="45.95636" lon="4.75743">
        <ele>187</ele>
        <time>2018-05-29T09:59:52Z</time>
      </trkpt>
      <trkpt lat="45.95635" lon="4.75735">
        <ele>187</ele>
        <time>2018-05-29T09:59:53Z</time>
      </trkpt>
      <trkpt lat="45.95633" lon="4.75722">
        <ele>187</ele>
        <time>2018-05-29T09:59:55Z</time>
      </trkpt>
      <trkpt lat="45.95633" lon="4.75716">
        <ele>187</ele>
        <time>2018-05-29T09:59:56Z</time>
      </trkpt>
      <trkpt lat="45.95632" lon="4.75709">
        <ele>187</ele>
        <time>2018-05-29T09:59:57Z</time>
      </trkpt>
      <trkpt lat="45.95631" lon="4.75703">
        <ele>187</ele>
        <time>2018-05-29T09:59:58Z</time>
      </trkpt>
      <trkpt lat="45.9563" lon="4.75696">
        <ele>187</ele>
        <time>2018-05-29T09:59:59Z</time>
      </trkpt>
      <trkpt lat="45.9563" lon="4.7569">
        <ele>187</ele>
        <time>2018-05-29T10:00:00Z</time>
      </trkpt>
      <trkpt lat="45.95628" lon="4.75684">
        <ele>187</ele>
        <time>2018-05-29T10:00:01Z</time>
      </trkpt>
      <trkpt lat="45.95626" lon="4.75677">
        <ele>187</ele>
        <time>2018-05-29T10:00:02Z</time>
      </trkpt>
      <trkpt lat="45.95625" lon="4.75665">
        <ele>188</ele>
        <time>2018-05-29T10:00:04Z</time>
      </trkpt>
      <trkpt lat="45.95624" lon="4.75659">
        <ele>188</ele>
        <time>2018-05-29T10:00:05Z</time>
      </trkpt>
      <trkpt lat="45.95622" lon="4.75652">
        <ele>188</ele>
        <time>2018-05-29T10:00:06Z</time>
      </trkpt>
      <trkpt lat="45.9562" lon="4.75646">
        <ele>188</ele>
        <time>2018-05-29T10:00:07Z</time>
      </trkpt>
      <trkpt lat="45.95618" lon="4.7564">
        <ele>188</ele>
        <time>2018-05-29T10:00:08Z</time>
      </trkpt>
      <trkpt lat="45.95616" lon="4.75633">
        <ele>188</ele>
        <time>2018-05-29T10:00:09Z</time>
      </trkpt>
      <trkpt lat="45.95614" lon="4.75626">
        <ele>188</ele>
        <time>2018-05-29T10:00:10Z</time>
      </trkpt>
      <trkpt lat="45.95612" lon="4.7562">
        <ele>188</ele>
        <time>2018-05-29T10:00:11Z</time>
      </trkpt>
      <trkpt lat="45.95611" lon="4.75614">
        <ele>188</ele>
        <time>2018-05-29T10:00:12Z</time>
      </trkpt>
      <trkpt lat="45.95607" lon="4.75607">
        <ele>187</ele>
        <time>2018-05-29T10:00:13Z</time>
      </trkpt>
      <trkpt lat="45.95603" lon="4.75596">
        <ele>187</ele>
        <time>2018-05-29T10:00:15Z</time>
      </trkpt>
      <trkpt lat="45.95601" lon="4.75589">
        <ele>187</ele>
        <time>2018-05-29T10:00:16Z</time>
      </trkpt>
      <trkpt lat="45.95599" lon="4.75583">
        <ele>188</ele>
        <time>2018-05-29T10:00:17Z</time>
      </trkpt>
      <trkpt lat="45.95596" lon="4.75578">
        <ele>187</ele>
        <time>2018-05-29T10:00:18Z</time>
      </trkpt>
      <trkpt lat="45.95593" lon="4.75572">
        <ele>188</ele>
        <time>2018-05-29T10:00:19Z</time>
      </trkpt>
      <trkpt lat="45.95591" lon="4.75566">
        <ele>188</ele>
        <time>2018-05-29T10:00:20Z</time>
      </trkpt>
      <trkpt lat="45.95588" lon="4.7556">
        <ele>188</ele>
        <time>2018-05-29T10:00:21Z</time>
      </trkpt>
      <trkpt lat="45.95584" lon="4.75555">
        <ele>188</ele>
        <time>2018-05-29T10:00:22Z</time>
      </trkpt>
      <trkpt lat="45.95581" lon="4.75549">
        <ele>186</ele>
        <time>2018-05-29T10:00:23Z</time>
      </trkpt>
      <trkpt lat="45.95576" lon="4.75544">
        <ele>186</ele>
        <time>2018-05-29T10:00:24Z</time>
      </trkpt>
      <trkpt lat="45.95573" lon="4.7554">
        <ele>186</ele>
        <time>2018-05-29T10:00:25Z</time>
      </trkpt>
      <trkpt lat="45.95569" lon="4.75535">
        <ele>186</ele>
        <time>2018-05-29T10:00:26Z</time>
      </trkpt>
      <trkpt lat="45.95565" lon="4.7553">
        <ele>186</ele>
        <time>2018-05-29T10:00:27Z</time>
      </trkpt>
      <trkpt lat="45.95561" lon="4.75526">
        <ele>186</ele>
        <time>2018-05-29T10:00:28Z</time>
      </trkpt>
      <trkpt lat="45.95557" lon="4.75521">
        <ele>186</ele>
        <time>2018-05-29T10:00:29Z</time>
      </trkpt>
      <trkpt lat="45.95553" lon="4.75517">
        <ele>186</ele>
        <time>2018-05-29T10:00:30Z</time>
      </trkpt>
      <trkpt lat="45.95547" lon="4.75509">
        <ele>186</ele>
        <time>2018-05-29T10:00:33Z</time>
      </trkpt>
      <trkpt lat="45.95545" lon="4.75506">
        <ele>186</ele>
        <time>2018-05-29T10:00:34Z</time>
      </trkpt>
      <trkpt lat="45.95544" lon="4.75503">
        <ele>186</ele>
        <time>2018-05-29T10:00:35Z</time>
      </trkpt>
      <trkpt lat="45.95541" lon="4.75493">
        <ele>187</ele>
        <time>2018-05-29T10:00:36Z</time>
      </trkpt>
      <trkpt lat="45.95541" lon="4.75482">
        <ele>187</ele>
        <time>2018-05-29T10:00:38Z</time>
      </trkpt>
      <trkpt lat="45.9554" lon="4.75476">
        <ele>187</ele>
        <time>2018-05-29T10:00:39Z</time>
      </trkpt>
      <trkpt lat="45.9554" lon="4.75465">
        <ele>187</ele>
        <time>2018-05-29T10:00:41Z</time>
      </trkpt>
      <trkpt lat="45.95538" lon="4.75459">
        <ele>187</ele>
        <time>2018-05-29T10:00:42Z</time>
      </trkpt>
      <trkpt lat="45.95536" lon="4.75453">
        <ele>187</ele>
        <time>2018-05-29T10:00:43Z</time>
      </trkpt>
      <trkpt lat="45.95532" lon="4.75448">
        <ele>187</ele>
        <time>2018-05-29T10:00:44Z</time>
      </trkpt>
      <trkpt lat="45.95528" lon="4.75443">
        <ele>187</ele>
        <time>2018-05-29T10:00:45Z</time>
      </trkpt>
      <trkpt lat="45.95524" lon="4.75439">
        <ele>187</ele>
        <time>2018-05-29T10:00:46Z</time>
      </trkpt>
      <trkpt lat="45.9552" lon="4.75433">
        <ele>187</ele>
        <time>2018-05-29T10:00:47Z</time>
      </trkpt>
      <trkpt lat="45.95517" lon="4.75427">
        <ele>186</ele>
        <time>2018-05-29T10:00:48Z</time>
      </trkpt>
      <trkpt lat="45.95515" lon="4.7542">
        <ele>186</ele>
        <time>2018-05-29T10:00:49Z</time>
      </trkpt>
      <trkpt lat="45.95512" lon="4.75414">
        <ele>187</ele>
        <time>2018-05-29T10:00:50Z</time>
      </trkpt>
      <trkpt lat="45.95507" lon="4.75403">
        <ele>187</ele>
        <time>2018-05-29T10:00:52Z</time>
      </trkpt>
      <trkpt lat="45.95506" lon="4.75397">
        <ele>188</ele>
        <time>2018-05-29T10:00:53Z</time>
      </trkpt>
      <trkpt lat="45.95502" lon="4.75386">
        <ele>188</ele>
        <time>2018-05-29T10:00:55Z</time>
      </trkpt>
      <trkpt lat="45.95499" lon="4.7538">
        <ele>185</ele>
        <time>2018-05-29T10:00:56Z</time>
      </trkpt>
      <trkpt lat="45.95497" lon="4.75374">
        <ele>185</ele>
        <time>2018-05-29T10:00:57Z</time>
      </trkpt>
      <trkpt lat="45.95494" lon="4.75369">
        <ele>186</ele>
        <time>2018-05-29T10:00:58Z</time>
      </trkpt>
      <trkpt lat="45.9549" lon="4.75359">
        <ele>186</ele>
        <time>2018-05-29T10:01:00Z</time>
      </trkpt>
      <trkpt lat="45.95488" lon="4.75355">
        <ele>186</ele>
        <time>2018-05-29T10:01:01Z</time>
      </trkpt>
      <trkpt lat="45.95483" lon="4.75346">
        <ele>186</ele>
        <time>2018-05-29T10:01:03Z</time>
      </trkpt>
      <trkpt lat="45.9548" lon="4.75341">
        <ele>186</ele>
        <time>2018-05-29T10:01:04Z</time>
      </trkpt>
      <trkpt lat="45.95476" lon="4.75332">
        <ele>188</ele>
        <time>2018-05-29T10:01:06Z</time>
      </trkpt>
      <trkpt lat="45.95473" lon="4.75327">
        <ele>188</ele>
        <time>2018-05-29T10:01:07Z</time>
      </trkpt>
      <trkpt lat="45.95468" lon="4.75318">
        <ele>188</ele>
        <time>2018-05-29T10:01:09Z</time>
      </trkpt>
      <trkpt lat="45.95466" lon="4.75314">
        <ele>188</ele>
        <time>2018-05-29T10:01:10Z</time>
      </trkpt>
      <trkpt lat="45.95461" lon="4.75304">
        <ele>188</ele>
        <time>2018-05-29T10:01:12Z</time>
      </trkpt>
      <trkpt lat="45.95459" lon="4.75299">
        <ele>188</ele>
        <time>2018-05-29T10:01:13Z</time>
      </trkpt>
      <trkpt lat="45.95454" lon="4.75289">
        <ele>188</ele>
        <time>2018-05-29T10:01:15Z</time>
      </trkpt>
      <trkpt lat="45.95452" lon="4.75285">
        <ele>189</ele>
        <time>2018-05-29T10:01:16Z</time>
      </trkpt>
      <trkpt lat="45.95449" lon="4.7528">
        <ele>189</ele>
        <time>2018-05-29T10:01:17Z</time>
      </trkpt>
      <trkpt lat="45.95445" lon="4.75275">
        <ele>189</ele>
        <time>2018-05-29T10:01:18Z</time>
      </trkpt>
      <trkpt lat="45.95443" lon="4.7527">
        <ele>189</ele>
        <time>2018-05-29T10:01:19Z</time>
      </trkpt>
      <trkpt lat="45.9544" lon="4.75264">
        <ele>189</ele>
        <time>2018-05-29T10:01:20Z</time>
      </trkpt>
      <trkpt lat="45.95437" lon="4.75258">
        <ele>189</ele>
        <time>2018-05-29T10:01:21Z</time>
      </trkpt>
      <trkpt lat="45.95434" lon="4.75252">
        <ele>189</ele>
        <time>2018-05-29T10:01:22Z</time>
      </trkpt>
      <trkpt lat="45.9543" lon="4.75247">
        <ele>190</ele>
        <time>2018-05-29T10:01:23Z</time>
      </trkpt>
      <trkpt lat="45.95427" lon="4.75241">
        <ele>190</ele>
        <time>2018-05-29T10:01:24Z</time>
      </trkpt>
      <trkpt lat="45.95423" lon="4.75234">
        <ele>190</ele>
        <time>2018-05-29T10:01:25Z</time>
      </trkpt>
      <trkpt lat="45.95421" lon="4.75229">
        <ele>191</ele>
        <time>2018-05-29T10:01:26Z</time>
      </trkpt>
      <trkpt lat="45.95417" lon="4.75222">
        <ele>191</ele>
        <time>2018-05-29T10:01:27Z</time>
      </trkpt>
      <trkpt lat="45.95413" lon="4.75216">
        <ele>189</ele>
        <time>2018-05-29T10:01:28Z</time>
      </trkpt>
      <trkpt lat="45.95409" lon="4.7521">
        <ele>189</ele>
        <time>2018-05-29T10:01:29Z</time>
      </trkpt>
      <trkpt lat="45.95407" lon="4.75204">
        <ele>189</ele>
        <time>2018-05-29T10:01:30Z</time>
      </trkpt>
      <trkpt lat="45.95403" lon="4.75198">
        <ele>189</ele>
        <time>2018-05-29T10:01:31Z</time>
      </trkpt>
      <trkpt lat="45.954" lon="4.75193">
        <ele>189</ele>
        <time>2018-05-29T10:01:32Z</time>
      </trkpt>
      <trkpt lat="45.95395" lon="4.75187">
        <ele>189</ele>
        <time>2018-05-29T10:01:33Z</time>
      </trkpt>
      <trkpt lat="45.95392" lon="4.75182">
        <ele>189</ele>
        <time>2018-05-29T10:01:34Z</time>
      </trkpt>
      <trkpt lat="45.95389" lon="4.75176">
        <ele>189</ele>
        <time>2018-05-29T10:01:35Z</time>
      </trkpt>
      <trkpt lat="45.95386" lon="4.75171">
        <ele>189</ele>
        <time>2018-05-29T10:01:36Z</time>
      </trkpt>
      <trkpt lat="45.95383" lon="4.75165">
        <ele>191</ele>
        <time>2018-05-29T10:01:37Z</time>
      </trkpt>
      <trkpt lat="45.95379" lon="4.75159">
        <ele>191</ele>
        <time>2018-05-29T10:01:38Z</time>
      </trkpt>
      <trkpt lat="45.95375" lon="4.75154">
        <ele>191</ele>
        <time>2018-05-29T10:01:39Z</time>
      </trkpt>
      <trkpt lat="45.95372" lon="4.75149">
        <ele>191</ele>
        <time>2018-05-29T10:01:40Z</time>
      </trkpt>
      <trkpt lat="45.95368" lon="4.75139">
        <ele>191</ele>
        <time>2018-05-29T10:01:42Z</time>
      </trkpt>
      <trkpt lat="45.95365" lon="4.75133">
        <ele>191</ele>
        <time>2018-05-29T10:01:43Z</time>
      </trkpt>
      <trkpt lat="45.95361" lon="4.75128">
        <ele>191</ele>
        <time>2018-05-29T10:01:44Z</time>
      </trkpt>
      <trkpt lat="45.95358" lon="4.75124">
        <ele>191</ele>
        <time>2018-05-29T10:01:45Z</time>
      </trkpt>
      <trkpt lat="45.95355" lon="4.75118">
        <ele>191</ele>
        <time>2018-05-29T10:01:46Z</time>
      </trkpt>
      <trkpt lat="45.95351" lon="4.75112">
        <ele>192</ele>
        <time>2018-05-29T10:01:47Z</time>
      </trkpt>
      <trkpt lat="45.95345" lon="4.75104">
        <ele>192</ele>
        <time>2018-05-29T10:01:49Z</time>
      </trkpt>
      <trkpt lat="45.95342" lon="4.75099">
        <ele>192</ele>
        <time>2018-05-29T10:01:50Z</time>
      </trkpt>
      <trkpt lat="45.95336" lon="4.7509">
        <ele>193</ele>
        <time>2018-05-29T10:01:52Z</time>
      </trkpt>
      <trkpt lat="45.95333" lon="4.75085">
        <ele>193</ele>
        <time>2018-05-29T10:01:53Z</time>
      </trkpt>
      <trkpt lat="45.95328" lon="4.75076">
        <ele>192</ele>
        <time>2018-05-29T10:01:55Z</time>
      </trkpt>
      <trkpt lat="45.95325" lon="4.75071">
        <ele>192</ele>
        <time>2018-05-29T10:01:56Z</time>
      </trkpt>
      <trkpt lat="45.95319" lon="4.75061">
        <ele>192</ele>
        <time>2018-05-29T10:01:58Z</time>
      </trkpt>
      <trkpt lat="45.95316" lon="4.75056">
        <ele>192</ele>
        <time>2018-05-29T10:01:59Z</time>
      </trkpt>
      <trkpt lat="45.95313" lon="4.75052">
        <ele>192</ele>
        <time>2018-05-29T10:02:00Z</time>
      </trkpt>
      <trkpt lat="45.95309" lon="4.75047">
        <ele>192</ele>
        <time>2018-05-29T10:02:01Z</time>
      </trkpt>
      <trkpt lat="45.95305" lon="4.75042">
        <ele>192</ele>
        <time>2018-05-29T10:02:02Z</time>
      </trkpt>
      <trkpt lat="45.95303" lon="4.75037">
        <ele>192</ele>
        <time>2018-05-29T10:02:03Z</time>
      </trkpt>
      <trkpt lat="45.95299" lon="4.75033">
        <ele>191</ele>
        <time>2018-05-29T10:02:04Z</time>
      </trkpt>
      <trkpt lat="45.95296" lon="4.75028">
        <ele>191</ele>
        <time>2018-05-29T10:02:05Z</time>
      </trkpt>
      <trkpt lat="45.95293" lon="4.75023">
        <ele>191</ele>
        <time>2018-05-29T10:02:06Z</time>
      </trkpt>
      <trkpt lat="45.95289" lon="4.75017">
        <ele>191</ele>
        <time>2018-05-29T10:02:07Z</time>
      </trkpt>
      <trkpt lat="45.95287" lon="4.75011">
        <ele>191</ele>
        <time>2018-05-29T10:02:08Z</time>
      </trkpt>
      <trkpt lat="45.95282" lon="4.75005">
        <ele>191</ele>
        <time>2018-05-29T10:02:09Z</time>
      </trkpt>
      <trkpt lat="45.95279" lon="4.74999">
        <ele>192</ele>
        <time>2018-05-29T10:02:10Z</time>
      </trkpt>
      <trkpt lat="45.95275" lon="4.74993">
        <ele>192</ele>
        <time>2018-05-29T10:02:11Z</time>
      </trkpt>
      <trkpt lat="45.95272" lon="4.74987">
        <ele>192</ele>
        <time>2018-05-29T10:02:12Z</time>
      </trkpt>
      <trkpt lat="45.95268" lon="4.74982">
        <ele>192</ele>
        <time>2018-05-29T10:02:13Z</time>
      </trkpt>
      <trkpt lat="45.95265" lon="4.74976">
        <ele>192</ele>
        <time>2018-05-29T10:02:14Z</time>
      </trkpt>
      <trkpt lat="45.95262" lon="4.74971">
        <ele>192</ele>
        <time>2018-05-29T10:02:15Z</time>
      </trkpt>
      <trkpt lat="45.95259" lon="4.74966">
        <ele>192</ele>
        <time>2018-05-29T10:02:16Z</time>
      </trkpt>
      <trkpt lat="45.95255" lon="4.74961">
        <ele>192</ele>
        <time>2018-05-29T10:02:17Z</time>
      </trkpt>
      <trkpt lat="45.95251" lon="4.74955">
        <ele>192</ele>
        <time>2018-05-29T10:02:18Z</time>
      </trkpt>
      <trkpt lat="45.95248" lon="4.7495">
        <ele>192</ele>
        <time>2018-05-29T10:02:19Z</time>
      </trkpt>
      <trkpt lat="45.95245" lon="4.74944">
        <ele>192</ele>
        <time>2018-05-29T10:02:20Z</time>
      </trkpt>
      <trkpt lat="45.95242" lon="4.74939">
        <ele>192</ele>
        <time>2018-05-29T10:02:21Z</time>
      </trkpt>
      <trkpt lat="45.95238" lon="4.74934">
        <ele>192</ele>
        <time>2018-05-29T10:02:22Z</time>
      </trkpt>
      <trkpt lat="45.95234" lon="4.74929">
        <ele>192</ele>
        <time>2018-05-29T10:02:23Z</time>
      </trkpt>
      <trkpt lat="45.95231" lon="4.74924">
        <ele>192</ele>
        <time>2018-05-29T10:02:24Z</time>
      </trkpt>
      <trkpt lat="45.95228" lon="4.74919">
        <ele>192</ele>
        <time>2018-05-29T10:02:25Z</time>
      </trkpt>
      <trkpt lat="45.95225" lon="4.74914">
        <ele>193</ele>
        <time>2018-05-29T10:02:26Z</time>
      </trkpt>
      <trkpt lat="45.95222" lon="4.74909">
        <ele>193</ele>
        <time>2018-05-29T10:02:27Z</time>
      </trkpt>
      <trkpt lat="45.95219" lon="4.74903">
        <ele>193</ele>
        <time>2018-05-29T10:02:28Z</time>
      </trkpt>
      <trkpt lat="45.95216" lon="4.74899">
        <ele>193</ele>
        <time>2018-05-29T10:02:29Z</time>
      </trkpt>
      <trkpt lat="45.95211" lon="4.74889">
        <ele>193</ele>
        <time>2018-05-29T10:02:31Z</time>
      </trkpt>
      <trkpt lat="45.95208" lon="4.74883">
        <ele>194</ele>
        <time>2018-05-29T10:02:32Z</time>
      </trkpt>
      <trkpt lat="45.95204" lon="4.74878">
        <ele>194</ele>
        <time>2018-05-29T10:02:33Z</time>
      </trkpt>
      <trkpt lat="45.95201" lon="4.74873">
        <ele>194</ele>
        <time>2018-05-29T10:02:34Z</time>
      </trkpt>
      <trkpt lat="45.95198" lon="4.74868">
        <ele>194</ele>
        <time>2018-05-29T10:02:35Z</time>
      </trkpt>
      <trkpt lat="45.95195" lon="4.74863">
        <ele>194</ele>
        <time>2018-05-29T10:02:36Z</time>
      </trkpt>
      <trkpt lat="45.95191" lon="4.74858">
        <ele>194</ele>
        <time>2018-05-29T10:02:37Z</time>
      </trkpt>
      <trkpt lat="45.95188" lon="4.74853">
        <ele>194</ele>
        <time>2018-05-29T10:02:38Z</time>
      </trkpt>
      <trkpt lat="45.95185" lon="4.74847">
        <ele>194</ele>
        <time>2018-05-29T10:02:39Z</time>
      </trkpt>
      <trkpt lat="45.95182" lon="4.74842">
        <ele>194</ele>
        <time>2018-05-29T10:02:40Z</time>
      </trkpt>
      <trkpt lat="45.95179" lon="4.74838">
        <ele>194</ele>
        <time>2018-05-29T10:02:41Z</time>
      </trkpt>
      <trkpt lat="45.95175" lon="4.74832">
        <ele>194</ele>
        <time>2018-05-29T10:02:42Z</time>
      </trkpt>
      <trkpt lat="45.9517" lon="4.74827">
        <ele>194</ele>
        <time>2018-05-29T10:02:43Z</time>
      </trkpt>
      <trkpt lat="45.95168" lon="4.74821">
        <ele>194</ele>
        <time>2018-05-29T10:02:44Z</time>
      </trkpt>
      <trkpt lat="45.95163" lon="4.74816">
        <ele>194</ele>
        <time>2018-05-29T10:02:45Z</time>
      </trkpt>
      <trkpt lat="45.95161" lon="4.74811">
        <ele>194</ele>
        <time>2018-05-29T10:02:46Z</time>
      </trkpt>
      <trkpt lat="45.95158" lon="4.74806">
        <ele>194</ele>
        <time>2018-05-29T10:02:47Z</time>
      </trkpt>
      <trkpt lat="45.95155" lon="4.748">
        <ele>194</ele>
        <time>2018-05-29T10:02:48Z</time>
      </trkpt>
      <trkpt lat="45.9515" lon="4.7479">
        <ele>194</ele>
        <time>2018-05-29T10:02:50Z</time>
      </trkpt>
      <trkpt lat="45.95146" lon="4.74785">
        <ele>194</ele>
        <time>2018-05-29T10:02:51Z</time>
      </trkpt>
      <trkpt lat="45.95142" lon="4.7478">
        <ele>194</ele>
        <time>2018-05-29T10:02:52Z</time>
      </trkpt>
      <trkpt lat="45.95139" lon="4.74775">
        <ele>194</ele>
        <time>2018-05-29T10:02:53Z</time>
      </trkpt>
      <trkpt lat="45.95136" lon="4.74769">
        <ele>194</ele>
        <time>2018-05-29T10:02:54Z</time>
      </trkpt>
      <trkpt lat="45.95131" lon="4.74763">
        <ele>194</ele>
        <time>2018-05-29T10:02:55Z</time>
      </trkpt>
      <trkpt lat="45.95127" lon="4.74757">
        <ele>194</ele>
        <time>2018-05-29T10:02:56Z</time>
      </trkpt>
      <trkpt lat="45.95124" lon="4.74751">
        <ele>194</ele>
        <time>2018-05-29T10:02:57Z</time>
      </trkpt>
      <trkpt lat="45.9512" lon="4.74746">
        <ele>194</ele>
        <time>2018-05-29T10:02:58Z</time>
      </trkpt>
      <trkpt lat="45.95116" lon="4.74739">
        <ele>194</ele>
        <time>2018-05-29T10:02:59Z</time>
      </trkpt>
      <trkpt lat="45.95113" lon="4.74733">
        <ele>194</ele>
        <time>2018-05-29T10:03:00Z</time>
      </trkpt>
      <trkpt lat="45.95109" lon="4.74727">
        <ele>194</ele>
        <time>2018-05-29T10:03:01Z</time>
      </trkpt>
      <trkpt lat="45.95107" lon="4.74721">
        <ele>194</ele>
        <time>2018-05-29T10:03:02Z</time>
      </trkpt>
      <trkpt lat="45.95103" lon="4.74716">
        <ele>194</ele>
        <time>2018-05-29T10:03:03Z</time>
      </trkpt>
      <trkpt lat="45.95099" lon="4.7471">
        <ele>194</ele>
        <time>2018-05-29T10:03:04Z</time>
      </trkpt>
      <trkpt lat="45.95096" lon="4.74704">
        <ele>194</ele>
        <time>2018-05-29T10:03:05Z</time>
      </trkpt>
      <trkpt lat="45.95092" lon="4.74698">
        <ele>194</ele>
        <time>2018-05-29T10:03:06Z</time>
      </trkpt>
      <trkpt lat="45.95089" lon="4.74693">
        <ele>194</ele>
        <time>2018-05-29T10:03:07Z</time>
      </trkpt>
      <trkpt lat="45.95085" lon="4.74688">
        <ele>195</ele>
        <time>2018-05-29T10:03:08Z</time>
      </trkpt>
      <trkpt lat="45.95082" lon="4.74682">
        <ele>194</ele>
        <time>2018-05-29T10:03:09Z</time>
      </trkpt>
      <trkpt lat="45.95079" lon="4.74676">
        <ele>194</ele>
        <time>2018-05-29T10:03:10Z</time>
      </trkpt>
      <trkpt lat="45.95075" lon="4.7467">
        <ele>195</ele>
        <time>2018-05-29T10:03:11Z</time>
      </trkpt>
      <trkpt lat="45.95072" lon="4.74664">
        <ele>195</ele>
        <time>2018-05-29T10:03:12Z</time>
      </trkpt>
      <trkpt lat="45.95069" lon="4.74658">
        <ele>195</ele>
        <time>2018-05-29T10:03:13Z</time>
      </trkpt>
      <trkpt lat="45.95066" lon="4.74652">
        <ele>195</ele>
        <time>2018-05-29T10:03:14Z</time>
      </trkpt>
      <trkpt lat="45.95062" lon="4.74646">
        <ele>194</ele>
        <time>2018-05-29T10:03:15Z</time>
      </trkpt>
      <trkpt lat="45.95059" lon="4.7464">
        <ele>194</ele>
        <time>2018-05-29T10:03:16Z</time>
      </trkpt>
      <trkpt lat="45.95055" lon="4.74634">
        <ele>194</ele>
        <time>2018-05-29T10:03:17Z</time>
      </trkpt>
      <trkpt lat="45.95052" lon="4.74627">
        <ele>194</ele>
        <time>2018-05-29T10:03:18Z</time>
      </trkpt>
      <trkpt lat="45.95049" lon="4.74621">
        <ele>194</ele>
        <time>2018-05-29T10:03:19Z</time>
      </trkpt>
      <trkpt lat="45.95045" lon="4.74615">
        <ele>194</ele>
        <time>2018-05-29T10:03:20Z</time>
      </trkpt>
      <trkpt lat="45.95041" lon="4.74609">
        <ele>194</ele>
        <time>2018-05-29T10:03:21Z</time>
      </trkpt>
      <trkpt lat="45.95038" lon="4.74603">
        <ele>194</ele>
        <time>2018-05-29T10:03:22Z</time>
      </trkpt>
      <trkpt lat="45.95035" lon="4.74596">
        <ele>194</ele>
        <time>2018-05-29T10:03:23Z</time>
      </trkpt>
      <trkpt lat="45.9503" lon="4.74589">
        <ele>194</ele>
        <time>2018-05-29T10:03:24Z</time>
      </trkpt>
      <trkpt lat="45.95027" lon="4.74582">
        <ele>194</ele>
        <time>2018-05-29T10:03:25Z</time>
      </trkpt>
      <trkpt lat="45.95023" lon="4.74576">
        <ele>194</ele>
        <time>2018-05-29T10:03:26Z</time>
      </trkpt>
      <trkpt lat="45.9502" lon="4.7457">
        <ele>194</ele>
        <time>2018-05-29T10:03:27Z</time>
      </trkpt>
      <trkpt lat="45.95017" lon="4.74563">
        <ele>194</ele>
        <time>2018-05-29T10:03:28Z</time>
      </trkpt>
      <trkpt lat="45.95013" lon="4.74557">
        <ele>194</ele>
        <time>2018-05-29T10:03:29Z</time>
      </trkpt>
      <trkpt lat="45.9501" lon="4.7455">
        <ele>194</ele>
        <time>2018-05-29T10:03:30Z</time>
      </trkpt>
      <trkpt lat="45.95007" lon="4.74544">
        <ele>194</ele>
        <time>2018-05-29T10:03:31Z</time>
      </trkpt>
      <trkpt lat="45.95002" lon="4.74537">
        <ele>194</ele>
        <time>2018-05-29T10:03:32Z</time>
      </trkpt>
      <trkpt lat="45.94998" lon="4.7453">
        <ele>193</ele>
        <time>2018-05-29T10:03:33Z</time>
      </trkpt>
      <trkpt lat="45.94994" lon="4.74523">
        <ele>193</ele>
        <time>2018-05-29T10:03:34Z</time>
      </trkpt>
      <trkpt lat="45.94991" lon="4.74516">
        <ele>193</ele>
        <time>2018-05-29T10:03:35Z</time>
      </trkpt>
      <trkpt lat="45.94987" lon="4.74509">
        <ele>193</ele>
        <time>2018-05-29T10:03:36Z</time>
      </trkpt>
      <trkpt lat="45.94983" lon="4.74501">
        <ele>193</ele>
        <time>2018-05-29T10:03:37Z</time>
      </trkpt>
      <trkpt lat="45.94979" lon="4.74493">
        <ele>193</ele>
        <time>2018-05-29T10:03:38Z</time>
      </trkpt>
      <trkpt lat="45.94975" lon="4.74483">
        <ele>193</ele>
        <time>2018-05-29T10:03:39Z</time>
      </trkpt>
      <trkpt lat="45.9497" lon="4.74475">
        <ele>193</ele>
        <time>2018-05-29T10:03:40Z</time>
      </trkpt>
      <trkpt lat="45.94967" lon="4.74466">
        <ele>193</ele>
        <time>2018-05-29T10:03:41Z</time>
      </trkpt>
      <trkpt lat="45.94961" lon="4.74458">
        <ele>192</ele>
        <time>2018-05-29T10:03:42Z</time>
      </trkpt>
      <trkpt lat="45.94957" lon="4.74449">
        <ele>192</ele>
        <time>2018-05-29T10:03:43Z</time>
      </trkpt>
      <trkpt lat="45.94952" lon="4.74441">
        <ele>192</ele>
        <time>2018-05-29T10:03:44Z</time>
      </trkpt>
      <trkpt lat="45.94948" lon="4.74432">
        <ele>192</ele>
        <time>2018-05-29T10:03:45Z</time>
      </trkpt>
      <trkpt lat="45.94943" lon="4.74423">
        <ele>192</ele>
        <time>2018-05-29T10:03:46Z</time>
      </trkpt>
      <trkpt lat="45.94938" lon="4.74413">
        <ele>192</ele>
        <time>2018-05-29T10:03:47Z</time>
      </trkpt>
      <trkpt lat="45.94933" lon="4.74404">
        <ele>192</ele>
        <time>2018-05-29T10:03:48Z</time>
      </trkpt>
      <trkpt lat="45.94928" lon="4.74395">
        <ele>192</ele>
        <time>2018-05-29T10:03:49Z</time>
      </trkpt>
      <trkpt lat="45.94924" lon="4.74386">
        <ele>192</ele>
        <time>2018-05-29T10:03:50Z</time>
      </trkpt>
      <trkpt lat="45.9492" lon="4.74377">
        <ele>192</ele>
        <time>2018-05-29T10:03:51Z</time>
      </trkpt>
      <trkpt lat="45.94916" lon="4.74368">
        <ele>191</ele>
        <time>2018-05-29T10:03:52Z</time>
      </trkpt>
      <trkpt lat="45.94911" lon="4.74359">
        <ele>191</ele>
        <time>2018-05-29T10:03:53Z</time>
      </trkpt>
      <trkpt lat="45.94907" lon="4.74351">
        <ele>191</ele>
        <time>2018-05-29T10:03:54Z</time>
      </trkpt>
      <trkpt lat="45.94903" lon="4.74342">
        <ele>191</ele>
        <time>2018-05-29T10:03:55Z</time>
      </trkpt>
      <trkpt lat="45.94899" lon="4.74334">
        <ele>191</ele>
        <time>2018-05-29T10:03:56Z</time>
      </trkpt>
      <trkpt lat="45.94894" lon="4.74326">
        <ele>191</ele>
        <time>2018-05-29T10:03:57Z</time>
      </trkpt>
      <trkpt lat="45.9489" lon="4.74318">
        <ele>191</ele>
        <time>2018-05-29T10:03:58Z</time>
      </trkpt>
      <trkpt lat="45.94886" lon="4.7431">
        <ele>191</ele>
        <time>2018-05-29T10:03:59Z</time>
      </trkpt>
      <trkpt lat="45.94882" lon="4.74302">
        <ele>191</ele>
        <time>2018-05-29T10:04:00Z</time>
      </trkpt>
      <trkpt lat="45.94878" lon="4.74294">
        <ele>191</ele>
        <time>2018-05-29T10:04:01Z</time>
      </trkpt>
      <trkpt lat="45.94874" lon="4.74286">
        <ele>191</ele>
        <time>2018-05-29T10:04:02Z</time>
      </trkpt>
      <trkpt lat="45.9487" lon="4.74278">
        <ele>191</ele>
        <time>2018-05-29T10:04:03Z</time>
      </trkpt>
      <trkpt lat="45.94866" lon="4.7427">
        <ele>190</ele>
        <time>2018-05-29T10:04:04Z</time>
      </trkpt>
      <trkpt lat="45.94861" lon="4.74262">
        <ele>190</ele>
        <time>2018-05-29T10:04:05Z</time>
      </trkpt>
      <trkpt lat="45.94858" lon="4.74253">
        <ele>190</ele>
        <time>2018-05-29T10:04:06Z</time>
      </trkpt>
      <trkpt lat="45.94853" lon="4.74245">
        <ele>190</ele>
        <time>2018-05-29T10:04:07Z</time>
      </trkpt>
      <trkpt lat="45.94849" lon="4.74236">
        <ele>190</ele>
        <time>2018-05-29T10:04:08Z</time>
      </trkpt>
      <trkpt lat="45.94845" lon="4.74229">
        <ele>190</ele>
        <time>2018-05-29T10:04:09Z</time>
      </trkpt>
      <trkpt lat="45.94841" lon="4.74221">
        <ele>190</ele>
        <time>2018-05-29T10:04:10Z</time>
      </trkpt>
      <trkpt lat="45.94838" lon="4.74214">
        <ele>190</ele>
        <time>2018-05-29T10:04:11Z</time>
      </trkpt>
      <trkpt lat="45.94833" lon="4.74207">
        <ele>189</ele>
        <time>2018-05-29T10:04:12Z</time>
      </trkpt>
      <trkpt lat="45.94829" lon="4.742">
        <ele>189</ele>
        <time>2018-05-29T10:04:13Z</time>
      </trkpt>
      <trkpt lat="45.94825" lon="4.74192">
        <ele>189</ele>
        <time>2018-05-29T10:04:14Z</time>
      </trkpt>
      <trkpt lat="45.94821" lon="4.74185">
        <ele>189</ele>
        <time>2018-05-29T10:04:15Z</time>
      </trkpt>
      <trkpt lat="45.94817" lon="4.74178">
        <ele>189</ele>
        <time>2018-05-29T10:04:16Z</time>
      </trkpt>
      <trkpt lat="45.94814" lon="4.74172">
        <ele>189</ele>
        <time>2018-05-29T10:04:17Z</time>
      </trkpt>
      <trkpt lat="45.9481" lon="4.74166">
        <ele>189</ele>
        <time>2018-05-29T10:04:18Z</time>
      </trkpt>
      <trkpt lat="45.94807" lon="4.7416">
        <ele>189</ele>
        <time>2018-05-29T10:04:19Z</time>
      </trkpt>
      <trkpt lat="45.94804" lon="4.74154">
        <ele>189</ele>
        <time>2018-05-29T10:04:20Z</time>
      </trkpt>
      <trkpt lat="45.94799" lon="4.74147">
        <ele>189</ele>
        <time>2018-05-29T10:04:21Z</time>
      </trkpt>
      <trkpt lat="45.94796" lon="4.7414">
        <ele>189</ele>
        <time>2018-05-29T10:04:22Z</time>
      </trkpt>
      <trkpt lat="45.94792" lon="4.74134">
        <ele>189</ele>
        <time>2018-05-29T10:04:23Z</time>
      </trkpt>
      <trkpt lat="45.94788" lon="4.74127">
        <ele>189</ele>
        <time>2018-05-29T10:04:24Z</time>
      </trkpt>
      <trkpt lat="45.94783" lon="4.74121">
        <ele>189</ele>
        <time>2018-05-29T10:04:25Z</time>
      </trkpt>
      <trkpt lat="45.94779" lon="4.74115">
        <ele>189</ele>
        <time>2018-05-29T10:04:26Z</time>
      </trkpt>
      <trkpt lat="45.94775" lon="4.74109">
        <ele>189</ele>
        <time>2018-05-29T10:04:27Z</time>
      </trkpt>
      <trkpt lat="45.94771" lon="4.74103">
        <ele>189</ele>
        <time>2018-05-29T10:04:28Z</time>
      </trkpt>
      <trkpt lat="45.94767" lon="4.74097">
        <ele>189</ele>
        <time>2018-05-29T10:04:29Z</time>
      </trkpt>
      <trkpt lat="45.94762" lon="4.74092">
        <ele>189</ele>
        <time>2018-05-29T10:04:30Z</time>
      </trkpt>
      <trkpt lat="45.94757" lon="4.74087">
        <ele>189</ele>
        <time>2018-05-29T10:04:31Z</time>
      </trkpt>
      <trkpt lat="45.94753" lon="4.7408">
        <ele>189</ele>
        <time>2018-05-29T10:04:32Z</time>
      </trkpt>
      <trkpt lat="45.94749" lon="4.74074">
        <ele>188</ele>
        <time>2018-05-29T10:04:33Z</time>
      </trkpt>
      <trkpt lat="45.94744" lon="4.74068">
        <ele>188</ele>
        <time>2018-05-29T10:04:34Z</time>
      </trkpt>
      <trkpt lat="45.9474" lon="4.74062">
        <ele>188</ele>
        <time>2018-05-29T10:04:35Z</time>
      </trkpt>
      <trkpt lat="45.94735" lon="4.74057">
        <ele>188</ele>
        <time>2018-05-29T10:04:36Z</time>
      </trkpt>
      <trkpt lat="45.94731" lon="4.74051">
        <ele>188</ele>
        <time>2018-05-29T10:04:37Z</time>
      </trkpt>
      <trkpt lat="45.94727" lon="4.74046">
        <ele>188</ele>
        <time>2018-05-29T10:04:38Z</time>
      </trkpt>
      <trkpt lat="45.94723" lon="4.74041">
        <ele>187</ele>
        <time>2018-05-29T10:04:39Z</time>
      </trkpt>
      <trkpt lat="45.94719" lon="4.74036">
        <ele>187</ele>
        <time>2018-05-29T10:04:40Z</time>
      </trkpt>
      <trkpt lat="45.94715" lon="4.74031">
        <ele>187</ele>
        <time>2018-05-29T10:04:41Z</time>
      </trkpt>
      <trkpt lat="45.94711" lon="4.74026">
        <ele>187</ele>
        <time>2018-05-29T10:04:42Z</time>
      </trkpt>
      <trkpt lat="45.94707" lon="4.74021">
        <ele>187</ele>
        <time>2018-05-29T10:04:43Z</time>
      </trkpt>
      <trkpt lat="45.94702" lon="4.74015">
        <ele>187</ele>
        <time>2018-05-29T10:04:44Z</time>
      </trkpt>
      <trkpt lat="45.94699" lon="4.74009">
        <ele>187</ele>
        <time>2018-05-29T10:04:45Z</time>
      </trkpt>
      <trkpt lat="45.94694" lon="4.74003">
        <ele>187</ele>
        <time>2018-05-29T10:04:46Z</time>
      </trkpt>
      <trkpt lat="45.94691" lon="4.73998">
        <ele>187</ele>
        <time>2018-05-29T10:04:47Z</time>
      </trkpt>
      <trkpt lat="45.94687" lon="4.73993">
        <ele>187</ele>
        <time>2018-05-29T10:04:48Z</time>
      </trkpt>
      <trkpt lat="45.94683" lon="4.73988">
        <ele>187</ele>
        <time>2018-05-29T10:04:49Z</time>
      </trkpt>
      <trkpt lat="45.94679" lon="4.73982">
        <ele>187</ele>
        <time>2018-05-29T10:04:50Z</time>
      </trkpt>
      <trkpt lat="45.94675" lon="4.73977">
        <ele>187</ele>
        <time>2018-05-29T10:04:51Z</time>
      </trkpt>
      <trkpt lat="45.94671" lon="4.73972">
        <ele>187</ele>
        <time>2018-05-29T10:04:52Z</time>
      </trkpt>
      <trkpt lat="45.94668" lon="4.73966">
        <ele>187</ele>
        <time>2018-05-29T10:04:53Z</time>
      </trkpt>
      <trkpt lat="45.94663" lon="4.73961">
        <ele>187</ele>
        <time>2018-05-29T10:04:54Z</time>
      </trkpt>
      <trkpt lat="45.94658" lon="4.73955">
        <ele>187</ele>
        <time>2018-05-29T10:04:55Z</time>
      </trkpt>
      <trkpt lat="45.94654" lon="4.73949">
        <ele>187</ele>
        <time>2018-05-29T10:04:56Z</time>
      </trkpt>
      <trkpt lat="45.9465" lon="4.73943">
        <ele>187</ele>
        <time>2018-05-29T10:04:57Z</time>
      </trkpt>
      <trkpt lat="45.94646" lon="4.73938">
        <ele>187</ele>
        <time>2018-05-29T10:04:58Z</time>
      </trkpt>
      <trkpt lat="45.94642" lon="4.73932">
        <ele>187</ele>
        <time>2018-05-29T10:04:59Z</time>
      </trkpt>
      <trkpt lat="45.94637" lon="4.73928">
        <ele>187</ele>
        <time>2018-05-29T10:05:00Z</time>
      </trkpt>
      <trkpt lat="45.94633" lon="4.73922">
        <ele>187</ele>
        <time>2018-05-29T10:05:01Z</time>
      </trkpt>
      <trkpt lat="45.94629" lon="4.73917">
        <ele>187</ele>
        <time>2018-05-29T10:05:02Z</time>
      </trkpt>
      <trkpt lat="45.94625" lon="4.73913">
        <ele>187</ele>
        <time>2018-05-29T10:05:03Z</time>
      </trkpt>
      <trkpt lat="45.9462" lon="4.73908">
        <ele>187</ele>
        <time>2018-05-29T10:05:04Z</time>
      </trkpt>
      <trkpt lat="45.94615" lon="4.73902">
        <ele>187</ele>
        <time>2018-05-29T10:05:05Z</time>
      </trkpt>
      <trkpt lat="45.94611" lon="4.73897">
        <ele>187</ele>
        <time>2018-05-29T10:05:06Z</time>
      </trkpt>
      <trkpt lat="45.94608" lon="4.73892">
        <ele>187</ele>
        <time>2018-05-29T10:05:07Z</time>
      </trkpt>
      <trkpt lat="45.94603" lon="4.73887">
        <ele>187</ele>
        <time>2018-05-29T10:05:08Z</time>
      </trkpt>
      <trkpt lat="45.946" lon="4.73882">
        <ele>187</ele>
        <time>2018-05-29T10:05:09Z</time>
      </trkpt>
      <trkpt lat="45.94595" lon="4.73878">
        <ele>187</ele>
        <time>2018-05-29T10:05:10Z</time>
      </trkpt>
      <trkpt lat="45.94591" lon="4.73872">
        <ele>187</ele>
        <time>2018-05-29T10:05:11Z</time>
      </trkpt>
      <trkpt lat="45.94587" lon="4.73867">
        <ele>187</ele>
        <time>2018-05-29T10:05:12Z</time>
      </trkpt>
      <trkpt lat="45.94583" lon="4.73862">
        <ele>186</ele>
        <time>2018-05-29T10:05:13Z</time>
      </trkpt>
      <trkpt lat="45.94579" lon="4.73857">
        <ele>186</ele>
        <time>2018-05-29T10:05:14Z</time>
      </trkpt>
      <trkpt lat="45.94575" lon="4.73852">
        <ele>186</ele>
        <time>2018-05-29T10:05:15Z</time>
      </trkpt>
      <trkpt lat="45.94571" lon="4.73848">
        <ele>186</ele>
        <time>2018-05-29T10:05:16Z</time>
      </trkpt>
      <trkpt lat="45.94566" lon="4.73843">
        <ele>186</ele>
        <time>2018-05-29T10:05:17Z</time>
      </trkpt>
      <trkpt lat="45.94562" lon="4.73839">
        <ele>186</ele>
        <time>2018-05-29T10:05:18Z</time>
      </trkpt>
      <trkpt lat="45.94558" lon="4.73834">
        <ele>186</ele>
        <time>2018-05-29T10:05:19Z</time>
      </trkpt>
      <trkpt lat="45.94554" lon="4.7383">
        <ele>186</ele>
        <time>2018-05-29T10:05:20Z</time>
      </trkpt>
      <trkpt lat="45.9455" lon="4.73826">
        <ele>186</ele>
        <time>2018-05-29T10:05:21Z</time>
      </trkpt>
      <trkpt lat="45.94545" lon="4.73822">
        <ele>186</ele>
        <time>2018-05-29T10:05:22Z</time>
      </trkpt>
      <trkpt lat="45.9454" lon="4.73818">
        <ele>186</ele>
        <time>2018-05-29T10:05:23Z</time>
      </trkpt>
      <trkpt lat="45.94537" lon="4.73815">
        <ele>186</ele>
        <time>2018-05-29T10:05:24Z</time>
      </trkpt>
      <trkpt lat="45.94532" lon="4.73811">
        <ele>186</ele>
        <time>2018-05-29T10:05:25Z</time>
      </trkpt>
      <trkpt lat="45.94528" lon="4.73806">
        <ele>186</ele>
        <time>2018-05-29T10:05:26Z</time>
      </trkpt>
      <trkpt lat="45.94523" lon="4.73802">
        <ele>186</ele>
        <time>2018-05-29T10:05:27Z</time>
      </trkpt>
      <trkpt lat="45.9452" lon="4.73798">
        <ele>186</ele>
        <time>2018-05-29T10:05:28Z</time>
      </trkpt>
      <trkpt lat="45.94515" lon="4.73794">
        <ele>186</ele>
        <time>2018-05-29T10:05:29Z</time>
      </trkpt>
      <trkpt lat="45.9451" lon="4.73789">
        <ele>186</ele>
        <time>2018-05-29T10:05:30Z</time>
      </trkpt>
      <trkpt lat="45.94506" lon="4.73785">
        <ele>186</ele>
        <time>2018-05-29T10:05:31Z</time>
      </trkpt>
      <trkpt lat="45.94502" lon="4.73779">
        <ele>186</ele>
        <time>2018-05-29T10:05:32Z</time>
      </trkpt>
      <trkpt lat="45.94498" lon="4.73774">
        <ele>186</ele>
        <time>2018-05-29T10:05:33Z</time>
      </trkpt>
      <trkpt lat="45.94494" lon="4.73769">
        <ele>186</ele>
        <time>2018-05-29T10:05:34Z</time>
      </trkpt>
      <trkpt lat="45.94491" lon="4.73763">
        <ele>186</ele>
        <time>2018-05-29T10:05:35Z</time>
      </trkpt>
      <trkpt lat="45.94487" lon="4.73756">
        <ele>186</ele>
        <time>2018-05-29T10:05:36Z</time>
      </trkpt>
      <trkpt lat="45.94485" lon="4.73748">
        <ele>186</ele>
        <time>2018-05-29T10:05:37Z</time>
      </trkpt>
      <trkpt lat="45.94485" lon="4.7374">
        <ele>186</ele>
        <time>2018-05-29T10:05:38Z</time>
      </trkpt>
      <trkpt lat="45.94486" lon="4.73732">
        <ele>186</ele>
        <time>2018-05-29T10:05:39Z</time>
      </trkpt>
      <trkpt lat="45.94488" lon="4.73724">
        <ele>186</ele>
        <time>2018-05-29T10:05:40Z</time>
      </trkpt>
      <trkpt lat="45.94489" lon="4.73716">
        <ele>186</ele>
        <time>2018-05-29T10:05:41Z</time>
      </trkpt>
      <trkpt lat="45.9449" lon="4.73707">
        <ele>186</ele>
        <time>2018-05-29T10:05:42Z</time>
      </trkpt>
      <trkpt lat="45.94492" lon="4.73698">
        <ele>186</ele>
        <time>2018-05-29T10:05:43Z</time>
      </trkpt>
      <trkpt lat="45.94493" lon="4.73689">
        <ele>186</ele>
        <time>2018-05-29T10:05:44Z</time>
      </trkpt>
      <trkpt lat="45.94494" lon="4.73681">
        <ele>185</ele>
        <time>2018-05-29T10:05:45Z</time>
      </trkpt>
      <trkpt lat="45.94495" lon="4.73672">
        <ele>185</ele>
        <time>2018-05-29T10:05:46Z</time>
      </trkpt>
      <trkpt lat="45.94497" lon="4.73663">
        <ele>185</ele>
        <time>2018-05-29T10:05:47Z</time>
      </trkpt>
      <trkpt lat="45.94498" lon="4.73654">
        <ele>185</ele>
        <time>2018-05-29T10:05:48Z</time>
      </trkpt>
      <trkpt lat="45.94499" lon="4.73646">
        <ele>185</ele>
        <time>2018-05-29T10:05:49Z</time>
      </trkpt>
      <trkpt lat="45.945" lon="4.73638">
        <ele>184</ele>
        <time>2018-05-29T10:05:50Z</time>
      </trkpt>
      <trkpt lat="45.94502" lon="4.73629">
        <ele>184</ele>
        <time>2018-05-29T10:05:51Z</time>
      </trkpt>
      <trkpt lat="45.94504" lon="4.73621">
        <ele>184</ele>
        <time>2018-05-29T10:05:52Z</time>
      </trkpt>
      <trkpt lat="45.94504" lon="4.73611">
        <ele>184</ele>
        <time>2018-05-29T10:05:53Z</time>
      </trkpt>
      <trkpt lat="45.94505" lon="4.73601">
        <ele>184</ele>
        <time>2018-05-29T10:05:54Z</time>
      </trkpt>
      <trkpt lat="45.94506" lon="4.73591">
        <ele>185</ele>
        <time>2018-05-29T10:05:55Z</time>
      </trkpt>
      <trkpt lat="45.94507" lon="4.7358">
        <ele>184</ele>
        <time>2018-05-29T10:05:56Z</time>
      </trkpt>
      <trkpt lat="45.94507" lon="4.73571">
        <ele>184</ele>
        <time>2018-05-29T10:05:57Z</time>
      </trkpt>
      <trkpt lat="45.94507" lon="4.73561">
        <ele>184</ele>
        <time>2018-05-29T10:05:58Z</time>
      </trkpt>
      <trkpt lat="45.94508" lon="4.7355">
        <ele>183</ele>
        <time>2018-05-29T10:05:59Z</time>
      </trkpt>
      <trkpt lat="45.94507" lon="4.73539">
        <ele>183</ele>
        <time>2018-05-29T10:06:00Z</time>
      </trkpt>
      <trkpt lat="45.94508" lon="4.73528">
        <ele>183</ele>
        <time>2018-05-29T10:06:01Z</time>
      </trkpt>
      <trkpt lat="45.94508" lon="4.73516">
        <ele>183</ele>
        <time>2018-05-29T10:06:02Z</time>
      </trkpt>
      <trkpt lat="45.94507" lon="4.73505">
        <ele>183</ele>
        <time>2018-05-29T10:06:03Z</time>
      </trkpt>
      <trkpt lat="45.94507" lon="4.73493">
        <ele>182</ele>
        <time>2018-05-29T10:06:04Z</time>
      </trkpt>
      <trkpt lat="45.94508" lon="4.73482">
        <ele>182</ele>
        <time>2018-05-29T10:06:05Z</time>
      </trkpt>
      <trkpt lat="45.94506" lon="4.73471">
        <ele>182</ele>
        <time>2018-05-29T10:06:06Z</time>
      </trkpt>
      <trkpt lat="45.94506" lon="4.73459">
        <ele>181</ele>
        <time>2018-05-29T10:06:07Z</time>
      </trkpt>
      <trkpt lat="45.94507" lon="4.73448">
        <ele>181</ele>
        <time>2018-05-29T10:06:08Z</time>
      </trkpt>
      <trkpt lat="45.94506" lon="4.73436">
        <ele>181</ele>
        <time>2018-05-29T10:06:09Z</time>
      </trkpt>
      <trkpt lat="45.94506" lon="4.73425">
        <ele>180</ele>
        <time>2018-05-29T10:06:10Z</time>
      </trkpt>
      <trkpt lat="45.94504" lon="4.73412">
        <ele>180</ele>
        <time>2018-05-29T10:06:11Z</time>
      </trkpt>
      <trkpt lat="45.94502" lon="4.73399">
        <ele>179</ele>
        <time>2018-05-29T10:06:12Z</time>
      </trkpt>
      <trkpt lat="45.94501" lon="4.73388">
        <ele>179</ele>
        <time>2018-05-29T10:06:13Z</time>
      </trkpt>
      <trkpt lat="45.945" lon="4.73376">
        <ele>178</ele>
        <time>2018-05-29T10:06:14Z</time>
      </trkpt>
      <trkpt lat="45.94499" lon="4.73364">
        <ele>179</ele>
        <time>2018-05-29T10:06:15Z</time>
      </trkpt>
      <trkpt lat="45.94498" lon="4.73352">
        <ele>178</ele>
        <time>2018-05-29T10:06:16Z</time>
      </trkpt>
      <trkpt lat="45.94496" lon="4.73341">
        <ele>178</ele>
        <time>2018-05-29T10:06:17Z</time>
      </trkpt>
      <trkpt lat="45.94496" lon="4.73329">
        <ele>177</ele>
        <time>2018-05-29T10:06:18Z</time>
      </trkpt>
      <trkpt lat="45.94494" lon="4.73318">
        <ele>177</ele>
        <time>2018-05-29T10:06:19Z</time>
      </trkpt>
      <trkpt lat="45.94493" lon="4.73305">
        <ele>177</ele>
        <time>2018-05-29T10:06:20Z</time>
      </trkpt>
      <trkpt lat="45.94491" lon="4.73293">
        <ele>177</ele>
        <time>2018-05-29T10:06:21Z</time>
      </trkpt>
      <trkpt lat="45.94489" lon="4.73281">
        <ele>177</ele>
        <time>2018-05-29T10:06:22Z</time>
      </trkpt>
      <trkpt lat="45.94488" lon="4.73268">
        <ele>177</ele>
        <time>2018-05-29T10:06:23Z</time>
      </trkpt>
      <trkpt lat="45.94487" lon="4.73256">
        <ele>176</ele>
        <time>2018-05-29T10:06:24Z</time>
      </trkpt>
      <trkpt lat="45.94486" lon="4.73245">
        <ele>175</ele>
        <time>2018-05-29T10:06:25Z</time>
      </trkpt>
      <trkpt lat="45.94484" lon="4.73233">
        <ele>175</ele>
        <time>2018-05-29T10:06:26Z</time>
      </trkpt>
      <trkpt lat="45.94482" lon="4.7322">
        <ele>175</ele>
        <time>2018-05-29T10:06:27Z</time>
      </trkpt>
      <trkpt lat="45.9448" lon="4.73208">
        <ele>175</ele>
        <time>2018-05-29T10:06:28Z</time>
      </trkpt>
      <trkpt lat="45.94479" lon="4.73195">
        <ele>174</ele>
        <time>2018-05-29T10:06:29Z</time>
      </trkpt>
      <trkpt lat="45.94478" lon="4.73183">
        <ele>174</ele>
        <time>2018-05-29T10:06:30Z</time>
      </trkpt>
      <trkpt lat="45.94476" lon="4.73172">
        <ele>174</ele>
        <time>2018-05-29T10:06:31Z</time>
      </trkpt>
      <trkpt lat="45.94475" lon="4.73161">
        <ele>173</ele>
        <time>2018-05-29T10:06:32Z</time>
      </trkpt>
      <trkpt lat="45.94473" lon="4.7315">
        <ele>172</ele>
        <time>2018-05-29T10:06:33Z</time>
      </trkpt>
      <trkpt lat="45.94472" lon="4.73139">
        <ele>172</ele>
        <time>2018-05-29T10:06:34Z</time>
      </trkpt>
      <trkpt lat="45.94471" lon="4.73128">
        <ele>172</ele>
        <time>2018-05-29T10:06:35Z</time>
      </trkpt>
      <trkpt lat="45.9447" lon="4.73118">
        <ele>172</ele>
        <time>2018-05-29T10:06:36Z</time>
      </trkpt>
      <trkpt lat="45.94469" lon="4.73107">
        <ele>172</ele>
        <time>2018-05-29T10:06:37Z</time>
      </trkpt>
      <trkpt lat="45.94468" lon="4.73097">
        <ele>172</ele>
        <time>2018-05-29T10:06:38Z</time>
      </trkpt>
      <trkpt lat="45.94466" lon="4.73088">
        <ele>171</ele>
        <time>2018-05-29T10:06:39Z</time>
      </trkpt>
      <trkpt lat="45.94465" lon="4.73078">
        <ele>170</ele>
        <time>2018-05-29T10:06:40Z</time>
      </trkpt>
      <trkpt lat="45.94464" lon="4.73069">
        <ele>170</ele>
        <time>2018-05-29T10:06:41Z</time>
      </trkpt>
      <trkpt lat="45.94462" lon="4.7306">
        <ele>170</ele>
        <time>2018-05-29T10:06:42Z</time>
      </trkpt>
      <trkpt lat="45.94461" lon="4.73051">
        <ele>170</ele>
        <time>2018-05-29T10:06:43Z</time>
      </trkpt>
      <trkpt lat="45.9446" lon="4.73043">
        <ele>170</ele>
        <time>2018-05-29T10:06:44Z</time>
      </trkpt>
      <trkpt lat="45.94458" lon="4.73033">
        <ele>169</ele>
        <time>2018-05-29T10:06:45Z</time>
      </trkpt>
      <trkpt lat="45.94457" lon="4.73024">
        <ele>169</ele>
        <time>2018-05-29T10:06:46Z</time>
      </trkpt>
      <trkpt lat="45.94456" lon="4.73016">
        <ele>169</ele>
        <time>2018-05-29T10:06:47Z</time>
      </trkpt>
      <trkpt lat="45.94455" lon="4.73007">
        <ele>169</ele>
        <time>2018-05-29T10:06:48Z</time>
      </trkpt>
      <trkpt lat="45.94453" lon="4.72998">
        <ele>168</ele>
        <time>2018-05-29T10:06:49Z</time>
      </trkpt>
      <trkpt lat="45.94452" lon="4.72989">
        <ele>167</ele>
        <time>2018-05-29T10:06:50Z</time>
      </trkpt>
      <trkpt lat="45.94452" lon="4.72981">
        <ele>167</ele>
        <time>2018-05-29T10:06:51Z</time>
      </trkpt>
      <trkpt lat="45.9445" lon="4.72974">
        <ele>167</ele>
        <time>2018-05-29T10:06:52Z</time>
      </trkpt>
      <trkpt lat="45.9445" lon="4.72966">
        <ele>167</ele>
        <time>2018-05-29T10:06:53Z</time>
      </trkpt>
      <trkpt lat="45.94448" lon="4.72958">
        <ele>167</ele>
        <time>2018-05-29T10:06:54Z</time>
      </trkpt>
      <trkpt lat="45.94447" lon="4.7295">
        <ele>167</ele>
        <time>2018-05-29T10:06:55Z</time>
      </trkpt>
      <trkpt lat="45.94447" lon="4.72942">
        <ele>167</ele>
        <time>2018-05-29T10:06:56Z</time>
      </trkpt>
      <trkpt lat="45.94445" lon="4.72935">
        <ele>167</ele>
        <time>2018-05-29T10:06:57Z</time>
      </trkpt>
      <trkpt lat="45.94443" lon="4.72926">
        <ele>167</ele>
        <time>2018-05-29T10:06:58Z</time>
      </trkpt>
      <trkpt lat="45.94443" lon="4.72919">
        <ele>167</ele>
        <time>2018-05-29T10:06:59Z</time>
      </trkpt>
      <trkpt lat="45.94442" lon="4.72911">
        <ele>166</ele>
        <time>2018-05-29T10:07:00Z</time>
      </trkpt>
      <trkpt lat="45.9444" lon="4.72904">
        <ele>166</ele>
        <time>2018-05-29T10:07:01Z</time>
      </trkpt>
      <trkpt lat="45.9444" lon="4.72895">
        <ele>166</ele>
        <time>2018-05-29T10:07:02Z</time>
      </trkpt>
      <trkpt lat="45.94439" lon="4.72887">
        <ele>166</ele>
        <time>2018-05-29T10:07:03Z</time>
      </trkpt>
      <trkpt lat="45.94437" lon="4.72878">
        <ele>166</ele>
        <time>2018-05-29T10:07:04Z</time>
      </trkpt>
      <trkpt lat="45.94436" lon="4.7287">
        <ele>166</ele>
        <time>2018-05-29T10:07:05Z</time>
      </trkpt>
      <trkpt lat="45.94435" lon="4.72862">
        <ele>166</ele>
        <time>2018-05-29T10:07:06Z</time>
      </trkpt>
      <trkpt lat="45.94434" lon="4.72854">
        <ele>166</ele>
        <time>2018-05-29T10:07:07Z</time>
      </trkpt>
      <trkpt lat="45.94433" lon="4.72845">
        <ele>166</ele>
        <time>2018-05-29T10:07:08Z</time>
      </trkpt>
      <trkpt lat="45.94432" lon="4.72836">
        <ele>166</ele>
        <time>2018-05-29T10:07:09Z</time>
      </trkpt>
      <trkpt lat="45.9443" lon="4.72827">
        <ele>167</ele>
        <time>2018-05-29T10:07:10Z</time>
      </trkpt>
      <trkpt lat="45.94429" lon="4.72818">
        <ele>167</ele>
        <time>2018-05-29T10:07:11Z</time>
      </trkpt>
      <trkpt lat="45.94428" lon="4.72809">
        <ele>167</ele>
        <time>2018-05-29T10:07:12Z</time>
      </trkpt>
      <trkpt lat="45.94426" lon="4.72799">
        <ele>167</ele>
        <time>2018-05-29T10:07:13Z</time>
      </trkpt>
      <trkpt lat="45.94425" lon="4.72789">
        <ele>168</ele>
        <time>2018-05-29T10:07:14Z</time>
      </trkpt>
      <trkpt lat="45.94423" lon="4.72779">
        <ele>168</ele>
        <time>2018-05-29T10:07:15Z</time>
      </trkpt>
      <trkpt lat="45.94422" lon="4.72768">
        <ele>169</ele>
        <time>2018-05-29T10:07:16Z</time>
      </trkpt>
      <trkpt lat="45.94421" lon="4.72758">
        <ele>170</ele>
        <time>2018-05-29T10:07:17Z</time>
      </trkpt>
      <trkpt lat="45.9442" lon="4.72747">
        <ele>171</ele>
        <time>2018-05-29T10:07:18Z</time>
      </trkpt>
      <trkpt lat="45.94419" lon="4.72737">
        <ele>171</ele>
        <time>2018-05-29T10:07:19Z</time>
      </trkpt>
      <trkpt lat="45.94418" lon="4.72727">
        <ele>171</ele>
        <time>2018-05-29T10:07:20Z</time>
      </trkpt>
      <trkpt lat="45.94417" lon="4.72716">
        <ele>172</ele>
        <time>2018-05-29T10:07:21Z</time>
      </trkpt>
      <trkpt lat="45.94416" lon="4.72707">
        <ele>172</ele>
        <time>2018-05-29T10:07:22Z</time>
      </trkpt>
      <trkpt lat="45.94414" lon="4.72697">
        <ele>173</ele>
        <time>2018-05-29T10:07:23Z</time>
      </trkpt>
      <trkpt lat="45.94413" lon="4.72688">
        <ele>173</ele>
        <time>2018-05-29T10:07:24Z</time>
      </trkpt>
      <trkpt lat="45.94413" lon="4.72679">
        <ele>173</ele>
        <time>2018-05-29T10:07:25Z</time>
      </trkpt>
      <trkpt lat="45.94412" lon="4.7267">
        <ele>174</ele>
        <time>2018-05-29T10:07:26Z</time>
      </trkpt>
      <trkpt lat="45.94411" lon="4.72661">
        <ele>174</ele>
        <time>2018-05-29T10:07:27Z</time>
      </trkpt>
      <trkpt lat="45.94409" lon="4.72652">
        <ele>174</ele>
        <time>2018-05-29T10:07:28Z</time>
      </trkpt>
      <trkpt lat="45.94408" lon="4.72644">
        <ele>174</ele>
        <time>2018-05-29T10:07:29Z</time>
      </trkpt>
      <trkpt lat="45.94406" lon="4.72635">
        <ele>174</ele>
        <time>2018-05-29T10:07:30Z</time>
      </trkpt>
      <trkpt lat="45.94406" lon="4.72627">
        <ele>174</ele>
        <time>2018-05-29T10:07:31Z</time>
      </trkpt>
      <trkpt lat="45.94404" lon="4.72619">
        <ele>173</ele>
        <time>2018-05-29T10:07:32Z</time>
      </trkpt>
      <trkpt lat="45.94403" lon="4.7261">
        <ele>173</ele>
        <time>2018-05-29T10:07:33Z</time>
      </trkpt>
      <trkpt lat="45.94402" lon="4.72601">
        <ele>173</ele>
        <time>2018-05-29T10:07:34Z</time>
      </trkpt>
      <trkpt lat="45.94402" lon="4.72593">
        <ele>173</ele>
        <time>2018-05-29T10:07:35Z</time>
      </trkpt>
      <trkpt lat="45.944" lon="4.72583">
        <ele>173</ele>
        <time>2018-05-29T10:07:36Z</time>
      </trkpt>
      <trkpt lat="45.94397" lon="4.72574">
        <ele>173</ele>
        <time>2018-05-29T10:07:37Z</time>
      </trkpt>
      <trkpt lat="45.94396" lon="4.72565">
        <ele>173</ele>
        <time>2018-05-29T10:07:38Z</time>
      </trkpt>
      <trkpt lat="45.94393" lon="4.72555">
        <ele>173</ele>
        <time>2018-05-29T10:07:39Z</time>
      </trkpt>
      <trkpt lat="45.94392" lon="4.72547">
        <ele>173</ele>
        <time>2018-05-29T10:07:40Z</time>
      </trkpt>
      <trkpt lat="45.94389" lon="4.72539">
        <ele>174</ele>
        <time>2018-05-29T10:07:41Z</time>
      </trkpt>
      <trkpt lat="45.94388" lon="4.72532">
        <ele>174</ele>
        <time>2018-05-29T10:07:42Z</time>
      </trkpt>
      <trkpt lat="45.94385" lon="4.72523">
        <ele>174</ele>
        <time>2018-05-29T10:07:43Z</time>
      </trkpt>
      <trkpt lat="45.94383" lon="4.72516">
        <ele>174</ele>
        <time>2018-05-29T10:07:44Z</time>
      </trkpt>
      <trkpt lat="45.94381" lon="4.72507">
        <ele>174</ele>
        <time>2018-05-29T10:07:45Z</time>
      </trkpt>
      <trkpt lat="45.94378" lon="4.725">
        <ele>173</ele>
        <time>2018-05-29T10:07:46Z</time>
      </trkpt>
      <trkpt lat="45.94375" lon="4.72491">
        <ele>173</ele>
        <time>2018-05-29T10:07:47Z</time>
      </trkpt>
      <trkpt lat="45.94374" lon="4.72485">
        <ele>173</ele>
        <time>2018-05-29T10:07:48Z</time>
      </trkpt>
      <trkpt lat="45.94371" lon="4.72477">
        <ele>173</ele>
        <time>2018-05-29T10:07:49Z</time>
      </trkpt>
      <trkpt lat="45.94369" lon="4.7247">
        <ele>173</ele>
        <time>2018-05-29T10:07:50Z</time>
      </trkpt>
      <trkpt lat="45.94365" lon="4.72463">
        <ele>173</ele>
        <time>2018-05-29T10:07:51Z</time>
      </trkpt>
      <trkpt lat="45.94362" lon="4.72456">
        <ele>173</ele>
        <time>2018-05-29T10:07:52Z</time>
      </trkpt>
      <trkpt lat="45.9436" lon="4.72449">
        <ele>173</ele>
        <time>2018-05-29T10:07:53Z</time>
      </trkpt>
      <trkpt lat="45.94357" lon="4.72441">
        <ele>173</ele>
        <time>2018-05-29T10:07:54Z</time>
      </trkpt>
      <trkpt lat="45.94351" lon="4.72431">
        <ele>173</ele>
        <time>2018-05-29T10:07:55Z</time>
      </trkpt>
      <trkpt lat="45.94348" lon="4.72423">
        <ele>173</ele>
        <time>2018-05-29T10:07:56Z</time>
      </trkpt>
      <trkpt lat="45.94345" lon="4.72415">
        <ele>173</ele>
        <time>2018-05-29T10:07:57Z</time>
      </trkpt>
      <trkpt lat="45.94342" lon="4.72407">
        <ele>173</ele>
        <time>2018-05-29T10:07:58Z</time>
      </trkpt>
      <trkpt lat="45.94339" lon="4.72399">
        <ele>172</ele>
        <time>2018-05-29T10:07:59Z</time>
      </trkpt>
      <trkpt lat="45.94335" lon="4.7239">
        <ele>172</ele>
        <time>2018-05-29T10:08:00Z</time>
      </trkpt>
      <trkpt lat="45.94332" lon="4.72383">
        <ele>172</ele>
        <time>2018-05-29T10:08:01Z</time>
      </trkpt>
      <trkpt lat="45.9433" lon="4.72375">
        <ele>172</ele>
        <time>2018-05-29T10:08:02Z</time>
      </trkpt>
      <trkpt lat="45.94325" lon="4.72368">
        <ele>172</ele>
        <time>2018-05-29T10:08:03Z</time>
      </trkpt>
      <trkpt lat="45.94322" lon="4.72361">
        <ele>172</ele>
        <time>2018-05-29T10:08:04Z</time>
      </trkpt>
      <trkpt lat="45.94318" lon="4.72353">
        <ele>172</ele>
        <time>2018-05-29T10:08:05Z</time>
      </trkpt>
      <trkpt lat="45.94313" lon="4.72347">
        <ele>172</ele>
        <time>2018-05-29T10:08:06Z</time>
      </trkpt>
      <trkpt lat="45.94311" lon="4.72339">
        <ele>172</ele>
        <time>2018-05-29T10:08:07Z</time>
      </trkpt>
      <trkpt lat="45.9431" lon="4.72331">
        <ele>172</ele>
        <time>2018-05-29T10:08:08Z</time>
      </trkpt>
      <trkpt lat="45.94306" lon="4.72325">
        <ele>171</ele>
        <time>2018-05-29T10:08:09Z</time>
      </trkpt>
      <trkpt lat="45.94303" lon="4.72317">
        <ele>171</ele>
        <time>2018-05-29T10:08:10Z</time>
      </trkpt>
      <trkpt lat="45.94299" lon="4.72309">
        <ele>171</ele>
        <time>2018-05-29T10:08:11Z</time>
      </trkpt>
      <trkpt lat="45.94297" lon="4.72303">
        <ele>171</ele>
        <time>2018-05-29T10:08:12Z</time>
      </trkpt>
      <trkpt lat="45.94294" lon="4.72297">
        <ele>171</ele>
        <time>2018-05-29T10:08:13Z</time>
      </trkpt>
      <trkpt lat="45.94291" lon="4.7229">
        <ele>171</ele>
        <time>2018-05-29T10:08:14Z</time>
      </trkpt>
      <trkpt lat="45.94288" lon="4.72284">
        <ele>171</ele>
        <time>2018-05-29T10:08:15Z</time>
      </trkpt>
      <trkpt lat="45.94286" lon="4.72278">
        <ele>171</ele>
        <time>2018-05-29T10:08:16Z</time>
      </trkpt>
      <trkpt lat="45.94283" lon="4.72273">
        <ele>171</ele>
        <time>2018-05-29T10:08:17Z</time>
      </trkpt>
      <trkpt lat="45.94276" lon="4.72265">
        <ele>171</ele>
        <time>2018-05-29T10:08:19Z</time>
      </trkpt>
      <trkpt lat="45.9427" lon="4.72266">
        <ele>171</ele>
        <time>2018-05-29T10:08:20Z</time>
      </trkpt>
      <trkpt lat="45.94266" lon="4.72271">
        <ele>171</ele>
        <time>2018-05-29T10:08:21Z</time>
      </trkpt>
      <trkpt lat="45.94261" lon="4.72272">
        <ele>171</ele>
        <time>2018-05-29T10:08:22Z</time>
      </trkpt>
      <trkpt lat="45.94256" lon="4.72277">
        <ele>171</ele>
        <time>2018-05-29T10:08:23Z</time>
      </trkpt>
      <trkpt lat="45.94251" lon="4.72279">
        <ele>171</ele>
        <time>2018-05-29T10:08:24Z</time>
      </trkpt>
      <trkpt lat="45.94245" lon="4.72281">
        <ele>171</ele>
        <time>2018-05-29T10:08:25Z</time>
      </trkpt>
      <trkpt lat="45.94239" lon="4.72283">
        <ele>171</ele>
        <time>2018-05-29T10:08:26Z</time>
      </trkpt>
      <trkpt lat="45.94233" lon="4.72285">
        <ele>171</ele>
        <time>2018-05-29T10:08:27Z</time>
      </trkpt>
      <trkpt lat="45.94227" lon="4.72286">
        <ele>171</ele>
        <time>2018-05-29T10:08:28Z</time>
      </trkpt>
      <trkpt lat="45.94221" lon="4.72286">
        <ele>171</ele>
        <time>2018-05-29T10:08:29Z</time>
      </trkpt>
      <trkpt lat="45.94216" lon="4.72286">
        <ele>171</ele>
        <time>2018-05-29T10:08:30Z</time>
      </trkpt>
      <trkpt lat="45.9421" lon="4.72286">
        <ele>171</ele>
        <time>2018-05-29T10:08:31Z</time>
      </trkpt>
      <trkpt lat="45.94205" lon="4.72286">
        <ele>171</ele>
        <time>2018-05-29T10:08:32Z</time>
      </trkpt>
      <trkpt lat="45.94199" lon="4.72286">
        <ele>171</ele>
        <time>2018-05-29T10:08:33Z</time>
      </trkpt>
      <trkpt lat="45.94193" lon="4.72286">
        <ele>171</ele>
        <time>2018-05-29T10:08:34Z</time>
      </trkpt>
      <trkpt lat="45.94188" lon="4.72286">
        <ele>171</ele>
        <time>2018-05-29T10:08:35Z</time>
      </trkpt>
      <trkpt lat="45.94184" lon="4.72285">
        <ele>171</ele>
        <time>2018-05-29T10:08:36Z</time>
      </trkpt>
      <trkpt lat="45.94179" lon="4.72285">
        <ele>171</ele>
        <time>2018-05-29T10:08:37Z</time>
      </trkpt>
      <trkpt lat="45.94174" lon="4.72285">
        <ele>171</ele>
        <time>2018-05-29T10:08:38Z</time>
      </trkpt>
      <trkpt lat="45.94168" lon="4.72284">
        <ele>171</ele>
        <time>2018-05-29T10:08:39Z</time>
      </trkpt>
      <trkpt lat="45.94164" lon="4.72284">
        <ele>171</ele>
        <time>2018-05-29T10:08:40Z</time>
      </trkpt>
      <trkpt lat="45.94158" lon="4.72282">
        <ele>171</ele>
        <time>2018-05-29T10:08:41Z</time>
      </trkpt>
      <trkpt lat="45.94154" lon="4.72282">
        <ele>171</ele>
        <time>2018-05-29T10:08:42Z</time>
      </trkpt>
      <trkpt lat="45.94149" lon="4.72279">
        <ele>171</ele>
        <time>2018-05-29T10:08:43Z</time>
      </trkpt>
      <trkpt lat="45.94144" lon="4.72277">
        <ele>171</ele>
        <time>2018-05-29T10:08:44Z</time>
      </trkpt>
      <trkpt lat="45.94139" lon="4.72275">
        <ele>171</ele>
        <time>2018-05-29T10:08:45Z</time>
      </trkpt>
      <trkpt lat="45.94134" lon="4.72271">
        <ele>171</ele>
        <time>2018-05-29T10:08:46Z</time>
      </trkpt>
      <trkpt lat="45.94129" lon="4.72269">
        <ele>171</ele>
        <time>2018-05-29T10:08:47Z</time>
      </trkpt>
      <trkpt lat="45.94123" lon="4.72266">
        <ele>171</ele>
        <time>2018-05-29T10:08:48Z</time>
      </trkpt>
      <trkpt lat="45.94118" lon="4.72265">
        <ele>171</ele>
        <time>2018-05-29T10:08:49Z</time>
      </trkpt>
      <trkpt lat="45.94113" lon="4.72263">
        <ele>171</ele>
        <time>2018-05-29T10:08:50Z</time>
      </trkpt>
      <trkpt lat="45.94108" lon="4.72261">
        <ele>171</ele>
        <time>2018-05-29T10:08:51Z</time>
      </trkpt>
      <trkpt lat="45.94103" lon="4.72261">
        <ele>171</ele>
        <time>2018-05-29T10:08:52Z</time>
      </trkpt>
      <trkpt lat="45.94098" lon="4.72261">
        <ele>171</ele>
        <time>2018-05-29T10:08:53Z</time>
      </trkpt>
      <trkpt lat="45.94093" lon="4.72262">
        <ele>171</ele>
        <time>2018-05-29T10:08:54Z</time>
      </trkpt>
      <trkpt lat="45.94088" lon="4.72263">
        <ele>171</ele>
        <time>2018-05-29T10:08:55Z</time>
      </trkpt>
      <trkpt lat="45.94083" lon="4.72265">
        <ele>171</ele>
        <time>2018-05-29T10:08:56Z</time>
      </trkpt>
      <trkpt lat="45.94078" lon="4.72267">
        <ele>171</ele>
        <time>2018-05-29T10:08:57Z</time>
      </trkpt>
      <trkpt lat="45.94074" lon="4.7227">
        <ele>171</ele>
        <time>2018-05-29T10:08:58Z</time>
      </trkpt>
      <trkpt lat="45.94069" lon="4.72274">
        <ele>171</ele>
        <time>2018-05-29T10:08:59Z</time>
      </trkpt>
      <trkpt lat="45.94065" lon="4.72278">
        <ele>171</ele>
        <time>2018-05-29T10:09:00Z</time>
      </trkpt>
      <trkpt lat="45.94061" lon="4.72283">
        <ele>171</ele>
        <time>2018-05-29T10:09:01Z</time>
      </trkpt>
      <trkpt lat="45.94057" lon="4.72288">
        <ele>171</ele>
        <time>2018-05-29T10:09:02Z</time>
      </trkpt>
      <trkpt lat="45.94053" lon="4.72293">
        <ele>171</ele>
        <time>2018-05-29T10:09:03Z</time>
      </trkpt>
      <trkpt lat="45.94049" lon="4.72298">
        <ele>171</ele>
        <time>2018-05-29T10:09:04Z</time>
      </trkpt>
      <trkpt lat="45.94046" lon="4.72303">
        <ele>171</ele>
        <time>2018-05-29T10:09:05Z</time>
      </trkpt>
      <trkpt lat="45.94042" lon="4.72308">
        <ele>171</ele>
        <time>2018-05-29T10:09:06Z</time>
      </trkpt>
      <trkpt lat="45.94037" lon="4.72312">
        <ele>171</ele>
        <time>2018-05-29T10:09:07Z</time>
      </trkpt>
      <trkpt lat="45.94033" lon="4.72318">
        <ele>171</ele>
        <time>2018-05-29T10:09:08Z</time>
      </trkpt>
      <trkpt lat="45.94029" lon="4.72323">
        <ele>171</ele>
        <time>2018-05-29T10:09:09Z</time>
      </trkpt>
      <trkpt lat="45.94024" lon="4.72329">
        <ele>171</ele>
        <time>2018-05-29T10:09:10Z</time>
      </trkpt>
      <trkpt lat="45.9402" lon="4.72333">
        <ele>171</ele>
        <time>2018-05-29T10:09:11Z</time>
      </trkpt>
      <trkpt lat="45.94016" lon="4.72338">
        <ele>171</ele>
        <time>2018-05-29T10:09:12Z</time>
      </trkpt>
      <trkpt lat="45.94012" lon="4.72344">
        <ele>171</ele>
        <time>2018-05-29T10:09:13Z</time>
      </trkpt>
      <trkpt lat="45.94008" lon="4.72349">
        <ele>171</ele>
        <time>2018-05-29T10:09:14Z</time>
      </trkpt>
      <trkpt lat="45.94004" lon="4.72354">
        <ele>171</ele>
        <time>2018-05-29T10:09:15Z</time>
      </trkpt>
      <trkpt lat="45.94" lon="4.72361">
        <ele>171</ele>
        <time>2018-05-29T10:09:16Z</time>
      </trkpt>
      <trkpt lat="45.93995" lon="4.72368">
        <ele>171</ele>
        <time>2018-05-29T10:09:17Z</time>
      </trkpt>
      <trkpt lat="45.93991" lon="4.72373">
        <ele>171</ele>
        <time>2018-05-29T10:09:18Z</time>
      </trkpt>
      <trkpt lat="45.93987" lon="4.72378">
        <ele>171</ele>
        <time>2018-05-29T10:09:19Z</time>
      </trkpt>
      <trkpt lat="45.93983" lon="4.72383">
        <ele>171</ele>
        <time>2018-05-29T10:09:20Z</time>
      </trkpt>
      <trkpt lat="45.93979" lon="4.72388">
        <ele>171</ele>
        <time>2018-05-29T10:09:21Z</time>
      </trkpt>
      <trkpt lat="45.93975" lon="4.72392">
        <ele>171</ele>
        <time>2018-05-29T10:09:22Z</time>
      </trkpt>
      <trkpt lat="45.93971" lon="4.72396">
        <ele>171</ele>
        <time>2018-05-29T10:09:23Z</time>
      </trkpt>
      <trkpt lat="45.93968" lon="4.72401">
        <ele>171</ele>
        <time>2018-05-29T10:09:24Z</time>
      </trkpt>
      <trkpt lat="45.93964" lon="4.72405">
        <ele>171</ele>
        <time>2018-05-29T10:09:25Z</time>
      </trkpt>
      <trkpt lat="45.9396" lon="4.72409">
        <ele>171</ele>
        <time>2018-05-29T10:09:26Z</time>
      </trkpt>
      <trkpt lat="45.93956" lon="4.72413">
        <ele>171</ele>
        <time>2018-05-29T10:09:27Z</time>
      </trkpt>
      <trkpt lat="45.93952" lon="4.72417">
        <ele>171</ele>
        <time>2018-05-29T10:09:28Z</time>
      </trkpt>
      <trkpt lat="45.93949" lon="4.72422">
        <ele>171</ele>
        <time>2018-05-29T10:09:29Z</time>
      </trkpt>
      <trkpt lat="45.93946" lon="4.72426">
        <ele>171</ele>
        <time>2018-05-29T10:09:30Z</time>
      </trkpt>
      <trkpt lat="45.93939" lon="4.72435">
        <ele>171</ele>
        <time>2018-05-29T10:09:32Z</time>
      </trkpt>
      <trkpt lat="45.93935" lon="4.72439">
        <ele>171</ele>
        <time>2018-05-29T10:09:33Z</time>
      </trkpt>
      <trkpt lat="45.93932" lon="4.72444">
        <ele>171</ele>
        <time>2018-05-29T10:09:34Z</time>
      </trkpt>
      <trkpt lat="45.93928" lon="4.72448">
        <ele>171</ele>
        <time>2018-05-29T10:09:35Z</time>
      </trkpt>
      <trkpt lat="45.93922" lon="4.72456">
        <ele>171</ele>
        <time>2018-05-29T10:09:37Z</time>
      </trkpt>
      <trkpt lat="45.93919" lon="4.7246">
        <ele>171</ele>
        <time>2018-05-29T10:09:38Z</time>
      </trkpt>
      <trkpt lat="45.93912" lon="4.72467">
        <ele>172</ele>
        <time>2018-05-29T10:09:40Z</time>
      </trkpt>
      <trkpt lat="45.93909" lon="4.72472">
        <ele>172</ele>
        <time>2018-05-29T10:09:41Z</time>
      </trkpt>
      <trkpt lat="45.93903" lon="4.7248">
        <ele>172</ele>
        <time>2018-05-29T10:09:43Z</time>
      </trkpt>
      <trkpt lat="45.939" lon="4.72484">
        <ele>172</ele>
        <time>2018-05-29T10:09:44Z</time>
      </trkpt>
      <trkpt lat="45.93893" lon="4.7249">
        <ele>172</ele>
        <time>2018-05-29T10:09:46Z</time>
      </trkpt>
      <trkpt lat="45.9389" lon="4.72493">
        <ele>172</ele>
        <time>2018-05-29T10:09:47Z</time>
      </trkpt>
      <trkpt lat="45.93884" lon="4.72501">
        <ele>173</ele>
        <time>2018-05-29T10:09:49Z</time>
      </trkpt>
      <trkpt lat="45.93881" lon="4.72506">
        <ele>173</ele>
        <time>2018-05-29T10:09:50Z</time>
      </trkpt>
      <trkpt lat="45.93875" lon="4.72512">
        <ele>173</ele>
        <time>2018-05-29T10:09:52Z</time>
      </trkpt>
      <trkpt lat="45.93871" lon="4.72513">
        <ele>173</ele>
        <time>2018-05-29T10:09:53Z</time>
      </trkpt>
      <trkpt lat="45.93862" lon="4.72511">
        <ele>173</ele>
        <time>2018-05-29T10:09:55Z</time>
      </trkpt>
      <trkpt lat="45.93858" lon="4.7251">
        <ele>173</ele>
        <time>2018-05-29T10:09:56Z</time>
      </trkpt>
      <trkpt lat="45.9385" lon="4.72504">
        <ele>174</ele>
        <time>2018-05-29T10:09:59Z</time>
      </trkpt>
      <trkpt lat="45.93849" lon="4.72503">
        <ele>174</ele>
        <time>2018-05-29T10:10:00Z</time>
      </trkpt>
      <trkpt lat="45.93845" lon="4.725">
        <ele>173</ele>
        <time>2018-05-29T10:10:02Z</time>
      </trkpt>
      <trkpt lat="45.93835" lon="4.7249">
        <ele>173</ele>
        <time>2018-05-29T10:10:03Z</time>
      </trkpt>
      <trkpt lat="45.93833" lon="4.72485">
        <ele>173</ele>
        <time>2018-05-29T10:10:04Z</time>
      </trkpt>
      <trkpt lat="45.93831" lon="4.72477">
        <ele>173</ele>
        <time>2018-05-29T10:10:05Z</time>
      </trkpt>
      <trkpt lat="45.93827" lon="4.72466">
        <ele>172</ele>
        <time>2018-05-29T10:10:06Z</time>
      </trkpt>
      <trkpt lat="45.93821" lon="4.72462">
        <ele>172</ele>
        <time>2018-05-29T10:10:07Z</time>
      </trkpt>
      <trkpt lat="45.93814" lon="4.72454">
        <ele>172</ele>
        <time>2018-05-29T10:10:09Z</time>
      </trkpt>
      <trkpt lat="45.93813" lon="4.72454">
        <ele>172</ele>
        <time>2018-05-29T10:10:10Z</time>
      </trkpt>
      <trkpt lat="45.93805" lon="4.72448">
        <ele>172</ele>
        <time>2018-05-29T10:10:11Z</time>
      </trkpt>
      <trkpt lat="45.93799" lon="4.72441">
        <ele>172</ele>
        <time>2018-05-29T10:10:13Z</time>
      </trkpt>
      <trkpt lat="45.93796" lon="4.72437">
        <ele>172</ele>
        <time>2018-05-29T10:10:14Z</time>
      </trkpt>
      <trkpt lat="45.93789" lon="4.7243">
        <ele>172</ele>
        <time>2018-05-29T10:10:16Z</time>
      </trkpt>
      <trkpt lat="45.93785" lon="4.72427">
        <ele>172</ele>
        <time>2018-05-29T10:10:17Z</time>
      </trkpt>
      <trkpt lat="45.93779" lon="4.72421">
        <ele>172</ele>
        <time>2018-05-29T10:10:19Z</time>
      </trkpt>
      <trkpt lat="45.93776" lon="4.72417">
        <ele>171</ele>
        <time>2018-05-29T10:10:20Z</time>
      </trkpt>
      <trkpt lat="45.9377" lon="4.7241">
        <ele>171</ele>
        <time>2018-05-29T10:10:22Z</time>
      </trkpt>
      <trkpt lat="45.93767" lon="4.72406">
        <ele>171</ele>
        <time>2018-05-29T10:10:23Z</time>
      </trkpt>
      <trkpt lat="45.93762" lon="4.72402">
        <ele>171</ele>
        <time>2018-05-29T10:10:24Z</time>
      </trkpt>
      <trkpt lat="45.93758" lon="4.72398">
        <ele>171</ele>
        <time>2018-05-29T10:10:25Z</time>
      </trkpt>
      <trkpt lat="45.93753" lon="4.72394">
        <ele>171</ele>
        <time>2018-05-29T10:10:26Z</time>
      </trkpt>
      <trkpt lat="45.93748" lon="4.7239">
        <ele>171</ele>
        <time>2018-05-29T10:10:27Z</time>
      </trkpt>
      <trkpt lat="45.93744" lon="4.72385">
        <ele>171</ele>
        <time>2018-05-29T10:10:28Z</time>
      </trkpt>
      <trkpt lat="45.9374" lon="4.72382">
        <ele>171</ele>
        <time>2018-05-29T10:10:29Z</time>
      </trkpt>
      <trkpt lat="45.93735" lon="4.72379">
        <ele>171</ele>
        <time>2018-05-29T10:10:30Z</time>
      </trkpt>
      <trkpt lat="45.9373" lon="4.72376">
        <ele>171</ele>
        <time>2018-05-29T10:10:31Z</time>
      </trkpt>
      <trkpt lat="45.93724" lon="4.72373">
        <ele>172</ele>
        <time>2018-05-29T10:10:32Z</time>
      </trkpt>
      <trkpt lat="45.9372" lon="4.72369">
        <ele>172</ele>
        <time>2018-05-29T10:10:33Z</time>
      </trkpt>
      <trkpt lat="45.93713" lon="4.72362">
        <ele>172</ele>
        <time>2018-05-29T10:10:35Z</time>
      </trkpt>
      <trkpt lat="45.93709" lon="4.72359">
        <ele>172</ele>
        <time>2018-05-29T10:10:36Z</time>
      </trkpt>
      <trkpt lat="45.93705" lon="4.72357">
        <ele>171</ele>
        <time>2018-05-29T10:10:37Z</time>
      </trkpt>
      <trkpt lat="45.93699" lon="4.72355">
        <ele>171</ele>
        <time>2018-05-29T10:10:38Z</time>
      </trkpt>
      <trkpt lat="45.93698" lon="4.72353">
        <ele>171</ele>
        <time>2018-05-29T10:10:39Z</time>
      </trkpt>
      <trkpt lat="45.93691" lon="4.72349">
        <ele>171</ele>
        <time>2018-05-29T10:10:40Z</time>
      </trkpt>
      <trkpt lat="45.93687" lon="4.72346">
        <ele>171</ele>
        <time>2018-05-29T10:10:41Z</time>
      </trkpt>
      <trkpt lat="45.93682" lon="4.7234">
        <ele>171</ele>
        <time>2018-05-29T10:10:42Z</time>
      </trkpt>
      <trkpt lat="45.93678" lon="4.72338">
        <ele>171</ele>
        <time>2018-05-29T10:10:43Z</time>
      </trkpt>
      <trkpt lat="45.93674" lon="4.72334">
        <ele>171</ele>
        <time>2018-05-29T10:10:44Z</time>
      </trkpt>
      <trkpt lat="45.9367" lon="4.72328">
        <ele>171</ele>
        <time>2018-05-29T10:10:45Z</time>
      </trkpt>
      <trkpt lat="45.93666" lon="4.72325">
        <ele>171</ele>
        <time>2018-05-29T10:10:46Z</time>
      </trkpt>
      <trkpt lat="45.93661" lon="4.72315">
        <ele>172</ele>
        <time>2018-05-29T10:10:48Z</time>
      </trkpt>
      <trkpt lat="45.93657" lon="4.7231">
        <ele>172</ele>
        <time>2018-05-29T10:10:49Z</time>
      </trkpt>
      <trkpt lat="45.93652" lon="4.72306">
        <ele>172</ele>
        <time>2018-05-29T10:10:50Z</time>
      </trkpt>
      <trkpt lat="45.93648" lon="4.72303">
        <ele>172</ele>
        <time>2018-05-29T10:10:51Z</time>
      </trkpt>
      <trkpt lat="45.93642" lon="4.72298">
        <ele>172</ele>
        <time>2018-05-29T10:10:52Z</time>
      </trkpt>
      <trkpt lat="45.9364" lon="4.72294">
        <ele>172</ele>
        <time>2018-05-29T10:10:53Z</time>
      </trkpt>
      <trkpt lat="45.93633" lon="4.72285">
        <ele>172</ele>
        <time>2018-05-29T10:10:55Z</time>
      </trkpt>
      <trkpt lat="45.93628" lon="4.72282">
        <ele>172</ele>
        <time>2018-05-29T10:10:56Z</time>
      </trkpt>
      <trkpt lat="45.93621" lon="4.72276">
        <ele>172</ele>
        <time>2018-05-29T10:10:58Z</time>
      </trkpt>
      <trkpt lat="45.93617" lon="4.72271">
        <ele>172</ele>
        <time>2018-05-29T10:10:59Z</time>
      </trkpt>
      <trkpt lat="45.9361" lon="4.72264">
        <ele>172</ele>
        <time>2018-05-29T10:11:01Z</time>
      </trkpt>
      <trkpt lat="45.93605" lon="4.7226">
        <ele>173</ele>
        <time>2018-05-29T10:11:02Z</time>
      </trkpt>
      <trkpt lat="45.93598" lon="4.72253">
        <ele>173</ele>
        <time>2018-05-29T10:11:04Z</time>
      </trkpt>
      <trkpt lat="45.93595" lon="4.72249">
        <ele>173</ele>
        <time>2018-05-29T10:11:05Z</time>
      </trkpt>
      <trkpt lat="45.93591" lon="4.72246">
        <ele>173</ele>
        <time>2018-05-29T10:11:06Z</time>
      </trkpt>
      <trkpt lat="45.93587" lon="4.72241">
        <ele>173</ele>
        <time>2018-05-29T10:11:07Z</time>
      </trkpt>
      <trkpt lat="45.9358" lon="4.72234">
        <ele>173</ele>
        <time>2018-05-29T10:11:09Z</time>
      </trkpt>
      <trkpt lat="45.93577" lon="4.7223">
        <ele>173</ele>
        <time>2018-05-29T10:11:10Z</time>
      </trkpt>
      <trkpt lat="45.93571" lon="4.72226">
        <ele>173</ele>
        <time>2018-05-29T10:11:12Z</time>
      </trkpt>
      <trkpt lat="45.93568" lon="4.72222">
        <ele>173</ele>
        <time>2018-05-29T10:11:13Z</time>
      </trkpt>
      <trkpt lat="45.9356" lon="4.72216">
        <ele>173</ele>
        <time>2018-05-29T10:11:31Z</time>
      </trkpt>
      <trkpt lat="45.9356" lon="4.72215">
        <ele>173</ele>
        <time>2018-05-29T10:11:32Z</time>
      </trkpt>
      <trkpt lat="45.93551" lon="4.72215">
        <ele>173</ele>
        <time>2018-05-29T10:11:36Z</time>
      </trkpt>
      <trkpt lat="45.93549" lon="4.72217">
        <ele>173</ele>
        <time>2018-05-29T10:11:37Z</time>
      </trkpt>
      <trkpt lat="45.93545" lon="4.72223">
        <ele>172</ele>
        <time>2018-05-29T10:11:39Z</time>
      </trkpt>
      <trkpt lat="45.93543" lon="4.72227">
        <ele>172</ele>
        <time>2018-05-29T10:11:40Z</time>
      </trkpt>
      <trkpt lat="45.9354" lon="4.72235">
        <ele>172</ele>
        <time>2018-05-29T10:11:42Z</time>
      </trkpt>
      <trkpt lat="45.93535" lon="4.72248">
        <ele>172</ele>
        <time>2018-05-29T10:11:43Z</time>
      </trkpt>
      <trkpt lat="45.93533" lon="4.72253">
        <ele>172</ele>
        <time>2018-05-29T10:11:45Z</time>
      </trkpt>
      <trkpt lat="45.93529" lon="4.72262">
        <ele>172</ele>
        <time>2018-05-29T10:11:46Z</time>
      </trkpt>
      <trkpt lat="45.93525" lon="4.72271">
        <ele>172</ele>
        <time>2018-05-29T10:11:48Z</time>
      </trkpt>
      <trkpt lat="45.93523" lon="4.72276">
        <ele>172</ele>
        <time>2018-05-29T10:11:49Z</time>
      </trkpt>
      <trkpt lat="45.93518" lon="4.72287">
        <ele>172</ele>
        <time>2018-05-29T10:11:51Z</time>
      </trkpt>
      <trkpt lat="45.93516" lon="4.72292">
        <ele>172</ele>
        <time>2018-05-29T10:11:52Z</time>
      </trkpt>
      <trkpt lat="45.93512" lon="4.72297">
        <ele>172</ele>
        <time>2018-05-29T10:11:53Z</time>
      </trkpt>
      <trkpt lat="45.9351" lon="4.72303">
        <ele>172</ele>
        <time>2018-05-29T10:11:54Z</time>
      </trkpt>
      <trkpt lat="45.93505" lon="4.72307">
        <ele>173</ele>
        <time>2018-05-29T10:11:55Z</time>
      </trkpt>
      <trkpt lat="45.93502" lon="4.72313">
        <ele>173</ele>
        <time>2018-05-29T10:11:56Z</time>
      </trkpt>
      <trkpt lat="45.93497" lon="4.72317">
        <ele>173</ele>
        <time>2018-05-29T10:11:57Z</time>
      </trkpt>
      <trkpt lat="45.93493" lon="4.72323">
        <ele>173</ele>
        <time>2018-05-29T10:11:58Z</time>
      </trkpt>
      <trkpt lat="45.93489" lon="4.72328">
        <ele>173</ele>
        <time>2018-05-29T10:11:59Z</time>
      </trkpt>
      <trkpt lat="45.93486" lon="4.72334">
        <ele>173</ele>
        <time>2018-05-29T10:12:00Z</time>
      </trkpt>
      <trkpt lat="45.93482" lon="4.72339">
        <ele>173</ele>
        <time>2018-05-29T10:12:01Z</time>
      </trkpt>
      <trkpt lat="45.93478" lon="4.72344">
        <ele>173</ele>
        <time>2018-05-29T10:12:02Z</time>
      </trkpt>
      <trkpt lat="45.93474" lon="4.72349">
        <ele>173</ele>
        <time>2018-05-29T10:12:03Z</time>
      </trkpt>
      <trkpt lat="45.9347" lon="4.72354">
        <ele>173</ele>
        <time>2018-05-29T10:12:04Z</time>
      </trkpt>
      <trkpt lat="45.93467" lon="4.72359">
        <ele>173</ele>
        <time>2018-05-29T10:12:05Z</time>
      </trkpt>
      <trkpt lat="45.93464" lon="4.72365">
        <ele>173</ele>
        <time>2018-05-29T10:12:06Z</time>
      </trkpt>
      <trkpt lat="45.9346" lon="4.7237">
        <ele>173</ele>
        <time>2018-05-29T10:12:07Z</time>
      </trkpt>
      <trkpt lat="45.93456" lon="4.72374">
        <ele>173</ele>
        <time>2018-05-29T10:12:08Z</time>
      </trkpt>
      <trkpt lat="45.93451" lon="4.72378">
        <ele>173</ele>
        <time>2018-05-29T10:12:09Z</time>
      </trkpt>
      <trkpt lat="45.93447" lon="4.72383">
        <ele>173</ele>
        <time>2018-05-29T10:12:10Z</time>
      </trkpt>
      <trkpt lat="45.93442" lon="4.72387">
        <ele>173</ele>
        <time>2018-05-29T10:12:11Z</time>
      </trkpt>
      <trkpt lat="45.93438" lon="4.7239">
        <ele>173</ele>
        <time>2018-05-29T10:12:12Z</time>
      </trkpt>
      <trkpt lat="45.93433" lon="4.72393">
        <ele>173</ele>
        <time>2018-05-29T10:12:13Z</time>
      </trkpt>
      <trkpt lat="45.93429" lon="4.72396">
        <ele>174</ele>
        <time>2018-05-29T10:12:14Z</time>
      </trkpt>
      <trkpt lat="45.93423" lon="4.72398">
        <ele>174</ele>
        <time>2018-05-29T10:12:15Z</time>
      </trkpt>
      <trkpt lat="45.93419" lon="4.72399">
        <ele>174</ele>
        <time>2018-05-29T10:12:16Z</time>
      </trkpt>
      <trkpt lat="45.93413" lon="4.72402">
        <ele>174</ele>
        <time>2018-05-29T10:12:17Z</time>
      </trkpt>
      <trkpt lat="45.93408" lon="4.72403">
        <ele>174</ele>
        <time>2018-05-29T10:12:18Z</time>
      </trkpt>
      <trkpt lat="45.93403" lon="4.72405">
        <ele>174</ele>
        <time>2018-05-29T10:12:19Z</time>
      </trkpt>
      <trkpt lat="45.93397" lon="4.72403">
        <ele>174</ele>
        <time>2018-05-29T10:12:20Z</time>
      </trkpt>
      <trkpt lat="45.93393" lon="4.72403">
        <ele>174</ele>
        <time>2018-05-29T10:12:21Z</time>
      </trkpt>
      <trkpt lat="45.93388" lon="4.72403">
        <ele>174</ele>
        <time>2018-05-29T10:12:22Z</time>
      </trkpt>
      <trkpt lat="45.93384" lon="4.72406">
        <ele>174</ele>
        <time>2018-05-29T10:12:23Z</time>
      </trkpt>
      <trkpt lat="45.93381" lon="4.72411">
        <ele>174</ele>
        <time>2018-05-29T10:12:24Z</time>
      </trkpt>
      <trkpt lat="45.93379" lon="4.72418">
        <ele>173</ele>
        <time>2018-05-29T10:12:25Z</time>
      </trkpt>
      <trkpt lat="45.9338" lon="4.72425">
        <ele>173</ele>
        <time>2018-05-29T10:12:26Z</time>
      </trkpt>
      <trkpt lat="45.93382" lon="4.72432">
        <ele>173</ele>
        <time>2018-05-29T10:12:27Z</time>
      </trkpt>
      <trkpt lat="45.93385" lon="4.72438">
        <ele>173</ele>
        <time>2018-05-29T10:12:28Z</time>
      </trkpt>
      <trkpt lat="45.93387" lon="4.72445">
        <ele>173</ele>
        <time>2018-05-29T10:12:29Z</time>
      </trkpt>
      <trkpt lat="45.93389" lon="4.72452">
        <ele>173</ele>
        <time>2018-05-29T10:12:30Z</time>
      </trkpt>
      <trkpt lat="45.93387" lon="4.72459">
        <ele>173</ele>
        <time>2018-05-29T10:12:31Z</time>
      </trkpt>
      <trkpt lat="45.93385" lon="4.72464">
        <ele>173</ele>
        <time>2018-05-29T10:12:32Z</time>
      </trkpt>
      <trkpt lat="45.93381" lon="4.7247">
        <ele>173</ele>
        <time>2018-05-29T10:12:33Z</time>
      </trkpt>
      <trkpt lat="45.93376" lon="4.72474">
        <ele>173</ele>
        <time>2018-05-29T10:12:34Z</time>
      </trkpt>
      <trkpt lat="45.93372" lon="4.72478">
        <ele>173</ele>
        <time>2018-05-29T10:12:35Z</time>
      </trkpt>
      <trkpt lat="45.93368" lon="4.72485">
        <ele>173</ele>
        <time>2018-05-29T10:12:36Z</time>
      </trkpt>
      <trkpt lat="45.93364" lon="4.7249">
        <ele>173</ele>
        <time>2018-05-29T10:12:37Z</time>
      </trkpt>
      <trkpt lat="45.93361" lon="4.72495">
        <ele>173</ele>
        <time>2018-05-29T10:12:38Z</time>
      </trkpt>
      <trkpt lat="45.93356" lon="4.72499">
        <ele>173</ele>
        <time>2018-05-29T10:12:39Z</time>
      </trkpt>
      <trkpt lat="45.93352" lon="4.72503">
        <ele>172</ele>
        <time>2018-05-29T10:12:40Z</time>
      </trkpt>
      <trkpt lat="45.93348" lon="4.72508">
        <ele>172</ele>
        <time>2018-05-29T10:12:41Z</time>
      </trkpt>
      <trkpt lat="45.93344" lon="4.72512">
        <ele>172</ele>
        <time>2018-05-29T10:12:42Z</time>
      </trkpt>
      <trkpt lat="45.9334" lon="4.72516">
        <ele>172</ele>
        <time>2018-05-29T10:12:43Z</time>
      </trkpt>
      <trkpt lat="45.93335" lon="4.72521">
        <ele>172</ele>
        <time>2018-05-29T10:12:44Z</time>
      </trkpt>
      <trkpt lat="45.93331" lon="4.72526">
        <ele>172</ele>
        <time>2018-05-29T10:12:45Z</time>
      </trkpt>
      <trkpt lat="45.93327" lon="4.72531">
        <ele>172</ele>
        <time>2018-05-29T10:12:46Z</time>
      </trkpt>
      <trkpt lat="45.93323" lon="4.72536">
        <ele>172</ele>
        <time>2018-05-29T10:12:47Z</time>
      </trkpt>
      <trkpt lat="45.9332" lon="4.72541">
        <ele>172</ele>
        <time>2018-05-29T10:12:48Z</time>
      </trkpt>
      <trkpt lat="45.93313" lon="4.72549">
        <ele>172</ele>
        <time>2018-05-29T10:12:50Z</time>
      </trkpt>
      <trkpt lat="45.9331" lon="4.72555">
        <ele>172</ele>
        <time>2018-05-29T10:12:51Z</time>
      </trkpt>
      <trkpt lat="45.93306" lon="4.7256">
        <ele>172</ele>
        <time>2018-05-29T10:12:52Z</time>
      </trkpt>
      <trkpt lat="45.93301" lon="4.72564">
        <ele>172</ele>
        <time>2018-05-29T10:12:53Z</time>
      </trkpt>
      <trkpt lat="45.93297" lon="4.72571">
        <ele>171</ele>
        <time>2018-05-29T10:12:54Z</time>
      </trkpt>
      <trkpt lat="45.93294" lon="4.72574">
        <ele>171</ele>
        <time>2018-05-29T10:12:55Z</time>
      </trkpt>
      <trkpt lat="45.9329" lon="4.72579">
        <ele>171</ele>
        <time>2018-05-29T10:12:56Z</time>
      </trkpt>
      <trkpt lat="45.93286" lon="4.72585">
        <ele>170</ele>
        <time>2018-05-29T10:12:57Z</time>
      </trkpt>
      <trkpt lat="45.93281" lon="4.72588">
        <ele>170</ele>
        <time>2018-05-29T10:12:58Z</time>
      </trkpt>
      <trkpt lat="45.93277" lon="4.72593">
        <ele>170</ele>
        <time>2018-05-29T10:12:59Z</time>
      </trkpt>
      <trkpt lat="45.93274" lon="4.72598">
        <ele>170</ele>
        <time>2018-05-29T10:13:00Z</time>
      </trkpt>
      <trkpt lat="45.9327" lon="4.72603">
        <ele>170</ele>
        <time>2018-05-29T10:13:01Z</time>
      </trkpt>
      <trkpt lat="45.93265" lon="4.72607">
        <ele>170</ele>
        <time>2018-05-29T10:13:02Z</time>
      </trkpt>
      <trkpt lat="45.93261" lon="4.72612">
        <ele>170</ele>
        <time>2018-05-29T10:13:03Z</time>
      </trkpt>
      <trkpt lat="45.93258" lon="4.72616">
        <ele>170</ele>
        <time>2018-05-29T10:13:04Z</time>
      </trkpt>
      <trkpt lat="45.93252" lon="4.7262">
        <ele>170</ele>
        <time>2018-05-29T10:13:05Z</time>
      </trkpt>
      <trkpt lat="45.93248" lon="4.72625">
        <ele>170</ele>
        <time>2018-05-29T10:13:06Z</time>
      </trkpt>
      <trkpt lat="45.93244" lon="4.7263">
        <ele>170</ele>
        <time>2018-05-29T10:13:07Z</time>
      </trkpt>
      <trkpt lat="45.9324" lon="4.72634">
        <ele>170</ele>
        <time>2018-05-29T10:13:08Z</time>
      </trkpt>
      <trkpt lat="45.93235" lon="4.72638">
        <ele>170</ele>
        <time>2018-05-29T10:13:09Z</time>
      </trkpt>
      <trkpt lat="45.93231" lon="4.72643">
        <ele>170</ele>
        <time>2018-05-29T10:13:10Z</time>
      </trkpt>
      <trkpt lat="45.93227" lon="4.72647">
        <ele>170</ele>
        <time>2018-05-29T10:13:11Z</time>
      </trkpt>
      <trkpt lat="45.9322" lon="4.72654">
        <ele>170</ele>
        <time>2018-05-29T10:13:13Z</time>
      </trkpt>
      <trkpt lat="45.93216" lon="4.72659">
        <ele>170</ele>
        <time>2018-05-29T10:13:14Z</time>
      </trkpt>
      <trkpt lat="45.9321" lon="4.72668">
        <ele>169</ele>
        <time>2018-05-29T10:13:16Z</time>
      </trkpt>
      <trkpt lat="45.93206" lon="4.72672">
        <ele>169</ele>
        <time>2018-05-29T10:13:17Z</time>
      </trkpt>
      <trkpt lat="45.93202" lon="4.72677">
        <ele>169</ele>
        <time>2018-05-29T10:13:18Z</time>
      </trkpt>
      <trkpt lat="45.93199" lon="4.72681">
        <ele>169</ele>
        <time>2018-05-29T10:13:19Z</time>
      </trkpt>
      <trkpt lat="45.93196" lon="4.72685">
        <ele>169</ele>
        <time>2018-05-29T10:13:20Z</time>
      </trkpt>
      <trkpt lat="45.93191" lon="4.7269">
        <ele>169</ele>
        <time>2018-05-29T10:13:21Z</time>
      </trkpt>
      <trkpt lat="45.93187" lon="4.72695">
        <ele>169</ele>
        <time>2018-05-29T10:13:22Z</time>
      </trkpt>
      <trkpt lat="45.93184" lon="4.72699">
        <ele>169</ele>
        <time>2018-05-29T10:13:23Z</time>
      </trkpt>
      <trkpt lat="45.9318" lon="4.72703">
        <ele>169</ele>
        <time>2018-05-29T10:13:24Z</time>
      </trkpt>
      <trkpt lat="45.93176" lon="4.72708">
        <ele>169</ele>
        <time>2018-05-29T10:13:25Z</time>
      </trkpt>
      <trkpt lat="45.93172" lon="4.72713">
        <ele>170</ele>
        <time>2018-05-29T10:13:26Z</time>
      </trkpt>
      <trkpt lat="45.93168" lon="4.72718">
        <ele>170</ele>
        <time>2018-05-29T10:13:27Z</time>
      </trkpt>
      <trkpt lat="45.93164" lon="4.72723">
        <ele>170</ele>
        <time>2018-05-29T10:13:28Z</time>
      </trkpt>
      <trkpt lat="45.9316" lon="4.72728">
        <ele>170</ele>
        <time>2018-05-29T10:13:29Z</time>
      </trkpt>
      <trkpt lat="45.93155" lon="4.72733">
        <ele>170</ele>
        <time>2018-05-29T10:13:30Z</time>
      </trkpt>
      <trkpt lat="45.93151" lon="4.72737">
        <ele>170</ele>
        <time>2018-05-29T10:13:31Z</time>
      </trkpt>
      <trkpt lat="45.93147" lon="4.72743">
        <ele>170</ele>
        <time>2018-05-29T10:13:32Z</time>
      </trkpt>
      <trkpt lat="45.93143" lon="4.72747">
        <ele>170</ele>
        <time>2018-05-29T10:13:33Z</time>
      </trkpt>
      <trkpt lat="45.93139" lon="4.72753">
        <ele>171</ele>
        <time>2018-05-29T10:13:34Z</time>
      </trkpt>
      <trkpt lat="45.93135" lon="4.72758">
        <ele>171</ele>
        <time>2018-05-29T10:13:35Z</time>
      </trkpt>
      <trkpt lat="45.9313" lon="4.72763">
        <ele>171</ele>
        <time>2018-05-29T10:13:36Z</time>
      </trkpt>
      <trkpt lat="45.93126" lon="4.72768">
        <ele>171</ele>
        <time>2018-05-29T10:13:37Z</time>
      </trkpt>
      <trkpt lat="45.93122" lon="4.72773">
        <ele>171</ele>
        <time>2018-05-29T10:13:38Z</time>
      </trkpt>
      <trkpt lat="45.93118" lon="4.72778">
        <ele>171</ele>
        <time>2018-05-29T10:13:39Z</time>
      </trkpt>
      <trkpt lat="45.93113" lon="4.72784">
        <ele>171</ele>
        <time>2018-05-29T10:13:40Z</time>
      </trkpt>
      <trkpt lat="45.9311" lon="4.72789">
        <ele>171</ele>
        <time>2018-05-29T10:13:41Z</time>
      </trkpt>
      <trkpt lat="45.93106" lon="4.72794">
        <ele>171</ele>
        <time>2018-05-29T10:13:42Z</time>
      </trkpt>
      <trkpt lat="45.93101" lon="4.728">
        <ele>171</ele>
        <time>2018-05-29T10:13:43Z</time>
      </trkpt>
      <trkpt lat="45.93096" lon="4.72805">
        <ele>171</ele>
        <time>2018-05-29T10:13:44Z</time>
      </trkpt>
      <trkpt lat="45.93091" lon="4.72809">
        <ele>172</ele>
        <time>2018-05-29T10:13:45Z</time>
      </trkpt>
      <trkpt lat="45.93087" lon="4.72813">
        <ele>172</ele>
        <time>2018-05-29T10:13:46Z</time>
      </trkpt>
      <trkpt lat="45.93083" lon="4.72818">
        <ele>172</ele>
        <time>2018-05-29T10:13:47Z</time>
      </trkpt>
      <trkpt lat="45.93076" lon="4.72825">
        <ele>173</ele>
        <time>2018-05-29T10:13:49Z</time>
      </trkpt>
      <trkpt lat="45.93072" lon="4.72829">
        <ele>173</ele>
        <time>2018-05-29T10:13:50Z</time>
      </trkpt>
      <trkpt lat="45.93041" lon="4.72865">
        <ele>172</ele>
        <time>2018-05-29T10:13:58Z</time>
      </trkpt>
      <trkpt lat="45.93038" lon="4.72868">
        <ele>172</ele>
        <time>2018-05-29T10:13:59Z</time>
      </trkpt>
      <trkpt lat="45.93033" lon="4.72875">
        <ele>172</ele>
        <time>2018-05-29T10:14:00Z</time>
      </trkpt>
      <trkpt lat="45.93028" lon="4.72884">
        <ele>172</ele>
        <time>2018-05-29T10:14:02Z</time>
      </trkpt>
      <trkpt lat="45.93024" lon="4.72889">
        <ele>172</ele>
        <time>2018-05-29T10:14:03Z</time>
      </trkpt>
      <trkpt lat="45.93019" lon="4.72893">
        <ele>172</ele>
        <time>2018-05-29T10:14:04Z</time>
      </trkpt>
      <trkpt lat="45.93016" lon="4.72897">
        <ele>172</ele>
        <time>2018-05-29T10:14:05Z</time>
      </trkpt>
      <trkpt lat="45.93012" lon="4.72901">
        <ele>172</ele>
        <time>2018-05-29T10:14:06Z</time>
      </trkpt>
      <trkpt lat="45.93008" lon="4.72905">
        <ele>171</ele>
        <time>2018-05-29T10:14:07Z</time>
      </trkpt>
      <trkpt lat="45.93004" lon="4.72909">
        <ele>171</ele>
        <time>2018-05-29T10:14:08Z</time>
      </trkpt>
      <trkpt lat="45.93001" lon="4.72915">
        <ele>171</ele>
        <time>2018-05-29T10:14:09Z</time>
      </trkpt>
      <trkpt lat="45.92997" lon="4.7292">
        <ele>171</ele>
        <time>2018-05-29T10:14:10Z</time>
      </trkpt>
      <trkpt lat="45.92993" lon="4.72924">
        <ele>171</ele>
        <time>2018-05-29T10:14:11Z</time>
      </trkpt>
      <trkpt lat="45.92989" lon="4.72928">
        <ele>171</ele>
        <time>2018-05-29T10:14:12Z</time>
      </trkpt>
      <trkpt lat="45.92985" lon="4.72932">
        <ele>171</ele>
        <time>2018-05-29T10:14:13Z</time>
      </trkpt>
      <trkpt lat="45.92982" lon="4.72936">
        <ele>171</ele>
        <time>2018-05-29T10:14:14Z</time>
      </trkpt>
      <trkpt lat="45.92978" lon="4.7294">
        <ele>171</ele>
        <time>2018-05-29T10:14:15Z</time>
      </trkpt>
      <trkpt lat="45.9297" lon="4.72946">
        <ele>171</ele>
        <time>2018-05-29T10:14:17Z</time>
      </trkpt>
      <trkpt lat="45.92966" lon="4.72951">
        <ele>171</ele>
        <time>2018-05-29T10:14:18Z</time>
      </trkpt>
      <trkpt lat="45.92959" lon="4.72959">
        <ele>171</ele>
        <time>2018-05-29T10:14:20Z</time>
      </trkpt>
      <trkpt lat="45.92955" lon="4.72963">
        <ele>171</ele>
        <time>2018-05-29T10:14:21Z</time>
      </trkpt>
      <trkpt lat="45.92952" lon="4.72968">
        <ele>171</ele>
        <time>2018-05-29T10:14:22Z</time>
      </trkpt>
      <trkpt lat="45.92948" lon="4.72973">
        <ele>171</ele>
        <time>2018-05-29T10:14:23Z</time>
      </trkpt>
      <trkpt lat="45.92945" lon="4.72978">
        <ele>171</ele>
        <time>2018-05-29T10:14:24Z</time>
      </trkpt>
      <trkpt lat="45.92941" lon="4.72983">
        <ele>171</ele>
        <time>2018-05-29T10:14:25Z</time>
      </trkpt>
      <trkpt lat="45.92937" lon="4.72987">
        <ele>171</ele>
        <time>2018-05-29T10:14:26Z</time>
      </trkpt>
      <trkpt lat="45.92934" lon="4.72993">
        <ele>172</ele>
        <time>2018-05-29T10:14:27Z</time>
      </trkpt>
      <trkpt lat="45.92927" lon="4.73001">
        <ele>172</ele>
        <time>2018-05-29T10:14:29Z</time>
      </trkpt>
      <trkpt lat="45.92924" lon="4.73007">
        <ele>172</ele>
        <time>2018-05-29T10:14:30Z</time>
      </trkpt>
      <trkpt lat="45.9292" lon="4.73011">
        <ele>172</ele>
        <time>2018-05-29T10:14:31Z</time>
      </trkpt>
      <trkpt lat="45.92917" lon="4.73017">
        <ele>172</ele>
        <time>2018-05-29T10:14:32Z</time>
      </trkpt>
      <trkpt lat="45.92914" lon="4.73021">
        <ele>172</ele>
        <time>2018-05-29T10:14:33Z</time>
      </trkpt>
      <trkpt lat="45.9291" lon="4.73026">
        <ele>172</ele>
        <time>2018-05-29T10:14:34Z</time>
      </trkpt>
      <trkpt lat="45.92904" lon="4.73035">
        <ele>172</ele>
        <time>2018-05-29T10:14:36Z</time>
      </trkpt>
      <trkpt lat="45.92901" lon="4.7304">
        <ele>172</ele>
        <time>2018-05-29T10:14:37Z</time>
      </trkpt>
      <trkpt lat="45.92898" lon="4.73044">
        <ele>172</ele>
        <time>2018-05-29T10:14:38Z</time>
      </trkpt>
      <trkpt lat="45.92894" lon="4.73049">
        <ele>172</ele>
        <time>2018-05-29T10:14:39Z</time>
      </trkpt>
      <trkpt lat="45.92888" lon="4.73058">
        <ele>172</ele>
        <time>2018-05-29T10:14:41Z</time>
      </trkpt>
      <trkpt lat="45.92885" lon="4.73063">
        <ele>172</ele>
        <time>2018-05-29T10:14:42Z</time>
      </trkpt>
      <trkpt lat="45.92883" lon="4.73069">
        <ele>172</ele>
        <time>2018-05-29T10:14:43Z</time>
      </trkpt>
      <trkpt lat="45.9288" lon="4.73073">
        <ele>172</ele>
        <time>2018-05-29T10:14:44Z</time>
      </trkpt>
      <trkpt lat="45.92873" lon="4.7308">
        <ele>172</ele>
        <time>2018-05-29T10:14:46Z</time>
      </trkpt>
      <trkpt lat="45.9287" lon="4.73084">
        <ele>172</ele>
        <time>2018-05-29T10:14:47Z</time>
      </trkpt>
      <trkpt lat="45.92869" lon="4.73094">
        <ele>172</ele>
        <time>2018-05-29T10:14:48Z</time>
      </trkpt>
      <trkpt lat="45.92866" lon="4.73097">
        <ele>172</ele>
        <time>2018-05-29T10:14:49Z</time>
      </trkpt>
      <trkpt lat="45.9286" lon="4.73103">
        <ele>171</ele>
        <time>2018-05-29T10:14:51Z</time>
      </trkpt>
      <trkpt lat="45.92855" lon="4.73103">
        <ele>171</ele>
        <time>2018-05-29T10:14:52Z</time>
      </trkpt>
      <trkpt lat="45.9285" lon="4.73097">
        <ele>171</ele>
        <time>2018-05-29T10:14:54Z</time>
      </trkpt>
      <trkpt lat="45.92848" lon="4.73092">
        <ele>171</ele>
        <time>2018-05-29T10:14:55Z</time>
      </trkpt>
      <trkpt lat="45.92844" lon="4.73085">
        <ele>171</ele>
        <time>2018-05-29T10:14:56Z</time>
      </trkpt>
      <trkpt lat="45.92843" lon="4.73077">
        <ele>171</ele>
        <time>2018-05-29T10:14:57Z</time>
      </trkpt>
      <trkpt lat="45.92841" lon="4.7307">
        <ele>171</ele>
        <time>2018-05-29T10:14:58Z</time>
      </trkpt>
      <trkpt lat="45.92841" lon="4.73064">
        <ele>171</ele>
        <time>2018-05-29T10:14:59Z</time>
      </trkpt>
      <trkpt lat="45.92839" lon="4.73057">
        <ele>171</ele>
        <time>2018-05-29T10:15:00Z</time>
      </trkpt>
      <trkpt lat="45.92837" lon="4.73051">
        <ele>171</ele>
        <time>2018-05-29T10:15:01Z</time>
      </trkpt>
      <trkpt lat="45.92836" lon="4.73044">
        <ele>171</ele>
        <time>2018-05-29T10:15:02Z</time>
      </trkpt>
      <trkpt lat="45.92834" lon="4.73038">
        <ele>171</ele>
        <time>2018-05-29T10:15:03Z</time>
      </trkpt>
      <trkpt lat="45.92832" lon="4.73031">
        <ele>170</ele>
        <time>2018-05-29T10:15:04Z</time>
      </trkpt>
      <trkpt lat="45.92832" lon="4.73025">
        <ele>170</ele>
        <time>2018-05-29T10:15:05Z</time>
      </trkpt>
      <trkpt lat="45.9283" lon="4.73013">
        <ele>170</ele>
        <time>2018-05-29T10:15:07Z</time>
      </trkpt>
      <trkpt lat="45.92829" lon="4.73007">
        <ele>170</ele>
        <time>2018-05-29T10:15:08Z</time>
      </trkpt>
      <trkpt lat="45.92829" lon="4.73001">
        <ele>170</ele>
        <time>2018-05-29T10:15:09Z</time>
      </trkpt>
      <trkpt lat="45.92828" lon="4.72994">
        <ele>170</ele>
        <time>2018-05-29T10:15:10Z</time>
      </trkpt>
      <trkpt lat="45.92828" lon="4.72982">
        <ele>170</ele>
        <time>2018-05-29T10:15:12Z</time>
      </trkpt>
      <trkpt lat="45.92827" lon="4.72974">
        <ele>170</ele>
        <time>2018-05-29T10:15:13Z</time>
      </trkpt>
      <trkpt lat="45.92826" lon="4.72967">
        <ele>170</ele>
        <time>2018-05-29T10:15:14Z</time>
      </trkpt>
      <trkpt lat="45.92827" lon="4.7296">
        <ele>170</ele>
        <time>2018-05-29T10:15:15Z</time>
      </trkpt>
      <trkpt lat="45.92827" lon="4.72953">
        <ele>170</ele>
        <time>2018-05-29T10:15:16Z</time>
      </trkpt>
      <trkpt lat="45.92827" lon="4.72947">
        <ele>170</ele>
        <time>2018-05-29T10:15:17Z</time>
      </trkpt>
      <trkpt lat="45.92827" lon="4.7294">
        <ele>170</ele>
        <time>2018-05-29T10:15:18Z</time>
      </trkpt>
      <trkpt lat="45.92826" lon="4.72934">
        <ele>170</ele>
        <time>2018-05-29T10:15:19Z</time>
      </trkpt>
      <trkpt lat="45.92826" lon="4.72926">
        <ele>170</ele>
        <time>2018-05-29T10:15:20Z</time>
      </trkpt>
      <trkpt lat="45.92825" lon="4.72918">
        <ele>170</ele>
        <time>2018-05-29T10:15:21Z</time>
      </trkpt>
      <trkpt lat="45.92824" lon="4.72911">
        <ele>170</ele>
        <time>2018-05-29T10:15:22Z</time>
      </trkpt>
      <trkpt lat="45.9282" lon="4.72904">
        <ele>170</ele>
        <time>2018-05-29T10:15:23Z</time>
      </trkpt>
      <trkpt lat="45.92819" lon="4.72896">
        <ele>170</ele>
        <time>2018-05-29T10:15:24Z</time>
      </trkpt>
      <trkpt lat="45.92818" lon="4.72889">
        <ele>170</ele>
        <time>2018-05-29T10:15:25Z</time>
      </trkpt>
      <trkpt lat="45.92816" lon="4.7288">
        <ele>170</ele>
        <time>2018-05-29T10:15:26Z</time>
      </trkpt>
      <trkpt lat="45.92814" lon="4.72873">
        <ele>170</ele>
        <time>2018-05-29T10:15:27Z</time>
      </trkpt>
      <trkpt lat="45.92813" lon="4.72866">
        <ele>170</ele>
        <time>2018-05-29T10:15:28Z</time>
      </trkpt>
      <trkpt lat="45.9281" lon="4.72859">
        <ele>170</ele>
        <time>2018-05-29T10:15:29Z</time>
      </trkpt>
      <trkpt lat="45.92809" lon="4.72846">
        <ele>170</ele>
        <time>2018-05-29T10:15:31Z</time>
      </trkpt>
      <trkpt lat="45.92808" lon="4.72839">
        <ele>170</ele>
        <time>2018-05-29T10:15:32Z</time>
      </trkpt>
      <trkpt lat="45.92806" lon="4.72827">
        <ele>171</ele>
        <time>2018-05-29T10:15:34Z</time>
      </trkpt>
      <trkpt lat="45.92805" lon="4.7282">
        <ele>171</ele>
        <time>2018-05-29T10:15:35Z</time>
      </trkpt>
      <trkpt lat="45.92804" lon="4.72813">
        <ele>171</ele>
        <time>2018-05-29T10:15:36Z</time>
      </trkpt>
      <trkpt lat="45.92802" lon="4.72806">
        <ele>171</ele>
        <time>2018-05-29T10:15:37Z</time>
      </trkpt>
      <trkpt lat="45.92801" lon="4.72799">
        <ele>171</ele>
        <time>2018-05-29T10:15:38Z</time>
      </trkpt>
      <trkpt lat="45.92799" lon="4.72794">
        <ele>171</ele>
        <time>2018-05-29T10:15:39Z</time>
      </trkpt>
      <trkpt lat="45.92791" lon="4.72789">
        <ele>171</ele>
        <time>2018-05-29T10:15:41Z</time>
      </trkpt>
      <trkpt lat="45.92789" lon="4.7279">
        <ele>170</ele>
        <time>2018-05-29T10:15:42Z</time>
      </trkpt>
      <trkpt lat="45.92784" lon="4.72797">
        <ele>170</ele>
        <time>2018-05-29T10:15:44Z</time>
      </trkpt>
      <trkpt lat="45.9278" lon="4.728">
        <ele>170</ele>
        <time>2018-05-29T10:15:45Z</time>
      </trkpt>
      <trkpt lat="45.92772" lon="4.72805">
        <ele>170</ele>
        <time>2018-05-29T10:15:47Z</time>
      </trkpt>
      <trkpt lat="45.92768" lon="4.72808">
        <ele>170</ele>
        <time>2018-05-29T10:15:48Z</time>
      </trkpt>
      <trkpt lat="45.92764" lon="4.72813">
        <ele>170</ele>
        <time>2018-05-29T10:15:49Z</time>
      </trkpt>
      <trkpt lat="45.9276" lon="4.72815">
        <ele>170</ele>
        <time>2018-05-29T10:15:50Z</time>
      </trkpt>
      <trkpt lat="45.92756" lon="4.72818">
        <ele>170</ele>
        <time>2018-05-29T10:15:51Z</time>
      </trkpt>
      <trkpt lat="45.92751" lon="4.72821">
        <ele>170</ele>
        <time>2018-05-29T10:15:52Z</time>
      </trkpt>
      <trkpt lat="45.92746" lon="4.72824">
        <ele>169</ele>
        <time>2018-05-29T10:15:53Z</time>
      </trkpt>
      <trkpt lat="45.92742" lon="4.72828">
        <ele>169</ele>
        <time>2018-05-29T10:15:54Z</time>
      </trkpt>
      <trkpt lat="45.92738" lon="4.72833">
        <ele>169</ele>
        <time>2018-05-29T10:15:55Z</time>
      </trkpt>
      <trkpt lat="45.92734" lon="4.72836">
        <ele>169</ele>
        <time>2018-05-29T10:15:56Z</time>
      </trkpt>
      <trkpt lat="45.92725" lon="4.72841">
        <ele>169</ele>
        <time>2018-05-29T10:15:58Z</time>
      </trkpt>
      <trkpt lat="45.92721" lon="4.72844">
        <ele>169</ele>
        <time>2018-05-29T10:15:59Z</time>
      </trkpt>
      <trkpt lat="45.92717" lon="4.72849">
        <ele>169</ele>
        <time>2018-05-29T10:16:00Z</time>
      </trkpt>
      <trkpt lat="45.92714" lon="4.72852">
        <ele>169</ele>
        <time>2018-05-29T10:16:01Z</time>
      </trkpt>
      <trkpt lat="45.92709" lon="4.72855">
        <ele>169</ele>
        <time>2018-05-29T10:16:02Z</time>
      </trkpt>
      <trkpt lat="45.92705" lon="4.72858">
        <ele>169</ele>
        <time>2018-05-29T10:16:03Z</time>
      </trkpt>
      <trkpt lat="45.927" lon="4.72862">
        <ele>169</ele>
        <time>2018-05-29T10:16:04Z</time>
      </trkpt>
      <trkpt lat="45.92696" lon="4.72864">
        <ele>169</ele>
        <time>2018-05-29T10:16:05Z</time>
      </trkpt>
      <trkpt lat="45.92692" lon="4.72867">
        <ele>169</ele>
        <time>2018-05-29T10:16:06Z</time>
      </trkpt>
      <trkpt lat="45.92687" lon="4.72872">
        <ele>169</ele>
        <time>2018-05-29T10:16:07Z</time>
      </trkpt>
      <trkpt lat="45.92679" lon="4.72878">
        <ele>170</ele>
        <time>2018-05-29T10:16:09Z</time>
      </trkpt>
      <trkpt lat="45.92675" lon="4.7288">
        <ele>170</ele>
        <time>2018-05-29T10:16:10Z</time>
      </trkpt>
      <trkpt lat="45.92667" lon="4.72885">
        <ele>170</ele>
        <time>2018-05-29T10:16:12Z</time>
      </trkpt>
      <trkpt lat="45.92665" lon="4.72891">
        <ele>169</ele>
        <time>2018-05-29T10:16:13Z</time>
      </trkpt>
      <trkpt lat="45.92657" lon="4.72896">
        <ele>170</ele>
        <time>2018-05-29T10:16:15Z</time>
      </trkpt>
      <trkpt lat="45.92652" lon="4.72898">
        <ele>170</ele>
        <time>2018-05-29T10:16:16Z</time>
      </trkpt>
      <trkpt lat="45.92647" lon="4.729">
        <ele>169</ele>
        <time>2018-05-29T10:16:17Z</time>
      </trkpt>
      <trkpt lat="45.92644" lon="4.72904">
        <ele>169</ele>
        <time>2018-05-29T10:16:18Z</time>
      </trkpt>
      <trkpt lat="45.9264" lon="4.72907">
        <ele>169</ele>
        <time>2018-05-29T10:16:19Z</time>
      </trkpt>
      <trkpt lat="45.92635" lon="4.72909">
        <ele>169</ele>
        <time>2018-05-29T10:16:20Z</time>
      </trkpt>
      <trkpt lat="45.92631" lon="4.72914">
        <ele>169</ele>
        <time>2018-05-29T10:16:21Z</time>
      </trkpt>
      <trkpt lat="45.92627" lon="4.72917">
        <ele>169</ele>
        <time>2018-05-29T10:16:22Z</time>
      </trkpt>
      <trkpt lat="45.9262" lon="4.72924">
        <ele>169</ele>
        <time>2018-05-29T10:16:24Z</time>
      </trkpt>
      <trkpt lat="45.92616" lon="4.72928">
        <ele>169</ele>
        <time>2018-05-29T10:16:25Z</time>
      </trkpt>
      <trkpt lat="45.92612" lon="4.72932">
        <ele>169</ele>
        <time>2018-05-29T10:16:26Z</time>
      </trkpt>
      <trkpt lat="45.92608" lon="4.72936">
        <ele>169</ele>
        <time>2018-05-29T10:16:27Z</time>
      </trkpt>
      <trkpt lat="45.92605" lon="4.72941">
        <ele>169</ele>
        <time>2018-05-29T10:16:28Z</time>
      </trkpt>
      <trkpt lat="45.92601" lon="4.72944">
        <ele>169</ele>
        <time>2018-05-29T10:16:29Z</time>
      </trkpt>
      <trkpt lat="45.92597" lon="4.7295">
        <ele>169</ele>
        <time>2018-05-29T10:16:30Z</time>
      </trkpt>
      <trkpt lat="45.92592" lon="4.72955">
        <ele>169</ele>
        <time>2018-05-29T10:16:31Z</time>
      </trkpt>
      <trkpt lat="45.92586" lon="4.72964">
        <ele>169</ele>
        <time>2018-05-29T10:16:33Z</time>
      </trkpt>
      <trkpt lat="45.92582" lon="4.72968">
        <ele>169</ele>
        <time>2018-05-29T10:16:34Z</time>
      </trkpt>
      <trkpt lat="45.92579" lon="4.72972">
        <ele>169</ele>
        <time>2018-05-29T10:16:35Z</time>
      </trkpt>
      <trkpt lat="45.92575" lon="4.72976">
        <ele>169</ele>
        <time>2018-05-29T10:16:36Z</time>
      </trkpt>
      <trkpt lat="45.92571" lon="4.72979">
        <ele>169</ele>
        <time>2018-05-29T10:16:37Z</time>
      </trkpt>
      <trkpt lat="45.92567" lon="4.72983">
        <ele>169</ele>
        <time>2018-05-29T10:16:38Z</time>
      </trkpt>
      <trkpt lat="45.9256" lon="4.72991">
        <ele>169</ele>
        <time>2018-05-29T10:16:40Z</time>
      </trkpt>
      <trkpt lat="45.92556" lon="4.72995">
        <ele>169</ele>
        <time>2018-05-29T10:16:41Z</time>
      </trkpt>
      <trkpt lat="45.92552" lon="4.72998">
        <ele>169</ele>
        <time>2018-05-29T10:16:42Z</time>
      </trkpt>
      <trkpt lat="45.92548" lon="4.73001">
        <ele>169</ele>
        <time>2018-05-29T10:16:43Z</time>
      </trkpt>
      <trkpt lat="45.92542" lon="4.73008">
        <ele>169</ele>
        <time>2018-05-29T10:16:45Z</time>
      </trkpt>
      <trkpt lat="45.92538" lon="4.73012">
        <ele>169</ele>
        <time>2018-05-29T10:16:46Z</time>
      </trkpt>
      <trkpt lat="45.9253" lon="4.73018">
        <ele>169</ele>
        <time>2018-05-29T10:16:48Z</time>
      </trkpt>
      <trkpt lat="45.92526" lon="4.73022">
        <ele>169</ele>
        <time>2018-05-29T10:16:49Z</time>
      </trkpt>
      <trkpt lat="45.92518" lon="4.73029">
        <ele>169</ele>
        <time>2018-05-29T10:16:51Z</time>
      </trkpt>
      <trkpt lat="45.92515" lon="4.73032">
        <ele>169</ele>
        <time>2018-05-29T10:16:52Z</time>
      </trkpt>
      <trkpt lat="45.92508" lon="4.73039">
        <ele>169</ele>
        <time>2018-05-29T10:16:54Z</time>
      </trkpt>
      <trkpt lat="45.92504" lon="4.73043">
        <ele>170</ele>
        <time>2018-05-29T10:16:55Z</time>
      </trkpt>
      <trkpt lat="45.92497" lon="4.73049">
        <ele>170</ele>
        <time>2018-05-29T10:16:57Z</time>
      </trkpt>
      <trkpt lat="45.92493" lon="4.73052">
        <ele>170</ele>
        <time>2018-05-29T10:16:58Z</time>
      </trkpt>
      <trkpt lat="45.92489" lon="4.73055">
        <ele>170</ele>
        <time>2018-05-29T10:16:59Z</time>
      </trkpt>
      <trkpt lat="45.92485" lon="4.73058">
        <ele>170</ele>
        <time>2018-05-29T10:17:00Z</time>
      </trkpt>
      <trkpt lat="45.92481" lon="4.73061">
        <ele>170</ele>
        <time>2018-05-29T10:17:01Z</time>
      </trkpt>
      <trkpt lat="45.92477" lon="4.73064">
        <ele>170</ele>
        <time>2018-05-29T10:17:02Z</time>
      </trkpt>
      <trkpt lat="45.92473" lon="4.73066">
        <ele>170</ele>
        <time>2018-05-29T10:17:03Z</time>
      </trkpt>
      <trkpt lat="45.92469" lon="4.73069">
        <ele>170</ele>
        <time>2018-05-29T10:17:04Z</time>
      </trkpt>
      <trkpt lat="45.92461" lon="4.73074">
        <ele>170</ele>
        <time>2018-05-29T10:17:06Z</time>
      </trkpt>
      <trkpt lat="45.92457" lon="4.73078">
        <ele>170</ele>
        <time>2018-05-29T10:17:07Z</time>
      </trkpt>
      <trkpt lat="45.9245" lon="4.73085">
        <ele>170</ele>
        <time>2018-05-29T10:17:09Z</time>
      </trkpt>
      <trkpt lat="45.92447" lon="4.73088">
        <ele>170</ele>
        <time>2018-05-29T10:17:10Z</time>
      </trkpt>
      <trkpt lat="45.9244" lon="4.73093">
        <ele>170</ele>
        <time>2018-05-29T10:17:12Z</time>
      </trkpt>
      <trkpt lat="45.92436" lon="4.73096">
        <ele>171</ele>
        <time>2018-05-29T10:17:13Z</time>
      </trkpt>
      <trkpt lat="45.92429" lon="4.73102">
        <ele>171</ele>
        <time>2018-05-29T10:17:15Z</time>
      </trkpt>
      <trkpt lat="45.92425" lon="4.73105">
        <ele>171</ele>
        <time>2018-05-29T10:17:16Z</time>
      </trkpt>
      <trkpt lat="45.92419" lon="4.73113">
        <ele>170</ele>
        <time>2018-05-29T10:17:18Z</time>
      </trkpt>
      <trkpt lat="45.92416" lon="4.73116">
        <ele>171</ele>
        <time>2018-05-29T10:17:19Z</time>
      </trkpt>
      <trkpt lat="45.92411" lon="4.73119">
        <ele>171</ele>
        <time>2018-05-29T10:17:20Z</time>
      </trkpt>
      <trkpt lat="45.92408" lon="4.73126">
        <ele>171</ele>
        <time>2018-05-29T10:17:21Z</time>
      </trkpt>
      <trkpt lat="45.92405" lon="4.73137">
        <ele>171</ele>
        <time>2018-05-29T10:17:23Z</time>
      </trkpt>
      <trkpt lat="45.92405" lon="4.73144">
        <ele>171</ele>
        <time>2018-05-29T10:17:24Z</time>
      </trkpt>
      <trkpt lat="45.92406" lon="4.73155">
        <ele>171</ele>
        <time>2018-05-29T10:17:26Z</time>
      </trkpt>
      <trkpt lat="45.92406" lon="4.73162">
        <ele>170</ele>
        <time>2018-05-29T10:17:27Z</time>
      </trkpt>
      <trkpt lat="45.92406" lon="4.73169">
        <ele>170</ele>
        <time>2018-05-29T10:17:28Z</time>
      </trkpt>
      <trkpt lat="45.92406" lon="4.73175">
        <ele>171</ele>
        <time>2018-05-29T10:17:29Z</time>
      </trkpt>
      <trkpt lat="45.92407" lon="4.73181">
        <ele>171</ele>
        <time>2018-05-29T10:17:30Z</time>
      </trkpt>
      <trkpt lat="45.92407" lon="4.73188">
        <ele>171</ele>
        <time>2018-05-29T10:17:31Z</time>
      </trkpt>
      <trkpt lat="45.92408" lon="4.732">
        <ele>171</ele>
        <time>2018-05-29T10:17:33Z</time>
      </trkpt>
      <trkpt lat="45.92407" lon="4.73207">
        <ele>171</ele>
        <time>2018-05-29T10:17:34Z</time>
      </trkpt>
      <trkpt lat="45.92406" lon="4.73213">
        <ele>171</ele>
        <time>2018-05-29T10:17:35Z</time>
      </trkpt>
      <trkpt lat="45.92406" lon="4.7322">
        <ele>171</ele>
        <time>2018-05-29T10:17:36Z</time>
      </trkpt>
      <trkpt lat="45.92406" lon="4.73225">
        <ele>171</ele>
        <time>2018-05-29T10:17:37Z</time>
      </trkpt>
      <trkpt lat="45.92407" lon="4.73232">
        <ele>171</ele>
        <time>2018-05-29T10:17:38Z</time>
      </trkpt>
      <trkpt lat="45.92408" lon="4.73244">
        <ele>171</ele>
        <time>2018-05-29T10:17:40Z</time>
      </trkpt>
      <trkpt lat="45.92409" lon="4.73251">
        <ele>171</ele>
        <time>2018-05-29T10:17:41Z</time>
      </trkpt>
      <trkpt lat="45.9241" lon="4.73262">
        <ele>171</ele>
        <time>2018-05-29T10:17:43Z</time>
      </trkpt>
      <trkpt lat="45.92411" lon="4.73269">
        <ele>171</ele>
        <time>2018-05-29T10:17:44Z</time>
      </trkpt>
      <trkpt lat="45.92411" lon="4.73275">
        <ele>171</ele>
        <time>2018-05-29T10:17:45Z</time>
      </trkpt>
      <trkpt lat="45.92411" lon="4.73282">
        <ele>171</ele>
        <time>2018-05-29T10:17:46Z</time>
      </trkpt>
      <trkpt lat="45.92413" lon="4.73294">
        <ele>171</ele>
        <time>2018-05-29T10:17:48Z</time>
      </trkpt>
      <trkpt lat="45.92414" lon="4.73302">
        <ele>171</ele>
        <time>2018-05-29T10:17:49Z</time>
      </trkpt>
      <trkpt lat="45.92414" lon="4.73308">
        <ele>171</ele>
        <time>2018-05-29T10:17:50Z</time>
      </trkpt>
      <trkpt lat="45.92414" lon="4.73315">
        <ele>171</ele>
        <time>2018-05-29T10:17:51Z</time>
      </trkpt>
      <trkpt lat="45.92416" lon="4.73327">
        <ele>171</ele>
        <time>2018-05-29T10:17:53Z</time>
      </trkpt>
      <trkpt lat="45.92416" lon="4.73334">
        <ele>171</ele>
        <time>2018-05-29T10:17:54Z</time>
      </trkpt>
      <trkpt lat="45.92416" lon="4.73341">
        <ele>171</ele>
        <time>2018-05-29T10:17:55Z</time>
      </trkpt>
      <trkpt lat="45.92417" lon="4.73347">
        <ele>171</ele>
        <time>2018-05-29T10:17:56Z</time>
      </trkpt>
      <trkpt lat="45.92419" lon="4.73358">
        <ele>171</ele>
        <time>2018-05-29T10:17:58Z</time>
      </trkpt>
      <trkpt lat="45.92421" lon="4.73365">
        <ele>172</ele>
        <time>2018-05-29T10:17:59Z</time>
      </trkpt>
      <trkpt lat="45.92422" lon="4.73377">
        <ele>172</ele>
        <time>2018-05-29T10:18:01Z</time>
      </trkpt>
      <trkpt lat="45.92423" lon="4.73384">
        <ele>172</ele>
        <time>2018-05-29T10:18:02Z</time>
      </trkpt>
      <trkpt lat="45.92426" lon="4.73396">
        <ele>172</ele>
        <time>2018-05-29T10:18:04Z</time>
      </trkpt>
      <trkpt lat="45.92428" lon="4.73401">
        <ele>172</ele>
        <time>2018-05-29T10:18:05Z</time>
      </trkpt>
      <trkpt lat="45.9243" lon="4.73406">
        <ele>172</ele>
        <time>2018-05-29T10:18:06Z</time>
      </trkpt>
      <trkpt lat="45.92434" lon="4.73412">
        <ele>172</ele>
        <time>2018-05-29T10:18:07Z</time>
      </trkpt>
      <trkpt lat="45.92438" lon="4.73415">
        <ele>172</ele>
        <time>2018-05-29T10:18:08Z</time>
      </trkpt>
      <trkpt lat="45.92442" lon="4.73418">
        <ele>173</ele>
        <time>2018-05-29T10:18:09Z</time>
      </trkpt>
      <trkpt lat="45.92446" lon="4.73421">
        <ele>173</ele>
        <time>2018-05-29T10:18:10Z</time>
      </trkpt>
      <trkpt lat="45.9245" lon="4.73423">
        <ele>173</ele>
        <time>2018-05-29T10:18:11Z</time>
      </trkpt>
      <trkpt lat="45.92454" lon="4.73427">
        <ele>173</ele>
        <time>2018-05-29T10:18:12Z</time>
      </trkpt>
      <trkpt lat="45.92459" lon="4.73432">
        <ele>173</ele>
        <time>2018-05-29T10:18:13Z</time>
      </trkpt>
      <trkpt lat="45.92464" lon="4.73442">
        <ele>173</ele>
        <time>2018-05-29T10:18:15Z</time>
      </trkpt>
      <trkpt lat="45.92466" lon="4.73448">
        <ele>173</ele>
        <time>2018-05-29T10:18:16Z</time>
      </trkpt>
      <trkpt lat="45.92468" lon="4.73454">
        <ele>173</ele>
        <time>2018-05-29T10:18:17Z</time>
      </trkpt>
      <trkpt lat="45.92468" lon="4.73461">
        <ele>173</ele>
        <time>2018-05-29T10:18:18Z</time>
      </trkpt>
      <trkpt lat="45.92468" lon="4.73468">
        <ele>173</ele>
        <time>2018-05-29T10:18:19Z</time>
      </trkpt>
      <trkpt lat="45.92468" lon="4.73475">
        <ele>173</ele>
        <time>2018-05-29T10:18:20Z</time>
      </trkpt>
      <trkpt lat="45.92468" lon="4.73482">
        <ele>173</ele>
        <time>2018-05-29T10:18:21Z</time>
      </trkpt>
      <trkpt lat="45.92468" lon="4.73489">
        <ele>173</ele>
        <time>2018-05-29T10:18:22Z</time>
      </trkpt>
      <trkpt lat="45.92468" lon="4.73497">
        <ele>173</ele>
        <time>2018-05-29T10:18:23Z</time>
      </trkpt>
      <trkpt lat="45.92467" lon="4.73503">
        <ele>174</ele>
        <time>2018-05-29T10:18:24Z</time>
      </trkpt>
      <trkpt lat="45.92465" lon="4.73515">
        <ele>174</ele>
        <time>2018-05-29T10:18:26Z</time>
      </trkpt>
      <trkpt lat="45.92465" lon="4.73522">
        <ele>174</ele>
        <time>2018-05-29T10:18:27Z</time>
      </trkpt>
      <trkpt lat="45.92465" lon="4.73533">
        <ele>174</ele>
        <time>2018-05-29T10:18:29Z</time>
      </trkpt>
      <trkpt lat="45.92464" lon="4.73538">
        <ele>174</ele>
        <time>2018-05-29T10:18:30Z</time>
      </trkpt>
      <trkpt lat="45.92464" lon="4.73548">
        <ele>173</ele>
        <time>2018-05-29T10:18:32Z</time>
      </trkpt>
      <trkpt lat="45.92464" lon="4.73554">
        <ele>173</ele>
        <time>2018-05-29T10:18:33Z</time>
      </trkpt>
      <trkpt lat="45.92464" lon="4.7356">
        <ele>173</ele>
        <time>2018-05-29T10:18:34Z</time>
      </trkpt>
      <trkpt lat="45.92465" lon="4.73567">
        <ele>173</ele>
        <time>2018-05-29T10:18:35Z</time>
      </trkpt>
      <trkpt lat="45.92465" lon="4.73574">
        <ele>173</ele>
        <time>2018-05-29T10:18:36Z</time>
      </trkpt>
      <trkpt lat="45.92465" lon="4.73582">
        <ele>173</ele>
        <time>2018-05-29T10:18:37Z</time>
      </trkpt>
      <trkpt lat="45.92466" lon="4.7359">
        <ele>174</ele>
        <time>2018-05-29T10:18:38Z</time>
      </trkpt>
      <trkpt lat="45.92467" lon="4.73597">
        <ele>174</ele>
        <time>2018-05-29T10:18:39Z</time>
      </trkpt>
      <trkpt lat="45.92467" lon="4.73605">
        <ele>174</ele>
        <time>2018-05-29T10:18:40Z</time>
      </trkpt>
      <trkpt lat="45.92467" lon="4.73612">
        <ele>174</ele>
        <time>2018-05-29T10:18:41Z</time>
      </trkpt>
      <trkpt lat="45.92468" lon="4.73619">
        <ele>174</ele>
        <time>2018-05-29T10:18:42Z</time>
      </trkpt>
      <trkpt lat="45.92468" lon="4.73625">
        <ele>174</ele>
        <time>2018-05-29T10:18:43Z</time>
      </trkpt>
      <trkpt lat="45.92469" lon="4.73632">
        <ele>174</ele>
        <time>2018-05-29T10:18:44Z</time>
      </trkpt>
      <trkpt lat="45.92469" lon="4.73639">
        <ele>174</ele>
        <time>2018-05-29T10:18:45Z</time>
      </trkpt>
      <trkpt lat="45.92468" lon="4.73652">
        <ele>174</ele>
        <time>2018-05-29T10:18:47Z</time>
      </trkpt>
      <trkpt lat="45.92469" lon="4.73654">
        <ele>174</ele>
        <time>2018-05-29T10:18:48Z</time>
      </trkpt>
      <trkpt lat="45.92468" lon="4.73662">
        <ele>174</ele>
        <time>2018-05-29T10:18:49Z</time>
      </trkpt>
      <trkpt lat="45.92467" lon="4.73667">
        <ele>174</ele>
        <time>2018-05-29T10:18:50Z</time>
      </trkpt>
      <trkpt lat="45.92467" lon="4.7368">
        <ele>174</ele>
        <time>2018-05-29T10:18:52Z</time>
      </trkpt>
      <trkpt lat="45.92466" lon="4.73687">
        <ele>174</ele>
        <time>2018-05-29T10:18:53Z</time>
      </trkpt>
      <trkpt lat="45.92465" lon="4.73698">
        <ele>174</ele>
        <time>2018-05-29T10:18:56Z</time>
      </trkpt>
      <trkpt lat="45.92464" lon="4.73701">
        <ele>174</ele>
        <time>2018-05-29T10:18:57Z</time>
      </trkpt>
      <trkpt lat="45.92459" lon="4.73711">
        <ele>174</ele>
        <time>2018-05-29T10:19:27Z</time>
      </trkpt>
      <trkpt lat="45.92458" lon="4.73711">
        <ele>174</ele>
        <time>2018-05-29T10:19:30Z</time>
      </trkpt>
      <trkpt lat="45.92457" lon="4.73711">
        <ele>174</ele>
        <time>2018-05-29T10:19:38.955Z</time>
      </trkpt>
    </trkseg>
  </trk>
</gpx>